<?xml version='1.0' encoding='UTF-8'?><gpx version="1.1" creator="JPX - https://github.com/jenetics/jpx" xmlns="http://www.topografix.com/GPX/1/1"><trk><trkseg><trkpt lat="43.6402708" lon="13.3661045"><ele>0.9999999999999999</ele><time>2026-04-19T06:58:18.28Z</time></trkpt><trkpt lat="43.6402194" lon="13.3660045"><ele>1.0</ele><time>2026-04-19T06:58:20.28Z</time></trkpt><trkpt lat="43.640146" lon="13.3659237"><ele>1.0</ele><time>2026-04-19T06:58:22.279Z</time></trkpt><trkpt lat="43.6400977" lon="13.365867"><ele>1.0</ele><time>2026-04-19T06:58:23.279Z</time></trkpt><trkpt lat="43.64005" lon="13.3658061"><ele>0.9999999999999999</ele><time>2026-04-19T06:58:24.28Z</time></trkpt><trkpt lat="43.6399985" lon="13.365741"><ele>1.0</ele><time>2026-04-19T06:58:25.28Z</time></trkpt><trkpt lat="43.6399454" lon="13.3656772"><ele>0.9999999999999999</ele><time>2026-04-19T06:58:26.28Z</time></trkpt><trkpt lat="43.63989" lon="13.365611"><ele>1.0</ele><time>2026-04-19T06:58:27.28Z</time></trkpt><trkpt lat="43.6398345" lon="13.365544"><ele>1.0</ele><time>2026-04-19T06:58:28.28Z</time></trkpt><trkpt lat="43.6397779" lon="13.3654763"><ele>1.0</ele><time>2026-04-19T06:58:29.279Z</time></trkpt><trkpt lat="43.6397198" lon="13.3654053"><ele>0.9999999999999999</ele><time>2026-04-19T06:58:30.28Z</time></trkpt><trkpt lat="43.6396578" lon="13.3653274"><ele>1.0</ele><time>2026-04-19T06:58:31.278Z</time></trkpt><trkpt lat="43.6395923" lon="13.3652472"><ele>1.0</ele><time>2026-04-19T06:58:32.278Z</time></trkpt><trkpt lat="43.6395164" lon="13.3651559"><ele>1.0</ele><time>2026-04-19T06:58:33.28Z</time></trkpt><trkpt lat="43.6394399" lon="13.3650579"><ele>1.0</ele><time>2026-04-19T06:58:34.28Z</time></trkpt><trkpt lat="43.6393585" lon="13.3649539"><ele>1.0</ele><time>2026-04-19T06:58:35.28Z</time></trkpt><trkpt lat="43.6392719" lon="13.3648456"><ele>1.0</ele><time>2026-04-19T06:58:36.28Z</time></trkpt><trkpt lat="43.6391807" lon="13.3647323"><ele>0.75</ele><time>2026-04-19T06:58:37.28Z</time></trkpt><trkpt lat="43.6390862" lon="13.3646151"><ele>0.5</ele><time>2026-04-19T06:58:38.28Z</time></trkpt><trkpt lat="43.6389915" lon="13.3644985"><ele>0.25</ele><time>2026-04-19T06:58:39.28Z</time></trkpt><trkpt lat="43.6388987" lon="13.3643834"><ele>0.0</ele><time>2026-04-19T06:58:40.279Z</time></trkpt><trkpt lat="43.638807" lon="13.3642687"><ele>0.0</ele><time>2026-04-19T06:58:41.28Z</time></trkpt><trkpt lat="43.6387158" lon="13.3641521"><ele>0.0</ele><time>2026-04-19T06:58:42.28Z</time></trkpt><trkpt lat="43.6386251" lon="13.364033"><ele>0.0</ele><time>2026-04-19T06:58:43.279Z</time></trkpt><trkpt lat="43.6385352" lon="13.3639169"><ele>0.0</ele><time>2026-04-19T06:58:44.28Z</time></trkpt><trkpt lat="43.6384489" lon="13.3637998"><ele>0.75</ele><time>2026-04-19T06:58:45.279Z</time></trkpt><trkpt lat="43.6383604" lon="13.3636832"><ele>1.5</ele><time>2026-04-19T06:58:46.28Z</time></trkpt><trkpt lat="43.6382714" lon="13.3635654"><ele>2.25</ele><time>2026-04-19T06:58:47.279Z</time></trkpt><trkpt lat="43.6381841" lon="13.3634418"><ele>3.0</ele><time>2026-04-19T06:58:48.279Z</time></trkpt><trkpt lat="43.6380978" lon="13.3633165"><ele>3.0</ele><time>2026-04-19T06:58:49.279Z</time></trkpt><trkpt lat="43.6380087" lon="13.3631886"><ele>3.0</ele><time>2026-04-19T06:58:50.279Z</time></trkpt><trkpt lat="43.6379152" lon="13.3630554"><ele>3.0</ele><time>2026-04-19T06:58:51.28Z</time></trkpt><trkpt lat="43.6378201" lon="13.3629184"><ele>3.0</ele><time>2026-04-19T06:58:52.279Z</time></trkpt><trkpt lat="43.6377245" lon="13.362775"><ele>3.0</ele><time>2026-04-19T06:58:53.28Z</time></trkpt><trkpt lat="43.6376277" lon="13.3626307"><ele>3.0</ele><time>2026-04-19T06:58:54.28Z</time></trkpt><trkpt lat="43.6375295" lon="13.3624846"><ele>3.0</ele><time>2026-04-19T06:58:55.279Z</time></trkpt><trkpt lat="43.6374305" lon="13.3623389"><ele>3.0</ele><time>2026-04-19T06:58:56.279Z</time></trkpt><trkpt lat="43.6373334" lon="13.3621969"><ele>2.75</ele><time>2026-04-19T06:58:57.28Z</time></trkpt><trkpt lat="43.6372389" lon="13.3620605"><ele>2.5</ele><time>2026-04-19T06:58:58.28Z</time></trkpt><trkpt lat="43.6371472" lon="13.3619231"><ele>2.25</ele><time>2026-04-19T06:58:59.28Z</time></trkpt><trkpt lat="43.6370569" lon="13.361792"><ele>2.0</ele><time>2026-04-19T06:59:00.28Z</time></trkpt><trkpt lat="43.636967" lon="13.3616653"><ele>2.0</ele><time>2026-04-19T06:59:01.279Z</time></trkpt><trkpt lat="43.6368773" lon="13.3615432"><ele>2.0</ele><time>2026-04-19T06:59:02.279Z</time></trkpt><trkpt lat="43.6367887" lon="13.361426"><ele>2.0</ele><time>2026-04-19T06:59:03.279Z</time></trkpt><trkpt lat="43.6367004" lon="13.3613126"><ele>2.0</ele><time>2026-04-19T06:59:04.28Z</time></trkpt><trkpt lat="43.6366101" lon="13.3612002"><ele>2.25</ele><time>2026-04-19T06:59:05.28Z</time></trkpt><trkpt lat="43.6365196" lon="13.3610885"><ele>2.5</ele><time>2026-04-19T06:59:06.28Z</time></trkpt><trkpt lat="43.6364269" lon="13.36098"><ele>2.75</ele><time>2026-04-19T06:59:07.28Z</time></trkpt><trkpt lat="43.6363326" lon="13.3608718"><ele>3.0</ele><time>2026-04-19T06:59:08.279Z</time></trkpt><trkpt lat="43.636234" lon="13.3607675"><ele>3.0</ele><time>2026-04-19T06:59:09.28Z</time></trkpt><trkpt lat="43.6361326" lon="13.360663"><ele>3.0</ele><time>2026-04-19T06:59:10.279Z</time></trkpt><trkpt lat="43.6360299" lon="13.3605604"><ele>3.0</ele><time>2026-04-19T06:59:11.28Z</time></trkpt><trkpt lat="43.6359264" lon="13.3604572"><ele>3.0</ele><time>2026-04-19T06:59:12.279Z</time></trkpt><trkpt lat="43.6358224" lon="13.3603553"><ele>3.0</ele><time>2026-04-19T06:59:13.28Z</time></trkpt><trkpt lat="43.6357178" lon="13.3602525"><ele>3.0</ele><time>2026-04-19T06:59:14.279Z</time></trkpt><trkpt lat="43.6356125" lon="13.3601527"><ele>3.0</ele><time>2026-04-19T06:59:15.28Z</time></trkpt><trkpt lat="43.63551" lon="13.3600568"><ele>3.0</ele><time>2026-04-19T06:59:16.28Z</time></trkpt><trkpt lat="43.6354085" lon="13.3599627"><ele>3.0</ele><time>2026-04-19T06:59:17.28Z</time></trkpt><trkpt lat="43.6353104" lon="13.3598701"><ele>3.0</ele><time>2026-04-19T06:59:18.28Z</time></trkpt><trkpt lat="43.635214" lon="13.3597767"><ele>3.0</ele><time>2026-04-19T06:59:19.28Z</time></trkpt><trkpt lat="43.6351211" lon="13.3596873"><ele>3.0</ele><time>2026-04-19T06:59:20.278Z</time></trkpt><trkpt lat="43.635035" lon="13.3596068"><ele>3.0</ele><time>2026-04-19T06:59:21.28Z</time></trkpt><trkpt lat="43.6349623" lon="13.3595386"><ele>3.0</ele><time>2026-04-19T06:59:22.28Z</time></trkpt><trkpt lat="43.6348988" lon="13.3594748"><ele>3.0</ele><time>2026-04-19T06:59:23.279Z</time></trkpt><trkpt lat="43.6348423" lon="13.3594103"><ele>3.0</ele><time>2026-04-19T06:59:24.28Z</time></trkpt><trkpt lat="43.6347945" lon="13.3593524"><ele>3.0</ele><time>2026-04-19T06:59:25.28Z</time></trkpt><trkpt lat="43.6347247" lon="13.3592556"><ele>3.0</ele><time>2026-04-19T06:59:27.279Z</time></trkpt><trkpt lat="43.6346936" lon="13.359144"><ele>3.0</ele><time>2026-04-19T06:59:29.28Z</time></trkpt><trkpt lat="43.6346943" lon="13.3590169"><ele>3.0</ele><time>2026-04-19T06:59:31.28Z</time></trkpt><trkpt lat="43.6347034" lon="13.3589226"><ele>3.0</ele><time>2026-04-19T06:59:33.28Z</time></trkpt><trkpt lat="43.6347088" lon="13.3588078"><ele>3.0</ele><time>2026-04-19T06:59:36.28Z</time></trkpt><trkpt lat="43.6347062" lon="13.3586763"><ele>3.0</ele><time>2026-04-19T06:59:40.28Z</time></trkpt><trkpt lat="43.6347155" lon="13.3585635"><ele>3.0</ele><time>2026-04-19T06:59:42.28Z</time></trkpt><trkpt lat="43.6347217" lon="13.3584198"><ele>2.9999999999999996</ele><time>2026-04-19T06:59:44.279Z</time></trkpt><trkpt lat="43.6347262" lon="13.3583325"><ele>3.0</ele><time>2026-04-19T06:59:45.278Z</time></trkpt><trkpt lat="43.6347297" lon="13.3582396"><ele>3.0</ele><time>2026-04-19T06:59:46.279Z</time></trkpt><trkpt lat="43.6347343" lon="13.3581376"><ele>3.0</ele><time>2026-04-19T06:59:47.279Z</time></trkpt><trkpt lat="43.6347394" lon="13.3580347"><ele>3.0</ele><time>2026-04-19T06:59:48.28Z</time></trkpt><trkpt lat="43.6347437" lon="13.3579257"><ele>2.9999999999999996</ele><time>2026-04-19T06:59:49.28Z</time></trkpt><trkpt lat="43.6347476" lon="13.3578051"><ele>3.0</ele><time>2026-04-19T06:59:50.28Z</time></trkpt><trkpt lat="43.6347538" lon="13.357679"><ele>3.0</ele><time>2026-04-19T06:59:51.28Z</time></trkpt><trkpt lat="43.6347622" lon="13.3575474"><ele>3.0</ele><time>2026-04-19T06:59:52.279Z</time></trkpt><trkpt lat="43.6347696" lon="13.3574103"><ele>3.0</ele><time>2026-04-19T06:59:53.278Z</time></trkpt><trkpt lat="43.6347759" lon="13.3572681"><ele>3.0</ele><time>2026-04-19T06:59:54.279Z</time></trkpt><trkpt lat="43.6347856" lon="13.3571215"><ele>3.0</ele><time>2026-04-19T06:59:55.28Z</time></trkpt><trkpt lat="43.6347956" lon="13.356972"><ele>3.0</ele><time>2026-04-19T06:59:56.28Z</time></trkpt><trkpt lat="43.634804" lon="13.3568192"><ele>3.0</ele><time>2026-04-19T06:59:57.28Z</time></trkpt><trkpt lat="43.6348114" lon="13.3566629"><ele>3.0</ele><time>2026-04-19T06:59:58.28Z</time></trkpt><trkpt lat="43.6348195" lon="13.356504"><ele>3.0</ele><time>2026-04-19T06:59:59.28Z</time></trkpt><trkpt lat="43.6348254" lon="13.3563416"><ele>3.75</ele><time>2026-04-19T07:00:00.279Z</time></trkpt><trkpt lat="43.6348329" lon="13.3561676"><ele>4.5</ele><time>2026-04-19T07:00:01.28Z</time></trkpt><trkpt lat="43.6348389" lon="13.3559838"><ele>5.25</ele><time>2026-04-19T07:00:02.279Z</time></trkpt><trkpt lat="43.634846" lon="13.3557984"><ele>6.0</ele><time>2026-04-19T07:00:03.279Z</time></trkpt><trkpt lat="43.6348561" lon="13.3556095"><ele>5.75</ele><time>2026-04-19T07:00:04.28Z</time></trkpt><trkpt lat="43.6348656" lon="13.3554229"><ele>5.5</ele><time>2026-04-19T07:00:05.28Z</time></trkpt><trkpt lat="43.634876" lon="13.3552368"><ele>5.25</ele><time>2026-04-19T07:00:06.28Z</time></trkpt><trkpt lat="43.6348842" lon="13.3550579"><ele>5.0</ele><time>2026-04-19T07:00:07.279Z</time></trkpt><trkpt lat="43.634892" lon="13.3548833"><ele>5.0</ele><time>2026-04-19T07:00:08.279Z</time></trkpt><trkpt lat="43.6349017" lon="13.3547059"><ele>5.0</ele><time>2026-04-19T07:00:09.278Z</time></trkpt><trkpt lat="43.6349115" lon="13.3545256"><ele>5.0</ele><time>2026-04-19T07:00:10.279Z</time></trkpt><trkpt lat="43.6349205" lon="13.3543406"><ele>5.0</ele><time>2026-04-19T07:00:11.279Z</time></trkpt><trkpt lat="43.6349293" lon="13.3541546"><ele>4.25</ele><time>2026-04-19T07:00:12.28Z</time></trkpt><trkpt lat="43.6349382" lon="13.3539684"><ele>3.5</ele><time>2026-04-19T07:00:13.28Z</time></trkpt><trkpt lat="43.6349475" lon="13.3537818"><ele>2.75</ele><time>2026-04-19T07:00:14.28Z</time></trkpt><trkpt lat="43.6349579" lon="13.3535949"><ele>2.0</ele><time>2026-04-19T07:00:15.28Z</time></trkpt><trkpt lat="43.6349678" lon="13.3534082"><ele>2.0</ele><time>2026-04-19T07:00:16.28Z</time></trkpt><trkpt lat="43.6349784" lon="13.3532192"><ele>2.0</ele><time>2026-04-19T07:00:17.279Z</time></trkpt><trkpt lat="43.6349888" lon="13.3530288"><ele>2.0</ele><time>2026-04-19T07:00:18.28Z</time></trkpt><trkpt lat="43.6349989" lon="13.3528302"><ele>2.0</ele><time>2026-04-19T07:00:19.28Z</time></trkpt><trkpt lat="43.6350088" lon="13.3526199"><ele>2.0</ele><time>2026-04-19T07:00:20.28Z</time></trkpt><trkpt lat="43.6350188" lon="13.3524111"><ele>2.0</ele><time>2026-04-19T07:00:21.279Z</time></trkpt><trkpt lat="43.6350266" lon="13.3522208"><ele>2.0</ele><time>2026-04-19T07:00:22.278Z</time></trkpt><trkpt lat="43.6350336" lon="13.3520383"><ele>2.0</ele><time>2026-04-19T07:00:23.28Z</time></trkpt><trkpt lat="43.6350365" lon="13.3518629"><ele>1.75</ele><time>2026-04-19T07:00:24.279Z</time></trkpt><trkpt lat="43.6350277" lon="13.3516967"><ele>1.5</ele><time>2026-04-19T07:00:25.28Z</time></trkpt><trkpt lat="43.6350044" lon="13.3515199"><ele>1.25</ele><time>2026-04-19T07:00:26.28Z</time></trkpt><trkpt lat="43.6349651" lon="13.3513314"><ele>1.0</ele><time>2026-04-19T07:00:27.279Z</time></trkpt><trkpt lat="43.6349172" lon="13.351137"><ele>1.0</ele><time>2026-04-19T07:00:28.28Z</time></trkpt><trkpt lat="43.6348618" lon="13.3509399"><ele>1.0</ele><time>2026-04-19T07:00:29.28Z</time></trkpt><trkpt lat="43.634807" lon="13.3507552"><ele>1.0</ele><time>2026-04-19T07:00:30.28Z</time></trkpt><trkpt lat="43.634756" lon="13.3505714"><ele>1.0</ele><time>2026-04-19T07:00:31.279Z</time></trkpt><trkpt lat="43.634711" lon="13.3503881"><ele>1.0</ele><time>2026-04-19T07:00:32.279Z</time></trkpt><trkpt lat="43.6346679" lon="13.3502069"><ele>1.0</ele><time>2026-04-19T07:00:33.279Z</time></trkpt><trkpt lat="43.6346244" lon="13.3500228"><ele>1.0</ele><time>2026-04-19T07:00:34.28Z</time></trkpt><trkpt lat="43.6345781" lon="13.3498387"><ele>1.0</ele><time>2026-04-19T07:00:35.28Z</time></trkpt><trkpt lat="43.6345305" lon="13.3496534"><ele>1.0</ele><time>2026-04-19T07:00:36.28Z</time></trkpt><trkpt lat="43.6344808" lon="13.3494635"><ele>1.0</ele><time>2026-04-19T07:00:37.279Z</time></trkpt><trkpt lat="43.6344297" lon="13.349268"><ele>1.0</ele><time>2026-04-19T07:00:38.28Z</time></trkpt><trkpt lat="43.6343774" lon="13.3490654"><ele>0.6666666666666666</ele><time>2026-04-19T07:00:39.28Z</time></trkpt><trkpt lat="43.6343237" lon="13.3488565"><ele>0.3333333333333333</ele><time>2026-04-19T07:00:40.279Z</time></trkpt><trkpt lat="43.6342697" lon="13.3486434"><ele>0.0</ele><time>2026-04-19T07:00:41.28Z</time></trkpt><trkpt lat="43.6342149" lon="13.3484351"><ele>0.0</ele><time>2026-04-19T07:00:42.28Z</time></trkpt><trkpt lat="43.6341591" lon="13.3482267"><ele>0.0</ele><time>2026-04-19T07:00:43.28Z</time></trkpt><trkpt lat="43.6341027" lon="13.3480172"><ele>0.0</ele><time>2026-04-19T07:00:44.279Z</time></trkpt><trkpt lat="43.6340474" lon="13.3478088"><ele>0.0</ele><time>2026-04-19T07:00:45.279Z</time></trkpt><trkpt lat="43.6339938" lon="13.3476022"><ele>0.0</ele><time>2026-04-19T07:00:46.279Z</time></trkpt><trkpt lat="43.6339403" lon="13.347393"><ele>0.0</ele><time>2026-04-19T07:00:47.28Z</time></trkpt><trkpt lat="43.6338874" lon="13.3471829"><ele>0.3333333333333333</ele><time>2026-04-19T07:00:48.279Z</time></trkpt><trkpt lat="43.6338335" lon="13.3469739"><ele>0.6666666666666666</ele><time>2026-04-19T07:00:49.28Z</time></trkpt><trkpt lat="43.6337801" lon="13.3467658"><ele>1.0</ele><time>2026-04-19T07:00:50.28Z</time></trkpt><trkpt lat="43.633728" lon="13.3465578"><ele>1.3333333333333333</ele><time>2026-04-19T07:00:51.279Z</time></trkpt><trkpt lat="43.6336753" lon="13.3463531"><ele>1.6666666666666665</ele><time>2026-04-19T07:00:52.278Z</time></trkpt><trkpt lat="43.6336216" lon="13.3461493"><ele>2.0</ele><time>2026-04-19T07:00:53.279Z</time></trkpt><trkpt lat="43.6335706" lon="13.345951"><ele>2.0</ele><time>2026-04-19T07:00:54.28Z</time></trkpt><trkpt lat="43.6335191" lon="13.3457553"><ele>2.0</ele><time>2026-04-19T07:00:55.28Z</time></trkpt><trkpt lat="43.6334678" lon="13.345564"><ele>2.0</ele><time>2026-04-19T07:00:56.279Z</time></trkpt><trkpt lat="43.6334183" lon="13.3453774"><ele>2.0</ele><time>2026-04-19T07:00:57.278Z</time></trkpt><trkpt lat="43.6333703" lon="13.3451935"><ele>2.0</ele><time>2026-04-19T07:00:58.28Z</time></trkpt><trkpt lat="43.6333232" lon="13.3450101"><ele>2.0</ele><time>2026-04-19T07:00:59.279Z</time></trkpt><trkpt lat="43.6332755" lon="13.3448278"><ele>2.0</ele><time>2026-04-19T07:01:00.279Z</time></trkpt><trkpt lat="43.6332296" lon="13.3446611"><ele>2.0</ele><time>2026-04-19T07:01:01.28Z</time></trkpt><trkpt lat="43.6331869" lon="13.3445071"><ele>2.4000000000000004</ele><time>2026-04-19T07:01:02.278Z</time></trkpt><trkpt lat="43.6331476" lon="13.3443705"><ele>2.8000000000000003</ele><time>2026-04-19T07:01:03.279Z</time></trkpt><trkpt lat="43.6331126" lon="13.3442412"><ele>3.2</ele><time>2026-04-19T07:01:04.28Z</time></trkpt><trkpt lat="43.6330826" lon="13.3441165"><ele>3.6</ele><time>2026-04-19T07:01:05.28Z</time></trkpt><trkpt lat="43.63305" lon="13.3439846"><ele>4.0</ele><time>2026-04-19T07:01:06.279Z</time></trkpt><trkpt lat="43.6330138" lon="13.3438434"><ele>4.25</ele><time>2026-04-19T07:01:07.279Z</time></trkpt><trkpt lat="43.6329741" lon="13.3436962"><ele>4.5</ele><time>2026-04-19T07:01:08.279Z</time></trkpt><trkpt lat="43.6329338" lon="13.343548"><ele>4.75</ele><time>2026-04-19T07:01:09.279Z</time></trkpt><trkpt lat="43.6328943" lon="13.3434"><ele>5.0</ele><time>2026-04-19T07:01:10.278Z</time></trkpt><trkpt lat="43.6328552" lon="13.3432518"><ele>5.0</ele><time>2026-04-19T07:01:11.28Z</time></trkpt><trkpt lat="43.6328158" lon="13.3431025"><ele>5.0</ele><time>2026-04-19T07:01:12.28Z</time></trkpt><trkpt lat="43.6327758" lon="13.342951"><ele>5.0</ele><time>2026-04-19T07:01:13.28Z</time></trkpt><trkpt lat="43.6327328" lon="13.3427944"><ele>5.0</ele><time>2026-04-19T07:01:14.28Z</time></trkpt><trkpt lat="43.6326877" lon="13.3426303"><ele>5.0</ele><time>2026-04-19T07:01:15.28Z</time></trkpt><trkpt lat="43.6326442" lon="13.3424607"><ele>5.0</ele><time>2026-04-19T07:01:16.279Z</time></trkpt><trkpt lat="43.6326004" lon="13.3422894"><ele>5.0</ele><time>2026-04-19T07:01:17.279Z</time></trkpt><trkpt lat="43.6325573" lon="13.3421153"><ele>5.0</ele><time>2026-04-19T07:01:18.28Z</time></trkpt><trkpt lat="43.6325113" lon="13.3419399"><ele>5.0</ele><time>2026-04-19T07:01:19.278Z</time></trkpt><trkpt lat="43.6324631" lon="13.3417596"><ele>5.0</ele><time>2026-04-19T07:01:20.28Z</time></trkpt><trkpt lat="43.6324157" lon="13.3415758"><ele>5.0</ele><time>2026-04-19T07:01:21.279Z</time></trkpt><trkpt lat="43.6323667" lon="13.3413867"><ele>5.0</ele><time>2026-04-19T07:01:22.28Z</time></trkpt><trkpt lat="43.6323169" lon="13.3411946"><ele>5.25</ele><time>2026-04-19T07:01:23.279Z</time></trkpt><trkpt lat="43.6322676" lon="13.3410028"><ele>5.5</ele><time>2026-04-19T07:01:24.28Z</time></trkpt><trkpt lat="43.6322181" lon="13.340812"><ele>5.75</ele><time>2026-04-19T07:01:25.28Z</time></trkpt><trkpt lat="43.6321682" lon="13.3406224"><ele>6.0</ele><time>2026-04-19T07:01:26.279Z</time></trkpt><trkpt lat="43.6321192" lon="13.3404292"><ele>6.0</ele><time>2026-04-19T07:01:27.279Z</time></trkpt><trkpt lat="43.6320711" lon="13.3402359"><ele>6.0</ele><time>2026-04-19T07:01:28.28Z</time></trkpt><trkpt lat="43.6320221" lon="13.340042"><ele>6.0</ele><time>2026-04-19T07:01:29.28Z</time></trkpt><trkpt lat="43.6319721" lon="13.3398468"><ele>6.0</ele><time>2026-04-19T07:01:30.28Z</time></trkpt><trkpt lat="43.6319225" lon="13.3396527"><ele>6.25</ele><time>2026-04-19T07:01:31.279Z</time></trkpt><trkpt lat="43.6318732" lon="13.3394596"><ele>6.5</ele><time>2026-04-19T07:01:32.28Z</time></trkpt><trkpt lat="43.6318227" lon="13.3392681"><ele>6.75</ele><time>2026-04-19T07:01:33.28Z</time></trkpt><trkpt lat="43.6317707" lon="13.3390783"><ele>7.0</ele><time>2026-04-19T07:01:34.28Z</time></trkpt><trkpt lat="43.6317176" lon="13.3388884"><ele>6.75</ele><time>2026-04-19T07:01:35.28Z</time></trkpt><trkpt lat="43.6316632" lon="13.338698"><ele>6.5</ele><time>2026-04-19T07:01:36.28Z</time></trkpt><trkpt lat="43.6316092" lon="13.3385055"><ele>6.25</ele><time>2026-04-19T07:01:37.28Z</time></trkpt><trkpt lat="43.6315574" lon="13.3383085"><ele>6.0</ele><time>2026-04-19T07:01:38.279Z</time></trkpt><trkpt lat="43.631501" lon="13.338108"><ele>6.666666666666666</ele><time>2026-04-19T07:01:39.279Z</time></trkpt><trkpt lat="43.6314418" lon="13.3379058"><ele>7.333333333333333</ele><time>2026-04-19T07:01:40.28Z</time></trkpt><trkpt lat="43.6313835" lon="13.3376981"><ele>8.0</ele><time>2026-04-19T07:01:41.279Z</time></trkpt><trkpt lat="43.6313232" lon="13.3374868"><ele>8.0</ele><time>2026-04-19T07:01:42.279Z</time></trkpt><trkpt lat="43.6312615" lon="13.3372713"><ele>8.0</ele><time>2026-04-19T07:01:43.28Z</time></trkpt><trkpt lat="43.6311985" lon="13.3370534"><ele>8.0</ele><time>2026-04-19T07:01:44.28Z</time></trkpt><trkpt lat="43.6311344" lon="13.3368363"><ele>8.0</ele><time>2026-04-19T07:01:45.279Z</time></trkpt><trkpt lat="43.631069" lon="13.3366164"><ele>8.0</ele><time>2026-04-19T07:01:46.28Z</time></trkpt><trkpt lat="43.6310027" lon="13.3363946"><ele>8.0</ele><time>2026-04-19T07:01:47.28Z</time></trkpt><trkpt lat="43.6309388" lon="13.3361778"><ele>8.0</ele><time>2026-04-19T07:01:48.28Z</time></trkpt><trkpt lat="43.6308772" lon="13.3359658"><ele>8.0</ele><time>2026-04-19T07:01:49.28Z</time></trkpt><trkpt lat="43.6308238" lon="13.3357535"><ele>8.0</ele><time>2026-04-19T07:01:50.28Z</time></trkpt><trkpt lat="43.6307802" lon="13.3355356"><ele>8.0</ele><time>2026-04-19T07:01:51.28Z</time></trkpt><trkpt lat="43.6307477" lon="13.3353131"><ele>8.0</ele><time>2026-04-19T07:01:52.28Z</time></trkpt><trkpt lat="43.6307278" lon="13.3350852"><ele>8.0</ele><time>2026-04-19T07:01:53.28Z</time></trkpt><trkpt lat="43.6307167" lon="13.3348494"><ele>8.666666666666666</ele><time>2026-04-19T07:01:54.28Z</time></trkpt><trkpt lat="43.6307111" lon="13.3346093"><ele>9.333333333333334</ele><time>2026-04-19T07:01:55.279Z</time></trkpt><trkpt lat="43.6307084" lon="13.3343566"><ele>10.0</ele><time>2026-04-19T07:01:56.279Z</time></trkpt><trkpt lat="43.6307024" lon="13.3340944"><ele>10.0</ele><time>2026-04-19T07:01:57.279Z</time></trkpt><trkpt lat="43.6306889" lon="13.3338388"><ele>10.0</ele><time>2026-04-19T07:01:58.28Z</time></trkpt><trkpt lat="43.6306637" lon="13.3335957"><ele>10.0</ele><time>2026-04-19T07:01:59.28Z</time></trkpt><trkpt lat="43.6306227" lon="13.3333651"><ele>10.0</ele><time>2026-04-19T07:02:00.28Z</time></trkpt><trkpt lat="43.6305631" lon="13.3331511"><ele>10.0</ele><time>2026-04-19T07:02:01.28Z</time></trkpt><trkpt lat="43.6304835" lon="13.3329602"><ele>10.0</ele><time>2026-04-19T07:02:02.28Z</time></trkpt><trkpt lat="43.630393" lon="13.3327906"><ele>10.25</ele><time>2026-04-19T07:02:03.28Z</time></trkpt><trkpt lat="43.6303002" lon="13.332635"><ele>10.5</ele><time>2026-04-19T07:02:04.279Z</time></trkpt><trkpt lat="43.6302121" lon="13.3324873"><ele>10.75</ele><time>2026-04-19T07:02:05.279Z</time></trkpt><trkpt lat="43.6301353" lon="13.3323576"><ele>11.0</ele><time>2026-04-19T07:02:06.279Z</time></trkpt><trkpt lat="43.6300703" lon="13.3322507"><ele>11.0</ele><time>2026-04-19T07:02:07.279Z</time></trkpt><trkpt lat="43.6300164" lon="13.3321627"><ele>11.0</ele><time>2026-04-19T07:02:08.28Z</time></trkpt><trkpt lat="43.6299707" lon="13.3320832"><ele>11.0</ele><time>2026-04-19T07:02:09.28Z</time></trkpt><trkpt lat="43.629934" lon="13.3320098"><ele>11.0</ele><time>2026-04-19T07:02:10.28Z</time></trkpt><trkpt lat="43.6298851" lon="13.3318597"><ele>11.0</ele><time>2026-04-19T07:02:12.28Z</time></trkpt><trkpt lat="43.6298851" lon="13.3317066"><ele>11.0</ele><time>2026-04-19T07:02:14.28Z</time></trkpt><trkpt lat="43.6299077" lon="13.331533"><ele>11.0</ele><time>2026-04-19T07:02:16.279Z</time></trkpt><trkpt lat="43.6299107" lon="13.3314301"><ele>11.0</ele><time>2026-04-19T07:02:17.279Z</time></trkpt><trkpt lat="43.6299178" lon="13.3313075"><ele>11.0</ele><time>2026-04-19T07:02:18.279Z</time></trkpt><trkpt lat="43.6299474" lon="13.3311823"><ele>11.0</ele><time>2026-04-19T07:02:19.28Z</time></trkpt><trkpt lat="43.6300012" lon="13.3310718"><ele>10.666666666666666</ele><time>2026-04-19T07:02:20.28Z</time></trkpt><trkpt lat="43.6300696" lon="13.3309908"><ele>10.333333333333332</ele><time>2026-04-19T07:02:21.279Z</time></trkpt><trkpt lat="43.6301442" lon="13.3309435"><ele>10.0</ele><time>2026-04-19T07:02:22.279Z</time></trkpt><trkpt lat="43.6302175" lon="13.3309186"><ele>9.666666666666666</ele><time>2026-04-19T07:02:23.279Z</time></trkpt><trkpt lat="43.6302752" lon="13.3308771"><ele>9.333333333333334</ele><time>2026-04-19T07:02:24.279Z</time></trkpt><trkpt lat="43.6303269" lon="13.3307329"><ele>9.0</ele><time>2026-04-19T07:02:26.279Z</time></trkpt><trkpt lat="43.6303313" lon="13.3306414"><ele>8.6</ele><time>2026-04-19T07:02:27.279Z</time></trkpt><trkpt lat="43.6303521" lon="13.330546"><ele>8.2</ele><time>2026-04-19T07:02:28.279Z</time></trkpt><trkpt lat="43.6304002" lon="13.330434"><ele>7.799999999999999</ele><time>2026-04-19T07:02:29.28Z</time></trkpt><trkpt lat="43.6304641" lon="13.3303133"><ele>7.3999999999999995</ele><time>2026-04-19T07:02:30.279Z</time></trkpt><trkpt lat="43.6305385" lon="13.3301997"><ele>7.0</ele><time>2026-04-19T07:02:31.28Z</time></trkpt><trkpt lat="43.6306129" lon="13.330073"><ele>7.0</ele><time>2026-04-19T07:02:32.279Z</time></trkpt><trkpt lat="43.6306833" lon="13.3299381"><ele>7.0</ele><time>2026-04-19T07:02:33.28Z</time></trkpt><trkpt lat="43.6307556" lon="13.3298043"><ele>7.0</ele><time>2026-04-19T07:02:34.28Z</time></trkpt><trkpt lat="43.6308296" lon="13.3296692"><ele>7.0</ele><time>2026-04-19T07:02:35.279Z</time></trkpt><trkpt lat="43.6309044" lon="13.3295314"><ele>7.5</ele><time>2026-04-19T07:02:36.279Z</time></trkpt><trkpt lat="43.6309792" lon="13.3293879"><ele>8.0</ele><time>2026-04-19T07:02:37.28Z</time></trkpt><trkpt lat="43.6310557" lon="13.3292438"><ele>8.5</ele><time>2026-04-19T07:02:38.279Z</time></trkpt><trkpt lat="43.6311315" lon="13.3290936"><ele>9.0</ele><time>2026-04-19T07:02:39.279Z</time></trkpt><trkpt lat="43.6312067" lon="13.3289419"><ele>9.0</ele><time>2026-04-19T07:02:40.28Z</time></trkpt><trkpt lat="43.631285" lon="13.3287806"><ele>9.0</ele><time>2026-04-19T07:02:41.28Z</time></trkpt><trkpt lat="43.6313657" lon="13.328609"><ele>9.0</ele><time>2026-04-19T07:02:42.28Z</time></trkpt><trkpt lat="43.6314473" lon="13.3284343"><ele>9.0</ele><time>2026-04-19T07:02:43.279Z</time></trkpt><trkpt lat="43.6315289" lon="13.3282548"><ele>9.0</ele><time>2026-04-19T07:02:44.28Z</time></trkpt><trkpt lat="43.6316051" lon="13.3280793"><ele>9.0</ele><time>2026-04-19T07:02:45.28Z</time></trkpt><trkpt lat="43.631675" lon="13.3279129"><ele>9.0</ele><time>2026-04-19T07:02:46.28Z</time></trkpt><trkpt lat="43.6317376" lon="13.32775"><ele>9.0</ele><time>2026-04-19T07:02:47.28Z</time></trkpt><trkpt lat="43.6317982" lon="13.3275832"><ele>9.25</ele><time>2026-04-19T07:02:48.279Z</time></trkpt><trkpt lat="43.6318569" lon="13.3274113"><ele>9.5</ele><time>2026-04-19T07:02:49.279Z</time></trkpt><trkpt lat="43.6319191" lon="13.327245"><ele>9.75</ele><time>2026-04-19T07:02:50.28Z</time></trkpt><trkpt lat="43.6319784" lon="13.327094"><ele>10.0</ele><time>2026-04-19T07:02:51.28Z</time></trkpt><trkpt lat="43.6320367" lon="13.326954"><ele>10.0</ele><time>2026-04-19T07:02:52.279Z</time></trkpt><trkpt lat="43.6320938" lon="13.3268253"><ele>10.0</ele><time>2026-04-19T07:02:53.28Z</time></trkpt><trkpt lat="43.6321477" lon="13.3267041"><ele>10.0</ele><time>2026-04-19T07:02:54.28Z</time></trkpt><trkpt lat="43.6322013" lon="13.3265861"><ele>10.0</ele><time>2026-04-19T07:02:55.28Z</time></trkpt><trkpt lat="43.6322531" lon="13.3264738"><ele>10.0</ele><time>2026-04-19T07:02:56.28Z</time></trkpt><trkpt lat="43.6323021" lon="13.3263688"><ele>10.0</ele><time>2026-04-19T07:02:57.279Z</time></trkpt><trkpt lat="43.6323509" lon="13.326263"><ele>10.0</ele><time>2026-04-19T07:02:58.28Z</time></trkpt><trkpt lat="43.6323974" lon="13.3261652"><ele>10.0</ele><time>2026-04-19T07:02:59.28Z</time></trkpt><trkpt lat="43.6324508" lon="13.3260576"><ele>10.0</ele><time>2026-04-19T07:03:00.28Z</time></trkpt><trkpt lat="43.6325017" lon="13.3259451"><ele>10.0</ele><time>2026-04-19T07:03:01.279Z</time></trkpt><trkpt lat="43.632556" lon="13.325823"><ele>10.0</ele><time>2026-04-19T07:03:02.279Z</time></trkpt><trkpt lat="43.6326098" lon="13.3257019"><ele>10.0</ele><time>2026-04-19T07:03:03.28Z</time></trkpt><trkpt lat="43.6326647" lon="13.3255774"><ele>10.0</ele><time>2026-04-19T07:03:04.28Z</time></trkpt><trkpt lat="43.6327194" lon="13.3254476"><ele>10.0</ele><time>2026-04-19T07:03:05.28Z</time></trkpt><trkpt lat="43.6327768" lon="13.325315"><ele>10.0</ele><time>2026-04-19T07:03:06.279Z</time></trkpt><trkpt lat="43.6328381" lon="13.3251761"><ele>10.0</ele><time>2026-04-19T07:03:07.279Z</time></trkpt><trkpt lat="43.6329008" lon="13.3250333"><ele>10.0</ele><time>2026-04-19T07:03:08.28Z</time></trkpt><trkpt lat="43.6329651" lon="13.3248887"><ele>10.0</ele><time>2026-04-19T07:03:09.28Z</time></trkpt><trkpt lat="43.63303" lon="13.3247417"><ele>10.0</ele><time>2026-04-19T07:03:10.28Z</time></trkpt><trkpt lat="43.6330953" lon="13.3245937"><ele>10.25</ele><time>2026-04-19T07:03:11.279Z</time></trkpt><trkpt lat="43.6331592" lon="13.324447"><ele>10.5</ele><time>2026-04-19T07:03:12.279Z</time></trkpt><trkpt lat="43.6332241" lon="13.3243016"><ele>10.75</ele><time>2026-04-19T07:03:13.28Z</time></trkpt><trkpt lat="43.6332877" lon="13.3241584"><ele>11.0</ele><time>2026-04-19T07:03:14.28Z</time></trkpt><trkpt lat="43.6333507" lon="13.3240213"><ele>11.200000000000001</ele><time>2026-04-19T07:03:15.28Z</time></trkpt><trkpt lat="43.6334115" lon="13.3238925"><ele>11.4</ele><time>2026-04-19T07:03:16.28Z</time></trkpt><trkpt lat="43.6334655" lon="13.3237716"><ele>11.6</ele><time>2026-04-19T07:03:17.279Z</time></trkpt><trkpt lat="43.6335163" lon="13.3236587"><ele>11.8</ele><time>2026-04-19T07:03:18.28Z</time></trkpt><trkpt lat="43.6335658" lon="13.3235447"><ele>12.0</ele><time>2026-04-19T07:03:19.28Z</time></trkpt><trkpt lat="43.6336155" lon="13.3234349"><ele>12.333333333333334</ele><time>2026-04-19T07:03:20.279Z</time></trkpt><trkpt lat="43.6336597" lon="13.3233352"><ele>12.666666666666668</ele><time>2026-04-19T07:03:21.28Z</time></trkpt><trkpt lat="43.6337014" lon="13.3232435"><ele>13.0</ele><time>2026-04-19T07:03:22.28Z</time></trkpt><trkpt lat="43.633739" lon="13.3231587"><ele>13.333333333333334</ele><time>2026-04-19T07:03:23.279Z</time></trkpt><trkpt lat="43.6337723" lon="13.3230812"><ele>13.666666666666668</ele><time>2026-04-19T07:03:24.278Z</time></trkpt><trkpt lat="43.6338224" lon="13.3229636"><ele>14.0</ele><time>2026-04-19T07:03:26.28Z</time></trkpt><trkpt lat="43.6338543" lon="13.3228615"><ele>14.0</ele><time>2026-04-19T07:03:28.279Z</time></trkpt><trkpt lat="43.6338246" lon="13.3227717"><ele>13.999999999999998</ele><time>2026-04-19T07:03:30.28Z</time></trkpt><trkpt lat="43.6338239" lon="13.3226422"><ele>13.999999999999998</ele><time>2026-04-19T07:03:32.28Z</time></trkpt><trkpt lat="43.6338622" lon="13.322504"><ele>14.0</ele><time>2026-04-19T07:03:34.279Z</time></trkpt><trkpt lat="43.6338424" lon="13.3223941"><ele>14.0</ele><time>2026-04-19T07:03:36.28Z</time></trkpt><trkpt lat="43.6337491" lon="13.3223067"><ele>14.0</ele><time>2026-04-19T07:03:38.28Z</time></trkpt><trkpt lat="43.633673" lon="13.322255"><ele>14.0</ele><time>2026-04-19T07:03:39.28Z</time></trkpt><trkpt lat="43.6336076" lon="13.3222029"><ele>14.0</ele><time>2026-04-19T07:03:40.28Z</time></trkpt><trkpt lat="43.6335424" lon="13.3221511"><ele>14.0</ele><time>2026-04-19T07:03:41.279Z</time></trkpt><trkpt lat="43.6334802" lon="13.3220982"><ele>14.0</ele><time>2026-04-19T07:03:42.279Z</time></trkpt><trkpt lat="43.633419" lon="13.3220466"><ele>14.0</ele><time>2026-04-19T07:03:43.28Z</time></trkpt><trkpt lat="43.6333609" lon="13.321996"><ele>14.0</ele><time>2026-04-19T07:03:44.28Z</time></trkpt><trkpt lat="43.6333076" lon="13.3219417"><ele>14.000000000000002</ele><time>2026-04-19T07:03:45.28Z</time></trkpt><trkpt lat="43.6332452" lon="13.3218183"><ele>14.0</ele><time>2026-04-19T07:03:47.279Z</time></trkpt><trkpt lat="43.6332641" lon="13.3216667"><ele>14.0</ele><time>2026-04-19T07:03:49.28Z</time></trkpt><trkpt lat="43.6333068" lon="13.321586"><ele>14.0</ele><time>2026-04-19T07:03:50.279Z</time></trkpt><trkpt lat="43.6333567" lon="13.3215082"><ele>14.000000000000002</ele><time>2026-04-19T07:03:51.28Z</time></trkpt><trkpt lat="43.6334039" lon="13.3214244"><ele>14.0</ele><time>2026-04-19T07:03:52.279Z</time></trkpt><trkpt lat="43.6334509" lon="13.3213441"><ele>14.333333333333334</ele><time>2026-04-19T07:03:53.28Z</time></trkpt><trkpt lat="43.6334911" lon="13.3212645"><ele>14.666666666666668</ele><time>2026-04-19T07:03:54.28Z</time></trkpt><trkpt lat="43.6335284" lon="13.3211911"><ele>15.0</ele><time>2026-04-19T07:03:55.279Z</time></trkpt><trkpt lat="43.6336095" lon="13.3210662"><ele>15.333333333333332</ele><time>2026-04-19T07:03:57.28Z</time></trkpt><trkpt lat="43.6336743" lon="13.3209842"><ele>15.666666666666666</ele><time>2026-04-19T07:03:59.28Z</time></trkpt><trkpt lat="43.6337214" lon="13.3208844"><ele>16.0</ele><time>2026-04-19T07:04:02.28Z</time></trkpt><trkpt lat="43.6336877" lon="13.3207881"><ele>16.0</ele><time>2026-04-19T07:04:04.28Z</time></trkpt><trkpt lat="43.6335816" lon="13.320662"><ele>16.0</ele><time>2026-04-19T07:04:06.28Z</time></trkpt><trkpt lat="43.6335109" lon="13.3205809"><ele>16.0</ele><time>2026-04-19T07:04:07.28Z</time></trkpt><trkpt lat="43.633436" lon="13.3204963"><ele>16.0</ele><time>2026-04-19T07:04:08.28Z</time></trkpt><trkpt lat="43.6333589" lon="13.3204056"><ele>16.0</ele><time>2026-04-19T07:04:09.279Z</time></trkpt><trkpt lat="43.6332801" lon="13.3203096"><ele>16.75</ele><time>2026-04-19T07:04:10.28Z</time></trkpt><trkpt lat="43.6331998" lon="13.3202058"><ele>17.5</ele><time>2026-04-19T07:04:11.28Z</time></trkpt><trkpt lat="43.6331129" lon="13.3200941"><ele>18.25</ele><time>2026-04-19T07:04:12.278Z</time></trkpt><trkpt lat="43.6330261" lon="13.3199804"><ele>19.0</ele><time>2026-04-19T07:04:13.279Z</time></trkpt><trkpt lat="43.6329381" lon="13.3198688"><ele>19.0</ele><time>2026-04-19T07:04:14.28Z</time></trkpt><trkpt lat="43.6328503" lon="13.3197569"><ele>19.0</ele><time>2026-04-19T07:04:15.28Z</time></trkpt><trkpt lat="43.6327621" lon="13.3196453"><ele>19.0</ele><time>2026-04-19T07:04:16.28Z</time></trkpt><trkpt lat="43.6326732" lon="13.3195362"><ele>19.0</ele><time>2026-04-19T07:04:17.278Z</time></trkpt><trkpt lat="43.632582" lon="13.3194256"><ele>19.5</ele><time>2026-04-19T07:04:18.28Z</time></trkpt><trkpt lat="43.6324883" lon="13.3193098"><ele>20.0</ele><time>2026-04-19T07:04:19.28Z</time></trkpt><trkpt lat="43.6323927" lon="13.3191932"><ele>20.5</ele><time>2026-04-19T07:04:20.278Z</time></trkpt><trkpt lat="43.6322947" lon="13.3190783"><ele>21.0</ele><time>2026-04-19T07:04:21.28Z</time></trkpt><trkpt lat="43.6321952" lon="13.3189659"><ele>21.25</ele><time>2026-04-19T07:04:22.278Z</time></trkpt><trkpt lat="43.6320945" lon="13.3188492"><ele>21.5</ele><time>2026-04-19T07:04:23.279Z</time></trkpt><trkpt lat="43.6319917" lon="13.3187233"><ele>21.75</ele><time>2026-04-19T07:04:24.279Z</time></trkpt><trkpt lat="43.6318873" lon="13.3185895"><ele>22.0</ele><time>2026-04-19T07:04:25.28Z</time></trkpt><trkpt lat="43.6317785" lon="13.3184459"><ele>22.0</ele><time>2026-04-19T07:04:26.279Z</time></trkpt><trkpt lat="43.6316635" lon="13.3182966"><ele>22.0</ele><time>2026-04-19T07:04:27.28Z</time></trkpt><trkpt lat="43.6315447" lon="13.3181438"><ele>22.0</ele><time>2026-04-19T07:04:28.28Z</time></trkpt><trkpt lat="43.6314189" lon="13.3179888"><ele>22.0</ele><time>2026-04-19T07:04:29.28Z</time></trkpt><trkpt lat="43.6312909" lon="13.3178334"><ele>22.0</ele><time>2026-04-19T07:04:30.28Z</time></trkpt><trkpt lat="43.6311619" lon="13.3176769"><ele>22.0</ele><time>2026-04-19T07:04:31.279Z</time></trkpt><trkpt lat="43.6310319" lon="13.317521"><ele>21.333333333333332</ele><time>2026-04-19T07:04:32.28Z</time></trkpt><trkpt lat="43.6309042" lon="13.3173629"><ele>20.666666666666668</ele><time>2026-04-19T07:04:33.28Z</time></trkpt><trkpt lat="43.6307777" lon="13.3172065"><ele>20.0</ele><time>2026-04-19T07:04:34.28Z</time></trkpt><trkpt lat="43.6306516" lon="13.3170517"><ele>20.0</ele><time>2026-04-19T07:04:35.28Z</time></trkpt><trkpt lat="43.6305247" lon="13.3168974"><ele>20.0</ele><time>2026-04-19T07:04:36.28Z</time></trkpt><trkpt lat="43.6303968" lon="13.3167424"><ele>20.0</ele><time>2026-04-19T07:04:37.28Z</time></trkpt><trkpt lat="43.630267" lon="13.3165855"><ele>20.0</ele><time>2026-04-19T07:04:38.28Z</time></trkpt><trkpt lat="43.6301362" lon="13.3164258"><ele>20.0</ele><time>2026-04-19T07:04:39.28Z</time></trkpt><trkpt lat="43.6300051" lon="13.3162652"><ele>20.0</ele><time>2026-04-19T07:04:40.28Z</time></trkpt><trkpt lat="43.6298686" lon="13.316098"><ele>20.0</ele><time>2026-04-19T07:04:41.28Z</time></trkpt><trkpt lat="43.6297183" lon="13.3159174"><ele>20.0</ele><time>2026-04-19T07:04:42.28Z</time></trkpt><trkpt lat="43.6295621" lon="13.3157316"><ele>20.0</ele><time>2026-04-19T07:04:43.28Z</time></trkpt><trkpt lat="43.6294124" lon="13.3155523"><ele>20.0</ele><time>2026-04-19T07:04:44.279Z</time></trkpt><trkpt lat="43.6292708" lon="13.3153859"><ele>20.0</ele><time>2026-04-19T07:04:45.279Z</time></trkpt><trkpt lat="43.6291376" lon="13.3152279"><ele>20.0</ele><time>2026-04-19T07:04:46.28Z</time></trkpt><trkpt lat="43.6290096" lon="13.3150702"><ele>20.0</ele><time>2026-04-19T07:04:47.28Z</time></trkpt><trkpt lat="43.628889" lon="13.3149165"><ele>20.0</ele><time>2026-04-19T07:04:48.28Z</time></trkpt><trkpt lat="43.6287708" lon="13.3147629"><ele>20.0</ele><time>2026-04-19T07:04:49.28Z</time></trkpt><trkpt lat="43.6286515" lon="13.3146095"><ele>20.666666666666668</ele><time>2026-04-19T07:04:50.28Z</time></trkpt><trkpt lat="43.6285293" lon="13.3144594"><ele>21.333333333333332</ele><time>2026-04-19T07:04:51.28Z</time></trkpt><trkpt lat="43.6284078" lon="13.3143101"><ele>22.0</ele><time>2026-04-19T07:04:52.28Z</time></trkpt><trkpt lat="43.6282881" lon="13.3141651"><ele>22.0</ele><time>2026-04-19T07:04:53.28Z</time></trkpt><trkpt lat="43.6281692" lon="13.3140243"><ele>22.0</ele><time>2026-04-19T07:04:54.28Z</time></trkpt><trkpt lat="43.6280562" lon="13.3138839"><ele>22.0</ele><time>2026-04-19T07:04:55.28Z</time></trkpt><trkpt lat="43.6279451" lon="13.3137466"><ele>22.0</ele><time>2026-04-19T07:04:56.28Z</time></trkpt><trkpt lat="43.6278326" lon="13.3136126"><ele>22.0</ele><time>2026-04-19T07:04:57.279Z</time></trkpt><trkpt lat="43.6277222" lon="13.3134764"><ele>22.0</ele><time>2026-04-19T07:04:58.279Z</time></trkpt><trkpt lat="43.627611" lon="13.313335"><ele>22.0</ele><time>2026-04-19T07:04:59.28Z</time></trkpt><trkpt lat="43.6274954" lon="13.3131915"><ele>22.0</ele><time>2026-04-19T07:05:00.28Z</time></trkpt><trkpt lat="43.6273785" lon="13.3130466"><ele>22.0</ele><time>2026-04-19T07:05:01.28Z</time></trkpt><trkpt lat="43.6272603" lon="13.3129007"><ele>22.0</ele><time>2026-04-19T07:05:02.28Z</time></trkpt><trkpt lat="43.6271461" lon="13.312756"><ele>22.0</ele><time>2026-04-19T07:05:03.28Z</time></trkpt><trkpt lat="43.6270353" lon="13.3126111"><ele>22.0</ele><time>2026-04-19T07:05:04.279Z</time></trkpt><trkpt lat="43.6269241" lon="13.3124672"><ele>22.0</ele><time>2026-04-19T07:05:05.28Z</time></trkpt><trkpt lat="43.6268112" lon="13.3123281"><ele>22.666666666666664</ele><time>2026-04-19T07:05:06.28Z</time></trkpt><trkpt lat="43.6266973" lon="13.3121877"><ele>23.333333333333332</ele><time>2026-04-19T07:05:07.279Z</time></trkpt><trkpt lat="43.6265841" lon="13.3120502"><ele>24.0</ele><time>2026-04-19T07:05:08.28Z</time></trkpt><trkpt lat="43.6264676" lon="13.3119105"><ele>24.0</ele><time>2026-04-19T07:05:09.28Z</time></trkpt><trkpt lat="43.6263505" lon="13.3117668"><ele>24.0</ele><time>2026-04-19T07:05:10.28Z</time></trkpt><trkpt lat="43.6262304" lon="13.3116165"><ele>24.0</ele><time>2026-04-19T07:05:11.279Z</time></trkpt><trkpt lat="43.6261035" lon="13.3114578"><ele>24.666666666666664</ele><time>2026-04-19T07:05:12.28Z</time></trkpt><trkpt lat="43.6259749" lon="13.3112973"><ele>25.333333333333332</ele><time>2026-04-19T07:05:13.279Z</time></trkpt><trkpt lat="43.6258439" lon="13.3111358"><ele>26.0</ele><time>2026-04-19T07:05:14.28Z</time></trkpt><trkpt lat="43.6257173" lon="13.310979"><ele>26.0</ele><time>2026-04-19T07:05:15.28Z</time></trkpt><trkpt lat="43.625589" lon="13.3108221"><ele>26.0</ele><time>2026-04-19T07:05:16.279Z</time></trkpt><trkpt lat="43.6254625" lon="13.3106669"><ele>26.0</ele><time>2026-04-19T07:05:17.28Z</time></trkpt><trkpt lat="43.6253368" lon="13.3105119"><ele>26.0</ele><time>2026-04-19T07:05:18.279Z</time></trkpt><trkpt lat="43.6252103" lon="13.3103565"><ele>26.0</ele><time>2026-04-19T07:05:19.28Z</time></trkpt><trkpt lat="43.6250835" lon="13.3101945"><ele>26.0</ele><time>2026-04-19T07:05:20.28Z</time></trkpt><trkpt lat="43.624957" lon="13.3100308"><ele>26.0</ele><time>2026-04-19T07:05:21.28Z</time></trkpt><trkpt lat="43.6248324" lon="13.3098682"><ele>26.0</ele><time>2026-04-19T07:05:22.278Z</time></trkpt><trkpt lat="43.6247065" lon="13.3097075"><ele>26.0</ele><time>2026-04-19T07:05:23.28Z</time></trkpt><trkpt lat="43.6245762" lon="13.3095497"><ele>26.666666666666664</ele><time>2026-04-19T07:05:24.28Z</time></trkpt><trkpt lat="43.624445" lon="13.3093875"><ele>27.333333333333336</ele><time>2026-04-19T07:05:25.279Z</time></trkpt><trkpt lat="43.6243152" lon="13.3092233"><ele>28.0</ele><time>2026-04-19T07:05:26.279Z</time></trkpt><trkpt lat="43.6241842" lon="13.3090587"><ele>27.666666666666668</ele><time>2026-04-19T07:05:27.28Z</time></trkpt><trkpt lat="43.6240546" lon="13.3088962"><ele>27.333333333333336</ele><time>2026-04-19T07:05:28.28Z</time></trkpt><trkpt lat="43.6239321" lon="13.3087433"><ele>27.0</ele><time>2026-04-19T07:05:29.28Z</time></trkpt><trkpt lat="43.6238141" lon="13.3085955"><ele>27.0</ele><time>2026-04-19T07:05:30.28Z</time></trkpt><trkpt lat="43.6236954" lon="13.3084476"><ele>27.0</ele><time>2026-04-19T07:05:31.28Z</time></trkpt><trkpt lat="43.6235786" lon="13.3083002"><ele>27.0</ele><time>2026-04-19T07:05:32.28Z</time></trkpt><trkpt lat="43.6234667" lon="13.3081632"><ele>27.200000000000003</ele><time>2026-04-19T07:05:33.28Z</time></trkpt><trkpt lat="43.6233745" lon="13.3080493"><ele>27.400000000000002</ele><time>2026-04-19T07:05:34.279Z</time></trkpt><trkpt lat="43.6233009" lon="13.30796"><ele>27.599999999999998</ele><time>2026-04-19T07:05:35.279Z</time></trkpt><trkpt lat="43.6232425" lon="13.3078884"><ele>27.799999999999997</ele><time>2026-04-19T07:05:36.279Z</time></trkpt><trkpt lat="43.6231526" lon="13.3077812"><ele>28.0</ele><time>2026-04-19T07:05:38.279Z</time></trkpt><trkpt lat="43.6230869" lon="13.3077034"><ele>28.0</ele><time>2026-04-19T07:05:40.279Z</time></trkpt><trkpt lat="43.6230363" lon="13.3076409"><ele>27.999999999999996</ele><time>2026-04-19T07:05:42.28Z</time></trkpt><trkpt lat="43.6229848" lon="13.3075772"><ele>27.999999999999996</ele><time>2026-04-19T07:05:44.279Z</time></trkpt><trkpt lat="43.6229273" lon="13.3075042"><ele>28.0</ele><time>2026-04-19T07:05:46.28Z</time></trkpt><trkpt lat="43.622859" lon="13.3074259"><ele>28.0</ele><time>2026-04-19T07:05:48.279Z</time></trkpt><trkpt lat="43.6227517" lon="13.3072886"><ele>28.4</ele><time>2026-04-19T07:05:50.28Z</time></trkpt><trkpt lat="43.6226836" lon="13.3072056"><ele>28.799999999999997</ele><time>2026-04-19T07:05:51.279Z</time></trkpt><trkpt lat="43.6226009" lon="13.3071076"><ele>29.2</ele><time>2026-04-19T07:05:52.28Z</time></trkpt><trkpt lat="43.622519" lon="13.3070088"><ele>29.6</ele><time>2026-04-19T07:05:53.279Z</time></trkpt><trkpt lat="43.6224331" lon="13.3069063"><ele>30.0</ele><time>2026-04-19T07:05:54.28Z</time></trkpt><trkpt lat="43.6223474" lon="13.3068037"><ele>30.0</ele><time>2026-04-19T07:05:55.28Z</time></trkpt><trkpt lat="43.6222632" lon="13.306704"><ele>30.0</ele><time>2026-04-19T07:05:56.28Z</time></trkpt><trkpt lat="43.6221784" lon="13.3066078"><ele>30.0</ele><time>2026-04-19T07:05:57.279Z</time></trkpt><trkpt lat="43.6220937" lon="13.306507"><ele>30.0</ele><time>2026-04-19T07:05:58.279Z</time></trkpt><trkpt lat="43.6220065" lon="13.3064021"><ele>30.0</ele><time>2026-04-19T07:05:59.28Z</time></trkpt><trkpt lat="43.6219201" lon="13.3062968"><ele>29.8</ele><time>2026-04-19T07:06:00.28Z</time></trkpt><trkpt lat="43.6218331" lon="13.3061889"><ele>29.6</ele><time>2026-04-19T07:06:01.279Z</time></trkpt><trkpt lat="43.6217458" lon="13.3060829"><ele>29.4</ele><time>2026-04-19T07:06:02.28Z</time></trkpt><trkpt lat="43.6216632" lon="13.3059843"><ele>29.2</ele><time>2026-04-19T07:06:03.28Z</time></trkpt><trkpt lat="43.6215855" lon="13.3058978"><ele>29.0</ele><time>2026-04-19T07:06:04.28Z</time></trkpt><trkpt lat="43.6215101" lon="13.3058239"><ele>29.0</ele><time>2026-04-19T07:06:05.28Z</time></trkpt><trkpt lat="43.6214314" lon="13.305758"><ele>29.0</ele><time>2026-04-19T07:06:06.279Z</time></trkpt><trkpt lat="43.6213508" lon="13.30569"><ele>29.0</ele><time>2026-04-19T07:06:07.28Z</time></trkpt><trkpt lat="43.6212679" lon="13.3056121"><ele>29.0</ele><time>2026-04-19T07:06:08.28Z</time></trkpt><trkpt lat="43.6211733" lon="13.30552"><ele>29.0</ele><time>2026-04-19T07:06:09.28Z</time></trkpt><trkpt lat="43.6210727" lon="13.3054174"><ele>29.5</ele><time>2026-04-19T07:06:10.279Z</time></trkpt><trkpt lat="43.6209771" lon="13.3053154"><ele>30.0</ele><time>2026-04-19T07:06:11.28Z</time></trkpt><trkpt lat="43.6208836" lon="13.3052104"><ele>30.5</ele><time>2026-04-19T07:06:12.279Z</time></trkpt><trkpt lat="43.6207965" lon="13.3051028"><ele>31.0</ele><time>2026-04-19T07:06:13.28Z</time></trkpt><trkpt lat="43.6207157" lon="13.3049974"><ele>31.0</ele><time>2026-04-19T07:06:14.28Z</time></trkpt><trkpt lat="43.6206383" lon="13.3048866"><ele>31.0</ele><time>2026-04-19T07:06:15.28Z</time></trkpt><trkpt lat="43.6205644" lon="13.3047801"><ele>31.0</ele><time>2026-04-19T07:06:16.279Z</time></trkpt><trkpt lat="43.6204913" lon="13.3046802"><ele>31.0</ele><time>2026-04-19T07:06:17.28Z</time></trkpt><trkpt lat="43.6204213" lon="13.3045907"><ele>31.0</ele><time>2026-04-19T07:06:18.28Z</time></trkpt><trkpt lat="43.6203526" lon="13.3045035"><ele>31.166666666666668</ele><time>2026-04-19T07:06:19.279Z</time></trkpt><trkpt lat="43.6202856" lon="13.3044212"><ele>31.333333333333336</ele><time>2026-04-19T07:06:20.28Z</time></trkpt><trkpt lat="43.620224" lon="13.3043414"><ele>31.5</ele><time>2026-04-19T07:06:21.279Z</time></trkpt><trkpt lat="43.6201674" lon="13.3042721"><ele>31.666666666666664</ele><time>2026-04-19T07:06:22.279Z</time></trkpt><trkpt lat="43.6201123" lon="13.3042278"><ele>31.833333333333332</ele><time>2026-04-19T07:06:23.279Z</time></trkpt><trkpt lat="43.620009" lon="13.3042246"><ele>32.0</ele><time>2026-04-19T07:06:25.28Z</time></trkpt><trkpt lat="43.6199263" lon="13.3043436"><ele>32.0</ele><time>2026-04-19T07:06:27.28Z</time></trkpt><trkpt lat="43.6198868" lon="13.3044321"><ele>32.0</ele><time>2026-04-19T07:06:28.28Z</time></trkpt><trkpt lat="43.6198397" lon="13.3045344"><ele>32.0</ele><time>2026-04-19T07:06:29.28Z</time></trkpt><trkpt lat="43.6197889" lon="13.3046445"><ele>32.0</ele><time>2026-04-19T07:06:30.279Z</time></trkpt><trkpt lat="43.619738" lon="13.3047578"><ele>32.0</ele><time>2026-04-19T07:06:31.28Z</time></trkpt><trkpt lat="43.6196827" lon="13.3048781"><ele>31.75</ele><time>2026-04-19T07:06:32.28Z</time></trkpt><trkpt lat="43.6196209" lon="13.3050051"><ele>31.5</ele><time>2026-04-19T07:06:33.279Z</time></trkpt><trkpt lat="43.6195574" lon="13.3051358"><ele>31.25</ele><time>2026-04-19T07:06:34.28Z</time></trkpt><trkpt lat="43.6194927" lon="13.3052702"><ele>31.0</ele><time>2026-04-19T07:06:35.28Z</time></trkpt><trkpt lat="43.619431" lon="13.3054019"><ele>30.8</ele><time>2026-04-19T07:06:36.279Z</time></trkpt><trkpt lat="43.6193708" lon="13.3055288"><ele>30.6</ele><time>2026-04-19T07:06:37.28Z</time></trkpt><trkpt lat="43.619311" lon="13.3056478"><ele>30.4</ele><time>2026-04-19T07:06:38.28Z</time></trkpt><trkpt lat="43.6192498" lon="13.3057556"><ele>30.2</ele><time>2026-04-19T07:06:39.279Z</time></trkpt><trkpt lat="43.619185" lon="13.3058473"><ele>30.0</ele><time>2026-04-19T07:06:40.28Z</time></trkpt><trkpt lat="43.6191165" lon="13.3059096"><ele>29.8</ele><time>2026-04-19T07:06:41.28Z</time></trkpt><trkpt lat="43.6190442" lon="13.3059334"><ele>29.6</ele><time>2026-04-19T07:06:42.279Z</time></trkpt><trkpt lat="43.6189633" lon="13.3059233"><ele>29.4</ele><time>2026-04-19T07:06:43.28Z</time></trkpt><trkpt lat="43.6188764" lon="13.3058844"><ele>29.2</ele><time>2026-04-19T07:06:44.279Z</time></trkpt><trkpt lat="43.6187849" lon="13.3058316"><ele>29.0</ele><time>2026-04-19T07:06:45.28Z</time></trkpt><trkpt lat="43.6186849" lon="13.3057735"><ele>29.0</ele><time>2026-04-19T07:06:46.28Z</time></trkpt><trkpt lat="43.6185842" lon="13.3057151"><ele>29.0</ele><time>2026-04-19T07:06:47.28Z</time></trkpt><trkpt lat="43.6184866" lon="13.3056598"><ele>29.0</ele><time>2026-04-19T07:06:48.28Z</time></trkpt><trkpt lat="43.6183842" lon="13.3056002"><ele>29.0</ele><time>2026-04-19T07:06:49.28Z</time></trkpt><trkpt lat="43.6182765" lon="13.3055379"><ele>29.0</ele><time>2026-04-19T07:06:50.28Z</time></trkpt><trkpt lat="43.6181663" lon="13.3054772"><ele>29.0</ele><time>2026-04-19T07:06:51.28Z</time></trkpt><trkpt lat="43.6180559" lon="13.305415"><ele>29.0</ele><time>2026-04-19T07:06:52.28Z</time></trkpt><trkpt lat="43.6179458" lon="13.3053507"><ele>29.0</ele><time>2026-04-19T07:06:53.28Z</time></trkpt><trkpt lat="43.61783" lon="13.3052878"><ele>29.0</ele><time>2026-04-19T07:06:54.28Z</time></trkpt><trkpt lat="43.6177116" lon="13.3052205"><ele>29.0</ele><time>2026-04-19T07:06:55.279Z</time></trkpt><trkpt lat="43.6175905" lon="13.3051537"><ele>29.0</ele><time>2026-04-19T07:06:56.28Z</time></trkpt><trkpt lat="43.6174683" lon="13.305084"><ele>29.0</ele><time>2026-04-19T07:06:57.279Z</time></trkpt><trkpt lat="43.6173443" lon="13.3050142"><ele>29.0</ele><time>2026-04-19T07:06:58.279Z</time></trkpt><trkpt lat="43.6172221" lon="13.3049446"><ele>29.0</ele><time>2026-04-19T07:06:59.28Z</time></trkpt><trkpt lat="43.6170971" lon="13.3048773"><ele>29.0</ele><time>2026-04-19T07:07:00.28Z</time></trkpt><trkpt lat="43.6169784" lon="13.3048096"><ele>29.0</ele><time>2026-04-19T07:07:01.28Z</time></trkpt><trkpt lat="43.6168653" lon="13.3047468"><ele>29.0</ele><time>2026-04-19T07:07:02.279Z</time></trkpt><trkpt lat="43.6167454" lon="13.3046839"><ele>29.25</ele><time>2026-04-19T07:07:03.279Z</time></trkpt><trkpt lat="43.6166262" lon="13.304615"><ele>29.5</ele><time>2026-04-19T07:07:04.279Z</time></trkpt><trkpt lat="43.6165144" lon="13.30455"><ele>29.75</ele><time>2026-04-19T07:07:05.279Z</time></trkpt><trkpt lat="43.6164025" lon="13.3044858"><ele>30.0</ele><time>2026-04-19T07:07:06.28Z</time></trkpt><trkpt lat="43.6162954" lon="13.3044228"><ele>30.0</ele><time>2026-04-19T07:07:07.28Z</time></trkpt><trkpt lat="43.6161891" lon="13.3043651"><ele>30.0</ele><time>2026-04-19T07:07:08.28Z</time></trkpt><trkpt lat="43.6160846" lon="13.3043051"><ele>30.0</ele><time>2026-04-19T07:07:09.279Z</time></trkpt><trkpt lat="43.615982" lon="13.304247"><ele>30.0</ele><time>2026-04-19T07:07:10.279Z</time></trkpt><trkpt lat="43.6158817" lon="13.3041912"><ele>30.0</ele><time>2026-04-19T07:07:11.28Z</time></trkpt><trkpt lat="43.615789" lon="13.3041387"><ele>30.0</ele><time>2026-04-19T07:07:12.28Z</time></trkpt><trkpt lat="43.6157033" lon="13.3040855"><ele>30.0</ele><time>2026-04-19T07:07:13.28Z</time></trkpt><trkpt lat="43.6156213" lon="13.3040369"><ele>30.0</ele><time>2026-04-19T07:07:14.279Z</time></trkpt><trkpt lat="43.6155464" lon="13.3039916"><ele>30.0</ele><time>2026-04-19T07:07:15.28Z</time></trkpt><trkpt lat="43.615483" lon="13.3039405"><ele>30.0</ele><time>2026-04-19T07:07:16.28Z</time></trkpt><trkpt lat="43.6154475" lon="13.3038158"><ele>30.0</ele><time>2026-04-19T07:07:18.279Z</time></trkpt><trkpt lat="43.6155006" lon="13.3036526"><ele>30.0</ele><time>2026-04-19T07:07:20.28Z</time></trkpt><trkpt lat="43.6155429" lon="13.3035565"><ele>30.0</ele><time>2026-04-19T07:07:21.28Z</time></trkpt><trkpt lat="43.6155909" lon="13.3034495"><ele>30.0</ele><time>2026-04-19T07:07:22.28Z</time></trkpt><trkpt lat="43.6156467" lon="13.3033373"><ele>30.0</ele><time>2026-04-19T07:07:23.279Z</time></trkpt><trkpt lat="43.615706" lon="13.3032071"><ele>30.0</ele><time>2026-04-19T07:07:24.279Z</time></trkpt><trkpt lat="43.6157711" lon="13.3030707"><ele>30.0</ele><time>2026-04-19T07:07:25.28Z</time></trkpt><trkpt lat="43.6158376" lon="13.3029365"><ele>30.0</ele><time>2026-04-19T07:07:26.28Z</time></trkpt><trkpt lat="43.6159037" lon="13.3027949"><ele>30.0</ele><time>2026-04-19T07:07:27.28Z</time></trkpt><trkpt lat="43.6159709" lon="13.3026519"><ele>30.0</ele><time>2026-04-19T07:07:28.28Z</time></trkpt><trkpt lat="43.6160406" lon="13.3025009"><ele>30.0</ele><time>2026-04-19T07:07:29.28Z</time></trkpt><trkpt lat="43.6161156" lon="13.3023377"><ele>30.0</ele><time>2026-04-19T07:07:30.28Z</time></trkpt><trkpt lat="43.6161901" lon="13.3021743"><ele>30.0</ele><time>2026-04-19T07:07:31.279Z</time></trkpt><trkpt lat="43.616261" lon="13.3020217"><ele>30.0</ele><time>2026-04-19T07:07:32.28Z</time></trkpt><trkpt lat="43.6163283" lon="13.3018768"><ele>30.2</ele><time>2026-04-19T07:07:33.28Z</time></trkpt><trkpt lat="43.6163902" lon="13.3017402"><ele>30.4</ele><time>2026-04-19T07:07:34.28Z</time></trkpt><trkpt lat="43.6164478" lon="13.3016126"><ele>30.6</ele><time>2026-04-19T07:07:35.28Z</time></trkpt><trkpt lat="43.6165003" lon="13.3014962"><ele>30.8</ele><time>2026-04-19T07:07:36.28Z</time></trkpt><trkpt lat="43.6165478" lon="13.3013912"><ele>31.0</ele><time>2026-04-19T07:07:37.28Z</time></trkpt><trkpt lat="43.616596" lon="13.3013006"><ele>31.142857142857146</ele><time>2026-04-19T07:07:38.279Z</time></trkpt><trkpt lat="43.6166512" lon="13.3012378"><ele>31.28571428571429</ele><time>2026-04-19T07:07:39.279Z</time></trkpt><trkpt lat="43.6167149" lon="13.3012152"><ele>31.42857142857143</ele><time>2026-04-19T07:07:40.279Z</time></trkpt><trkpt lat="43.6167824" lon="13.301228"><ele>31.57142857142857</ele><time>2026-04-19T07:07:41.28Z</time></trkpt><trkpt lat="43.6168414" lon="13.3012701"><ele>31.71428571428571</ele><time>2026-04-19T07:07:42.28Z</time></trkpt><trkpt lat="43.6169034" lon="13.3012961"><ele>31.857142857142854</ele><time>2026-04-19T07:07:43.279Z</time></trkpt><trkpt lat="43.6170072" lon="13.301285"><ele>32.0</ele><time>2026-04-19T07:07:45.28Z</time></trkpt><trkpt lat="43.6171161" lon="13.3012205"><ele>32.166666666666664</ele><time>2026-04-19T07:07:47.28Z</time></trkpt><trkpt lat="43.6171738" lon="13.301181"><ele>32.33333333333333</ele><time>2026-04-19T07:07:48.279Z</time></trkpt><trkpt lat="43.6172651" lon="13.3010676"><ele>32.5</ele><time>2026-04-19T07:07:50.279Z</time></trkpt><trkpt lat="43.6173099" lon="13.3009907"><ele>32.666666666666664</ele><time>2026-04-19T07:07:51.28Z</time></trkpt><trkpt lat="43.6173485" lon="13.3009165"><ele>32.833333333333336</ele><time>2026-04-19T07:07:52.279Z</time></trkpt><trkpt lat="43.6174092" lon="13.3007865"><ele>33.0</ele><time>2026-04-19T07:07:54.28Z</time></trkpt><trkpt lat="43.6174239" lon="13.3006762"><ele>33.166666666666664</ele><time>2026-04-19T07:07:56.28Z</time></trkpt><trkpt lat="43.6173647" lon="13.3005689"><ele>33.333333333333336</ele><time>2026-04-19T07:07:58.28Z</time></trkpt><trkpt lat="43.6173107" lon="13.3005059"><ele>33.5</ele><time>2026-04-19T07:07:59.279Z</time></trkpt><trkpt lat="43.6172575" lon="13.3004397"><ele>33.66666666666667</ele><time>2026-04-19T07:08:00.28Z</time></trkpt><trkpt lat="43.6172001" lon="13.3003721"><ele>33.833333333333336</ele><time>2026-04-19T07:08:01.28Z</time></trkpt><trkpt lat="43.617137" lon="13.3002972"><ele>34.0</ele><time>2026-04-19T07:08:02.28Z</time></trkpt><trkpt lat="43.6170715" lon="13.3002222"><ele>34.0</ele><time>2026-04-19T07:08:03.279Z</time></trkpt><trkpt lat="43.6170058" lon="13.300142"><ele>34.0</ele><time>2026-04-19T07:08:04.279Z</time></trkpt><trkpt lat="43.6169354" lon="13.300057"><ele>34.0</ele><time>2026-04-19T07:08:05.279Z</time></trkpt><trkpt lat="43.6168576" lon="13.2999643"><ele>34.0</ele><time>2026-04-19T07:08:06.28Z</time></trkpt><trkpt lat="43.6167768" lon="13.299863"><ele>34.0</ele><time>2026-04-19T07:08:07.28Z</time></trkpt><trkpt lat="43.6166909" lon="13.2997586"><ele>33.75</ele><time>2026-04-19T07:08:08.28Z</time></trkpt><trkpt lat="43.6165985" lon="13.299652"><ele>33.5</ele><time>2026-04-19T07:08:09.28Z</time></trkpt><trkpt lat="43.6165013" lon="13.2995373"><ele>33.25</ele><time>2026-04-19T07:08:10.278Z</time></trkpt><trkpt lat="43.616399" lon="13.2994177"><ele>33.0</ele><time>2026-04-19T07:08:11.28Z</time></trkpt><trkpt lat="43.6162934" lon="13.2992926"><ele>33.0</ele><time>2026-04-19T07:08:12.28Z</time></trkpt><trkpt lat="43.6161868" lon="13.2991631"><ele>33.0</ele><time>2026-04-19T07:08:13.28Z</time></trkpt><trkpt lat="43.6160778" lon="13.2990337"><ele>33.0</ele><time>2026-04-19T07:08:14.28Z</time></trkpt><trkpt lat="43.615972" lon="13.2989065"><ele>33.0</ele><time>2026-04-19T07:08:15.279Z</time></trkpt><trkpt lat="43.6158688" lon="13.2987858"><ele>33.5</ele><time>2026-04-19T07:08:16.279Z</time></trkpt><trkpt lat="43.6157675" lon="13.2986643"><ele>34.0</ele><time>2026-04-19T07:08:17.28Z</time></trkpt><trkpt lat="43.6156668" lon="13.2985416"><ele>34.5</ele><time>2026-04-19T07:08:18.28Z</time></trkpt><trkpt lat="43.6155651" lon="13.2984232"><ele>35.0</ele><time>2026-04-19T07:08:19.28Z</time></trkpt><trkpt lat="43.6154627" lon="13.2983091"><ele>35.0</ele><time>2026-04-19T07:08:20.28Z</time></trkpt><trkpt lat="43.6153623" lon="13.2981976"><ele>35.0</ele><time>2026-04-19T07:08:21.28Z</time></trkpt><trkpt lat="43.6152675" lon="13.2980897"><ele>35.0</ele><time>2026-04-19T07:08:22.28Z</time></trkpt><trkpt lat="43.6151762" lon="13.2979844"><ele>35.0</ele><time>2026-04-19T07:08:23.28Z</time></trkpt><trkpt lat="43.6150848" lon="13.2978851"><ele>35.4</ele><time>2026-04-19T07:08:24.28Z</time></trkpt><trkpt lat="43.615" lon="13.2977895"><ele>35.8</ele><time>2026-04-19T07:08:25.28Z</time></trkpt><trkpt lat="43.614921" lon="13.2977041"><ele>36.2</ele><time>2026-04-19T07:08:26.28Z</time></trkpt><trkpt lat="43.6148495" lon="13.2976239"><ele>36.6</ele><time>2026-04-19T07:08:27.279Z</time></trkpt><trkpt lat="43.6147827" lon="13.2975501"><ele>37.0</ele><time>2026-04-19T07:08:28.279Z</time></trkpt><trkpt lat="43.6147279" lon="13.2974753"><ele>37.0</ele><time>2026-04-19T07:08:29.279Z</time></trkpt><trkpt lat="43.6146911" lon="13.2973901"><ele>37.0</ele><time>2026-04-19T07:08:30.28Z</time></trkpt><trkpt lat="43.6146808" lon="13.2972989"><ele>37.0</ele><time>2026-04-19T07:08:31.28Z</time></trkpt><trkpt lat="43.6146965" lon="13.2972115"><ele>37.0</ele><time>2026-04-19T07:08:32.28Z</time></trkpt><trkpt lat="43.6147303" lon="13.2971213"><ele>37.0</ele><time>2026-04-19T07:08:33.279Z</time></trkpt><trkpt lat="43.6147766" lon="13.2970132"><ele>37.0</ele><time>2026-04-19T07:08:34.278Z</time></trkpt><trkpt lat="43.6148244" lon="13.2968922"><ele>37.0</ele><time>2026-04-19T07:08:35.28Z</time></trkpt><trkpt lat="43.6148807" lon="13.2967541"><ele>37.0</ele><time>2026-04-19T07:08:36.28Z</time></trkpt><trkpt lat="43.6149403" lon="13.2966091"><ele>37.0</ele><time>2026-04-19T07:08:37.279Z</time></trkpt><trkpt lat="43.6149929" lon="13.2964825"><ele>37.0</ele><time>2026-04-19T07:08:38.278Z</time></trkpt><trkpt lat="43.6150454" lon="13.2963579"><ele>37.0</ele><time>2026-04-19T07:08:39.28Z</time></trkpt><trkpt lat="43.6150971" lon="13.2962321"><ele>37.0</ele><time>2026-04-19T07:08:40.279Z</time></trkpt><trkpt lat="43.6151476" lon="13.2961034"><ele>37.0</ele><time>2026-04-19T07:08:41.28Z</time></trkpt><trkpt lat="43.6151979" lon="13.2959784"><ele>37.0</ele><time>2026-04-19T07:08:42.28Z</time></trkpt><trkpt lat="43.6152459" lon="13.2958652"><ele>37.0</ele><time>2026-04-19T07:08:43.28Z</time></trkpt><trkpt lat="43.6152893" lon="13.29576"><ele>37.0</ele><time>2026-04-19T07:08:44.28Z</time></trkpt><trkpt lat="43.615329" lon="13.2956611"><ele>37.333333333333336</ele><time>2026-04-19T07:08:45.278Z</time></trkpt><trkpt lat="43.6153694" lon="13.2955624"><ele>37.66666666666667</ele><time>2026-04-19T07:08:46.28Z</time></trkpt><trkpt lat="43.6154105" lon="13.2954654"><ele>38.0</ele><time>2026-04-19T07:08:47.28Z</time></trkpt><trkpt lat="43.6154514" lon="13.29537"><ele>38.333333333333336</ele><time>2026-04-19T07:08:48.28Z</time></trkpt><trkpt lat="43.6154871" lon="13.2952848"><ele>38.666666666666664</ele><time>2026-04-19T07:08:49.28Z</time></trkpt><trkpt lat="43.6155185" lon="13.2952057"><ele>39.0</ele><time>2026-04-19T07:08:50.28Z</time></trkpt><trkpt lat="43.6155469" lon="13.2950882"><ele>39.0</ele><time>2026-04-19T07:08:52.278Z</time></trkpt><trkpt lat="43.6155114" lon="13.2949678"><ele>39.0</ele><time>2026-04-19T07:08:55.28Z</time></trkpt><trkpt lat="43.6153938" lon="13.294881"><ele>39.0</ele><time>2026-04-19T07:08:57.28Z</time></trkpt><trkpt lat="43.6152827" lon="13.2948335"><ele>39.0</ele><time>2026-04-19T07:08:58.278Z</time></trkpt><trkpt lat="43.615151" lon="13.2947855"><ele>38.333333333333336</ele><time>2026-04-19T07:08:59.28Z</time></trkpt><trkpt lat="43.6150132" lon="13.2947276"><ele>37.66666666666667</ele><time>2026-04-19T07:09:00.279Z</time></trkpt><trkpt lat="43.6148642" lon="13.2946626"><ele>37.0</ele><time>2026-04-19T07:09:01.28Z</time></trkpt><trkpt lat="43.6147103" lon="13.2945957"><ele>37.0</ele><time>2026-04-19T07:09:02.279Z</time></trkpt><trkpt lat="43.6145551" lon="13.2945283"><ele>37.0</ele><time>2026-04-19T07:09:03.28Z</time></trkpt><trkpt lat="43.6143981" lon="13.2944603"><ele>37.0</ele><time>2026-04-19T07:09:04.28Z</time></trkpt><trkpt lat="43.61423" lon="13.2943941"><ele>36.66666666666667</ele><time>2026-04-19T07:09:05.28Z</time></trkpt><trkpt lat="43.6140563" lon="13.2943261"><ele>36.333333333333336</ele><time>2026-04-19T07:09:06.28Z</time></trkpt><trkpt lat="43.613878" lon="13.2942557"><ele>36.0</ele><time>2026-04-19T07:09:07.28Z</time></trkpt><trkpt lat="43.6136951" lon="13.2941833"><ele>35.666666666666664</ele><time>2026-04-19T07:09:08.279Z</time></trkpt><trkpt lat="43.6135101" lon="13.2941066"><ele>35.33333333333333</ele><time>2026-04-19T07:09:09.279Z</time></trkpt><trkpt lat="43.6133218" lon="13.2940306"><ele>35.0</ele><time>2026-04-19T07:09:10.28Z</time></trkpt><trkpt lat="43.6131315" lon="13.2939531"><ele>35.0</ele><time>2026-04-19T07:09:11.279Z</time></trkpt><trkpt lat="43.6129385" lon="13.293878"><ele>35.0</ele><time>2026-04-19T07:09:12.28Z</time></trkpt><trkpt lat="43.612746" lon="13.2937978"><ele>35.0</ele><time>2026-04-19T07:09:13.28Z</time></trkpt><trkpt lat="43.612553" lon="13.2937155"><ele>35.0</ele><time>2026-04-19T07:09:14.279Z</time></trkpt><trkpt lat="43.6123573" lon="13.2936315"><ele>35.0</ele><time>2026-04-19T07:09:15.28Z</time></trkpt><trkpt lat="43.6121625" lon="13.2935506"><ele>35.0</ele><time>2026-04-19T07:09:16.279Z</time></trkpt><trkpt lat="43.6119683" lon="13.2934711"><ele>35.0</ele><time>2026-04-19T07:09:17.28Z</time></trkpt><trkpt lat="43.6117752" lon="13.293393"><ele>35.0</ele><time>2026-04-19T07:09:18.279Z</time></trkpt><trkpt lat="43.611585" lon="13.2933146"><ele>35.0</ele><time>2026-04-19T07:09:19.279Z</time></trkpt><trkpt lat="43.6113985" lon="13.2932335"><ele>35.0</ele><time>2026-04-19T07:09:20.28Z</time></trkpt><trkpt lat="43.611216" lon="13.2931535"><ele>35.0</ele><time>2026-04-19T07:09:21.28Z</time></trkpt><trkpt lat="43.6110339" lon="13.2930776"><ele>35.0</ele><time>2026-04-19T07:09:22.28Z</time></trkpt><trkpt lat="43.6108569" lon="13.2930069"><ele>35.0</ele><time>2026-04-19T07:09:23.28Z</time></trkpt><trkpt lat="43.6106881" lon="13.2929411"><ele>35.0</ele><time>2026-04-19T07:09:24.279Z</time></trkpt><trkpt lat="43.6105274" lon="13.2928776"><ele>35.0</ele><time>2026-04-19T07:09:25.28Z</time></trkpt><trkpt lat="43.610375" lon="13.2928168"><ele>34.5</ele><time>2026-04-19T07:09:26.28Z</time></trkpt><trkpt lat="43.6102321" lon="13.2927552"><ele>34.0</ele><time>2026-04-19T07:09:27.28Z</time></trkpt><trkpt lat="43.6101026" lon="13.2926897"><ele>33.5</ele><time>2026-04-19T07:09:28.28Z</time></trkpt><trkpt lat="43.6099901" lon="13.2926093"><ele>33.0</ele><time>2026-04-19T07:09:29.279Z</time></trkpt><trkpt lat="43.6098889" lon="13.2924977"><ele>33.0</ele><time>2026-04-19T07:09:30.279Z</time></trkpt><trkpt lat="43.6098052" lon="13.2923587"><ele>33.0</ele><time>2026-04-19T07:09:31.28Z</time></trkpt><trkpt lat="43.6097364" lon="13.2921924"><ele>33.0</ele><time>2026-04-19T07:09:32.28Z</time></trkpt><trkpt lat="43.6096733" lon="13.2920016"><ele>33.0</ele><time>2026-04-19T07:09:33.28Z</time></trkpt><trkpt lat="43.6096118" lon="13.2918021"><ele>33.25</ele><time>2026-04-19T07:09:34.28Z</time></trkpt><trkpt lat="43.609551" lon="13.2916145"><ele>33.5</ele><time>2026-04-19T07:09:35.28Z</time></trkpt><trkpt lat="43.6094909" lon="13.2914359"><ele>33.75</ele><time>2026-04-19T07:09:36.279Z</time></trkpt><trkpt lat="43.6094325" lon="13.2912619"><ele>34.0</ele><time>2026-04-19T07:09:37.279Z</time></trkpt><trkpt lat="43.6093768" lon="13.2910897"><ele>33.5</ele><time>2026-04-19T07:09:38.28Z</time></trkpt><trkpt lat="43.6093244" lon="13.2909254"><ele>33.0</ele><time>2026-04-19T07:09:39.28Z</time></trkpt><trkpt lat="43.6092736" lon="13.2907673"><ele>32.5</ele><time>2026-04-19T07:09:40.28Z</time></trkpt><trkpt lat="43.6092228" lon="13.2906129"><ele>32.0</ele><time>2026-04-19T07:09:41.279Z</time></trkpt><trkpt lat="43.6091733" lon="13.2904574"><ele>32.0</ele><time>2026-04-19T07:09:42.279Z</time></trkpt><trkpt lat="43.6091256" lon="13.290312"><ele>32.0</ele><time>2026-04-19T07:09:43.28Z</time></trkpt><trkpt lat="43.6090798" lon="13.2901726"><ele>32.0</ele><time>2026-04-19T07:09:44.279Z</time></trkpt><trkpt lat="43.609041" lon="13.2900372"><ele>32.0</ele><time>2026-04-19T07:09:45.28Z</time></trkpt><trkpt lat="43.6090199" lon="13.2899063"><ele>32.0</ele><time>2026-04-19T07:09:46.28Z</time></trkpt><trkpt lat="43.6090223" lon="13.2897695"><ele>32.4</ele><time>2026-04-19T07:09:47.28Z</time></trkpt><trkpt lat="43.6090518" lon="13.2896349"><ele>32.800000000000004</ele><time>2026-04-19T07:09:48.28Z</time></trkpt><trkpt lat="43.6090985" lon="13.2895037"><ele>33.2</ele><time>2026-04-19T07:09:49.279Z</time></trkpt><trkpt lat="43.6091393" lon="13.2893657"><ele>33.6</ele><time>2026-04-19T07:09:50.28Z</time></trkpt><trkpt lat="43.6091758" lon="13.2892226"><ele>34.0</ele><time>2026-04-19T07:09:51.28Z</time></trkpt><trkpt lat="43.6092095" lon="13.2890772"><ele>34.0</ele><time>2026-04-19T07:09:52.279Z</time></trkpt><trkpt lat="43.6092342" lon="13.2889259"><ele>34.0</ele><time>2026-04-19T07:09:53.28Z</time></trkpt><trkpt lat="43.6092536" lon="13.2887704"><ele>34.0</ele><time>2026-04-19T07:09:54.279Z</time></trkpt><trkpt lat="43.6092761" lon="13.2886073"><ele>34.0</ele><time>2026-04-19T07:09:55.279Z</time></trkpt><trkpt lat="43.6093081" lon="13.2884369"><ele>33.5</ele><time>2026-04-19T07:09:56.28Z</time></trkpt><trkpt lat="43.6093457" lon="13.2882553"><ele>33.0</ele><time>2026-04-19T07:09:57.279Z</time></trkpt><trkpt lat="43.6093837" lon="13.2880668"><ele>32.5</ele><time>2026-04-19T07:09:58.279Z</time></trkpt><trkpt lat="43.609425" lon="13.2878721"><ele>32.0</ele><time>2026-04-19T07:09:59.279Z</time></trkpt><trkpt lat="43.6094671" lon="13.2876762"><ele>32.75</ele><time>2026-04-19T07:10:00.279Z</time></trkpt><trkpt lat="43.6095099" lon="13.2874914"><ele>33.5</ele><time>2026-04-19T07:10:01.279Z</time></trkpt><trkpt lat="43.6095499" lon="13.2873099"><ele>34.25</ele><time>2026-04-19T07:10:02.28Z</time></trkpt><trkpt lat="43.6095912" lon="13.2871308"><ele>35.0</ele><time>2026-04-19T07:10:03.28Z</time></trkpt><trkpt lat="43.6096311" lon="13.2869553"><ele>35.0</ele><time>2026-04-19T07:10:04.28Z</time></trkpt><trkpt lat="43.6096705" lon="13.286781"><ele>35.0</ele><time>2026-04-19T07:10:05.28Z</time></trkpt><trkpt lat="43.6097103" lon="13.2866044"><ele>35.0</ele><time>2026-04-19T07:10:06.28Z</time></trkpt><trkpt lat="43.6097486" lon="13.2864261"><ele>35.0</ele><time>2026-04-19T07:10:07.28Z</time></trkpt><trkpt lat="43.6097819" lon="13.2862447"><ele>35.0</ele><time>2026-04-19T07:10:08.28Z</time></trkpt><trkpt lat="43.6098159" lon="13.286059"><ele>35.0</ele><time>2026-04-19T07:10:09.28Z</time></trkpt><trkpt lat="43.6098493" lon="13.2858738"><ele>35.0</ele><time>2026-04-19T07:10:10.279Z</time></trkpt><trkpt lat="43.6098799" lon="13.2856862"><ele>35.0</ele><time>2026-04-19T07:10:11.279Z</time></trkpt><trkpt lat="43.6099103" lon="13.2854976"><ele>35.25</ele><time>2026-04-19T07:10:12.28Z</time></trkpt><trkpt lat="43.6099399" lon="13.2853096"><ele>35.5</ele><time>2026-04-19T07:10:13.28Z</time></trkpt><trkpt lat="43.6099717" lon="13.2851209"><ele>35.75</ele><time>2026-04-19T07:10:14.28Z</time></trkpt><trkpt lat="43.6100039" lon="13.2849319"><ele>36.0</ele><time>2026-04-19T07:10:15.279Z</time></trkpt><trkpt lat="43.6100394" lon="13.2847449"><ele>36.0</ele><time>2026-04-19T07:10:16.28Z</time></trkpt><trkpt lat="43.6100835" lon="13.2845601"><ele>36.0</ele><time>2026-04-19T07:10:17.28Z</time></trkpt><trkpt lat="43.6101409" lon="13.2843849"><ele>36.0</ele><time>2026-04-19T07:10:18.279Z</time></trkpt><trkpt lat="43.6102083" lon="13.284219"><ele>36.0</ele><time>2026-04-19T07:10:19.28Z</time></trkpt><trkpt lat="43.6102817" lon="13.2840572"><ele>36.5</ele><time>2026-04-19T07:10:20.28Z</time></trkpt><trkpt lat="43.6103608" lon="13.2838996"><ele>37.0</ele><time>2026-04-19T07:10:21.279Z</time></trkpt><trkpt lat="43.6104408" lon="13.2837485"><ele>37.5</ele><time>2026-04-19T07:10:22.28Z</time></trkpt><trkpt lat="43.6105182" lon="13.2836061"><ele>38.0</ele><time>2026-04-19T07:10:23.28Z</time></trkpt><trkpt lat="43.6105915" lon="13.2834748"><ele>38.0</ele><time>2026-04-19T07:10:24.279Z</time></trkpt><trkpt lat="43.6106576" lon="13.2833559"><ele>38.0</ele><time>2026-04-19T07:10:25.28Z</time></trkpt><trkpt lat="43.6107204" lon="13.2832477"><ele>38.0</ele><time>2026-04-19T07:10:26.278Z</time></trkpt><trkpt lat="43.6107819" lon="13.2831435"><ele>38.0</ele><time>2026-04-19T07:10:27.279Z</time></trkpt><trkpt lat="43.6108439" lon="13.2830328"><ele>38.0</ele><time>2026-04-19T07:10:28.279Z</time></trkpt><trkpt lat="43.6109056" lon="13.2829225"><ele>38.0</ele><time>2026-04-19T07:10:29.28Z</time></trkpt><trkpt lat="43.610958" lon="13.2828265"><ele>38.0</ele><time>2026-04-19T07:10:30.279Z</time></trkpt><trkpt lat="43.6110047" lon="13.2827413"><ele>38.0</ele><time>2026-04-19T07:10:31.279Z</time></trkpt><trkpt lat="43.6110493" lon="13.282659"><ele>38.0</ele><time>2026-04-19T07:10:32.28Z</time></trkpt><trkpt lat="43.6110909" lon="13.2825797"><ele>38.0</ele><time>2026-04-19T07:10:33.28Z</time></trkpt><trkpt lat="43.6111617" lon="13.2824562"><ele>38.0</ele><time>2026-04-19T07:10:35.279Z</time></trkpt><trkpt lat="43.6112459" lon="13.2823665"><ele>38.0</ele><time>2026-04-19T07:10:37.28Z</time></trkpt><trkpt lat="43.6113561" lon="13.2823283"><ele>38.0</ele><time>2026-04-19T07:10:39.28Z</time></trkpt><trkpt lat="43.6114241" lon="13.2823091"><ele>38.0</ele><time>2026-04-19T07:10:40.28Z</time></trkpt><trkpt lat="43.6114955" lon="13.28229"><ele>38.0</ele><time>2026-04-19T07:10:41.28Z</time></trkpt><trkpt lat="43.6115708" lon="13.2822694"><ele>38.0</ele><time>2026-04-19T07:10:42.28Z</time></trkpt><trkpt lat="43.6116487" lon="13.282248"><ele>38.0</ele><time>2026-04-19T07:10:43.279Z</time></trkpt><trkpt lat="43.6117265" lon="13.2822204"><ele>38.33333333333333</ele><time>2026-04-19T07:10:44.279Z</time></trkpt><trkpt lat="43.6118049" lon="13.2821904"><ele>38.666666666666664</ele><time>2026-04-19T07:10:45.28Z</time></trkpt><trkpt lat="43.6118868" lon="13.2821598"><ele>39.0</ele><time>2026-04-19T07:10:46.28Z</time></trkpt><trkpt lat="43.6119643" lon="13.2821316"><ele>39.333333333333336</ele><time>2026-04-19T07:10:47.278Z</time></trkpt><trkpt lat="43.6120457" lon="13.2821001"><ele>39.66666666666667</ele><time>2026-04-19T07:10:48.279Z</time></trkpt><trkpt lat="43.6121315" lon="13.282061"><ele>40.0</ele><time>2026-04-19T07:10:49.279Z</time></trkpt><trkpt lat="43.6122227" lon="13.2820177"><ele>40.0</ele><time>2026-04-19T07:10:50.28Z</time></trkpt><trkpt lat="43.6123125" lon="13.2819587"><ele>40.0</ele><time>2026-04-19T07:10:51.28Z</time></trkpt><trkpt lat="43.6124027" lon="13.2818969"><ele>40.0</ele><time>2026-04-19T07:10:52.279Z</time></trkpt><trkpt lat="43.6124883" lon="13.2818328"><ele>40.0</ele><time>2026-04-19T07:10:53.28Z</time></trkpt><trkpt lat="43.6125711" lon="13.2817771"><ele>40.0</ele><time>2026-04-19T07:10:54.28Z</time></trkpt><trkpt lat="43.6126513" lon="13.2817242"><ele>40.0</ele><time>2026-04-19T07:10:55.28Z</time></trkpt><trkpt lat="43.6127251" lon="13.2816729"><ele>40.0</ele><time>2026-04-19T07:10:56.279Z</time></trkpt><trkpt lat="43.6128057" lon="13.2816199"><ele>40.0</ele><time>2026-04-19T07:10:57.279Z</time></trkpt><trkpt lat="43.6128808" lon="13.2815585"><ele>40.0</ele><time>2026-04-19T07:10:58.279Z</time></trkpt><trkpt lat="43.6129583" lon="13.2814851"><ele>40.0</ele><time>2026-04-19T07:10:59.28Z</time></trkpt><trkpt lat="43.6130316" lon="13.281411"><ele>40.0</ele><time>2026-04-19T07:11:00.279Z</time></trkpt><trkpt lat="43.6130967" lon="13.2813324"><ele>39.833333333333336</ele><time>2026-04-19T07:11:01.28Z</time></trkpt><trkpt lat="43.613157" lon="13.2812585"><ele>39.66666666666667</ele><time>2026-04-19T07:11:02.279Z</time></trkpt><trkpt lat="43.6132161" lon="13.2811836"><ele>39.5</ele><time>2026-04-19T07:11:03.279Z</time></trkpt><trkpt lat="43.6132799" lon="13.281105"><ele>39.333333333333336</ele><time>2026-04-19T07:11:04.28Z</time></trkpt><trkpt lat="43.6133518" lon="13.2810166"><ele>39.166666666666664</ele><time>2026-04-19T07:11:05.28Z</time></trkpt><trkpt lat="43.6134293" lon="13.2809185"><ele>39.0</ele><time>2026-04-19T07:11:06.28Z</time></trkpt><trkpt lat="43.6135083" lon="13.2808112"><ele>39.0</ele><time>2026-04-19T07:11:07.279Z</time></trkpt><trkpt lat="43.6135878" lon="13.2807013"><ele>39.0</ele><time>2026-04-19T07:11:08.279Z</time></trkpt><trkpt lat="43.6136647" lon="13.2805911"><ele>39.0</ele><time>2026-04-19T07:11:09.28Z</time></trkpt><trkpt lat="43.6137391" lon="13.2804851"><ele>39.0</ele><time>2026-04-19T07:11:10.28Z</time></trkpt><trkpt lat="43.6138085" lon="13.2803788"><ele>39.0</ele><time>2026-04-19T07:11:11.279Z</time></trkpt><trkpt lat="43.6138839" lon="13.2802686"><ele>39.6</ele><time>2026-04-19T07:11:12.28Z</time></trkpt><trkpt lat="43.6139572" lon="13.2801557"><ele>40.2</ele><time>2026-04-19T07:11:13.28Z</time></trkpt><trkpt lat="43.6140291" lon="13.2800397"><ele>40.800000000000004</ele><time>2026-04-19T07:11:14.28Z</time></trkpt><trkpt lat="43.6141015" lon="13.2799231"><ele>41.4</ele><time>2026-04-19T07:11:15.28Z</time></trkpt><trkpt lat="43.6141726" lon="13.2798037"><ele>42.0</ele><time>2026-04-19T07:11:16.28Z</time></trkpt><trkpt lat="43.6142418" lon="13.2796825"><ele>41.8</ele><time>2026-04-19T07:11:17.28Z</time></trkpt><trkpt lat="43.6143107" lon="13.279559"><ele>41.6</ele><time>2026-04-19T07:11:18.28Z</time></trkpt><trkpt lat="43.614385" lon="13.2794445"><ele>41.4</ele><time>2026-04-19T07:11:19.28Z</time></trkpt><trkpt lat="43.6144634" lon="13.279336"><ele>41.199999999999996</ele><time>2026-04-19T07:11:20.279Z</time></trkpt><trkpt lat="43.614544" lon="13.2792366"><ele>41.0</ele><time>2026-04-19T07:11:21.28Z</time></trkpt><trkpt lat="43.6146183" lon="13.2791501"><ele>41.0</ele><time>2026-04-19T07:11:22.278Z</time></trkpt><trkpt lat="43.6146868" lon="13.2790706"><ele>41.0</ele><time>2026-04-19T07:11:23.28Z</time></trkpt><trkpt lat="43.6147502" lon="13.278997"><ele>41.0</ele><time>2026-04-19T07:11:24.28Z</time></trkpt><trkpt lat="43.6148102" lon="13.2789278"><ele>41.0</ele><time>2026-04-19T07:11:25.279Z</time></trkpt><trkpt lat="43.6148702" lon="13.2788573"><ele>41.0</ele><time>2026-04-19T07:11:26.28Z</time></trkpt><trkpt lat="43.6149305" lon="13.2787888"><ele>41.0</ele><time>2026-04-19T07:11:27.28Z</time></trkpt><trkpt lat="43.6149911" lon="13.2787179"><ele>40.83333333333333</ele><time>2026-04-19T07:11:28.28Z</time></trkpt><trkpt lat="43.6150567" lon="13.2786425"><ele>40.666666666666664</ele><time>2026-04-19T07:11:29.28Z</time></trkpt><trkpt lat="43.6151242" lon="13.2785657"><ele>40.5</ele><time>2026-04-19T07:11:30.279Z</time></trkpt><trkpt lat="43.6151908" lon="13.2784871"><ele>40.333333333333336</ele><time>2026-04-19T07:11:31.28Z</time></trkpt><trkpt lat="43.6152551" lon="13.2784015"><ele>40.16666666666667</ele><time>2026-04-19T07:11:32.28Z</time></trkpt><trkpt lat="43.615318" lon="13.278306"><ele>40.0</ele><time>2026-04-19T07:11:33.278Z</time></trkpt><trkpt lat="43.6153835" lon="13.2782008"><ele>40.6</ele><time>2026-04-19T07:11:34.279Z</time></trkpt><trkpt lat="43.6154527" lon="13.2780987"><ele>41.2</ele><time>2026-04-19T07:11:35.28Z</time></trkpt><trkpt lat="43.615516" lon="13.2780084"><ele>41.8</ele><time>2026-04-19T07:11:36.28Z</time></trkpt><trkpt lat="43.6155774" lon="13.2779227"><ele>42.4</ele><time>2026-04-19T07:11:37.279Z</time></trkpt><trkpt lat="43.6156422" lon="13.2778366"><ele>43.0</ele><time>2026-04-19T07:11:38.279Z</time></trkpt><trkpt lat="43.6157073" lon="13.2777549"><ele>43.0</ele><time>2026-04-19T07:11:39.279Z</time></trkpt><trkpt lat="43.61577" lon="13.2776736"><ele>43.0</ele><time>2026-04-19T07:11:40.279Z</time></trkpt><trkpt lat="43.6158331" lon="13.2775949"><ele>43.0</ele><time>2026-04-19T07:11:41.278Z</time></trkpt><trkpt lat="43.6158981" lon="13.2775168"><ele>43.0</ele><time>2026-04-19T07:11:42.279Z</time></trkpt><trkpt lat="43.6159651" lon="13.2774451"><ele>43.0</ele><time>2026-04-19T07:11:43.279Z</time></trkpt><trkpt lat="43.6160342" lon="13.2773762"><ele>43.0</ele><time>2026-04-19T07:11:44.28Z</time></trkpt><trkpt lat="43.6161017" lon="13.2773012"><ele>43.0</ele><time>2026-04-19T07:11:45.28Z</time></trkpt><trkpt lat="43.6161688" lon="13.277224"><ele>43.0</ele><time>2026-04-19T07:11:46.279Z</time></trkpt><trkpt lat="43.6162384" lon="13.2771443"><ele>43.0</ele><time>2026-04-19T07:11:47.28Z</time></trkpt><trkpt lat="43.6163079" lon="13.277059"><ele>43.0</ele><time>2026-04-19T07:11:48.28Z</time></trkpt><trkpt lat="43.616375" lon="13.2769667"><ele>43.0</ele><time>2026-04-19T07:11:49.28Z</time></trkpt><trkpt lat="43.6164361" lon="13.2768698"><ele>43.0</ele><time>2026-04-19T07:11:50.28Z</time></trkpt><trkpt lat="43.6165028" lon="13.2767697"><ele>43.0</ele><time>2026-04-19T07:11:51.28Z</time></trkpt><trkpt lat="43.6165748" lon="13.2766707"><ele>43.0</ele><time>2026-04-19T07:11:52.28Z</time></trkpt><trkpt lat="43.6166503" lon="13.2765705"><ele>43.0</ele><time>2026-04-19T07:11:53.28Z</time></trkpt><trkpt lat="43.6167241" lon="13.2764755"><ele>43.0</ele><time>2026-04-19T07:11:54.28Z</time></trkpt><trkpt lat="43.6167985" lon="13.2763735"><ele>43.25</ele><time>2026-04-19T07:11:55.28Z</time></trkpt><trkpt lat="43.6168747" lon="13.2762638"><ele>43.5</ele><time>2026-04-19T07:11:56.28Z</time></trkpt><trkpt lat="43.6169524" lon="13.2761488"><ele>43.75</ele><time>2026-04-19T07:11:57.28Z</time></trkpt><trkpt lat="43.6170297" lon="13.2760302"><ele>44.0</ele><time>2026-04-19T07:11:58.28Z</time></trkpt><trkpt lat="43.6171049" lon="13.2759128"><ele>44.0</ele><time>2026-04-19T07:11:59.28Z</time></trkpt><trkpt lat="43.6171779" lon="13.2758"><ele>44.0</ele><time>2026-04-19T07:12:00.28Z</time></trkpt><trkpt lat="43.6172499" lon="13.2756834"><ele>44.0</ele><time>2026-04-19T07:12:01.279Z</time></trkpt><trkpt lat="43.6173172" lon="13.2755591"><ele>44.0</ele><time>2026-04-19T07:12:02.28Z</time></trkpt><trkpt lat="43.617383" lon="13.2754345"><ele>44.0</ele><time>2026-04-19T07:12:03.28Z</time></trkpt><trkpt lat="43.6174474" lon="13.2753109"><ele>44.6</ele><time>2026-04-19T07:12:04.28Z</time></trkpt><trkpt lat="43.6175137" lon="13.2751903"><ele>45.2</ele><time>2026-04-19T07:12:05.279Z</time></trkpt><trkpt lat="43.6175784" lon="13.2750772"><ele>45.800000000000004</ele><time>2026-04-19T07:12:06.279Z</time></trkpt><trkpt lat="43.6176395" lon="13.2749708"><ele>46.400000000000006</ele><time>2026-04-19T07:12:07.28Z</time></trkpt><trkpt lat="43.6176963" lon="13.2748713"><ele>47.0</ele><time>2026-04-19T07:12:08.28Z</time></trkpt><trkpt lat="43.6177515" lon="13.274778"><ele>47.8</ele><time>2026-04-19T07:12:09.278Z</time></trkpt><trkpt lat="43.6178084" lon="13.2746784"><ele>48.6</ele><time>2026-04-19T07:12:10.28Z</time></trkpt><trkpt lat="43.6178572" lon="13.2745702"><ele>49.4</ele><time>2026-04-19T07:12:11.28Z</time></trkpt><trkpt lat="43.6179215" lon="13.2744596"><ele>50.199999999999996</ele><time>2026-04-19T07:12:12.28Z</time></trkpt><trkpt lat="43.6179882" lon="13.2743439"><ele>51.0</ele><time>2026-04-19T07:12:13.28Z</time></trkpt><trkpt lat="43.6180555" lon="13.2742244"><ele>50.199999999999996</ele><time>2026-04-19T07:12:14.28Z</time></trkpt><trkpt lat="43.6181202" lon="13.2741"><ele>49.4</ele><time>2026-04-19T07:12:15.279Z</time></trkpt><trkpt lat="43.6181765" lon="13.2739795"><ele>48.6</ele><time>2026-04-19T07:12:16.279Z</time></trkpt><trkpt lat="43.6182279" lon="13.2738636"><ele>47.8</ele><time>2026-04-19T07:12:17.28Z</time></trkpt><trkpt lat="43.6182759" lon="13.273743"><ele>47.0</ele><time>2026-04-19T07:12:18.28Z</time></trkpt><trkpt lat="43.6183287" lon="13.2736199"><ele>47.0</ele><time>2026-04-19T07:12:19.28Z</time></trkpt><trkpt lat="43.6183803" lon="13.2734933"><ele>47.0</ele><time>2026-04-19T07:12:20.28Z</time></trkpt><trkpt lat="43.6184268" lon="13.2733637"><ele>47.0</ele><time>2026-04-19T07:12:21.279Z</time></trkpt><trkpt lat="43.6184694" lon="13.273248"><ele>47.0</ele><time>2026-04-19T07:12:22.28Z</time></trkpt><trkpt lat="43.6185089" lon="13.2731326"><ele>47.0</ele><time>2026-04-19T07:12:23.28Z</time></trkpt><trkpt lat="43.6185583" lon="13.2730142"><ele>46.2</ele><time>2026-04-19T07:12:24.28Z</time></trkpt><trkpt lat="43.6186135" lon="13.2728943"><ele>45.400000000000006</ele><time>2026-04-19T07:12:25.28Z</time></trkpt><trkpt lat="43.6186657" lon="13.2727838"><ele>44.599999999999994</ele><time>2026-04-19T07:12:26.28Z</time></trkpt><trkpt lat="43.6187216" lon="13.2726652"><ele>43.8</ele><time>2026-04-19T07:12:27.278Z</time></trkpt><trkpt lat="43.6187766" lon="13.2725503"><ele>43.0</ele><time>2026-04-19T07:12:28.28Z</time></trkpt><trkpt lat="43.618834" lon="13.27243"><ele>43.0</ele><time>2026-04-19T07:12:29.278Z</time></trkpt><trkpt lat="43.6188928" lon="13.2723031"><ele>43.0</ele><time>2026-04-19T07:12:30.28Z</time></trkpt><trkpt lat="43.6189495" lon="13.2721733"><ele>43.0</ele><time>2026-04-19T07:12:31.279Z</time></trkpt><trkpt lat="43.619004" lon="13.2720444"><ele>43.0</ele><time>2026-04-19T07:12:32.279Z</time></trkpt><trkpt lat="43.6190548" lon="13.2719053"><ele>43.0</ele><time>2026-04-19T07:12:33.28Z</time></trkpt><trkpt lat="43.6191045" lon="13.2717599"><ele>43.599999999999994</ele><time>2026-04-19T07:12:34.28Z</time></trkpt><trkpt lat="43.6191526" lon="13.2716161"><ele>44.199999999999996</ele><time>2026-04-19T07:12:35.28Z</time></trkpt><trkpt lat="43.6191986" lon="13.2714829"><ele>44.8</ele><time>2026-04-19T07:12:36.279Z</time></trkpt><trkpt lat="43.6192429" lon="13.2713666"><ele>45.4</ele><time>2026-04-19T07:12:37.279Z</time></trkpt><trkpt lat="43.6192963" lon="13.2712668"><ele>46.0</ele><time>2026-04-19T07:12:38.28Z</time></trkpt><trkpt lat="43.6193694" lon="13.2711638"><ele>46.4</ele><time>2026-04-19T07:12:39.28Z</time></trkpt><trkpt lat="43.6194431" lon="13.2710596"><ele>46.8</ele><time>2026-04-19T07:12:40.279Z</time></trkpt><trkpt lat="43.6195131" lon="13.2709552"><ele>47.199999999999996</ele><time>2026-04-19T07:12:41.28Z</time></trkpt><trkpt lat="43.6195781" lon="13.270844"><ele>47.599999999999994</ele><time>2026-04-19T07:12:42.28Z</time></trkpt><trkpt lat="43.6196424" lon="13.2707246"><ele>48.0</ele><time>2026-04-19T07:12:43.28Z</time></trkpt><trkpt lat="43.6197115" lon="13.270605"><ele>47.2</ele><time>2026-04-19T07:12:44.28Z</time></trkpt><trkpt lat="43.6197828" lon="13.2704824"><ele>46.4</ele><time>2026-04-19T07:12:45.279Z</time></trkpt><trkpt lat="43.6198505" lon="13.2703673"><ele>45.6</ele><time>2026-04-19T07:12:46.28Z</time></trkpt><trkpt lat="43.6199148" lon="13.2702476"><ele>44.800000000000004</ele><time>2026-04-19T07:12:47.279Z</time></trkpt><trkpt lat="43.6199825" lon="13.2701219"><ele>44.0</ele><time>2026-04-19T07:12:48.279Z</time></trkpt><trkpt lat="43.6200494" lon="13.2699839"><ele>44.0</ele><time>2026-04-19T07:12:49.28Z</time></trkpt><trkpt lat="43.6201139" lon="13.2698429"><ele>44.0</ele><time>2026-04-19T07:12:50.279Z</time></trkpt><trkpt lat="43.6201804" lon="13.2697038"><ele>44.0</ele><time>2026-04-19T07:12:51.279Z</time></trkpt><trkpt lat="43.6202465" lon="13.2695664"><ele>44.0</ele><time>2026-04-19T07:12:52.279Z</time></trkpt><trkpt lat="43.6203099" lon="13.2694299"><ele>44.0</ele><time>2026-04-19T07:12:53.28Z</time></trkpt><trkpt lat="43.620371" lon="13.2692954"><ele>44.0</ele><time>2026-04-19T07:12:54.28Z</time></trkpt><trkpt lat="43.6204297" lon="13.269163"><ele>44.0</ele><time>2026-04-19T07:12:55.279Z</time></trkpt><trkpt lat="43.6204881" lon="13.2690325"><ele>44.0</ele><time>2026-04-19T07:12:56.28Z</time></trkpt><trkpt lat="43.6205463" lon="13.2689043"><ele>44.0</ele><time>2026-04-19T07:12:57.278Z</time></trkpt><trkpt lat="43.6206027" lon="13.2687781"><ele>44.0</ele><time>2026-04-19T07:12:58.28Z</time></trkpt><trkpt lat="43.6206594" lon="13.2686585"><ele>44.0</ele><time>2026-04-19T07:12:59.28Z</time></trkpt><trkpt lat="43.6207148" lon="13.2685528"><ele>44.0</ele><time>2026-04-19T07:13:00.28Z</time></trkpt><trkpt lat="43.6207811" lon="13.2684514"><ele>44.0</ele><time>2026-04-19T07:13:01.279Z</time></trkpt><trkpt lat="43.6208572" lon="13.2683585"><ele>44.0</ele><time>2026-04-19T07:13:02.279Z</time></trkpt><trkpt lat="43.620937" lon="13.2682781"><ele>44.0</ele><time>2026-04-19T07:13:03.279Z</time></trkpt><trkpt lat="43.6210173" lon="13.2681947"><ele>44.0</ele><time>2026-04-19T07:13:04.28Z</time></trkpt><trkpt lat="43.6210942" lon="13.268108"><ele>44.0</ele><time>2026-04-19T07:13:05.279Z</time></trkpt><trkpt lat="43.6211645" lon="13.2680257"><ele>44.0</ele><time>2026-04-19T07:13:06.279Z</time></trkpt><trkpt lat="43.6212352" lon="13.2679376"><ele>44.0</ele><time>2026-04-19T07:13:07.28Z</time></trkpt><trkpt lat="43.6212999" lon="13.2678514"><ele>43.83333333333333</ele><time>2026-04-19T07:13:08.279Z</time></trkpt><trkpt lat="43.6213577" lon="13.2677728"><ele>43.666666666666664</ele><time>2026-04-19T07:13:09.28Z</time></trkpt><trkpt lat="43.621407" lon="13.2677076"><ele>43.5</ele><time>2026-04-19T07:13:10.28Z</time></trkpt><trkpt lat="43.6215204" lon="13.2676437"><ele>43.333333333333336</ele><time>2026-04-19T07:13:12.28Z</time></trkpt><trkpt lat="43.6215915" lon="13.2676447"><ele>43.16666666666667</ele><time>2026-04-19T07:13:13.279Z</time></trkpt><trkpt lat="43.6216645" lon="13.2676439"><ele>43.0</ele><time>2026-04-19T07:13:14.279Z</time></trkpt><trkpt lat="43.6217351" lon="13.267636"><ele>43.0</ele><time>2026-04-19T07:13:15.28Z</time></trkpt><trkpt lat="43.6218433" lon="13.2675552"><ele>43.0</ele><time>2026-04-19T07:13:17.28Z</time></trkpt><trkpt lat="43.6218835" lon="13.267479"><ele>43.0</ele><time>2026-04-19T07:13:18.28Z</time></trkpt><trkpt lat="43.6219228" lon="13.2673798"><ele>43.0</ele><time>2026-04-19T07:13:19.28Z</time></trkpt><trkpt lat="43.6219598" lon="13.2672484"><ele>43.0</ele><time>2026-04-19T07:13:20.279Z</time></trkpt><trkpt lat="43.621992" lon="13.2671334"><ele>43.16666666666667</ele><time>2026-04-19T07:13:21.28Z</time></trkpt><trkpt lat="43.6220331" lon="13.2670278"><ele>43.333333333333336</ele><time>2026-04-19T07:13:22.28Z</time></trkpt><trkpt lat="43.6220778" lon="13.2669326"><ele>43.5</ele><time>2026-04-19T07:13:23.28Z</time></trkpt><trkpt lat="43.622135" lon="13.2668528"><ele>43.666666666666664</ele><time>2026-04-19T07:13:24.279Z</time></trkpt><trkpt lat="43.622199" lon="13.2667824"><ele>43.83333333333333</ele><time>2026-04-19T07:13:25.28Z</time></trkpt><trkpt lat="43.6222654" lon="13.266711"><ele>44.0</ele><time>2026-04-19T07:13:26.28Z</time></trkpt><trkpt lat="43.6223312" lon="13.2666441"><ele>44.0</ele><time>2026-04-19T07:13:27.28Z</time></trkpt><trkpt lat="43.6223928" lon="13.2665856"><ele>44.0</ele><time>2026-04-19T07:13:28.28Z</time></trkpt><trkpt lat="43.6224878" lon="13.2665009"><ele>44.0</ele><time>2026-04-19T07:13:30.279Z</time></trkpt><trkpt lat="43.6225712" lon="13.2664321"><ele>44.0</ele><time>2026-04-19T07:13:32.28Z</time></trkpt><trkpt lat="43.6226203" lon="13.2663613"><ele>44.0</ele><time>2026-04-19T07:13:34.279Z</time></trkpt><trkpt lat="43.622601" lon="13.2662724"><ele>44.0</ele><time>2026-04-19T07:13:37.279Z</time></trkpt><trkpt lat="43.6225539" lon="13.2661693"><ele>43.75</ele><time>2026-04-19T07:13:39.28Z</time></trkpt><trkpt lat="43.6224916" lon="13.2660502"><ele>43.5</ele><time>2026-04-19T07:13:41.279Z</time></trkpt><trkpt lat="43.622423" lon="13.2659089"><ele>43.25</ele><time>2026-04-19T07:13:43.28Z</time></trkpt><trkpt lat="43.6223663" lon="13.2657868"><ele>43.0</ele><time>2026-04-19T07:13:45.28Z</time></trkpt><trkpt lat="43.622294" lon="13.2656357"><ele>43.42857142857143</ele><time>2026-04-19T07:13:47.28Z</time></trkpt><trkpt lat="43.6222538" lon="13.265555"><ele>43.85714285714286</ele><time>2026-04-19T07:13:48.279Z</time></trkpt><trkpt lat="43.6222185" lon="13.2654802"><ele>44.28571428571429</ele><time>2026-04-19T07:13:49.28Z</time></trkpt><trkpt lat="43.6221781" lon="13.2653966"><ele>44.714285714285715</ele><time>2026-04-19T07:13:50.279Z</time></trkpt><trkpt lat="43.6221386" lon="13.2653155"><ele>45.14285714285714</ele><time>2026-04-19T07:13:51.28Z</time></trkpt><trkpt lat="43.6220984" lon="13.2652303"><ele>45.57142857142858</ele><time>2026-04-19T07:13:52.279Z</time></trkpt><trkpt lat="43.6220563" lon="13.2651431"><ele>46.0</ele><time>2026-04-19T07:13:53.279Z</time></trkpt><trkpt lat="43.6220119" lon="13.2650527"><ele>46.5</ele><time>2026-04-19T07:13:54.28Z</time></trkpt><trkpt lat="43.6219665" lon="13.2649603"><ele>47.0</ele><time>2026-04-19T07:13:55.28Z</time></trkpt><trkpt lat="43.6219184" lon="13.2648611"><ele>47.5</ele><time>2026-04-19T07:13:56.28Z</time></trkpt><trkpt lat="43.6218726" lon="13.264769"><ele>48.0</ele><time>2026-04-19T07:13:57.279Z</time></trkpt><trkpt lat="43.6218283" lon="13.2646808"><ele>48.49999999999999</ele><time>2026-04-19T07:13:58.28Z</time></trkpt><trkpt lat="43.6217888" lon="13.2645956"><ele>49.0</ele><time>2026-04-19T07:13:59.28Z</time></trkpt><trkpt lat="43.6217517" lon="13.264519"><ele>50.33333333333333</ele><time>2026-04-19T07:14:00.279Z</time></trkpt><trkpt lat="43.6216828" lon="13.2643936"><ele>51.666666666666664</ele><time>2026-04-19T07:14:02.28Z</time></trkpt><trkpt lat="43.6216267" lon="13.2642815"><ele>53.0</ele><time>2026-04-19T07:14:04.28Z</time></trkpt><trkpt lat="43.6215902" lon="13.2642076"><ele>54.33333333333333</ele><time>2026-04-19T07:14:05.28Z</time></trkpt><trkpt lat="43.6215552" lon="13.2641301"><ele>55.666666666666664</ele><time>2026-04-19T07:14:06.28Z</time></trkpt><trkpt lat="43.6215179" lon="13.2640486"><ele>57.0</ele><time>2026-04-19T07:14:07.28Z</time></trkpt><trkpt lat="43.6214795" lon="13.2639655"><ele>58.8</ele><time>2026-04-19T07:14:08.279Z</time></trkpt><trkpt lat="43.6214407" lon="13.2638793"><ele>60.6</ele><time>2026-04-19T07:14:09.278Z</time></trkpt><trkpt lat="43.6214063" lon="13.2637979"><ele>62.39999999999999</ele><time>2026-04-19T07:14:10.279Z</time></trkpt><trkpt lat="43.6213554" lon="13.2636631"><ele>64.2</ele><time>2026-04-19T07:14:12.28Z</time></trkpt><trkpt lat="43.6213199" lon="13.2635135"><ele>66.0</ele><time>2026-04-19T07:14:14.279Z</time></trkpt><trkpt lat="43.6213342" lon="13.2633557"><ele>66.0</ele><time>2026-04-19T07:14:16.279Z</time></trkpt><trkpt lat="43.6213987" lon="13.2632057"><ele>66.0</ele><time>2026-04-19T07:14:18.28Z</time></trkpt><trkpt lat="43.6214751" lon="13.2630595"><ele>66.0</ele><time>2026-04-19T07:14:20.28Z</time></trkpt><trkpt lat="43.6215157" lon="13.2629777"><ele>66.0</ele><time>2026-04-19T07:14:21.28Z</time></trkpt><trkpt lat="43.6215493" lon="13.2628995"><ele>66.0</ele><time>2026-04-19T07:14:22.28Z</time></trkpt><trkpt lat="43.6215964" lon="13.2628238"><ele>67.16666666666667</ele><time>2026-04-19T07:14:23.279Z</time></trkpt><trkpt lat="43.6216594" lon="13.2626937"><ele>68.33333333333333</ele><time>2026-04-19T07:14:25.28Z</time></trkpt><trkpt lat="43.6216997" lon="13.2626113"><ele>69.5</ele><time>2026-04-19T07:14:26.279Z</time></trkpt><trkpt lat="43.6217379" lon="13.2625329"><ele>70.66666666666666</ele><time>2026-04-19T07:14:27.28Z</time></trkpt><trkpt lat="43.6217831" lon="13.262444"><ele>71.83333333333333</ele><time>2026-04-19T07:14:28.279Z</time></trkpt><trkpt lat="43.6218267" lon="13.2623639"><ele>73.0</ele><time>2026-04-19T07:14:29.279Z</time></trkpt><trkpt lat="43.6218799" lon="13.2622337"><ele>74.66666666666666</ele><time>2026-04-19T07:14:31.28Z</time></trkpt><trkpt lat="43.6218583" lon="13.2621161"><ele>76.33333333333333</ele><time>2026-04-19T07:14:33.28Z</time></trkpt><trkpt lat="43.6217935" lon="13.261987"><ele>78.0</ele><time>2026-04-19T07:14:35.28Z</time></trkpt><trkpt lat="43.6217629" lon="13.2618989"><ele>79.66666666666667</ele><time>2026-04-19T07:14:36.279Z</time></trkpt><trkpt lat="43.6217354" lon="13.2618142"><ele>81.33333333333334</ele><time>2026-04-19T07:14:37.28Z</time></trkpt><trkpt lat="43.6217176" lon="13.261728"><ele>83.0</ele><time>2026-04-19T07:14:38.279Z</time></trkpt><trkpt lat="43.6217196" lon="13.2615512"><ele>83.0</ele><time>2026-04-19T07:14:40.278Z</time></trkpt><trkpt lat="43.621736" lon="13.2614547"><ele>83.0</ele><time>2026-04-19T07:14:41.28Z</time></trkpt><trkpt lat="43.6217619" lon="13.261357"><ele>83.0</ele><time>2026-04-19T07:14:42.28Z</time></trkpt><trkpt lat="43.6217954" lon="13.2612543"><ele>83.0</ele><time>2026-04-19T07:14:43.279Z</time></trkpt><trkpt lat="43.6218345" lon="13.261145"><ele>83.0</ele><time>2026-04-19T07:14:44.28Z</time></trkpt><trkpt lat="43.6218824" lon="13.2610317"><ele>83.0</ele><time>2026-04-19T07:14:45.28Z</time></trkpt><trkpt lat="43.6219315" lon="13.2609165"><ele>83.5</ele><time>2026-04-19T07:14:46.28Z</time></trkpt><trkpt lat="43.6219797" lon="13.2608091"><ele>84.0</ele><time>2026-04-19T07:14:47.28Z</time></trkpt><trkpt lat="43.6220257" lon="13.2607098"><ele>84.5</ele><time>2026-04-19T07:14:48.28Z</time></trkpt><trkpt lat="43.6220656" lon="13.2606067"><ele>85.0</ele><time>2026-04-19T07:14:49.278Z</time></trkpt><trkpt lat="43.6220953" lon="13.2605084"><ele>85.5</ele><time>2026-04-19T07:14:50.28Z</time></trkpt><trkpt lat="43.6221181" lon="13.2604106"><ele>86.0</ele><time>2026-04-19T07:14:51.279Z</time></trkpt><trkpt lat="43.6221287" lon="13.2603083"><ele>87.33333333333334</ele><time>2026-04-19T07:14:52.28Z</time></trkpt><trkpt lat="43.6221298" lon="13.2602019"><ele>88.66666666666667</ele><time>2026-04-19T07:14:53.279Z</time></trkpt><trkpt lat="43.6221228" lon="13.260087"><ele>90.0</ele><time>2026-04-19T07:14:54.28Z</time></trkpt><trkpt lat="43.6221032" lon="13.2599711"><ele>91.33333333333333</ele><time>2026-04-19T07:14:55.279Z</time></trkpt><trkpt lat="43.6220744" lon="13.2598559"><ele>92.66666666666666</ele><time>2026-04-19T07:14:56.279Z</time></trkpt><trkpt lat="43.6220423" lon="13.2597418"><ele>94.0</ele><time>2026-04-19T07:14:57.279Z</time></trkpt><trkpt lat="43.6220121" lon="13.2596403"><ele>95.6</ele><time>2026-04-19T07:14:58.279Z</time></trkpt><trkpt lat="43.6219811" lon="13.2594908"><ele>97.2</ele><time>2026-04-19T07:15:00.28Z</time></trkpt><trkpt lat="43.622004" lon="13.259349"><ele>98.8</ele><time>2026-04-19T07:15:02.28Z</time></trkpt><trkpt lat="43.6220938" lon="13.2592397"><ele>100.39999999999999</ele><time>2026-04-19T07:15:04.279Z</time></trkpt><trkpt lat="43.622155" lon="13.259181"><ele>102.0</ele><time>2026-04-19T07:15:05.278Z</time></trkpt><trkpt lat="43.622218" lon="13.2591171"><ele>102.0</ele><time>2026-04-19T07:15:06.28Z</time></trkpt><trkpt lat="43.6222868" lon="13.2590456"><ele>102.0</ele><time>2026-04-19T07:15:07.28Z</time></trkpt><trkpt lat="43.6223571" lon="13.2589699"><ele>102.0</ele><time>2026-04-19T07:15:08.279Z</time></trkpt><trkpt lat="43.6224225" lon="13.2588867"><ele>102.0</ele><time>2026-04-19T07:15:09.28Z</time></trkpt><trkpt lat="43.622479" lon="13.2587987"><ele>102.0</ele><time>2026-04-19T07:15:10.28Z</time></trkpt><trkpt lat="43.6225294" lon="13.2587079"><ele>102.0</ele><time>2026-04-19T07:15:11.28Z</time></trkpt><trkpt lat="43.6225779" lon="13.258616"><ele>104.0</ele><time>2026-04-19T07:15:12.279Z</time></trkpt><trkpt lat="43.6226266" lon="13.2585218"><ele>106.0</ele><time>2026-04-19T07:15:13.28Z</time></trkpt><trkpt lat="43.6226574" lon="13.2584147"><ele>108.0</ele><time>2026-04-19T07:15:14.278Z</time></trkpt><trkpt lat="43.6226914" lon="13.2583117"><ele>110.0</ele><time>2026-04-19T07:15:15.28Z</time></trkpt><trkpt lat="43.6227259" lon="13.2582032"><ele>112.0</ele><time>2026-04-19T07:15:16.279Z</time></trkpt><trkpt lat="43.6227638" lon="13.2580866"><ele>114.0</ele><time>2026-04-19T07:15:17.279Z</time></trkpt><trkpt lat="43.6228" lon="13.2579795"><ele>114.33333333333333</ele><time>2026-04-19T07:15:18.28Z</time></trkpt><trkpt lat="43.6228392" lon="13.2578749"><ele>114.66666666666666</ele><time>2026-04-19T07:15:19.28Z</time></trkpt><trkpt lat="43.6228787" lon="13.2577704"><ele>115.0</ele><time>2026-04-19T07:15:20.279Z</time></trkpt><trkpt lat="43.6229194" lon="13.2576673"><ele>115.33333333333333</ele><time>2026-04-19T07:15:21.28Z</time></trkpt><trkpt lat="43.6229588" lon="13.2575653"><ele>115.66666666666666</ele><time>2026-04-19T07:15:22.278Z</time></trkpt><trkpt lat="43.6229901" lon="13.2574589"><ele>116.0</ele><time>2026-04-19T07:15:23.28Z</time></trkpt><trkpt lat="43.6230128" lon="13.2573516"><ele>116.00000000000001</ele><time>2026-04-19T07:15:24.28Z</time></trkpt><trkpt lat="43.6230292" lon="13.2572412"><ele>116.0</ele><time>2026-04-19T07:15:25.28Z</time></trkpt><trkpt lat="43.6230446" lon="13.2571423"><ele>116.00000000000001</ele><time>2026-04-19T07:15:26.28Z</time></trkpt><trkpt lat="43.6230715" lon="13.2570528"><ele>116.00000000000001</ele><time>2026-04-19T07:15:27.28Z</time></trkpt><trkpt lat="43.6230981" lon="13.256965"><ele>116.0</ele><time>2026-04-19T07:15:28.28Z</time></trkpt><trkpt lat="43.623134" lon="13.2568821"><ele>116.00000000000001</ele><time>2026-04-19T07:15:29.28Z</time></trkpt><trkpt lat="43.6231738" lon="13.2567998"><ele>116.00000000000001</ele><time>2026-04-19T07:15:30.279Z</time></trkpt><trkpt lat="43.6232232" lon="13.2567324"><ele>116.0</ele><time>2026-04-19T07:15:31.28Z</time></trkpt><trkpt lat="43.6232493" lon="13.2566486"><ele>116.0</ele><time>2026-04-19T07:15:32.28Z</time></trkpt><trkpt lat="43.6232564" lon="13.2565309"><ele>116.0</ele><time>2026-04-19T07:15:34.279Z</time></trkpt><trkpt lat="43.6231912" lon="13.2564506"><ele>116.0</ele><time>2026-04-19T07:15:36.28Z</time></trkpt><trkpt lat="43.6230523" lon="13.2563996"><ele>116.0</ele><time>2026-04-19T07:15:38.28Z</time></trkpt><trkpt lat="43.6229676" lon="13.256362"><ele>117.19999999999999</ele><time>2026-04-19T07:15:39.28Z</time></trkpt><trkpt lat="43.6228812" lon="13.2563188"><ele>118.39999999999999</ele><time>2026-04-19T07:15:40.279Z</time></trkpt><trkpt lat="43.6227998" lon="13.2562686"><ele>119.6</ele><time>2026-04-19T07:15:41.28Z</time></trkpt><trkpt lat="43.6227189" lon="13.2562115"><ele>120.8</ele><time>2026-04-19T07:15:42.279Z</time></trkpt><trkpt lat="43.6226426" lon="13.2561456"><ele>122.0</ele><time>2026-04-19T07:15:43.28Z</time></trkpt><trkpt lat="43.6225722" lon="13.2560707"><ele>121.99999999999999</ele><time>2026-04-19T07:15:44.279Z</time></trkpt><trkpt lat="43.6225172" lon="13.2559809"><ele>122.0</ele><time>2026-04-19T07:15:45.28Z</time></trkpt><trkpt lat="43.6224712" lon="13.255879"><ele>122.0</ele><time>2026-04-19T07:15:46.28Z</time></trkpt><trkpt lat="43.6224337" lon="13.2557632"><ele>122.0</ele><time>2026-04-19T07:15:47.28Z</time></trkpt><trkpt lat="43.6224142" lon="13.2556446"><ele>121.99999999999999</ele><time>2026-04-19T07:15:48.279Z</time></trkpt><trkpt lat="43.622391" lon="13.25553"><ele>122.0</ele><time>2026-04-19T07:15:49.28Z</time></trkpt><trkpt lat="43.6223717" lon="13.2554148"><ele>121.6</ele><time>2026-04-19T07:15:50.28Z</time></trkpt><trkpt lat="43.6223521" lon="13.2552975"><ele>121.19999999999999</ele><time>2026-04-19T07:15:51.28Z</time></trkpt><trkpt lat="43.6223344" lon="13.2551722"><ele>120.8</ele><time>2026-04-19T07:15:52.28Z</time></trkpt><trkpt lat="43.6223142" lon="13.2550352"><ele>120.4</ele><time>2026-04-19T07:15:53.28Z</time></trkpt><trkpt lat="43.6222894" lon="13.254899"><ele>120.0</ele><time>2026-04-19T07:15:54.279Z</time></trkpt><trkpt lat="43.6222596" lon="13.2547655"><ele>119.8</ele><time>2026-04-19T07:15:55.279Z</time></trkpt><trkpt lat="43.6222235" lon="13.2546354"><ele>119.6</ele><time>2026-04-19T07:15:56.28Z</time></trkpt><trkpt lat="43.6221806" lon="13.2545024"><ele>119.4</ele><time>2026-04-19T07:15:57.279Z</time></trkpt><trkpt lat="43.6221343" lon="13.2543664"><ele>119.2</ele><time>2026-04-19T07:15:58.278Z</time></trkpt><trkpt lat="43.6220906" lon="13.2542273"><ele>119.0</ele><time>2026-04-19T07:15:59.28Z</time></trkpt><trkpt lat="43.6220555" lon="13.2540871"><ele>118.66666666666666</ele><time>2026-04-19T07:16:00.28Z</time></trkpt><trkpt lat="43.6220151" lon="13.2539518"><ele>118.33333333333333</ele><time>2026-04-19T07:16:01.279Z</time></trkpt><trkpt lat="43.6219944" lon="13.2538407"><ele>118.0</ele><time>2026-04-19T07:16:02.28Z</time></trkpt><trkpt lat="43.6219649" lon="13.2537341"><ele>117.66666666666666</ele><time>2026-04-19T07:16:03.28Z</time></trkpt><trkpt lat="43.6219422" lon="13.2536222"><ele>117.33333333333333</ele><time>2026-04-19T07:16:04.279Z</time></trkpt><trkpt lat="43.6219254" lon="13.253502"><ele>117.0</ele><time>2026-04-19T07:16:05.28Z</time></trkpt><trkpt lat="43.6219012" lon="13.2533843"><ele>120.66666666666667</ele><time>2026-04-19T07:16:06.279Z</time></trkpt><trkpt lat="43.6218721" lon="13.2532726"><ele>124.33333333333334</ele><time>2026-04-19T07:16:07.279Z</time></trkpt><trkpt lat="43.6218418" lon="13.2531603"><ele>128.0</ele><time>2026-04-19T07:16:08.279Z</time></trkpt><trkpt lat="43.6218146" lon="13.2530391"><ele>131.66666666666669</ele><time>2026-04-19T07:16:09.28Z</time></trkpt><trkpt lat="43.6217971" lon="13.2529183"><ele>135.33333333333334</ele><time>2026-04-19T07:16:10.28Z</time></trkpt><trkpt lat="43.6217799" lon="13.2528016"><ele>139.0</ele><time>2026-04-19T07:16:11.279Z</time></trkpt><trkpt lat="43.6217629" lon="13.2527016"><ele>139.0</ele><time>2026-04-19T07:16:12.279Z</time></trkpt><trkpt lat="43.6217443" lon="13.2526142"><ele>139.0</ele><time>2026-04-19T07:16:13.279Z</time></trkpt><trkpt lat="43.6217025" lon="13.2524842"><ele>139.0</ele><time>2026-04-19T07:16:15.28Z</time></trkpt><trkpt lat="43.6216694" lon="13.2523966"><ele>139.0</ele><time>2026-04-19T07:16:17.28Z</time></trkpt><trkpt lat="43.6216368" lon="13.2523037"><ele>139.0</ele><time>2026-04-19T07:16:20.28Z</time></trkpt><trkpt lat="43.6216385" lon="13.252196"><ele>139.0</ele><time>2026-04-19T07:16:24.278Z</time></trkpt><trkpt lat="43.6216911" lon="13.2521195"><ele>139.0</ele><time>2026-04-19T07:17:45.279Z</time></trkpt><trkpt lat="43.6217413" lon="13.2519523"><ele>139.0</ele><time>2026-04-19T07:17:47.28Z</time></trkpt><trkpt lat="43.6217814" lon="13.2518447"><ele>139.0</ele><time>2026-04-19T07:17:48.28Z</time></trkpt><trkpt lat="43.621819" lon="13.2517671"><ele>139.0</ele><time>2026-04-19T07:17:49.279Z</time></trkpt><trkpt lat="43.6219311" lon="13.2516821"><ele>139.0</ele><time>2026-04-19T07:17:51.28Z</time></trkpt><trkpt lat="43.6219948" lon="13.2516463"><ele>138.5</ele><time>2026-04-19T07:17:52.28Z</time></trkpt><trkpt lat="43.6220485" lon="13.251591"><ele>138.0</ele><time>2026-04-19T07:17:53.279Z</time></trkpt><trkpt lat="43.6221069" lon="13.2515095"><ele>137.5</ele><time>2026-04-19T07:17:54.28Z</time></trkpt><trkpt lat="43.6221604" lon="13.2514133"><ele>137.0</ele><time>2026-04-19T07:17:55.28Z</time></trkpt><trkpt lat="43.6222162" lon="13.2513186"><ele>136.5</ele><time>2026-04-19T07:17:56.278Z</time></trkpt><trkpt lat="43.6222894" lon="13.2512261"><ele>136.0</ele><time>2026-04-19T07:17:57.28Z</time></trkpt><trkpt lat="43.6223693" lon="13.2511424"><ele>136.0</ele><time>2026-04-19T07:17:58.28Z</time></trkpt><trkpt lat="43.6224637" lon="13.2510932"><ele>136.0</ele><time>2026-04-19T07:17:59.28Z</time></trkpt><trkpt lat="43.622549" lon="13.2510552"><ele>136.0</ele><time>2026-04-19T07:18:00.279Z</time></trkpt><trkpt lat="43.6226156" lon="13.2509966"><ele>136.0</ele><time>2026-04-19T07:18:01.28Z</time></trkpt><trkpt lat="43.6226843" lon="13.2509194"><ele>136.0</ele><time>2026-04-19T07:18:02.28Z</time></trkpt><trkpt lat="43.6227503" lon="13.2508121"><ele>133.75</ele><time>2026-04-19T07:18:03.279Z</time></trkpt><trkpt lat="43.6228164" lon="13.2507014"><ele>131.5</ele><time>2026-04-19T07:18:04.279Z</time></trkpt><trkpt lat="43.6228815" lon="13.2505267"><ele>129.25</ele><time>2026-04-19T07:18:05.279Z</time></trkpt><trkpt lat="43.6229439" lon="13.2503961"><ele>127.0</ele><time>2026-04-19T07:18:06.278Z</time></trkpt><trkpt lat="43.6229969" lon="13.2502799"><ele>127.0</ele><time>2026-04-19T07:18:07.279Z</time></trkpt><trkpt lat="43.6230466" lon="13.2501611"><ele>126.99999999999999</ele><time>2026-04-19T07:18:08.279Z</time></trkpt><trkpt lat="43.6231055" lon="13.2500592"><ele>126.99999999999999</ele><time>2026-04-19T07:18:09.279Z</time></trkpt><trkpt lat="43.6231676" lon="13.2499717"><ele>127.0</ele><time>2026-04-19T07:18:10.279Z</time></trkpt><trkpt lat="43.6232399" lon="13.2499063"><ele>127.0</ele><time>2026-04-19T07:18:11.279Z</time></trkpt><trkpt lat="43.6233308" lon="13.2498476"><ele>127.19999999999999</ele><time>2026-04-19T07:18:12.278Z</time></trkpt><trkpt lat="43.6234242" lon="13.2497839"><ele>127.39999999999999</ele><time>2026-04-19T07:18:13.278Z</time></trkpt><trkpt lat="43.6235226" lon="13.2497239"><ele>127.60000000000001</ele><time>2026-04-19T07:18:14.279Z</time></trkpt><trkpt lat="43.6236292" lon="13.2496684"><ele>127.80000000000001</ele><time>2026-04-19T07:18:15.278Z</time></trkpt><trkpt lat="43.6237365" lon="13.2496139"><ele>128.0</ele><time>2026-04-19T07:18:16.279Z</time></trkpt><trkpt lat="43.6238431" lon="13.2495596"><ele>128.0</ele><time>2026-04-19T07:18:17.278Z</time></trkpt><trkpt lat="43.6239603" lon="13.2494976"><ele>128.0</ele><time>2026-04-19T07:18:18.279Z</time></trkpt><trkpt lat="43.6240857" lon="13.2494569"><ele>128.0</ele><time>2026-04-19T07:18:19.279Z</time></trkpt><trkpt lat="43.6242062" lon="13.2494004"><ele>128.0</ele><time>2026-04-19T07:18:20.278Z</time></trkpt><trkpt lat="43.6243281" lon="13.2493487"><ele>128.0</ele><time>2026-04-19T07:18:21.279Z</time></trkpt><trkpt lat="43.6244422" lon="13.2492996"><ele>128.0</ele><time>2026-04-19T07:18:22.279Z</time></trkpt><trkpt lat="43.6245537" lon="13.2492508"><ele>128.0</ele><time>2026-04-19T07:18:23.279Z</time></trkpt><trkpt lat="43.6246638" lon="13.2492027"><ele>128.0</ele><time>2026-04-19T07:18:24.279Z</time></trkpt><trkpt lat="43.6247778" lon="13.2491566"><ele>127.80000000000001</ele><time>2026-04-19T07:18:25.279Z</time></trkpt><trkpt lat="43.6248872" lon="13.2491074"><ele>127.60000000000001</ele><time>2026-04-19T07:18:26.279Z</time></trkpt><trkpt lat="43.6249891" lon="13.2490644"><ele>127.39999999999999</ele><time>2026-04-19T07:18:27.278Z</time></trkpt><trkpt lat="43.6250904" lon="13.2490277"><ele>127.19999999999999</ele><time>2026-04-19T07:18:28.279Z</time></trkpt><trkpt lat="43.6251797" lon="13.2489891"><ele>127.0</ele><time>2026-04-19T07:18:29.279Z</time></trkpt><trkpt lat="43.6252593" lon="13.2489567"><ele>126.66666666666667</ele><time>2026-04-19T07:18:30.278Z</time></trkpt><trkpt lat="43.6253352" lon="13.2489135"><ele>126.33333333333334</ele><time>2026-04-19T07:18:31.279Z</time></trkpt><trkpt lat="43.6253919" lon="13.2488714"><ele>126.0</ele><time>2026-04-19T07:18:32.277Z</time></trkpt><trkpt lat="43.6254473" lon="13.2488227"><ele>125.66666666666666</ele><time>2026-04-19T07:18:33.279Z</time></trkpt><trkpt lat="43.6254857" lon="13.248693"><ele>125.33333333333333</ele><time>2026-04-19T07:18:35.279Z</time></trkpt><trkpt lat="43.6255132" lon="13.2486018"><ele>125.0</ele><time>2026-04-19T07:18:36.278Z</time></trkpt><trkpt lat="43.6255297" lon="13.2485026"><ele>124.99999999999999</ele><time>2026-04-19T07:18:37.279Z</time></trkpt><trkpt lat="43.6255418" lon="13.2484167"><ele>125.0</ele><time>2026-04-19T07:18:38.279Z</time></trkpt><trkpt lat="43.6255484" lon="13.2483285"><ele>125.0</ele><time>2026-04-19T07:18:39.279Z</time></trkpt><trkpt lat="43.6255214" lon="13.2481674"><ele>125.0</ele><time>2026-04-19T07:18:41.278Z</time></trkpt><trkpt lat="43.6254597" lon="13.2480769"><ele>124.99999999999999</ele><time>2026-04-19T07:18:43.278Z</time></trkpt><trkpt lat="43.6253654" lon="13.2480102"><ele>125.0</ele><time>2026-04-19T07:18:45.278Z</time></trkpt><trkpt lat="43.6252582" lon="13.247906"><ele>125.99999999999999</ele><time>2026-04-19T07:18:47.279Z</time></trkpt><trkpt lat="43.6251955" lon="13.2478379"><ele>127.0</ele><time>2026-04-19T07:18:48.279Z</time></trkpt><trkpt lat="43.6251285" lon="13.2477734"><ele>128.0</ele><time>2026-04-19T07:18:49.279Z</time></trkpt><trkpt lat="43.6250639" lon="13.2477071"><ele>129.0</ele><time>2026-04-19T07:18:50.279Z</time></trkpt><trkpt lat="43.6250344" lon="13.2476068"><ele>130.0</ele><time>2026-04-19T07:18:51.278Z</time></trkpt><trkpt lat="43.6250082" lon="13.2474978"><ele>131.0</ele><time>2026-04-19T07:18:52.279Z</time></trkpt><trkpt lat="43.6249946" lon="13.2473845"><ele>129.5</ele><time>2026-04-19T07:18:53.278Z</time></trkpt><trkpt lat="43.6249816" lon="13.2472734"><ele>128.0</ele><time>2026-04-19T07:18:54.278Z</time></trkpt><trkpt lat="43.6249653" lon="13.2471601"><ele>126.5</ele><time>2026-04-19T07:18:55.279Z</time></trkpt><trkpt lat="43.6249474" lon="13.2470477"><ele>125.0</ele><time>2026-04-19T07:18:56.279Z</time></trkpt><trkpt lat="43.6249241" lon="13.2469392"><ele>123.49999999999999</ele><time>2026-04-19T07:18:57.279Z</time></trkpt><trkpt lat="43.624891" lon="13.2468361"><ele>122.0</ele><time>2026-04-19T07:18:58.278Z</time></trkpt><trkpt lat="43.6248516" lon="13.2467299"><ele>122.0</ele><time>2026-04-19T07:18:59.278Z</time></trkpt><trkpt lat="43.6248046" lon="13.2466286"><ele>121.99999999999999</ele><time>2026-04-19T07:19:00.278Z</time></trkpt><trkpt lat="43.6247559" lon="13.2465198"><ele>121.99999999999999</ele><time>2026-04-19T07:19:01.279Z</time></trkpt><trkpt lat="43.6247085" lon="13.2464013"><ele>122.0</ele><time>2026-04-19T07:19:02.278Z</time></trkpt><trkpt lat="43.6246612" lon="13.2462813"><ele>122.0</ele><time>2026-04-19T07:19:03.277Z</time></trkpt><trkpt lat="43.6246095" lon="13.2461607"><ele>121.19999999999999</ele><time>2026-04-19T07:19:04.278Z</time></trkpt><trkpt lat="43.6245521" lon="13.24604"><ele>120.39999999999999</ele><time>2026-04-19T07:19:05.279Z</time></trkpt><trkpt lat="43.6244928" lon="13.2459143"><ele>119.60000000000001</ele><time>2026-04-19T07:19:06.279Z</time></trkpt><trkpt lat="43.6244256" lon="13.2457922"><ele>118.80000000000001</ele><time>2026-04-19T07:19:07.279Z</time></trkpt><trkpt lat="43.6243589" lon="13.24569"><ele>118.0</ele><time>2026-04-19T07:19:08.278Z</time></trkpt><trkpt lat="43.6242945" lon="13.2455928"><ele>118.00000000000001</ele><time>2026-04-19T07:19:09.279Z</time></trkpt><trkpt lat="43.6242303" lon="13.2454926"><ele>118.0</ele><time>2026-04-19T07:19:10.279Z</time></trkpt><trkpt lat="43.6241705" lon="13.2453991"><ele>118.0</ele><time>2026-04-19T07:19:11.279Z</time></trkpt><trkpt lat="43.624121" lon="13.2453203"><ele>118.0</ele><time>2026-04-19T07:19:12.278Z</time></trkpt><trkpt lat="43.624078" lon="13.2452444"><ele>118.00000000000001</ele><time>2026-04-19T07:19:13.277Z</time></trkpt><trkpt lat="43.6240369" lon="13.2451709"><ele>118.0</ele><time>2026-04-19T07:19:14.279Z</time></trkpt><trkpt lat="43.6239639" lon="13.2450492"><ele>118.00000000000001</ele><time>2026-04-19T07:19:16.278Z</time></trkpt><trkpt lat="43.6239033" lon="13.2449547"><ele>118.0</ele><time>2026-04-19T07:19:18.279Z</time></trkpt><trkpt lat="43.6238683" lon="13.2448649"><ele>118.0</ele><time>2026-04-19T07:19:20.279Z</time></trkpt><trkpt lat="43.6238435" lon="13.2447635"><ele>118.0</ele><time>2026-04-19T07:19:22.278Z</time></trkpt><trkpt lat="43.6237924" lon="13.2446622"><ele>118.00000000000001</ele><time>2026-04-19T07:19:24.279Z</time></trkpt><trkpt lat="43.6237064" lon="13.2445754"><ele>118.0</ele><time>2026-04-19T07:19:26.279Z</time></trkpt><trkpt lat="43.6236016" lon="13.2445027"><ele>117.0</ele><time>2026-04-19T07:19:28.278Z</time></trkpt><trkpt lat="43.6235118" lon="13.2444534"><ele>116.00000000000001</ele><time>2026-04-19T07:19:30.278Z</time></trkpt><trkpt lat="43.6234466" lon="13.2443461"><ele>115.00000000000001</ele><time>2026-04-19T07:19:32.278Z</time></trkpt><trkpt lat="43.6233798" lon="13.2442352"><ele>114.0</ele><time>2026-04-19T07:19:34.279Z</time></trkpt><trkpt lat="43.6232843" lon="13.2441559"><ele>113.0</ele><time>2026-04-19T07:19:36.279Z</time></trkpt><trkpt lat="43.6231689" lon="13.2441043"><ele>113.0</ele><time>2026-04-19T07:19:38.278Z</time></trkpt><trkpt lat="43.6230775" lon="13.2440517"><ele>113.00000000000001</ele><time>2026-04-19T07:19:40.278Z</time></trkpt><trkpt lat="43.6230054" lon="13.244005"><ele>113.00000000000001</ele><time>2026-04-19T07:19:42.279Z</time></trkpt><trkpt lat="43.6229275" lon="13.243944"><ele>113.0</ele><time>2026-04-19T07:19:44.279Z</time></trkpt><trkpt lat="43.6228151" lon="13.2438663"><ele>113.0</ele><time>2026-04-19T07:19:46.278Z</time></trkpt><trkpt lat="43.6227493" lon="13.243821"><ele>110.83333333333333</ele><time>2026-04-19T07:19:47.279Z</time></trkpt><trkpt lat="43.6226846" lon="13.2437784"><ele>108.66666666666666</ele><time>2026-04-19T07:19:48.279Z</time></trkpt><trkpt lat="43.6226247" lon="13.2437363"><ele>106.5</ele><time>2026-04-19T07:19:49.279Z</time></trkpt><trkpt lat="43.6225346" lon="13.2436732"><ele>104.33333333333334</ele><time>2026-04-19T07:19:51.279Z</time></trkpt><trkpt lat="43.6224793" lon="13.2436195"><ele>102.16666666666667</ele><time>2026-04-19T07:19:53.279Z</time></trkpt><trkpt lat="43.6224425" lon="13.2435375"><ele>100.0</ele><time>2026-04-19T07:19:55.278Z</time></trkpt><trkpt lat="43.6224231" lon="13.2433904"><ele>100.0</ele><time>2026-04-19T07:19:57.279Z</time></trkpt><trkpt lat="43.6224072" lon="13.2432088"><ele>100.0</ele><time>2026-04-19T07:19:59.279Z</time></trkpt><trkpt lat="43.6223956" lon="13.2431153"><ele>100.0</ele><time>2026-04-19T07:20:00.279Z</time></trkpt><trkpt lat="43.6223836" lon="13.2430295"><ele>100.0</ele><time>2026-04-19T07:20:01.279Z</time></trkpt><trkpt lat="43.6223336" lon="13.2428776"><ele>100.0</ele><time>2026-04-19T07:20:03.278Z</time></trkpt><trkpt lat="43.622291" lon="13.2428078"><ele>98.85714285714286</ele><time>2026-04-19T07:20:04.278Z</time></trkpt><trkpt lat="43.6222388" lon="13.2427479"><ele>97.71428571428572</ele><time>2026-04-19T07:20:05.279Z</time></trkpt><trkpt lat="43.6221761" lon="13.2426983"><ele>96.57142857142858</ele><time>2026-04-19T07:20:06.279Z</time></trkpt><trkpt lat="43.6221129" lon="13.2426534"><ele>95.42857142857143</ele><time>2026-04-19T07:20:07.279Z</time></trkpt><trkpt lat="43.6220475" lon="13.2426094"><ele>94.28571428571428</ele><time>2026-04-19T07:20:08.278Z</time></trkpt><trkpt lat="43.6219822" lon="13.2425625"><ele>93.14285714285715</ele><time>2026-04-19T07:20:09.279Z</time></trkpt><trkpt lat="43.6219149" lon="13.2425165"><ele>92.0</ele><time>2026-04-19T07:20:10.279Z</time></trkpt><trkpt lat="43.6218471" lon="13.24247"><ele>90.83333333333334</ele><time>2026-04-19T07:20:11.279Z</time></trkpt><trkpt lat="43.6217855" lon="13.2424264"><ele>89.66666666666667</ele><time>2026-04-19T07:20:12.279Z</time></trkpt><trkpt lat="43.6216905" lon="13.2423635"><ele>88.5</ele><time>2026-04-19T07:20:14.279Z</time></trkpt><trkpt lat="43.6216169" lon="13.2423118"><ele>87.33333333333333</ele><time>2026-04-19T07:20:16.277Z</time></trkpt><trkpt lat="43.6215421" lon="13.2422649"><ele>86.16666666666666</ele><time>2026-04-19T07:20:18.279Z</time></trkpt><trkpt lat="43.6214738" lon="13.2422223"><ele>85.0</ele><time>2026-04-19T07:20:21.279Z</time></trkpt><trkpt lat="43.6214132" lon="13.2421785"><ele>83.85714285714286</ele><time>2026-04-19T07:20:24.279Z</time></trkpt><trkpt lat="43.6213578" lon="13.2421293"><ele>82.71428571428571</ele><time>2026-04-19T07:21:25.279Z</time></trkpt><trkpt lat="43.6212889" lon="13.2420874"><ele>81.57142857142857</ele><time>2026-04-19T07:24:55.278Z</time></trkpt><trkpt lat="43.6212242" lon="13.2420488"><ele>80.42857142857143</ele><time>2026-04-19T07:24:59.278Z</time></trkpt><trkpt lat="43.6211672" lon="13.2419657"><ele>79.28571428571428</ele><time>2026-04-19T07:25:03.278Z</time></trkpt><trkpt lat="43.6211831" lon="13.2418705"><ele>78.14285714285714</ele><time>2026-04-19T07:25:07.278Z</time></trkpt><trkpt lat="43.6212207" lon="13.241789"><ele>77.0</ele><time>2026-04-19T07:25:09.277Z</time></trkpt><trkpt lat="43.6212543" lon="13.2417047"><ele>77.0</ele><time>2026-04-19T07:25:13.278Z</time></trkpt><trkpt lat="43.6212471" lon="13.2416066"><ele>77.0</ele><time>2026-04-19T07:25:45.278Z</time></trkpt><trkpt lat="43.6212101" lon="13.2415165"><ele>77.0</ele><time>2026-04-19T07:25:50.278Z</time></trkpt><trkpt lat="43.6211443" lon="13.2414375"><ele>77.0</ele><time>2026-04-19T07:25:54.278Z</time></trkpt><trkpt lat="43.621089" lon="13.2413493"><ele>77.0</ele><time>2026-04-19T07:25:57.277Z</time></trkpt><trkpt lat="43.6210471" lon="13.2412699"><ele>77.0</ele><time>2026-04-19T07:25:59.277Z</time></trkpt><trkpt lat="43.6210082" lon="13.2411744"><ele>75.5</ele><time>2026-04-19T07:26:01.278Z</time></trkpt><trkpt lat="43.620962" lon="13.2410964"><ele>74.0</ele><time>2026-04-19T07:26:04.277Z</time></trkpt><trkpt lat="43.6209066" lon="13.2410154"><ele>72.5</ele><time>2026-04-19T07:26:18.278Z</time></trkpt><trkpt lat="43.6208293" lon="13.2409901"><ele>71.0</ele><time>2026-04-19T07:26:21.277Z</time></trkpt><trkpt lat="43.6207396" lon="13.2409903"><ele>69.5</ele><time>2026-04-19T07:26:24.278Z</time></trkpt><trkpt lat="43.6206656" lon="13.2409747"><ele>68.0</ele><time>2026-04-19T07:26:26.277Z</time></trkpt><trkpt lat="43.6205818" lon="13.2409336"><ele>68.0</ele><time>2026-04-19T07:26:28.278Z</time></trkpt><trkpt lat="43.6204937" lon="13.2408711"><ele>68.0</ele><time>2026-04-19T07:26:30.278Z</time></trkpt><trkpt lat="43.6204051" lon="13.2407947"><ele>68.0</ele><time>2026-04-19T07:26:32.278Z</time></trkpt><trkpt lat="43.6203166" lon="13.2407108"><ele>68.0</ele><time>2026-04-19T07:26:34.278Z</time></trkpt><trkpt lat="43.6202399" lon="13.2406305"><ele>68.0</ele><time>2026-04-19T07:26:36.277Z</time></trkpt><trkpt lat="43.6201616" lon="13.2405573"><ele>70.0</ele><time>2026-04-19T07:26:38.278Z</time></trkpt><trkpt lat="43.6200824" lon="13.2404894"><ele>72.0</ele><time>2026-04-19T07:26:40.277Z</time></trkpt><trkpt lat="43.6200022" lon="13.2404181"><ele>74.0</ele><time>2026-04-19T07:26:42.278Z</time></trkpt><trkpt lat="43.6199227" lon="13.2403507"><ele>76.0</ele><time>2026-04-19T07:26:44.277Z</time></trkpt><trkpt lat="43.6198424" lon="13.2402805"><ele>78.0</ele><time>2026-04-19T07:26:46.278Z</time></trkpt><trkpt lat="43.6197631" lon="13.2402132"><ele>78.0</ele><time>2026-04-19T07:26:48.278Z</time></trkpt><trkpt lat="43.6196848" lon="13.2401496"><ele>78.0</ele><time>2026-04-19T07:26:50.278Z</time></trkpt><trkpt lat="43.6196117" lon="13.2400882"><ele>78.0</ele><time>2026-04-19T07:26:52.278Z</time></trkpt><trkpt lat="43.6195331" lon="13.2400224"><ele>78.0</ele><time>2026-04-19T07:26:54.278Z</time></trkpt><trkpt lat="43.6194551" lon="13.2399581"><ele>78.0</ele><time>2026-04-19T07:26:56.278Z</time></trkpt><trkpt lat="43.6193722" lon="13.2398912"><ele>80.0</ele><time>2026-04-19T07:26:58.277Z</time></trkpt><trkpt lat="43.6192863" lon="13.2398151"><ele>82.0</ele><time>2026-04-19T07:27:00.278Z</time></trkpt><trkpt lat="43.6191976" lon="13.2397364"><ele>84.0</ele><time>2026-04-19T07:27:02.277Z</time></trkpt><trkpt lat="43.6191012" lon="13.2396573"><ele>86.0</ele><time>2026-04-19T07:27:04.278Z</time></trkpt><trkpt lat="43.6190023" lon="13.2395703"><ele>88.0</ele><time>2026-04-19T07:27:06.277Z</time></trkpt><trkpt lat="43.6189342" lon="13.2394762"><ele>89.60000000000001</ele><time>2026-04-19T07:27:08.278Z</time></trkpt><trkpt lat="43.6188708" lon="13.2393739"><ele>91.2</ele><time>2026-04-19T07:27:10.277Z</time></trkpt><trkpt lat="43.6187999" lon="13.2392971"><ele>92.8</ele><time>2026-04-19T07:27:12.278Z</time></trkpt><trkpt lat="43.6187458" lon="13.2392453"><ele>94.4</ele><time>2026-04-19T07:27:13.277Z</time></trkpt><trkpt lat="43.6186455" lon="13.2391369"><ele>96.0</ele><time>2026-04-19T07:27:15.278Z</time></trkpt><trkpt lat="43.6185571" lon="13.2390144"><ele>97.99999999999999</ele><time>2026-04-19T07:27:17.278Z</time></trkpt><trkpt lat="43.618521" lon="13.2389363"><ele>100.0</ele><time>2026-04-19T07:27:18.278Z</time></trkpt><trkpt lat="43.6184935" lon="13.238853"><ele>102.0</ele><time>2026-04-19T07:27:19.278Z</time></trkpt><trkpt lat="43.61847" lon="13.2387654"><ele>104.0</ele><time>2026-04-19T07:27:20.277Z</time></trkpt><trkpt lat="43.618455" lon="13.2386754"><ele>106.0</ele><time>2026-04-19T07:27:21.277Z</time></trkpt><trkpt lat="43.6184421" lon="13.2385827"><ele>107.99999999999999</ele><time>2026-04-19T07:27:22.278Z</time></trkpt><trkpt lat="43.6184295" lon="13.2384832"><ele>110.0</ele><time>2026-04-19T07:27:23.278Z</time></trkpt><trkpt lat="43.6184163" lon="13.2383821"><ele>109.99999999999999</ele><time>2026-04-19T07:27:24.278Z</time></trkpt><trkpt lat="43.6184054" lon="13.238281"><ele>110.0</ele><time>2026-04-19T07:27:25.277Z</time></trkpt><trkpt lat="43.6183945" lon="13.2381748"><ele>110.0</ele><time>2026-04-19T07:27:26.278Z</time></trkpt><trkpt lat="43.6183848" lon="13.2380665"><ele>110.0</ele><time>2026-04-19T07:27:27.277Z</time></trkpt><trkpt lat="43.6183753" lon="13.2379565"><ele>109.99999999999999</ele><time>2026-04-19T07:27:28.276Z</time></trkpt><trkpt lat="43.6183673" lon="13.2378439"><ele>110.0</ele><time>2026-04-19T07:27:29.278Z</time></trkpt><trkpt lat="43.6183551" lon="13.2377291"><ele>110.33333333333333</ele><time>2026-04-19T07:27:30.278Z</time></trkpt><trkpt lat="43.6183405" lon="13.2376098"><ele>110.66666666666666</ele><time>2026-04-19T07:27:31.277Z</time></trkpt><trkpt lat="43.6183198" lon="13.2374996"><ele>111.0</ele><time>2026-04-19T07:27:32.277Z</time></trkpt><trkpt lat="43.6182911" lon="13.2373856"><ele>111.33333333333334</ele><time>2026-04-19T07:27:33.278Z</time></trkpt><trkpt lat="43.6182572" lon="13.2372724"><ele>111.66666666666667</ele><time>2026-04-19T07:27:34.278Z</time></trkpt><trkpt lat="43.618223" lon="13.2371621"><ele>112.0</ele><time>2026-04-19T07:27:35.278Z</time></trkpt><trkpt lat="43.6181892" lon="13.2370559"><ele>112.00000000000001</ele><time>2026-04-19T07:27:36.277Z</time></trkpt><trkpt lat="43.618157" lon="13.2369559"><ele>112.0</ele><time>2026-04-19T07:27:37.278Z</time></trkpt><trkpt lat="43.6181291" lon="13.2368473"><ele>112.0</ele><time>2026-04-19T07:27:38.278Z</time></trkpt><trkpt lat="43.6181038" lon="13.2367316"><ele>112.0</ele><time>2026-04-19T07:27:39.278Z</time></trkpt><trkpt lat="43.6180791" lon="13.2366157"><ele>112.00000000000001</ele><time>2026-04-19T07:27:40.277Z</time></trkpt><trkpt lat="43.6180548" lon="13.2365013"><ele>112.0</ele><time>2026-04-19T07:27:41.277Z</time></trkpt><trkpt lat="43.6180307" lon="13.236403"><ele>112.50000000000001</ele><time>2026-04-19T07:27:42.278Z</time></trkpt><trkpt lat="43.6180046" lon="13.2363091"><ele>113.0</ele><time>2026-04-19T07:27:43.278Z</time></trkpt><trkpt lat="43.6179772" lon="13.2361987"><ele>113.5</ele><time>2026-04-19T07:27:44.278Z</time></trkpt><trkpt lat="43.6179422" lon="13.2360734"><ele>114.0</ele><time>2026-04-19T07:27:45.278Z</time></trkpt><trkpt lat="43.6179054" lon="13.2359602"><ele>114.50000000000001</ele><time>2026-04-19T07:27:46.278Z</time></trkpt><trkpt lat="43.6178607" lon="13.2358468"><ele>115.0</ele><time>2026-04-19T07:27:47.278Z</time></trkpt><trkpt lat="43.6178069" lon="13.2357269"><ele>118.2</ele><time>2026-04-19T07:27:48.278Z</time></trkpt><trkpt lat="43.6177415" lon="13.2355969"><ele>121.4</ele><time>2026-04-19T07:27:49.278Z</time></trkpt><trkpt lat="43.6176772" lon="13.235464"><ele>124.6</ele><time>2026-04-19T07:27:50.277Z</time></trkpt><trkpt lat="43.61762" lon="13.2353333"><ele>127.8</ele><time>2026-04-19T07:27:51.277Z</time></trkpt><trkpt lat="43.6175689" lon="13.2352122"><ele>131.0</ele><time>2026-04-19T07:27:52.278Z</time></trkpt><trkpt lat="43.6175264" lon="13.2351026"><ele>131.0</ele><time>2026-04-19T07:27:53.278Z</time></trkpt><trkpt lat="43.6174861" lon="13.2350013"><ele>131.0</ele><time>2026-04-19T07:27:54.277Z</time></trkpt><trkpt lat="43.6174548" lon="13.2349256"><ele>131.0</ele><time>2026-04-19T07:27:55.278Z</time></trkpt><trkpt lat="43.61738" lon="13.2347845"><ele>131.0</ele><time>2026-04-19T07:27:57.277Z</time></trkpt><trkpt lat="43.6172804" lon="13.2346743"><ele>131.0</ele><time>2026-04-19T07:27:59.277Z</time></trkpt><trkpt lat="43.6172121" lon="13.2346165"><ele>131.16666666666666</ele><time>2026-04-19T07:28:00.278Z</time></trkpt><trkpt lat="43.6171419" lon="13.2345628"><ele>131.33333333333331</ele><time>2026-04-19T07:28:01.277Z</time></trkpt><trkpt lat="43.6170745" lon="13.2345109"><ele>131.5</ele><time>2026-04-19T07:28:02.278Z</time></trkpt><trkpt lat="43.6170027" lon="13.2344572"><ele>131.66666666666666</ele><time>2026-04-19T07:28:03.278Z</time></trkpt><trkpt lat="43.6169248" lon="13.2343995"><ele>131.83333333333334</ele><time>2026-04-19T07:28:04.278Z</time></trkpt><trkpt lat="43.6168421" lon="13.2343398"><ele>132.0</ele><time>2026-04-19T07:28:05.278Z</time></trkpt><trkpt lat="43.6167608" lon="13.2342774"><ele>134.66666666666666</ele><time>2026-04-19T07:28:06.278Z</time></trkpt><trkpt lat="43.6166858" lon="13.2342227"><ele>137.33333333333334</ele><time>2026-04-19T07:28:07.278Z</time></trkpt><trkpt lat="43.6166111" lon="13.2341702"><ele>140.0</ele><time>2026-04-19T07:28:08.277Z</time></trkpt><trkpt lat="43.6165331" lon="13.2341143"><ele>142.66666666666669</ele><time>2026-04-19T07:28:09.278Z</time></trkpt><trkpt lat="43.6164713" lon="13.2340695"><ele>145.33333333333334</ele><time>2026-04-19T07:28:10.277Z</time></trkpt><trkpt lat="43.616399" lon="13.2339994"><ele>148.0</ele><time>2026-04-19T07:28:12.277Z</time></trkpt><trkpt lat="43.6163701" lon="13.2339025"><ele>148.0</ele><time>2026-04-19T07:28:15.278Z</time></trkpt><trkpt lat="43.616389" lon="13.2338057"><ele>148.0</ele><time>2026-04-19T07:28:21.278Z</time></trkpt><trkpt lat="43.6164129" lon="13.2337091"><ele>148.0</ele><time>2026-04-19T07:28:26.278Z</time></trkpt><trkpt lat="43.6163401" lon="13.2337539"><ele>148.0</ele><time>2026-04-19T07:28:35.278Z</time></trkpt><trkpt lat="43.6163069" lon="13.2338687"><ele>148.0</ele><time>2026-04-19T07:28:37.278Z</time></trkpt><trkpt lat="43.6162604" lon="13.2339394"><ele>148.0</ele><time>2026-04-19T07:32:23.276Z</time></trkpt><trkpt lat="43.6161893" lon="13.2340411"><ele>150.0</ele><time>2026-04-19T07:32:26.277Z</time></trkpt><trkpt lat="43.6161384" lon="13.2341421"><ele>152.0</ele><time>2026-04-19T07:32:28.277Z</time></trkpt><trkpt lat="43.6160817" lon="13.2342384"><ele>154.0</ele><time>2026-04-19T07:32:30.277Z</time></trkpt><trkpt lat="43.6160232" lon="13.2343096"><ele>156.0</ele><time>2026-04-19T07:32:32.276Z</time></trkpt><trkpt lat="43.6159599" lon="13.2343597"><ele>158.0</ele><time>2026-04-19T07:32:35.277Z</time></trkpt><trkpt lat="43.616027" lon="13.2343275"><ele>160.0</ele><time>2026-04-19T07:32:49.276Z</time></trkpt><trkpt lat="43.6160792" lon="13.2342064"><ele>160.0</ele><time>2026-04-19T07:32:51.277Z</time></trkpt><trkpt lat="43.6161296" lon="13.2341111"><ele>160.0</ele><time>2026-04-19T07:32:53.277Z</time></trkpt><trkpt lat="43.6161777" lon="13.2340274"><ele>160.0</ele><time>2026-04-19T07:32:55.276Z</time></trkpt><trkpt lat="43.6162341" lon="13.2339505"><ele>160.0</ele><time>2026-04-19T07:32:58.277Z</time></trkpt><trkpt lat="43.6162795" lon="13.2338631"><ele>160.0</ele><time>2026-04-19T07:33:01.276Z</time></trkpt><trkpt lat="43.6163489" lon="13.2337464"><ele>160.0</ele><time>2026-04-19T07:33:03.277Z</time></trkpt><trkpt lat="43.6163916" lon="13.2336707"><ele>159.16666666666669</ele><time>2026-04-19T07:33:04.277Z</time></trkpt><trkpt lat="43.6164306" lon="13.2336002"><ele>158.33333333333334</ele><time>2026-04-19T07:33:05.275Z</time></trkpt><trkpt lat="43.616477" lon="13.2335183"><ele>157.5</ele><time>2026-04-19T07:33:06.277Z</time></trkpt><trkpt lat="43.6165273" lon="13.2334351"><ele>156.66666666666666</ele><time>2026-04-19T07:33:07.277Z</time></trkpt><trkpt lat="43.6165792" lon="13.23335"><ele>155.83333333333331</ele><time>2026-04-19T07:33:08.277Z</time></trkpt><trkpt lat="43.616631" lon="13.2332576"><ele>155.0</ele><time>2026-04-19T07:33:09.277Z</time></trkpt><trkpt lat="43.616691" lon="13.233164"><ele>154.4</ele><time>2026-04-19T07:33:10.277Z</time></trkpt><trkpt lat="43.6167497" lon="13.2330678"><ele>153.8</ele><time>2026-04-19T07:33:11.276Z</time></trkpt><trkpt lat="43.6168227" lon="13.2329833"><ele>153.2</ele><time>2026-04-19T07:33:12.277Z</time></trkpt><trkpt lat="43.616897" lon="13.2329029"><ele>152.6</ele><time>2026-04-19T07:33:13.277Z</time></trkpt><trkpt lat="43.6169793" lon="13.2328257"><ele>152.0</ele><time>2026-04-19T07:33:14.276Z</time></trkpt><trkpt lat="43.6170624" lon="13.2327503"><ele>152.0</ele><time>2026-04-19T07:33:15.277Z</time></trkpt><trkpt lat="43.6171423" lon="13.2326714"><ele>152.0</ele><time>2026-04-19T07:33:16.277Z</time></trkpt><trkpt lat="43.6172275" lon="13.2325797"><ele>152.0</ele><time>2026-04-19T07:33:17.277Z</time></trkpt><trkpt lat="43.6173093" lon="13.2324825"><ele>152.0</ele><time>2026-04-19T07:33:18.275Z</time></trkpt><trkpt lat="43.6173905" lon="13.2323851"><ele>152.0</ele><time>2026-04-19T07:33:19.277Z</time></trkpt><trkpt lat="43.6174672" lon="13.2322851"><ele>151.6</ele><time>2026-04-19T07:33:20.276Z</time></trkpt><trkpt lat="43.6175385" lon="13.2321755"><ele>151.2</ele><time>2026-04-19T07:33:21.276Z</time></trkpt><trkpt lat="43.6176045" lon="13.2320604"><ele>150.8</ele><time>2026-04-19T07:33:22.277Z</time></trkpt><trkpt lat="43.6176806" lon="13.2319525"><ele>150.4</ele><time>2026-04-19T07:33:23.276Z</time></trkpt><trkpt lat="43.6177567" lon="13.2318431"><ele>150.0</ele><time>2026-04-19T07:33:24.277Z</time></trkpt><trkpt lat="43.6178316" lon="13.2317487"><ele>150.0</ele><time>2026-04-19T07:33:25.276Z</time></trkpt><trkpt lat="43.6179003" lon="13.2316744"><ele>150.0</ele><time>2026-04-19T07:33:26.277Z</time></trkpt><trkpt lat="43.6179631" lon="13.2316024"><ele>150.0</ele><time>2026-04-19T07:33:27.277Z</time></trkpt><trkpt lat="43.6180352" lon="13.2315443"><ele>150.0</ele><time>2026-04-19T07:33:28.276Z</time></trkpt><trkpt lat="43.6181227" lon="13.2315005"><ele>150.0</ele><time>2026-04-19T07:33:29.276Z</time></trkpt><trkpt lat="43.6182168" lon="13.2314699"><ele>150.0</ele><time>2026-04-19T07:33:30.277Z</time></trkpt><trkpt lat="43.618323" lon="13.231446"><ele>151.2</ele><time>2026-04-19T07:33:31.276Z</time></trkpt><trkpt lat="43.618418" lon="13.2314238"><ele>152.4</ele><time>2026-04-19T07:33:32.277Z</time></trkpt><trkpt lat="43.6185239" lon="13.2314139"><ele>153.6</ele><time>2026-04-19T07:33:33.276Z</time></trkpt><trkpt lat="43.6186275" lon="13.2314163"><ele>154.8</ele><time>2026-04-19T07:33:34.276Z</time></trkpt><trkpt lat="43.6187331" lon="13.2314215"><ele>156.0</ele><time>2026-04-19T07:33:35.276Z</time></trkpt><trkpt lat="43.6188435" lon="13.2314347"><ele>156.0</ele><time>2026-04-19T07:33:36.277Z</time></trkpt><trkpt lat="43.6189462" lon="13.2314625"><ele>156.0</ele><time>2026-04-19T07:33:37.277Z</time></trkpt><trkpt lat="43.6190379" lon="13.2314991"><ele>156.0</ele><time>2026-04-19T07:33:38.277Z</time></trkpt><trkpt lat="43.6191235" lon="13.231538"><ele>156.0</ele><time>2026-04-19T07:33:39.277Z</time></trkpt><trkpt lat="43.6192055" lon="13.2315751"><ele>156.0</ele><time>2026-04-19T07:33:40.277Z</time></trkpt><trkpt lat="43.6192933" lon="13.231609"><ele>154.5</ele><time>2026-04-19T07:33:41.277Z</time></trkpt><trkpt lat="43.6193777" lon="13.2316408"><ele>153.0</ele><time>2026-04-19T07:33:42.276Z</time></trkpt><trkpt lat="43.6194614" lon="13.2316648"><ele>151.5</ele><time>2026-04-19T07:33:43.276Z</time></trkpt><trkpt lat="43.6195453" lon="13.2316855"><ele>150.0</ele><time>2026-04-19T07:33:44.276Z</time></trkpt><trkpt lat="43.619619" lon="13.2317004"><ele>148.5</ele><time>2026-04-19T07:33:45.277Z</time></trkpt><trkpt lat="43.6196918" lon="13.2317148"><ele>147.0</ele><time>2026-04-19T07:33:46.277Z</time></trkpt><trkpt lat="43.6197667" lon="13.2317234"><ele>146.83333333333334</ele><time>2026-04-19T07:33:47.276Z</time></trkpt><trkpt lat="43.6198502" lon="13.23173"><ele>146.66666666666666</ele><time>2026-04-19T07:33:48.277Z</time></trkpt><trkpt lat="43.6199357" lon="13.2317244"><ele>146.5</ele><time>2026-04-19T07:33:49.277Z</time></trkpt><trkpt lat="43.6200229" lon="13.2317186"><ele>146.33333333333331</ele><time>2026-04-19T07:33:50.277Z</time></trkpt><trkpt lat="43.6201078" lon="13.2317065"><ele>146.16666666666666</ele><time>2026-04-19T07:33:51.277Z</time></trkpt><trkpt lat="43.6201955" lon="13.2316851"><ele>146.0</ele><time>2026-04-19T07:33:52.277Z</time></trkpt><trkpt lat="43.6202835" lon="13.2316537"><ele>146.2</ele><time>2026-04-19T07:33:53.277Z</time></trkpt><trkpt lat="43.6203715" lon="13.2316192"><ele>146.39999999999998</ele><time>2026-04-19T07:33:54.276Z</time></trkpt><trkpt lat="43.6204599" lon="13.2315849"><ele>146.6</ele><time>2026-04-19T07:33:55.277Z</time></trkpt><trkpt lat="43.6205551" lon="13.2315625"><ele>146.79999999999998</ele><time>2026-04-19T07:33:56.277Z</time></trkpt><trkpt lat="43.6206522" lon="13.231552"><ele>147.0</ele><time>2026-04-19T07:33:57.277Z</time></trkpt><trkpt lat="43.6207425" lon="13.2315407"><ele>147.0</ele><time>2026-04-19T07:33:58.276Z</time></trkpt><trkpt lat="43.6208299" lon="13.2315415"><ele>147.0</ele><time>2026-04-19T07:33:59.276Z</time></trkpt><trkpt lat="43.6209202" lon="13.2315361"><ele>147.0</ele><time>2026-04-19T07:34:00.277Z</time></trkpt><trkpt lat="43.6210055" lon="13.2315245"><ele>147.0</ele><time>2026-04-19T07:34:01.277Z</time></trkpt><trkpt lat="43.621094" lon="13.2315122"><ele>147.0</ele><time>2026-04-19T07:34:02.277Z</time></trkpt><trkpt lat="43.6211811" lon="13.2314961"><ele>147.0</ele><time>2026-04-19T07:34:03.277Z</time></trkpt><trkpt lat="43.6212701" lon="13.2314842"><ele>148.4</ele><time>2026-04-19T07:34:04.276Z</time></trkpt><trkpt lat="43.621362" lon="13.2314633"><ele>149.79999999999998</ele><time>2026-04-19T07:34:05.277Z</time></trkpt><trkpt lat="43.6214526" lon="13.2314434"><ele>151.2</ele><time>2026-04-19T07:34:06.277Z</time></trkpt><trkpt lat="43.621546" lon="13.2314178"><ele>152.6</ele><time>2026-04-19T07:34:07.276Z</time></trkpt><trkpt lat="43.6216365" lon="13.2313899"><ele>154.0</ele><time>2026-04-19T07:34:08.276Z</time></trkpt><trkpt lat="43.6217264" lon="13.231359"><ele>154.0</ele><time>2026-04-19T07:34:09.276Z</time></trkpt><trkpt lat="43.6218033" lon="13.2313311"><ele>154.0</ele><time>2026-04-19T07:34:10.276Z</time></trkpt><trkpt lat="43.6218825" lon="13.2313072"><ele>154.0</ele><time>2026-04-19T07:34:11.277Z</time></trkpt><trkpt lat="43.6219578" lon="13.231278"><ele>154.0</ele><time>2026-04-19T07:34:12.277Z</time></trkpt><trkpt lat="43.6220324" lon="13.2312553"><ele>154.0</ele><time>2026-04-19T07:34:13.277Z</time></trkpt><trkpt lat="43.6221042" lon="13.2312339"><ele>154.0</ele><time>2026-04-19T07:34:14.277Z</time></trkpt><trkpt lat="43.6221745" lon="13.2312167"><ele>152.66666666666669</ele><time>2026-04-19T07:34:15.277Z</time></trkpt><trkpt lat="43.6222833" lon="13.2311955"><ele>151.33333333333334</ele><time>2026-04-19T07:34:17.276Z</time></trkpt><trkpt lat="43.6223654" lon="13.2311768"><ele>150.0</ele><time>2026-04-19T07:34:19.276Z</time></trkpt><trkpt lat="43.6224195" lon="13.2311196"><ele>148.66666666666666</ele><time>2026-04-19T07:34:21.277Z</time></trkpt><trkpt lat="43.6224407" lon="13.2310249"><ele>147.33333333333331</ele><time>2026-04-19T07:34:23.277Z</time></trkpt><trkpt lat="43.6224398" lon="13.2308643"><ele>146.0</ele><time>2026-04-19T07:34:25.276Z</time></trkpt><trkpt lat="43.6224501" lon="13.2306953"><ele>145.0</ele><time>2026-04-19T07:34:27.277Z</time></trkpt><trkpt lat="43.6224557" lon="13.2305989"><ele>144.0</ele><time>2026-04-19T07:34:28.277Z</time></trkpt><trkpt lat="43.6224607" lon="13.2304945"><ele>143.0</ele><time>2026-04-19T07:34:29.277Z</time></trkpt><trkpt lat="43.6224668" lon="13.2303869"><ele>142.0</ele><time>2026-04-19T07:34:30.277Z</time></trkpt><trkpt lat="43.6224732" lon="13.2302743"><ele>141.0</ele><time>2026-04-19T07:34:31.277Z</time></trkpt><trkpt lat="43.6224785" lon="13.2301551"><ele>140.0</ele><time>2026-04-19T07:34:32.277Z</time></trkpt><trkpt lat="43.6224875" lon="13.2300275"><ele>140.0</ele><time>2026-04-19T07:34:33.276Z</time></trkpt><trkpt lat="43.6224934" lon="13.229891"><ele>140.0</ele><time>2026-04-19T07:34:34.276Z</time></trkpt><trkpt lat="43.6224969" lon="13.22975"><ele>140.0</ele><time>2026-04-19T07:34:35.277Z</time></trkpt><trkpt lat="43.6225031" lon="13.2296101"><ele>140.0</ele><time>2026-04-19T07:34:36.277Z</time></trkpt><trkpt lat="43.6225124" lon="13.2294716"><ele>140.0</ele><time>2026-04-19T07:34:37.277Z</time></trkpt><trkpt lat="43.6225227" lon="13.2293339"><ele>138.4</ele><time>2026-04-19T07:34:38.277Z</time></trkpt><trkpt lat="43.6225412" lon="13.2291952"><ele>136.8</ele><time>2026-04-19T07:34:39.276Z</time></trkpt><trkpt lat="43.622567" lon="13.2290497"><ele>135.2</ele><time>2026-04-19T07:34:40.277Z</time></trkpt><trkpt lat="43.6225984" lon="13.2289036"><ele>133.6</ele><time>2026-04-19T07:34:41.277Z</time></trkpt><trkpt lat="43.6226336" lon="13.228753"><ele>132.0</ele><time>2026-04-19T07:34:42.277Z</time></trkpt><trkpt lat="43.6226721" lon="13.2286042"><ele>131.4</ele><time>2026-04-19T07:34:43.276Z</time></trkpt><trkpt lat="43.6227152" lon="13.2284596"><ele>130.79999999999998</ele><time>2026-04-19T07:34:44.277Z</time></trkpt><trkpt lat="43.6227627" lon="13.2283232"><ele>130.2</ele><time>2026-04-19T07:34:45.277Z</time></trkpt><trkpt lat="43.6228157" lon="13.2281954"><ele>129.6</ele><time>2026-04-19T07:34:46.276Z</time></trkpt><trkpt lat="43.6228684" lon="13.228076"><ele>129.0</ele><time>2026-04-19T07:34:47.277Z</time></trkpt><trkpt lat="43.6229082" lon="13.2279553"><ele>129.0</ele><time>2026-04-19T07:34:48.276Z</time></trkpt><trkpt lat="43.6229289" lon="13.2278312"><ele>129.0</ele><time>2026-04-19T07:34:49.277Z</time></trkpt><trkpt lat="43.6229324" lon="13.2277077"><ele>129.0</ele><time>2026-04-19T07:34:50.277Z</time></trkpt><trkpt lat="43.6229169" lon="13.2275881"><ele>129.0</ele><time>2026-04-19T07:34:51.276Z</time></trkpt><trkpt lat="43.6228859" lon="13.2274662"><ele>129.0</ele><time>2026-04-19T07:34:52.277Z</time></trkpt><trkpt lat="43.6228474" lon="13.2273336"><ele>126.6</ele><time>2026-04-19T07:34:53.277Z</time></trkpt><trkpt lat="43.6228121" lon="13.2272014"><ele>124.2</ele><time>2026-04-19T07:34:54.276Z</time></trkpt><trkpt lat="43.622783" lon="13.2270698"><ele>121.79999999999998</ele><time>2026-04-19T07:34:55.277Z</time></trkpt><trkpt lat="43.6227595" lon="13.2269343"><ele>119.39999999999999</ele><time>2026-04-19T07:34:56.277Z</time></trkpt><trkpt lat="43.6227445" lon="13.2267914"><ele>117.0</ele><time>2026-04-19T07:34:57.276Z</time></trkpt><trkpt lat="43.6227412" lon="13.226639"><ele>117.75</ele><time>2026-04-19T07:34:58.276Z</time></trkpt><trkpt lat="43.622745" lon="13.2264668"><ele>118.5</ele><time>2026-04-19T07:34:59.277Z</time></trkpt><trkpt lat="43.6227467" lon="13.2263013"><ele>119.25</ele><time>2026-04-19T07:35:00.277Z</time></trkpt><trkpt lat="43.6227427" lon="13.2261396"><ele>120.0</ele><time>2026-04-19T07:35:01.276Z</time></trkpt><trkpt lat="43.6227355" lon="13.2259765"><ele>120.0</ele><time>2026-04-19T07:35:02.277Z</time></trkpt><trkpt lat="43.6227312" lon="13.2258166"><ele>120.0</ele><time>2026-04-19T07:35:03.277Z</time></trkpt><trkpt lat="43.6227277" lon="13.2256578"><ele>120.0</ele><time>2026-04-19T07:35:04.277Z</time></trkpt><trkpt lat="43.6227264" lon="13.2254962"><ele>120.0</ele><time>2026-04-19T07:35:05.277Z</time></trkpt><trkpt lat="43.6227288" lon="13.2253308"><ele>120.4</ele><time>2026-04-19T07:35:06.276Z</time></trkpt><trkpt lat="43.622737" lon="13.2251721"><ele>120.8</ele><time>2026-04-19T07:35:07.276Z</time></trkpt><trkpt lat="43.6227517" lon="13.225033"><ele>121.19999999999999</ele><time>2026-04-19T07:35:08.276Z</time></trkpt><trkpt lat="43.6227688" lon="13.2249353"><ele>121.6</ele><time>2026-04-19T07:35:09.276Z</time></trkpt><trkpt lat="43.6227888" lon="13.2248011"><ele>122.0</ele><time>2026-04-19T07:35:11.276Z</time></trkpt><trkpt lat="43.6227914" lon="13.2246944"><ele>121.99999999999999</ele><time>2026-04-19T07:35:13.277Z</time></trkpt><trkpt lat="43.6228118" lon="13.2245795"><ele>122.0</ele><time>2026-04-19T07:35:15.277Z</time></trkpt><trkpt lat="43.6228404" lon="13.2244981"><ele>122.0</ele><time>2026-04-19T07:35:17.276Z</time></trkpt><trkpt lat="43.6228867" lon="13.2243712"><ele>122.0</ele><time>2026-04-19T07:35:19.277Z</time></trkpt><trkpt lat="43.6229316" lon="13.2242147"><ele>121.99999999999999</ele><time>2026-04-19T07:35:21.277Z</time></trkpt><trkpt lat="43.6229538" lon="13.2241288"><ele>122.0</ele><time>2026-04-19T07:35:22.277Z</time></trkpt><trkpt lat="43.6229745" lon="13.2240458"><ele>124.0</ele><time>2026-04-19T07:35:23.277Z</time></trkpt><trkpt lat="43.6229993" lon="13.2238901"><ele>125.99999999999999</ele><time>2026-04-19T07:35:25.277Z</time></trkpt><trkpt lat="43.6229699" lon="13.2237449"><ele>127.99999999999999</ele><time>2026-04-19T07:35:27.277Z</time></trkpt><trkpt lat="43.6229056" lon="13.2236197"><ele>130.0</ele><time>2026-04-19T07:35:29.277Z</time></trkpt><trkpt lat="43.6228614" lon="13.2235456"><ele>132.0</ele><time>2026-04-19T07:35:30.277Z</time></trkpt><trkpt lat="43.6228228" lon="13.2234679"><ele>129.79999999999998</ele><time>2026-04-19T07:35:31.276Z</time></trkpt><trkpt lat="43.622784" lon="13.2233905"><ele>127.6</ele><time>2026-04-19T07:35:32.277Z</time></trkpt><trkpt lat="43.6227357" lon="13.2233187"><ele>125.39999999999999</ele><time>2026-04-19T07:35:33.277Z</time></trkpt><trkpt lat="43.6226406" lon="13.2232107"><ele>123.19999999999999</ele><time>2026-04-19T07:35:35.277Z</time></trkpt><trkpt lat="43.6225275" lon="13.2231303"><ele>121.0</ele><time>2026-04-19T07:35:37.276Z</time></trkpt><trkpt lat="43.6224649" lon="13.223081"><ele>121.00000000000001</ele><time>2026-04-19T07:35:38.277Z</time></trkpt><trkpt lat="43.6223916" lon="13.2230169"><ele>121.0</ele><time>2026-04-19T07:35:39.277Z</time></trkpt><trkpt lat="43.622346" lon="13.2229403"><ele>121.0</ele><time>2026-04-19T07:35:40.277Z</time></trkpt><trkpt lat="43.6222922" lon="13.2228441"><ele>121.0</ele><time>2026-04-19T07:35:41.276Z</time></trkpt><trkpt lat="43.622235" lon="13.2227496"><ele>121.00000000000001</ele><time>2026-04-19T07:35:42.277Z</time></trkpt><trkpt lat="43.6221875" lon="13.2226526"><ele>121.0</ele><time>2026-04-19T07:35:43.277Z</time></trkpt><trkpt lat="43.6221489" lon="13.222564"><ele>121.0</ele><time>2026-04-19T07:35:44.276Z</time></trkpt><trkpt lat="43.6221034" lon="13.2224666"><ele>121.0</ele><time>2026-04-19T07:35:45.277Z</time></trkpt><trkpt lat="43.6220551" lon="13.2223631"><ele>121.0</ele><time>2026-04-19T07:35:46.277Z</time></trkpt><trkpt lat="43.622005" lon="13.2222634"><ele>121.0</ele><time>2026-04-19T07:35:47.277Z</time></trkpt><trkpt lat="43.6219552" lon="13.2221588"><ele>121.0</ele><time>2026-04-19T07:35:48.276Z</time></trkpt><trkpt lat="43.6218989" lon="13.222048"><ele>119.8</ele><time>2026-04-19T07:35:49.277Z</time></trkpt><trkpt lat="43.6218418" lon="13.221933"><ele>118.6</ele><time>2026-04-19T07:35:50.276Z</time></trkpt><trkpt lat="43.6217858" lon="13.2218167"><ele>117.4</ele><time>2026-04-19T07:35:51.277Z</time></trkpt><trkpt lat="43.6217268" lon="13.2216933"><ele>116.2</ele><time>2026-04-19T07:35:52.276Z</time></trkpt><trkpt lat="43.6216747" lon="13.221566"><ele>115.0</ele><time>2026-04-19T07:35:53.277Z</time></trkpt><trkpt lat="43.6216186" lon="13.2214369"><ele>115.0</ele><time>2026-04-19T07:35:54.276Z</time></trkpt><trkpt lat="43.6215681" lon="13.221307"><ele>115.0</ele><time>2026-04-19T07:35:55.277Z</time></trkpt><trkpt lat="43.6215171" lon="13.2211803"><ele>115.0</ele><time>2026-04-19T07:35:56.276Z</time></trkpt><trkpt lat="43.6214741" lon="13.2210364"><ele>115.0</ele><time>2026-04-19T07:35:57.277Z</time></trkpt><trkpt lat="43.6214385" lon="13.2208952"><ele>115.0</ele><time>2026-04-19T07:35:58.277Z</time></trkpt><trkpt lat="43.6214066" lon="13.2207422"><ele>116.25</ele><time>2026-04-19T07:35:59.277Z</time></trkpt><trkpt lat="43.621377" lon="13.2205896"><ele>117.5</ele><time>2026-04-19T07:36:00.277Z</time></trkpt><trkpt lat="43.6213465" lon="13.2204313"><ele>118.75</ele><time>2026-04-19T07:36:01.277Z</time></trkpt><trkpt lat="43.6213107" lon="13.2202493"><ele>120.0</ele><time>2026-04-19T07:36:02.277Z</time></trkpt><trkpt lat="43.621281" lon="13.2200885"><ele>120.0</ele><time>2026-04-19T07:36:03.277Z</time></trkpt><trkpt lat="43.6212545" lon="13.21993"><ele>120.0</ele><time>2026-04-19T07:36:04.277Z</time></trkpt><trkpt lat="43.6212345" lon="13.2197712"><ele>120.0</ele><time>2026-04-19T07:36:05.277Z</time></trkpt><trkpt lat="43.6212164" lon="13.2196133"><ele>120.0</ele><time>2026-04-19T07:36:06.277Z</time></trkpt><trkpt lat="43.6211987" lon="13.2194702"><ele>120.8</ele><time>2026-04-19T07:36:07.277Z</time></trkpt><trkpt lat="43.6211825" lon="13.219341"><ele>121.6</ele><time>2026-04-19T07:36:08.277Z</time></trkpt><trkpt lat="43.6211669" lon="13.2192197"><ele>122.4</ele><time>2026-04-19T07:36:09.277Z</time></trkpt><trkpt lat="43.6211465" lon="13.2191084"><ele>123.2</ele><time>2026-04-19T07:36:10.277Z</time></trkpt><trkpt lat="43.6211213" lon="13.218986"><ele>124.0</ele><time>2026-04-19T07:36:11.275Z</time></trkpt><trkpt lat="43.6210882" lon="13.2188628"><ele>122.2</ele><time>2026-04-19T07:36:12.277Z</time></trkpt><trkpt lat="43.6210484" lon="13.2187415"><ele>120.4</ele><time>2026-04-19T07:36:13.277Z</time></trkpt><trkpt lat="43.6210008" lon="13.21862"><ele>118.6</ele><time>2026-04-19T07:36:14.276Z</time></trkpt><trkpt lat="43.6209527" lon="13.2184984"><ele>116.8</ele><time>2026-04-19T07:36:15.276Z</time></trkpt><trkpt lat="43.6209083" lon="13.2183765"><ele>115.0</ele><time>2026-04-19T07:36:16.277Z</time></trkpt><trkpt lat="43.6208681" lon="13.2182489"><ele>115.6</ele><time>2026-04-19T07:36:17.277Z</time></trkpt><trkpt lat="43.6208331" lon="13.2181231"><ele>116.2</ele><time>2026-04-19T07:36:18.276Z</time></trkpt><trkpt lat="43.6207976" lon="13.2179853"><ele>116.80000000000001</ele><time>2026-04-19T07:36:19.276Z</time></trkpt><trkpt lat="43.6207673" lon="13.2178432"><ele>117.4</ele><time>2026-04-19T07:36:20.277Z</time></trkpt><trkpt lat="43.6207343" lon="13.2176959"><ele>118.0</ele><time>2026-04-19T07:36:21.277Z</time></trkpt><trkpt lat="43.6207049" lon="13.2175468"><ele>118.0</ele><time>2026-04-19T07:36:22.277Z</time></trkpt><trkpt lat="43.6206783" lon="13.2173969"><ele>118.00000000000001</ele><time>2026-04-19T07:36:23.276Z</time></trkpt><trkpt lat="43.6206534" lon="13.2172541"><ele>118.00000000000001</ele><time>2026-04-19T07:36:24.276Z</time></trkpt><trkpt lat="43.6206278" lon="13.2171247"><ele>118.0</ele><time>2026-04-19T07:36:25.275Z</time></trkpt><trkpt lat="43.6205957" lon="13.216993"><ele>118.0</ele><time>2026-04-19T07:36:26.277Z</time></trkpt><trkpt lat="43.6205607" lon="13.2168781"><ele>118.16666666666667</ele><time>2026-04-19T07:36:27.276Z</time></trkpt><trkpt lat="43.6205295" lon="13.2167773"><ele>118.33333333333334</ele><time>2026-04-19T07:36:28.276Z</time></trkpt><trkpt lat="43.6205089" lon="13.2166799"><ele>118.5</ele><time>2026-04-19T07:36:29.277Z</time></trkpt><trkpt lat="43.6204969" lon="13.2165709"><ele>118.66666666666666</ele><time>2026-04-19T07:36:30.277Z</time></trkpt><trkpt lat="43.6204948" lon="13.2164599"><ele>118.83333333333333</ele><time>2026-04-19T07:36:31.276Z</time></trkpt><trkpt lat="43.6205101" lon="13.2163577"><ele>119.0</ele><time>2026-04-19T07:36:32.277Z</time></trkpt><trkpt lat="43.6205439" lon="13.2162546"><ele>119.0</ele><time>2026-04-19T07:36:33.276Z</time></trkpt><trkpt lat="43.6205892" lon="13.2161466"><ele>119.0</ele><time>2026-04-19T07:36:34.277Z</time></trkpt><trkpt lat="43.6206433" lon="13.2160355"><ele>119.0</ele><time>2026-04-19T07:36:35.277Z</time></trkpt><trkpt lat="43.6207023" lon="13.2159275"><ele>119.0</ele><time>2026-04-19T07:36:36.276Z</time></trkpt><trkpt lat="43.6207636" lon="13.2158202"><ele>119.0</ele><time>2026-04-19T07:36:37.276Z</time></trkpt><trkpt lat="43.6208261" lon="13.2157211"><ele>117.2</ele><time>2026-04-19T07:36:38.277Z</time></trkpt><trkpt lat="43.6208887" lon="13.2156186"><ele>115.4</ele><time>2026-04-19T07:36:39.276Z</time></trkpt><trkpt lat="43.620955" lon="13.2155168"><ele>113.6</ele><time>2026-04-19T07:36:40.277Z</time></trkpt><trkpt lat="43.6210191" lon="13.215416"><ele>111.8</ele><time>2026-04-19T07:36:41.276Z</time></trkpt><trkpt lat="43.621078" lon="13.2153147"><ele>110.0</ele><time>2026-04-19T07:36:42.276Z</time></trkpt><trkpt lat="43.6211405" lon="13.2152196"><ele>110.0</ele><time>2026-04-19T07:36:43.275Z</time></trkpt><trkpt lat="43.6212061" lon="13.2151248"><ele>110.0</ele><time>2026-04-19T07:36:44.276Z</time></trkpt><trkpt lat="43.6212756" lon="13.2150285"><ele>110.0</ele><time>2026-04-19T07:36:45.275Z</time></trkpt><trkpt lat="43.6213494" lon="13.2149435"><ele>110.0</ele><time>2026-04-19T07:36:46.276Z</time></trkpt><trkpt lat="43.6214214" lon="13.214873"><ele>110.0</ele><time>2026-04-19T07:36:47.276Z</time></trkpt><trkpt lat="43.6214971" lon="13.2148107"><ele>110.0</ele><time>2026-04-19T07:36:48.276Z</time></trkpt><trkpt lat="43.621581" lon="13.2147574"><ele>110.0</ele><time>2026-04-19T07:36:49.276Z</time></trkpt><trkpt lat="43.6216724" lon="13.2146963"><ele>110.0</ele><time>2026-04-19T07:36:50.275Z</time></trkpt><trkpt lat="43.6217675" lon="13.2146329"><ele>110.0</ele><time>2026-04-19T07:36:51.276Z</time></trkpt><trkpt lat="43.6218623" lon="13.214578"><ele>110.0</ele><time>2026-04-19T07:36:52.276Z</time></trkpt><trkpt lat="43.6219535" lon="13.2145196"><ele>110.99999999999999</ele><time>2026-04-19T07:36:53.275Z</time></trkpt><trkpt lat="43.6220414" lon="13.2144693"><ele>112.0</ele><time>2026-04-19T07:36:54.275Z</time></trkpt><trkpt lat="43.622121" lon="13.2144261"><ele>113.0</ele><time>2026-04-19T07:36:55.275Z</time></trkpt><trkpt lat="43.6221854" lon="13.2143933"><ele>114.0</ele><time>2026-04-19T07:36:56.276Z</time></trkpt><trkpt lat="43.6222489" lon="13.214367"><ele>114.99999999999999</ele><time>2026-04-19T07:36:57.276Z</time></trkpt><trkpt lat="43.6223613" lon="13.2143059"><ele>116.0</ele><time>2026-04-19T07:36:59.276Z</time></trkpt><trkpt lat="43.6224148" lon="13.2142364"><ele>115.99999999999999</ele><time>2026-04-19T07:37:01.276Z</time></trkpt><trkpt lat="43.6224459" lon="13.2141445"><ele>116.0</ele><time>2026-04-19T07:37:04.276Z</time></trkpt><trkpt lat="43.6224547" lon="13.21405"><ele>116.0</ele><time>2026-04-19T07:37:06.276Z</time></trkpt><trkpt lat="43.6224577" lon="13.2139492"><ele>116.0</ele><time>2026-04-19T07:37:08.276Z</time></trkpt><trkpt lat="43.6224626" lon="13.2138292"><ele>115.99999999999999</ele><time>2026-04-19T07:37:10.276Z</time></trkpt><trkpt lat="43.6224586" lon="13.2136943"><ele>116.0</ele><time>2026-04-19T07:37:12.275Z</time></trkpt><trkpt lat="43.6224538" lon="13.2135432"><ele>114.85714285714288</ele><time>2026-04-19T07:37:14.276Z</time></trkpt><trkpt lat="43.622452" lon="13.2134301"><ele>113.71428571428572</ele><time>2026-04-19T07:37:16.275Z</time></trkpt><trkpt lat="43.6224481" lon="13.2133115"><ele>112.57142857142858</ele><time>2026-04-19T07:37:19.276Z</time></trkpt><trkpt lat="43.6224454" lon="13.2132127"><ele>111.42857142857144</ele><time>2026-04-19T07:37:22.276Z</time></trkpt><trkpt lat="43.6224469" lon="13.2131254"><ele>110.28571428571428</ele><time>2026-04-19T07:37:25.276Z</time></trkpt><trkpt lat="43.6224377" lon="13.2130235"><ele>109.14285714285714</ele><time>2026-04-19T07:37:29.275Z</time></trkpt><trkpt lat="43.6224116" lon="13.2129378"><ele>108.0</ele><time>2026-04-19T07:37:36.276Z</time></trkpt><trkpt lat="43.6223868" lon="13.2128465"><ele>106.14285714285714</ele><time>2026-04-19T07:37:44.276Z</time></trkpt><trkpt lat="43.6223773" lon="13.2127604"><ele>104.28571428571428</ele><time>2026-04-19T07:37:51.276Z</time></trkpt><trkpt lat="43.6223718" lon="13.2126597"><ele>102.42857142857143</ele><time>2026-04-19T07:37:58.275Z</time></trkpt><trkpt lat="43.6223637" lon="13.2125629"><ele>100.57142857142857</ele><time>2026-04-19T07:38:03.275Z</time></trkpt><trkpt lat="43.6223571" lon="13.212465"><ele>98.71428571428572</ele><time>2026-04-19T07:38:07.276Z</time></trkpt><trkpt lat="43.6223515" lon="13.2123666"><ele>96.85714285714286</ele><time>2026-04-19T07:38:10.274Z</time></trkpt><trkpt lat="43.6223436" lon="13.2122523"><ele>95.0</ele><time>2026-04-19T07:38:13.276Z</time></trkpt><trkpt lat="43.6223352" lon="13.2121328"><ele>93.33333333333334</ele><time>2026-04-19T07:38:16.276Z</time></trkpt><trkpt lat="43.6223259" lon="13.2120217"><ele>91.66666666666667</ele><time>2026-04-19T07:38:19.276Z</time></trkpt><trkpt lat="43.622316" lon="13.2119023"><ele>90.0</ele><time>2026-04-19T07:38:22.276Z</time></trkpt><trkpt lat="43.6223072" lon="13.2118095"><ele>88.33333333333333</ele><time>2026-04-19T07:38:24.276Z</time></trkpt><trkpt lat="43.6222999" lon="13.2117213"><ele>86.66666666666666</ele><time>2026-04-19T07:38:26.274Z</time></trkpt><trkpt lat="43.6222925" lon="13.2116346"><ele>85.0</ele><time>2026-04-19T07:38:28.276Z</time></trkpt><trkpt lat="43.6222827" lon="13.2115113"><ele>83.16666666666666</ele><time>2026-04-19T07:38:31.276Z</time></trkpt><trkpt lat="43.6222714" lon="13.2113871"><ele>81.33333333333333</ele><time>2026-04-19T07:38:34.276Z</time></trkpt><trkpt lat="43.6222624" lon="13.2112985"><ele>79.5</ele><time>2026-04-19T07:38:36.276Z</time></trkpt><trkpt lat="43.622253" lon="13.2111905"><ele>77.66666666666667</ele><time>2026-04-19T07:38:38.276Z</time></trkpt><trkpt lat="43.6222429" lon="13.2110945"><ele>75.83333333333334</ele><time>2026-04-19T07:38:40.276Z</time></trkpt><trkpt lat="43.6222286" lon="13.2109636"><ele>74.0</ele><time>2026-04-19T07:38:43.275Z</time></trkpt><trkpt lat="43.6222166" lon="13.2108581"><ele>74.0</ele><time>2026-04-19T07:38:45.276Z</time></trkpt><trkpt lat="43.6222051" lon="13.2107455"><ele>74.0</ele><time>2026-04-19T07:38:47.275Z</time></trkpt><trkpt lat="43.6221915" lon="13.2106308"><ele>74.0</ele><time>2026-04-19T07:38:49.276Z</time></trkpt><trkpt lat="43.6221772" lon="13.2105137"><ele>74.0</ele><time>2026-04-19T07:38:51.275Z</time></trkpt><trkpt lat="43.6221648" lon="13.2104051"><ele>74.0</ele><time>2026-04-19T07:38:53.275Z</time></trkpt><trkpt lat="43.6221529" lon="13.2102942"><ele>74.0</ele><time>2026-04-19T07:38:55.275Z</time></trkpt><trkpt lat="43.6221369" lon="13.210152"><ele>72.83333333333334</ele><time>2026-04-19T07:38:57.276Z</time></trkpt><trkpt lat="43.6221232" lon="13.2100252"><ele>71.66666666666667</ele><time>2026-04-19T07:38:59.275Z</time></trkpt><trkpt lat="43.6221087" lon="13.209896"><ele>70.5</ele><time>2026-04-19T07:39:01.276Z</time></trkpt><trkpt lat="43.6220966" lon="13.2097832"><ele>69.33333333333333</ele><time>2026-04-19T07:39:03.276Z</time></trkpt><trkpt lat="43.6220854" lon="13.2096705"><ele>68.16666666666666</ele><time>2026-04-19T07:39:05.274Z</time></trkpt><trkpt lat="43.6220734" lon="13.2095591"><ele>67.0</ele><time>2026-04-19T07:39:07.275Z</time></trkpt><trkpt lat="43.6220623" lon="13.2094564"><ele>67.0</ele><time>2026-04-19T07:39:09.276Z</time></trkpt><trkpt lat="43.6220436" lon="13.2093667"><ele>67.0</ele><time>2026-04-19T07:39:11.275Z</time></trkpt><trkpt lat="43.6220158" lon="13.2092852"><ele>67.0</ele><time>2026-04-19T07:39:13.276Z</time></trkpt><trkpt lat="43.621975" lon="13.2092017"><ele>67.0</ele><time>2026-04-19T07:39:15.276Z</time></trkpt><trkpt lat="43.6219268" lon="13.2091278"><ele>67.0</ele><time>2026-04-19T07:39:17.275Z</time></trkpt><trkpt lat="43.6218831" lon="13.2090584"><ele>67.0</ele><time>2026-04-19T07:39:19.276Z</time></trkpt><trkpt lat="43.621876" lon="13.2089402"><ele>67.0</ele><time>2026-04-19T07:39:22.276Z</time></trkpt><trkpt lat="43.621931" lon="13.2088164"><ele>66.66666666666666</ele><time>2026-04-19T07:39:36.275Z</time></trkpt><trkpt lat="43.6219948" lon="13.2087155"><ele>66.33333333333333</ele><time>2026-04-19T07:39:38.276Z</time></trkpt><trkpt lat="43.6220614" lon="13.2086269"><ele>66.0</ele><time>2026-04-19T07:39:40.276Z</time></trkpt><trkpt lat="43.6221402" lon="13.2085095"><ele>65.66666666666667</ele><time>2026-04-19T07:39:42.275Z</time></trkpt><trkpt lat="43.6221795" lon="13.2084406"><ele>65.33333333333334</ele><time>2026-04-19T07:39:43.275Z</time></trkpt><trkpt lat="43.6222184" lon="13.2083606"><ele>65.0</ele><time>2026-04-19T07:39:44.276Z</time></trkpt><trkpt lat="43.6222806" lon="13.208228"><ele>64.8</ele><time>2026-04-19T07:39:46.275Z</time></trkpt><trkpt lat="43.6223311" lon="13.2081135"><ele>64.6</ele><time>2026-04-19T07:39:48.276Z</time></trkpt><trkpt lat="43.6223943" lon="13.2079824"><ele>64.4</ele><time>2026-04-19T07:39:50.274Z</time></trkpt><trkpt lat="43.6224575" lon="13.2078449"><ele>64.2</ele><time>2026-04-19T07:39:52.275Z</time></trkpt><trkpt lat="43.6225183" lon="13.2077225"><ele>64.0</ele><time>2026-04-19T07:39:54.276Z</time></trkpt><trkpt lat="43.622581" lon="13.2076297"><ele>64.0</ele><time>2026-04-19T07:39:56.276Z</time></trkpt><trkpt lat="43.6226681" lon="13.2075294"><ele>64.0</ele><time>2026-04-19T07:39:58.276Z</time></trkpt><trkpt lat="43.6227579" lon="13.2074122"><ele>64.0</ele><time>2026-04-19T07:40:00.275Z</time></trkpt><trkpt lat="43.6228065" lon="13.2072893"><ele>64.0</ele><time>2026-04-19T07:40:02.276Z</time></trkpt><trkpt lat="43.6228132" lon="13.2071604"><ele>64.0</ele><time>2026-04-19T07:40:04.275Z</time></trkpt><trkpt lat="43.6227908" lon="13.2070008"><ele>65.0</ele><time>2026-04-19T07:40:06.276Z</time></trkpt><trkpt lat="43.6227716" lon="13.2069128"><ele>66.0</ele><time>2026-04-19T07:40:07.275Z</time></trkpt><trkpt lat="43.6227513" lon="13.2068236"><ele>67.0</ele><time>2026-04-19T07:40:08.276Z</time></trkpt><trkpt lat="43.6227253" lon="13.2067074"><ele>68.0</ele><time>2026-04-19T07:40:10.276Z</time></trkpt><trkpt lat="43.6226985" lon="13.2065719"><ele>69.0</ele><time>2026-04-19T07:40:13.276Z</time></trkpt><trkpt lat="43.6226487" lon="13.2064435"><ele>70.0</ele><time>2026-04-19T07:40:15.276Z</time></trkpt><trkpt lat="43.6226023" lon="13.2063234"><ele>69.66666666666666</ele><time>2026-04-19T07:40:17.275Z</time></trkpt><trkpt lat="43.6225703" lon="13.2062265"><ele>69.33333333333333</ele><time>2026-04-19T07:40:19.276Z</time></trkpt><trkpt lat="43.6225848" lon="13.2061289"><ele>69.0</ele><time>2026-04-19T07:40:21.276Z</time></trkpt><trkpt lat="43.6226499" lon="13.2060647"><ele>68.66666666666667</ele><time>2026-04-19T07:40:23.276Z</time></trkpt><trkpt lat="43.6227377" lon="13.2060016"><ele>68.33333333333334</ele><time>2026-04-19T07:40:25.274Z</time></trkpt><trkpt lat="43.6227998" lon="13.2059599"><ele>68.0</ele><time>2026-04-19T07:40:26.275Z</time></trkpt><trkpt lat="43.6228631" lon="13.2059172"><ele>68.0</ele><time>2026-04-19T07:40:27.276Z</time></trkpt><trkpt lat="43.6229353" lon="13.20587"><ele>68.0</ele><time>2026-04-19T07:40:28.276Z</time></trkpt><trkpt lat="43.6230107" lon="13.2058212"><ele>68.0</ele><time>2026-04-19T07:40:29.276Z</time></trkpt><trkpt lat="43.6230926" lon="13.2057678"><ele>68.0</ele><time>2026-04-19T07:40:30.276Z</time></trkpt><trkpt lat="43.6231777" lon="13.2057129"><ele>68.0</ele><time>2026-04-19T07:40:31.276Z</time></trkpt><trkpt lat="43.6232664" lon="13.2056569"><ele>68.0</ele><time>2026-04-19T07:40:32.274Z</time></trkpt><trkpt lat="43.6233516" lon="13.2055986"><ele>67.6</ele><time>2026-04-19T07:40:33.275Z</time></trkpt><trkpt lat="43.6234347" lon="13.2055384"><ele>67.19999999999999</ele><time>2026-04-19T07:40:34.276Z</time></trkpt><trkpt lat="43.6235264" lon="13.2054769"><ele>66.8</ele><time>2026-04-19T07:40:35.275Z</time></trkpt><trkpt lat="43.6236184" lon="13.205408"><ele>66.39999999999999</ele><time>2026-04-19T07:40:36.275Z</time></trkpt><trkpt lat="43.6237145" lon="13.2053383"><ele>66.0</ele><time>2026-04-19T07:40:37.276Z</time></trkpt><trkpt lat="43.6238141" lon="13.2052696"><ele>65.39999999999999</ele><time>2026-04-19T07:40:38.276Z</time></trkpt><trkpt lat="43.6239154" lon="13.2052018"><ele>64.8</ele><time>2026-04-19T07:40:39.274Z</time></trkpt><trkpt lat="43.6240164" lon="13.2051345"><ele>64.19999999999999</ele><time>2026-04-19T07:40:40.275Z</time></trkpt><trkpt lat="43.6241092" lon="13.2050705"><ele>63.599999999999994</ele><time>2026-04-19T07:40:41.274Z</time></trkpt><trkpt lat="43.6242009" lon="13.205007"><ele>63.0</ele><time>2026-04-19T07:40:42.276Z</time></trkpt><trkpt lat="43.6242952" lon="13.2049394"><ele>63.0</ele><time>2026-04-19T07:40:43.275Z</time></trkpt><trkpt lat="43.6243913" lon="13.2048671"><ele>63.0</ele><time>2026-04-19T07:40:44.275Z</time></trkpt><trkpt lat="43.6244904" lon="13.204793"><ele>63.0</ele><time>2026-04-19T07:40:45.276Z</time></trkpt><trkpt lat="43.6245909" lon="13.2047196"><ele>63.0</ele><time>2026-04-19T07:40:46.275Z</time></trkpt><trkpt lat="43.6246943" lon="13.2046486"><ele>63.75</ele><time>2026-04-19T07:40:47.275Z</time></trkpt><trkpt lat="43.6248001" lon="13.2045742"><ele>64.5</ele><time>2026-04-19T07:40:48.276Z</time></trkpt><trkpt lat="43.6249102" lon="13.2044968"><ele>65.25</ele><time>2026-04-19T07:40:49.276Z</time></trkpt><trkpt lat="43.6250241" lon="13.2044182"><ele>66.0</ele><time>2026-04-19T07:40:50.275Z</time></trkpt><trkpt lat="43.6251362" lon="13.2043466"><ele>66.0</ele><time>2026-04-19T07:40:51.276Z</time></trkpt><trkpt lat="43.6252507" lon="13.2042867"><ele>66.0</ele><time>2026-04-19T07:40:52.276Z</time></trkpt><trkpt lat="43.6253655" lon="13.2042433"><ele>66.0</ele><time>2026-04-19T07:40:53.276Z</time></trkpt><trkpt lat="43.6254822" lon="13.2042128"><ele>66.0</ele><time>2026-04-19T07:40:54.276Z</time></trkpt><trkpt lat="43.6255995" lon="13.2041926"><ele>67.0</ele><time>2026-04-19T07:40:55.275Z</time></trkpt><trkpt lat="43.6257121" lon="13.2041763"><ele>68.0</ele><time>2026-04-19T07:40:56.276Z</time></trkpt><trkpt lat="43.6258145" lon="13.2041645"><ele>69.0</ele><time>2026-04-19T07:40:57.276Z</time></trkpt><trkpt lat="43.6259078" lon="13.2041574"><ele>70.0</ele><time>2026-04-19T07:40:58.276Z</time></trkpt><trkpt lat="43.6259918" lon="13.2041495"><ele>71.0</ele><time>2026-04-19T07:40:59.275Z</time></trkpt><trkpt lat="43.6260683" lon="13.2041428"><ele>70.6</ele><time>2026-04-19T07:41:00.276Z</time></trkpt><trkpt lat="43.6261773" lon="13.2041185"><ele>70.19999999999999</ele><time>2026-04-19T07:41:02.275Z</time></trkpt><trkpt lat="43.6262045" lon="13.2040143"><ele>69.80000000000001</ele><time>2026-04-19T07:41:05.275Z</time></trkpt><trkpt lat="43.6261449" lon="13.2039077"><ele>69.4</ele><time>2026-04-19T07:41:07.276Z</time></trkpt><trkpt lat="43.6260562" lon="13.203767"><ele>69.0</ele><time>2026-04-19T07:41:09.276Z</time></trkpt><trkpt lat="43.6260147" lon="13.2036883"><ele>70.83333333333333</ele><time>2026-04-19T07:41:10.276Z</time></trkpt><trkpt lat="43.6259594" lon="13.2036108"><ele>72.66666666666667</ele><time>2026-04-19T07:41:11.276Z</time></trkpt><trkpt lat="43.6259077" lon="13.2035257"><ele>74.5</ele><time>2026-04-19T07:41:12.276Z</time></trkpt><trkpt lat="43.6258501" lon="13.2034273"><ele>76.33333333333334</ele><time>2026-04-19T07:41:13.275Z</time></trkpt><trkpt lat="43.6257901" lon="13.2033361"><ele>78.16666666666667</ele><time>2026-04-19T07:41:14.275Z</time></trkpt><trkpt lat="43.6257274" lon="13.2032529"><ele>80.0</ele><time>2026-04-19T07:41:15.274Z</time></trkpt><trkpt lat="43.6256682" lon="13.2031597"><ele>82.6</ele><time>2026-04-19T07:41:16.275Z</time></trkpt><trkpt lat="43.62561" lon="13.2030633"><ele>85.2</ele><time>2026-04-19T07:41:17.275Z</time></trkpt><trkpt lat="43.6255545" lon="13.2029629"><ele>87.80000000000001</ele><time>2026-04-19T07:41:18.276Z</time></trkpt><trkpt lat="43.6255011" lon="13.2028591"><ele>90.4</ele><time>2026-04-19T07:41:19.276Z</time></trkpt><trkpt lat="43.6254503" lon="13.2027516"><ele>93.0</ele><time>2026-04-19T07:41:20.276Z</time></trkpt><trkpt lat="43.6254055" lon="13.2026396"><ele>93.0</ele><time>2026-04-19T07:41:21.275Z</time></trkpt><trkpt lat="43.6253642" lon="13.202518"><ele>93.0</ele><time>2026-04-19T07:41:22.274Z</time></trkpt><trkpt lat="43.6253261" lon="13.2023899"><ele>93.0</ele><time>2026-04-19T07:41:23.275Z</time></trkpt><trkpt lat="43.6252916" lon="13.2022602"><ele>93.0</ele><time>2026-04-19T07:41:24.275Z</time></trkpt><trkpt lat="43.6252642" lon="13.2021204"><ele>93.0</ele><time>2026-04-19T07:41:25.275Z</time></trkpt><trkpt lat="43.6252442" lon="13.2019751"><ele>94.60000000000001</ele><time>2026-04-19T07:41:26.275Z</time></trkpt><trkpt lat="43.6252305" lon="13.2018303"><ele>96.2</ele><time>2026-04-19T07:41:27.275Z</time></trkpt><trkpt lat="43.6252269" lon="13.2016766"><ele>97.8</ele><time>2026-04-19T07:41:28.275Z</time></trkpt><trkpt lat="43.625238" lon="13.2015261"><ele>99.4</ele><time>2026-04-19T07:41:29.276Z</time></trkpt><trkpt lat="43.6252616" lon="13.2013819"><ele>101.0</ele><time>2026-04-19T07:41:30.275Z</time></trkpt><trkpt lat="43.6252829" lon="13.2012453"><ele>102.4</ele><time>2026-04-19T07:41:31.276Z</time></trkpt><trkpt lat="43.6252996" lon="13.2011101"><ele>103.8</ele><time>2026-04-19T07:41:32.276Z</time></trkpt><trkpt lat="43.6253039" lon="13.2009734"><ele>105.20000000000002</ele><time>2026-04-19T07:41:33.276Z</time></trkpt><trkpt lat="43.6252943" lon="13.2008326"><ele>106.60000000000001</ele><time>2026-04-19T07:41:34.276Z</time></trkpt><trkpt lat="43.6252701" lon="13.200695"><ele>108.0</ele><time>2026-04-19T07:41:35.275Z</time></trkpt><trkpt lat="43.6252309" lon="13.2005585"><ele>108.5</ele><time>2026-04-19T07:41:36.276Z</time></trkpt><trkpt lat="43.6251872" lon="13.2004209"><ele>109.0</ele><time>2026-04-19T07:41:37.276Z</time></trkpt><trkpt lat="43.6251433" lon="13.2002814"><ele>109.5</ele><time>2026-04-19T07:41:38.275Z</time></trkpt><trkpt lat="43.6251011" lon="13.2001329"><ele>110.0</ele><time>2026-04-19T07:41:39.276Z</time></trkpt><trkpt lat="43.6250635" lon="13.1999788"><ele>110.5</ele><time>2026-04-19T07:41:40.276Z</time></trkpt><trkpt lat="43.6250311" lon="13.199821"><ele>111.0</ele><time>2026-04-19T07:41:41.276Z</time></trkpt><trkpt lat="43.6249992" lon="13.1996629"><ele>111.5</ele><time>2026-04-19T07:41:42.276Z</time></trkpt><trkpt lat="43.6249679" lon="13.1995044"><ele>112.0</ele><time>2026-04-19T07:41:43.276Z</time></trkpt><trkpt lat="43.6249381" lon="13.1993452"><ele>112.0</ele><time>2026-04-19T07:41:44.276Z</time></trkpt><trkpt lat="43.6249084" lon="13.1991843"><ele>112.0</ele><time>2026-04-19T07:41:45.276Z</time></trkpt><trkpt lat="43.6248749" lon="13.1990212"><ele>112.0</ele><time>2026-04-19T07:41:46.276Z</time></trkpt><trkpt lat="43.6248415" lon="13.1988598"><ele>112.0</ele><time>2026-04-19T07:41:47.276Z</time></trkpt><trkpt lat="43.624807" lon="13.1986933"><ele>111.75</ele><time>2026-04-19T07:41:48.276Z</time></trkpt><trkpt lat="43.6247737" lon="13.1985208"><ele>111.5</ele><time>2026-04-19T07:41:49.276Z</time></trkpt><trkpt lat="43.6247412" lon="13.198346"><ele>111.25</ele><time>2026-04-19T07:41:50.275Z</time></trkpt><trkpt lat="43.6247104" lon="13.198174"><ele>111.0</ele><time>2026-04-19T07:41:51.276Z</time></trkpt><trkpt lat="43.6246812" lon="13.1979975"><ele>111.0</ele><time>2026-04-19T07:41:52.274Z</time></trkpt><trkpt lat="43.6246563" lon="13.1978154"><ele>111.0</ele><time>2026-04-19T07:41:53.275Z</time></trkpt><trkpt lat="43.6246298" lon="13.1976322"><ele>111.0</ele><time>2026-04-19T07:41:54.275Z</time></trkpt><trkpt lat="43.6246045" lon="13.1974671"><ele>111.0</ele><time>2026-04-19T07:41:55.275Z</time></trkpt><trkpt lat="43.6245759" lon="13.1973048"><ele>110.75</ele><time>2026-04-19T07:41:56.276Z</time></trkpt><trkpt lat="43.6245498" lon="13.1971501"><ele>110.5</ele><time>2026-04-19T07:41:57.275Z</time></trkpt><trkpt lat="43.6245244" lon="13.1969964"><ele>110.25</ele><time>2026-04-19T07:41:58.276Z</time></trkpt><trkpt lat="43.6244948" lon="13.1968435"><ele>110.0</ele><time>2026-04-19T07:41:59.276Z</time></trkpt><trkpt lat="43.6244617" lon="13.1966842"><ele>113.5</ele><time>2026-04-19T07:42:00.276Z</time></trkpt><trkpt lat="43.6244252" lon="13.1965169"><ele>117.0</ele><time>2026-04-19T07:42:01.276Z</time></trkpt><trkpt lat="43.6243883" lon="13.196349"><ele>120.5</ele><time>2026-04-19T07:42:02.275Z</time></trkpt><trkpt lat="43.62435" lon="13.196193"><ele>124.0</ele><time>2026-04-19T07:42:03.276Z</time></trkpt><trkpt lat="43.6243111" lon="13.1960407"><ele>124.0</ele><time>2026-04-19T07:42:04.276Z</time></trkpt><trkpt lat="43.6242689" lon="13.1958828"><ele>124.0</ele><time>2026-04-19T07:42:05.275Z</time></trkpt><trkpt lat="43.6242256" lon="13.1957294"><ele>124.0</ele><time>2026-04-19T07:42:06.275Z</time></trkpt><trkpt lat="43.6241772" lon="13.1955752"><ele>124.0</ele><time>2026-04-19T07:42:07.276Z</time></trkpt><trkpt lat="43.6241282" lon="13.1954202"><ele>124.0</ele><time>2026-04-19T07:42:08.276Z</time></trkpt><trkpt lat="43.6240805" lon="13.1952676"><ele>124.0</ele><time>2026-04-19T07:42:09.275Z</time></trkpt><trkpt lat="43.6240331" lon="13.1951122"><ele>124.0</ele><time>2026-04-19T07:42:10.276Z</time></trkpt><trkpt lat="43.6239879" lon="13.1949728"><ele>124.0</ele><time>2026-04-19T07:42:11.275Z</time></trkpt><trkpt lat="43.6239403" lon="13.1948364"><ele>123.0</ele><time>2026-04-19T07:42:12.275Z</time></trkpt><trkpt lat="43.6238925" lon="13.1947101"><ele>122.0</ele><time>2026-04-19T07:42:13.275Z</time></trkpt><trkpt lat="43.6238378" lon="13.1945904"><ele>121.0</ele><time>2026-04-19T07:42:14.276Z</time></trkpt><trkpt lat="43.6237792" lon="13.1944786"><ele>120.0</ele><time>2026-04-19T07:42:15.276Z</time></trkpt><trkpt lat="43.6237101" lon="13.1943766"><ele>119.0</ele><time>2026-04-19T07:42:16.275Z</time></trkpt><trkpt lat="43.6236471" lon="13.1942806"><ele>121.16666666666666</ele><time>2026-04-19T07:42:17.276Z</time></trkpt><trkpt lat="43.6235867" lon="13.194199"><ele>123.33333333333333</ele><time>2026-04-19T07:42:18.276Z</time></trkpt><trkpt lat="43.6235253" lon="13.1941355"><ele>125.5</ele><time>2026-04-19T07:42:19.275Z</time></trkpt><trkpt lat="43.6234634" lon="13.1940905"><ele>127.66666666666666</ele><time>2026-04-19T07:42:20.276Z</time></trkpt><trkpt lat="43.6233922" lon="13.1940531"><ele>129.83333333333334</ele><time>2026-04-19T07:42:21.275Z</time></trkpt><trkpt lat="43.623308" lon="13.1940339"><ele>132.0</ele><time>2026-04-19T07:42:22.276Z</time></trkpt><trkpt lat="43.6232218" lon="13.194022"><ele>132.14285714285714</ele><time>2026-04-19T07:42:23.275Z</time></trkpt><trkpt lat="43.6231394" lon="13.1940047"><ele>132.28571428571428</ele><time>2026-04-19T07:42:24.276Z</time></trkpt><trkpt lat="43.6230639" lon="13.1939968"><ele>132.42857142857144</ele><time>2026-04-19T07:42:25.276Z</time></trkpt><trkpt lat="43.6229979" lon="13.1939898"><ele>132.57142857142856</ele><time>2026-04-19T07:42:26.275Z</time></trkpt><trkpt lat="43.6229296" lon="13.1939785"><ele>132.71428571428572</ele><time>2026-04-19T07:42:27.276Z</time></trkpt><trkpt lat="43.6228616" lon="13.1939623"><ele>132.85714285714286</ele><time>2026-04-19T07:42:28.275Z</time></trkpt><trkpt lat="43.6227887" lon="13.1939523"><ele>133.0</ele><time>2026-04-19T07:42:29.276Z</time></trkpt><trkpt lat="43.6227106" lon="13.1939483"><ele>133.20000000000002</ele><time>2026-04-19T07:42:30.276Z</time></trkpt><trkpt lat="43.6226277" lon="13.1939603"><ele>133.4</ele><time>2026-04-19T07:42:31.275Z</time></trkpt><trkpt lat="43.6225421" lon="13.1939793"><ele>133.60000000000002</ele><time>2026-04-19T07:42:32.276Z</time></trkpt><trkpt lat="43.6224557" lon="13.1940095"><ele>133.8</ele><time>2026-04-19T07:42:33.276Z</time></trkpt><trkpt lat="43.6223686" lon="13.1940362"><ele>134.0</ele><time>2026-04-19T07:42:34.276Z</time></trkpt><trkpt lat="43.6222644" lon="13.1940414"><ele>134.0</ele><time>2026-04-19T07:42:35.276Z</time></trkpt><trkpt lat="43.6221474" lon="13.1940331"><ele>134.0</ele><time>2026-04-19T07:42:36.275Z</time></trkpt><trkpt lat="43.6220338" lon="13.1940149"><ele>134.0</ele><time>2026-04-19T07:42:37.275Z</time></trkpt><trkpt lat="43.6219269" lon="13.1939982"><ele>134.0</ele><time>2026-04-19T07:42:38.276Z</time></trkpt><trkpt lat="43.6218199" lon="13.1939814"><ele>134.0</ele><time>2026-04-19T07:42:39.276Z</time></trkpt><trkpt lat="43.6217176" lon="13.193969"><ele>136.2</ele><time>2026-04-19T07:42:40.276Z</time></trkpt><trkpt lat="43.6216162" lon="13.1939563"><ele>138.4</ele><time>2026-04-19T07:42:41.276Z</time></trkpt><trkpt lat="43.6215152" lon="13.1939478"><ele>140.6</ele><time>2026-04-19T07:42:42.276Z</time></trkpt><trkpt lat="43.6214131" lon="13.1939412"><ele>142.8</ele><time>2026-04-19T07:42:43.276Z</time></trkpt><trkpt lat="43.6213087" lon="13.1939332"><ele>145.0</ele><time>2026-04-19T07:42:44.275Z</time></trkpt><trkpt lat="43.6212057" lon="13.1939158"><ele>144.0</ele><time>2026-04-19T07:42:45.276Z</time></trkpt><trkpt lat="43.6211088" lon="13.1938829"><ele>143.0</ele><time>2026-04-19T07:42:46.276Z</time></trkpt><trkpt lat="43.6210115" lon="13.193833"><ele>142.0</ele><time>2026-04-19T07:42:47.275Z</time></trkpt><trkpt lat="43.6209284" lon="13.1937675"><ele>141.0</ele><time>2026-04-19T07:42:48.275Z</time></trkpt><trkpt lat="43.6208622" lon="13.1936878"><ele>140.0</ele><time>2026-04-19T07:42:49.275Z</time></trkpt><trkpt lat="43.6208132" lon="13.193607"><ele>140.0</ele><time>2026-04-19T07:42:50.275Z</time></trkpt><trkpt lat="43.620764" lon="13.1935155"><ele>140.0</ele><time>2026-04-19T07:42:51.275Z</time></trkpt><trkpt lat="43.6207212" lon="13.1934143"><ele>140.0</ele><time>2026-04-19T07:42:52.275Z</time></trkpt><trkpt lat="43.6206794" lon="13.1933216"><ele>140.0</ele><time>2026-04-19T07:42:53.276Z</time></trkpt><trkpt lat="43.6206353" lon="13.1932322"><ele>140.0</ele><time>2026-04-19T07:42:54.276Z</time></trkpt><trkpt lat="43.6205867" lon="13.1931492"><ele>140.0</ele><time>2026-04-19T07:42:55.275Z</time></trkpt><trkpt lat="43.6205371" lon="13.1930909"><ele>140.16666666666666</ele><time>2026-04-19T07:42:56.275Z</time></trkpt><trkpt lat="43.6204828" lon="13.1930446"><ele>140.33333333333331</ele><time>2026-04-19T07:42:57.275Z</time></trkpt><trkpt lat="43.6203649" lon="13.1929585"><ele>140.5</ele><time>2026-04-19T07:42:59.275Z</time></trkpt><trkpt lat="43.6203025" lon="13.1929052"><ele>140.66666666666666</ele><time>2026-04-19T07:43:00.275Z</time></trkpt><trkpt lat="43.6202428" lon="13.1928432"><ele>140.83333333333334</ele><time>2026-04-19T07:43:01.275Z</time></trkpt><trkpt lat="43.6201899" lon="13.1927668"><ele>141.0</ele><time>2026-04-19T07:43:02.275Z</time></trkpt><trkpt lat="43.6201383" lon="13.1926727"><ele>141.0</ele><time>2026-04-19T07:43:03.276Z</time></trkpt><trkpt lat="43.6200899" lon="13.1925654"><ele>141.0</ele><time>2026-04-19T07:43:04.276Z</time></trkpt><trkpt lat="43.6200463" lon="13.1924527"><ele>141.0</ele><time>2026-04-19T07:43:05.275Z</time></trkpt><trkpt lat="43.6200057" lon="13.1923378"><ele>141.0</ele><time>2026-04-19T07:43:06.276Z</time></trkpt><trkpt lat="43.6199665" lon="13.1922184"><ele>141.0</ele><time>2026-04-19T07:43:07.276Z</time></trkpt><trkpt lat="43.6199249" lon="13.1921016"><ele>142.6</ele><time>2026-04-19T07:43:08.276Z</time></trkpt><trkpt lat="43.6198784" lon="13.1919909"><ele>144.2</ele><time>2026-04-19T07:43:09.275Z</time></trkpt><trkpt lat="43.6198241" lon="13.1918873"><ele>145.8</ele><time>2026-04-19T07:43:10.276Z</time></trkpt><trkpt lat="43.6197651" lon="13.1917949"><ele>147.4</ele><time>2026-04-19T07:43:11.276Z</time></trkpt><trkpt lat="43.6197037" lon="13.191715"><ele>149.0</ele><time>2026-04-19T07:43:12.276Z</time></trkpt><trkpt lat="43.6196221" lon="13.1916529"><ele>149.0</ele><time>2026-04-19T07:43:13.276Z</time></trkpt><trkpt lat="43.6195307" lon="13.1915914"><ele>149.0</ele><time>2026-04-19T07:43:14.275Z</time></trkpt><trkpt lat="43.6194374" lon="13.1915372"><ele>149.0</ele><time>2026-04-19T07:43:15.276Z</time></trkpt><trkpt lat="43.6193417" lon="13.1914822"><ele>149.0</ele><time>2026-04-19T07:43:16.275Z</time></trkpt><trkpt lat="43.6192429" lon="13.1914209"><ele>149.0</ele><time>2026-04-19T07:43:17.275Z</time></trkpt><trkpt lat="43.6191401" lon="13.191355"><ele>150.25</ele><time>2026-04-19T07:43:18.276Z</time></trkpt><trkpt lat="43.6190322" lon="13.1912876"><ele>151.5</ele><time>2026-04-19T07:43:19.275Z</time></trkpt><trkpt lat="43.6189212" lon="13.1912322"><ele>152.75</ele><time>2026-04-19T07:43:20.276Z</time></trkpt><trkpt lat="43.6188118" lon="13.1911944"><ele>154.0</ele><time>2026-04-19T07:43:21.275Z</time></trkpt><trkpt lat="43.6186998" lon="13.19116"><ele>154.2</ele><time>2026-04-19T07:43:22.276Z</time></trkpt><trkpt lat="43.6185943" lon="13.1911178"><ele>154.4</ele><time>2026-04-19T07:43:23.276Z</time></trkpt><trkpt lat="43.6185005" lon="13.1910771"><ele>154.6</ele><time>2026-04-19T07:43:24.276Z</time></trkpt><trkpt lat="43.6184092" lon="13.1910327"><ele>154.8</ele><time>2026-04-19T07:43:25.276Z</time></trkpt><trkpt lat="43.6183295" lon="13.1909679"><ele>155.0</ele><time>2026-04-19T07:43:26.276Z</time></trkpt><trkpt lat="43.6182521" lon="13.1908991"><ele>155.0</ele><time>2026-04-19T07:43:27.276Z</time></trkpt><trkpt lat="43.6181801" lon="13.1908173"><ele>155.0</ele><time>2026-04-19T07:43:28.276Z</time></trkpt><trkpt lat="43.6180999" lon="13.1907659"><ele>155.0</ele><time>2026-04-19T07:43:29.276Z</time></trkpt><trkpt lat="43.6180252" lon="13.1907458"><ele>155.0</ele><time>2026-04-19T07:43:30.276Z</time></trkpt><trkpt lat="43.6179451" lon="13.1907401"><ele>155.0</ele><time>2026-04-19T07:43:31.276Z</time></trkpt><trkpt lat="43.6178528" lon="13.1907343"><ele>155.0</ele><time>2026-04-19T07:43:32.276Z</time></trkpt><trkpt lat="43.6177679" lon="13.1907113"><ele>154.5</ele><time>2026-04-19T07:43:33.275Z</time></trkpt><trkpt lat="43.6176981" lon="13.1906807"><ele>154.0</ele><time>2026-04-19T07:43:34.275Z</time></trkpt><trkpt lat="43.6176036" lon="13.1905875"><ele>153.5</ele><time>2026-04-19T07:43:36.276Z</time></trkpt><trkpt lat="43.6175594" lon="13.1905136"><ele>153.0</ele><time>2026-04-19T07:43:37.276Z</time></trkpt><trkpt lat="43.6175176" lon="13.1904247"><ele>152.5</ele><time>2026-04-19T07:43:38.276Z</time></trkpt><trkpt lat="43.6174757" lon="13.1903316"><ele>152.0</ele><time>2026-04-19T07:43:39.276Z</time></trkpt><trkpt lat="43.6174296" lon="13.1902469"><ele>154.0</ele><time>2026-04-19T07:43:40.276Z</time></trkpt><trkpt lat="43.6173784" lon="13.1901618"><ele>156.0</ele><time>2026-04-19T07:43:41.276Z</time></trkpt><trkpt lat="43.6173207" lon="13.1900814"><ele>158.0</ele><time>2026-04-19T07:43:42.276Z</time></trkpt><trkpt lat="43.6172582" lon="13.1899963"><ele>160.0</ele><time>2026-04-19T07:43:43.274Z</time></trkpt><trkpt lat="43.6171972" lon="13.1899116"><ele>162.0</ele><time>2026-04-19T07:43:44.276Z</time></trkpt><trkpt lat="43.6171348" lon="13.1898179"><ele>164.0</ele><time>2026-04-19T07:43:45.275Z</time></trkpt><trkpt lat="43.6170803" lon="13.1897264"><ele>164.33333333333331</ele><time>2026-04-19T07:43:46.275Z</time></trkpt><trkpt lat="43.6170295" lon="13.1896293"><ele>164.66666666666666</ele><time>2026-04-19T07:43:47.276Z</time></trkpt><trkpt lat="43.6169867" lon="13.1895362"><ele>165.0</ele><time>2026-04-19T07:43:48.276Z</time></trkpt><trkpt lat="43.6169452" lon="13.1894428"><ele>165.33333333333334</ele><time>2026-04-19T07:43:49.276Z</time></trkpt><trkpt lat="43.6169005" lon="13.1893569"><ele>165.66666666666669</ele><time>2026-04-19T07:43:50.275Z</time></trkpt><trkpt lat="43.6168531" lon="13.1892874"><ele>166.0</ele><time>2026-04-19T07:43:51.276Z</time></trkpt><trkpt lat="43.6168002" lon="13.189229"><ele>166.0</ele><time>2026-04-19T07:43:52.275Z</time></trkpt><trkpt lat="43.6167377" lon="13.189164"><ele>166.0</ele><time>2026-04-19T07:43:53.275Z</time></trkpt><trkpt lat="43.6166647" lon="13.1890971"><ele>166.0</ele><time>2026-04-19T07:43:54.275Z</time></trkpt><trkpt lat="43.6165849" lon="13.1890445"><ele>166.0</ele><time>2026-04-19T07:43:55.276Z</time></trkpt><trkpt lat="43.6164973" lon="13.1889984"><ele>166.0</ele><time>2026-04-19T07:43:56.275Z</time></trkpt><trkpt lat="43.6164052" lon="13.1889584"><ele>166.0</ele><time>2026-04-19T07:43:57.276Z</time></trkpt><trkpt lat="43.6163048" lon="13.1889265"><ele>165.20000000000002</ele><time>2026-04-19T07:43:58.276Z</time></trkpt><trkpt lat="43.6162054" lon="13.188904"><ele>164.4</ele><time>2026-04-19T07:43:59.276Z</time></trkpt><trkpt lat="43.6161166" lon="13.1888878"><ele>163.6</ele><time>2026-04-19T07:44:00.276Z</time></trkpt><trkpt lat="43.6160249" lon="13.1888681"><ele>162.8</ele><time>2026-04-19T07:44:01.276Z</time></trkpt><trkpt lat="43.6159367" lon="13.1888567"><ele>162.0</ele><time>2026-04-19T07:44:02.275Z</time></trkpt><trkpt lat="43.6158498" lon="13.1888469"><ele>162.0</ele><time>2026-04-19T07:44:03.276Z</time></trkpt><trkpt lat="43.6157611" lon="13.188829"><ele>162.0</ele><time>2026-04-19T07:44:04.276Z</time></trkpt><trkpt lat="43.6156729" lon="13.1888069"><ele>162.0</ele><time>2026-04-19T07:44:05.276Z</time></trkpt><trkpt lat="43.6155939" lon="13.1887873"><ele>162.0</ele><time>2026-04-19T07:44:06.275Z</time></trkpt><trkpt lat="43.6155246" lon="13.1887724"><ele>162.0</ele><time>2026-04-19T07:44:07.276Z</time></trkpt><trkpt lat="43.6154621" lon="13.1887553"><ele>162.0</ele><time>2026-04-19T07:44:08.276Z</time></trkpt><trkpt lat="43.615337" lon="13.1887273"><ele>163.39999999999998</ele><time>2026-04-19T07:44:10.276Z</time></trkpt><trkpt lat="43.6152632" lon="13.1887053"><ele>164.79999999999998</ele><time>2026-04-19T07:44:11.275Z</time></trkpt><trkpt lat="43.6151825" lon="13.1886754"><ele>166.2</ele><time>2026-04-19T07:44:12.276Z</time></trkpt><trkpt lat="43.6150953" lon="13.188643"><ele>167.6</ele><time>2026-04-19T07:44:13.275Z</time></trkpt><trkpt lat="43.6150004" lon="13.1886072"><ele>169.0</ele><time>2026-04-19T07:44:14.275Z</time></trkpt><trkpt lat="43.6149029" lon="13.1885648"><ele>169.0</ele><time>2026-04-19T07:44:15.275Z</time></trkpt><trkpt lat="43.6148025" lon="13.1885133"><ele>169.0</ele><time>2026-04-19T07:44:16.274Z</time></trkpt><trkpt lat="43.6146973" lon="13.1884581"><ele>169.0</ele><time>2026-04-19T07:44:17.273Z</time></trkpt><trkpt lat="43.6145868" lon="13.1883958"><ele>169.0</ele><time>2026-04-19T07:44:18.274Z</time></trkpt><trkpt lat="43.6144762" lon="13.188326"><ele>169.0</ele><time>2026-04-19T07:44:19.274Z</time></trkpt><trkpt lat="43.6143638" lon="13.1882548"><ele>169.0</ele><time>2026-04-19T07:44:20.274Z</time></trkpt><trkpt lat="43.6142562" lon="13.1881847"><ele>169.0</ele><time>2026-04-19T07:44:21.275Z</time></trkpt><trkpt lat="43.6141556" lon="13.1881127"><ele>169.0</ele><time>2026-04-19T07:44:22.274Z</time></trkpt><trkpt lat="43.6140665" lon="13.188038"><ele>168.79999999999998</ele><time>2026-04-19T07:44:23.275Z</time></trkpt><trkpt lat="43.6139811" lon="13.1879612"><ele>168.6</ele><time>2026-04-19T07:44:24.274Z</time></trkpt><trkpt lat="43.6138961" lon="13.1878791"><ele>168.4</ele><time>2026-04-19T07:44:25.275Z</time></trkpt><trkpt lat="43.6138127" lon="13.1877891"><ele>168.2</ele><time>2026-04-19T07:44:26.275Z</time></trkpt><trkpt lat="43.6137286" lon="13.1876947"><ele>168.0</ele><time>2026-04-19T07:44:27.273Z</time></trkpt><trkpt lat="43.6136393" lon="13.1875961"><ele>168.25</ele><time>2026-04-19T07:44:28.275Z</time></trkpt><trkpt lat="43.613552" lon="13.1874979"><ele>168.5</ele><time>2026-04-19T07:44:29.274Z</time></trkpt><trkpt lat="43.613463" lon="13.1873987"><ele>168.75</ele><time>2026-04-19T07:44:30.275Z</time></trkpt><trkpt lat="43.6133733" lon="13.1872999"><ele>169.0</ele><time>2026-04-19T07:44:31.275Z</time></trkpt><trkpt lat="43.6132829" lon="13.18721"><ele>169.0</ele><time>2026-04-19T07:44:32.274Z</time></trkpt><trkpt lat="43.6131982" lon="13.1871398"><ele>169.0</ele><time>2026-04-19T07:44:33.274Z</time></trkpt><trkpt lat="43.6131133" lon="13.1870889"><ele>169.0</ele><time>2026-04-19T07:44:34.275Z</time></trkpt><trkpt lat="43.613033" lon="13.1870624"><ele>169.0</ele><time>2026-04-19T07:44:35.275Z</time></trkpt><trkpt lat="43.612952" lon="13.1870506"><ele>169.0</ele><time>2026-04-19T07:44:36.275Z</time></trkpt><trkpt lat="43.6128596" lon="13.1870535"><ele>169.0</ele><time>2026-04-19T07:44:37.275Z</time></trkpt><trkpt lat="43.6127605" lon="13.1870759"><ele>169.0</ele><time>2026-04-19T07:44:38.275Z</time></trkpt><trkpt lat="43.6126566" lon="13.1871148"><ele>169.0</ele><time>2026-04-19T07:44:39.274Z</time></trkpt><trkpt lat="43.6125467" lon="13.1871691"><ele>169.0</ele><time>2026-04-19T07:44:40.275Z</time></trkpt><trkpt lat="43.6124357" lon="13.1872333"><ele>169.0</ele><time>2026-04-19T07:44:41.274Z</time></trkpt><trkpt lat="43.6123273" lon="13.1873126"><ele>168.5</ele><time>2026-04-19T07:44:42.275Z</time></trkpt><trkpt lat="43.6122249" lon="13.1873883"><ele>168.0</ele><time>2026-04-19T07:44:43.275Z</time></trkpt><trkpt lat="43.6121232" lon="13.1874684"><ele>167.5</ele><time>2026-04-19T07:44:44.274Z</time></trkpt><trkpt lat="43.6120194" lon="13.1875486"><ele>167.0</ele><time>2026-04-19T07:44:45.274Z</time></trkpt><trkpt lat="43.611911" lon="13.1876078"><ele>167.0</ele><time>2026-04-19T07:44:46.275Z</time></trkpt><trkpt lat="43.6117967" lon="13.1876653"><ele>167.0</ele><time>2026-04-19T07:44:47.275Z</time></trkpt><trkpt lat="43.6116801" lon="13.1877092"><ele>167.0</ele><time>2026-04-19T07:44:48.275Z</time></trkpt><trkpt lat="43.6115583" lon="13.1877118"><ele>167.0</ele><time>2026-04-19T07:44:49.274Z</time></trkpt><trkpt lat="43.6114327" lon="13.1876922"><ele>167.0</ele><time>2026-04-19T07:44:50.275Z</time></trkpt><trkpt lat="43.6113087" lon="13.1876525"><ele>167.0</ele><time>2026-04-19T07:44:51.274Z</time></trkpt><trkpt lat="43.6111843" lon="13.1876006"><ele>167.0</ele><time>2026-04-19T07:44:52.275Z</time></trkpt><trkpt lat="43.6110628" lon="13.1875547"><ele>167.0</ele><time>2026-04-19T07:44:53.273Z</time></trkpt><trkpt lat="43.6109437" lon="13.1875081"><ele>167.5</ele><time>2026-04-19T07:44:54.274Z</time></trkpt><trkpt lat="43.6108315" lon="13.1874608"><ele>168.0</ele><time>2026-04-19T07:44:55.275Z</time></trkpt><trkpt lat="43.6107244" lon="13.1874151"><ele>168.5</ele><time>2026-04-19T07:44:56.275Z</time></trkpt><trkpt lat="43.61061" lon="13.187366"><ele>169.0</ele><time>2026-04-19T07:44:57.275Z</time></trkpt><trkpt lat="43.6104937" lon="13.187312"><ele>168.25</ele><time>2026-04-19T07:44:58.275Z</time></trkpt><trkpt lat="43.6103774" lon="13.187254"><ele>167.5</ele><time>2026-04-19T07:44:59.275Z</time></trkpt><trkpt lat="43.6102659" lon="13.1871967"><ele>166.75</ele><time>2026-04-19T07:45:00.275Z</time></trkpt><trkpt lat="43.6101534" lon="13.1871368"><ele>166.0</ele><time>2026-04-19T07:45:01.274Z</time></trkpt><trkpt lat="43.6100421" lon="13.187074"><ele>166.0</ele><time>2026-04-19T07:45:02.275Z</time></trkpt><trkpt lat="43.6099329" lon="13.1870116"><ele>166.0</ele><time>2026-04-19T07:45:03.275Z</time></trkpt><trkpt lat="43.6098248" lon="13.1869474"><ele>166.0</ele><time>2026-04-19T07:45:04.275Z</time></trkpt><trkpt lat="43.6097183" lon="13.186888"><ele>166.0</ele><time>2026-04-19T07:45:05.275Z</time></trkpt><trkpt lat="43.6096118" lon="13.1868392"><ele>166.0</ele><time>2026-04-19T07:45:06.275Z</time></trkpt><trkpt lat="43.6095025" lon="13.1867992"><ele>166.0</ele><time>2026-04-19T07:45:07.275Z</time></trkpt><trkpt lat="43.6093859" lon="13.1867662"><ele>166.0</ele><time>2026-04-19T07:45:08.275Z</time></trkpt><trkpt lat="43.6092618" lon="13.1867386"><ele>166.0</ele><time>2026-04-19T07:45:09.275Z</time></trkpt><trkpt lat="43.6091324" lon="13.1867128"><ele>165.5</ele><time>2026-04-19T07:45:10.275Z</time></trkpt><trkpt lat="43.6089974" lon="13.1866863"><ele>165.0</ele><time>2026-04-19T07:45:11.274Z</time></trkpt><trkpt lat="43.6088586" lon="13.1866564"><ele>164.5</ele><time>2026-04-19T07:45:12.274Z</time></trkpt><trkpt lat="43.6087193" lon="13.1866259"><ele>164.0</ele><time>2026-04-19T07:45:13.275Z</time></trkpt><trkpt lat="43.608574" lon="13.186602"><ele>164.0</ele><time>2026-04-19T07:45:14.274Z</time></trkpt><trkpt lat="43.608422" lon="13.1865828"><ele>164.0</ele><time>2026-04-19T07:45:15.274Z</time></trkpt><trkpt lat="43.608266" lon="13.1865499"><ele>164.0</ele><time>2026-04-19T07:45:16.274Z</time></trkpt><trkpt lat="43.6081043" lon="13.1864945"><ele>163.66666666666666</ele><time>2026-04-19T07:45:17.275Z</time></trkpt><trkpt lat="43.6079473" lon="13.1864132"><ele>163.33333333333334</ele><time>2026-04-19T07:45:18.274Z</time></trkpt><trkpt lat="43.6078006" lon="13.1863083"><ele>163.0</ele><time>2026-04-19T07:45:19.275Z</time></trkpt><trkpt lat="43.6076677" lon="13.1861961"><ele>163.0</ele><time>2026-04-19T07:45:20.275Z</time></trkpt><trkpt lat="43.6075369" lon="13.1860785"><ele>163.0</ele><time>2026-04-19T07:45:21.275Z</time></trkpt><trkpt lat="43.6074086" lon="13.1859647"><ele>163.0</ele><time>2026-04-19T07:45:22.274Z</time></trkpt><trkpt lat="43.6072791" lon="13.185853"><ele>163.0</ele><time>2026-04-19T07:45:23.275Z</time></trkpt><trkpt lat="43.6071509" lon="13.1857439"><ele>163.0</ele><time>2026-04-19T07:45:24.275Z</time></trkpt><trkpt lat="43.6070275" lon="13.1856456"><ele>163.0</ele><time>2026-04-19T07:45:25.275Z</time></trkpt><trkpt lat="43.6069098" lon="13.18556"><ele>163.0</ele><time>2026-04-19T07:45:26.275Z</time></trkpt><trkpt lat="43.6067893" lon="13.18549"><ele>164.75</ele><time>2026-04-19T07:45:27.275Z</time></trkpt><trkpt lat="43.606669" lon="13.1854385"><ele>166.5</ele><time>2026-04-19T07:45:28.275Z</time></trkpt><trkpt lat="43.6065421" lon="13.1854012"><ele>168.25</ele><time>2026-04-19T07:45:29.273Z</time></trkpt><trkpt lat="43.6064119" lon="13.1853807"><ele>170.0</ele><time>2026-04-19T07:45:30.275Z</time></trkpt><trkpt lat="43.6062781" lon="13.1853693"><ele>172.25</ele><time>2026-04-19T07:45:31.274Z</time></trkpt><trkpt lat="43.6061473" lon="13.1853612"><ele>174.5</ele><time>2026-04-19T07:45:32.275Z</time></trkpt><trkpt lat="43.6060157" lon="13.1853563"><ele>176.75</ele><time>2026-04-19T07:45:33.275Z</time></trkpt><trkpt lat="43.6058836" lon="13.1853525"><ele>179.0</ele><time>2026-04-19T07:45:34.274Z</time></trkpt><trkpt lat="43.6057505" lon="13.1853496"><ele>179.0</ele><time>2026-04-19T07:45:35.274Z</time></trkpt><trkpt lat="43.6056175" lon="13.1853391"><ele>179.0</ele><time>2026-04-19T07:45:36.275Z</time></trkpt><trkpt lat="43.6054953" lon="13.1853079"><ele>179.0</ele><time>2026-04-19T07:45:37.273Z</time></trkpt><trkpt lat="43.6053808" lon="13.1852574"><ele>179.0</ele><time>2026-04-19T07:45:38.275Z</time></trkpt><trkpt lat="43.6052691" lon="13.1851906"><ele>178.79999999999998</ele><time>2026-04-19T07:45:39.275Z</time></trkpt><trkpt lat="43.6051658" lon="13.1851152"><ele>178.6</ele><time>2026-04-19T07:45:40.275Z</time></trkpt><trkpt lat="43.6050742" lon="13.1850387"><ele>178.4</ele><time>2026-04-19T07:45:41.274Z</time></trkpt><trkpt lat="43.6049893" lon="13.1849643"><ele>178.2</ele><time>2026-04-19T07:45:42.275Z</time></trkpt><trkpt lat="43.6049104" lon="13.1848921"><ele>178.0</ele><time>2026-04-19T07:45:43.275Z</time></trkpt><trkpt lat="43.6048318" lon="13.1848155"><ele>178.0</ele><time>2026-04-19T07:45:44.275Z</time></trkpt><trkpt lat="43.6047597" lon="13.1847385"><ele>178.0</ele><time>2026-04-19T07:45:45.274Z</time></trkpt><trkpt lat="43.6046875" lon="13.1846458"><ele>178.0</ele><time>2026-04-19T07:45:46.274Z</time></trkpt><trkpt lat="43.6046203" lon="13.1845343"><ele>178.0</ele><time>2026-04-19T07:45:47.275Z</time></trkpt><trkpt lat="43.604558" lon="13.1844108"><ele>178.0</ele><time>2026-04-19T07:45:48.274Z</time></trkpt><trkpt lat="43.6045053" lon="13.1842924"><ele>179.0</ele><time>2026-04-19T07:45:49.275Z</time></trkpt><trkpt lat="43.6044568" lon="13.1841765"><ele>180.0</ele><time>2026-04-19T07:45:50.275Z</time></trkpt><trkpt lat="43.604411" lon="13.1840637"><ele>181.0</ele><time>2026-04-19T07:45:51.273Z</time></trkpt><trkpt lat="43.6043671" lon="13.1839472"><ele>182.0</ele><time>2026-04-19T07:45:52.275Z</time></trkpt><trkpt lat="43.6043263" lon="13.1838369"><ele>183.0</ele><time>2026-04-19T07:45:53.275Z</time></trkpt><trkpt lat="43.604286" lon="13.1837332"><ele>183.0</ele><time>2026-04-19T07:45:54.274Z</time></trkpt><trkpt lat="43.60425" lon="13.1836375"><ele>183.0</ele><time>2026-04-19T07:45:55.275Z</time></trkpt><trkpt lat="43.6042154" lon="13.1835534"><ele>183.0</ele><time>2026-04-19T07:45:56.275Z</time></trkpt><trkpt lat="43.6041794" lon="13.1834699"><ele>183.0</ele><time>2026-04-19T07:45:57.274Z</time></trkpt><trkpt lat="43.604141" lon="13.1833948"><ele>183.0</ele><time>2026-04-19T07:45:58.273Z</time></trkpt><trkpt lat="43.6040989" lon="13.183318"><ele>183.0</ele><time>2026-04-19T07:45:59.275Z</time></trkpt><trkpt lat="43.6040489" lon="13.1832482"><ele>183.0</ele><time>2026-04-19T07:46:00.275Z</time></trkpt><trkpt lat="43.6039893" lon="13.1831866"><ele>183.2</ele><time>2026-04-19T07:46:01.275Z</time></trkpt><trkpt lat="43.6039169" lon="13.1831391"><ele>183.4</ele><time>2026-04-19T07:46:02.275Z</time></trkpt><trkpt lat="43.6038357" lon="13.1831161"><ele>183.6</ele><time>2026-04-19T07:46:03.274Z</time></trkpt><trkpt lat="43.6037426" lon="13.1831099"><ele>183.79999999999998</ele><time>2026-04-19T07:46:04.275Z</time></trkpt><trkpt lat="43.6036398" lon="13.1831149"><ele>184.0</ele><time>2026-04-19T07:46:05.275Z</time></trkpt><trkpt lat="43.603534" lon="13.1831248"><ele>185.39999999999998</ele><time>2026-04-19T07:46:06.274Z</time></trkpt><trkpt lat="43.6034299" lon="13.1831263"><ele>186.8</ele><time>2026-04-19T07:46:07.274Z</time></trkpt><trkpt lat="43.6033233" lon="13.1831303"><ele>188.2</ele><time>2026-04-19T07:46:08.275Z</time></trkpt><trkpt lat="43.6032207" lon="13.1831337"><ele>189.60000000000002</ele><time>2026-04-19T07:46:09.275Z</time></trkpt><trkpt lat="43.603119" lon="13.1831404"><ele>191.0</ele><time>2026-04-19T07:46:10.274Z</time></trkpt><trkpt lat="43.6030181" lon="13.1831526"><ele>191.0</ele><time>2026-04-19T07:46:11.275Z</time></trkpt><trkpt lat="43.6029155" lon="13.1831637"><ele>191.0</ele><time>2026-04-19T07:46:12.274Z</time></trkpt><trkpt lat="43.6028065" lon="13.1831595"><ele>191.0</ele><time>2026-04-19T07:46:13.275Z</time></trkpt><trkpt lat="43.602697" lon="13.1831552"><ele>191.0</ele><time>2026-04-19T07:46:14.274Z</time></trkpt><trkpt lat="43.6025921" lon="13.1831302"><ele>191.0</ele><time>2026-04-19T07:46:15.275Z</time></trkpt><trkpt lat="43.602498" lon="13.1830861"><ele>190.33333333333331</ele><time>2026-04-19T07:46:16.275Z</time></trkpt><trkpt lat="43.6024113" lon="13.1830317"><ele>189.66666666666666</ele><time>2026-04-19T07:46:17.275Z</time></trkpt><trkpt lat="43.6023305" lon="13.1829858"><ele>189.0</ele><time>2026-04-19T07:46:18.275Z</time></trkpt><trkpt lat="43.6022554" lon="13.182963"><ele>188.33333333333334</ele><time>2026-04-19T07:46:19.274Z</time></trkpt><trkpt lat="43.6021796" lon="13.1829529"><ele>187.66666666666669</ele><time>2026-04-19T07:46:20.274Z</time></trkpt><trkpt lat="43.602107" lon="13.1829633"><ele>187.0</ele><time>2026-04-19T07:46:21.274Z</time></trkpt><trkpt lat="43.6020315" lon="13.1829897"><ele>187.0</ele><time>2026-04-19T07:46:22.274Z</time></trkpt><trkpt lat="43.6019502" lon="13.1830258"><ele>187.0</ele><time>2026-04-19T07:46:23.275Z</time></trkpt><trkpt lat="43.6018597" lon="13.1830527"><ele>187.0</ele><time>2026-04-19T07:46:24.275Z</time></trkpt><trkpt lat="43.6017673" lon="13.1830563"><ele>187.0</ele><time>2026-04-19T07:46:25.274Z</time></trkpt><trkpt lat="43.6016793" lon="13.1830315"><ele>187.0</ele><time>2026-04-19T07:46:26.275Z</time></trkpt><trkpt lat="43.6015945" lon="13.1829777"><ele>187.0</ele><time>2026-04-19T07:46:27.275Z</time></trkpt><trkpt lat="43.6015216" lon="13.1829021"><ele>187.0</ele><time>2026-04-19T07:46:28.274Z</time></trkpt><trkpt lat="43.601451" lon="13.1828172"><ele>187.0</ele><time>2026-04-19T07:46:29.274Z</time></trkpt><trkpt lat="43.6013863" lon="13.1827286"><ele>187.0</ele><time>2026-04-19T07:46:30.275Z</time></trkpt><trkpt lat="43.6013284" lon="13.1826448"><ele>187.0</ele><time>2026-04-19T07:46:31.274Z</time></trkpt><trkpt lat="43.6012688" lon="13.1825575"><ele>187.0</ele><time>2026-04-19T07:46:32.275Z</time></trkpt><trkpt lat="43.6012112" lon="13.1824681"><ele>186.66666666666669</ele><time>2026-04-19T07:46:33.274Z</time></trkpt><trkpt lat="43.6011643" lon="13.1823893"><ele>186.33333333333334</ele><time>2026-04-19T07:46:34.275Z</time></trkpt><trkpt lat="43.601114" lon="13.1823055"><ele>186.0</ele><time>2026-04-19T07:46:35.274Z</time></trkpt><trkpt lat="43.6010584" lon="13.1822138"><ele>185.66666666666666</ele><time>2026-04-19T07:46:36.274Z</time></trkpt><trkpt lat="43.6009989" lon="13.1821179"><ele>185.33333333333331</ele><time>2026-04-19T07:46:37.275Z</time></trkpt><trkpt lat="43.6009448" lon="13.1820323"><ele>185.0</ele><time>2026-04-19T07:46:38.274Z</time></trkpt><trkpt lat="43.600893" lon="13.1819547"><ele>186.16666666666666</ele><time>2026-04-19T07:46:39.275Z</time></trkpt><trkpt lat="43.6008348" lon="13.1818783"><ele>187.33333333333331</ele><time>2026-04-19T07:46:40.274Z</time></trkpt><trkpt lat="43.6007739" lon="13.1818039"><ele>188.5</ele><time>2026-04-19T07:46:41.275Z</time></trkpt><trkpt lat="43.6007089" lon="13.1817309"><ele>189.66666666666666</ele><time>2026-04-19T07:46:42.274Z</time></trkpt><trkpt lat="43.6006407" lon="13.1816458"><ele>190.83333333333334</ele><time>2026-04-19T07:46:43.274Z</time></trkpt><trkpt lat="43.600573" lon="13.1815616"><ele>192.0</ele><time>2026-04-19T07:46:44.275Z</time></trkpt><trkpt lat="43.6005137" lon="13.1814734"><ele>192.0</ele><time>2026-04-19T07:46:45.275Z</time></trkpt><trkpt lat="43.6004547" lon="13.1813726"><ele>192.0</ele><time>2026-04-19T07:46:46.274Z</time></trkpt><trkpt lat="43.600395" lon="13.1812611"><ele>192.0</ele><time>2026-04-19T07:46:47.275Z</time></trkpt><trkpt lat="43.600339" lon="13.1811376"><ele>192.0</ele><time>2026-04-19T07:46:48.275Z</time></trkpt><trkpt lat="43.6002868" lon="13.1810152"><ele>192.0</ele><time>2026-04-19T07:46:49.275Z</time></trkpt><trkpt lat="43.6002423" lon="13.1808867"><ele>192.2</ele><time>2026-04-19T07:46:50.274Z</time></trkpt><trkpt lat="43.6002015" lon="13.1807567"><ele>192.39999999999998</ele><time>2026-04-19T07:46:51.274Z</time></trkpt><trkpt lat="43.6001646" lon="13.1806285"><ele>192.60000000000002</ele><time>2026-04-19T07:46:52.275Z</time></trkpt><trkpt lat="43.60013" lon="13.180498"><ele>192.8</ele><time>2026-04-19T07:46:53.275Z</time></trkpt><trkpt lat="43.6000973" lon="13.1803662"><ele>193.0</ele><time>2026-04-19T07:46:54.275Z</time></trkpt><trkpt lat="43.6000617" lon="13.1802279"><ele>193.2</ele><time>2026-04-19T07:46:55.274Z</time></trkpt><trkpt lat="43.6000187" lon="13.1800912"><ele>193.4</ele><time>2026-04-19T07:46:56.274Z</time></trkpt><trkpt lat="43.599968" lon="13.1799587"><ele>193.6</ele><time>2026-04-19T07:46:57.275Z</time></trkpt><trkpt lat="43.5999052" lon="13.1798362"><ele>193.79999999999998</ele><time>2026-04-19T07:46:58.275Z</time></trkpt><trkpt lat="43.5998273" lon="13.1797322"><ele>194.0</ele><time>2026-04-19T07:46:59.275Z</time></trkpt><trkpt lat="43.5997366" lon="13.1796442"><ele>192.75</ele><time>2026-04-19T07:47:00.274Z</time></trkpt><trkpt lat="43.599634" lon="13.1795686"><ele>191.5</ele><time>2026-04-19T07:47:01.273Z</time></trkpt><trkpt lat="43.5995268" lon="13.1795016"><ele>190.25</ele><time>2026-04-19T07:47:02.274Z</time></trkpt><trkpt lat="43.5994179" lon="13.1794371"><ele>189.0</ele><time>2026-04-19T07:47:03.275Z</time></trkpt><trkpt lat="43.5993056" lon="13.1793644"><ele>189.0</ele><time>2026-04-19T07:47:04.275Z</time></trkpt><trkpt lat="43.5991979" lon="13.1792849"><ele>189.0</ele><time>2026-04-19T07:47:05.274Z</time></trkpt><trkpt lat="43.5990926" lon="13.179202"><ele>189.0</ele><time>2026-04-19T07:47:06.275Z</time></trkpt><trkpt lat="43.5989893" lon="13.1791237"><ele>189.0</ele><time>2026-04-19T07:47:07.275Z</time></trkpt><trkpt lat="43.5988884" lon="13.1790457"><ele>188.5</ele><time>2026-04-19T07:47:08.274Z</time></trkpt><trkpt lat="43.5987904" lon="13.1789681"><ele>188.0</ele><time>2026-04-19T07:47:09.275Z</time></trkpt><trkpt lat="43.5987009" lon="13.1788988"><ele>187.5</ele><time>2026-04-19T07:47:10.274Z</time></trkpt><trkpt lat="43.598601" lon="13.1788145"><ele>187.0</ele><time>2026-04-19T07:47:11.275Z</time></trkpt><trkpt lat="43.5985001" lon="13.1787271"><ele>187.0</ele><time>2026-04-19T07:47:12.275Z</time></trkpt><trkpt lat="43.5983938" lon="13.1786416"><ele>187.0</ele><time>2026-04-19T07:47:13.274Z</time></trkpt><trkpt lat="43.5982851" lon="13.1785534"><ele>187.0</ele><time>2026-04-19T07:47:14.275Z</time></trkpt><trkpt lat="43.5981778" lon="13.1784668"><ele>187.0</ele><time>2026-04-19T07:47:15.273Z</time></trkpt><trkpt lat="43.598069" lon="13.1783836"><ele>187.0</ele><time>2026-04-19T07:47:16.273Z</time></trkpt><trkpt lat="43.5979552" lon="13.1783012"><ele>187.0</ele><time>2026-04-19T07:47:17.274Z</time></trkpt><trkpt lat="43.5978237" lon="13.1782108"><ele>187.0</ele><time>2026-04-19T07:47:18.275Z</time></trkpt><trkpt lat="43.597695" lon="13.1781223"><ele>187.0</ele><time>2026-04-19T07:47:19.274Z</time></trkpt><trkpt lat="43.5975746" lon="13.1780361"><ele>186.75</ele><time>2026-04-19T07:47:20.273Z</time></trkpt><trkpt lat="43.5974602" lon="13.1779373"><ele>186.5</ele><time>2026-04-19T07:47:21.274Z</time></trkpt><trkpt lat="43.5973519" lon="13.1778298"><ele>186.25</ele><time>2026-04-19T07:47:22.275Z</time></trkpt><trkpt lat="43.597246" lon="13.177706"><ele>186.0</ele><time>2026-04-19T07:47:23.275Z</time></trkpt><trkpt lat="43.59714" lon="13.1775721"><ele>186.0</ele><time>2026-04-19T07:47:24.275Z</time></trkpt><trkpt lat="43.5970342" lon="13.1774396"><ele>186.0</ele><time>2026-04-19T07:47:25.275Z</time></trkpt><trkpt lat="43.5969233" lon="13.1773183"><ele>186.0</ele><time>2026-04-19T07:47:26.275Z</time></trkpt><trkpt lat="43.5968143" lon="13.1771967"><ele>186.0</ele><time>2026-04-19T07:47:27.275Z</time></trkpt><trkpt lat="43.5967128" lon="13.1770764"><ele>188.0</ele><time>2026-04-19T07:47:28.275Z</time></trkpt><trkpt lat="43.5966147" lon="13.1769537"><ele>190.0</ele><time>2026-04-19T07:47:29.275Z</time></trkpt><trkpt lat="43.5965159" lon="13.1768228"><ele>192.0</ele><time>2026-04-19T07:47:30.274Z</time></trkpt><trkpt lat="43.5964201" lon="13.1766893"><ele>194.0</ele><time>2026-04-19T07:47:31.274Z</time></trkpt><trkpt lat="43.5963383" lon="13.1765423"><ele>193.5</ele><time>2026-04-19T07:47:32.274Z</time></trkpt><trkpt lat="43.5962582" lon="13.1763981"><ele>193.0</ele><time>2026-04-19T07:47:33.274Z</time></trkpt><trkpt lat="43.5961789" lon="13.1762547"><ele>192.5</ele><time>2026-04-19T07:47:34.274Z</time></trkpt><trkpt lat="43.5960982" lon="13.1761128"><ele>192.0</ele><time>2026-04-19T07:47:35.274Z</time></trkpt><trkpt lat="43.5960189" lon="13.1759798"><ele>192.25</ele><time>2026-04-19T07:47:36.275Z</time></trkpt><trkpt lat="43.5959383" lon="13.1758341"><ele>192.5</ele><time>2026-04-19T07:47:37.275Z</time></trkpt><trkpt lat="43.5958512" lon="13.1757077"><ele>192.75</ele><time>2026-04-19T07:47:38.274Z</time></trkpt><trkpt lat="43.5957489" lon="13.1755804"><ele>193.0</ele><time>2026-04-19T07:47:39.274Z</time></trkpt><trkpt lat="43.5956461" lon="13.1754616"><ele>193.0</ele><time>2026-04-19T07:47:40.275Z</time></trkpt><trkpt lat="43.5955343" lon="13.1753476"><ele>193.0</ele><time>2026-04-19T07:47:41.275Z</time></trkpt><trkpt lat="43.5954093" lon="13.1752253"><ele>193.0</ele><time>2026-04-19T07:47:42.275Z</time></trkpt><trkpt lat="43.595284" lon="13.1750978"><ele>193.0</ele><time>2026-04-19T07:47:43.275Z</time></trkpt><trkpt lat="43.5951751" lon="13.1749765"><ele>195.5</ele><time>2026-04-19T07:47:44.274Z</time></trkpt><trkpt lat="43.5950824" lon="13.1748539"><ele>198.0</ele><time>2026-04-19T07:47:45.274Z</time></trkpt><trkpt lat="43.5949847" lon="13.1747411"><ele>200.5</ele><time>2026-04-19T07:47:46.275Z</time></trkpt><trkpt lat="43.594905" lon="13.1746435"><ele>203.0</ele><time>2026-04-19T07:47:47.274Z</time></trkpt><trkpt lat="43.5948238" lon="13.1745453"><ele>203.0</ele><time>2026-04-19T07:47:48.275Z</time></trkpt><trkpt lat="43.5947424" lon="13.1744429"><ele>203.0</ele><time>2026-04-19T07:47:49.274Z</time></trkpt><trkpt lat="43.5946611" lon="13.1743297"><ele>203.0</ele><time>2026-04-19T07:47:50.274Z</time></trkpt><trkpt lat="43.5945744" lon="13.1742042"><ele>203.0</ele><time>2026-04-19T07:47:51.275Z</time></trkpt><trkpt lat="43.5944815" lon="13.1740784"><ele>204.0</ele><time>2026-04-19T07:47:52.275Z</time></trkpt><trkpt lat="43.5943794" lon="13.1739497"><ele>205.0</ele><time>2026-04-19T07:47:53.275Z</time></trkpt><trkpt lat="43.5942691" lon="13.1738198"><ele>206.0</ele><time>2026-04-19T07:47:54.275Z</time></trkpt><trkpt lat="43.5941536" lon="13.1736909"><ele>207.0</ele><time>2026-04-19T07:47:55.274Z</time></trkpt><trkpt lat="43.5940319" lon="13.1735651"><ele>207.0</ele><time>2026-04-19T07:47:56.274Z</time></trkpt><trkpt lat="43.5939041" lon="13.1734524"><ele>207.0</ele><time>2026-04-19T07:47:57.274Z</time></trkpt><trkpt lat="43.5937728" lon="13.1733568"><ele>207.0</ele><time>2026-04-19T07:47:58.274Z</time></trkpt><trkpt lat="43.5936386" lon="13.1732769"><ele>207.0</ele><time>2026-04-19T07:47:59.275Z</time></trkpt><trkpt lat="43.5935062" lon="13.1732117"><ele>210.75</ele><time>2026-04-19T07:48:00.275Z</time></trkpt><trkpt lat="43.5933836" lon="13.1731532"><ele>214.5</ele><time>2026-04-19T07:48:01.274Z</time></trkpt><trkpt lat="43.5932613" lon="13.1731153"><ele>218.25</ele><time>2026-04-19T07:48:02.275Z</time></trkpt><trkpt lat="43.5931353" lon="13.1731087"><ele>222.0</ele><time>2026-04-19T07:48:03.275Z</time></trkpt><trkpt lat="43.593023" lon="13.1731243"><ele>222.0</ele><time>2026-04-19T07:48:04.273Z</time></trkpt><trkpt lat="43.5929118" lon="13.1731414"><ele>222.0</ele><time>2026-04-19T07:48:05.273Z</time></trkpt><trkpt lat="43.5928013" lon="13.1731344"><ele>222.0</ele><time>2026-04-19T07:48:06.275Z</time></trkpt><trkpt lat="43.5927051" lon="13.1731022"><ele>222.0</ele><time>2026-04-19T07:48:07.275Z</time></trkpt><trkpt lat="43.5926203" lon="13.1730543"><ele>222.0</ele><time>2026-04-19T07:48:08.273Z</time></trkpt><trkpt lat="43.5925468" lon="13.1729902"><ele>222.16666666666666</ele><time>2026-04-19T07:48:09.274Z</time></trkpt><trkpt lat="43.5924764" lon="13.1729227"><ele>222.33333333333331</ele><time>2026-04-19T07:48:10.275Z</time></trkpt><trkpt lat="43.5924096" lon="13.1728457"><ele>222.5</ele><time>2026-04-19T07:48:11.275Z</time></trkpt><trkpt lat="43.5923444" lon="13.1727656"><ele>222.66666666666666</ele><time>2026-04-19T07:48:12.274Z</time></trkpt><trkpt lat="43.5922764" lon="13.1726827"><ele>222.83333333333331</ele><time>2026-04-19T07:48:13.275Z</time></trkpt><trkpt lat="43.5922078" lon="13.1725933"><ele>223.0</ele><time>2026-04-19T07:48:14.274Z</time></trkpt><trkpt lat="43.592137" lon="13.1724981"><ele>223.0</ele><time>2026-04-19T07:48:15.275Z</time></trkpt><trkpt lat="43.5920673" lon="13.1723991"><ele>223.0</ele><time>2026-04-19T07:48:16.274Z</time></trkpt><trkpt lat="43.5919975" lon="13.1723131"><ele>223.0</ele><time>2026-04-19T07:48:17.274Z</time></trkpt><trkpt lat="43.5919276" lon="13.1722324"><ele>223.0</ele><time>2026-04-19T07:48:18.274Z</time></trkpt><trkpt lat="43.5918499" lon="13.1721448"><ele>223.0</ele><time>2026-04-19T07:48:19.275Z</time></trkpt><trkpt lat="43.5917614" lon="13.1720605"><ele>221.75</ele><time>2026-04-19T07:48:20.275Z</time></trkpt><trkpt lat="43.5916619" lon="13.1719825"><ele>220.5</ele><time>2026-04-19T07:48:21.275Z</time></trkpt><trkpt lat="43.5915547" lon="13.1719119"><ele>219.25</ele><time>2026-04-19T07:48:22.274Z</time></trkpt><trkpt lat="43.5914428" lon="13.1718424"><ele>218.0</ele><time>2026-04-19T07:48:23.274Z</time></trkpt><trkpt lat="43.5913311" lon="13.1717706"><ele>218.0</ele><time>2026-04-19T07:48:24.275Z</time></trkpt><trkpt lat="43.5912254" lon="13.1716951"><ele>218.0</ele><time>2026-04-19T07:48:25.275Z</time></trkpt><trkpt lat="43.5911262" lon="13.1716224"><ele>218.0</ele><time>2026-04-19T07:48:26.275Z</time></trkpt><trkpt lat="43.5910295" lon="13.1715529"><ele>218.0</ele><time>2026-04-19T07:48:27.274Z</time></trkpt><trkpt lat="43.5909359" lon="13.1714887"><ele>218.0</ele><time>2026-04-19T07:48:28.274Z</time></trkpt><trkpt lat="43.5908462" lon="13.1714255"><ele>215.8</ele><time>2026-04-19T07:48:29.274Z</time></trkpt><trkpt lat="43.5907567" lon="13.1713652"><ele>213.60000000000002</ele><time>2026-04-19T07:48:30.275Z</time></trkpt><trkpt lat="43.5906653" lon="13.1713093"><ele>211.39999999999998</ele><time>2026-04-19T07:48:31.275Z</time></trkpt><trkpt lat="43.59058" lon="13.1712541"><ele>209.2</ele><time>2026-04-19T07:48:32.273Z</time></trkpt><trkpt lat="43.5905026" lon="13.1712054"><ele>207.0</ele><time>2026-04-19T07:48:33.275Z</time></trkpt><trkpt lat="43.5904334" lon="13.171161"><ele>205.5</ele><time>2026-04-19T07:48:34.274Z</time></trkpt><trkpt lat="43.5903374" lon="13.1710898"><ele>204.0</ele><time>2026-04-19T07:48:36.273Z</time></trkpt><trkpt lat="43.5902765" lon="13.1710491"><ele>202.5</ele><time>2026-04-19T07:48:38.275Z</time></trkpt><trkpt lat="43.5901871" lon="13.1710556"><ele>201.0</ele><time>2026-04-19T07:48:40.274Z</time></trkpt><trkpt lat="43.5901216" lon="13.1711077"><ele>199.5</ele><time>2026-04-19T07:48:41.274Z</time></trkpt><trkpt lat="43.5900447" lon="13.1711664"><ele>198.0</ele><time>2026-04-19T07:48:42.274Z</time></trkpt><trkpt lat="43.5899429" lon="13.1711987"><ele>198.0</ele><time>2026-04-19T07:48:43.275Z</time></trkpt><trkpt lat="43.5898262" lon="13.1712093"><ele>198.0</ele><time>2026-04-19T07:48:44.274Z</time></trkpt><trkpt lat="43.5897058" lon="13.1712085"><ele>198.0</ele><time>2026-04-19T07:48:45.274Z</time></trkpt><trkpt lat="43.5895834" lon="13.1712106"><ele>198.0</ele><time>2026-04-19T07:48:46.275Z</time></trkpt><trkpt lat="43.5894596" lon="13.1712079"><ele>198.2</ele><time>2026-04-19T07:48:47.274Z</time></trkpt><trkpt lat="43.5893421" lon="13.1711975"><ele>198.4</ele><time>2026-04-19T07:48:48.275Z</time></trkpt><trkpt lat="43.5892305" lon="13.1711853"><ele>198.6</ele><time>2026-04-19T07:48:49.275Z</time></trkpt><trkpt lat="43.5891231" lon="13.1711707"><ele>198.79999999999998</ele><time>2026-04-19T07:48:50.275Z</time></trkpt><trkpt lat="43.5890163" lon="13.1711562"><ele>199.0</ele><time>2026-04-19T07:48:51.274Z</time></trkpt><trkpt lat="43.588909" lon="13.1711362"><ele>199.0</ele><time>2026-04-19T07:48:52.274Z</time></trkpt><trkpt lat="43.5888018" lon="13.1711154"><ele>199.0</ele><time>2026-04-19T07:48:53.275Z</time></trkpt><trkpt lat="43.5887003" lon="13.1710953"><ele>199.0</ele><time>2026-04-19T07:48:54.274Z</time></trkpt><trkpt lat="43.588607" lon="13.1710758"><ele>199.0</ele><time>2026-04-19T07:48:55.274Z</time></trkpt><trkpt lat="43.5885073" lon="13.1710554"><ele>199.0</ele><time>2026-04-19T07:48:56.274Z</time></trkpt><trkpt lat="43.5884064" lon="13.1710363"><ele>200.2</ele><time>2026-04-19T07:48:57.274Z</time></trkpt><trkpt lat="43.5883022" lon="13.1710134"><ele>201.39999999999998</ele><time>2026-04-19T07:48:58.275Z</time></trkpt><trkpt lat="43.5881968" lon="13.1709943"><ele>202.6</ele><time>2026-04-19T07:48:59.274Z</time></trkpt><trkpt lat="43.5880915" lon="13.1709791"><ele>203.8</ele><time>2026-04-19T07:49:00.275Z</time></trkpt><trkpt lat="43.5879833" lon="13.1709661"><ele>205.0</ele><time>2026-04-19T07:49:01.275Z</time></trkpt><trkpt lat="43.5878716" lon="13.1709565"><ele>205.75</ele><time>2026-04-19T07:49:02.274Z</time></trkpt><trkpt lat="43.5877564" lon="13.1709484"><ele>206.5</ele><time>2026-04-19T07:49:03.275Z</time></trkpt><trkpt lat="43.5876354" lon="13.1709389"><ele>207.25</ele><time>2026-04-19T07:49:04.275Z</time></trkpt><trkpt lat="43.5875105" lon="13.1709247"><ele>208.0</ele><time>2026-04-19T07:49:05.274Z</time></trkpt><trkpt lat="43.587382" lon="13.1709098"><ele>208.0</ele><time>2026-04-19T07:49:06.275Z</time></trkpt><trkpt lat="43.5872514" lon="13.1708941"><ele>208.0</ele><time>2026-04-19T07:49:07.275Z</time></trkpt><trkpt lat="43.5871179" lon="13.1708818"><ele>208.0</ele><time>2026-04-19T07:49:08.273Z</time></trkpt><trkpt lat="43.586989" lon="13.1708706"><ele>208.0</ele><time>2026-04-19T07:49:09.275Z</time></trkpt><trkpt lat="43.5868623" lon="13.170853"><ele>208.0</ele><time>2026-04-19T07:49:10.274Z</time></trkpt><trkpt lat="43.5867364" lon="13.170836"><ele>208.0</ele><time>2026-04-19T07:49:11.274Z</time></trkpt><trkpt lat="43.5866075" lon="13.1708124"><ele>208.0</ele><time>2026-04-19T07:49:12.275Z</time></trkpt><trkpt lat="43.586478" lon="13.170778"><ele>208.0</ele><time>2026-04-19T07:49:13.274Z</time></trkpt><trkpt lat="43.5863495" lon="13.1707319"><ele>209.0</ele><time>2026-04-19T07:49:14.275Z</time></trkpt><trkpt lat="43.586228" lon="13.1706736"><ele>210.0</ele><time>2026-04-19T07:49:15.275Z</time></trkpt><trkpt lat="43.5861174" lon="13.1706128"><ele>211.0</ele><time>2026-04-19T07:49:16.274Z</time></trkpt><trkpt lat="43.5860066" lon="13.1705389"><ele>212.0</ele><time>2026-04-19T07:49:17.275Z</time></trkpt><trkpt lat="43.5858956" lon="13.1704541"><ele>212.0</ele><time>2026-04-19T07:49:18.274Z</time></trkpt><trkpt lat="43.5857849" lon="13.1703627"><ele>212.0</ele><time>2026-04-19T07:49:19.275Z</time></trkpt><trkpt lat="43.5856751" lon="13.1702703"><ele>212.0</ele><time>2026-04-19T07:49:20.275Z</time></trkpt><trkpt lat="43.5855625" lon="13.1701788"><ele>212.0</ele><time>2026-04-19T07:49:21.275Z</time></trkpt><trkpt lat="43.5854475" lon="13.1700925"><ele>212.75</ele><time>2026-04-19T07:49:22.275Z</time></trkpt><trkpt lat="43.5853302" lon="13.1700107"><ele>213.5</ele><time>2026-04-19T07:49:23.275Z</time></trkpt><trkpt lat="43.5852108" lon="13.1699356"><ele>214.25</ele><time>2026-04-19T07:49:24.275Z</time></trkpt><trkpt lat="43.5850909" lon="13.1698664"><ele>215.0</ele><time>2026-04-19T07:49:25.275Z</time></trkpt><trkpt lat="43.5849718" lon="13.1698003"><ele>215.0</ele><time>2026-04-19T07:49:26.275Z</time></trkpt><trkpt lat="43.5848521" lon="13.1697361"><ele>215.0</ele><time>2026-04-19T07:49:27.275Z</time></trkpt><trkpt lat="43.5847303" lon="13.1696736"><ele>215.0</ele><time>2026-04-19T07:49:28.275Z</time></trkpt><trkpt lat="43.5846076" lon="13.1696156"><ele>215.0</ele><time>2026-04-19T07:49:29.274Z</time></trkpt><trkpt lat="43.5844862" lon="13.1695583"><ele>216.5</ele><time>2026-04-19T07:49:30.275Z</time></trkpt><trkpt lat="43.5843627" lon="13.1695013"><ele>218.0</ele><time>2026-04-19T07:49:31.275Z</time></trkpt><trkpt lat="43.5842392" lon="13.1694474"><ele>219.5</ele><time>2026-04-19T07:49:32.275Z</time></trkpt><trkpt lat="43.5841149" lon="13.1693906"><ele>221.0</ele><time>2026-04-19T07:49:33.274Z</time></trkpt><trkpt lat="43.5839916" lon="13.1693323"><ele>221.0</ele><time>2026-04-19T07:49:34.274Z</time></trkpt><trkpt lat="43.5838705" lon="13.1692755"><ele>221.0</ele><time>2026-04-19T07:49:35.274Z</time></trkpt><trkpt lat="43.5837526" lon="13.1692218"><ele>221.0</ele><time>2026-04-19T07:49:36.274Z</time></trkpt><trkpt lat="43.5836377" lon="13.1691712"><ele>221.0</ele><time>2026-04-19T07:49:37.275Z</time></trkpt><trkpt lat="43.5835276" lon="13.1691269"><ele>221.8</ele><time>2026-04-19T07:49:38.275Z</time></trkpt><trkpt lat="43.583423" lon="13.1690802"><ele>222.60000000000002</ele><time>2026-04-19T07:49:39.275Z</time></trkpt><trkpt lat="43.5833219" lon="13.1690355"><ele>223.4</ele><time>2026-04-19T07:49:40.273Z</time></trkpt><trkpt lat="43.5832299" lon="13.1689929"><ele>224.2</ele><time>2026-04-19T07:49:41.275Z</time></trkpt><trkpt lat="43.5831498" lon="13.1689589"><ele>225.0</ele><time>2026-04-19T07:49:42.275Z</time></trkpt><trkpt lat="43.5830809" lon="13.1689321"><ele>225.0</ele><time>2026-04-19T07:49:43.275Z</time></trkpt><trkpt lat="43.5829738" lon="13.1688803"><ele>225.0</ele><time>2026-04-19T07:49:45.275Z</time></trkpt><trkpt lat="43.5828735" lon="13.1688016"><ele>225.0</ele><time>2026-04-19T07:49:47.274Z</time></trkpt><trkpt lat="43.5828128" lon="13.1687348"><ele>225.0</ele><time>2026-04-19T07:49:48.275Z</time></trkpt><trkpt lat="43.5827429" lon="13.1686558"><ele>225.0</ele><time>2026-04-19T07:49:49.275Z</time></trkpt><trkpt lat="43.5826665" lon="13.1685741"><ele>225.6</ele><time>2026-04-19T07:49:50.275Z</time></trkpt><trkpt lat="43.5825903" lon="13.1684873"><ele>226.2</ele><time>2026-04-19T07:49:51.275Z</time></trkpt><trkpt lat="43.5825239" lon="13.1684015"><ele>226.8</ele><time>2026-04-19T07:49:52.274Z</time></trkpt><trkpt lat="43.5824523" lon="13.1683078"><ele>227.4</ele><time>2026-04-19T07:49:53.275Z</time></trkpt><trkpt lat="43.5823795" lon="13.1682105"><ele>228.0</ele><time>2026-04-19T07:49:54.275Z</time></trkpt><trkpt lat="43.5823032" lon="13.1681121"><ele>228.0</ele><time>2026-04-19T07:49:55.275Z</time></trkpt><trkpt lat="43.5822219" lon="13.1680156"><ele>228.0</ele><time>2026-04-19T07:49:56.275Z</time></trkpt><trkpt lat="43.5821395" lon="13.1679175"><ele>228.0</ele><time>2026-04-19T07:49:57.275Z</time></trkpt><trkpt lat="43.5820576" lon="13.1678121"><ele>228.0</ele><time>2026-04-19T07:49:58.275Z</time></trkpt><trkpt lat="43.5819743" lon="13.1677004"><ele>228.0</ele><time>2026-04-19T07:49:59.274Z</time></trkpt><trkpt lat="43.5818953" lon="13.1675939"><ele>229.2</ele><time>2026-04-19T07:50:00.274Z</time></trkpt><trkpt lat="43.5818211" lon="13.167495"><ele>230.4</ele><time>2026-04-19T07:50:01.274Z</time></trkpt><trkpt lat="43.5817517" lon="13.1674009"><ele>231.59999999999997</ele><time>2026-04-19T07:50:02.275Z</time></trkpt><trkpt lat="43.5816848" lon="13.1673126"><ele>232.79999999999998</ele><time>2026-04-19T07:50:03.275Z</time></trkpt><trkpt lat="43.5816224" lon="13.1672343"><ele>234.0</ele><time>2026-04-19T07:50:04.275Z</time></trkpt><trkpt lat="43.5815618" lon="13.1671712"><ele>234.0</ele><time>2026-04-19T07:50:05.274Z</time></trkpt><trkpt lat="43.5814959" lon="13.1671319"><ele>234.0</ele><time>2026-04-19T07:50:06.275Z</time></trkpt><trkpt lat="43.5814319" lon="13.1671332"><ele>234.0</ele><time>2026-04-19T07:50:07.275Z</time></trkpt><trkpt lat="43.5813241" lon="13.1672318"><ele>234.0</ele><time>2026-04-19T07:50:09.274Z</time></trkpt><trkpt lat="43.5812597" lon="13.1673001"><ele>234.0</ele><time>2026-04-19T07:50:10.275Z</time></trkpt><trkpt lat="43.5811845" lon="13.1673722"><ele>234.0</ele><time>2026-04-19T07:50:11.275Z</time></trkpt><trkpt lat="43.5811146" lon="13.1674442"><ele>234.5</ele><time>2026-04-19T07:50:12.274Z</time></trkpt><trkpt lat="43.5810481" lon="13.1675146"><ele>235.0</ele><time>2026-04-19T07:50:13.274Z</time></trkpt><trkpt lat="43.5809758" lon="13.1675863"><ele>235.5</ele><time>2026-04-19T07:50:14.275Z</time></trkpt><trkpt lat="43.5809" lon="13.1676545"><ele>236.0</ele><time>2026-04-19T07:50:15.275Z</time></trkpt><trkpt lat="43.5808276" lon="13.1677065"><ele>236.5</ele><time>2026-04-19T07:50:16.275Z</time></trkpt><trkpt lat="43.5807492" lon="13.1677373"><ele>237.0</ele><time>2026-04-19T07:50:17.274Z</time></trkpt><trkpt lat="43.5806628" lon="13.1677259"><ele>237.0</ele><time>2026-04-19T07:50:18.274Z</time></trkpt><trkpt lat="43.5805732" lon="13.1676848"><ele>237.0</ele><time>2026-04-19T07:50:19.275Z</time></trkpt><trkpt lat="43.5804846" lon="13.167627"><ele>237.0</ele><time>2026-04-19T07:50:20.275Z</time></trkpt><trkpt lat="43.5803875" lon="13.167564"><ele>237.0</ele><time>2026-04-19T07:50:21.275Z</time></trkpt><trkpt lat="43.5802854" lon="13.1674994"><ele>237.0</ele><time>2026-04-19T07:50:22.275Z</time></trkpt><trkpt lat="43.5801798" lon="13.1674303"><ele>238.75</ele><time>2026-04-19T07:50:23.273Z</time></trkpt><trkpt lat="43.5800759" lon="13.1673566"><ele>240.5</ele><time>2026-04-19T07:50:24.275Z</time></trkpt><trkpt lat="43.5799689" lon="13.1672847"><ele>242.25</ele><time>2026-04-19T07:50:25.275Z</time></trkpt><trkpt lat="43.5798646" lon="13.1672146"><ele>244.0</ele><time>2026-04-19T07:50:26.275Z</time></trkpt><trkpt lat="43.5797625" lon="13.167143"><ele>244.0</ele><time>2026-04-19T07:50:27.275Z</time></trkpt><trkpt lat="43.5796604" lon="13.1670709"><ele>243.99999999999997</ele><time>2026-04-19T07:50:28.274Z</time></trkpt><trkpt lat="43.5795604" lon="13.1669988"><ele>243.99999999999997</ele><time>2026-04-19T07:50:29.274Z</time></trkpt><trkpt lat="43.5794741" lon="13.1669377"><ele>244.0</ele><time>2026-04-19T07:50:30.275Z</time></trkpt><trkpt lat="43.5793968" lon="13.1668811"><ele>244.0</ele><time>2026-04-19T07:50:31.274Z</time></trkpt><trkpt lat="43.5793244" lon="13.1668273"><ele>243.33333333333331</ele><time>2026-04-19T07:50:32.275Z</time></trkpt><trkpt lat="43.5792519" lon="13.1667751"><ele>242.66666666666666</ele><time>2026-04-19T07:50:33.275Z</time></trkpt><trkpt lat="43.5791864" lon="13.1667265"><ele>242.0</ele><time>2026-04-19T07:50:34.274Z</time></trkpt><trkpt lat="43.5791222" lon="13.1666803"><ele>241.33333333333331</ele><time>2026-04-19T07:50:35.274Z</time></trkpt><trkpt lat="43.5790628" lon="13.1666403"><ele>240.66666666666666</ele><time>2026-04-19T07:50:36.275Z</time></trkpt><trkpt lat="43.5789627" lon="13.16657"><ele>240.0</ele><time>2026-04-19T07:50:38.275Z</time></trkpt><trkpt lat="43.5788587" lon="13.1664937"><ele>240.0</ele><time>2026-04-19T07:50:40.275Z</time></trkpt><trkpt lat="43.5787893" lon="13.1664402"><ele>240.0</ele><time>2026-04-19T07:50:41.274Z</time></trkpt><trkpt lat="43.5787186" lon="13.1663808"><ele>240.0</ele><time>2026-04-19T07:50:42.275Z</time></trkpt><trkpt lat="43.5786465" lon="13.1663013"><ele>240.0</ele><time>2026-04-19T07:50:43.274Z</time></trkpt><trkpt lat="43.5785833" lon="13.1661958"><ele>240.0</ele><time>2026-04-19T07:50:44.275Z</time></trkpt><trkpt lat="43.5785327" lon="13.1660658"><ele>236.25</ele><time>2026-04-19T07:50:45.275Z</time></trkpt><trkpt lat="43.5784977" lon="13.1659205"><ele>232.5</ele><time>2026-04-19T07:50:46.275Z</time></trkpt><trkpt lat="43.5784826" lon="13.1657593"><ele>228.75</ele><time>2026-04-19T07:50:47.275Z</time></trkpt><trkpt lat="43.5784815" lon="13.1655984"><ele>225.0</ele><time>2026-04-19T07:50:48.273Z</time></trkpt><trkpt lat="43.5784885" lon="13.1654273"><ele>223.75</ele><time>2026-04-19T07:50:49.274Z</time></trkpt><trkpt lat="43.5784984" lon="13.1652452"><ele>222.5</ele><time>2026-04-19T07:50:50.275Z</time></trkpt><trkpt lat="43.5785042" lon="13.1650705"><ele>221.25</ele><time>2026-04-19T07:50:51.275Z</time></trkpt><trkpt lat="43.5785127" lon="13.1648946"><ele>220.0</ele><time>2026-04-19T07:50:52.275Z</time></trkpt><trkpt lat="43.5785235" lon="13.1647128"><ele>218.75</ele><time>2026-04-19T07:50:53.275Z</time></trkpt><trkpt lat="43.5785302" lon="13.164528"><ele>217.5</ele><time>2026-04-19T07:50:54.275Z</time></trkpt><trkpt lat="43.5785366" lon="13.1643435"><ele>216.25</ele><time>2026-04-19T07:50:55.274Z</time></trkpt><trkpt lat="43.5785415" lon="13.1641649"><ele>215.0</ele><time>2026-04-19T07:50:56.273Z</time></trkpt><trkpt lat="43.5785396" lon="13.16398"><ele>214.75</ele><time>2026-04-19T07:50:57.274Z</time></trkpt><trkpt lat="43.5785308" lon="13.1637882"><ele>214.5</ele><time>2026-04-19T07:50:58.274Z</time></trkpt><trkpt lat="43.5785129" lon="13.1635932"><ele>214.25</ele><time>2026-04-19T07:50:59.275Z</time></trkpt><trkpt lat="43.5784854" lon="13.1633963"><ele>214.0</ele><time>2026-04-19T07:51:00.275Z</time></trkpt><trkpt lat="43.5784547" lon="13.1632091"><ele>214.5</ele><time>2026-04-19T07:51:01.274Z</time></trkpt><trkpt lat="43.5784165" lon="13.1630281"><ele>215.0</ele><time>2026-04-19T07:51:02.275Z</time></trkpt><trkpt lat="43.5783737" lon="13.1628566"><ele>215.5</ele><time>2026-04-19T07:51:03.275Z</time></trkpt><trkpt lat="43.5783247" lon="13.1626922"><ele>216.0</ele><time>2026-04-19T07:51:04.274Z</time></trkpt><trkpt lat="43.5782753" lon="13.1625339"><ele>216.0</ele><time>2026-04-19T07:51:05.274Z</time></trkpt><trkpt lat="43.5782326" lon="13.1623732"><ele>216.0</ele><time>2026-04-19T07:51:06.274Z</time></trkpt><trkpt lat="43.5781987" lon="13.1622119"><ele>216.0</ele><time>2026-04-19T07:51:07.275Z</time></trkpt><trkpt lat="43.5781777" lon="13.1620367"><ele>216.0</ele><time>2026-04-19T07:51:08.274Z</time></trkpt><trkpt lat="43.5781737" lon="13.1618679"><ele>215.5</ele><time>2026-04-19T07:51:09.274Z</time></trkpt><trkpt lat="43.5781845" lon="13.1617061"><ele>215.0</ele><time>2026-04-19T07:51:10.275Z</time></trkpt><trkpt lat="43.5782013" lon="13.1615464"><ele>214.5</ele><time>2026-04-19T07:51:11.275Z</time></trkpt><trkpt lat="43.5782202" lon="13.1613829"><ele>214.0</ele><time>2026-04-19T07:51:12.274Z</time></trkpt><trkpt lat="43.5782407" lon="13.1612124"><ele>212.5</ele><time>2026-04-19T07:51:13.274Z</time></trkpt><trkpt lat="43.5782681" lon="13.1610418"><ele>211.0</ele><time>2026-04-19T07:51:14.274Z</time></trkpt><trkpt lat="43.5783098" lon="13.1608745"><ele>209.5</ele><time>2026-04-19T07:51:15.275Z</time></trkpt><trkpt lat="43.5783674" lon="13.1607158"><ele>208.0</ele><time>2026-04-19T07:51:16.275Z</time></trkpt><trkpt lat="43.5784404" lon="13.1605752"><ele>207.5</ele><time>2026-04-19T07:51:17.275Z</time></trkpt><trkpt lat="43.5785226" lon="13.1604542"><ele>207.0</ele><time>2026-04-19T07:51:18.275Z</time></trkpt><trkpt lat="43.578596" lon="13.1603272"><ele>206.5</ele><time>2026-04-19T07:51:19.275Z</time></trkpt><trkpt lat="43.5786543" lon="13.1601741"><ele>206.0</ele><time>2026-04-19T07:51:20.275Z</time></trkpt><trkpt lat="43.5787005" lon="13.1599998"><ele>204.25</ele><time>2026-04-19T07:51:21.275Z</time></trkpt><trkpt lat="43.5787275" lon="13.1598065"><ele>202.5</ele><time>2026-04-19T07:51:22.274Z</time></trkpt><trkpt lat="43.5787391" lon="13.1596004"><ele>200.75</ele><time>2026-04-19T07:51:23.274Z</time></trkpt><trkpt lat="43.578741" lon="13.159387"><ele>199.0</ele><time>2026-04-19T07:51:24.274Z</time></trkpt><trkpt lat="43.5787357" lon="13.1591689"><ele>199.0</ele><time>2026-04-19T07:51:25.273Z</time></trkpt><trkpt lat="43.5787193" lon="13.1589478"><ele>199.0</ele><time>2026-04-19T07:51:26.275Z</time></trkpt><trkpt lat="43.5786967" lon="13.1587257"><ele>199.0</ele><time>2026-04-19T07:51:27.275Z</time></trkpt><trkpt lat="43.5786702" lon="13.1585022"><ele>199.0</ele><time>2026-04-19T07:51:28.275Z</time></trkpt><trkpt lat="43.5786407" lon="13.1582816"><ele>199.0</ele><time>2026-04-19T07:51:29.275Z</time></trkpt><trkpt lat="43.5786067" lon="13.1580668"><ele>199.0</ele><time>2026-04-19T07:51:30.275Z</time></trkpt><trkpt lat="43.5785726" lon="13.1578602"><ele>199.33333333333331</ele><time>2026-04-19T07:51:31.275Z</time></trkpt><trkpt lat="43.5785361" lon="13.1576502"><ele>199.66666666666669</ele><time>2026-04-19T07:51:32.274Z</time></trkpt><trkpt lat="43.5784987" lon="13.1574474"><ele>200.0</ele><time>2026-04-19T07:51:33.275Z</time></trkpt><trkpt lat="43.5784568" lon="13.1572551"><ele>200.0</ele><time>2026-04-19T07:51:34.275Z</time></trkpt><trkpt lat="43.5784053" lon="13.1570691"><ele>200.0</ele><time>2026-04-19T07:51:35.275Z</time></trkpt><trkpt lat="43.5783423" lon="13.1568913"><ele>200.0</ele><time>2026-04-19T07:51:36.275Z</time></trkpt><trkpt lat="43.5782739" lon="13.1567213"><ele>200.0</ele><time>2026-04-19T07:51:37.275Z</time></trkpt><trkpt lat="43.5782091" lon="13.1565469"><ele>198.75</ele><time>2026-04-19T07:51:38.275Z</time></trkpt><trkpt lat="43.5781555" lon="13.1563662"><ele>197.5</ele><time>2026-04-19T07:51:39.275Z</time></trkpt><trkpt lat="43.5781059" lon="13.1561839"><ele>196.25</ele><time>2026-04-19T07:51:40.274Z</time></trkpt><trkpt lat="43.5780536" lon="13.1560085"><ele>195.0</ele><time>2026-04-19T07:51:41.274Z</time></trkpt><trkpt lat="43.5779988" lon="13.1558433"><ele>193.5</ele><time>2026-04-19T07:51:42.275Z</time></trkpt><trkpt lat="43.5779395" lon="13.1556814"><ele>192.0</ele><time>2026-04-19T07:51:43.275Z</time></trkpt><trkpt lat="43.5778764" lon="13.1555212"><ele>190.5</ele><time>2026-04-19T07:51:44.275Z</time></trkpt><trkpt lat="43.5778133" lon="13.1553591"><ele>189.0</ele><time>2026-04-19T07:51:45.275Z</time></trkpt><trkpt lat="43.5777513" lon="13.1551884"><ele>191.5</ele><time>2026-04-19T07:51:46.275Z</time></trkpt><trkpt lat="43.5776901" lon="13.1550117"><ele>194.0</ele><time>2026-04-19T07:51:47.275Z</time></trkpt><trkpt lat="43.5776405" lon="13.1548223"><ele>196.5</ele><time>2026-04-19T07:51:48.274Z</time></trkpt><trkpt lat="43.5776121" lon="13.1546228"><ele>199.0</ele><time>2026-04-19T07:51:49.274Z</time></trkpt><trkpt lat="43.5775985" lon="13.1544184"><ele>199.0</ele><time>2026-04-19T07:51:50.274Z</time></trkpt><trkpt lat="43.5775892" lon="13.1542115"><ele>199.0</ele><time>2026-04-19T07:51:51.275Z</time></trkpt><trkpt lat="43.5775799" lon="13.154006"><ele>199.0</ele><time>2026-04-19T07:51:52.273Z</time></trkpt><trkpt lat="43.5775695" lon="13.1538007"><ele>199.0</ele><time>2026-04-19T07:51:53.274Z</time></trkpt><trkpt lat="43.5775575" lon="13.153596"><ele>199.25</ele><time>2026-04-19T07:51:54.274Z</time></trkpt><trkpt lat="43.577545" lon="13.1533899"><ele>199.5</ele><time>2026-04-19T07:51:55.275Z</time></trkpt><trkpt lat="43.5775315" lon="13.1531845"><ele>199.75</ele><time>2026-04-19T07:51:56.275Z</time></trkpt><trkpt lat="43.5775163" lon="13.1529812"><ele>200.0</ele><time>2026-04-19T07:51:57.274Z</time></trkpt><trkpt lat="43.5774961" lon="13.1527816"><ele>200.5</ele><time>2026-04-19T07:51:58.274Z</time></trkpt><trkpt lat="43.5774763" lon="13.1525839"><ele>201.0</ele><time>2026-04-19T07:51:59.274Z</time></trkpt><trkpt lat="43.5774579" lon="13.1523876"><ele>201.5</ele><time>2026-04-19T07:52:00.275Z</time></trkpt><trkpt lat="43.5774475" lon="13.1521886"><ele>202.0</ele><time>2026-04-19T07:52:01.275Z</time></trkpt><trkpt lat="43.5774507" lon="13.1519851"><ele>202.0</ele><time>2026-04-19T07:52:02.275Z</time></trkpt><trkpt lat="43.577465" lon="13.1517845"><ele>202.0</ele><time>2026-04-19T07:52:03.275Z</time></trkpt><trkpt lat="43.5774848" lon="13.1515802"><ele>202.0</ele><time>2026-04-19T07:52:04.275Z</time></trkpt><trkpt lat="43.5775027" lon="13.1513728"><ele>202.0</ele><time>2026-04-19T07:52:05.275Z</time></trkpt><trkpt lat="43.5775228" lon="13.1511642"><ele>202.66666666666666</ele><time>2026-04-19T07:52:06.274Z</time></trkpt><trkpt lat="43.577546" lon="13.1509547"><ele>203.33333333333331</ele><time>2026-04-19T07:52:07.273Z</time></trkpt><trkpt lat="43.5775706" lon="13.1507399"><ele>204.0</ele><time>2026-04-19T07:52:08.274Z</time></trkpt><trkpt lat="43.5775985" lon="13.1505264"><ele>204.66666666666669</ele><time>2026-04-19T07:52:09.275Z</time></trkpt><trkpt lat="43.5776304" lon="13.1503129"><ele>205.33333333333334</ele><time>2026-04-19T07:52:10.275Z</time></trkpt><trkpt lat="43.5776632" lon="13.1501036"><ele>206.0</ele><time>2026-04-19T07:52:11.274Z</time></trkpt><trkpt lat="43.5776988" lon="13.1499096"><ele>207.25</ele><time>2026-04-19T07:52:12.275Z</time></trkpt><trkpt lat="43.5777338" lon="13.1497363"><ele>208.5</ele><time>2026-04-19T07:52:13.274Z</time></trkpt><trkpt lat="43.5777661" lon="13.1495765"><ele>209.75</ele><time>2026-04-19T07:52:14.275Z</time></trkpt><trkpt lat="43.5777971" lon="13.1494299"><ele>211.0</ele><time>2026-04-19T07:52:15.275Z</time></trkpt><trkpt lat="43.57783" lon="13.1492945"><ele>210.20000000000002</ele><time>2026-04-19T07:52:16.275Z</time></trkpt><trkpt lat="43.5778638" lon="13.1491687"><ele>209.4</ele><time>2026-04-19T07:52:17.273Z</time></trkpt><trkpt lat="43.5779032" lon="13.1490417"><ele>208.6</ele><time>2026-04-19T07:52:18.274Z</time></trkpt><trkpt lat="43.5779501" lon="13.1489141"><ele>207.8</ele><time>2026-04-19T07:52:19.274Z</time></trkpt><trkpt lat="43.5780093" lon="13.1487877"><ele>207.0</ele><time>2026-04-19T07:52:20.275Z</time></trkpt><trkpt lat="43.5780766" lon="13.1486619"><ele>207.0</ele><time>2026-04-19T07:52:21.275Z</time></trkpt><trkpt lat="43.5781484" lon="13.148533"><ele>207.0</ele><time>2026-04-19T07:52:22.275Z</time></trkpt><trkpt lat="43.5782186" lon="13.1484003"><ele>207.0</ele><time>2026-04-19T07:52:23.275Z</time></trkpt><trkpt lat="43.5782873" lon="13.1482663"><ele>207.0</ele><time>2026-04-19T07:52:24.275Z</time></trkpt><trkpt lat="43.5783528" lon="13.148134"><ele>207.0</ele><time>2026-04-19T07:52:25.275Z</time></trkpt><trkpt lat="43.5784107" lon="13.1480082"><ele>207.0</ele><time>2026-04-19T07:52:26.275Z</time></trkpt><trkpt lat="43.5784622" lon="13.1478826"><ele>207.0</ele><time>2026-04-19T07:52:27.275Z</time></trkpt><trkpt lat="43.5785095" lon="13.1477641"><ele>207.0</ele><time>2026-04-19T07:52:28.275Z</time></trkpt><trkpt lat="43.5785518" lon="13.1476594"><ele>207.0</ele><time>2026-04-19T07:52:29.274Z</time></trkpt><trkpt lat="43.5785869" lon="13.1475706"><ele>207.0</ele><time>2026-04-19T07:52:30.274Z</time></trkpt><trkpt lat="43.5786336" lon="13.1474291"><ele>207.0</ele><time>2026-04-19T07:52:32.275Z</time></trkpt><trkpt lat="43.5786659" lon="13.147343"><ele>207.0</ele><time>2026-04-19T07:52:34.274Z</time></trkpt><trkpt lat="43.5787034" lon="13.1472479"><ele>207.0</ele><time>2026-04-19T07:52:38.274Z</time></trkpt><trkpt lat="43.5787193" lon="13.1471432"><ele>207.0</ele><time>2026-04-19T07:53:11.274Z</time></trkpt><trkpt lat="43.5787362" lon="13.1470468"><ele>207.0</ele><time>2026-04-19T07:53:14.274Z</time></trkpt><trkpt lat="43.5787842" lon="13.1469175"><ele>206.83333333333334</ele><time>2026-04-19T07:53:16.275Z</time></trkpt><trkpt lat="43.5788158" lon="13.1468153"><ele>206.66666666666669</ele><time>2026-04-19T07:53:17.274Z</time></trkpt><trkpt lat="43.5788437" lon="13.1467133"><ele>206.5</ele><time>2026-04-19T07:53:18.274Z</time></trkpt><trkpt lat="43.5788738" lon="13.14662"><ele>206.33333333333334</ele><time>2026-04-19T07:53:19.275Z</time></trkpt><trkpt lat="43.5789022" lon="13.1465279"><ele>206.16666666666669</ele><time>2026-04-19T07:53:20.275Z</time></trkpt><trkpt lat="43.5789335" lon="13.1464332"><ele>206.0</ele><time>2026-04-19T07:53:21.275Z</time></trkpt><trkpt lat="43.5789653" lon="13.1463211"><ele>206.20000000000002</ele><time>2026-04-19T07:53:22.275Z</time></trkpt><trkpt lat="43.5789919" lon="13.1461929"><ele>206.4</ele><time>2026-04-19T07:53:23.273Z</time></trkpt><trkpt lat="43.5790128" lon="13.1460582"><ele>206.6</ele><time>2026-04-19T07:53:24.275Z</time></trkpt><trkpt lat="43.579025" lon="13.1459119"><ele>206.8</ele><time>2026-04-19T07:53:25.275Z</time></trkpt><trkpt lat="43.5790235" lon="13.1457615"><ele>207.0</ele><time>2026-04-19T07:53:26.275Z</time></trkpt><trkpt lat="43.5790111" lon="13.1456068"><ele>207.0</ele><time>2026-04-19T07:53:27.275Z</time></trkpt><trkpt lat="43.5789971" lon="13.1454482"><ele>207.0</ele><time>2026-04-19T07:53:28.274Z</time></trkpt><trkpt lat="43.578986" lon="13.1452814"><ele>207.0</ele><time>2026-04-19T07:53:29.275Z</time></trkpt><trkpt lat="43.5789753" lon="13.1451109"><ele>207.0</ele><time>2026-04-19T07:53:30.275Z</time></trkpt><trkpt lat="43.5789627" lon="13.144937"><ele>207.5</ele><time>2026-04-19T07:53:31.275Z</time></trkpt><trkpt lat="43.5789486" lon="13.144761"><ele>208.0</ele><time>2026-04-19T07:53:32.275Z</time></trkpt><trkpt lat="43.578931" lon="13.1445827"><ele>208.5</ele><time>2026-04-19T07:53:33.275Z</time></trkpt><trkpt lat="43.5789129" lon="13.1444016"><ele>209.0</ele><time>2026-04-19T07:53:34.274Z</time></trkpt><trkpt lat="43.5788906" lon="13.144217"><ele>209.25</ele><time>2026-04-19T07:53:35.275Z</time></trkpt><trkpt lat="43.5788602" lon="13.14403"><ele>209.5</ele><time>2026-04-19T07:53:36.274Z</time></trkpt><trkpt lat="43.5788179" lon="13.1438422"><ele>209.75</ele><time>2026-04-19T07:53:37.274Z</time></trkpt><trkpt lat="43.578769" lon="13.1436541"><ele>210.0</ele><time>2026-04-19T07:53:38.274Z</time></trkpt><trkpt lat="43.5787148" lon="13.1434753"><ele>209.75</ele><time>2026-04-19T07:53:39.274Z</time></trkpt><trkpt lat="43.5786598" lon="13.1433003"><ele>209.5</ele><time>2026-04-19T07:53:40.274Z</time></trkpt><trkpt lat="43.5786051" lon="13.1431286"><ele>209.25</ele><time>2026-04-19T07:53:41.274Z</time></trkpt><trkpt lat="43.5785513" lon="13.1429564"><ele>209.0</ele><time>2026-04-19T07:53:42.274Z</time></trkpt><trkpt lat="43.5785013" lon="13.1427833"><ele>209.0</ele><time>2026-04-19T07:53:43.274Z</time></trkpt><trkpt lat="43.5784584" lon="13.1426148"><ele>209.0</ele><time>2026-04-19T07:53:44.274Z</time></trkpt><trkpt lat="43.5784305" lon="13.1424685"><ele>209.0</ele><time>2026-04-19T07:53:45.273Z</time></trkpt><trkpt lat="43.578419" lon="13.1423335"><ele>209.0</ele><time>2026-04-19T07:53:46.274Z</time></trkpt><trkpt lat="43.5784224" lon="13.1421912"><ele>209.0</ele><time>2026-04-19T07:53:47.274Z</time></trkpt><trkpt lat="43.578433" lon="13.1420363"><ele>209.0</ele><time>2026-04-19T07:53:48.274Z</time></trkpt><trkpt lat="43.5784397" lon="13.1418697"><ele>209.0</ele><time>2026-04-19T07:53:49.274Z</time></trkpt><trkpt lat="43.5784432" lon="13.1416917"><ele>209.0</ele><time>2026-04-19T07:53:50.274Z</time></trkpt><trkpt lat="43.5784379" lon="13.1414996"><ele>209.0</ele><time>2026-04-19T07:53:51.274Z</time></trkpt><trkpt lat="43.5784203" lon="13.1413066"><ele>209.0</ele><time>2026-04-19T07:53:52.273Z</time></trkpt><trkpt lat="43.5783959" lon="13.1411128"><ele>209.0</ele><time>2026-04-19T07:53:53.273Z</time></trkpt><trkpt lat="43.5783618" lon="13.1409187"><ele>209.0</ele><time>2026-04-19T07:53:54.274Z</time></trkpt><trkpt lat="43.5783186" lon="13.1407248"><ele>209.0</ele><time>2026-04-19T07:53:55.274Z</time></trkpt><trkpt lat="43.5782759" lon="13.1405282"><ele>209.0</ele><time>2026-04-19T07:53:56.273Z</time></trkpt><trkpt lat="43.5782461" lon="13.1403262"><ele>209.0</ele><time>2026-04-19T07:53:57.273Z</time></trkpt><trkpt lat="43.5782277" lon="13.1401209"><ele>209.0</ele><time>2026-04-19T07:53:58.272Z</time></trkpt><trkpt lat="43.5782144" lon="13.1399114"><ele>209.75</ele><time>2026-04-19T07:53:59.274Z</time></trkpt><trkpt lat="43.5782039" lon="13.1397053"><ele>210.5</ele><time>2026-04-19T07:54:00.274Z</time></trkpt><trkpt lat="43.5781953" lon="13.1395017"><ele>211.25</ele><time>2026-04-19T07:54:01.274Z</time></trkpt><trkpt lat="43.5781867" lon="13.1392992"><ele>212.0</ele><time>2026-04-19T07:54:02.274Z</time></trkpt><trkpt lat="43.5781804" lon="13.1390979"><ele>212.75</ele><time>2026-04-19T07:54:03.274Z</time></trkpt><trkpt lat="43.5781699" lon="13.138903"><ele>213.5</ele><time>2026-04-19T07:54:04.274Z</time></trkpt><trkpt lat="43.5781629" lon="13.1387095"><ele>214.25</ele><time>2026-04-19T07:54:05.274Z</time></trkpt><trkpt lat="43.5781564" lon="13.1385206"><ele>215.0</ele><time>2026-04-19T07:54:06.274Z</time></trkpt><trkpt lat="43.5781558" lon="13.1383288"><ele>214.5</ele><time>2026-04-19T07:54:07.273Z</time></trkpt><trkpt lat="43.5781593" lon="13.1381307"><ele>214.0</ele><time>2026-04-19T07:54:08.274Z</time></trkpt><trkpt lat="43.5781648" lon="13.137924"><ele>213.5</ele><time>2026-04-19T07:54:09.274Z</time></trkpt><trkpt lat="43.5781781" lon="13.1377137"><ele>213.0</ele><time>2026-04-19T07:54:10.274Z</time></trkpt><trkpt lat="43.5781951" lon="13.1375119"><ele>212.0</ele><time>2026-04-19T07:54:11.274Z</time></trkpt><trkpt lat="43.5782146" lon="13.1373146"><ele>211.0</ele><time>2026-04-19T07:54:12.274Z</time></trkpt><trkpt lat="43.578235" lon="13.137121"><ele>210.0</ele><time>2026-04-19T07:54:13.274Z</time></trkpt><trkpt lat="43.578257" lon="13.1369319"><ele>209.0</ele><time>2026-04-19T07:54:14.273Z</time></trkpt><trkpt lat="43.5782797" lon="13.1367454"><ele>209.0</ele><time>2026-04-19T07:54:15.274Z</time></trkpt><trkpt lat="43.578297" lon="13.1365621"><ele>209.0</ele><time>2026-04-19T07:54:16.274Z</time></trkpt><trkpt lat="43.5783086" lon="13.136383"><ele>209.0</ele><time>2026-04-19T07:54:17.274Z</time></trkpt><trkpt lat="43.5783116" lon="13.13621"><ele>209.0</ele><time>2026-04-19T07:54:18.274Z</time></trkpt><trkpt lat="43.578295" lon="13.1360439"><ele>208.2</ele><time>2026-04-19T07:54:19.274Z</time></trkpt><trkpt lat="43.5782656" lon="13.1359022"><ele>207.39999999999998</ele><time>2026-04-19T07:54:20.273Z</time></trkpt><trkpt lat="43.5782499" lon="13.1357673"><ele>206.6</ele><time>2026-04-19T07:54:21.273Z</time></trkpt><trkpt lat="43.5782516" lon="13.1356473"><ele>205.8</ele><time>2026-04-19T07:54:22.274Z</time></trkpt><trkpt lat="43.5782779" lon="13.1355303"><ele>205.0</ele><time>2026-04-19T07:54:23.273Z</time></trkpt><trkpt lat="43.5783354" lon="13.1354357"><ele>202.8</ele><time>2026-04-19T07:54:24.274Z</time></trkpt><trkpt lat="43.5784183" lon="13.1353771"><ele>200.6</ele><time>2026-04-19T07:54:25.274Z</time></trkpt><trkpt lat="43.5785203" lon="13.1353485"><ele>198.39999999999998</ele><time>2026-04-19T07:54:26.274Z</time></trkpt><trkpt lat="43.578635" lon="13.1353447"><ele>196.2</ele><time>2026-04-19T07:54:27.272Z</time></trkpt><trkpt lat="43.5787583" lon="13.1353382"><ele>194.0</ele><time>2026-04-19T07:54:28.273Z</time></trkpt><trkpt lat="43.5788768" lon="13.1353247"><ele>193.75</ele><time>2026-04-19T07:54:29.273Z</time></trkpt><trkpt lat="43.5790022" lon="13.1353107"><ele>193.5</ele><time>2026-04-19T07:54:30.273Z</time></trkpt><trkpt lat="43.5791347" lon="13.1353024"><ele>193.25</ele><time>2026-04-19T07:54:31.274Z</time></trkpt><trkpt lat="43.5792696" lon="13.1352964"><ele>193.0</ele><time>2026-04-19T07:54:32.274Z</time></trkpt><trkpt lat="43.5794077" lon="13.1352894"><ele>192.25</ele><time>2026-04-19T07:54:33.274Z</time></trkpt><trkpt lat="43.5795463" lon="13.1352778"><ele>191.5</ele><time>2026-04-19T07:54:34.274Z</time></trkpt><trkpt lat="43.5796762" lon="13.1352632"><ele>190.75</ele><time>2026-04-19T07:54:35.273Z</time></trkpt><trkpt lat="43.5798023" lon="13.135259"><ele>190.0</ele><time>2026-04-19T07:54:36.274Z</time></trkpt><trkpt lat="43.5799284" lon="13.1352431"><ele>190.0</ele><time>2026-04-19T07:54:37.272Z</time></trkpt><trkpt lat="43.5800538" lon="13.1352315"><ele>190.0</ele><time>2026-04-19T07:54:38.274Z</time></trkpt><trkpt lat="43.5801298" lon="13.1352257"><ele>190.0</ele><time>2026-04-19T07:54:39.274Z</time></trkpt><trkpt lat="43.5802424" lon="13.135217"><ele>190.0</ele><time>2026-04-19T07:54:41.274Z</time></trkpt><trkpt lat="43.5803271" lon="13.1352201"><ele>190.0</ele><time>2026-04-19T07:54:43.273Z</time></trkpt><trkpt lat="43.5804074" lon="13.135216"><ele>190.0</ele><time>2026-04-19T07:54:46.274Z</time></trkpt><trkpt lat="43.5803869" lon="13.1351324"><ele>190.0</ele><time>2026-04-19T07:55:01.273Z</time></trkpt><trkpt lat="43.5803001" lon="13.1351711"><ele>190.0</ele><time>2026-04-19T07:55:03.274Z</time></trkpt><trkpt lat="43.5802225" lon="13.1351741"><ele>190.0</ele><time>2026-04-19T07:55:05.274Z</time></trkpt><trkpt lat="43.5801573" lon="13.135145"><ele>190.0</ele><time>2026-04-19T07:55:07.273Z</time></trkpt><trkpt lat="43.5801459" lon="13.1350241"><ele>190.0</ele><time>2026-04-19T07:55:10.274Z</time></trkpt><trkpt lat="43.5801872" lon="13.134949"><ele>189.83333333333334</ele><time>2026-04-19T07:55:12.274Z</time></trkpt><trkpt lat="43.5802263" lon="13.1348434"><ele>189.66666666666669</ele><time>2026-04-19T07:55:14.273Z</time></trkpt><trkpt lat="43.5802612" lon="13.1347649"><ele>189.5</ele><time>2026-04-19T07:55:15.274Z</time></trkpt><trkpt lat="43.5803044" lon="13.1346771"><ele>189.33333333333334</ele><time>2026-04-19T07:55:16.274Z</time></trkpt><trkpt lat="43.5803496" lon="13.1345838"><ele>189.16666666666666</ele><time>2026-04-19T07:55:17.274Z</time></trkpt><trkpt lat="43.5804038" lon="13.1344814"><ele>189.0</ele><time>2026-04-19T07:55:18.274Z</time></trkpt><trkpt lat="43.5804565" lon="13.1343778"><ele>189.0</ele><time>2026-04-19T07:55:19.274Z</time></trkpt><trkpt lat="43.5805071" lon="13.134265"><ele>189.0</ele><time>2026-04-19T07:55:20.274Z</time></trkpt><trkpt lat="43.5805576" lon="13.1341599"><ele>189.0</ele><time>2026-04-19T07:55:21.274Z</time></trkpt><trkpt lat="43.5806084" lon="13.1340508"><ele>189.0</ele><time>2026-04-19T07:55:22.274Z</time></trkpt><trkpt lat="43.580655" lon="13.1339349"><ele>189.0</ele><time>2026-04-19T07:55:23.274Z</time></trkpt><trkpt lat="43.5806948" lon="13.1337996"><ele>189.6</ele><time>2026-04-19T07:55:24.274Z</time></trkpt><trkpt lat="43.580719" lon="13.1336593"><ele>190.2</ele><time>2026-04-19T07:55:25.274Z</time></trkpt><trkpt lat="43.5807316" lon="13.1335188"><ele>190.79999999999998</ele><time>2026-04-19T07:55:26.274Z</time></trkpt><trkpt lat="43.5807349" lon="13.1333745"><ele>191.39999999999998</ele><time>2026-04-19T07:55:27.273Z</time></trkpt><trkpt lat="43.5807366" lon="13.1332248"><ele>192.0</ele><time>2026-04-19T07:55:28.273Z</time></trkpt><trkpt lat="43.5807393" lon="13.133076"><ele>192.39999999999998</ele><time>2026-04-19T07:55:29.273Z</time></trkpt><trkpt lat="43.5807484" lon="13.1329409"><ele>192.79999999999998</ele><time>2026-04-19T07:55:30.274Z</time></trkpt><trkpt lat="43.5807502" lon="13.1328079"><ele>193.2</ele><time>2026-04-19T07:55:31.273Z</time></trkpt><trkpt lat="43.58074" lon="13.1326803"><ele>193.6</ele><time>2026-04-19T07:55:32.274Z</time></trkpt><trkpt lat="43.5807173" lon="13.1325548"><ele>194.0</ele><time>2026-04-19T07:55:33.274Z</time></trkpt><trkpt lat="43.5806857" lon="13.1324407"><ele>194.50000000000003</ele><time>2026-04-19T07:55:34.273Z</time></trkpt><trkpt lat="43.5806502" lon="13.1323477"><ele>195.0</ele><time>2026-04-19T07:55:35.273Z</time></trkpt><trkpt lat="43.5806127" lon="13.132269"><ele>195.5</ele><time>2026-04-19T07:55:36.273Z</time></trkpt><trkpt lat="43.5805445" lon="13.1321472"><ele>196.0</ele><time>2026-04-19T07:55:38.274Z</time></trkpt><trkpt lat="43.5804824" lon="13.132014"><ele>196.50000000000003</ele><time>2026-04-19T07:55:40.273Z</time></trkpt><trkpt lat="43.5804514" lon="13.1319246"><ele>197.0</ele><time>2026-04-19T07:55:41.274Z</time></trkpt><trkpt lat="43.5804171" lon="13.1318119"><ele>197.0</ele><time>2026-04-19T07:55:42.274Z</time></trkpt><trkpt lat="43.5803769" lon="13.1316975"><ele>197.0</ele><time>2026-04-19T07:55:43.274Z</time></trkpt><trkpt lat="43.5803324" lon="13.1315854"><ele>197.0</ele><time>2026-04-19T07:55:44.273Z</time></trkpt><trkpt lat="43.5802801" lon="13.1314775"><ele>197.0</ele><time>2026-04-19T07:55:45.274Z</time></trkpt><trkpt lat="43.5802214" lon="13.1313727"><ele>197.0</ele><time>2026-04-19T07:55:46.274Z</time></trkpt><trkpt lat="43.5801572" lon="13.1312678"><ele>194.6</ele><time>2026-04-19T07:55:47.273Z</time></trkpt><trkpt lat="43.5800875" lon="13.1311677"><ele>192.2</ele><time>2026-04-19T07:55:48.274Z</time></trkpt><trkpt lat="43.5800141" lon="13.1310706"><ele>189.8</ele><time>2026-04-19T07:55:49.274Z</time></trkpt><trkpt lat="43.5799375" lon="13.1309768"><ele>187.4</ele><time>2026-04-19T07:55:50.274Z</time></trkpt><trkpt lat="43.5798587" lon="13.1308849"><ele>185.0</ele><time>2026-04-19T07:55:51.274Z</time></trkpt><trkpt lat="43.5797711" lon="13.1307949"><ele>183.0</ele><time>2026-04-19T07:55:52.274Z</time></trkpt><trkpt lat="43.5796782" lon="13.1307041"><ele>181.0</ele><time>2026-04-19T07:55:53.274Z</time></trkpt><trkpt lat="43.5795809" lon="13.1306116"><ele>179.0</ele><time>2026-04-19T07:55:54.273Z</time></trkpt><trkpt lat="43.5794804" lon="13.1305134"><ele>177.0</ele><time>2026-04-19T07:55:55.273Z</time></trkpt><trkpt lat="43.5793773" lon="13.1304014"><ele>176.5</ele><time>2026-04-19T07:55:56.273Z</time></trkpt><trkpt lat="43.5792782" lon="13.1302811"><ele>176.0</ele><time>2026-04-19T07:55:57.273Z</time></trkpt><trkpt lat="43.5791832" lon="13.1301552"><ele>175.5</ele><time>2026-04-19T07:55:58.272Z</time></trkpt><trkpt lat="43.5790953" lon="13.1300231"><ele>175.0</ele><time>2026-04-19T07:55:59.274Z</time></trkpt><trkpt lat="43.5790126" lon="13.1298908"><ele>173.25</ele><time>2026-04-19T07:56:00.274Z</time></trkpt><trkpt lat="43.5789334" lon="13.1297618"><ele>171.5</ele><time>2026-04-19T07:56:01.273Z</time></trkpt><trkpt lat="43.5788554" lon="13.1296359"><ele>169.75</ele><time>2026-04-19T07:56:02.274Z</time></trkpt><trkpt lat="43.5787804" lon="13.129517"><ele>168.0</ele><time>2026-04-19T07:56:03.274Z</time></trkpt><trkpt lat="43.5787081" lon="13.1294059"><ele>168.4</ele><time>2026-04-19T07:56:04.273Z</time></trkpt><trkpt lat="43.578636" lon="13.1292977"><ele>168.8</ele><time>2026-04-19T07:56:05.273Z</time></trkpt><trkpt lat="43.5785585" lon="13.1291875"><ele>169.2</ele><time>2026-04-19T07:56:06.273Z</time></trkpt><trkpt lat="43.5784794" lon="13.1290777"><ele>169.6</ele><time>2026-04-19T07:56:07.273Z</time></trkpt><trkpt lat="43.5784072" lon="13.128976"><ele>170.0</ele><time>2026-04-19T07:56:08.274Z</time></trkpt><trkpt lat="43.5783367" lon="13.1288769"><ele>170.0</ele><time>2026-04-19T07:56:09.273Z</time></trkpt><trkpt lat="43.5782677" lon="13.1287798"><ele>170.0</ele><time>2026-04-19T07:56:10.274Z</time></trkpt><trkpt lat="43.578201" lon="13.1286887"><ele>170.0</ele><time>2026-04-19T07:56:11.274Z</time></trkpt><trkpt lat="43.5781327" lon="13.1285972"><ele>170.0</ele><time>2026-04-19T07:56:12.274Z</time></trkpt><trkpt lat="43.5780626" lon="13.1285027"><ele>170.0</ele><time>2026-04-19T07:56:13.274Z</time></trkpt><trkpt lat="43.577988" lon="13.1284032"><ele>170.0</ele><time>2026-04-19T07:56:14.274Z</time></trkpt><trkpt lat="43.5779103" lon="13.1283006"><ele>170.0</ele><time>2026-04-19T07:56:15.274Z</time></trkpt><trkpt lat="43.5778335" lon="13.1281991"><ele>170.0</ele><time>2026-04-19T07:56:16.274Z</time></trkpt><trkpt lat="43.5777572" lon="13.1280914"><ele>170.0</ele><time>2026-04-19T07:56:17.274Z</time></trkpt><trkpt lat="43.57768" lon="13.1279798"><ele>170.0</ele><time>2026-04-19T07:56:18.273Z</time></trkpt><trkpt lat="43.5776014" lon="13.1278612"><ele>169.0</ele><time>2026-04-19T07:56:19.272Z</time></trkpt><trkpt lat="43.5775273" lon="13.1277398"><ele>168.0</ele><time>2026-04-19T07:56:20.273Z</time></trkpt><trkpt lat="43.5774581" lon="13.127618"><ele>167.0</ele><time>2026-04-19T07:56:21.274Z</time></trkpt><trkpt lat="43.5773921" lon="13.127498"><ele>166.0</ele><time>2026-04-19T07:56:22.274Z</time></trkpt><trkpt lat="43.577332" lon="13.1273869"><ele>165.0</ele><time>2026-04-19T07:56:23.273Z</time></trkpt><trkpt lat="43.5772759" lon="13.1272785"><ele>163.0</ele><time>2026-04-19T07:56:24.273Z</time></trkpt><trkpt lat="43.5772215" lon="13.1271657"><ele>161.0</ele><time>2026-04-19T07:56:25.274Z</time></trkpt><trkpt lat="43.577172" lon="13.1270436"><ele>159.0</ele><time>2026-04-19T07:56:26.274Z</time></trkpt><trkpt lat="43.5771288" lon="13.1269065"><ele>157.0</ele><time>2026-04-19T07:56:27.273Z</time></trkpt><trkpt lat="43.5770976" lon="13.1267722"><ele>155.0</ele><time>2026-04-19T07:56:28.274Z</time></trkpt><trkpt lat="43.5770669" lon="13.1266381"><ele>154.8</ele><time>2026-04-19T07:56:29.273Z</time></trkpt><trkpt lat="43.5770319" lon="13.1265063"><ele>154.6</ele><time>2026-04-19T07:56:30.273Z</time></trkpt><trkpt lat="43.5769907" lon="13.1263814"><ele>154.4</ele><time>2026-04-19T07:56:31.273Z</time></trkpt><trkpt lat="43.5769408" lon="13.1262689"><ele>154.2</ele><time>2026-04-19T07:56:32.273Z</time></trkpt><trkpt lat="43.5768805" lon="13.1261641"><ele>154.0</ele><time>2026-04-19T07:56:33.274Z</time></trkpt><trkpt lat="43.5768162" lon="13.1260688"><ele>154.0</ele><time>2026-04-19T07:56:34.274Z</time></trkpt><trkpt lat="43.5767487" lon="13.1259824"><ele>154.0</ele><time>2026-04-19T07:56:35.274Z</time></trkpt><trkpt lat="43.5766727" lon="13.1259012"><ele>154.0</ele><time>2026-04-19T07:56:36.273Z</time></trkpt><trkpt lat="43.5765887" lon="13.1258241"><ele>154.0</ele><time>2026-04-19T07:56:37.274Z</time></trkpt><trkpt lat="43.5764982" lon="13.1257489"><ele>154.0</ele><time>2026-04-19T07:56:38.274Z</time></trkpt><trkpt lat="43.5764008" lon="13.1256849"><ele>153.8</ele><time>2026-04-19T07:56:39.273Z</time></trkpt><trkpt lat="43.576299" lon="13.1256347"><ele>153.60000000000002</ele><time>2026-04-19T07:56:40.273Z</time></trkpt><trkpt lat="43.5761971" lon="13.1255913"><ele>153.4</ele><time>2026-04-19T07:56:41.273Z</time></trkpt><trkpt lat="43.5761025" lon="13.1255433"><ele>153.20000000000002</ele><time>2026-04-19T07:56:42.272Z</time></trkpt><trkpt lat="43.5760124" lon="13.1254805"><ele>153.0</ele><time>2026-04-19T07:56:43.274Z</time></trkpt><trkpt lat="43.5759336" lon="13.1253916"><ele>153.0</ele><time>2026-04-19T07:56:44.273Z</time></trkpt><trkpt lat="43.5758691" lon="13.1252817"><ele>153.0</ele><time>2026-04-19T07:56:45.274Z</time></trkpt><trkpt lat="43.5758152" lon="13.1251616"><ele>153.0</ele><time>2026-04-19T07:56:46.274Z</time></trkpt><trkpt lat="43.5757747" lon="13.1250403"><ele>153.0</ele><time>2026-04-19T07:56:47.274Z</time></trkpt><trkpt lat="43.5757384" lon="13.1249235"><ele>153.0</ele><time>2026-04-19T07:56:48.273Z</time></trkpt><trkpt lat="43.5757072" lon="13.1248086"><ele>151.33333333333334</ele><time>2026-04-19T07:56:49.274Z</time></trkpt><trkpt lat="43.5756621" lon="13.1246979"><ele>149.66666666666666</ele><time>2026-04-19T07:56:50.273Z</time></trkpt><trkpt lat="43.5756186" lon="13.1245898"><ele>148.0</ele><time>2026-04-19T07:56:51.274Z</time></trkpt><trkpt lat="43.575562" lon="13.1244925"><ele>146.33333333333331</ele><time>2026-04-19T07:56:52.274Z</time></trkpt><trkpt lat="43.5754973" lon="13.124406"><ele>144.66666666666666</ele><time>2026-04-19T07:56:53.273Z</time></trkpt><trkpt lat="43.5754346" lon="13.124325"><ele>143.0</ele><time>2026-04-19T07:56:54.274Z</time></trkpt><trkpt lat="43.57537" lon="13.1242474"><ele>141.8</ele><time>2026-04-19T07:56:55.274Z</time></trkpt><trkpt lat="43.5753042" lon="13.1241663"><ele>140.60000000000002</ele><time>2026-04-19T07:56:56.274Z</time></trkpt><trkpt lat="43.5752359" lon="13.1240874"><ele>139.39999999999998</ele><time>2026-04-19T07:56:57.274Z</time></trkpt><trkpt lat="43.5751593" lon="13.1240213"><ele>138.2</ele><time>2026-04-19T07:56:58.273Z</time></trkpt><trkpt lat="43.5750756" lon="13.1239569"><ele>137.0</ele><time>2026-04-19T07:56:59.274Z</time></trkpt><trkpt lat="43.5749781" lon="13.1239024"><ele>137.0</ele><time>2026-04-19T07:57:00.274Z</time></trkpt><trkpt lat="43.5748873" lon="13.1238508"><ele>137.0</ele><time>2026-04-19T07:57:01.273Z</time></trkpt><trkpt lat="43.5747921" lon="13.1237984"><ele>137.0</ele><time>2026-04-19T07:57:02.272Z</time></trkpt><trkpt lat="43.5746935" lon="13.1237455"><ele>137.0</ele><time>2026-04-19T07:57:03.273Z</time></trkpt><trkpt lat="43.5745984" lon="13.1236818"><ele>137.0</ele><time>2026-04-19T07:57:04.274Z</time></trkpt><trkpt lat="43.5744913" lon="13.1236128"><ele>137.25</ele><time>2026-04-19T07:57:05.274Z</time></trkpt><trkpt lat="43.5743834" lon="13.1235351"><ele>137.5</ele><time>2026-04-19T07:57:06.273Z</time></trkpt><trkpt lat="43.5742682" lon="13.1234569"><ele>137.75</ele><time>2026-04-19T07:57:07.274Z</time></trkpt><trkpt lat="43.5741534" lon="13.1233771"><ele>138.0</ele><time>2026-04-19T07:57:08.274Z</time></trkpt><trkpt lat="43.5740415" lon="13.1232989"><ele>137.0</ele><time>2026-04-19T07:57:09.274Z</time></trkpt><trkpt lat="43.5739323" lon="13.1232164"><ele>136.0</ele><time>2026-04-19T07:57:10.274Z</time></trkpt><trkpt lat="43.5738333" lon="13.1231261"><ele>135.0</ele><time>2026-04-19T07:57:11.274Z</time></trkpt><trkpt lat="43.5737346" lon="13.1230311"><ele>134.0</ele><time>2026-04-19T07:57:12.274Z</time></trkpt><trkpt lat="43.5736449" lon="13.122933"><ele>134.0</ele><time>2026-04-19T07:57:13.274Z</time></trkpt><trkpt lat="43.5735547" lon="13.1228277"><ele>134.0</ele><time>2026-04-19T07:57:14.273Z</time></trkpt><trkpt lat="43.5734718" lon="13.1227209"><ele>134.0</ele><time>2026-04-19T07:57:15.274Z</time></trkpt><trkpt lat="43.5733833" lon="13.1226294"><ele>134.0</ele><time>2026-04-19T07:57:16.273Z</time></trkpt><trkpt lat="43.5732924" lon="13.1225443"><ele>134.0</ele><time>2026-04-19T07:57:17.274Z</time></trkpt><trkpt lat="43.5731907" lon="13.1224594"><ele>134.0</ele><time>2026-04-19T07:57:18.274Z</time></trkpt><trkpt lat="43.5730928" lon="13.1223771"><ele>134.0</ele><time>2026-04-19T07:57:19.274Z</time></trkpt><trkpt lat="43.572989" lon="13.1222962"><ele>134.0</ele><time>2026-04-19T07:57:20.273Z</time></trkpt><trkpt lat="43.5728896" lon="13.1222021"><ele>131.0</ele><time>2026-04-19T07:57:21.274Z</time></trkpt><trkpt lat="43.5727884" lon="13.1221112"><ele>128.0</ele><time>2026-04-19T07:57:22.273Z</time></trkpt><trkpt lat="43.5726891" lon="13.1220218"><ele>125.0</ele><time>2026-04-19T07:57:23.274Z</time></trkpt><trkpt lat="43.5725887" lon="13.1219307"><ele>122.0</ele><time>2026-04-19T07:57:24.274Z</time></trkpt><trkpt lat="43.5724887" lon="13.1218375"><ele>122.0</ele><time>2026-04-19T07:57:25.274Z</time></trkpt><trkpt lat="43.5723906" lon="13.1217385"><ele>122.0</ele><time>2026-04-19T07:57:26.274Z</time></trkpt><trkpt lat="43.572298" lon="13.1216346"><ele>122.0</ele><time>2026-04-19T07:57:27.274Z</time></trkpt><trkpt lat="43.5722122" lon="13.1215252"><ele>122.0</ele><time>2026-04-19T07:57:28.272Z</time></trkpt><trkpt lat="43.5721308" lon="13.1214154"><ele>120.25</ele><time>2026-04-19T07:57:29.273Z</time></trkpt><trkpt lat="43.5720504" lon="13.1213023"><ele>118.5</ele><time>2026-04-19T07:57:30.274Z</time></trkpt><trkpt lat="43.5719752" lon="13.1211833"><ele>116.75</ele><time>2026-04-19T07:57:31.274Z</time></trkpt><trkpt lat="43.5719049" lon="13.1210508"><ele>115.0</ele><time>2026-04-19T07:57:32.273Z</time></trkpt><trkpt lat="43.5718326" lon="13.1209158"><ele>115.0</ele><time>2026-04-19T07:57:33.274Z</time></trkpt><trkpt lat="43.5717618" lon="13.12077"><ele>115.0</ele><time>2026-04-19T07:57:34.274Z</time></trkpt><trkpt lat="43.5716925" lon="13.1206167"><ele>115.0</ele><time>2026-04-19T07:57:35.273Z</time></trkpt><trkpt lat="43.5716256" lon="13.1204683"><ele>115.0</ele><time>2026-04-19T07:57:36.273Z</time></trkpt><trkpt lat="43.5715586" lon="13.1203257"><ele>112.25</ele><time>2026-04-19T07:57:37.273Z</time></trkpt><trkpt lat="43.5714952" lon="13.1201817"><ele>109.5</ele><time>2026-04-19T07:57:38.274Z</time></trkpt><trkpt lat="43.5714319" lon="13.1200395"><ele>106.75</ele><time>2026-04-19T07:57:39.274Z</time></trkpt><trkpt lat="43.5713643" lon="13.1198965"><ele>104.0</ele><time>2026-04-19T07:57:40.274Z</time></trkpt><trkpt lat="43.5712993" lon="13.1197526"><ele>101.25</ele><time>2026-04-19T07:57:41.273Z</time></trkpt><trkpt lat="43.5712316" lon="13.1196049"><ele>98.5</ele><time>2026-04-19T07:57:42.274Z</time></trkpt><trkpt lat="43.5711614" lon="13.1194495"><ele>95.75</ele><time>2026-04-19T07:57:43.274Z</time></trkpt><trkpt lat="43.5710886" lon="13.119289"><ele>93.0</ele><time>2026-04-19T07:57:44.274Z</time></trkpt><trkpt lat="43.571014" lon="13.1191249"><ele>91.75</ele><time>2026-04-19T07:57:45.274Z</time></trkpt><trkpt lat="43.5709378" lon="13.1189574"><ele>90.5</ele><time>2026-04-19T07:57:46.273Z</time></trkpt><trkpt lat="43.5708616" lon="13.1187868"><ele>89.25</ele><time>2026-04-19T07:57:47.274Z</time></trkpt><trkpt lat="43.5707854" lon="13.1186156"><ele>88.0</ele><time>2026-04-19T07:57:48.274Z</time></trkpt><trkpt lat="43.570709" lon="13.1184465"><ele>88.0</ele><time>2026-04-19T07:57:49.274Z</time></trkpt><trkpt lat="43.5706342" lon="13.1182717"><ele>88.0</ele><time>2026-04-19T07:57:50.274Z</time></trkpt><trkpt lat="43.5705595" lon="13.1180937"><ele>88.0</ele><time>2026-04-19T07:57:51.272Z</time></trkpt><trkpt lat="43.5704777" lon="13.1179163"><ele>88.0</ele><time>2026-04-19T07:57:52.273Z</time></trkpt><trkpt lat="43.5703976" lon="13.1177349"><ele>86.75</ele><time>2026-04-19T07:57:53.273Z</time></trkpt><trkpt lat="43.5703195" lon="13.1175588"><ele>85.5</ele><time>2026-04-19T07:57:54.274Z</time></trkpt><trkpt lat="43.5702425" lon="13.1173929"><ele>84.25</ele><time>2026-04-19T07:57:55.274Z</time></trkpt><trkpt lat="43.5701704" lon="13.1172314"><ele>83.0</ele><time>2026-04-19T07:57:56.274Z</time></trkpt><trkpt lat="43.5700994" lon="13.1170785"><ele>83.0</ele><time>2026-04-19T07:57:57.274Z</time></trkpt><trkpt lat="43.5700332" lon="13.1169298"><ele>83.0</ele><time>2026-04-19T07:57:58.274Z</time></trkpt><trkpt lat="43.5699805" lon="13.1167779"><ele>83.0</ele><time>2026-04-19T07:57:59.274Z</time></trkpt><trkpt lat="43.5699462" lon="13.1166233"><ele>83.0</ele><time>2026-04-19T07:58:00.274Z</time></trkpt><trkpt lat="43.5699176" lon="13.1164683"><ele>83.5</ele><time>2026-04-19T07:58:01.273Z</time></trkpt><trkpt lat="43.5698904" lon="13.116312"><ele>84.0</ele><time>2026-04-19T07:58:02.273Z</time></trkpt><trkpt lat="43.5698672" lon="13.1161519"><ele>84.5</ele><time>2026-04-19T07:58:03.274Z</time></trkpt><trkpt lat="43.5698432" lon="13.1159895"><ele>85.0</ele><time>2026-04-19T07:58:04.274Z</time></trkpt><trkpt lat="43.5698212" lon="13.1158357"><ele>85.0</ele><time>2026-04-19T07:58:05.274Z</time></trkpt><trkpt lat="43.5698016" lon="13.1156947"><ele>85.0</ele><time>2026-04-19T07:58:06.274Z</time></trkpt><trkpt lat="43.569782" lon="13.1155664"><ele>85.0</ele><time>2026-04-19T07:58:07.273Z</time></trkpt><trkpt lat="43.5697658" lon="13.1154632"><ele>85.0</ele><time>2026-04-19T07:58:08.274Z</time></trkpt><trkpt lat="43.5697408" lon="13.1153308"><ele>85.0</ele><time>2026-04-19T07:58:10.274Z</time></trkpt><trkpt lat="43.569693" lon="13.1152549"><ele>85.0</ele><time>2026-04-19T07:58:13.274Z</time></trkpt><trkpt lat="43.5696153" lon="13.1152833"><ele>85.0</ele><time>2026-04-19T07:58:15.274Z</time></trkpt><trkpt lat="43.5695566" lon="13.1153445"><ele>85.0</ele><time>2026-04-19T07:58:16.274Z</time></trkpt><trkpt lat="43.5694812" lon="13.1154201"><ele>85.0</ele><time>2026-04-19T07:58:17.273Z</time></trkpt><trkpt lat="43.5694069" lon="13.1154898"><ele>85.0</ele><time>2026-04-19T07:58:18.274Z</time></trkpt><trkpt lat="43.5693225" lon="13.1155652"><ele>85.0</ele><time>2026-04-19T07:58:19.273Z</time></trkpt><trkpt lat="43.5692381" lon="13.1156447"><ele>85.0</ele><time>2026-04-19T07:58:20.273Z</time></trkpt><trkpt lat="43.5691519" lon="13.115726"><ele>85.0</ele><time>2026-04-19T07:58:21.273Z</time></trkpt><trkpt lat="43.5690602" lon="13.1158064"><ele>85.0</ele><time>2026-04-19T07:58:22.272Z</time></trkpt><trkpt lat="43.5689618" lon="13.11589"><ele>85.0</ele><time>2026-04-19T07:58:23.274Z</time></trkpt><trkpt lat="43.5688598" lon="13.1159771"><ele>85.0</ele><time>2026-04-19T07:58:24.274Z</time></trkpt><trkpt lat="43.5687577" lon="13.1160639"><ele>85.6</ele><time>2026-04-19T07:58:25.274Z</time></trkpt><trkpt lat="43.5686563" lon="13.1161547"><ele>86.2</ele><time>2026-04-19T07:58:26.273Z</time></trkpt><trkpt lat="43.5685617" lon="13.116245"><ele>86.80000000000001</ele><time>2026-04-19T07:58:27.274Z</time></trkpt><trkpt lat="43.5684712" lon="13.1163311"><ele>87.4</ele><time>2026-04-19T07:58:28.273Z</time></trkpt><trkpt lat="43.56839" lon="13.1164194"><ele>88.0</ele><time>2026-04-19T07:58:29.274Z</time></trkpt><trkpt lat="43.5683258" lon="13.1165077"><ele>88.0</ele><time>2026-04-19T07:58:30.274Z</time></trkpt><trkpt lat="43.5682791" lon="13.116585"><ele>88.0</ele><time>2026-04-19T07:58:31.274Z</time></trkpt><trkpt lat="43.5682136" lon="13.1166578"><ele>88.0</ele><time>2026-04-19T07:58:33.274Z</time></trkpt><trkpt lat="43.5681594" lon="13.1166096"><ele>88.0</ele><time>2026-04-19T07:58:35.274Z</time></trkpt><trkpt lat="43.5681359" lon="13.1164531"><ele>88.0</ele><time>2026-04-19T07:58:37.274Z</time></trkpt><trkpt lat="43.5681228" lon="13.1163456"><ele>88.0</ele><time>2026-04-19T07:58:38.274Z</time></trkpt><trkpt lat="43.5681003" lon="13.1162385"><ele>88.0</ele><time>2026-04-19T07:58:39.274Z</time></trkpt><trkpt lat="43.5680671" lon="13.1161306"><ele>88.0</ele><time>2026-04-19T07:58:40.274Z</time></trkpt><trkpt lat="43.5680253" lon="13.1160218"><ele>88.0</ele><time>2026-04-19T07:58:41.273Z</time></trkpt><trkpt lat="43.5679713" lon="13.1159237"><ele>88.0</ele><time>2026-04-19T07:58:42.274Z</time></trkpt><trkpt lat="43.5679056" lon="13.1158416"><ele>88.0</ele><time>2026-04-19T07:58:43.274Z</time></trkpt><trkpt lat="43.5678319" lon="13.1157702"><ele>88.0</ele><time>2026-04-19T07:58:44.274Z</time></trkpt><trkpt lat="43.5677563" lon="13.1157006"><ele>87.60000000000001</ele><time>2026-04-19T07:58:45.273Z</time></trkpt><trkpt lat="43.5676807" lon="13.1156205"><ele>87.2</ele><time>2026-04-19T07:58:46.274Z</time></trkpt><trkpt lat="43.5676187" lon="13.1155254"><ele>86.8</ele><time>2026-04-19T07:58:47.273Z</time></trkpt><trkpt lat="43.567571" lon="13.1154169"><ele>86.4</ele><time>2026-04-19T07:58:48.274Z</time></trkpt><trkpt lat="43.5675351" lon="13.1152992"><ele>86.0</ele><time>2026-04-19T07:58:49.274Z</time></trkpt><trkpt lat="43.5675087" lon="13.1151723"><ele>86.0</ele><time>2026-04-19T07:58:50.273Z</time></trkpt><trkpt lat="43.5674856" lon="13.115039"><ele>86.0</ele><time>2026-04-19T07:58:51.274Z</time></trkpt><trkpt lat="43.5674637" lon="13.1149006"><ele>86.0</ele><time>2026-04-19T07:58:52.273Z</time></trkpt><trkpt lat="43.567436" lon="13.1147581"><ele>86.0</ele><time>2026-04-19T07:58:53.274Z</time></trkpt><trkpt lat="43.5674023" lon="13.1146165"><ele>86.0</ele><time>2026-04-19T07:58:54.274Z</time></trkpt><trkpt lat="43.5673627" lon="13.1144782"><ele>86.25</ele><time>2026-04-19T07:58:55.274Z</time></trkpt><trkpt lat="43.567313" lon="13.1143404"><ele>86.5</ele><time>2026-04-19T07:58:56.274Z</time></trkpt><trkpt lat="43.5672513" lon="13.114208"><ele>86.75</ele><time>2026-04-19T07:58:57.273Z</time></trkpt><trkpt lat="43.5671777" lon="13.1140898"><ele>87.0</ele><time>2026-04-19T07:58:58.273Z</time></trkpt><trkpt lat="43.5670956" lon="13.1139838"><ele>88.39999999999999</ele><time>2026-04-19T07:58:59.273Z</time></trkpt><trkpt lat="43.5670089" lon="13.1138859"><ele>89.8</ele><time>2026-04-19T07:59:00.273Z</time></trkpt><trkpt lat="43.5669183" lon="13.1137935"><ele>91.2</ele><time>2026-04-19T07:59:01.273Z</time></trkpt><trkpt lat="43.5668276" lon="13.113706"><ele>92.6</ele><time>2026-04-19T07:59:02.273Z</time></trkpt><trkpt lat="43.5667376" lon="13.1136183"><ele>94.0</ele><time>2026-04-19T07:59:03.273Z</time></trkpt><trkpt lat="43.5666449" lon="13.113528"><ele>94.0</ele><time>2026-04-19T07:59:04.274Z</time></trkpt><trkpt lat="43.5665544" lon="13.1134362"><ele>94.0</ele><time>2026-04-19T07:59:05.274Z</time></trkpt><trkpt lat="43.5664721" lon="13.1133474"><ele>94.0</ele><time>2026-04-19T07:59:06.273Z</time></trkpt><trkpt lat="43.5664058" lon="13.1132699"><ele>94.0</ele><time>2026-04-19T07:59:07.273Z</time></trkpt><trkpt lat="43.5663582" lon="13.1132026"><ele>94.0</ele><time>2026-04-19T07:59:08.274Z</time></trkpt><trkpt lat="43.5662985" lon="13.1130773"><ele>95.6</ele><time>2026-04-19T07:59:10.273Z</time></trkpt><trkpt lat="43.5662864" lon="13.112943"><ele>97.2</ele><time>2026-04-19T07:59:13.274Z</time></trkpt><trkpt lat="43.5663083" lon="13.1127833"><ele>98.8</ele><time>2026-04-19T07:59:15.274Z</time></trkpt><trkpt lat="43.5663251" lon="13.112688"><ele>100.39999999999999</ele><time>2026-04-19T07:59:16.273Z</time></trkpt><trkpt lat="43.5663478" lon="13.1125715"><ele>102.0</ele><time>2026-04-19T07:59:17.274Z</time></trkpt><trkpt lat="43.5663746" lon="13.1124448"><ele>103.6</ele><time>2026-04-19T07:59:18.274Z</time></trkpt><trkpt lat="43.566404" lon="13.112307"><ele>105.19999999999999</ele><time>2026-04-19T07:59:19.274Z</time></trkpt><trkpt lat="43.5664318" lon="13.1121685"><ele>106.8</ele><time>2026-04-19T07:59:20.274Z</time></trkpt><trkpt lat="43.5664588" lon="13.1120271"><ele>108.4</ele><time>2026-04-19T07:59:21.273Z</time></trkpt><trkpt lat="43.5664861" lon="13.1118796"><ele>110.0</ele><time>2026-04-19T07:59:22.273Z</time></trkpt><trkpt lat="43.5665123" lon="13.1117276"><ele>112.0</ele><time>2026-04-19T07:59:23.274Z</time></trkpt><trkpt lat="43.56654" lon="13.1115718"><ele>114.0</ele><time>2026-04-19T07:59:24.274Z</time></trkpt><trkpt lat="43.5665712" lon="13.1114132"><ele>116.0</ele><time>2026-04-19T07:59:25.274Z</time></trkpt><trkpt lat="43.5665999" lon="13.111253"><ele>118.0</ele><time>2026-04-19T07:59:26.273Z</time></trkpt><trkpt lat="43.5666299" lon="13.1110857"><ele>118.0</ele><time>2026-04-19T07:59:27.274Z</time></trkpt><trkpt lat="43.5666595" lon="13.1109282"><ele>118.00000000000001</ele><time>2026-04-19T07:59:28.274Z</time></trkpt><trkpt lat="43.5666903" lon="13.1107818"><ele>118.00000000000001</ele><time>2026-04-19T07:59:29.273Z</time></trkpt><trkpt lat="43.5667192" lon="13.1106442"><ele>118.0</ele><time>2026-04-19T07:59:30.273Z</time></trkpt><trkpt lat="43.5667462" lon="13.1105134"><ele>118.0</ele><time>2026-04-19T07:59:31.273Z</time></trkpt><trkpt lat="43.5667694" lon="13.1104023"><ele>119.00000000000001</ele><time>2026-04-19T07:59:32.272Z</time></trkpt><trkpt lat="43.566786" lon="13.1103144"><ele>120.0</ele><time>2026-04-19T07:59:33.274Z</time></trkpt><trkpt lat="43.5667899" lon="13.1101845"><ele>121.0</ele><time>2026-04-19T07:59:35.273Z</time></trkpt><trkpt lat="43.5667276" lon="13.1100646"><ele>122.0</ele><time>2026-04-19T07:59:37.274Z</time></trkpt><trkpt lat="43.5666665" lon="13.1099999"><ele>123.00000000000001</ele><time>2026-04-19T07:59:38.274Z</time></trkpt><trkpt lat="43.5665952" lon="13.1099158"><ele>124.0</ele><time>2026-04-19T07:59:39.274Z</time></trkpt><trkpt lat="43.566534" lon="13.1098367"><ele>124.66666666666667</ele><time>2026-04-19T07:59:40.274Z</time></trkpt><trkpt lat="43.5664759" lon="13.1097596"><ele>125.33333333333334</ele><time>2026-04-19T07:59:41.274Z</time></trkpt><trkpt lat="43.5664197" lon="13.1096717"><ele>126.0</ele><time>2026-04-19T07:59:42.273Z</time></trkpt><trkpt lat="43.566366" lon="13.10957"><ele>126.66666666666666</ele><time>2026-04-19T07:59:43.274Z</time></trkpt><trkpt lat="43.5663205" lon="13.1094606"><ele>127.33333333333333</ele><time>2026-04-19T07:59:44.273Z</time></trkpt><trkpt lat="43.566279" lon="13.109343"><ele>128.0</ele><time>2026-04-19T07:59:45.273Z</time></trkpt><trkpt lat="43.5662403" lon="13.1092194"><ele>128.0</ele><time>2026-04-19T07:59:46.273Z</time></trkpt><trkpt lat="43.5662035" lon="13.1090896"><ele>128.0</ele><time>2026-04-19T07:59:47.274Z</time></trkpt><trkpt lat="43.5661683" lon="13.108951"><ele>128.0</ele><time>2026-04-19T07:59:48.274Z</time></trkpt><trkpt lat="43.5661399" lon="13.1088135"><ele>128.0</ele><time>2026-04-19T07:59:49.273Z</time></trkpt><trkpt lat="43.5661103" lon="13.1086636"><ele>128.0</ele><time>2026-04-19T07:59:50.274Z</time></trkpt><trkpt lat="43.5660761" lon="13.1084991"><ele>129.5</ele><time>2026-04-19T07:59:51.273Z</time></trkpt><trkpt lat="43.5660416" lon="13.1083236"><ele>131.0</ele><time>2026-04-19T07:59:52.273Z</time></trkpt><trkpt lat="43.5660101" lon="13.1081492"><ele>132.5</ele><time>2026-04-19T07:59:53.274Z</time></trkpt><trkpt lat="43.5659781" lon="13.107973"><ele>134.0</ele><time>2026-04-19T07:59:54.274Z</time></trkpt><trkpt lat="43.5659466" lon="13.1077922"><ele>136.25</ele><time>2026-04-19T07:59:55.274Z</time></trkpt><trkpt lat="43.5659161" lon="13.1076129"><ele>138.5</ele><time>2026-04-19T07:59:56.274Z</time></trkpt><trkpt lat="43.5658854" lon="13.1074292"><ele>140.75</ele><time>2026-04-19T07:59:57.274Z</time></trkpt><trkpt lat="43.5658597" lon="13.1072504"><ele>143.0</ele><time>2026-04-19T07:59:58.274Z</time></trkpt><trkpt lat="43.5658339" lon="13.1070711"><ele>144.75</ele><time>2026-04-19T07:59:59.274Z</time></trkpt><trkpt lat="43.5658073" lon="13.1068897"><ele>146.5</ele><time>2026-04-19T08:00:00.273Z</time></trkpt><trkpt lat="43.5657805" lon="13.1067022"><ele>148.25</ele><time>2026-04-19T08:00:01.274Z</time></trkpt><trkpt lat="43.5657538" lon="13.106505"><ele>150.0</ele><time>2026-04-19T08:00:02.274Z</time></trkpt><trkpt lat="43.565731" lon="13.1063123"><ele>152.25</ele><time>2026-04-19T08:00:03.273Z</time></trkpt><trkpt lat="43.5657099" lon="13.1061255"><ele>154.5</ele><time>2026-04-19T08:00:04.274Z</time></trkpt><trkpt lat="43.5656989" lon="13.1059416"><ele>156.75</ele><time>2026-04-19T08:00:05.274Z</time></trkpt><trkpt lat="43.5656987" lon="13.1057839"><ele>159.0</ele><time>2026-04-19T08:00:06.274Z</time></trkpt><trkpt lat="43.5657057" lon="13.1056462"><ele>160.0</ele><time>2026-04-19T08:00:07.274Z</time></trkpt><trkpt lat="43.5657061" lon="13.1055372"><ele>161.0</ele><time>2026-04-19T08:00:08.274Z</time></trkpt><trkpt lat="43.5656941" lon="13.1054245"><ele>162.0</ele><time>2026-04-19T08:00:09.274Z</time></trkpt><trkpt lat="43.5656651" lon="13.1053108"><ele>163.0</ele><time>2026-04-19T08:00:10.274Z</time></trkpt><trkpt lat="43.5656162" lon="13.1051975"><ele>164.0</ele><time>2026-04-19T08:00:11.273Z</time></trkpt><trkpt lat="43.5655536" lon="13.1050819"><ele>165.0</ele><time>2026-04-19T08:00:12.274Z</time></trkpt><trkpt lat="43.5654835" lon="13.1049716"><ele>165.25</ele><time>2026-04-19T08:00:13.274Z</time></trkpt><trkpt lat="43.5654043" lon="13.1048544"><ele>165.5</ele><time>2026-04-19T08:00:14.274Z</time></trkpt><trkpt lat="43.5653211" lon="13.1047306"><ele>165.75</ele><time>2026-04-19T08:00:15.274Z</time></trkpt><trkpt lat="43.5652358" lon="13.1046101"><ele>166.0</ele><time>2026-04-19T08:00:16.274Z</time></trkpt><trkpt lat="43.5651469" lon="13.1044835"><ele>167.5</ele><time>2026-04-19T08:00:17.274Z</time></trkpt><trkpt lat="43.5650557" lon="13.1043516"><ele>169.0</ele><time>2026-04-19T08:00:18.273Z</time></trkpt><trkpt lat="43.5649671" lon="13.1042229"><ele>170.5</ele><time>2026-04-19T08:00:19.274Z</time></trkpt><trkpt lat="43.564876" lon="13.1040921"><ele>172.0</ele><time>2026-04-19T08:00:20.273Z</time></trkpt><trkpt lat="43.5647847" lon="13.1039597"><ele>173.2</ele><time>2026-04-19T08:00:21.274Z</time></trkpt><trkpt lat="43.5646956" lon="13.1038357"><ele>174.39999999999998</ele><time>2026-04-19T08:00:22.274Z</time></trkpt><trkpt lat="43.5646199" lon="13.1037299"><ele>175.60000000000002</ele><time>2026-04-19T08:00:23.274Z</time></trkpt><trkpt lat="43.5645495" lon="13.1036309"><ele>176.8</ele><time>2026-04-19T08:00:24.274Z</time></trkpt><trkpt lat="43.5644898" lon="13.1035446"><ele>178.0</ele><time>2026-04-19T08:00:25.273Z</time></trkpt><trkpt lat="43.564436" lon="13.103469"><ele>178.83333333333334</ele><time>2026-04-19T08:00:26.272Z</time></trkpt><trkpt lat="43.5643818" lon="13.1033898"><ele>179.66666666666669</ele><time>2026-04-19T08:00:27.273Z</time></trkpt><trkpt lat="43.5643315" lon="13.1033195"><ele>180.5</ele><time>2026-04-19T08:00:28.273Z</time></trkpt><trkpt lat="43.5642786" lon="13.1031907"><ele>181.33333333333334</ele><time>2026-04-19T08:00:30.274Z</time></trkpt><trkpt lat="43.5643087" lon="13.1030961"><ele>182.16666666666666</ele><time>2026-04-19T08:00:32.273Z</time></trkpt><trkpt lat="43.5643557" lon="13.1030298"><ele>183.0</ele><time>2026-04-19T08:00:33.273Z</time></trkpt><trkpt lat="43.5644512" lon="13.1029238"><ele>183.0</ele><time>2026-04-19T08:00:35.273Z</time></trkpt><trkpt lat="43.5645037" lon="13.1028678"><ele>183.0</ele><time>2026-04-19T08:00:36.274Z</time></trkpt><trkpt lat="43.5645916" lon="13.1027805"><ele>183.0</ele><time>2026-04-19T08:00:38.274Z</time></trkpt><trkpt lat="43.5646826" lon="13.1026862"><ele>183.0</ele><time>2026-04-19T08:00:40.273Z</time></trkpt><trkpt lat="43.564733" lon="13.1026311"><ele>183.0</ele><time>2026-04-19T08:00:41.274Z</time></trkpt><trkpt lat="43.5647905" lon="13.1025631"><ele>183.0</ele><time>2026-04-19T08:00:42.274Z</time></trkpt><trkpt lat="43.5648488" lon="13.1024975"><ele>183.0</ele><time>2026-04-19T08:00:43.273Z</time></trkpt><trkpt lat="43.5649056" lon="13.1024311"><ele>183.0</ele><time>2026-04-19T08:00:44.273Z</time></trkpt><trkpt lat="43.5649589" lon="13.1023696"><ele>183.0</ele><time>2026-04-19T08:00:45.272Z</time></trkpt><trkpt lat="43.5650131" lon="13.1022948"><ele>183.0</ele><time>2026-04-19T08:00:46.274Z</time></trkpt><trkpt lat="43.5650689" lon="13.1022169"><ele>183.0</ele><time>2026-04-19T08:00:47.274Z</time></trkpt><trkpt lat="43.56512" lon="13.1021388"><ele>183.0</ele><time>2026-04-19T08:00:48.273Z</time></trkpt><trkpt lat="43.5651663" lon="13.1020655"><ele>183.0</ele><time>2026-04-19T08:00:49.274Z</time></trkpt><trkpt lat="43.5652153" lon="13.1019871"><ele>183.16666666666666</ele><time>2026-04-19T08:00:50.274Z</time></trkpt><trkpt lat="43.5652609" lon="13.1019189"><ele>183.33333333333334</ele><time>2026-04-19T08:00:51.274Z</time></trkpt><trkpt lat="43.5653042" lon="13.1018517"><ele>183.5</ele><time>2026-04-19T08:00:52.272Z</time></trkpt><trkpt lat="43.565388" lon="13.1017247"><ele>183.66666666666669</ele><time>2026-04-19T08:00:54.274Z</time></trkpt><trkpt lat="43.5654357" lon="13.1016521"><ele>183.83333333333334</ele><time>2026-04-19T08:00:55.274Z</time></trkpt><trkpt lat="43.5654844" lon="13.101574"><ele>184.0</ele><time>2026-04-19T08:00:56.273Z</time></trkpt><trkpt lat="43.5655381" lon="13.1014924"><ele>182.6</ele><time>2026-04-19T08:00:57.273Z</time></trkpt><trkpt lat="43.5656025" lon="13.1013958"><ele>181.2</ele><time>2026-04-19T08:00:58.274Z</time></trkpt><trkpt lat="43.5656712" lon="13.1012876"><ele>179.79999999999998</ele><time>2026-04-19T08:00:59.274Z</time></trkpt><trkpt lat="43.5657325" lon="13.1011885"><ele>178.39999999999998</ele><time>2026-04-19T08:01:00.274Z</time></trkpt><trkpt lat="43.5657955" lon="13.1010946"><ele>177.0</ele><time>2026-04-19T08:01:01.272Z</time></trkpt><trkpt lat="43.5658558" lon="13.1010038"><ele>177.0</ele><time>2026-04-19T08:01:02.273Z</time></trkpt><trkpt lat="43.5659194" lon="13.1009027"><ele>177.0</ele><time>2026-04-19T08:01:03.273Z</time></trkpt><trkpt lat="43.5659884" lon="13.1007888"><ele>177.0</ele><time>2026-04-19T08:01:04.273Z</time></trkpt><trkpt lat="43.5660588" lon="13.1006726"><ele>177.0</ele><time>2026-04-19T08:01:05.273Z</time></trkpt><trkpt lat="43.5661262" lon="13.1005559"><ele>177.0</ele><time>2026-04-19T08:01:06.274Z</time></trkpt><trkpt lat="43.5661922" lon="13.100442"><ele>176.8</ele><time>2026-04-19T08:01:07.274Z</time></trkpt><trkpt lat="43.5662568" lon="13.1003323"><ele>176.6</ele><time>2026-04-19T08:01:08.274Z</time></trkpt><trkpt lat="43.5663202" lon="13.1002196"><ele>176.4</ele><time>2026-04-19T08:01:09.274Z</time></trkpt><trkpt lat="43.566382" lon="13.1001135"><ele>176.20000000000002</ele><time>2026-04-19T08:01:10.274Z</time></trkpt><trkpt lat="43.5664447" lon="13.1000101"><ele>176.0</ele><time>2026-04-19T08:01:11.274Z</time></trkpt><trkpt lat="43.5665044" lon="13.0999098"><ele>176.0</ele><time>2026-04-19T08:01:12.273Z</time></trkpt><trkpt lat="43.5665583" lon="13.0998134"><ele>176.0</ele><time>2026-04-19T08:01:13.274Z</time></trkpt><trkpt lat="43.5666072" lon="13.0997209"><ele>176.0</ele><time>2026-04-19T08:01:14.274Z</time></trkpt><trkpt lat="43.5666568" lon="13.0996248"><ele>176.0</ele><time>2026-04-19T08:01:15.273Z</time></trkpt><trkpt lat="43.5667017" lon="13.0995186"><ele>176.0</ele><time>2026-04-19T08:01:16.273Z</time></trkpt><trkpt lat="43.5667446" lon="13.0994062"><ele>176.0</ele><time>2026-04-19T08:01:17.273Z</time></trkpt><trkpt lat="43.5667876" lon="13.0992981"><ele>176.0</ele><time>2026-04-19T08:01:18.274Z</time></trkpt><trkpt lat="43.5668289" lon="13.0991939"><ele>176.0</ele><time>2026-04-19T08:01:19.274Z</time></trkpt><trkpt lat="43.5668707" lon="13.0990917"><ele>176.0</ele><time>2026-04-19T08:01:20.274Z</time></trkpt><trkpt lat="43.5669153" lon="13.0989852"><ele>176.0</ele><time>2026-04-19T08:01:21.272Z</time></trkpt><trkpt lat="43.5669572" lon="13.0988683"><ele>176.0</ele><time>2026-04-19T08:01:22.273Z</time></trkpt><trkpt lat="43.5669938" lon="13.0987379"><ele>175.25</ele><time>2026-04-19T08:01:23.274Z</time></trkpt><trkpt lat="43.5670303" lon="13.0986009"><ele>174.5</ele><time>2026-04-19T08:01:24.274Z</time></trkpt><trkpt lat="43.5670726" lon="13.0984602"><ele>173.75</ele><time>2026-04-19T08:01:25.273Z</time></trkpt><trkpt lat="43.5671266" lon="13.0983056"><ele>173.0</ele><time>2026-04-19T08:01:26.273Z</time></trkpt><trkpt lat="43.5671816" lon="13.0981636"><ele>173.0</ele><time>2026-04-19T08:01:27.272Z</time></trkpt><trkpt lat="43.5672343" lon="13.0980332"><ele>173.0</ele><time>2026-04-19T08:01:28.274Z</time></trkpt><trkpt lat="43.5672837" lon="13.0979117"><ele>173.0</ele><time>2026-04-19T08:01:29.274Z</time></trkpt><trkpt lat="43.5673258" lon="13.0977994"><ele>173.0</ele><time>2026-04-19T08:01:30.274Z</time></trkpt><trkpt lat="43.5673616" lon="13.0976795"><ele>173.0</ele><time>2026-04-19T08:01:31.274Z</time></trkpt><trkpt lat="43.567387" lon="13.0975543"><ele>173.0</ele><time>2026-04-19T08:01:32.273Z</time></trkpt><trkpt lat="43.5673986" lon="13.0974299"><ele>173.0</ele><time>2026-04-19T08:01:33.274Z</time></trkpt><trkpt lat="43.5673942" lon="13.0973065"><ele>173.0</ele><time>2026-04-19T08:01:34.274Z</time></trkpt><trkpt lat="43.5673775" lon="13.0971749"><ele>173.0</ele><time>2026-04-19T08:01:35.274Z</time></trkpt><trkpt lat="43.5673513" lon="13.0970351"><ele>173.0</ele><time>2026-04-19T08:01:36.274Z</time></trkpt><trkpt lat="43.5673167" lon="13.096892"><ele>174.0</ele><time>2026-04-19T08:01:37.274Z</time></trkpt><trkpt lat="43.5672766" lon="13.0967479"><ele>175.0</ele><time>2026-04-19T08:01:38.273Z</time></trkpt><trkpt lat="43.5672321" lon="13.0966029"><ele>176.0</ele><time>2026-04-19T08:01:39.273Z</time></trkpt><trkpt lat="43.5671872" lon="13.0964573"><ele>177.0</ele><time>2026-04-19T08:01:40.274Z</time></trkpt><trkpt lat="43.5671457" lon="13.0963127"><ele>177.0</ele><time>2026-04-19T08:01:41.274Z</time></trkpt><trkpt lat="43.5671042" lon="13.0961712"><ele>177.0</ele><time>2026-04-19T08:01:42.274Z</time></trkpt><trkpt lat="43.5670647" lon="13.0960244"><ele>177.0</ele><time>2026-04-19T08:01:43.273Z</time></trkpt><trkpt lat="43.5670244" lon="13.095868"><ele>177.0</ele><time>2026-04-19T08:01:44.273Z</time></trkpt><trkpt lat="43.5669835" lon="13.0957071"><ele>178.75</ele><time>2026-04-19T08:01:45.273Z</time></trkpt><trkpt lat="43.566941" lon="13.0955407"><ele>180.5</ele><time>2026-04-19T08:01:46.271Z</time></trkpt><trkpt lat="43.566899" lon="13.0953696"><ele>182.25</ele><time>2026-04-19T08:01:47.273Z</time></trkpt><trkpt lat="43.5668567" lon="13.0952022"><ele>184.0</ele><time>2026-04-19T08:01:48.273Z</time></trkpt><trkpt lat="43.5668185" lon="13.0950434"><ele>183.0</ele><time>2026-04-19T08:01:49.271Z</time></trkpt><trkpt lat="43.5667794" lon="13.094894"><ele>182.0</ele><time>2026-04-19T08:01:50.272Z</time></trkpt><trkpt lat="43.5667368" lon="13.0947606"><ele>181.0</ele><time>2026-04-19T08:01:51.272Z</time></trkpt><trkpt lat="43.5666886" lon="13.0946409"><ele>180.0</ele><time>2026-04-19T08:01:52.272Z</time></trkpt><trkpt lat="43.5666281" lon="13.0945206"><ele>179.0</ele><time>2026-04-19T08:01:53.272Z</time></trkpt><trkpt lat="43.5665605" lon="13.094404"><ele>179.0</ele><time>2026-04-19T08:01:54.271Z</time></trkpt><trkpt lat="43.566484" lon="13.094298"><ele>179.0</ele><time>2026-04-19T08:01:55.273Z</time></trkpt><trkpt lat="43.5663941" lon="13.0941922"><ele>179.0</ele><time>2026-04-19T08:01:56.273Z</time></trkpt><trkpt lat="43.5662995" lon="13.0940895"><ele>179.0</ele><time>2026-04-19T08:01:57.273Z</time></trkpt><trkpt lat="43.5662062" lon="13.0939941"><ele>178.0</ele><time>2026-04-19T08:01:58.273Z</time></trkpt><trkpt lat="43.5661207" lon="13.0939042"><ele>177.0</ele><time>2026-04-19T08:01:59.273Z</time></trkpt><trkpt lat="43.5660398" lon="13.0938174"><ele>176.0</ele><time>2026-04-19T08:02:00.273Z</time></trkpt><trkpt lat="43.5659544" lon="13.0937347"><ele>175.0</ele><time>2026-04-19T08:02:01.273Z</time></trkpt><trkpt lat="43.5658619" lon="13.0936518"><ele>174.0</ele><time>2026-04-19T08:02:02.272Z</time></trkpt><trkpt lat="43.5657664" lon="13.0935698"><ele>174.0</ele><time>2026-04-19T08:02:03.273Z</time></trkpt><trkpt lat="43.5656702" lon="13.0934891"><ele>174.0</ele><time>2026-04-19T08:02:04.273Z</time></trkpt><trkpt lat="43.565574" lon="13.0934137"><ele>174.0</ele><time>2026-04-19T08:02:05.273Z</time></trkpt><trkpt lat="43.5654803" lon="13.0933387"><ele>174.0</ele><time>2026-04-19T08:02:06.273Z</time></trkpt><trkpt lat="43.5653879" lon="13.0932699"><ele>174.0</ele><time>2026-04-19T08:02:07.272Z</time></trkpt><trkpt lat="43.5652941" lon="13.0932047"><ele>172.39999999999998</ele><time>2026-04-19T08:02:08.272Z</time></trkpt><trkpt lat="43.5651987" lon="13.0931418"><ele>170.8</ele><time>2026-04-19T08:02:09.272Z</time></trkpt><trkpt lat="43.5651017" lon="13.0930759"><ele>169.2</ele><time>2026-04-19T08:02:10.272Z</time></trkpt><trkpt lat="43.5650084" lon="13.0930055"><ele>167.60000000000002</ele><time>2026-04-19T08:02:11.272Z</time></trkpt><trkpt lat="43.5649137" lon="13.0929323"><ele>166.0</ele><time>2026-04-19T08:02:12.273Z</time></trkpt><trkpt lat="43.5648236" lon="13.092853"><ele>166.0</ele><time>2026-04-19T08:02:13.273Z</time></trkpt><trkpt lat="43.5647333" lon="13.0927651"><ele>166.0</ele><time>2026-04-19T08:02:14.273Z</time></trkpt><trkpt lat="43.5646461" lon="13.0926625"><ele>166.0</ele><time>2026-04-19T08:02:15.273Z</time></trkpt><trkpt lat="43.5645542" lon="13.0925547"><ele>166.0</ele><time>2026-04-19T08:02:16.271Z</time></trkpt><trkpt lat="43.5644499" lon="13.0924452"><ele>163.5</ele><time>2026-04-19T08:02:17.273Z</time></trkpt><trkpt lat="43.5643387" lon="13.0923377"><ele>161.0</ele><time>2026-04-19T08:02:18.273Z</time></trkpt><trkpt lat="43.564225" lon="13.0922312"><ele>158.5</ele><time>2026-04-19T08:02:19.273Z</time></trkpt><trkpt lat="43.5641113" lon="13.0921215"><ele>156.0</ele><time>2026-04-19T08:02:20.272Z</time></trkpt><trkpt lat="43.5639972" lon="13.0920034"><ele>156.0</ele><time>2026-04-19T08:02:21.273Z</time></trkpt><trkpt lat="43.5638852" lon="13.091885"><ele>156.0</ele><time>2026-04-19T08:02:22.272Z</time></trkpt><trkpt lat="43.5637762" lon="13.0917669"><ele>156.0</ele><time>2026-04-19T08:02:23.273Z</time></trkpt><trkpt lat="43.5636755" lon="13.0916525"><ele>156.0</ele><time>2026-04-19T08:02:24.272Z</time></trkpt><trkpt lat="43.563585" lon="13.0915428"><ele>154.8</ele><time>2026-04-19T08:02:25.272Z</time></trkpt><trkpt lat="43.563505" lon="13.0914323"><ele>153.6</ele><time>2026-04-19T08:02:26.273Z</time></trkpt><trkpt lat="43.5634396" lon="13.0913153"><ele>152.4</ele><time>2026-04-19T08:02:27.272Z</time></trkpt><trkpt lat="43.5633836" lon="13.0911889"><ele>151.2</ele><time>2026-04-19T08:02:28.271Z</time></trkpt><trkpt lat="43.563336" lon="13.0910596"><ele>150.0</ele><time>2026-04-19T08:02:29.272Z</time></trkpt><trkpt lat="43.5633021" lon="13.090935"><ele>150.0</ele><time>2026-04-19T08:02:30.272Z</time></trkpt><trkpt lat="43.5632734" lon="13.0908278"><ele>150.0</ele><time>2026-04-19T08:02:31.273Z</time></trkpt><trkpt lat="43.5632445" lon="13.0907222"><ele>150.0</ele><time>2026-04-19T08:02:32.273Z</time></trkpt><trkpt lat="43.5632127" lon="13.0906133"><ele>150.0</ele><time>2026-04-19T08:02:33.272Z</time></trkpt><trkpt lat="43.5631748" lon="13.0905042"><ele>150.0</ele><time>2026-04-19T08:02:34.271Z</time></trkpt><trkpt lat="43.5631323" lon="13.0903968"><ele>150.0</ele><time>2026-04-19T08:02:35.273Z</time></trkpt><trkpt lat="43.5630808" lon="13.0902907"><ele>148.2</ele><time>2026-04-19T08:02:36.273Z</time></trkpt><trkpt lat="43.5630219" lon="13.0901837"><ele>146.4</ele><time>2026-04-19T08:02:37.273Z</time></trkpt><trkpt lat="43.5629593" lon="13.0900797"><ele>144.6</ele><time>2026-04-19T08:02:38.273Z</time></trkpt><trkpt lat="43.562898" lon="13.089982"><ele>142.8</ele><time>2026-04-19T08:02:39.272Z</time></trkpt><trkpt lat="43.5628361" lon="13.0898895"><ele>141.0</ele><time>2026-04-19T08:02:40.273Z</time></trkpt><trkpt lat="43.5627781" lon="13.089802"><ele>139.0</ele><time>2026-04-19T08:02:41.272Z</time></trkpt><trkpt lat="43.5627224" lon="13.0897229"><ele>137.0</ele><time>2026-04-19T08:02:42.273Z</time></trkpt><trkpt lat="43.5626649" lon="13.0896476"><ele>135.0</ele><time>2026-04-19T08:02:43.273Z</time></trkpt><trkpt lat="43.5626069" lon="13.089577"><ele>133.0</ele><time>2026-04-19T08:02:44.273Z</time></trkpt><trkpt lat="43.5625478" lon="13.089509"><ele>131.0</ele><time>2026-04-19T08:02:45.273Z</time></trkpt><trkpt lat="43.562486" lon="13.0894443"><ele>129.0</ele><time>2026-04-19T08:02:46.271Z</time></trkpt><trkpt lat="43.5624273" lon="13.0893845"><ele>129.0</ele><time>2026-04-19T08:02:47.273Z</time></trkpt><trkpt lat="43.562367" lon="13.0893233"><ele>129.0</ele><time>2026-04-19T08:02:48.273Z</time></trkpt><trkpt lat="43.5623066" lon="13.0892602"><ele>129.0</ele><time>2026-04-19T08:02:49.273Z</time></trkpt><trkpt lat="43.5622493" lon="13.0891909"><ele>129.0</ele><time>2026-04-19T08:02:50.272Z</time></trkpt><trkpt lat="43.562201" lon="13.089104"><ele>129.0</ele><time>2026-04-19T08:02:51.272Z</time></trkpt><trkpt lat="43.5621622" lon="13.0890032"><ele>129.0</ele><time>2026-04-19T08:02:52.272Z</time></trkpt><trkpt lat="43.5621239" lon="13.0888968"><ele>127.0</ele><time>2026-04-19T08:02:53.272Z</time></trkpt><trkpt lat="43.5620862" lon="13.0888012"><ele>125.0</ele><time>2026-04-19T08:02:54.271Z</time></trkpt><trkpt lat="43.5620482" lon="13.0887069"><ele>123.0</ele><time>2026-04-19T08:02:55.272Z</time></trkpt><trkpt lat="43.5620067" lon="13.0886214"><ele>121.0</ele><time>2026-04-19T08:02:56.272Z</time></trkpt><trkpt lat="43.5619639" lon="13.0885401"><ele>119.0</ele><time>2026-04-19T08:02:57.272Z</time></trkpt><trkpt lat="43.5619206" lon="13.0884648"><ele>117.0</ele><time>2026-04-19T08:02:58.273Z</time></trkpt><trkpt lat="43.5618405" lon="13.0883415"><ele>114.8</ele><time>2026-04-19T08:03:00.273Z</time></trkpt><trkpt lat="43.5617551" lon="13.0882373"><ele>112.6</ele><time>2026-04-19T08:03:02.273Z</time></trkpt><trkpt lat="43.5616583" lon="13.0881607"><ele>110.39999999999999</ele><time>2026-04-19T08:03:04.273Z</time></trkpt><trkpt lat="43.5615442" lon="13.088111"><ele>108.19999999999999</ele><time>2026-04-19T08:03:06.273Z</time></trkpt><trkpt lat="43.5614799" lon="13.0880973"><ele>106.0</ele><time>2026-04-19T08:03:07.273Z</time></trkpt><trkpt lat="43.5614101" lon="13.0880956"><ele>106.00000000000001</ele><time>2026-04-19T08:03:08.272Z</time></trkpt><trkpt lat="43.5613354" lon="13.0881043"><ele>106.0</ele><time>2026-04-19T08:03:09.272Z</time></trkpt><trkpt lat="43.5612569" lon="13.0881271"><ele>106.0</ele><time>2026-04-19T08:03:10.272Z</time></trkpt><trkpt lat="43.5611851" lon="13.0881434"><ele>106.0</ele><time>2026-04-19T08:03:11.272Z</time></trkpt><trkpt lat="43.5611088" lon="13.0881495"><ele>106.00000000000001</ele><time>2026-04-19T08:03:12.273Z</time></trkpt><trkpt lat="43.5610219" lon="13.0881489"><ele>106.0</ele><time>2026-04-19T08:03:13.273Z</time></trkpt><trkpt lat="43.560937" lon="13.0881174"><ele>105.75</ele><time>2026-04-19T08:03:14.272Z</time></trkpt><trkpt lat="43.5608619" lon="13.0879673"><ele>105.5</ele><time>2026-04-19T08:03:15.272Z</time></trkpt><trkpt lat="43.5607779" lon="13.0878587"><ele>105.25</ele><time>2026-04-19T08:03:16.271Z</time></trkpt><trkpt lat="43.5606927" lon="13.0877279"><ele>105.0</ele><time>2026-04-19T08:03:17.273Z</time></trkpt><trkpt lat="43.5606142" lon="13.0876044"><ele>105.0</ele><time>2026-04-19T08:03:18.272Z</time></trkpt><trkpt lat="43.5605459" lon="13.0875047"><ele>105.0</ele><time>2026-04-19T08:03:19.273Z</time></trkpt><trkpt lat="43.5604685" lon="13.0874265"><ele>105.0</ele><time>2026-04-19T08:03:20.272Z</time></trkpt><trkpt lat="43.5603754" lon="13.0873485"><ele>105.0</ele><time>2026-04-19T08:03:21.273Z</time></trkpt><trkpt lat="43.5602758" lon="13.0872758"><ele>105.0</ele><time>2026-04-19T08:03:22.273Z</time></trkpt><trkpt lat="43.5601798" lon="13.0872072"><ele>109.5</ele><time>2026-04-19T08:03:23.273Z</time></trkpt><trkpt lat="43.5600827" lon="13.0871347"><ele>114.0</ele><time>2026-04-19T08:03:24.273Z</time></trkpt><trkpt lat="43.5599797" lon="13.0870532"><ele>118.5</ele><time>2026-04-19T08:03:25.272Z</time></trkpt><trkpt lat="43.5598774" lon="13.086967"><ele>123.0</ele><time>2026-04-19T08:03:26.272Z</time></trkpt><trkpt lat="43.5597787" lon="13.0868834"><ele>123.0</ele><time>2026-04-19T08:03:27.273Z</time></trkpt><trkpt lat="43.5597124" lon="13.0868139"><ele>123.00000000000001</ele><time>2026-04-19T08:03:28.273Z</time></trkpt><trkpt lat="43.559654" lon="13.0867068"><ele>123.00000000000001</ele><time>2026-04-19T08:03:30.272Z</time></trkpt><trkpt lat="43.5596706" lon="13.0865601"><ele>123.0</ele><time>2026-04-19T08:03:32.273Z</time></trkpt><trkpt lat="43.5597088" lon="13.0864416"><ele>123.0</ele><time>2026-04-19T08:03:33.271Z</time></trkpt><trkpt lat="43.5597523" lon="13.0863184"><ele>124.2</ele><time>2026-04-19T08:03:34.273Z</time></trkpt><trkpt lat="43.5598025" lon="13.0861858"><ele>125.4</ele><time>2026-04-19T08:03:35.273Z</time></trkpt><trkpt lat="43.5598487" lon="13.0860654"><ele>126.60000000000001</ele><time>2026-04-19T08:03:36.272Z</time></trkpt><trkpt lat="43.559894" lon="13.0859426"><ele>127.80000000000001</ele><time>2026-04-19T08:03:37.273Z</time></trkpt><trkpt lat="43.5599411" lon="13.0858151"><ele>129.0</ele><time>2026-04-19T08:03:38.273Z</time></trkpt><trkpt lat="43.5599876" lon="13.0856818"><ele>130.25</ele><time>2026-04-19T08:03:39.273Z</time></trkpt><trkpt lat="43.5600382" lon="13.0855297"><ele>131.5</ele><time>2026-04-19T08:03:40.273Z</time></trkpt><trkpt lat="43.5600964" lon="13.0853704"><ele>132.75</ele><time>2026-04-19T08:03:41.273Z</time></trkpt><trkpt lat="43.5601564" lon="13.085212"><ele>134.0</ele><time>2026-04-19T08:03:42.273Z</time></trkpt><trkpt lat="43.5602056" lon="13.0850765"><ele>134.0</ele><time>2026-04-19T08:03:43.273Z</time></trkpt><trkpt lat="43.5602387" lon="13.0849662"><ele>134.0</ele><time>2026-04-19T08:03:44.272Z</time></trkpt><trkpt lat="43.5602264" lon="13.0848123"><ele>134.0</ele><time>2026-04-19T08:03:46.273Z</time></trkpt><trkpt lat="43.5601584" lon="13.0847338"><ele>134.0</ele><time>2026-04-19T08:03:47.273Z</time></trkpt><trkpt lat="43.560079" lon="13.0846343"><ele>134.0</ele><time>2026-04-19T08:03:48.272Z</time></trkpt><trkpt lat="43.5600031" lon="13.0845232"><ele>135.0</ele><time>2026-04-19T08:03:49.273Z</time></trkpt><trkpt lat="43.5599252" lon="13.0844141"><ele>136.0</ele><time>2026-04-19T08:03:50.273Z</time></trkpt><trkpt lat="43.5598484" lon="13.0843002"><ele>137.0</ele><time>2026-04-19T08:03:51.273Z</time></trkpt><trkpt lat="43.5597728" lon="13.0841938"><ele>138.0</ele><time>2026-04-19T08:03:52.273Z</time></trkpt><trkpt lat="43.5597046" lon="13.0840902"><ele>139.0</ele><time>2026-04-19T08:03:53.273Z</time></trkpt><trkpt lat="43.5596369" lon="13.0839873"><ele>139.5</ele><time>2026-04-19T08:03:54.272Z</time></trkpt><trkpt lat="43.5595664" lon="13.0838853"><ele>140.0</ele><time>2026-04-19T08:03:55.272Z</time></trkpt><trkpt lat="43.5594917" lon="13.0837687"><ele>140.5</ele><time>2026-04-19T08:03:56.273Z</time></trkpt><trkpt lat="43.5594161" lon="13.0836458"><ele>141.0</ele><time>2026-04-19T08:03:57.272Z</time></trkpt><trkpt lat="43.5593427" lon="13.0835177"><ele>138.75</ele><time>2026-04-19T08:03:58.273Z</time></trkpt><trkpt lat="43.5592714" lon="13.0833772"><ele>136.5</ele><time>2026-04-19T08:03:59.272Z</time></trkpt><trkpt lat="43.5592007" lon="13.0832301"><ele>134.25</ele><time>2026-04-19T08:04:00.273Z</time></trkpt><trkpt lat="43.5591324" lon="13.0830809"><ele>132.0</ele><time>2026-04-19T08:04:01.273Z</time></trkpt><trkpt lat="43.5590637" lon="13.0829327"><ele>131.5</ele><time>2026-04-19T08:04:02.273Z</time></trkpt><trkpt lat="43.5589959" lon="13.0827898"><ele>131.0</ele><time>2026-04-19T08:04:03.272Z</time></trkpt><trkpt lat="43.5589321" lon="13.0826497"><ele>130.5</ele><time>2026-04-19T08:04:04.272Z</time></trkpt><trkpt lat="43.5588721" lon="13.082513"><ele>130.0</ele><time>2026-04-19T08:04:05.272Z</time></trkpt><trkpt lat="43.5588141" lon="13.0823785"><ele>128.75</ele><time>2026-04-19T08:04:06.272Z</time></trkpt><trkpt lat="43.5587523" lon="13.082244"><ele>127.5</ele><time>2026-04-19T08:04:07.271Z</time></trkpt><trkpt lat="43.5586895" lon="13.0821091"><ele>126.25</ele><time>2026-04-19T08:04:08.272Z</time></trkpt><trkpt lat="43.5586243" lon="13.0819752"><ele>125.0</ele><time>2026-04-19T08:04:09.272Z</time></trkpt><trkpt lat="43.558558" lon="13.0818449"><ele>125.0</ele><time>2026-04-19T08:04:10.272Z</time></trkpt><trkpt lat="43.558494" lon="13.0817205"><ele>125.0</ele><time>2026-04-19T08:04:11.273Z</time></trkpt><trkpt lat="43.5584326" lon="13.0816011"><ele>125.0</ele><time>2026-04-19T08:04:12.273Z</time></trkpt><trkpt lat="43.5583759" lon="13.081487"><ele>125.0</ele><time>2026-04-19T08:04:13.273Z</time></trkpt><trkpt lat="43.5583184" lon="13.0813727"><ele>125.0</ele><time>2026-04-19T08:04:14.272Z</time></trkpt><trkpt lat="43.5582572" lon="13.0812642"><ele>123.0</ele><time>2026-04-19T08:04:15.272Z</time></trkpt><trkpt lat="43.558188" lon="13.0811618"><ele>121.0</ele><time>2026-04-19T08:04:16.272Z</time></trkpt><trkpt lat="43.5581211" lon="13.081076"><ele>119.0</ele><time>2026-04-19T08:04:17.272Z</time></trkpt><trkpt lat="43.5580501" lon="13.0809972"><ele>117.0</ele><time>2026-04-19T08:04:18.273Z</time></trkpt><trkpt lat="43.5579756" lon="13.080932"><ele>115.0</ele><time>2026-04-19T08:04:19.272Z</time></trkpt><trkpt lat="43.5578973" lon="13.0808866"><ele>114.50000000000001</ele><time>2026-04-19T08:04:20.273Z</time></trkpt><trkpt lat="43.5578163" lon="13.080866"><ele>114.0</ele><time>2026-04-19T08:04:21.272Z</time></trkpt><trkpt lat="43.5577379" lon="13.0808747"><ele>113.5</ele><time>2026-04-19T08:04:22.273Z</time></trkpt><trkpt lat="43.5576573" lon="13.0809032"><ele>113.0</ele><time>2026-04-19T08:04:23.272Z</time></trkpt><trkpt lat="43.557576" lon="13.0809477"><ele>112.50000000000001</ele><time>2026-04-19T08:04:24.272Z</time></trkpt><trkpt lat="43.5575003" lon="13.0809958"><ele>112.0</ele><time>2026-04-19T08:04:25.272Z</time></trkpt><trkpt lat="43.5574273" lon="13.081043"><ele>112.00000000000001</ele><time>2026-04-19T08:04:26.272Z</time></trkpt><trkpt lat="43.5573565" lon="13.0810967"><ele>112.0</ele><time>2026-04-19T08:04:27.272Z</time></trkpt><trkpt lat="43.5572966" lon="13.0811638"><ele>112.0</ele><time>2026-04-19T08:04:28.273Z</time></trkpt><trkpt lat="43.5572427" lon="13.0812421"><ele>112.0</ele><time>2026-04-19T08:04:29.272Z</time></trkpt><trkpt lat="43.5571887" lon="13.0813229"><ele>112.00000000000001</ele><time>2026-04-19T08:04:30.273Z</time></trkpt><trkpt lat="43.5571373" lon="13.0814114"><ele>112.0</ele><time>2026-04-19T08:04:31.272Z</time></trkpt><trkpt lat="43.557091" lon="13.0815058"><ele>112.8</ele><time>2026-04-19T08:04:32.272Z</time></trkpt><trkpt lat="43.5570458" lon="13.0816073"><ele>113.6</ele><time>2026-04-19T08:04:33.273Z</time></trkpt><trkpt lat="43.5570016" lon="13.0817148"><ele>114.39999999999999</ele><time>2026-04-19T08:04:34.272Z</time></trkpt><trkpt lat="43.5569587" lon="13.081829"><ele>115.19999999999999</ele><time>2026-04-19T08:04:35.273Z</time></trkpt><trkpt lat="43.5569148" lon="13.0819485"><ele>116.0</ele><time>2026-04-19T08:04:36.273Z</time></trkpt><trkpt lat="43.5568681" lon="13.0820753"><ele>113.19999999999999</ele><time>2026-04-19T08:04:37.273Z</time></trkpt><trkpt lat="43.5568191" lon="13.0822057"><ele>110.39999999999999</ele><time>2026-04-19T08:04:38.273Z</time></trkpt><trkpt lat="43.5567616" lon="13.0823325"><ele>107.6</ele><time>2026-04-19T08:04:39.273Z</time></trkpt><trkpt lat="43.5566976" lon="13.0824513"><ele>104.8</ele><time>2026-04-19T08:04:40.272Z</time></trkpt><trkpt lat="43.5566155" lon="13.0825432"><ele>102.0</ele><time>2026-04-19T08:04:41.273Z</time></trkpt><trkpt lat="43.5565246" lon="13.0826003"><ele>101.39999999999999</ele><time>2026-04-19T08:04:42.272Z</time></trkpt><trkpt lat="43.5564194" lon="13.0826314"><ele>100.8</ele><time>2026-04-19T08:04:43.273Z</time></trkpt><trkpt lat="43.5563072" lon="13.0826374"><ele>100.2</ele><time>2026-04-19T08:04:44.272Z</time></trkpt><trkpt lat="43.556198" lon="13.0826396"><ele>99.6</ele><time>2026-04-19T08:04:45.272Z</time></trkpt><trkpt lat="43.5560812" lon="13.0826647"><ele>99.0</ele><time>2026-04-19T08:04:46.272Z</time></trkpt><trkpt lat="43.55595" lon="13.082723"><ele>98.33333333333334</ele><time>2026-04-19T08:04:47.273Z</time></trkpt><trkpt lat="43.555809" lon="13.0827947"><ele>97.66666666666667</ele><time>2026-04-19T08:04:48.273Z</time></trkpt><trkpt lat="43.5556648" lon="13.0828686"><ele>97.0</ele><time>2026-04-19T08:04:49.273Z</time></trkpt><trkpt lat="43.5555185" lon="13.0829417"><ele>97.0</ele><time>2026-04-19T08:04:50.273Z</time></trkpt><trkpt lat="43.5553729" lon="13.0830129"><ele>97.0</ele><time>2026-04-19T08:04:51.272Z</time></trkpt><trkpt lat="43.5552245" lon="13.0830925"><ele>97.0</ele><time>2026-04-19T08:04:52.273Z</time></trkpt><trkpt lat="43.555078" lon="13.083185"><ele>98.0</ele><time>2026-04-19T08:04:53.273Z</time></trkpt><trkpt lat="43.5549413" lon="13.0832754"><ele>99.0</ele><time>2026-04-19T08:04:54.272Z</time></trkpt><trkpt lat="43.5548123" lon="13.0833641"><ele>100.0</ele><time>2026-04-19T08:04:55.273Z</time></trkpt><trkpt lat="43.5546906" lon="13.0834492"><ele>101.0</ele><time>2026-04-19T08:04:56.272Z</time></trkpt><trkpt lat="43.5545759" lon="13.0835289"><ele>100.5</ele><time>2026-04-19T08:04:57.273Z</time></trkpt><trkpt lat="43.5544618" lon="13.0836056"><ele>100.0</ele><time>2026-04-19T08:04:58.273Z</time></trkpt><trkpt lat="43.5543452" lon="13.0836758"><ele>99.5</ele><time>2026-04-19T08:04:59.273Z</time></trkpt><trkpt lat="43.5542211" lon="13.0837459"><ele>99.0</ele><time>2026-04-19T08:05:00.273Z</time></trkpt><trkpt lat="43.5540897" lon="13.0838205"><ele>99.0</ele><time>2026-04-19T08:05:01.272Z</time></trkpt><trkpt lat="43.5539526" lon="13.0839014"><ele>99.0</ele><time>2026-04-19T08:05:02.273Z</time></trkpt><trkpt lat="43.5538112" lon="13.0839849"><ele>99.0</ele><time>2026-04-19T08:05:03.272Z</time></trkpt><trkpt lat="43.5536691" lon="13.0840658"><ele>99.0</ele><time>2026-04-19T08:05:04.272Z</time></trkpt><trkpt lat="43.5535256" lon="13.0841477"><ele>99.0</ele><time>2026-04-19T08:05:05.272Z</time></trkpt><trkpt lat="43.5533822" lon="13.0842242"><ele>99.0</ele><time>2026-04-19T08:05:06.273Z</time></trkpt><trkpt lat="43.5532357" lon="13.084294"><ele>99.0</ele><time>2026-04-19T08:05:07.273Z</time></trkpt><trkpt lat="43.5530902" lon="13.0843494"><ele>99.0</ele><time>2026-04-19T08:05:08.272Z</time></trkpt><trkpt lat="43.552948" lon="13.0843889"><ele>99.0</ele><time>2026-04-19T08:05:09.273Z</time></trkpt><trkpt lat="43.5528179" lon="13.084417"><ele>99.0</ele><time>2026-04-19T08:05:10.273Z</time></trkpt><trkpt lat="43.5527053" lon="13.0844343"><ele>99.0</ele><time>2026-04-19T08:05:11.273Z</time></trkpt><trkpt lat="43.5526042" lon="13.0844419"><ele>99.0</ele><time>2026-04-19T08:05:12.273Z</time></trkpt><trkpt lat="43.5525111" lon="13.0844407"><ele>99.0</ele><time>2026-04-19T08:05:13.273Z</time></trkpt><trkpt lat="43.5524225" lon="13.0844304"><ele>99.0</ele><time>2026-04-19T08:05:14.272Z</time></trkpt><trkpt lat="43.5523391" lon="13.084405"><ele>99.0</ele><time>2026-04-19T08:05:15.273Z</time></trkpt><trkpt lat="43.5522616" lon="13.0843646"><ele>99.0</ele><time>2026-04-19T08:05:16.272Z</time></trkpt><trkpt lat="43.5521849" lon="13.0843077"><ele>99.0</ele><time>2026-04-19T08:05:17.273Z</time></trkpt><trkpt lat="43.5521009" lon="13.0842272"><ele>99.0</ele><time>2026-04-19T08:05:18.273Z</time></trkpt><trkpt lat="43.5520108" lon="13.0841221"><ele>99.0</ele><time>2026-04-19T08:05:19.273Z</time></trkpt><trkpt lat="43.5519198" lon="13.0840024"><ele>99.0</ele><time>2026-04-19T08:05:20.272Z</time></trkpt><trkpt lat="43.551821" lon="13.0838638"><ele>98.75</ele><time>2026-04-19T08:05:21.273Z</time></trkpt><trkpt lat="43.551726" lon="13.0837152"><ele>98.5</ele><time>2026-04-19T08:05:22.273Z</time></trkpt><trkpt lat="43.5516391" lon="13.08357"><ele>98.25</ele><time>2026-04-19T08:05:23.272Z</time></trkpt><trkpt lat="43.551565" lon="13.0834327"><ele>98.0</ele><time>2026-04-19T08:05:24.272Z</time></trkpt><trkpt lat="43.5515011" lon="13.0833017"><ele>97.60000000000001</ele><time>2026-04-19T08:05:25.273Z</time></trkpt><trkpt lat="43.5514465" lon="13.0831659"><ele>97.2</ele><time>2026-04-19T08:05:26.272Z</time></trkpt><trkpt lat="43.5513945" lon="13.083026"><ele>96.8</ele><time>2026-04-19T08:05:27.273Z</time></trkpt><trkpt lat="43.5513429" lon="13.0828912"><ele>96.4</ele><time>2026-04-19T08:05:28.273Z</time></trkpt><trkpt lat="43.551292" lon="13.0827589"><ele>96.0</ele><time>2026-04-19T08:05:29.273Z</time></trkpt><trkpt lat="43.5512414" lon="13.0826252"><ele>96.8</ele><time>2026-04-19T08:05:30.271Z</time></trkpt><trkpt lat="43.5511882" lon="13.0825007"><ele>97.6</ele><time>2026-04-19T08:05:31.273Z</time></trkpt><trkpt lat="43.551129" lon="13.082384"><ele>98.4</ele><time>2026-04-19T08:05:32.272Z</time></trkpt><trkpt lat="43.5510646" lon="13.0822761"><ele>99.2</ele><time>2026-04-19T08:05:33.271Z</time></trkpt><trkpt lat="43.551001" lon="13.082178"><ele>100.0</ele><time>2026-04-19T08:05:34.272Z</time></trkpt><trkpt lat="43.5509363" lon="13.0820791"><ele>100.0</ele><time>2026-04-19T08:05:35.272Z</time></trkpt><trkpt lat="43.5508766" lon="13.081981"><ele>100.0</ele><time>2026-04-19T08:05:36.272Z</time></trkpt><trkpt lat="43.5508163" lon="13.0818823"><ele>100.0</ele><time>2026-04-19T08:05:37.272Z</time></trkpt><trkpt lat="43.5507581" lon="13.0817793"><ele>100.0</ele><time>2026-04-19T08:05:38.273Z</time></trkpt><trkpt lat="43.5506946" lon="13.0816625"><ele>100.0</ele><time>2026-04-19T08:05:39.273Z</time></trkpt><trkpt lat="43.5506318" lon="13.0815306"><ele>100.0</ele><time>2026-04-19T08:05:40.273Z</time></trkpt><trkpt lat="43.5505805" lon="13.0813889"><ele>100.0</ele><time>2026-04-19T08:05:41.273Z</time></trkpt><trkpt lat="43.5505402" lon="13.0812503"><ele>100.0</ele><time>2026-04-19T08:05:42.273Z</time></trkpt><trkpt lat="43.550498" lon="13.0811162"><ele>100.0</ele><time>2026-04-19T08:05:43.272Z</time></trkpt><trkpt lat="43.5504555" lon="13.0809928"><ele>100.0</ele><time>2026-04-19T08:05:44.272Z</time></trkpt><trkpt lat="43.5504094" lon="13.080877"><ele>99.6</ele><time>2026-04-19T08:05:45.271Z</time></trkpt><trkpt lat="43.5503585" lon="13.0807698"><ele>99.2</ele><time>2026-04-19T08:05:46.273Z</time></trkpt><trkpt lat="43.5503024" lon="13.0806687"><ele>98.80000000000001</ele><time>2026-04-19T08:05:47.271Z</time></trkpt><trkpt lat="43.550238" lon="13.0805692"><ele>98.4</ele><time>2026-04-19T08:05:48.272Z</time></trkpt><trkpt lat="43.5501645" lon="13.0804703"><ele>98.0</ele><time>2026-04-19T08:05:49.272Z</time></trkpt><trkpt lat="43.5500837" lon="13.0803818"><ele>98.0</ele><time>2026-04-19T08:05:50.273Z</time></trkpt><trkpt lat="43.5500101" lon="13.0802911"><ele>98.0</ele><time>2026-04-19T08:05:51.273Z</time></trkpt><trkpt lat="43.5499164" lon="13.0802454"><ele>98.0</ele><time>2026-04-19T08:05:52.271Z</time></trkpt><trkpt lat="43.5498296" lon="13.0802254"><ele>98.0</ele><time>2026-04-19T08:05:53.273Z</time></trkpt><trkpt lat="43.5497492" lon="13.0802006"><ele>98.0</ele><time>2026-04-19T08:05:54.273Z</time></trkpt><trkpt lat="43.549632" lon="13.0802182"><ele>99.0</ele><time>2026-04-19T08:05:55.272Z</time></trkpt><trkpt lat="43.5495199" lon="13.0802335"><ele>100.0</ele><time>2026-04-19T08:05:56.273Z</time></trkpt><trkpt lat="43.5494098" lon="13.0802471"><ele>101.0</ele><time>2026-04-19T08:05:57.273Z</time></trkpt><trkpt lat="43.5493026" lon="13.0802661"><ele>102.0</ele><time>2026-04-19T08:05:58.273Z</time></trkpt><trkpt lat="43.5491913" lon="13.0802894"><ele>103.0</ele><time>2026-04-19T08:05:59.272Z</time></trkpt><trkpt lat="43.5490753" lon="13.0803171"><ele>103.0</ele><time>2026-04-19T08:06:00.273Z</time></trkpt><trkpt lat="43.5489641" lon="13.080339"><ele>103.0</ele><time>2026-04-19T08:06:01.273Z</time></trkpt><trkpt lat="43.54886" lon="13.0803568"><ele>103.0</ele><time>2026-04-19T08:06:02.273Z</time></trkpt><trkpt lat="43.5487571" lon="13.0803697"><ele>103.0</ele><time>2026-04-19T08:06:03.273Z</time></trkpt><trkpt lat="43.5486532" lon="13.0803684"><ele>103.0</ele><time>2026-04-19T08:06:04.272Z</time></trkpt><trkpt lat="43.5485478" lon="13.0803483"><ele>103.75</ele><time>2026-04-19T08:06:05.273Z</time></trkpt><trkpt lat="43.5484349" lon="13.0803168"><ele>104.5</ele><time>2026-04-19T08:06:06.272Z</time></trkpt><trkpt lat="43.5483219" lon="13.0802728"><ele>105.25</ele><time>2026-04-19T08:06:07.271Z</time></trkpt><trkpt lat="43.5482069" lon="13.0802223"><ele>106.0</ele><time>2026-04-19T08:06:08.273Z</time></trkpt><trkpt lat="43.5480851" lon="13.0801642"><ele>106.0</ele><time>2026-04-19T08:06:09.273Z</time></trkpt><trkpt lat="43.5479669" lon="13.0801063"><ele>106.0</ele><time>2026-04-19T08:06:10.273Z</time></trkpt><trkpt lat="43.5478651" lon="13.0800513"><ele>106.0</ele><time>2026-04-19T08:06:11.273Z</time></trkpt><trkpt lat="43.5477752" lon="13.0799974"><ele>106.0</ele><time>2026-04-19T08:06:12.273Z</time></trkpt><trkpt lat="43.5476861" lon="13.0799418"><ele>106.0</ele><time>2026-04-19T08:06:13.273Z</time></trkpt><trkpt lat="43.5475975" lon="13.0798787"><ele>105.6</ele><time>2026-04-19T08:06:14.273Z</time></trkpt><trkpt lat="43.5475072" lon="13.0798107"><ele>105.19999999999999</ele><time>2026-04-19T08:06:15.271Z</time></trkpt><trkpt lat="43.5474141" lon="13.079739"><ele>104.80000000000001</ele><time>2026-04-19T08:06:16.273Z</time></trkpt><trkpt lat="43.5473202" lon="13.0796638"><ele>104.4</ele><time>2026-04-19T08:06:17.273Z</time></trkpt><trkpt lat="43.5472348" lon="13.0795956"><ele>104.0</ele><time>2026-04-19T08:06:18.272Z</time></trkpt><trkpt lat="43.5471547" lon="13.0795327"><ele>104.0</ele><time>2026-04-19T08:06:19.273Z</time></trkpt><trkpt lat="43.5470766" lon="13.0794771"><ele>104.0</ele><time>2026-04-19T08:06:20.271Z</time></trkpt><trkpt lat="43.546999" lon="13.0794257"><ele>104.0</ele><time>2026-04-19T08:06:21.272Z</time></trkpt><trkpt lat="43.5469163" lon="13.0793701"><ele>104.0</ele><time>2026-04-19T08:06:22.273Z</time></trkpt><trkpt lat="43.5468297" lon="13.0793113"><ele>104.0</ele><time>2026-04-19T08:06:23.272Z</time></trkpt><trkpt lat="43.546735" lon="13.0792501"><ele>103.6</ele><time>2026-04-19T08:06:24.273Z</time></trkpt><trkpt lat="43.5466384" lon="13.0791847"><ele>103.2</ele><time>2026-04-19T08:06:25.273Z</time></trkpt><trkpt lat="43.5465428" lon="13.0791234"><ele>102.8</ele><time>2026-04-19T08:06:26.273Z</time></trkpt><trkpt lat="43.5464506" lon="13.0790664"><ele>102.39999999999999</ele><time>2026-04-19T08:06:27.273Z</time></trkpt><trkpt lat="43.5463634" lon="13.0790143"><ele>102.0</ele><time>2026-04-19T08:06:28.272Z</time></trkpt><trkpt lat="43.546285" lon="13.0789647"><ele>102.5</ele><time>2026-04-19T08:06:29.273Z</time></trkpt><trkpt lat="43.5462082" lon="13.0789226"><ele>103.0</ele><time>2026-04-19T08:06:30.273Z</time></trkpt><trkpt lat="43.5461258" lon="13.0788856"><ele>103.5</ele><time>2026-04-19T08:06:31.273Z</time></trkpt><trkpt lat="43.5460471" lon="13.078861"><ele>104.0</ele><time>2026-04-19T08:06:32.273Z</time></trkpt><trkpt lat="43.5459705" lon="13.078845"><ele>104.5</ele><time>2026-04-19T08:06:33.272Z</time></trkpt><trkpt lat="43.5458944" lon="13.0788333"><ele>105.0</ele><time>2026-04-19T08:06:34.273Z</time></trkpt><trkpt lat="43.5458169" lon="13.0788269"><ele>105.0</ele><time>2026-04-19T08:06:35.273Z</time></trkpt><trkpt lat="43.54574" lon="13.078823"><ele>105.0</ele><time>2026-04-19T08:06:36.273Z</time></trkpt><trkpt lat="43.5456609" lon="13.0788148"><ele>105.0</ele><time>2026-04-19T08:06:37.272Z</time></trkpt><trkpt lat="43.5455827" lon="13.0787864"><ele>105.0</ele><time>2026-04-19T08:06:38.273Z</time></trkpt><trkpt lat="43.5455058" lon="13.0787272"><ele>105.0</ele><time>2026-04-19T08:06:39.272Z</time></trkpt><trkpt lat="43.5454307" lon="13.0786346"><ele>105.0</ele><time>2026-04-19T08:06:40.273Z</time></trkpt><trkpt lat="43.54535" lon="13.0785124"><ele>104.75</ele><time>2026-04-19T08:06:41.273Z</time></trkpt><trkpt lat="43.5452727" lon="13.0783927"><ele>104.5</ele><time>2026-04-19T08:06:42.272Z</time></trkpt><trkpt lat="43.5452003" lon="13.0782636"><ele>104.25</ele><time>2026-04-19T08:06:43.273Z</time></trkpt><trkpt lat="43.5451318" lon="13.0781283"><ele>104.0</ele><time>2026-04-19T08:06:44.273Z</time></trkpt><trkpt lat="43.5450541" lon="13.077996"><ele>103.25</ele><time>2026-04-19T08:06:45.272Z</time></trkpt><trkpt lat="43.5449743" lon="13.077867"><ele>102.5</ele><time>2026-04-19T08:06:46.272Z</time></trkpt><trkpt lat="43.5448948" lon="13.0777389"><ele>101.75</ele><time>2026-04-19T08:06:47.272Z</time></trkpt><trkpt lat="43.5448089" lon="13.0776065"><ele>101.0</ele><time>2026-04-19T08:06:48.272Z</time></trkpt><trkpt lat="43.5447266" lon="13.0774785"><ele>101.5</ele><time>2026-04-19T08:06:49.273Z</time></trkpt><trkpt lat="43.5446382" lon="13.0773559"><ele>102.0</ele><time>2026-04-19T08:06:50.272Z</time></trkpt><trkpt lat="43.5445485" lon="13.0772396"><ele>102.5</ele><time>2026-04-19T08:06:51.273Z</time></trkpt><trkpt lat="43.5444498" lon="13.077134"><ele>103.0</ele><time>2026-04-19T08:06:52.272Z</time></trkpt><trkpt lat="43.5443523" lon="13.0770492"><ele>103.80000000000001</ele><time>2026-04-19T08:06:53.273Z</time></trkpt><trkpt lat="43.5442612" lon="13.0769779"><ele>104.6</ele><time>2026-04-19T08:06:54.273Z</time></trkpt><trkpt lat="43.5441781" lon="13.0769114"><ele>105.39999999999999</ele><time>2026-04-19T08:06:55.272Z</time></trkpt><trkpt lat="43.5441002" lon="13.0768438"><ele>106.19999999999999</ele><time>2026-04-19T08:06:56.273Z</time></trkpt><trkpt lat="43.5440269" lon="13.0767719"><ele>107.0</ele><time>2026-04-19T08:06:57.272Z</time></trkpt><trkpt lat="43.5439533" lon="13.0767047"><ele>106.99999999999999</ele><time>2026-04-19T08:06:58.272Z</time></trkpt><trkpt lat="43.5438829" lon="13.0766559"><ele>107.0</ele><time>2026-04-19T08:06:59.273Z</time></trkpt><trkpt lat="43.5438161" lon="13.0766383"><ele>107.0</ele><time>2026-04-19T08:07:00.273Z</time></trkpt><trkpt lat="43.5437406" lon="13.0766467"><ele>107.0</ele><time>2026-04-19T08:07:01.273Z</time></trkpt><trkpt lat="43.5436505" lon="13.0766746"><ele>106.99999999999999</ele><time>2026-04-19T08:07:02.272Z</time></trkpt><trkpt lat="43.5435436" lon="13.0767199"><ele>107.0</ele><time>2026-04-19T08:07:03.273Z</time></trkpt><trkpt lat="43.5434272" lon="13.0767801"><ele>107.5</ele><time>2026-04-19T08:07:04.273Z</time></trkpt><trkpt lat="43.5433028" lon="13.0768656"><ele>108.0</ele><time>2026-04-19T08:07:05.273Z</time></trkpt><trkpt lat="43.5431718" lon="13.0769723"><ele>108.5</ele><time>2026-04-19T08:07:06.272Z</time></trkpt><trkpt lat="43.5430442" lon="13.0770755"><ele>109.0</ele><time>2026-04-19T08:07:07.273Z</time></trkpt><trkpt lat="43.542915" lon="13.0771821"><ele>111.6</ele><time>2026-04-19T08:07:08.273Z</time></trkpt><trkpt lat="43.542807" lon="13.0772427"><ele>114.2</ele><time>2026-04-19T08:07:09.272Z</time></trkpt><trkpt lat="43.5427142" lon="13.0772828"><ele>116.79999999999998</ele><time>2026-04-19T08:07:10.272Z</time></trkpt><trkpt lat="43.5426503" lon="13.0772947"><ele>119.39999999999999</ele><time>2026-04-19T08:07:11.273Z</time></trkpt><trkpt lat="43.5425512" lon="13.0772233"><ele>122.0</ele><time>2026-04-19T08:07:13.272Z</time></trkpt><trkpt lat="43.5424872" lon="13.0771397"><ele>122.0</ele><time>2026-04-19T08:07:14.271Z</time></trkpt><trkpt lat="43.5424213" lon="13.0770531"><ele>121.99999999999999</ele><time>2026-04-19T08:07:15.273Z</time></trkpt><trkpt lat="43.5423642" lon="13.076973"><ele>121.99999999999999</ele><time>2026-04-19T08:07:16.273Z</time></trkpt><trkpt lat="43.5423055" lon="13.0768734"><ele>122.0</ele><time>2026-04-19T08:07:17.272Z</time></trkpt><trkpt lat="43.5422482" lon="13.0767621"><ele>122.0</ele><time>2026-04-19T08:07:18.273Z</time></trkpt><trkpt lat="43.5421927" lon="13.0766446"><ele>121.39999999999999</ele><time>2026-04-19T08:07:19.273Z</time></trkpt><trkpt lat="43.5421358" lon="13.0765273"><ele>120.79999999999998</ele><time>2026-04-19T08:07:20.273Z</time></trkpt><trkpt lat="43.5420727" lon="13.0764321"><ele>120.2</ele><time>2026-04-19T08:07:21.272Z</time></trkpt><trkpt lat="43.5420125" lon="13.0763638"><ele>119.6</ele><time>2026-04-19T08:07:22.272Z</time></trkpt><trkpt lat="43.5419567" lon="13.0763225"><ele>119.0</ele><time>2026-04-19T08:07:23.273Z</time></trkpt><trkpt lat="43.5418384" lon="13.0762912"><ele>121.33333333333333</ele><time>2026-04-19T08:07:25.272Z</time></trkpt><trkpt lat="43.5417718" lon="13.0763023"><ele>123.66666666666666</ele><time>2026-04-19T08:07:26.273Z</time></trkpt><trkpt lat="43.5416967" lon="13.0763083"><ele>126.0</ele><time>2026-04-19T08:07:27.273Z</time></trkpt><trkpt lat="43.5416142" lon="13.0762912"><ele>128.33333333333334</ele><time>2026-04-19T08:07:28.273Z</time></trkpt><trkpt lat="43.5415377" lon="13.0762656"><ele>130.66666666666669</ele><time>2026-04-19T08:07:29.272Z</time></trkpt><trkpt lat="43.5414629" lon="13.0762348"><ele>133.0</ele><time>2026-04-19T08:07:30.273Z</time></trkpt><trkpt lat="43.5413845" lon="13.0762038"><ele>133.0</ele><time>2026-04-19T08:07:31.273Z</time></trkpt><trkpt lat="43.5413127" lon="13.0761966"><ele>133.0</ele><time>2026-04-19T08:07:32.272Z</time></trkpt><trkpt lat="43.5412438" lon="13.0761958"><ele>133.0</ele><time>2026-04-19T08:07:33.273Z</time></trkpt><trkpt lat="43.5411722" lon="13.0762381"><ele>133.0</ele><time>2026-04-19T08:07:34.272Z</time></trkpt><trkpt lat="43.5410985" lon="13.0762721"><ele>133.0</ele><time>2026-04-19T08:07:35.273Z</time></trkpt><trkpt lat="43.5410138" lon="13.0763392"><ele>133.0</ele><time>2026-04-19T08:07:36.272Z</time></trkpt><trkpt lat="43.5409357" lon="13.0763961"><ele>135.8</ele><time>2026-04-19T08:07:37.273Z</time></trkpt><trkpt lat="43.5408572" lon="13.0764748"><ele>138.60000000000002</ele><time>2026-04-19T08:07:38.273Z</time></trkpt><trkpt lat="43.5407811" lon="13.0765404"><ele>141.39999999999998</ele><time>2026-04-19T08:07:39.272Z</time></trkpt><trkpt lat="43.5406961" lon="13.0765912"><ele>144.2</ele><time>2026-04-19T08:07:40.273Z</time></trkpt><trkpt lat="43.5406201" lon="13.076654"><ele>147.0</ele><time>2026-04-19T08:07:41.272Z</time></trkpt><trkpt lat="43.540526" lon="13.0766661"><ele>148.4</ele><time>2026-04-19T08:07:42.273Z</time></trkpt><trkpt lat="43.5404328" lon="13.0766661"><ele>149.79999999999998</ele><time>2026-04-19T08:07:43.273Z</time></trkpt><trkpt lat="43.5403412" lon="13.0766457"><ele>151.2</ele><time>2026-04-19T08:07:44.273Z</time></trkpt><trkpt lat="43.540246" lon="13.0766078"><ele>152.6</ele><time>2026-04-19T08:07:45.272Z</time></trkpt><trkpt lat="43.540151" lon="13.0765662"><ele>154.0</ele><time>2026-04-19T08:07:46.273Z</time></trkpt><trkpt lat="43.5400567" lon="13.0765128"><ele>154.0</ele><time>2026-04-19T08:07:47.273Z</time></trkpt><trkpt lat="43.5399607" lon="13.0764565"><ele>154.0</ele><time>2026-04-19T08:07:48.272Z</time></trkpt><trkpt lat="43.539861" lon="13.0763999"><ele>154.0</ele><time>2026-04-19T08:07:49.273Z</time></trkpt><trkpt lat="43.5397615" lon="13.0763412"><ele>154.0</ele><time>2026-04-19T08:07:50.272Z</time></trkpt><trkpt lat="43.5396666" lon="13.0762812"><ele>154.0</ele><time>2026-04-19T08:07:51.273Z</time></trkpt><trkpt lat="43.5395825" lon="13.0762211"><ele>155.8</ele><time>2026-04-19T08:07:52.273Z</time></trkpt><trkpt lat="43.5395015" lon="13.0761571"><ele>157.60000000000002</ele><time>2026-04-19T08:07:53.273Z</time></trkpt><trkpt lat="43.539424" lon="13.076082"><ele>159.4</ele><time>2026-04-19T08:07:54.273Z</time></trkpt><trkpt lat="43.5393536" lon="13.0760041"><ele>161.20000000000002</ele><time>2026-04-19T08:07:55.273Z</time></trkpt><trkpt lat="43.5392922" lon="13.0759297"><ele>163.0</ele><time>2026-04-19T08:07:56.273Z</time></trkpt><trkpt lat="43.5392222" lon="13.075852"><ele>163.0</ele><time>2026-04-19T08:07:57.272Z</time></trkpt><trkpt lat="43.5391506" lon="13.0757932"><ele>163.0</ele><time>2026-04-19T08:07:58.273Z</time></trkpt><trkpt lat="43.5390738" lon="13.075738"><ele>163.0</ele><time>2026-04-19T08:07:59.273Z</time></trkpt><trkpt lat="43.5389955" lon="13.075685"><ele>163.0</ele><time>2026-04-19T08:08:00.273Z</time></trkpt><trkpt lat="43.5389037" lon="13.0756507"><ele>163.0</ele><time>2026-04-19T08:08:01.272Z</time></trkpt><trkpt lat="43.5388097" lon="13.0756282"><ele>163.0</ele><time>2026-04-19T08:08:02.273Z</time></trkpt><trkpt lat="43.5387147" lon="13.075631"><ele>163.8</ele><time>2026-04-19T08:08:03.273Z</time></trkpt><trkpt lat="43.5386201" lon="13.0756501"><ele>164.60000000000002</ele><time>2026-04-19T08:08:04.272Z</time></trkpt><trkpt lat="43.5385286" lon="13.0756744"><ele>165.39999999999998</ele><time>2026-04-19T08:08:05.273Z</time></trkpt><trkpt lat="43.5384306" lon="13.0757021"><ele>166.2</ele><time>2026-04-19T08:08:06.273Z</time></trkpt><trkpt lat="43.5383302" lon="13.0757225"><ele>167.0</ele><time>2026-04-19T08:08:07.273Z</time></trkpt><trkpt lat="43.5382224" lon="13.0757344"><ele>167.0</ele><time>2026-04-19T08:08:08.271Z</time></trkpt><trkpt lat="43.5381227" lon="13.0757351"><ele>167.0</ele><time>2026-04-19T08:08:09.272Z</time></trkpt><trkpt lat="43.5380214" lon="13.075741"><ele>167.0</ele><time>2026-04-19T08:08:10.272Z</time></trkpt><trkpt lat="43.5379225" lon="13.07575"><ele>167.0</ele><time>2026-04-19T08:08:11.273Z</time></trkpt><trkpt lat="43.5378211" lon="13.0757588"><ele>167.0</ele><time>2026-04-19T08:08:12.273Z</time></trkpt><trkpt lat="43.53772" lon="13.0757672"><ele>168.39999999999998</ele><time>2026-04-19T08:08:13.273Z</time></trkpt><trkpt lat="43.5376285" lon="13.075769"><ele>169.79999999999998</ele><time>2026-04-19T08:08:14.273Z</time></trkpt><trkpt lat="43.5375457" lon="13.0757402"><ele>171.2</ele><time>2026-04-19T08:08:15.273Z</time></trkpt><trkpt lat="43.5374821" lon="13.075696"><ele>172.6</ele><time>2026-04-19T08:08:16.272Z</time></trkpt><trkpt lat="43.5373934" lon="13.0755534"><ele>174.0</ele><time>2026-04-19T08:08:18.272Z</time></trkpt><trkpt lat="43.5373564" lon="13.0754746"><ele>174.0</ele><time>2026-04-19T08:08:19.273Z</time></trkpt><trkpt lat="43.5373212" lon="13.0753998"><ele>174.0</ele><time>2026-04-19T08:08:20.273Z</time></trkpt><trkpt lat="43.5372717" lon="13.0753188"><ele>174.0</ele><time>2026-04-19T08:08:21.273Z</time></trkpt><trkpt lat="43.5372076" lon="13.0752302"><ele>174.0</ele><time>2026-04-19T08:08:22.273Z</time></trkpt><trkpt lat="43.5371338" lon="13.0751479"><ele>174.0</ele><time>2026-04-19T08:08:23.271Z</time></trkpt><trkpt lat="43.5370356" lon="13.0750789"><ele>174.0</ele><time>2026-04-19T08:08:24.273Z</time></trkpt><trkpt lat="43.5369235" lon="13.0750248"><ele>173.5</ele><time>2026-04-19T08:08:25.273Z</time></trkpt><trkpt lat="43.5368133" lon="13.0749836"><ele>173.0</ele><time>2026-04-19T08:08:26.272Z</time></trkpt><trkpt lat="43.53669" lon="13.0749464"><ele>172.5</ele><time>2026-04-19T08:08:27.272Z</time></trkpt><trkpt lat="43.536565" lon="13.0748978"><ele>172.0</ele><time>2026-04-19T08:08:28.273Z</time></trkpt><trkpt lat="43.5364386" lon="13.0748387"><ele>172.0</ele><time>2026-04-19T08:08:29.271Z</time></trkpt><trkpt lat="43.5363072" lon="13.0747712"><ele>172.0</ele><time>2026-04-19T08:08:30.273Z</time></trkpt><trkpt lat="43.5361763" lon="13.0747013"><ele>172.0</ele><time>2026-04-19T08:08:31.272Z</time></trkpt><trkpt lat="43.5360506" lon="13.0746315"><ele>172.0</ele><time>2026-04-19T08:08:32.273Z</time></trkpt><trkpt lat="43.5359308" lon="13.0745639"><ele>174.6</ele><time>2026-04-19T08:08:33.272Z</time></trkpt><trkpt lat="43.5358158" lon="13.0745026"><ele>177.2</ele><time>2026-04-19T08:08:34.272Z</time></trkpt><trkpt lat="43.5357034" lon="13.0744519"><ele>179.8</ele><time>2026-04-19T08:08:35.273Z</time></trkpt><trkpt lat="43.5355972" lon="13.0744198"><ele>182.4</ele><time>2026-04-19T08:08:36.273Z</time></trkpt><trkpt lat="43.5354995" lon="13.074402"><ele>185.0</ele><time>2026-04-19T08:08:37.273Z</time></trkpt><trkpt lat="43.535392" lon="13.0743915"><ele>187.75</ele><time>2026-04-19T08:08:38.273Z</time></trkpt><trkpt lat="43.5352807" lon="13.0743899"><ele>190.5</ele><time>2026-04-19T08:08:39.271Z</time></trkpt><trkpt lat="43.5351613" lon="13.0744003"><ele>193.25</ele><time>2026-04-19T08:08:40.272Z</time></trkpt><trkpt lat="43.5350335" lon="13.0744173"><ele>196.0</ele><time>2026-04-19T08:08:41.272Z</time></trkpt><trkpt lat="43.5349002" lon="13.0744338"><ele>196.0</ele><time>2026-04-19T08:08:42.272Z</time></trkpt><trkpt lat="43.5347716" lon="13.0744365"><ele>196.0</ele><time>2026-04-19T08:08:43.273Z</time></trkpt><trkpt lat="43.5346429" lon="13.0744007"><ele>196.0</ele><time>2026-04-19T08:08:44.273Z</time></trkpt><trkpt lat="43.5345311" lon="13.0743612"><ele>196.0</ele><time>2026-04-19T08:08:45.272Z</time></trkpt><trkpt lat="43.5344564" lon="13.074298"><ele>197.0</ele><time>2026-04-19T08:08:46.272Z</time></trkpt><trkpt lat="43.5343736" lon="13.0742265"><ele>198.0</ele><time>2026-04-19T08:08:47.273Z</time></trkpt><trkpt lat="43.5342885" lon="13.0741646"><ele>199.0</ele><time>2026-04-19T08:08:48.272Z</time></trkpt><trkpt lat="43.5342004" lon="13.074121"><ele>200.0</ele><time>2026-04-19T08:08:49.272Z</time></trkpt><trkpt lat="43.5341052" lon="13.0740869"><ele>201.0</ele><time>2026-04-19T08:08:50.272Z</time></trkpt><trkpt lat="43.5340071" lon="13.0740772"><ele>201.0</ele><time>2026-04-19T08:08:51.271Z</time></trkpt><trkpt lat="43.5339084" lon="13.0740922"><ele>201.0</ele><time>2026-04-19T08:08:52.273Z</time></trkpt><trkpt lat="43.5337983" lon="13.0741125"><ele>201.0</ele><time>2026-04-19T08:08:53.272Z</time></trkpt><trkpt lat="43.533693" lon="13.0741251"><ele>201.0</ele><time>2026-04-19T08:08:54.272Z</time></trkpt><trkpt lat="43.5335903" lon="13.0741097"><ele>201.0</ele><time>2026-04-19T08:08:55.273Z</time></trkpt><trkpt lat="43.5334966" lon="13.0740685"><ele>203.60000000000002</ele><time>2026-04-19T08:08:56.272Z</time></trkpt><trkpt lat="43.5334077" lon="13.0740112"><ele>206.2</ele><time>2026-04-19T08:08:57.273Z</time></trkpt><trkpt lat="43.5333218" lon="13.0739376"><ele>208.79999999999998</ele><time>2026-04-19T08:08:58.272Z</time></trkpt><trkpt lat="43.5332352" lon="13.0738733"><ele>211.39999999999998</ele><time>2026-04-19T08:08:59.272Z</time></trkpt><trkpt lat="43.5331537" lon="13.073815"><ele>214.0</ele><time>2026-04-19T08:09:00.272Z</time></trkpt><trkpt lat="43.5330668" lon="13.0737582"><ele>214.0</ele><time>2026-04-19T08:09:01.273Z</time></trkpt><trkpt lat="43.5329797" lon="13.0737069"><ele>213.99999999999997</ele><time>2026-04-19T08:09:02.273Z</time></trkpt><trkpt lat="43.5328874" lon="13.0736535"><ele>213.99999999999997</ele><time>2026-04-19T08:09:03.273Z</time></trkpt><trkpt lat="43.5327948" lon="13.0735951"><ele>214.0</ele><time>2026-04-19T08:09:04.272Z</time></trkpt><trkpt lat="43.5326968" lon="13.0735336"><ele>214.0</ele><time>2026-04-19T08:09:05.273Z</time></trkpt><trkpt lat="43.5325985" lon="13.0734682"><ele>216.39999999999998</ele><time>2026-04-19T08:09:06.273Z</time></trkpt><trkpt lat="43.53251" lon="13.0733969"><ele>218.79999999999998</ele><time>2026-04-19T08:09:07.272Z</time></trkpt><trkpt lat="43.5324316" lon="13.0733229"><ele>221.20000000000002</ele><time>2026-04-19T08:09:08.272Z</time></trkpt><trkpt lat="43.5323534" lon="13.073247"><ele>223.60000000000002</ele><time>2026-04-19T08:09:09.273Z</time></trkpt><trkpt lat="43.5322873" lon="13.0731619"><ele>226.0</ele><time>2026-04-19T08:09:10.273Z</time></trkpt><trkpt lat="43.532232" lon="13.0730737"><ele>226.0</ele><time>2026-04-19T08:09:11.273Z</time></trkpt><trkpt lat="43.5321721" lon="13.072986"><ele>226.00000000000003</ele><time>2026-04-19T08:09:12.273Z</time></trkpt><trkpt lat="43.5320972" lon="13.072916"><ele>226.00000000000003</ele><time>2026-04-19T08:09:13.273Z</time></trkpt><trkpt lat="43.5320066" lon="13.0728752"><ele>226.0</ele><time>2026-04-19T08:09:14.272Z</time></trkpt><trkpt lat="43.5319144" lon="13.0728516"><ele>226.0</ele><time>2026-04-19T08:09:15.272Z</time></trkpt><trkpt lat="43.531806" lon="13.0728467"><ele>231.0</ele><time>2026-04-19T08:09:16.272Z</time></trkpt><trkpt lat="43.5316918" lon="13.0728518"><ele>236.0</ele><time>2026-04-19T08:09:17.272Z</time></trkpt><trkpt lat="43.5315683" lon="13.0728639"><ele>241.0</ele><time>2026-04-19T08:09:18.272Z</time></trkpt><trkpt lat="43.5314504" lon="13.0728838"><ele>246.0</ele><time>2026-04-19T08:09:19.273Z</time></trkpt><trkpt lat="43.531342" lon="13.0729044"><ele>246.0</ele><time>2026-04-19T08:09:20.272Z</time></trkpt><trkpt lat="43.5312315" lon="13.0729173"><ele>246.0</ele><time>2026-04-19T08:09:21.273Z</time></trkpt><trkpt lat="43.5311112" lon="13.0729259"><ele>246.0</ele><time>2026-04-19T08:09:22.272Z</time></trkpt><trkpt lat="43.5309924" lon="13.072933"><ele>246.0</ele><time>2026-04-19T08:09:23.273Z</time></trkpt><trkpt lat="43.530875" lon="13.0729271"><ele>249.20000000000002</ele><time>2026-04-19T08:09:24.272Z</time></trkpt><trkpt lat="43.5307592" lon="13.0729229"><ele>252.40000000000003</ele><time>2026-04-19T08:09:25.271Z</time></trkpt><trkpt lat="43.5306568" lon="13.0729357"><ele>255.6</ele><time>2026-04-19T08:09:26.273Z</time></trkpt><trkpt lat="43.5305713" lon="13.0729722"><ele>258.8</ele><time>2026-04-19T08:09:27.272Z</time></trkpt><trkpt lat="43.5304928" lon="13.0730317"><ele>262.0</ele><time>2026-04-19T08:09:28.273Z</time></trkpt><trkpt lat="43.5304309" lon="13.0730892"><ele>265.4</ele><time>2026-04-19T08:09:29.273Z</time></trkpt><trkpt lat="43.5303387" lon="13.0731774"><ele>268.79999999999995</ele><time>2026-04-19T08:09:31.273Z</time></trkpt><trkpt lat="43.5302818" lon="13.0732343"><ele>272.2</ele><time>2026-04-19T08:09:33.272Z</time></trkpt><trkpt lat="43.5301643" lon="13.0733315"><ele>275.59999999999997</ele><time>2026-04-19T08:09:35.273Z</time></trkpt><trkpt lat="43.5300759" lon="13.0733725"><ele>279.0</ele><time>2026-04-19T08:09:36.273Z</time></trkpt><trkpt lat="43.5299825" lon="13.0734148"><ele>279.1666666666667</ele><time>2026-04-19T08:09:37.273Z</time></trkpt><trkpt lat="43.529906" lon="13.0734555"><ele>279.3333333333333</ele><time>2026-04-19T08:09:38.272Z</time></trkpt><trkpt lat="43.5298247" lon="13.0734924"><ele>279.5</ele><time>2026-04-19T08:09:39.273Z</time></trkpt><trkpt lat="43.5297516" lon="13.0735248"><ele>279.66666666666663</ele><time>2026-04-19T08:09:40.272Z</time></trkpt><trkpt lat="43.5296466" lon="13.0735786"><ele>279.8333333333333</ele><time>2026-04-19T08:09:42.271Z</time></trkpt><trkpt lat="43.5295752" lon="13.0736116"><ele>280.0</ele><time>2026-04-19T08:09:44.273Z</time></trkpt><trkpt lat="43.5294944" lon="13.0736291"><ele>280.3333333333333</ele><time>2026-04-19T08:10:00.272Z</time></trkpt><trkpt lat="43.5294587" lon="13.0735504"><ele>280.66666666666663</ele><time>2026-04-19T08:10:02.273Z</time></trkpt><trkpt lat="43.529416" lon="13.0734103"><ele>281.0</ele><time>2026-04-19T08:10:04.272Z</time></trkpt><trkpt lat="43.5293871" lon="13.0733215"><ele>281.3333333333333</ele><time>2026-04-19T08:10:05.273Z</time></trkpt><trkpt lat="43.5293557" lon="13.0732183"><ele>281.6666666666667</ele><time>2026-04-19T08:10:06.273Z</time></trkpt><trkpt lat="43.5293235" lon="13.073104"><ele>282.0</ele><time>2026-04-19T08:10:07.273Z</time></trkpt><trkpt lat="43.5292878" lon="13.0729935"><ele>283.2</ele><time>2026-04-19T08:10:08.273Z</time></trkpt><trkpt lat="43.5292493" lon="13.0728782"><ele>284.4</ele><time>2026-04-19T08:10:09.273Z</time></trkpt><trkpt lat="43.5292047" lon="13.0727595"><ele>285.6</ele><time>2026-04-19T08:10:10.272Z</time></trkpt><trkpt lat="43.5291633" lon="13.0726379"><ele>286.8</ele><time>2026-04-19T08:10:11.273Z</time></trkpt><trkpt lat="43.529124" lon="13.0725176"><ele>288.0</ele><time>2026-04-19T08:10:12.273Z</time></trkpt><trkpt lat="43.5290916" lon="13.0723998"><ele>288.3333333333333</ele><time>2026-04-19T08:10:13.272Z</time></trkpt><trkpt lat="43.5290775" lon="13.0722896"><ele>288.6666666666667</ele><time>2026-04-19T08:10:14.273Z</time></trkpt><trkpt lat="43.5290855" lon="13.0721785"><ele>289.0</ele><time>2026-04-19T08:10:15.272Z</time></trkpt><trkpt lat="43.5291205" lon="13.0720708"><ele>289.33333333333337</ele><time>2026-04-19T08:10:16.272Z</time></trkpt><trkpt lat="43.5291622" lon="13.0719559"><ele>289.6666666666667</ele><time>2026-04-19T08:10:17.271Z</time></trkpt><trkpt lat="43.5292066" lon="13.0718324"><ele>290.0</ele><time>2026-04-19T08:10:18.271Z</time></trkpt><trkpt lat="43.529256" lon="13.0717"><ele>292.25</ele><time>2026-04-19T08:10:19.272Z</time></trkpt><trkpt lat="43.5293002" lon="13.0715594"><ele>294.5</ele><time>2026-04-19T08:10:20.272Z</time></trkpt><trkpt lat="43.5293474" lon="13.0714053"><ele>296.75</ele><time>2026-04-19T08:10:21.272Z</time></trkpt><trkpt lat="43.529397" lon="13.071246"><ele>299.0</ele><time>2026-04-19T08:10:22.272Z</time></trkpt><trkpt lat="43.5294373" lon="13.0710825"><ele>299.0</ele><time>2026-04-19T08:10:23.272Z</time></trkpt><trkpt lat="43.5294689" lon="13.0709163"><ele>299.0</ele><time>2026-04-19T08:10:24.272Z</time></trkpt><trkpt lat="43.5294883" lon="13.0707481"><ele>299.0</ele><time>2026-04-19T08:10:25.272Z</time></trkpt><trkpt lat="43.5294936" lon="13.0705788"><ele>299.0</ele><time>2026-04-19T08:10:26.272Z</time></trkpt><trkpt lat="43.5294781" lon="13.0704134"><ele>300.2</ele><time>2026-04-19T08:10:27.271Z</time></trkpt><trkpt lat="43.5294422" lon="13.0702534"><ele>301.4</ele><time>2026-04-19T08:10:28.272Z</time></trkpt><trkpt lat="43.5294016" lon="13.0701134"><ele>302.6</ele><time>2026-04-19T08:10:29.272Z</time></trkpt><trkpt lat="43.5293645" lon="13.0700056"><ele>303.8</ele><time>2026-04-19T08:10:30.272Z</time></trkpt><trkpt lat="43.5293314" lon="13.0699166"><ele>305.0</ele><time>2026-04-19T08:10:31.271Z</time></trkpt><trkpt lat="43.5292853" lon="13.0698096"><ele>305.0</ele><time>2026-04-19T08:10:33.271Z</time></trkpt><trkpt lat="43.5292011" lon="13.0697869"><ele>305.0</ele><time>2026-04-19T08:10:37.271Z</time></trkpt><trkpt lat="43.5291244" lon="13.069954"><ele>305.0</ele><time>2026-04-19T08:10:39.271Z</time></trkpt><trkpt lat="43.5290959" lon="13.0700872"><ele>305.0</ele><time>2026-04-19T08:10:40.27Z</time></trkpt><trkpt lat="43.5290729" lon="13.0702213"><ele>305.0</ele><time>2026-04-19T08:10:41.272Z</time></trkpt><trkpt lat="43.5290495" lon="13.0703357"><ele>305.0</ele><time>2026-04-19T08:10:42.272Z</time></trkpt><trkpt lat="43.5290248" lon="13.0704335"><ele>305.0</ele><time>2026-04-19T08:10:43.272Z</time></trkpt><trkpt lat="43.5289897" lon="13.0705116"><ele>305.0</ele><time>2026-04-19T08:10:44.271Z</time></trkpt><trkpt lat="43.5288844" lon="13.0705747"><ele>305.0</ele><time>2026-04-19T08:10:46.271Z</time></trkpt><trkpt lat="43.5287943" lon="13.0704933"><ele>305.0</ele><time>2026-04-19T08:10:48.272Z</time></trkpt><trkpt lat="43.5287543" lon="13.070309"><ele>305.0</ele><time>2026-04-19T08:10:50.272Z</time></trkpt><trkpt lat="43.5287523" lon="13.0701876"><ele>305.0</ele><time>2026-04-19T08:10:51.272Z</time></trkpt><trkpt lat="43.5287548" lon="13.0700684"><ele>305.0</ele><time>2026-04-19T08:10:52.272Z</time></trkpt><trkpt lat="43.5287521" lon="13.0699501"><ele>305.0</ele><time>2026-04-19T08:10:53.271Z</time></trkpt><trkpt lat="43.5287428" lon="13.0698231"><ele>305.0</ele><time>2026-04-19T08:10:54.271Z</time></trkpt><trkpt lat="43.528724" lon="13.0696894"><ele>307.83333333333337</ele><time>2026-04-19T08:10:55.272Z</time></trkpt><trkpt lat="43.5286911" lon="13.0695829"><ele>310.6666666666667</ele><time>2026-04-19T08:10:56.271Z</time></trkpt><trkpt lat="43.5286361" lon="13.0694891"><ele>313.5</ele><time>2026-04-19T08:10:57.271Z</time></trkpt><trkpt lat="43.5285676" lon="13.0694178"><ele>316.3333333333333</ele><time>2026-04-19T08:10:58.272Z</time></trkpt><trkpt lat="43.528502" lon="13.0693564"><ele>319.16666666666663</ele><time>2026-04-19T08:10:59.271Z</time></trkpt><trkpt lat="43.5284399" lon="13.069292"><ele>322.0</ele><time>2026-04-19T08:11:00.272Z</time></trkpt><trkpt lat="43.5283797" lon="13.0692289"><ele>322.0</ele><time>2026-04-19T08:11:01.272Z</time></trkpt><trkpt lat="43.5283226" lon="13.0691659"><ele>322.0</ele><time>2026-04-19T08:11:02.272Z</time></trkpt><trkpt lat="43.528225" lon="13.0690808"><ele>322.0</ele><time>2026-04-19T08:11:04.272Z</time></trkpt><trkpt lat="43.5281681" lon="13.0690114"><ele>322.0</ele><time>2026-04-19T08:11:06.272Z</time></trkpt><trkpt lat="43.5281321" lon="13.0689353"><ele>322.0</ele><time>2026-04-19T08:11:17.271Z</time></trkpt><trkpt lat="43.5281108" lon="13.068834"><ele>322.0</ele><time>2026-04-19T08:11:52.272Z</time></trkpt><trkpt lat="43.528077" lon="13.0687424"><ele>323.3333333333333</ele><time>2026-04-19T08:11:54.272Z</time></trkpt><trkpt lat="43.5280397" lon="13.0686197"><ele>324.66666666666663</ele><time>2026-04-19T08:11:56.271Z</time></trkpt><trkpt lat="43.5280134" lon="13.0685391"><ele>326.0</ele><time>2026-04-19T08:11:57.271Z</time></trkpt><trkpt lat="43.5279852" lon="13.0684542"><ele>327.3333333333333</ele><time>2026-04-19T08:11:58.272Z</time></trkpt><trkpt lat="43.5279518" lon="13.0683668"><ele>328.6666666666667</ele><time>2026-04-19T08:11:59.271Z</time></trkpt><trkpt lat="43.5279177" lon="13.0682764"><ele>330.0</ele><time>2026-04-19T08:12:00.272Z</time></trkpt><trkpt lat="43.5278832" lon="13.0681788"><ele>332.4</ele><time>2026-04-19T08:12:01.272Z</time></trkpt><trkpt lat="43.527842" lon="13.0680631"><ele>334.8</ele><time>2026-04-19T08:12:02.272Z</time></trkpt><trkpt lat="43.527807" lon="13.0679559"><ele>337.20000000000005</ele><time>2026-04-19T08:12:03.272Z</time></trkpt><trkpt lat="43.527771" lon="13.067872"><ele>339.6</ele><time>2026-04-19T08:12:04.272Z</time></trkpt><trkpt lat="43.5277183" lon="13.0677028"><ele>342.0</ele><time>2026-04-19T08:12:06.271Z</time></trkpt><trkpt lat="43.5276937" lon="13.0675918"><ele>342.0</ele><time>2026-04-19T08:12:07.272Z</time></trkpt><trkpt lat="43.5276659" lon="13.0674652"><ele>342.0</ele><time>2026-04-19T08:12:08.271Z</time></trkpt><trkpt lat="43.5276369" lon="13.067306"><ele>342.0</ele><time>2026-04-19T08:12:09.271Z</time></trkpt><trkpt lat="43.5276" lon="13.0671225"><ele>342.0</ele><time>2026-04-19T08:12:10.272Z</time></trkpt><trkpt lat="43.5275603" lon="13.0669141"><ele>343.0</ele><time>2026-04-19T08:12:11.272Z</time></trkpt><trkpt lat="43.5275144" lon="13.0666887"><ele>344.0</ele><time>2026-04-19T08:12:12.272Z</time></trkpt><trkpt lat="43.5274543" lon="13.0664586"><ele>345.0</ele><time>2026-04-19T08:12:13.272Z</time></trkpt><trkpt lat="43.527388" lon="13.066235"><ele>345.0</ele><time>2026-04-19T08:12:14.272Z</time></trkpt><trkpt lat="43.5273156" lon="13.0660216"><ele>345.0</ele><time>2026-04-19T08:12:15.271Z</time></trkpt><trkpt lat="43.5272392" lon="13.0658177"><ele>345.0</ele><time>2026-04-19T08:12:16.272Z</time></trkpt><trkpt lat="43.5271547" lon="13.0656285"><ele>343.5</ele><time>2026-04-19T08:12:17.272Z</time></trkpt><trkpt lat="43.5270689" lon="13.0654565"><ele>342.0</ele><time>2026-04-19T08:12:18.271Z</time></trkpt><trkpt lat="43.5269878" lon="13.0653"><ele>340.5</ele><time>2026-04-19T08:12:19.272Z</time></trkpt><trkpt lat="43.5269085" lon="13.0651486"><ele>339.0</ele><time>2026-04-19T08:12:20.271Z</time></trkpt><trkpt lat="43.5268245" lon="13.064999"><ele>344.5</ele><time>2026-04-19T08:12:21.271Z</time></trkpt><trkpt lat="43.5267439" lon="13.0648452"><ele>350.0</ele><time>2026-04-19T08:12:22.272Z</time></trkpt><trkpt lat="43.5266889" lon="13.0647038"><ele>355.5</ele><time>2026-04-19T08:12:23.272Z</time></trkpt><trkpt lat="43.5266491" lon="13.0645635"><ele>361.0</ele><time>2026-04-19T08:12:24.272Z</time></trkpt><trkpt lat="43.5266225" lon="13.0644303"><ele>361.0</ele><time>2026-04-19T08:12:25.272Z</time></trkpt><trkpt lat="43.5266099" lon="13.0643123"><ele>361.0</ele><time>2026-04-19T08:12:26.272Z</time></trkpt><trkpt lat="43.5266048" lon="13.0641998"><ele>361.0</ele><time>2026-04-19T08:12:27.27Z</time></trkpt><trkpt lat="43.5266051" lon="13.0640991"><ele>361.0</ele><time>2026-04-19T08:12:28.272Z</time></trkpt><trkpt lat="43.526608" lon="13.064003"><ele>361.0</ele><time>2026-04-19T08:12:29.272Z</time></trkpt><trkpt lat="43.5266161" lon="13.0639047"><ele>361.0</ele><time>2026-04-19T08:12:30.272Z</time></trkpt><trkpt lat="43.5266318" lon="13.0638071"><ele>361.8333333333333</ele><time>2026-04-19T08:12:31.272Z</time></trkpt><trkpt lat="43.5266593" lon="13.06371"><ele>362.66666666666663</ele><time>2026-04-19T08:12:32.271Z</time></trkpt><trkpt lat="43.5266893" lon="13.0636124"><ele>363.5</ele><time>2026-04-19T08:12:33.271Z</time></trkpt><trkpt lat="43.5267186" lon="13.0635198"><ele>364.3333333333333</ele><time>2026-04-19T08:12:34.272Z</time></trkpt><trkpt lat="43.5267473" lon="13.0634273"><ele>365.1666666666667</ele><time>2026-04-19T08:12:35.272Z</time></trkpt><trkpt lat="43.5267707" lon="13.0633253"><ele>366.0</ele><time>2026-04-19T08:12:36.272Z</time></trkpt><trkpt lat="43.5268028" lon="13.0632235"><ele>367.1666666666667</ele><time>2026-04-19T08:12:37.271Z</time></trkpt><trkpt lat="43.5268391" lon="13.0631187"><ele>368.3333333333333</ele><time>2026-04-19T08:12:38.272Z</time></trkpt><trkpt lat="43.5268756" lon="13.0630108"><ele>369.5</ele><time>2026-04-19T08:12:39.27Z</time></trkpt><trkpt lat="43.526911" lon="13.0629134"><ele>370.66666666666663</ele><time>2026-04-19T08:12:40.27Z</time></trkpt><trkpt lat="43.5269526" lon="13.0628132"><ele>371.8333333333333</ele><time>2026-04-19T08:12:41.271Z</time></trkpt><trkpt lat="43.5269938" lon="13.0627091"><ele>373.0</ele><time>2026-04-19T08:12:42.272Z</time></trkpt><trkpt lat="43.5270348" lon="13.0626032"><ele>369.79999999999995</ele><time>2026-04-19T08:12:43.271Z</time></trkpt><trkpt lat="43.5270747" lon="13.0624925"><ele>366.6</ele><time>2026-04-19T08:12:44.271Z</time></trkpt><trkpt lat="43.5271156" lon="13.062378"><ele>363.4</ele><time>2026-04-19T08:12:45.27Z</time></trkpt><trkpt lat="43.5271591" lon="13.0622517"><ele>360.20000000000005</ele><time>2026-04-19T08:12:46.271Z</time></trkpt><trkpt lat="43.5272079" lon="13.0621218"><ele>357.0</ele><time>2026-04-19T08:12:47.272Z</time></trkpt><trkpt lat="43.5272585" lon="13.0619884"><ele>357.0</ele><time>2026-04-19T08:12:48.272Z</time></trkpt><trkpt lat="43.527306" lon="13.061858"><ele>357.0</ele><time>2026-04-19T08:12:49.272Z</time></trkpt><trkpt lat="43.5273542" lon="13.061725"><ele>357.0</ele><time>2026-04-19T08:12:50.271Z</time></trkpt><trkpt lat="43.5274031" lon="13.0615958"><ele>357.0</ele><time>2026-04-19T08:12:51.271Z</time></trkpt><trkpt lat="43.5274537" lon="13.0614766"><ele>357.0</ele><time>2026-04-19T08:12:52.272Z</time></trkpt><trkpt lat="43.5275061" lon="13.0613506"><ele>357.40000000000003</ele><time>2026-04-19T08:12:53.271Z</time></trkpt><trkpt lat="43.5275627" lon="13.0612249"><ele>357.8</ele><time>2026-04-19T08:12:54.272Z</time></trkpt><trkpt lat="43.5276178" lon="13.061096"><ele>358.2</ele><time>2026-04-19T08:12:55.27Z</time></trkpt><trkpt lat="43.5276666" lon="13.0609772"><ele>358.6</ele><time>2026-04-19T08:12:56.27Z</time></trkpt><trkpt lat="43.5277231" lon="13.0608599"><ele>359.0</ele><time>2026-04-19T08:12:57.271Z</time></trkpt><trkpt lat="43.5277811" lon="13.0607289"><ele>360.5</ele><time>2026-04-19T08:12:58.271Z</time></trkpt><trkpt lat="43.5278419" lon="13.0605961"><ele>362.0</ele><time>2026-04-19T08:12:59.271Z</time></trkpt><trkpt lat="43.5279065" lon="13.0604601"><ele>363.5</ele><time>2026-04-19T08:13:00.272Z</time></trkpt><trkpt lat="43.5279739" lon="13.0603143"><ele>365.0</ele><time>2026-04-19T08:13:01.272Z</time></trkpt><trkpt lat="43.5280387" lon="13.0601724"><ele>365.0</ele><time>2026-04-19T08:13:02.272Z</time></trkpt><trkpt lat="43.5280994" lon="13.0600451"><ele>365.0</ele><time>2026-04-19T08:13:03.272Z</time></trkpt><trkpt lat="43.5281567" lon="13.0599274"><ele>365.0</ele><time>2026-04-19T08:13:04.272Z</time></trkpt><trkpt lat="43.5282126" lon="13.059817"><ele>365.0</ele><time>2026-04-19T08:13:05.272Z</time></trkpt><trkpt lat="43.5282635" lon="13.0597195"><ele>365.0</ele><time>2026-04-19T08:13:06.271Z</time></trkpt><trkpt lat="43.528311" lon="13.0596205"><ele>366.6</ele><time>2026-04-19T08:13:07.271Z</time></trkpt><trkpt lat="43.5283503" lon="13.059498"><ele>368.2</ele><time>2026-04-19T08:13:08.27Z</time></trkpt><trkpt lat="43.5283942" lon="13.0593649"><ele>369.79999999999995</ele><time>2026-04-19T08:13:09.271Z</time></trkpt><trkpt lat="43.5284479" lon="13.0592272"><ele>371.4</ele><time>2026-04-19T08:13:10.271Z</time></trkpt><trkpt lat="43.5284949" lon="13.0591108"><ele>373.0</ele><time>2026-04-19T08:13:11.271Z</time></trkpt><trkpt lat="43.5285341" lon="13.0590046"><ele>373.66666666666663</ele><time>2026-04-19T08:13:12.272Z</time></trkpt><trkpt lat="43.5285623" lon="13.058899"><ele>374.3333333333333</ele><time>2026-04-19T08:13:13.272Z</time></trkpt><trkpt lat="43.5285871" lon="13.0587838"><ele>375.0</ele><time>2026-04-19T08:13:14.272Z</time></trkpt><trkpt lat="43.5286087" lon="13.0586688"><ele>375.6666666666667</ele><time>2026-04-19T08:13:15.271Z</time></trkpt><trkpt lat="43.528624" lon="13.0585494"><ele>376.33333333333337</ele><time>2026-04-19T08:13:16.272Z</time></trkpt><trkpt lat="43.5286344" lon="13.0584206"><ele>377.0</ele><time>2026-04-19T08:13:17.272Z</time></trkpt><trkpt lat="43.5286363" lon="13.0582843"><ele>377.0</ele><time>2026-04-19T08:13:18.271Z</time></trkpt><trkpt lat="43.5286336" lon="13.0581427"><ele>377.0</ele><time>2026-04-19T08:13:19.272Z</time></trkpt><trkpt lat="43.5286232" lon="13.0579927"><ele>377.0</ele><time>2026-04-19T08:13:20.271Z</time></trkpt><trkpt lat="43.5286003" lon="13.0578388"><ele>377.0</ele><time>2026-04-19T08:13:21.272Z</time></trkpt><trkpt lat="43.5285772" lon="13.0576775"><ele>377.0</ele><time>2026-04-19T08:13:22.271Z</time></trkpt><trkpt lat="43.5285564" lon="13.0575163"><ele>376.25</ele><time>2026-04-19T08:13:23.271Z</time></trkpt><trkpt lat="43.5285262" lon="13.057353"><ele>375.5</ele><time>2026-04-19T08:13:24.272Z</time></trkpt><trkpt lat="43.5284924" lon="13.0571932"><ele>374.75</ele><time>2026-04-19T08:13:25.272Z</time></trkpt><trkpt lat="43.5284558" lon="13.0570364"><ele>374.0</ele><time>2026-04-19T08:13:26.272Z</time></trkpt><trkpt lat="43.5284157" lon="13.056884"><ele>374.0</ele><time>2026-04-19T08:13:27.272Z</time></trkpt><trkpt lat="43.5283753" lon="13.0567316"><ele>374.0</ele><time>2026-04-19T08:13:28.272Z</time></trkpt><trkpt lat="43.5283367" lon="13.0565805"><ele>374.0</ele><time>2026-04-19T08:13:29.272Z</time></trkpt><trkpt lat="43.5282904" lon="13.0564323"><ele>374.0</ele><time>2026-04-19T08:13:30.272Z</time></trkpt><trkpt lat="43.5282402" lon="13.0562907"><ele>373.75</ele><time>2026-04-19T08:13:31.271Z</time></trkpt><trkpt lat="43.5281852" lon="13.0561529"><ele>373.5</ele><time>2026-04-19T08:13:32.271Z</time></trkpt><trkpt lat="43.5281278" lon="13.0560195"><ele>373.25</ele><time>2026-04-19T08:13:33.271Z</time></trkpt><trkpt lat="43.5280672" lon="13.0558823"><ele>373.0</ele><time>2026-04-19T08:13:34.272Z</time></trkpt><trkpt lat="43.5280067" lon="13.0557491"><ele>372.79999999999995</ele><time>2026-04-19T08:13:35.272Z</time></trkpt><trkpt lat="43.5279474" lon="13.0556177"><ele>372.6</ele><time>2026-04-19T08:13:36.271Z</time></trkpt><trkpt lat="43.5278878" lon="13.0554884"><ele>372.4</ele><time>2026-04-19T08:13:37.27Z</time></trkpt><trkpt lat="43.5278292" lon="13.0553579"><ele>372.20000000000005</ele><time>2026-04-19T08:13:38.272Z</time></trkpt><trkpt lat="43.5277708" lon="13.0552314"><ele>372.0</ele><time>2026-04-19T08:13:39.272Z</time></trkpt><trkpt lat="43.5277153" lon="13.0551073"><ele>371.8</ele><time>2026-04-19T08:13:40.272Z</time></trkpt><trkpt lat="43.5276606" lon="13.0549902"><ele>371.6</ele><time>2026-04-19T08:13:41.272Z</time></trkpt><trkpt lat="43.5276055" lon="13.0548732"><ele>371.40000000000003</ele><time>2026-04-19T08:13:42.271Z</time></trkpt><trkpt lat="43.5275474" lon="13.0547557"><ele>371.20000000000005</ele><time>2026-04-19T08:13:43.271Z</time></trkpt><trkpt lat="43.5274889" lon="13.0546385"><ele>371.0</ele><time>2026-04-19T08:13:44.271Z</time></trkpt><trkpt lat="43.5274294" lon="13.0545251"><ele>370.4</ele><time>2026-04-19T08:13:45.272Z</time></trkpt><trkpt lat="43.5273686" lon="13.0544143"><ele>369.8</ele><time>2026-04-19T08:13:46.272Z</time></trkpt><trkpt lat="43.527307" lon="13.0543032"><ele>369.2</ele><time>2026-04-19T08:13:47.271Z</time></trkpt><trkpt lat="43.5272441" lon="13.0541869"><ele>368.59999999999997</ele><time>2026-04-19T08:13:48.271Z</time></trkpt><trkpt lat="43.5271765" lon="13.0540606"><ele>368.0</ele><time>2026-04-19T08:13:49.272Z</time></trkpt><trkpt lat="43.5271066" lon="13.0539303"><ele>365.5</ele><time>2026-04-19T08:13:50.271Z</time></trkpt><trkpt lat="43.5270285" lon="13.0537986"><ele>363.0</ele><time>2026-04-19T08:13:51.271Z</time></trkpt><trkpt lat="43.5269504" lon="13.0536693"><ele>360.5</ele><time>2026-04-19T08:13:52.272Z</time></trkpt><trkpt lat="43.52686" lon="13.0535336"><ele>358.0</ele><time>2026-04-19T08:13:53.271Z</time></trkpt><trkpt lat="43.5267646" lon="13.0533992"><ele>353.25</ele><time>2026-04-19T08:13:54.271Z</time></trkpt><trkpt lat="43.5266715" lon="13.0532763"><ele>348.5</ele><time>2026-04-19T08:13:55.272Z</time></trkpt><trkpt lat="43.526578" lon="13.0531564"><ele>343.75</ele><time>2026-04-19T08:13:56.27Z</time></trkpt><trkpt lat="43.5264534" lon="13.0530838"><ele>339.0</ele><time>2026-04-19T08:13:57.271Z</time></trkpt><trkpt lat="43.5263274" lon="13.0530174"><ele>340.5</ele><time>2026-04-19T08:13:58.27Z</time></trkpt><trkpt lat="43.5261977" lon="13.0529695"><ele>342.0</ele><time>2026-04-19T08:13:59.271Z</time></trkpt><trkpt lat="43.5260616" lon="13.0529184"><ele>343.5</ele><time>2026-04-19T08:14:00.271Z</time></trkpt><trkpt lat="43.525924" lon="13.0528613"><ele>345.0</ele><time>2026-04-19T08:14:01.272Z</time></trkpt><trkpt lat="43.5257815" lon="13.0527985"><ele>345.0</ele><time>2026-04-19T08:14:02.271Z</time></trkpt><trkpt lat="43.5256363" lon="13.05274"><ele>345.0</ele><time>2026-04-19T08:14:03.272Z</time></trkpt><trkpt lat="43.5254827" lon="13.0526876"><ele>345.0</ele><time>2026-04-19T08:14:04.272Z</time></trkpt><trkpt lat="43.5253328" lon="13.0526363"><ele>344.75</ele><time>2026-04-19T08:14:05.271Z</time></trkpt><trkpt lat="43.5251821" lon="13.0525869"><ele>344.5</ele><time>2026-04-19T08:14:06.271Z</time></trkpt><trkpt lat="43.5250404" lon="13.0525374"><ele>344.25</ele><time>2026-04-19T08:14:07.272Z</time></trkpt><trkpt lat="43.5248979" lon="13.052496"><ele>344.0</ele><time>2026-04-19T08:14:08.272Z</time></trkpt><trkpt lat="43.5247585" lon="13.052472"><ele>341.0</ele><time>2026-04-19T08:14:09.271Z</time></trkpt><trkpt lat="43.5246193" lon="13.0524511"><ele>338.0</ele><time>2026-04-19T08:14:10.272Z</time></trkpt><trkpt lat="43.524474" lon="13.052443"><ele>335.0</ele><time>2026-04-19T08:14:11.271Z</time></trkpt><trkpt lat="43.524327" lon="13.052445"><ele>332.0</ele><time>2026-04-19T08:14:12.272Z</time></trkpt><trkpt lat="43.5241731" lon="13.0524531"><ele>330.0</ele><time>2026-04-19T08:14:13.272Z</time></trkpt><trkpt lat="43.5240205" lon="13.0524578"><ele>328.0</ele><time>2026-04-19T08:14:14.271Z</time></trkpt><trkpt lat="43.5238673" lon="13.0524575"><ele>326.0</ele><time>2026-04-19T08:14:15.272Z</time></trkpt><trkpt lat="43.5237172" lon="13.0524547"><ele>326.0</ele><time>2026-04-19T08:14:16.271Z</time></trkpt><trkpt lat="43.5235678" lon="13.0524542"><ele>326.0</ele><time>2026-04-19T08:14:17.272Z</time></trkpt><trkpt lat="43.5234156" lon="13.0524508"><ele>326.0</ele><time>2026-04-19T08:14:18.271Z</time></trkpt><trkpt lat="43.5232658" lon="13.0524442"><ele>326.0</ele><time>2026-04-19T08:14:19.272Z</time></trkpt><trkpt lat="43.5231171" lon="13.0524399"><ele>326.0</ele><time>2026-04-19T08:14:20.271Z</time></trkpt><trkpt lat="43.5229682" lon="13.0524344"><ele>326.0</ele><time>2026-04-19T08:14:21.272Z</time></trkpt><trkpt lat="43.5228222" lon="13.0524162"><ele>326.0</ele><time>2026-04-19T08:14:22.272Z</time></trkpt><trkpt lat="43.5226784" lon="13.0523803"><ele>326.33333333333337</ele><time>2026-04-19T08:14:23.272Z</time></trkpt><trkpt lat="43.522537" lon="13.0523262"><ele>326.6666666666667</ele><time>2026-04-19T08:14:24.272Z</time></trkpt><trkpt lat="43.5223953" lon="13.0522603"><ele>327.0</ele><time>2026-04-19T08:14:25.272Z</time></trkpt><trkpt lat="43.5222504" lon="13.0521908"><ele>327.0</ele><time>2026-04-19T08:14:26.271Z</time></trkpt><trkpt lat="43.5221066" lon="13.0521195"><ele>327.0</ele><time>2026-04-19T08:14:27.271Z</time></trkpt><trkpt lat="43.5219601" lon="13.0520428"><ele>327.0</ele><time>2026-04-19T08:14:28.272Z</time></trkpt><trkpt lat="43.5218099" lon="13.051964"><ele>327.3333333333333</ele><time>2026-04-19T08:14:29.272Z</time></trkpt><trkpt lat="43.521658" lon="13.0518822"><ele>327.66666666666663</ele><time>2026-04-19T08:14:30.271Z</time></trkpt><trkpt lat="43.5215021" lon="13.0517952"><ele>328.0</ele><time>2026-04-19T08:14:31.272Z</time></trkpt><trkpt lat="43.5213399" lon="13.0517037"><ele>328.66666666666663</ele><time>2026-04-19T08:14:32.272Z</time></trkpt><trkpt lat="43.5211738" lon="13.0516059"><ele>329.3333333333333</ele><time>2026-04-19T08:14:33.272Z</time></trkpt><trkpt lat="43.5210003" lon="13.0515126"><ele>330.0</ele><time>2026-04-19T08:14:34.272Z</time></trkpt><trkpt lat="43.5208216" lon="13.0514397"><ele>330.0</ele><time>2026-04-19T08:14:35.272Z</time></trkpt><trkpt lat="43.5206354" lon="13.0513891"><ele>330.0</ele><time>2026-04-19T08:14:36.272Z</time></trkpt><trkpt lat="43.5204469" lon="13.051353"><ele>330.0</ele><time>2026-04-19T08:14:37.272Z</time></trkpt><trkpt lat="43.5202604" lon="13.0513244"><ele>329.6666666666667</ele><time>2026-04-19T08:14:38.272Z</time></trkpt><trkpt lat="43.520072" lon="13.0513025"><ele>329.33333333333337</ele><time>2026-04-19T08:14:39.272Z</time></trkpt><trkpt lat="43.5198968" lon="13.051277"><ele>329.0</ele><time>2026-04-19T08:14:40.272Z</time></trkpt><trkpt lat="43.5197309" lon="13.0512538"><ele>328.33333333333337</ele><time>2026-04-19T08:14:41.271Z</time></trkpt><trkpt lat="43.5195652" lon="13.0512345"><ele>327.6666666666667</ele><time>2026-04-19T08:14:42.272Z</time></trkpt><trkpt lat="43.5194013" lon="13.0512167"><ele>327.0</ele><time>2026-04-19T08:14:43.272Z</time></trkpt><trkpt lat="43.5192343" lon="13.051199"><ele>327.0</ele><time>2026-04-19T08:14:44.27Z</time></trkpt><trkpt lat="43.5190664" lon="13.0511848"><ele>327.0</ele><time>2026-04-19T08:14:45.272Z</time></trkpt><trkpt lat="43.5188998" lon="13.0511754"><ele>327.0</ele><time>2026-04-19T08:14:46.272Z</time></trkpt><trkpt lat="43.518733" lon="13.0511647"><ele>328.3333333333333</ele><time>2026-04-19T08:14:47.272Z</time></trkpt><trkpt lat="43.5185676" lon="13.0511569"><ele>329.66666666666663</ele><time>2026-04-19T08:14:48.271Z</time></trkpt><trkpt lat="43.5184052" lon="13.0511518"><ele>331.0</ele><time>2026-04-19T08:14:49.271Z</time></trkpt><trkpt lat="43.518246" lon="13.0511464"><ele>331.0</ele><time>2026-04-19T08:14:50.271Z</time></trkpt><trkpt lat="43.5181031" lon="13.0511362"><ele>331.0</ele><time>2026-04-19T08:14:51.272Z</time></trkpt><trkpt lat="43.5179695" lon="13.0511252"><ele>331.0</ele><time>2026-04-19T08:14:52.272Z</time></trkpt><trkpt lat="43.5178442" lon="13.0511159"><ele>331.0</ele><time>2026-04-19T08:14:53.272Z</time></trkpt><trkpt lat="43.5177276" lon="13.051111"><ele>332.25</ele><time>2026-04-19T08:14:54.272Z</time></trkpt><trkpt lat="43.5176046" lon="13.0511126"><ele>333.5</ele><time>2026-04-19T08:14:55.271Z</time></trkpt><trkpt lat="43.5174777" lon="13.0511173"><ele>334.75</ele><time>2026-04-19T08:14:56.272Z</time></trkpt><trkpt lat="43.51734" lon="13.0511281"><ele>336.0</ele><time>2026-04-19T08:14:57.271Z</time></trkpt><trkpt lat="43.5171949" lon="13.0511498"><ele>336.0</ele><time>2026-04-19T08:14:58.271Z</time></trkpt><trkpt lat="43.5170468" lon="13.0511833"><ele>336.0</ele><time>2026-04-19T08:14:59.27Z</time></trkpt><trkpt lat="43.5169004" lon="13.0512322"><ele>336.0</ele><time>2026-04-19T08:15:00.272Z</time></trkpt><trkpt lat="43.5167513" lon="13.0512989"><ele>336.0</ele><time>2026-04-19T08:15:01.272Z</time></trkpt><trkpt lat="43.5166031" lon="13.0513751"><ele>336.0</ele><time>2026-04-19T08:15:02.272Z</time></trkpt><trkpt lat="43.5164533" lon="13.0514587"><ele>336.0</ele><time>2026-04-19T08:15:03.272Z</time></trkpt><trkpt lat="43.5163072" lon="13.0515452"><ele>340.3333333333333</ele><time>2026-04-19T08:15:04.272Z</time></trkpt><trkpt lat="43.5161649" lon="13.0516314"><ele>344.66666666666663</ele><time>2026-04-19T08:15:05.272Z</time></trkpt><trkpt lat="43.516021" lon="13.0517225"><ele>349.0</ele><time>2026-04-19T08:15:06.272Z</time></trkpt><trkpt lat="43.5158772" lon="13.0518232"><ele>349.0</ele><time>2026-04-19T08:15:07.272Z</time></trkpt><trkpt lat="43.5157356" lon="13.0519315"><ele>349.0</ele><time>2026-04-19T08:15:08.271Z</time></trkpt><trkpt lat="43.5155977" lon="13.0520393"><ele>349.0</ele><time>2026-04-19T08:15:09.271Z</time></trkpt><trkpt lat="43.5154636" lon="13.0521497"><ele>350.0</ele><time>2026-04-19T08:15:10.272Z</time></trkpt><trkpt lat="43.5153333" lon="13.0522598"><ele>351.0</ele><time>2026-04-19T08:15:11.272Z</time></trkpt><trkpt lat="43.5152052" lon="13.052367"><ele>352.0</ele><time>2026-04-19T08:15:12.272Z</time></trkpt><trkpt lat="43.515082" lon="13.0524709"><ele>353.0</ele><time>2026-04-19T08:15:13.271Z</time></trkpt><trkpt lat="43.5149627" lon="13.052571"><ele>355.25</ele><time>2026-04-19T08:15:14.272Z</time></trkpt><trkpt lat="43.514852" lon="13.052679"><ele>357.5</ele><time>2026-04-19T08:15:15.272Z</time></trkpt><trkpt lat="43.5147478" lon="13.0528142"><ele>359.75</ele><time>2026-04-19T08:15:16.272Z</time></trkpt><trkpt lat="43.514656" lon="13.0529639"><ele>362.0</ele><time>2026-04-19T08:15:17.272Z</time></trkpt><trkpt lat="43.5145729" lon="13.0531004"><ele>363.40000000000003</ele><time>2026-04-19T08:15:18.271Z</time></trkpt><trkpt lat="43.5144899" lon="13.053219"><ele>364.8</ele><time>2026-04-19T08:15:19.272Z</time></trkpt><trkpt lat="43.5144111" lon="13.0532941"><ele>366.2</ele><time>2026-04-19T08:15:20.272Z</time></trkpt><trkpt lat="43.5143413" lon="13.0533155"><ele>367.6</ele><time>2026-04-19T08:15:21.272Z</time></trkpt><trkpt lat="43.514263" lon="13.0532937"><ele>369.0</ele><time>2026-04-19T08:15:22.272Z</time></trkpt><trkpt lat="43.5141839" lon="13.0532281"><ele>369.0</ele><time>2026-04-19T08:15:23.272Z</time></trkpt><trkpt lat="43.5141002" lon="13.0531248"><ele>369.0</ele><time>2026-04-19T08:15:24.271Z</time></trkpt><trkpt lat="43.5140016" lon="13.0530097"><ele>369.0</ele><time>2026-04-19T08:15:25.271Z</time></trkpt><trkpt lat="43.5138994" lon="13.0528907"><ele>369.0</ele><time>2026-04-19T08:15:26.272Z</time></trkpt><trkpt lat="43.513815" lon="13.0527792"><ele>369.0</ele><time>2026-04-19T08:15:27.271Z</time></trkpt><trkpt lat="43.5137387" lon="13.052692"><ele>369.0</ele><time>2026-04-19T08:15:28.27Z</time></trkpt><trkpt lat="43.5136614" lon="13.0526356"><ele>369.0</ele><time>2026-04-19T08:15:29.272Z</time></trkpt><trkpt lat="43.5135973" lon="13.052623"><ele>369.0</ele><time>2026-04-19T08:15:30.271Z</time></trkpt><trkpt lat="43.5135286" lon="13.0527222"><ele>369.0</ele><time>2026-04-19T08:15:32.27Z</time></trkpt><trkpt lat="43.5135352" lon="13.0528127"><ele>369.0</ele><time>2026-04-19T08:15:33.271Z</time></trkpt><trkpt lat="43.5135671" lon="13.0529264"><ele>371.79999999999995</ele><time>2026-04-19T08:15:34.272Z</time></trkpt><trkpt lat="43.5136004" lon="13.0530519"><ele>374.59999999999997</ele><time>2026-04-19T08:15:35.272Z</time></trkpt><trkpt lat="43.5136107" lon="13.0531794"><ele>377.4</ele><time>2026-04-19T08:15:36.271Z</time></trkpt><trkpt lat="43.5136023" lon="13.0533153"><ele>380.2</ele><time>2026-04-19T08:15:37.272Z</time></trkpt><trkpt lat="43.5135649" lon="13.0534581"><ele>383.0</ele><time>2026-04-19T08:15:38.272Z</time></trkpt><trkpt lat="43.5135081" lon="13.0536257"><ele>384.0</ele><time>2026-04-19T08:15:39.271Z</time></trkpt><trkpt lat="43.5134398" lon="13.0538019"><ele>385.0</ele><time>2026-04-19T08:15:40.271Z</time></trkpt><trkpt lat="43.5133674" lon="13.0539808"><ele>386.0</ele><time>2026-04-19T08:15:41.272Z</time></trkpt><trkpt lat="43.513292" lon="13.0541568"><ele>387.0</ele><time>2026-04-19T08:15:42.272Z</time></trkpt><trkpt lat="43.513231" lon="13.0543378"><ele>387.0</ele><time>2026-04-19T08:15:43.272Z</time></trkpt><trkpt lat="43.5131934" lon="13.054537"><ele>387.0</ele><time>2026-04-19T08:15:44.272Z</time></trkpt><trkpt lat="43.5131722" lon="13.0547393"><ele>387.0</ele><time>2026-04-19T08:15:45.272Z</time></trkpt><trkpt lat="43.5131702" lon="13.0549444"><ele>387.0</ele><time>2026-04-19T08:15:46.272Z</time></trkpt><trkpt lat="43.5131874" lon="13.0551291"><ele>386.6</ele><time>2026-04-19T08:15:47.272Z</time></trkpt><trkpt lat="43.513197" lon="13.0552899"><ele>386.20000000000005</ele><time>2026-04-19T08:15:48.272Z</time></trkpt><trkpt lat="43.5131894" lon="13.0554225"><ele>385.8</ele><time>2026-04-19T08:15:49.271Z</time></trkpt><trkpt lat="43.513159" lon="13.0555237"><ele>385.4</ele><time>2026-04-19T08:15:50.271Z</time></trkpt><trkpt lat="43.5130473" lon="13.0555805"><ele>385.0</ele><time>2026-04-19T08:15:52.272Z</time></trkpt><trkpt lat="43.5129849" lon="13.0555332"><ele>385.0</ele><time>2026-04-19T08:15:53.271Z</time></trkpt><trkpt lat="43.5129279" lon="13.0554537"><ele>385.0</ele><time>2026-04-19T08:15:54.271Z</time></trkpt><trkpt lat="43.5128768" lon="13.0553429"><ele>385.0</ele><time>2026-04-19T08:15:55.271Z</time></trkpt><trkpt lat="43.5128418" lon="13.0552005"><ele>385.0</ele><time>2026-04-19T08:15:56.271Z</time></trkpt><trkpt lat="43.5128076" lon="13.0550362"><ele>385.0</ele><time>2026-04-19T08:15:57.271Z</time></trkpt><trkpt lat="43.5127653" lon="13.0548655"><ele>389.0</ele><time>2026-04-19T08:15:58.272Z</time></trkpt><trkpt lat="43.5127222" lon="13.0546828"><ele>393.0</ele><time>2026-04-19T08:15:59.272Z</time></trkpt><trkpt lat="43.5126793" lon="13.054499"><ele>397.0</ele><time>2026-04-19T08:16:00.272Z</time></trkpt><trkpt lat="43.5126385" lon="13.0543156"><ele>401.0</ele><time>2026-04-19T08:16:01.271Z</time></trkpt><trkpt lat="43.5125963" lon="13.054132"><ele>401.75</ele><time>2026-04-19T08:16:02.272Z</time></trkpt><trkpt lat="43.5125529" lon="13.0539512"><ele>402.5</ele><time>2026-04-19T08:16:03.272Z</time></trkpt><trkpt lat="43.5125102" lon="13.0537715"><ele>403.25</ele><time>2026-04-19T08:16:04.272Z</time></trkpt><trkpt lat="43.5124703" lon="13.0535896"><ele>404.0</ele><time>2026-04-19T08:16:05.272Z</time></trkpt><trkpt lat="43.5124306" lon="13.0534052"><ele>404.0</ele><time>2026-04-19T08:16:06.272Z</time></trkpt><trkpt lat="43.5123909" lon="13.0532187"><ele>404.0</ele><time>2026-04-19T08:16:07.272Z</time></trkpt><trkpt lat="43.5123492" lon="13.0530325"><ele>404.0</ele><time>2026-04-19T08:16:08.271Z</time></trkpt><trkpt lat="43.5123081" lon="13.0528481"><ele>404.0</ele><time>2026-04-19T08:16:09.271Z</time></trkpt><trkpt lat="43.512267" lon="13.0526661"><ele>404.0</ele><time>2026-04-19T08:16:10.272Z</time></trkpt><trkpt lat="43.51223" lon="13.0524979"><ele>404.0</ele><time>2026-04-19T08:16:11.272Z</time></trkpt><trkpt lat="43.5121898" lon="13.0523402"><ele>404.0</ele><time>2026-04-19T08:16:12.27Z</time></trkpt><trkpt lat="43.5121375" lon="13.0522002"><ele>404.0</ele><time>2026-04-19T08:16:13.272Z</time></trkpt><trkpt lat="43.5120717" lon="13.0520886"><ele>405.4</ele><time>2026-04-19T08:16:14.272Z</time></trkpt><trkpt lat="43.5119971" lon="13.0520156"><ele>406.79999999999995</ele><time>2026-04-19T08:16:15.271Z</time></trkpt><trkpt lat="43.5119009" lon="13.0519783"><ele>408.20000000000005</ele><time>2026-04-19T08:16:16.271Z</time></trkpt><trkpt lat="43.5117868" lon="13.051971"><ele>409.6</ele><time>2026-04-19T08:16:17.272Z</time></trkpt><trkpt lat="43.51166" lon="13.0519821"><ele>411.0</ele><time>2026-04-19T08:16:18.271Z</time></trkpt><trkpt lat="43.5115292" lon="13.0519813"><ele>411.0</ele><time>2026-04-19T08:16:19.271Z</time></trkpt><trkpt lat="43.5113906" lon="13.0519695"><ele>411.0</ele><time>2026-04-19T08:16:20.272Z</time></trkpt><trkpt lat="43.5112524" lon="13.051957"><ele>411.0</ele><time>2026-04-19T08:16:21.271Z</time></trkpt><trkpt lat="43.5111115" lon="13.0519465"><ele>411.0</ele><time>2026-04-19T08:16:22.272Z</time></trkpt><trkpt lat="43.5109705" lon="13.0519267"><ele>410.5</ele><time>2026-04-19T08:16:23.272Z</time></trkpt><trkpt lat="43.5108326" lon="13.0518928"><ele>410.0</ele><time>2026-04-19T08:16:24.272Z</time></trkpt><trkpt lat="43.5106955" lon="13.0518391"><ele>409.5</ele><time>2026-04-19T08:16:25.272Z</time></trkpt><trkpt lat="43.5105646" lon="13.0517587"><ele>409.0</ele><time>2026-04-19T08:16:26.271Z</time></trkpt><trkpt lat="43.5104384" lon="13.0516672"><ele>406.5</ele><time>2026-04-19T08:16:27.272Z</time></trkpt><trkpt lat="43.5103169" lon="13.0515697"><ele>404.0</ele><time>2026-04-19T08:16:28.271Z</time></trkpt><trkpt lat="43.5101974" lon="13.05147"><ele>401.5</ele><time>2026-04-19T08:16:29.272Z</time></trkpt><trkpt lat="43.5100796" lon="13.0513815"><ele>399.0</ele><time>2026-04-19T08:16:30.272Z</time></trkpt><trkpt lat="43.5099578" lon="13.0513219"><ele>399.0</ele><time>2026-04-19T08:16:31.272Z</time></trkpt><trkpt lat="43.5098302" lon="13.0512868"><ele>399.0</ele><time>2026-04-19T08:16:32.27Z</time></trkpt><trkpt lat="43.5096876" lon="13.0512873"><ele>399.0</ele><time>2026-04-19T08:16:33.272Z</time></trkpt><trkpt lat="43.5095415" lon="13.0512943"><ele>399.0</ele><time>2026-04-19T08:16:34.272Z</time></trkpt><trkpt lat="43.5093941" lon="13.0512987"><ele>400.0</ele><time>2026-04-19T08:16:35.272Z</time></trkpt><trkpt lat="43.5092423" lon="13.0513042"><ele>401.0</ele><time>2026-04-19T08:16:36.272Z</time></trkpt><trkpt lat="43.5090886" lon="13.0513017"><ele>402.0</ele><time>2026-04-19T08:16:37.271Z</time></trkpt><trkpt lat="43.5089329" lon="13.0512764"><ele>402.0</ele><time>2026-04-19T08:16:38.272Z</time></trkpt><trkpt lat="43.5087853" lon="13.0512186"><ele>402.0</ele><time>2026-04-19T08:16:39.272Z</time></trkpt><trkpt lat="43.5086486" lon="13.0511393"><ele>402.0</ele><time>2026-04-19T08:16:40.272Z</time></trkpt><trkpt lat="43.508519" lon="13.0510712"><ele>402.0</ele><time>2026-04-19T08:16:41.272Z</time></trkpt><trkpt lat="43.5083937" lon="13.0510158"><ele>402.0</ele><time>2026-04-19T08:16:42.272Z</time></trkpt><trkpt lat="43.508266" lon="13.0509784"><ele>402.0</ele><time>2026-04-19T08:16:43.272Z</time></trkpt><trkpt lat="43.5081321" lon="13.0509379"><ele>402.0</ele><time>2026-04-19T08:16:44.272Z</time></trkpt><trkpt lat="43.5079874" lon="13.0509297"><ele>402.0</ele><time>2026-04-19T08:16:45.272Z</time></trkpt><trkpt lat="43.5078357" lon="13.0509037"><ele>402.0</ele><time>2026-04-19T08:16:46.271Z</time></trkpt><trkpt lat="43.5076757" lon="13.050893"><ele>402.0</ele><time>2026-04-19T08:16:47.271Z</time></trkpt><trkpt lat="43.5075139" lon="13.0508942"><ele>402.0</ele><time>2026-04-19T08:16:48.271Z</time></trkpt><trkpt lat="43.5073507" lon="13.0509053"><ele>402.0</ele><time>2026-04-19T08:16:49.272Z</time></trkpt><trkpt lat="43.5071851" lon="13.0509157"><ele>402.0</ele><time>2026-04-19T08:16:50.271Z</time></trkpt><trkpt lat="43.5070164" lon="13.050917"><ele>402.0</ele><time>2026-04-19T08:16:51.272Z</time></trkpt><trkpt lat="43.5068491" lon="13.0509154"><ele>401.0</ele><time>2026-04-19T08:16:52.271Z</time></trkpt><trkpt lat="43.5066796" lon="13.0509033"><ele>400.0</ele><time>2026-04-19T08:16:53.272Z</time></trkpt><trkpt lat="43.5065152" lon="13.0508914"><ele>399.0</ele><time>2026-04-19T08:16:54.272Z</time></trkpt><trkpt lat="43.5063523" lon="13.0508776"><ele>397.33333333333337</ele><time>2026-04-19T08:16:55.271Z</time></trkpt><trkpt lat="43.5061868" lon="13.0508746"><ele>395.6666666666667</ele><time>2026-04-19T08:16:56.271Z</time></trkpt><trkpt lat="43.5060262" lon="13.0508811"><ele>394.0</ele><time>2026-04-19T08:16:57.272Z</time></trkpt><trkpt lat="43.5058685" lon="13.050899"><ele>394.0</ele><time>2026-04-19T08:16:58.271Z</time></trkpt><trkpt lat="43.5057077" lon="13.0509261"><ele>394.0</ele><time>2026-04-19T08:16:59.272Z</time></trkpt><trkpt lat="43.5055471" lon="13.0509533"><ele>394.0</ele><time>2026-04-19T08:17:00.272Z</time></trkpt><trkpt lat="43.5053853" lon="13.0509724"><ele>394.6666666666667</ele><time>2026-04-19T08:17:01.271Z</time></trkpt><trkpt lat="43.5052224" lon="13.0509807"><ele>395.33333333333337</ele><time>2026-04-19T08:17:02.271Z</time></trkpt><trkpt lat="43.5050685" lon="13.0509674"><ele>396.0</ele><time>2026-04-19T08:17:03.271Z</time></trkpt><trkpt lat="43.5049355" lon="13.0509122"><ele>396.0</ele><time>2026-04-19T08:17:04.272Z</time></trkpt><trkpt lat="43.5048182" lon="13.0508168"><ele>396.0</ele><time>2026-04-19T08:17:05.272Z</time></trkpt><trkpt lat="43.5047222" lon="13.0506804"><ele>396.0</ele><time>2026-04-19T08:17:06.271Z</time></trkpt><trkpt lat="43.5046511" lon="13.0505098"><ele>396.0</ele><time>2026-04-19T08:17:07.272Z</time></trkpt><trkpt lat="43.5045985" lon="13.0503362"><ele>398.20000000000005</ele><time>2026-04-19T08:17:08.272Z</time></trkpt><trkpt lat="43.5045563" lon="13.0501723"><ele>400.40000000000003</ele><time>2026-04-19T08:17:09.27Z</time></trkpt><trkpt lat="43.5045217" lon="13.0500138"><ele>402.6</ele><time>2026-04-19T08:17:10.272Z</time></trkpt><trkpt lat="43.5044836" lon="13.0498735"><ele>404.8</ele><time>2026-04-19T08:17:11.271Z</time></trkpt><trkpt lat="43.5044308" lon="13.049771"><ele>407.0</ele><time>2026-04-19T08:17:12.272Z</time></trkpt><trkpt lat="43.504369" lon="13.0497191"><ele>406.99999999999994</ele><time>2026-04-19T08:17:13.271Z</time></trkpt><trkpt lat="43.504306" lon="13.0497251"><ele>407.0</ele><time>2026-04-19T08:17:14.272Z</time></trkpt><trkpt lat="43.5042579" lon="13.04979"><ele>407.0</ele><time>2026-04-19T08:17:15.272Z</time></trkpt><trkpt lat="43.5042125" lon="13.0498505"><ele>407.0</ele><time>2026-04-19T08:17:16.272Z</time></trkpt><trkpt lat="43.5042645" lon="13.049967"><ele>406.99999999999994</ele><time>2026-04-19T08:17:17.272Z</time></trkpt><trkpt lat="43.5042959" lon="13.050062"><ele>407.0</ele><time>2026-04-19T08:17:18.271Z</time></trkpt><trkpt lat="43.5043337" lon="13.0501772"><ele>408.40000000000003</ele><time>2026-04-19T08:17:19.272Z</time></trkpt><trkpt lat="43.5043728" lon="13.0502995"><ele>409.8</ele><time>2026-04-19T08:17:20.271Z</time></trkpt><trkpt lat="43.5043925" lon="13.0504352"><ele>411.2</ele><time>2026-04-19T08:17:21.271Z</time></trkpt><trkpt lat="43.5043912" lon="13.050575"><ele>412.6</ele><time>2026-04-19T08:17:22.271Z</time></trkpt><trkpt lat="43.5043592" lon="13.0507048"><ele>414.0</ele><time>2026-04-19T08:17:23.271Z</time></trkpt><trkpt lat="43.5043004" lon="13.0508258"><ele>414.0</ele><time>2026-04-19T08:17:24.271Z</time></trkpt><trkpt lat="43.5042246" lon="13.0509478"><ele>414.0</ele><time>2026-04-19T08:17:25.272Z</time></trkpt><trkpt lat="43.5041342" lon="13.0510796"><ele>414.0</ele><time>2026-04-19T08:17:26.271Z</time></trkpt><trkpt lat="43.5040403" lon="13.0512108"><ele>414.0</ele><time>2026-04-19T08:17:27.272Z</time></trkpt><trkpt lat="43.5039385" lon="13.0513376"><ele>414.0</ele><time>2026-04-19T08:17:28.272Z</time></trkpt><trkpt lat="43.5038366" lon="13.051461"><ele>414.0</ele><time>2026-04-19T08:17:29.272Z</time></trkpt><trkpt lat="43.5037408" lon="13.0515913"><ele>414.0</ele><time>2026-04-19T08:17:30.27Z</time></trkpt><trkpt lat="43.5036538" lon="13.051734"><ele>414.0</ele><time>2026-04-19T08:17:31.272Z</time></trkpt><trkpt lat="43.5035883" lon="13.0518945"><ele>417.5</ele><time>2026-04-19T08:17:32.272Z</time></trkpt><trkpt lat="43.5035375" lon="13.0520501"><ele>421.0</ele><time>2026-04-19T08:17:33.272Z</time></trkpt><trkpt lat="43.5034759" lon="13.0521796"><ele>424.5</ele><time>2026-04-19T08:17:34.272Z</time></trkpt><trkpt lat="43.5033886" lon="13.0522803"><ele>428.0</ele><time>2026-04-19T08:17:35.271Z</time></trkpt><trkpt lat="43.5032824" lon="13.0523434"><ele>428.0</ele><time>2026-04-19T08:17:36.272Z</time></trkpt><trkpt lat="43.5031635" lon="13.052375"><ele>428.0</ele><time>2026-04-19T08:17:37.272Z</time></trkpt><trkpt lat="43.5030335" lon="13.0523728"><ele>428.0</ele><time>2026-04-19T08:17:38.272Z</time></trkpt><trkpt lat="43.5029024" lon="13.0523592"><ele>428.0</ele><time>2026-04-19T08:17:39.27Z</time></trkpt><trkpt lat="43.5027706" lon="13.0523496"><ele>428.5</ele><time>2026-04-19T08:17:40.272Z</time></trkpt><trkpt lat="43.5026426" lon="13.0523843"><ele>429.0</ele><time>2026-04-19T08:17:41.27Z</time></trkpt><trkpt lat="43.5025312" lon="13.052463"><ele>429.5</ele><time>2026-04-19T08:17:42.271Z</time></trkpt><trkpt lat="43.5024394" lon="13.0525842"><ele>430.0</ele><time>2026-04-19T08:17:43.272Z</time></trkpt><trkpt lat="43.5023682" lon="13.0527418"><ele>430.0</ele><time>2026-04-19T08:17:44.272Z</time></trkpt><trkpt lat="43.5023212" lon="13.0529068"><ele>430.0</ele><time>2026-04-19T08:17:45.272Z</time></trkpt><trkpt lat="43.5023045" lon="13.0530494"><ele>430.0</ele><time>2026-04-19T08:17:46.272Z</time></trkpt><trkpt lat="43.5023033" lon="13.0531791"><ele>430.0</ele><time>2026-04-19T08:17:47.272Z</time></trkpt><trkpt lat="43.5023071" lon="13.0532903"><ele>430.0</ele><time>2026-04-19T08:17:48.272Z</time></trkpt><trkpt lat="43.502265" lon="13.0534128"><ele>430.0</ele><time>2026-04-19T08:17:50.272Z</time></trkpt><trkpt lat="43.5021781" lon="13.0533928"><ele>430.0</ele><time>2026-04-19T08:17:52.272Z</time></trkpt><trkpt lat="43.5021013" lon="13.0532191"><ele>430.0</ele><time>2026-04-19T08:17:54.271Z</time></trkpt><trkpt lat="43.5020579" lon="13.0531076"><ele>430.0</ele><time>2026-04-19T08:17:55.272Z</time></trkpt><trkpt lat="43.5020114" lon="13.0529938"><ele>430.0</ele><time>2026-04-19T08:17:56.271Z</time></trkpt><trkpt lat="43.5019498" lon="13.0528792"><ele>431.5</ele><time>2026-04-19T08:17:57.271Z</time></trkpt><trkpt lat="43.5018658" lon="13.0527727"><ele>433.0</ele><time>2026-04-19T08:17:58.272Z</time></trkpt><trkpt lat="43.5017601" lon="13.0526689"><ele>434.5</ele><time>2026-04-19T08:17:59.272Z</time></trkpt><trkpt lat="43.5016468" lon="13.0525724"><ele>436.0</ele><time>2026-04-19T08:18:00.27Z</time></trkpt><trkpt lat="43.501534" lon="13.0524809"><ele>437.5</ele><time>2026-04-19T08:18:01.271Z</time></trkpt><trkpt lat="43.5014239" lon="13.0523851"><ele>439.0</ele><time>2026-04-19T08:18:02.272Z</time></trkpt><trkpt lat="43.5013182" lon="13.0522792"><ele>440.5</ele><time>2026-04-19T08:18:03.272Z</time></trkpt><trkpt lat="43.5012235" lon="13.0521581"><ele>442.0</ele><time>2026-04-19T08:18:04.272Z</time></trkpt><trkpt lat="43.5011471" lon="13.0520185"><ele>442.0</ele><time>2026-04-19T08:18:05.272Z</time></trkpt><trkpt lat="43.5010904" lon="13.0518613"><ele>442.0</ele><time>2026-04-19T08:18:06.272Z</time></trkpt><trkpt lat="43.5010473" lon="13.0516912"><ele>442.0</ele><time>2026-04-19T08:18:07.272Z</time></trkpt><trkpt lat="43.5010122" lon="13.0515189"><ele>442.0</ele><time>2026-04-19T08:18:08.272Z</time></trkpt><trkpt lat="43.5009855" lon="13.0513452"><ele>442.0</ele><time>2026-04-19T08:18:09.272Z</time></trkpt><trkpt lat="43.5009567" lon="13.0511813"><ele>442.0</ele><time>2026-04-19T08:18:10.272Z</time></trkpt><trkpt lat="43.5009196" lon="13.0510193"><ele>442.0</ele><time>2026-04-19T08:18:11.271Z</time></trkpt><trkpt lat="43.50088" lon="13.0508548"><ele>442.0</ele><time>2026-04-19T08:18:12.271Z</time></trkpt><trkpt lat="43.5008355" lon="13.0506927"><ele>442.0</ele><time>2026-04-19T08:18:13.272Z</time></trkpt><trkpt lat="43.500793" lon="13.0505343"><ele>442.0</ele><time>2026-04-19T08:18:14.272Z</time></trkpt><trkpt lat="43.5007454" lon="13.0503648"><ele>442.0</ele><time>2026-04-19T08:18:15.271Z</time></trkpt><trkpt lat="43.5006945" lon="13.0501642"><ele>442.0</ele><time>2026-04-19T08:18:16.272Z</time></trkpt><trkpt lat="43.5006446" lon="13.0499533"><ele>442.25</ele><time>2026-04-19T08:18:17.272Z</time></trkpt><trkpt lat="43.5006047" lon="13.0497542"><ele>442.5</ele><time>2026-04-19T08:18:18.271Z</time></trkpt><trkpt lat="43.5005709" lon="13.0495697"><ele>442.75</ele><time>2026-04-19T08:18:19.272Z</time></trkpt><trkpt lat="43.5005347" lon="13.0493869"><ele>443.0</ele><time>2026-04-19T08:18:20.272Z</time></trkpt><trkpt lat="43.5004949" lon="13.0492137"><ele>443.25</ele><time>2026-04-19T08:18:21.272Z</time></trkpt><trkpt lat="43.5004559" lon="13.049045"><ele>443.5</ele><time>2026-04-19T08:18:22.272Z</time></trkpt><trkpt lat="43.500417" lon="13.0488833"><ele>443.75</ele><time>2026-04-19T08:18:23.272Z</time></trkpt><trkpt lat="43.5003752" lon="13.0487268"><ele>444.0</ele><time>2026-04-19T08:18:24.27Z</time></trkpt><trkpt lat="43.500334" lon="13.0485762"><ele>440.5</ele><time>2026-04-19T08:18:25.271Z</time></trkpt><trkpt lat="43.5002889" lon="13.0484292"><ele>437.0</ele><time>2026-04-19T08:18:26.272Z</time></trkpt><trkpt lat="43.5002352" lon="13.0482735"><ele>433.5</ele><time>2026-04-19T08:18:27.272Z</time></trkpt><trkpt lat="43.5001757" lon="13.0481125"><ele>430.0</ele><time>2026-04-19T08:18:28.271Z</time></trkpt><trkpt lat="43.5001098" lon="13.0479472"><ele>430.0</ele><time>2026-04-19T08:18:29.272Z</time></trkpt><trkpt lat="43.5000479" lon="13.0477806"><ele>430.0</ele><time>2026-04-19T08:18:30.271Z</time></trkpt><trkpt lat="43.4999794" lon="13.0476265"><ele>430.0</ele><time>2026-04-19T08:18:31.272Z</time></trkpt><trkpt lat="43.4999068" lon="13.0474816"><ele>430.0</ele><time>2026-04-19T08:18:32.272Z</time></trkpt><trkpt lat="43.4998365" lon="13.0473394"><ele>431.5</ele><time>2026-04-19T08:18:33.271Z</time></trkpt><trkpt lat="43.4997555" lon="13.0471856"><ele>433.0</ele><time>2026-04-19T08:18:34.272Z</time></trkpt><trkpt lat="43.4996695" lon="13.0470281"><ele>434.5</ele><time>2026-04-19T08:18:35.272Z</time></trkpt><trkpt lat="43.4995745" lon="13.0468657"><ele>436.0</ele><time>2026-04-19T08:18:36.271Z</time></trkpt><trkpt lat="43.4994734" lon="13.0467031"><ele>433.0</ele><time>2026-04-19T08:18:37.272Z</time></trkpt><trkpt lat="43.4993707" lon="13.0465365"><ele>430.0</ele><time>2026-04-19T08:18:38.272Z</time></trkpt><trkpt lat="43.4992651" lon="13.0463686"><ele>427.0</ele><time>2026-04-19T08:18:39.272Z</time></trkpt><trkpt lat="43.4991573" lon="13.0462043"><ele>427.0</ele><time>2026-04-19T08:18:40.271Z</time></trkpt><trkpt lat="43.4990411" lon="13.0460427"><ele>427.0</ele><time>2026-04-19T08:18:41.27Z</time></trkpt><trkpt lat="43.4989201" lon="13.0458857"><ele>427.0</ele><time>2026-04-19T08:18:42.27Z</time></trkpt><trkpt lat="43.4988039" lon="13.0457318"><ele>424.33333333333337</ele><time>2026-04-19T08:18:43.271Z</time></trkpt><trkpt lat="43.4986935" lon="13.0455775"><ele>421.66666666666663</ele><time>2026-04-19T08:18:44.271Z</time></trkpt><trkpt lat="43.4985902" lon="13.0454235"><ele>419.0</ele><time>2026-04-19T08:18:45.271Z</time></trkpt><trkpt lat="43.4984897" lon="13.0452722"><ele>419.0</ele><time>2026-04-19T08:18:46.27Z</time></trkpt><trkpt lat="43.4983906" lon="13.0451221"><ele>419.0</ele><time>2026-04-19T08:18:47.271Z</time></trkpt><trkpt lat="43.4982909" lon="13.04497"><ele>419.0</ele><time>2026-04-19T08:18:48.271Z</time></trkpt><trkpt lat="43.4981942" lon="13.0448217"><ele>419.0</ele><time>2026-04-19T08:18:49.27Z</time></trkpt><trkpt lat="43.4980922" lon="13.0446782"><ele>419.66666666666663</ele><time>2026-04-19T08:18:50.271Z</time></trkpt><trkpt lat="43.4979839" lon="13.0445434"><ele>420.33333333333337</ele><time>2026-04-19T08:18:51.27Z</time></trkpt><trkpt lat="43.497861" lon="13.0444153"><ele>421.0</ele><time>2026-04-19T08:18:52.271Z</time></trkpt><trkpt lat="43.4977253" lon="13.0443043"><ele>417.33333333333337</ele><time>2026-04-19T08:18:53.271Z</time></trkpt><trkpt lat="43.4975852" lon="13.0442243"><ele>413.66666666666663</ele><time>2026-04-19T08:18:54.271Z</time></trkpt><trkpt lat="43.4974439" lon="13.0441617"><ele>410.0</ele><time>2026-04-19T08:18:55.271Z</time></trkpt><trkpt lat="43.497301" lon="13.0440987"><ele>408.75</ele><time>2026-04-19T08:18:56.271Z</time></trkpt><trkpt lat="43.4971643" lon="13.0440362"><ele>407.5</ele><time>2026-04-19T08:18:57.27Z</time></trkpt><trkpt lat="43.4970227" lon="13.0439695"><ele>406.25</ele><time>2026-04-19T08:18:58.271Z</time></trkpt><trkpt lat="43.49688" lon="13.0438901"><ele>405.0</ele><time>2026-04-19T08:18:59.27Z</time></trkpt><trkpt lat="43.4967423" lon="13.0437844"><ele>405.0</ele><time>2026-04-19T08:19:00.271Z</time></trkpt><trkpt lat="43.4966149" lon="13.0436536"><ele>405.0</ele><time>2026-04-19T08:19:01.27Z</time></trkpt><trkpt lat="43.4964975" lon="13.0435165"><ele>405.0</ele><time>2026-04-19T08:19:02.271Z</time></trkpt><trkpt lat="43.4963751" lon="13.0433894"><ele>406.25</ele><time>2026-04-19T08:19:03.27Z</time></trkpt><trkpt lat="43.4962409" lon="13.0432737"><ele>407.5</ele><time>2026-04-19T08:19:04.271Z</time></trkpt><trkpt lat="43.4961103" lon="13.043192"><ele>408.75</ele><time>2026-04-19T08:19:05.27Z</time></trkpt><trkpt lat="43.4959827" lon="13.0431061"><ele>410.0</ele><time>2026-04-19T08:19:06.27Z</time></trkpt><trkpt lat="43.4958551" lon="13.0429946"><ele>410.0</ele><time>2026-04-19T08:19:07.271Z</time></trkpt><trkpt lat="43.4957395" lon="13.0428562"><ele>410.0</ele><time>2026-04-19T08:19:08.271Z</time></trkpt><trkpt lat="43.4956359" lon="13.0427016"><ele>410.0</ele><time>2026-04-19T08:19:09.271Z</time></trkpt><trkpt lat="43.4955443" lon="13.0425288"><ele>411.3333333333333</ele><time>2026-04-19T08:19:10.27Z</time></trkpt><trkpt lat="43.495468" lon="13.0423515"><ele>412.66666666666663</ele><time>2026-04-19T08:19:11.271Z</time></trkpt><trkpt lat="43.4953972" lon="13.0421658"><ele>414.0</ele><time>2026-04-19T08:19:12.271Z</time></trkpt><trkpt lat="43.4953365" lon="13.0419662"><ele>412.66666666666663</ele><time>2026-04-19T08:19:13.271Z</time></trkpt><trkpt lat="43.4952864" lon="13.0417561"><ele>411.3333333333333</ele><time>2026-04-19T08:19:14.271Z</time></trkpt><trkpt lat="43.4952425" lon="13.0415414"><ele>410.0</ele><time>2026-04-19T08:19:15.271Z</time></trkpt><trkpt lat="43.4952001" lon="13.0413217"><ele>410.0</ele><time>2026-04-19T08:19:16.271Z</time></trkpt><trkpt lat="43.4951521" lon="13.0411022"><ele>410.0</ele><time>2026-04-19T08:19:17.271Z</time></trkpt><trkpt lat="43.495099" lon="13.0408794"><ele>410.0</ele><time>2026-04-19T08:19:18.271Z</time></trkpt><trkpt lat="43.495038" lon="13.0406526"><ele>412.0</ele><time>2026-04-19T08:19:19.271Z</time></trkpt><trkpt lat="43.4949728" lon="13.0404316"><ele>414.0</ele><time>2026-04-19T08:19:20.271Z</time></trkpt><trkpt lat="43.4949078" lon="13.040212"><ele>416.0</ele><time>2026-04-19T08:19:21.269Z</time></trkpt><trkpt lat="43.4948473" lon="13.0399825"><ele>415.3333333333333</ele><time>2026-04-19T08:19:22.27Z</time></trkpt><trkpt lat="43.4947965" lon="13.0397481"><ele>414.66666666666663</ele><time>2026-04-19T08:19:23.271Z</time></trkpt><trkpt lat="43.4947435" lon="13.0395201"><ele>414.0</ele><time>2026-04-19T08:19:24.27Z</time></trkpt><trkpt lat="43.4946788" lon="13.0393084"><ele>411.66666666666663</ele><time>2026-04-19T08:19:25.271Z</time></trkpt><trkpt lat="43.4946065" lon="13.0391067"><ele>409.3333333333333</ele><time>2026-04-19T08:19:26.271Z</time></trkpt><trkpt lat="43.4945182" lon="13.0389105"><ele>407.0</ele><time>2026-04-19T08:19:27.271Z</time></trkpt><trkpt lat="43.4944205" lon="13.0387256"><ele>406.3333333333333</ele><time>2026-04-19T08:19:28.271Z</time></trkpt><trkpt lat="43.4943252" lon="13.0385499"><ele>405.66666666666663</ele><time>2026-04-19T08:19:29.271Z</time></trkpt><trkpt lat="43.494219" lon="13.0383787"><ele>405.0</ele><time>2026-04-19T08:19:30.27Z</time></trkpt><trkpt lat="43.4940974" lon="13.0382294"><ele>404.33333333333337</ele><time>2026-04-19T08:19:31.271Z</time></trkpt><trkpt lat="43.4939554" lon="13.0381208"><ele>403.6666666666667</ele><time>2026-04-19T08:19:32.271Z</time></trkpt><trkpt lat="43.4937992" lon="13.0380402"><ele>403.0</ele><time>2026-04-19T08:19:33.271Z</time></trkpt><trkpt lat="43.4936352" lon="13.0379651"><ele>403.0</ele><time>2026-04-19T08:19:34.269Z</time></trkpt><trkpt lat="43.4934708" lon="13.0378881"><ele>403.0</ele><time>2026-04-19T08:19:35.27Z</time></trkpt><trkpt lat="43.4933085" lon="13.0377985"><ele>403.0</ele><time>2026-04-19T08:19:36.271Z</time></trkpt><trkpt lat="43.4931523" lon="13.037699"><ele>403.0</ele><time>2026-04-19T08:19:37.271Z</time></trkpt><trkpt lat="43.4930021" lon="13.0375917"><ele>403.0</ele><time>2026-04-19T08:19:38.271Z</time></trkpt><trkpt lat="43.4928608" lon="13.0374882"><ele>403.0</ele><time>2026-04-19T08:19:39.27Z</time></trkpt><trkpt lat="43.4927202" lon="13.0373896"><ele>402.0</ele><time>2026-04-19T08:19:40.27Z</time></trkpt><trkpt lat="43.4925804" lon="13.0372891"><ele>401.0</ele><time>2026-04-19T08:19:41.27Z</time></trkpt><trkpt lat="43.4924457" lon="13.0371895"><ele>400.0</ele><time>2026-04-19T08:19:42.271Z</time></trkpt><trkpt lat="43.4923112" lon="13.0370876"><ele>400.0</ele><time>2026-04-19T08:19:43.271Z</time></trkpt><trkpt lat="43.492183" lon="13.0369901"><ele>400.0</ele><time>2026-04-19T08:19:44.271Z</time></trkpt><trkpt lat="43.4920565" lon="13.0369055"><ele>400.0</ele><time>2026-04-19T08:19:45.27Z</time></trkpt><trkpt lat="43.4919312" lon="13.0368457"><ele>400.0</ele><time>2026-04-19T08:19:46.271Z</time></trkpt><trkpt lat="43.4918036" lon="13.0367986"><ele>400.25</ele><time>2026-04-19T08:19:47.271Z</time></trkpt><trkpt lat="43.4916699" lon="13.0367601"><ele>400.5</ele><time>2026-04-19T08:19:48.27Z</time></trkpt><trkpt lat="43.4915333" lon="13.0367376"><ele>400.75</ele><time>2026-04-19T08:19:49.27Z</time></trkpt><trkpt lat="43.4913931" lon="13.0367293"><ele>401.0</ele><time>2026-04-19T08:19:50.271Z</time></trkpt><trkpt lat="43.4912564" lon="13.0367361"><ele>400.5</ele><time>2026-04-19T08:19:51.27Z</time></trkpt><trkpt lat="43.491127" lon="13.0367479"><ele>400.0</ele><time>2026-04-19T08:19:52.271Z</time></trkpt><trkpt lat="43.4910005" lon="13.0367585"><ele>399.5</ele><time>2026-04-19T08:19:53.27Z</time></trkpt><trkpt lat="43.4908711" lon="13.0367728"><ele>399.0</ele><time>2026-04-19T08:19:54.271Z</time></trkpt><trkpt lat="43.490746" lon="13.0367907"><ele>399.0</ele><time>2026-04-19T08:19:55.271Z</time></trkpt><trkpt lat="43.4906248" lon="13.0368065"><ele>399.0</ele><time>2026-04-19T08:19:56.271Z</time></trkpt><trkpt lat="43.490508" lon="13.0368141"><ele>399.0</ele><time>2026-04-19T08:19:57.271Z</time></trkpt><trkpt lat="43.4903831" lon="13.0368119"><ele>399.0</ele><time>2026-04-19T08:19:58.271Z</time></trkpt><trkpt lat="43.4902581" lon="13.0367887"><ele>399.25</ele><time>2026-04-19T08:19:59.27Z</time></trkpt><trkpt lat="43.490132" lon="13.0367501"><ele>399.5</ele><time>2026-04-19T08:20:00.271Z</time></trkpt><trkpt lat="43.4900067" lon="13.0367026"><ele>399.75</ele><time>2026-04-19T08:20:01.271Z</time></trkpt><trkpt lat="43.489881" lon="13.0366356"><ele>400.0</ele><time>2026-04-19T08:20:02.27Z</time></trkpt><trkpt lat="43.4897597" lon="13.0365489"><ele>398.75</ele><time>2026-04-19T08:20:03.27Z</time></trkpt><trkpt lat="43.4896453" lon="13.0364615"><ele>397.5</ele><time>2026-04-19T08:20:04.269Z</time></trkpt><trkpt lat="43.48954" lon="13.0363753"><ele>396.25</ele><time>2026-04-19T08:20:05.271Z</time></trkpt><trkpt lat="43.4894416" lon="13.0362558"><ele>395.0</ele><time>2026-04-19T08:20:06.271Z</time></trkpt><trkpt lat="43.4893515" lon="13.0361311"><ele>395.0</ele><time>2026-04-19T08:20:07.27Z</time></trkpt><trkpt lat="43.4892672" lon="13.0359969"><ele>395.0</ele><time>2026-04-19T08:20:08.271Z</time></trkpt><trkpt lat="43.4891862" lon="13.0358566"><ele>395.0</ele><time>2026-04-19T08:20:09.271Z</time></trkpt><trkpt lat="43.4890996" lon="13.0357179"><ele>395.0</ele><time>2026-04-19T08:20:10.269Z</time></trkpt><trkpt lat="43.4890093" lon="13.035576"><ele>393.5</ele><time>2026-04-19T08:20:11.271Z</time></trkpt><trkpt lat="43.4889232" lon="13.0354319"><ele>392.0</ele><time>2026-04-19T08:20:12.271Z</time></trkpt><trkpt lat="43.4888427" lon="13.0352934"><ele>390.5</ele><time>2026-04-19T08:20:13.27Z</time></trkpt><trkpt lat="43.4887578" lon="13.0351656"><ele>389.0</ele><time>2026-04-19T08:20:14.271Z</time></trkpt><trkpt lat="43.4886629" lon="13.0350659"><ele>389.0</ele><time>2026-04-19T08:20:15.271Z</time></trkpt><trkpt lat="43.4885528" lon="13.0350062"><ele>389.0</ele><time>2026-04-19T08:20:16.27Z</time></trkpt><trkpt lat="43.4884385" lon="13.0349818"><ele>389.0</ele><time>2026-04-19T08:20:17.27Z</time></trkpt><trkpt lat="43.4883183" lon="13.0349935"><ele>389.0</ele><time>2026-04-19T08:20:18.271Z</time></trkpt><trkpt lat="43.4881966" lon="13.0350298"><ele>389.0</ele><time>2026-04-19T08:20:19.27Z</time></trkpt><trkpt lat="43.4880753" lon="13.0350494"><ele>389.0</ele><time>2026-04-19T08:20:20.271Z</time></trkpt><trkpt lat="43.4879517" lon="13.0350261"><ele>389.0</ele><time>2026-04-19T08:20:21.27Z</time></trkpt><trkpt lat="43.4878245" lon="13.034986"><ele>389.0</ele><time>2026-04-19T08:20:22.269Z</time></trkpt><trkpt lat="43.4876988" lon="13.0349531"><ele>387.75</ele><time>2026-04-19T08:20:23.27Z</time></trkpt><trkpt lat="43.4875657" lon="13.0349381"><ele>386.5</ele><time>2026-04-19T08:20:24.271Z</time></trkpt><trkpt lat="43.4874362" lon="13.0349514"><ele>385.25</ele><time>2026-04-19T08:20:25.271Z</time></trkpt><trkpt lat="43.4873136" lon="13.0350013"><ele>384.0</ele><time>2026-04-19T08:20:26.271Z</time></trkpt><trkpt lat="43.4871953" lon="13.0350816"><ele>382.0</ele><time>2026-04-19T08:20:27.27Z</time></trkpt><trkpt lat="43.4870825" lon="13.0351699"><ele>380.0</ele><time>2026-04-19T08:20:28.271Z</time></trkpt><trkpt lat="43.486967" lon="13.0352477"><ele>378.0</ele><time>2026-04-19T08:20:29.271Z</time></trkpt><trkpt lat="43.4868484" lon="13.0352995"><ele>376.0</ele><time>2026-04-19T08:20:30.27Z</time></trkpt><trkpt lat="43.4867267" lon="13.0353106"><ele>376.0</ele><time>2026-04-19T08:20:31.271Z</time></trkpt><trkpt lat="43.4866171" lon="13.0352724"><ele>376.0</ele><time>2026-04-19T08:20:32.27Z</time></trkpt><trkpt lat="43.4865122" lon="13.0351887"><ele>376.0</ele><time>2026-04-19T08:20:33.27Z</time></trkpt><trkpt lat="43.4864161" lon="13.03508"><ele>376.0</ele><time>2026-04-19T08:20:34.271Z</time></trkpt><trkpt lat="43.4863223" lon="13.0349698"><ele>374.75</ele><time>2026-04-19T08:20:35.271Z</time></trkpt><trkpt lat="43.4862286" lon="13.0348553"><ele>373.5</ele><time>2026-04-19T08:20:36.27Z</time></trkpt><trkpt lat="43.4861387" lon="13.0347379"><ele>372.25</ele><time>2026-04-19T08:20:37.271Z</time></trkpt><trkpt lat="43.4860476" lon="13.0346168"><ele>371.0</ele><time>2026-04-19T08:20:38.271Z</time></trkpt><trkpt lat="43.4859533" lon="13.0344977"><ele>371.0</ele><time>2026-04-19T08:20:39.271Z</time></trkpt><trkpt lat="43.4858578" lon="13.0343736"><ele>371.0</ele><time>2026-04-19T08:20:40.271Z</time></trkpt><trkpt lat="43.4857587" lon="13.0342488"><ele>371.0</ele><time>2026-04-19T08:20:41.271Z</time></trkpt><trkpt lat="43.4856561" lon="13.034118"><ele>371.0</ele><time>2026-04-19T08:20:42.271Z</time></trkpt><trkpt lat="43.4855525" lon="13.0339794"><ele>368.6666666666667</ele><time>2026-04-19T08:20:43.271Z</time></trkpt><trkpt lat="43.4854573" lon="13.0338157"><ele>366.3333333333333</ele><time>2026-04-19T08:20:44.27Z</time></trkpt><trkpt lat="43.485367" lon="13.0336357"><ele>364.0</ele><time>2026-04-19T08:20:45.27Z</time></trkpt><trkpt lat="43.4852765" lon="13.0334504"><ele>362.66666666666663</ele><time>2026-04-19T08:20:46.271Z</time></trkpt><trkpt lat="43.4851882" lon="13.033269"><ele>361.3333333333333</ele><time>2026-04-19T08:20:47.271Z</time></trkpt><trkpt lat="43.4851012" lon="13.0330866"><ele>360.0</ele><time>2026-04-19T08:20:48.271Z</time></trkpt><trkpt lat="43.4850162" lon="13.032905"><ele>360.0</ele><time>2026-04-19T08:20:49.269Z</time></trkpt><trkpt lat="43.4849349" lon="13.03272"><ele>360.0</ele><time>2026-04-19T08:20:50.271Z</time></trkpt><trkpt lat="43.484853" lon="13.0325244"><ele>360.0</ele><time>2026-04-19T08:20:51.271Z</time></trkpt><trkpt lat="43.4847738" lon="13.032328"><ele>359.3333333333333</ele><time>2026-04-19T08:20:52.271Z</time></trkpt><trkpt lat="43.4846976" lon="13.0321311"><ele>358.66666666666663</ele><time>2026-04-19T08:20:53.271Z</time></trkpt><trkpt lat="43.48462" lon="13.0319397"><ele>358.0</ele><time>2026-04-19T08:20:54.27Z</time></trkpt><trkpt lat="43.4845427" lon="13.0317661"><ele>356.75</ele><time>2026-04-19T08:20:55.271Z</time></trkpt><trkpt lat="43.4844512" lon="13.0316152"><ele>355.5</ele><time>2026-04-19T08:20:56.271Z</time></trkpt><trkpt lat="43.4843418" lon="13.0314858"><ele>354.25</ele><time>2026-04-19T08:20:57.271Z</time></trkpt><trkpt lat="43.4842081" lon="13.03138"><ele>353.0</ele><time>2026-04-19T08:20:58.27Z</time></trkpt><trkpt lat="43.4840592" lon="13.0312996"><ele>353.0</ele><time>2026-04-19T08:20:59.269Z</time></trkpt><trkpt lat="43.4839027" lon="13.0312226"><ele>353.0</ele><time>2026-04-19T08:21:00.271Z</time></trkpt><trkpt lat="43.4837456" lon="13.0311426"><ele>353.0</ele><time>2026-04-19T08:21:01.27Z</time></trkpt><trkpt lat="43.4835839" lon="13.0310616"><ele>353.6666666666667</ele><time>2026-04-19T08:21:02.271Z</time></trkpt><trkpt lat="43.483422" lon="13.0309825"><ele>354.3333333333333</ele><time>2026-04-19T08:21:03.271Z</time></trkpt><trkpt lat="43.4832634" lon="13.0309065"><ele>355.0</ele><time>2026-04-19T08:21:04.271Z</time></trkpt><trkpt lat="43.4831052" lon="13.0308315"><ele>355.0</ele><time>2026-04-19T08:21:05.27Z</time></trkpt><trkpt lat="43.4829463" lon="13.0307566"><ele>355.0</ele><time>2026-04-19T08:21:06.269Z</time></trkpt><trkpt lat="43.4827893" lon="13.0306851"><ele>355.0</ele><time>2026-04-19T08:21:07.27Z</time></trkpt><trkpt lat="43.4826311" lon="13.0306144"><ele>355.0</ele><time>2026-04-19T08:21:08.271Z</time></trkpt><trkpt lat="43.4824683" lon="13.0305429"><ele>355.0</ele><time>2026-04-19T08:21:09.271Z</time></trkpt><trkpt lat="43.4823014" lon="13.0304696"><ele>355.0</ele><time>2026-04-19T08:21:10.271Z</time></trkpt><trkpt lat="43.4821346" lon="13.0303967"><ele>357.3333333333333</ele><time>2026-04-19T08:21:11.271Z</time></trkpt><trkpt lat="43.4819683" lon="13.0303341"><ele>359.6666666666667</ele><time>2026-04-19T08:21:12.27Z</time></trkpt><trkpt lat="43.4818008" lon="13.0302913"><ele>362.0</ele><time>2026-04-19T08:21:13.27Z</time></trkpt><trkpt lat="43.4816377" lon="13.0302662"><ele>362.0</ele><time>2026-04-19T08:21:14.27Z</time></trkpt><trkpt lat="43.4814748" lon="13.0302494"><ele>362.0</ele><time>2026-04-19T08:21:15.271Z</time></trkpt><trkpt lat="43.4813144" lon="13.03023"><ele>362.0</ele><time>2026-04-19T08:21:16.271Z</time></trkpt><trkpt lat="43.4811554" lon="13.0302119"><ele>365.33333333333337</ele><time>2026-04-19T08:21:17.271Z</time></trkpt><trkpt lat="43.4809976" lon="13.030194"><ele>368.6666666666667</ele><time>2026-04-19T08:21:18.271Z</time></trkpt><trkpt lat="43.4808365" lon="13.0301658"><ele>372.0</ele><time>2026-04-19T08:21:19.271Z</time></trkpt><trkpt lat="43.4806752" lon="13.0301249"><ele>372.0</ele><time>2026-04-19T08:21:20.271Z</time></trkpt><trkpt lat="43.4805149" lon="13.0300611"><ele>372.0</ele><time>2026-04-19T08:21:21.271Z</time></trkpt><trkpt lat="43.4803531" lon="13.0299771"><ele>372.0</ele><time>2026-04-19T08:21:22.271Z</time></trkpt><trkpt lat="43.4801903" lon="13.0298664"><ele>373.3333333333333</ele><time>2026-04-19T08:21:23.271Z</time></trkpt><trkpt lat="43.4800267" lon="13.0297454"><ele>374.66666666666663</ele><time>2026-04-19T08:21:24.271Z</time></trkpt><trkpt lat="43.4798623" lon="13.0296238"><ele>376.0</ele><time>2026-04-19T08:21:25.271Z</time></trkpt><trkpt lat="43.4797003" lon="13.0295011"><ele>377.3333333333333</ele><time>2026-04-19T08:21:26.271Z</time></trkpt><trkpt lat="43.4795419" lon="13.0293783"><ele>378.6666666666667</ele><time>2026-04-19T08:21:27.271Z</time></trkpt><trkpt lat="43.4793865" lon="13.0292587"><ele>380.0</ele><time>2026-04-19T08:21:28.271Z</time></trkpt><trkpt lat="43.4792332" lon="13.0291405"><ele>380.6666666666667</ele><time>2026-04-19T08:21:29.27Z</time></trkpt><trkpt lat="43.4790838" lon="13.0290161"><ele>381.3333333333333</ele><time>2026-04-19T08:21:30.271Z</time></trkpt><trkpt lat="43.4789324" lon="13.0288883"><ele>382.0</ele><time>2026-04-19T08:21:31.271Z</time></trkpt><trkpt lat="43.4787905" lon="13.0287452"><ele>384.66666666666663</ele><time>2026-04-19T08:21:32.271Z</time></trkpt><trkpt lat="43.478656" lon="13.0285907"><ele>387.3333333333333</ele><time>2026-04-19T08:21:33.27Z</time></trkpt><trkpt lat="43.4785236" lon="13.0284412"><ele>390.0</ele><time>2026-04-19T08:21:34.27Z</time></trkpt><trkpt lat="43.4783935" lon="13.0283063"><ele>390.0</ele><time>2026-04-19T08:21:35.271Z</time></trkpt><trkpt lat="43.4782748" lon="13.0281914"><ele>390.0</ele><time>2026-04-19T08:21:36.269Z</time></trkpt><trkpt lat="43.478162" lon="13.0280889"><ele>390.0</ele><time>2026-04-19T08:21:37.27Z</time></trkpt><trkpt lat="43.4780559" lon="13.0279969"><ele>390.0</ele><time>2026-04-19T08:21:38.271Z</time></trkpt><trkpt lat="43.4779584" lon="13.0279122"><ele>392.6</ele><time>2026-04-19T08:21:39.271Z</time></trkpt><trkpt lat="43.4778677" lon="13.0278338"><ele>395.2</ele><time>2026-04-19T08:21:40.271Z</time></trkpt><trkpt lat="43.4777851" lon="13.0277591"><ele>397.79999999999995</ele><time>2026-04-19T08:21:41.271Z</time></trkpt><trkpt lat="43.4776987" lon="13.0276867"><ele>400.4</ele><time>2026-04-19T08:21:42.27Z</time></trkpt><trkpt lat="43.4776049" lon="13.027621"><ele>403.0</ele><time>2026-04-19T08:21:43.27Z</time></trkpt><trkpt lat="43.4775087" lon="13.0275833"><ele>403.00000000000006</ele><time>2026-04-19T08:21:44.271Z</time></trkpt><trkpt lat="43.4774151" lon="13.0275903"><ele>403.0</ele><time>2026-04-19T08:21:45.271Z</time></trkpt><trkpt lat="43.477326" lon="13.0276369"><ele>403.0</ele><time>2026-04-19T08:21:46.271Z</time></trkpt><trkpt lat="43.4772565" lon="13.0277009"><ele>403.0</ele><time>2026-04-19T08:21:47.27Z</time></trkpt><trkpt lat="43.477195" lon="13.0277647"><ele>403.00000000000006</ele><time>2026-04-19T08:21:48.271Z</time></trkpt><trkpt lat="43.4771358" lon="13.0278215"><ele>403.0</ele><time>2026-04-19T08:21:49.27Z</time></trkpt><trkpt lat="43.4770823" lon="13.0278707"><ele>403.59999999999997</ele><time>2026-04-19T08:21:50.271Z</time></trkpt><trkpt lat="43.4770279" lon="13.0279175"><ele>404.2</ele><time>2026-04-19T08:21:51.271Z</time></trkpt><trkpt lat="43.4769739" lon="13.0279674"><ele>404.8</ele><time>2026-04-19T08:21:52.27Z</time></trkpt><trkpt lat="43.4768682" lon="13.0280512"><ele>405.4</ele><time>2026-04-19T08:21:54.271Z</time></trkpt><trkpt lat="43.4767524" lon="13.0280906"><ele>406.0</ele><time>2026-04-19T08:21:56.269Z</time></trkpt><trkpt lat="43.4766575" lon="13.0280767"><ele>406.00000000000006</ele><time>2026-04-19T08:21:58.271Z</time></trkpt><trkpt lat="43.4765841" lon="13.0280433"><ele>406.0</ele><time>2026-04-19T08:22:00.271Z</time></trkpt><trkpt lat="43.4765027" lon="13.0279687"><ele>406.0</ele><time>2026-04-19T08:22:02.269Z</time></trkpt><trkpt lat="43.4764529" lon="13.0279028"><ele>406.0</ele><time>2026-04-19T08:22:03.269Z</time></trkpt><trkpt lat="43.4764055" lon="13.0278187"><ele>406.00000000000006</ele><time>2026-04-19T08:22:04.271Z</time></trkpt><trkpt lat="43.4763693" lon="13.0277158"><ele>406.0</ele><time>2026-04-19T08:22:05.271Z</time></trkpt><trkpt lat="43.4763423" lon="13.0275859"><ele>405.25</ele><time>2026-04-19T08:22:06.27Z</time></trkpt><trkpt lat="43.4763193" lon="13.027436"><ele>404.5</ele><time>2026-04-19T08:22:07.27Z</time></trkpt><trkpt lat="43.4762958" lon="13.0272731"><ele>403.75</ele><time>2026-04-19T08:22:08.271Z</time></trkpt><trkpt lat="43.476273" lon="13.0271129"><ele>403.0</ele><time>2026-04-19T08:22:09.271Z</time></trkpt><trkpt lat="43.4762493" lon="13.0269592"><ele>403.0</ele><time>2026-04-19T08:22:10.271Z</time></trkpt><trkpt lat="43.4762258" lon="13.0268081"><ele>403.0</ele><time>2026-04-19T08:22:11.271Z</time></trkpt><trkpt lat="43.4762014" lon="13.0266543"><ele>403.0</ele><time>2026-04-19T08:22:12.271Z</time></trkpt><trkpt lat="43.4761754" lon="13.0264992"><ele>403.0</ele><time>2026-04-19T08:22:13.269Z</time></trkpt><trkpt lat="43.4761486" lon="13.0263368"><ele>405.5</ele><time>2026-04-19T08:22:14.271Z</time></trkpt><trkpt lat="43.4761178" lon="13.0261702"><ele>408.0</ele><time>2026-04-19T08:22:15.271Z</time></trkpt><trkpt lat="43.4760756" lon="13.0260052"><ele>410.5</ele><time>2026-04-19T08:22:16.27Z</time></trkpt><trkpt lat="43.4760316" lon="13.0258399"><ele>413.0</ele><time>2026-04-19T08:22:17.27Z</time></trkpt><trkpt lat="43.4759808" lon="13.0256772"><ele>415.75</ele><time>2026-04-19T08:22:18.27Z</time></trkpt><trkpt lat="43.4759235" lon="13.0255165"><ele>418.5</ele><time>2026-04-19T08:22:19.269Z</time></trkpt><trkpt lat="43.4758576" lon="13.0253655"><ele>421.25</ele><time>2026-04-19T08:22:20.271Z</time></trkpt><trkpt lat="43.4757881" lon="13.0252187"><ele>424.0</ele><time>2026-04-19T08:22:21.27Z</time></trkpt><trkpt lat="43.4757188" lon="13.02507"><ele>426.25</ele><time>2026-04-19T08:22:22.271Z</time></trkpt><trkpt lat="43.4756497" lon="13.0249204"><ele>428.5</ele><time>2026-04-19T08:22:23.271Z</time></trkpt><trkpt lat="43.4755802" lon="13.02477"><ele>430.75</ele><time>2026-04-19T08:22:24.269Z</time></trkpt><trkpt lat="43.4755156" lon="13.0246158"><ele>433.0</ele><time>2026-04-19T08:22:25.271Z</time></trkpt><trkpt lat="43.4754589" lon="13.024453"><ele>429.75</ele><time>2026-04-19T08:22:26.27Z</time></trkpt><trkpt lat="43.4754081" lon="13.0242803"><ele>426.5</ele><time>2026-04-19T08:22:27.271Z</time></trkpt><trkpt lat="43.4753632" lon="13.0241018"><ele>423.25</ele><time>2026-04-19T08:22:28.271Z</time></trkpt><trkpt lat="43.4753309" lon="13.0239199"><ele>420.0</ele><time>2026-04-19T08:22:29.271Z</time></trkpt><trkpt lat="43.4753192" lon="13.023732"><ele>420.0</ele><time>2026-04-19T08:22:30.271Z</time></trkpt><trkpt lat="43.4753174" lon="13.0235427"><ele>420.0</ele><time>2026-04-19T08:22:31.271Z</time></trkpt><trkpt lat="43.4753186" lon="13.0233523"><ele>420.0</ele><time>2026-04-19T08:22:32.271Z</time></trkpt><trkpt lat="43.4753172" lon="13.0231654"><ele>420.0</ele><time>2026-04-19T08:22:33.27Z</time></trkpt><trkpt lat="43.475313" lon="13.0229805"><ele>422.0</ele><time>2026-04-19T08:22:34.27Z</time></trkpt><trkpt lat="43.4753136" lon="13.0227959"><ele>424.0</ele><time>2026-04-19T08:22:35.271Z</time></trkpt><trkpt lat="43.4753128" lon="13.0226102"><ele>426.0</ele><time>2026-04-19T08:22:36.271Z</time></trkpt><trkpt lat="43.4753103" lon="13.0224271"><ele>428.0</ele><time>2026-04-19T08:22:37.27Z</time></trkpt><trkpt lat="43.4753106" lon="13.0222439"><ele>429.25</ele><time>2026-04-19T08:22:38.271Z</time></trkpt><trkpt lat="43.4753116" lon="13.0220618"><ele>430.5</ele><time>2026-04-19T08:22:39.27Z</time></trkpt><trkpt lat="43.4753106" lon="13.0218812"><ele>431.75</ele><time>2026-04-19T08:22:40.271Z</time></trkpt><trkpt lat="43.4753072" lon="13.0217031"><ele>433.0</ele><time>2026-04-19T08:22:41.271Z</time></trkpt><trkpt lat="43.4752876" lon="13.0215281"><ele>435.0</ele><time>2026-04-19T08:22:42.27Z</time></trkpt><trkpt lat="43.475245" lon="13.021364"><ele>437.0</ele><time>2026-04-19T08:22:43.27Z</time></trkpt><trkpt lat="43.4751813" lon="13.0212091"><ele>439.0</ele><time>2026-04-19T08:22:44.271Z</time></trkpt><trkpt lat="43.4751029" lon="13.0210642"><ele>441.0</ele><time>2026-04-19T08:22:45.271Z</time></trkpt><trkpt lat="43.4750171" lon="13.0209156"><ele>442.75</ele><time>2026-04-19T08:22:46.271Z</time></trkpt><trkpt lat="43.474934" lon="13.0207625"><ele>444.5</ele><time>2026-04-19T08:22:47.271Z</time></trkpt><trkpt lat="43.4748459" lon="13.0206065"><ele>446.25</ele><time>2026-04-19T08:22:48.27Z</time></trkpt><trkpt lat="43.4747577" lon="13.0204472"><ele>448.0</ele><time>2026-04-19T08:22:49.271Z</time></trkpt><trkpt lat="43.4746687" lon="13.0202842"><ele>447.6666666666667</ele><time>2026-04-19T08:22:50.27Z</time></trkpt><trkpt lat="43.4745736" lon="13.02011"><ele>447.33333333333337</ele><time>2026-04-19T08:22:51.271Z</time></trkpt><trkpt lat="43.4744792" lon="13.0199362"><ele>447.0</ele><time>2026-04-19T08:22:52.271Z</time></trkpt><trkpt lat="43.4743907" lon="13.0197585"><ele>447.0</ele><time>2026-04-19T08:22:53.271Z</time></trkpt><trkpt lat="43.4743173" lon="13.0195698"><ele>447.0</ele><time>2026-04-19T08:22:54.271Z</time></trkpt><trkpt lat="43.4742625" lon="13.019371"><ele>447.0</ele><time>2026-04-19T08:22:55.271Z</time></trkpt><trkpt lat="43.4742203" lon="13.0191715"><ele>449.0</ele><time>2026-04-19T08:22:56.271Z</time></trkpt><trkpt lat="43.4741871" lon="13.0189734"><ele>451.0</ele><time>2026-04-19T08:22:57.27Z</time></trkpt><trkpt lat="43.474157" lon="13.0187732"><ele>453.0</ele><time>2026-04-19T08:22:58.271Z</time></trkpt><trkpt lat="43.4741268" lon="13.0185635"><ele>453.0</ele><time>2026-04-19T08:22:59.271Z</time></trkpt><trkpt lat="43.4740985" lon="13.0183456"><ele>453.0</ele><time>2026-04-19T08:23:00.271Z</time></trkpt><trkpt lat="43.4740642" lon="13.0181201"><ele>453.0</ele><time>2026-04-19T08:23:01.27Z</time></trkpt><trkpt lat="43.4740272" lon="13.017885"><ele>454.0</ele><time>2026-04-19T08:23:02.27Z</time></trkpt><trkpt lat="43.4739906" lon="13.0176457"><ele>455.0</ele><time>2026-04-19T08:23:03.271Z</time></trkpt><trkpt lat="43.473954" lon="13.0174241"><ele>456.0</ele><time>2026-04-19T08:23:04.271Z</time></trkpt><trkpt lat="43.4739163" lon="13.0172141"><ele>456.0</ele><time>2026-04-19T08:23:05.27Z</time></trkpt><trkpt lat="43.4738818" lon="13.017016"><ele>456.0</ele><time>2026-04-19T08:23:06.27Z</time></trkpt><trkpt lat="43.4738449" lon="13.01683"><ele>456.0</ele><time>2026-04-19T08:23:07.271Z</time></trkpt><trkpt lat="43.4737971" lon="13.016651"><ele>456.0</ele><time>2026-04-19T08:23:08.271Z</time></trkpt><trkpt lat="43.4737272" lon="13.0164816"><ele>456.0</ele><time>2026-04-19T08:23:09.271Z</time></trkpt><trkpt lat="43.4736395" lon="13.0163333"><ele>456.0</ele><time>2026-04-19T08:23:10.271Z</time></trkpt><trkpt lat="43.4735344" lon="13.0162026"><ele>456.0</ele><time>2026-04-19T08:23:11.271Z</time></trkpt><trkpt lat="43.4734177" lon="13.0160948"><ele>456.0</ele><time>2026-04-19T08:23:12.27Z</time></trkpt><trkpt lat="43.4732927" lon="13.0159976"><ele>456.0</ele><time>2026-04-19T08:23:13.271Z</time></trkpt><trkpt lat="43.4731652" lon="13.0159071"><ele>456.0</ele><time>2026-04-19T08:23:14.271Z</time></trkpt><trkpt lat="43.4730424" lon="13.0158222"><ele>456.0</ele><time>2026-04-19T08:23:15.271Z</time></trkpt><trkpt lat="43.4729294" lon="13.0157415"><ele>456.0</ele><time>2026-04-19T08:23:16.27Z</time></trkpt><trkpt lat="43.4728286" lon="13.0156547"><ele>455.0</ele><time>2026-04-19T08:23:17.27Z</time></trkpt><trkpt lat="43.4727502" lon="13.015551"><ele>454.0</ele><time>2026-04-19T08:23:18.271Z</time></trkpt><trkpt lat="43.4727043" lon="13.0154305"><ele>453.0</ele><time>2026-04-19T08:23:19.271Z</time></trkpt><trkpt lat="43.472685" lon="13.015294"><ele>452.0</ele><time>2026-04-19T08:23:20.271Z</time></trkpt><trkpt lat="43.472682" lon="13.0151523"><ele>451.0</ele><time>2026-04-19T08:23:21.27Z</time></trkpt><trkpt lat="43.4726775" lon="13.0150139"><ele>453.0</ele><time>2026-04-19T08:23:22.27Z</time></trkpt><trkpt lat="43.4726627" lon="13.0148626"><ele>455.0</ele><time>2026-04-19T08:23:23.271Z</time></trkpt><trkpt lat="43.4726331" lon="13.0147093"><ele>457.0</ele><time>2026-04-19T08:23:24.27Z</time></trkpt><trkpt lat="43.4725838" lon="13.0145557"><ele>459.0</ele><time>2026-04-19T08:23:25.271Z</time></trkpt><trkpt lat="43.4725163" lon="13.0144091"><ele>459.0</ele><time>2026-04-19T08:23:26.27Z</time></trkpt><trkpt lat="43.4724357" lon="13.0142629"><ele>459.0</ele><time>2026-04-19T08:23:27.271Z</time></trkpt><trkpt lat="43.4723539" lon="13.0141229"><ele>459.0</ele><time>2026-04-19T08:23:28.271Z</time></trkpt><trkpt lat="43.4722737" lon="13.0139747"><ele>459.0</ele><time>2026-04-19T08:23:29.271Z</time></trkpt><trkpt lat="43.4722041" lon="13.0138095"><ele>458.25</ele><time>2026-04-19T08:23:30.27Z</time></trkpt><trkpt lat="43.4721511" lon="13.0136212"><ele>457.5</ele><time>2026-04-19T08:23:31.271Z</time></trkpt><trkpt lat="43.4721151" lon="13.0134246"><ele>456.75</ele><time>2026-04-19T08:23:32.271Z</time></trkpt><trkpt lat="43.4720817" lon="13.0132346"><ele>456.0</ele><time>2026-04-19T08:23:33.27Z</time></trkpt><trkpt lat="43.4720415" lon="13.0130561"><ele>456.0</ele><time>2026-04-19T08:23:34.271Z</time></trkpt><trkpt lat="43.4719867" lon="13.0128973"><ele>456.0</ele><time>2026-04-19T08:23:35.271Z</time></trkpt><trkpt lat="43.4719018" lon="13.0127471"><ele>456.0</ele><time>2026-04-19T08:23:36.271Z</time></trkpt><trkpt lat="43.4718057" lon="13.0125972"><ele>456.0</ele><time>2026-04-19T08:23:37.271Z</time></trkpt><trkpt lat="43.4717024" lon="13.0124433"><ele>459.5</ele><time>2026-04-19T08:23:38.271Z</time></trkpt><trkpt lat="43.4715976" lon="13.0122897"><ele>463.0</ele><time>2026-04-19T08:23:39.27Z</time></trkpt><trkpt lat="43.4714952" lon="13.0121368"><ele>466.5</ele><time>2026-04-19T08:23:40.271Z</time></trkpt><trkpt lat="43.4713977" lon="13.0119898"><ele>470.0</ele><time>2026-04-19T08:23:41.27Z</time></trkpt><trkpt lat="43.4712999" lon="13.0118492"><ele>470.25</ele><time>2026-04-19T08:23:42.27Z</time></trkpt><trkpt lat="43.4712049" lon="13.0117165"><ele>470.5</ele><time>2026-04-19T08:23:43.27Z</time></trkpt><trkpt lat="43.471105" lon="13.0115969"><ele>470.75</ele><time>2026-04-19T08:23:44.271Z</time></trkpt><trkpt lat="43.4709892" lon="13.0115015"><ele>471.0</ele><time>2026-04-19T08:23:45.271Z</time></trkpt><trkpt lat="43.4708665" lon="13.0114441"><ele>471.0</ele><time>2026-04-19T08:23:46.271Z</time></trkpt><trkpt lat="43.4707297" lon="13.0114141"><ele>471.0</ele><time>2026-04-19T08:23:47.271Z</time></trkpt><trkpt lat="43.4705867" lon="13.0113984"><ele>471.0</ele><time>2026-04-19T08:23:48.27Z</time></trkpt><trkpt lat="43.4704412" lon="13.0114008"><ele>471.0</ele><time>2026-04-19T08:23:49.271Z</time></trkpt><trkpt lat="43.4702952" lon="13.0114128"><ele>468.75</ele><time>2026-04-19T08:23:50.271Z</time></trkpt><trkpt lat="43.4701492" lon="13.0114246"><ele>466.5</ele><time>2026-04-19T08:23:51.27Z</time></trkpt><trkpt lat="43.470009" lon="13.011433"><ele>464.25</ele><time>2026-04-19T08:23:52.271Z</time></trkpt><trkpt lat="43.4698746" lon="13.0114425"><ele>462.0</ele><time>2026-04-19T08:23:53.27Z</time></trkpt><trkpt lat="43.469744" lon="13.0114542"><ele>462.0</ele><time>2026-04-19T08:23:54.271Z</time></trkpt><trkpt lat="43.4696175" lon="13.0114475"><ele>462.0</ele><time>2026-04-19T08:23:55.271Z</time></trkpt><trkpt lat="43.4694944" lon="13.0114085"><ele>462.0</ele><time>2026-04-19T08:23:56.269Z</time></trkpt><trkpt lat="43.4693758" lon="13.0113356"><ele>462.0</ele><time>2026-04-19T08:23:57.271Z</time></trkpt><trkpt lat="43.4692766" lon="13.0112354"><ele>462.5</ele><time>2026-04-19T08:23:58.271Z</time></trkpt><trkpt lat="43.4691905" lon="13.0111099"><ele>463.0</ele><time>2026-04-19T08:23:59.271Z</time></trkpt><trkpt lat="43.469129" lon="13.0109617"><ele>463.5</ele><time>2026-04-19T08:24:00.271Z</time></trkpt><trkpt lat="43.4690974" lon="13.0108009"><ele>464.0</ele><time>2026-04-19T08:24:01.271Z</time></trkpt><trkpt lat="43.4690807" lon="13.0106346"><ele>464.0</ele><time>2026-04-19T08:24:02.269Z</time></trkpt><trkpt lat="43.469051" lon="13.0104732"><ele>464.0</ele><time>2026-04-19T08:24:03.271Z</time></trkpt><trkpt lat="43.4689919" lon="13.0103239"><ele>464.0</ele><time>2026-04-19T08:24:04.271Z</time></trkpt><trkpt lat="43.4689067" lon="13.0101955"><ele>464.0</ele><time>2026-04-19T08:24:05.271Z</time></trkpt><trkpt lat="43.4688056" lon="13.0100868"><ele>464.5</ele><time>2026-04-19T08:24:06.27Z</time></trkpt><trkpt lat="43.4686988" lon="13.0099944"><ele>465.0</ele><time>2026-04-19T08:24:07.27Z</time></trkpt><trkpt lat="43.4685939" lon="13.0099175"><ele>465.5</ele><time>2026-04-19T08:24:08.27Z</time></trkpt><trkpt lat="43.4684873" lon="13.0098428"><ele>466.0</ele><time>2026-04-19T08:24:09.271Z</time></trkpt><trkpt lat="43.468386" lon="13.0097596"><ele>466.0</ele><time>2026-04-19T08:24:10.271Z</time></trkpt><trkpt lat="43.4682872" lon="13.0096543"><ele>466.0</ele><time>2026-04-19T08:24:11.27Z</time></trkpt><trkpt lat="43.4681887" lon="13.0095365"><ele>466.0</ele><time>2026-04-19T08:24:12.271Z</time></trkpt><trkpt lat="43.4680867" lon="13.0094135"><ele>466.0</ele><time>2026-04-19T08:24:13.271Z</time></trkpt><trkpt lat="43.4679824" lon="13.0092796"><ele>463.5</ele><time>2026-04-19T08:24:14.27Z</time></trkpt><trkpt lat="43.4678855" lon="13.0091301"><ele>461.0</ele><time>2026-04-19T08:24:15.27Z</time></trkpt><trkpt lat="43.467796" lon="13.0089714"><ele>458.5</ele><time>2026-04-19T08:24:16.271Z</time></trkpt><trkpt lat="43.4677134" lon="13.0088149"><ele>456.0</ele><time>2026-04-19T08:24:17.27Z</time></trkpt><trkpt lat="43.4676399" lon="13.0086601"><ele>456.0</ele><time>2026-04-19T08:24:18.271Z</time></trkpt><trkpt lat="43.4675858" lon="13.0084865"><ele>456.0</ele><time>2026-04-19T08:24:19.271Z</time></trkpt><trkpt lat="43.4675452" lon="13.0082956"><ele>456.0</ele><time>2026-04-19T08:24:20.27Z</time></trkpt><trkpt lat="43.4675012" lon="13.0080972"><ele>456.0</ele><time>2026-04-19T08:24:21.271Z</time></trkpt><trkpt lat="43.4674566" lon="13.0078956"><ele>457.0</ele><time>2026-04-19T08:24:22.271Z</time></trkpt><trkpt lat="43.4674169" lon="13.0076974"><ele>458.0</ele><time>2026-04-19T08:24:23.271Z</time></trkpt><trkpt lat="43.4674011" lon="13.007505"><ele>459.0</ele><time>2026-04-19T08:24:24.271Z</time></trkpt><trkpt lat="43.4674129" lon="13.007316"><ele>460.0</ele><time>2026-04-19T08:24:25.27Z</time></trkpt><trkpt lat="43.4674394" lon="13.0071277"><ele>460.6666666666667</ele><time>2026-04-19T08:24:26.271Z</time></trkpt><trkpt lat="43.4674662" lon="13.0069259"><ele>461.33333333333337</ele><time>2026-04-19T08:24:27.271Z</time></trkpt><trkpt lat="43.4674695" lon="13.006709"><ele>462.0</ele><time>2026-04-19T08:24:28.27Z</time></trkpt><trkpt lat="43.4674515" lon="13.0064829"><ele>463.0</ele><time>2026-04-19T08:24:29.271Z</time></trkpt><trkpt lat="43.4674208" lon="13.0062551"><ele>464.0</ele><time>2026-04-19T08:24:30.27Z</time></trkpt><trkpt lat="43.4673936" lon="13.0060289"><ele>465.0</ele><time>2026-04-19T08:24:31.271Z</time></trkpt><trkpt lat="43.4673645" lon="13.0058003"><ele>467.0</ele><time>2026-04-19T08:24:32.27Z</time></trkpt><trkpt lat="43.4673332" lon="13.0055728"><ele>469.0</ele><time>2026-04-19T08:24:33.27Z</time></trkpt><trkpt lat="43.4672985" lon="13.0053468"><ele>471.0</ele><time>2026-04-19T08:24:34.271Z</time></trkpt><trkpt lat="43.4672519" lon="13.0051272"><ele>472.66666666666663</ele><time>2026-04-19T08:24:35.271Z</time></trkpt><trkpt lat="43.4671912" lon="13.004913"><ele>474.3333333333333</ele><time>2026-04-19T08:24:36.27Z</time></trkpt><trkpt lat="43.467121" lon="13.0047006"><ele>476.0</ele><time>2026-04-19T08:24:37.271Z</time></trkpt><trkpt lat="43.467039" lon="13.0044927"><ele>472.0</ele><time>2026-04-19T08:24:38.271Z</time></trkpt><trkpt lat="43.466948" lon="13.0042946"><ele>468.0</ele><time>2026-04-19T08:24:39.271Z</time></trkpt><trkpt lat="43.4668541" lon="13.0041004"><ele>464.0</ele><time>2026-04-19T08:24:40.27Z</time></trkpt><trkpt lat="43.4667653" lon="13.0039072"><ele>464.0</ele><time>2026-04-19T08:24:41.271Z</time></trkpt><trkpt lat="43.4666814" lon="13.0037253"><ele>464.0</ele><time>2026-04-19T08:24:42.271Z</time></trkpt><trkpt lat="43.4666025" lon="13.0035491"><ele>464.0</ele><time>2026-04-19T08:24:43.269Z</time></trkpt><trkpt lat="43.4665274" lon="13.003386"><ele>464.0</ele><time>2026-04-19T08:24:44.271Z</time></trkpt><trkpt lat="43.4664563" lon="13.003232"><ele>462.5</ele><time>2026-04-19T08:24:45.27Z</time></trkpt><trkpt lat="43.4663871" lon="13.0030855"><ele>461.0</ele><time>2026-04-19T08:24:46.271Z</time></trkpt><trkpt lat="43.4663192" lon="13.0029474"><ele>459.5</ele><time>2026-04-19T08:24:47.27Z</time></trkpt><trkpt lat="43.4662572" lon="13.0028258"><ele>458.0</ele><time>2026-04-19T08:24:48.27Z</time></trkpt><trkpt lat="43.4662024" lon="13.0027157"><ele>457.66666666666663</ele><time>2026-04-19T08:24:49.271Z</time></trkpt><trkpt lat="43.4661504" lon="13.0026102"><ele>457.3333333333333</ele><time>2026-04-19T08:24:50.271Z</time></trkpt><trkpt lat="43.466101" lon="13.0025126"><ele>457.0</ele><time>2026-04-19T08:24:51.271Z</time></trkpt><trkpt lat="43.4660496" lon="13.0024195"><ele>456.66666666666663</ele><time>2026-04-19T08:24:52.271Z</time></trkpt><trkpt lat="43.4659898" lon="13.0023341"><ele>456.3333333333333</ele><time>2026-04-19T08:24:53.269Z</time></trkpt><trkpt lat="43.4659194" lon="13.0022667"><ele>456.0</ele><time>2026-04-19T08:24:54.27Z</time></trkpt><trkpt lat="43.465846" lon="13.002207"><ele>454.0</ele><time>2026-04-19T08:24:55.271Z</time></trkpt><trkpt lat="43.4657704" lon="13.0021437"><ele>452.0</ele><time>2026-04-19T08:24:56.271Z</time></trkpt><trkpt lat="43.4657005" lon="13.0020651"><ele>450.0</ele><time>2026-04-19T08:24:57.27Z</time></trkpt><trkpt lat="43.4656286" lon="13.0019754"><ele>448.0</ele><time>2026-04-19T08:24:58.271Z</time></trkpt><trkpt lat="43.4655507" lon="13.001881"><ele>446.0</ele><time>2026-04-19T08:24:59.27Z</time></trkpt><trkpt lat="43.4654774" lon="13.0017798"><ele>448.0</ele><time>2026-04-19T08:25:00.27Z</time></trkpt><trkpt lat="43.465412" lon="13.0016794"><ele>450.0</ele><time>2026-04-19T08:25:01.271Z</time></trkpt><trkpt lat="43.4653509" lon="13.0015776"><ele>452.0</ele><time>2026-04-19T08:25:02.271Z</time></trkpt><trkpt lat="43.4652925" lon="13.0014755"><ele>454.0</ele><time>2026-04-19T08:25:03.27Z</time></trkpt><trkpt lat="43.4652385" lon="13.0013801"><ele>456.0</ele><time>2026-04-19T08:25:04.27Z</time></trkpt><trkpt lat="43.4651855" lon="13.0012927"><ele>456.0</ele><time>2026-04-19T08:25:05.269Z</time></trkpt><trkpt lat="43.4651387" lon="13.0012148"><ele>456.0</ele><time>2026-04-19T08:25:06.271Z</time></trkpt><trkpt lat="43.4650963" lon="13.0011447"><ele>456.0</ele><time>2026-04-19T08:25:07.271Z</time></trkpt><trkpt lat="43.4650161" lon="13.0010223"><ele>456.0</ele><time>2026-04-19T08:25:09.27Z</time></trkpt><trkpt lat="43.4649485" lon="13.0009021"><ele>456.0</ele><time>2026-04-19T08:25:11.269Z</time></trkpt><trkpt lat="43.464881" lon="13.0007938"><ele>455.57142857142856</ele><time>2026-04-19T08:25:13.271Z</time></trkpt><trkpt lat="43.4648238" lon="13.0006969"><ele>455.1428571428571</ele><time>2026-04-19T08:25:15.271Z</time></trkpt><trkpt lat="43.4647768" lon="13.00063"><ele>454.71428571428567</ele><time>2026-04-19T08:25:17.271Z</time></trkpt><trkpt lat="43.4647238" lon="13.0005682"><ele>454.2857142857142</ele><time>2026-04-19T08:25:20.271Z</time></trkpt><trkpt lat="43.4646878" lon="13.0004916"><ele>453.85714285714283</ele><time>2026-04-19T08:25:23.27Z</time></trkpt><trkpt lat="43.4646398" lon="13.0004315"><ele>453.42857142857133</ele><time>2026-04-19T08:25:27.271Z</time></trkpt><trkpt lat="43.4645813" lon="13.0003939"><ele>452.99999999999994</ele><time>2026-04-19T08:25:31.271Z</time></trkpt><trkpt lat="43.4645256" lon="13.0003515"><ele>456.5</ele><time>2026-04-19T08:25:41.271Z</time></trkpt><trkpt lat="43.4644633" lon="13.0002905"><ele>460.0</ele><time>2026-04-19T08:26:21.271Z</time></trkpt><trkpt lat="43.4644188" lon="13.0003571"><ele>463.5</ele><time>2026-04-19T08:29:16.27Z</time></trkpt><trkpt lat="43.4643423" lon="13.000412"><ele>467.0</ele><time>2026-04-19T08:29:19.27Z</time></trkpt><trkpt lat="43.4642675" lon="13.0004588"><ele>470.5</ele><time>2026-04-19T08:29:31.27Z</time></trkpt><trkpt lat="43.4641711" lon="13.0005217"><ele>474.0</ele><time>2026-04-19T08:29:33.27Z</time></trkpt><trkpt lat="43.4640993" lon="13.0005617"><ele>474.0</ele><time>2026-04-19T08:29:34.269Z</time></trkpt><trkpt lat="43.4640177" lon="13.0006054"><ele>474.0</ele><time>2026-04-19T08:29:35.269Z</time></trkpt><trkpt lat="43.4639305" lon="13.0006538"><ele>474.0</ele><time>2026-04-19T08:29:36.269Z</time></trkpt><trkpt lat="43.463836" lon="13.0007086"><ele>474.0</ele><time>2026-04-19T08:29:37.268Z</time></trkpt><trkpt lat="43.463744" lon="13.0007675"><ele>474.0</ele><time>2026-04-19T08:29:38.269Z</time></trkpt><trkpt lat="43.4636546" lon="13.0008299"><ele>471.6666666666667</ele><time>2026-04-19T08:29:39.269Z</time></trkpt><trkpt lat="43.4635695" lon="13.0008927"><ele>469.33333333333337</ele><time>2026-04-19T08:29:40.269Z</time></trkpt><trkpt lat="43.4634923" lon="13.0009603"><ele>467.0</ele><time>2026-04-19T08:29:41.27Z</time></trkpt><trkpt lat="43.4634252" lon="13.0010337"><ele>464.6666666666667</ele><time>2026-04-19T08:29:42.269Z</time></trkpt><trkpt lat="43.4633645" lon="13.0011069"><ele>462.33333333333337</ele><time>2026-04-19T08:29:43.27Z</time></trkpt><trkpt lat="43.4633119" lon="13.0011761"><ele>460.0</ele><time>2026-04-19T08:29:44.27Z</time></trkpt><trkpt lat="43.4632616" lon="13.001241"><ele>460.0</ele><time>2026-04-19T08:29:45.269Z</time></trkpt><trkpt lat="43.4632153" lon="13.0013035"><ele>460.0</ele><time>2026-04-19T08:29:46.27Z</time></trkpt><trkpt lat="43.4631305" lon="13.0014259"><ele>460.0</ele><time>2026-04-19T08:29:48.27Z</time></trkpt><trkpt lat="43.4630442" lon="13.0015415"><ele>460.0</ele><time>2026-04-19T08:29:50.269Z</time></trkpt><trkpt lat="43.4629647" lon="13.0016557"><ele>460.0</ele><time>2026-04-19T08:29:52.27Z</time></trkpt><trkpt lat="43.4628907" lon="13.0017661"><ele>460.33333333333337</ele><time>2026-04-19T08:29:54.27Z</time></trkpt><trkpt lat="43.4628146" lon="13.0018743"><ele>460.6666666666667</ele><time>2026-04-19T08:29:56.27Z</time></trkpt><trkpt lat="43.4627317" lon="13.0019917"><ele>461.0</ele><time>2026-04-19T08:29:58.27Z</time></trkpt><trkpt lat="43.4626836" lon="13.0020528"><ele>461.33333333333337</ele><time>2026-04-19T08:29:59.27Z</time></trkpt><trkpt lat="43.4626283" lon="13.0021058"><ele>461.6666666666667</ele><time>2026-04-19T08:30:00.269Z</time></trkpt><trkpt lat="43.4625668" lon="13.0021513"><ele>462.0</ele><time>2026-04-19T08:30:01.27Z</time></trkpt><trkpt lat="43.462501" lon="13.00219"><ele>462.0</ele><time>2026-04-19T08:30:02.27Z</time></trkpt><trkpt lat="43.4623948" lon="13.0022483"><ele>462.00000000000006</ele><time>2026-04-19T08:30:04.27Z</time></trkpt><trkpt lat="43.4622839" lon="13.0023016"><ele>462.00000000000006</ele><time>2026-04-19T08:30:06.27Z</time></trkpt><trkpt lat="43.462168" lon="13.0023651"><ele>462.0</ele><time>2026-04-19T08:30:08.27Z</time></trkpt><trkpt lat="43.4620967" lon="13.0024017"><ele>462.0</ele><time>2026-04-19T08:30:09.27Z</time></trkpt><trkpt lat="43.4620173" lon="13.0024414"><ele>460.3333333333333</ele><time>2026-04-19T08:30:10.27Z</time></trkpt><trkpt lat="43.4619313" lon="13.0024834"><ele>458.66666666666663</ele><time>2026-04-19T08:30:11.27Z</time></trkpt><trkpt lat="43.4618432" lon="13.002526"><ele>457.0</ele><time>2026-04-19T08:30:12.269Z</time></trkpt><trkpt lat="43.4617571" lon="13.00257"><ele>455.3333333333333</ele><time>2026-04-19T08:30:13.269Z</time></trkpt><trkpt lat="43.4616766" lon="13.0026124"><ele>453.66666666666663</ele><time>2026-04-19T08:30:14.269Z</time></trkpt><trkpt lat="43.461609" lon="13.0026515"><ele>452.0</ele><time>2026-04-19T08:30:15.27Z</time></trkpt><trkpt lat="43.4615446" lon="13.0026864"><ele>452.0</ele><time>2026-04-19T08:30:16.27Z</time></trkpt><trkpt lat="43.4614823" lon="13.0027211"><ele>452.0</ele><time>2026-04-19T08:30:17.269Z</time></trkpt><trkpt lat="43.4614223" lon="13.0027564"><ele>452.0</ele><time>2026-04-19T08:30:18.27Z</time></trkpt><trkpt lat="43.4613626" lon="13.0027945"><ele>452.0</ele><time>2026-04-19T08:30:19.27Z</time></trkpt><trkpt lat="43.4613027" lon="13.0028366"><ele>452.0</ele><time>2026-04-19T08:30:20.27Z</time></trkpt><trkpt lat="43.4612429" lon="13.0028808"><ele>452.0</ele><time>2026-04-19T08:30:21.269Z</time></trkpt><trkpt lat="43.4611838" lon="13.0029256"><ele>452.0</ele><time>2026-04-19T08:30:22.27Z</time></trkpt><trkpt lat="43.4610791" lon="13.0030031"><ele>455.40000000000003</ele><time>2026-04-19T08:30:24.27Z</time></trkpt><trkpt lat="43.4609696" lon="13.0030804"><ele>458.80000000000007</ele><time>2026-04-19T08:30:26.269Z</time></trkpt><trkpt lat="43.460906" lon="13.0031233"><ele>462.2</ele><time>2026-04-19T08:30:27.27Z</time></trkpt><trkpt lat="43.4608399" lon="13.0031699"><ele>465.6</ele><time>2026-04-19T08:30:28.27Z</time></trkpt><trkpt lat="43.4607783" lon="13.0032159"><ele>469.0</ele><time>2026-04-19T08:30:29.269Z</time></trkpt><trkpt lat="43.460669" lon="13.0032941"><ele>465.33333333333337</ele><time>2026-04-19T08:30:31.27Z</time></trkpt><trkpt lat="43.4605554" lon="13.003374"><ele>461.6666666666667</ele><time>2026-04-19T08:30:33.269Z</time></trkpt><trkpt lat="43.460492" lon="13.0034227"><ele>458.0</ele><time>2026-04-19T08:30:34.27Z</time></trkpt><trkpt lat="43.460425" lon="13.0034776"><ele>454.33333333333337</ele><time>2026-04-19T08:30:35.269Z</time></trkpt><trkpt lat="43.4603536" lon="13.0035351"><ele>450.6666666666667</ele><time>2026-04-19T08:30:36.27Z</time></trkpt><trkpt lat="43.4602839" lon="13.0035961"><ele>447.0</ele><time>2026-04-19T08:30:37.27Z</time></trkpt><trkpt lat="43.4602188" lon="13.0036566"><ele>447.0</ele><time>2026-04-19T08:30:38.269Z</time></trkpt><trkpt lat="43.460156" lon="13.003717"><ele>447.0</ele><time>2026-04-19T08:30:39.27Z</time></trkpt><trkpt lat="43.4600984" lon="13.0037738"><ele>447.0</ele><time>2026-04-19T08:30:40.27Z</time></trkpt><trkpt lat="43.4600446" lon="13.0038298"><ele>447.0</ele><time>2026-04-19T08:30:41.269Z</time></trkpt><trkpt lat="43.4599911" lon="13.003876"><ele>447.0</ele><time>2026-04-19T08:30:42.269Z</time></trkpt><trkpt lat="43.4598819" lon="13.0039512"><ele>447.0</ele><time>2026-04-19T08:30:44.27Z</time></trkpt><trkpt lat="43.4598182" lon="13.0039723"><ele>447.0</ele><time>2026-04-19T08:30:45.269Z</time></trkpt><trkpt lat="43.4597474" lon="13.0039817"><ele>447.0</ele><time>2026-04-19T08:30:46.27Z</time></trkpt><trkpt lat="43.4596747" lon="13.0039834"><ele>447.0</ele><time>2026-04-19T08:30:47.269Z</time></trkpt><trkpt lat="43.4595955" lon="13.0039749"><ele>447.0</ele><time>2026-04-19T08:30:48.27Z</time></trkpt><trkpt lat="43.4595154" lon="13.0039734"><ele>447.0</ele><time>2026-04-19T08:30:49.269Z</time></trkpt><trkpt lat="43.459433" lon="13.003967"><ele>447.0</ele><time>2026-04-19T08:30:50.269Z</time></trkpt><trkpt lat="43.459353" lon="13.0039583"><ele>447.5</ele><time>2026-04-19T08:30:51.27Z</time></trkpt><trkpt lat="43.4592763" lon="13.0039495"><ele>448.0</ele><time>2026-04-19T08:30:52.269Z</time></trkpt><trkpt lat="43.4592014" lon="13.003946"><ele>448.5</ele><time>2026-04-19T08:30:53.269Z</time></trkpt><trkpt lat="43.459133" lon="13.0039504"><ele>449.0</ele><time>2026-04-19T08:30:54.27Z</time></trkpt><trkpt lat="43.4590674" lon="13.0039623"><ele>449.5</ele><time>2026-04-19T08:30:55.269Z</time></trkpt><trkpt lat="43.4589739" lon="13.0040609"><ele>450.0</ele><time>2026-04-19T08:30:57.27Z</time></trkpt><trkpt lat="43.4589501" lon="13.0041912"><ele>450.1666666666667</ele><time>2026-04-19T08:30:59.27Z</time></trkpt><trkpt lat="43.4589142" lon="13.00428"><ele>450.33333333333337</ele><time>2026-04-19T08:31:01.27Z</time></trkpt><trkpt lat="43.4588215" lon="13.0042574"><ele>450.5</ele><time>2026-04-19T08:31:04.268Z</time></trkpt><trkpt lat="43.4587275" lon="13.0041897"><ele>450.6666666666667</ele><time>2026-04-19T08:31:06.27Z</time></trkpt><trkpt lat="43.4586659" lon="13.0041533"><ele>450.83333333333337</ele><time>2026-04-19T08:31:07.27Z</time></trkpt><trkpt lat="43.4585925" lon="13.0041254"><ele>451.0</ele><time>2026-04-19T08:31:08.268Z</time></trkpt><trkpt lat="43.4585073" lon="13.0041055"><ele>451.0</ele><time>2026-04-19T08:31:09.269Z</time></trkpt><trkpt lat="43.458418" lon="13.0040858"><ele>451.0</ele><time>2026-04-19T08:31:10.27Z</time></trkpt><trkpt lat="43.4583259" lon="13.0040601"><ele>451.0</ele><time>2026-04-19T08:31:11.27Z</time></trkpt><trkpt lat="43.458236" lon="13.0040329"><ele>451.0</ele><time>2026-04-19T08:31:12.269Z</time></trkpt><trkpt lat="43.4581453" lon="13.0040033"><ele>451.0</ele><time>2026-04-19T08:31:13.27Z</time></trkpt><trkpt lat="43.4580567" lon="13.0039679"><ele>451.00000000000006</ele><time>2026-04-19T08:31:14.27Z</time></trkpt><trkpt lat="43.4579698" lon="13.0039335"><ele>451.0</ele><time>2026-04-19T08:31:15.269Z</time></trkpt><trkpt lat="43.4578881" lon="13.0038927"><ele>451.0</ele><time>2026-04-19T08:31:16.269Z</time></trkpt><trkpt lat="43.4578068" lon="13.0038555"><ele>451.0</ele><time>2026-04-19T08:31:17.27Z</time></trkpt><trkpt lat="43.4577315" lon="13.0038081"><ele>451.00000000000006</ele><time>2026-04-19T08:31:18.269Z</time></trkpt><trkpt lat="43.4576557" lon="13.0037618"><ele>451.0</ele><time>2026-04-19T08:31:19.269Z</time></trkpt><trkpt lat="43.4575834" lon="13.0037023"><ele>450.8</ele><time>2026-04-19T08:31:20.269Z</time></trkpt><trkpt lat="43.4575039" lon="13.0036446"><ele>450.6</ele><time>2026-04-19T08:31:21.27Z</time></trkpt><trkpt lat="43.4574216" lon="13.0035819"><ele>450.4</ele><time>2026-04-19T08:31:22.27Z</time></trkpt><trkpt lat="43.4573382" lon="13.0035178"><ele>450.2</ele><time>2026-04-19T08:31:23.27Z</time></trkpt><trkpt lat="43.4572549" lon="13.0034527"><ele>450.0</ele><time>2026-04-19T08:31:24.269Z</time></trkpt><trkpt lat="43.457174" lon="13.003392"><ele>450.4</ele><time>2026-04-19T08:31:25.27Z</time></trkpt><trkpt lat="43.4570925" lon="13.0033323"><ele>450.8</ele><time>2026-04-19T08:31:26.27Z</time></trkpt><trkpt lat="43.4570082" lon="13.0032737"><ele>451.20000000000005</ele><time>2026-04-19T08:31:27.269Z</time></trkpt><trkpt lat="43.4569189" lon="13.003216"><ele>451.6</ele><time>2026-04-19T08:31:28.269Z</time></trkpt><trkpt lat="43.4568334" lon="13.0031502"><ele>452.0</ele><time>2026-04-19T08:31:29.269Z</time></trkpt><trkpt lat="43.456748" lon="13.0030804"><ele>455.20000000000005</ele><time>2026-04-19T08:31:30.27Z</time></trkpt><trkpt lat="43.4566657" lon="13.0030023"><ele>458.40000000000003</ele><time>2026-04-19T08:31:31.269Z</time></trkpt><trkpt lat="43.4565887" lon="13.0029221"><ele>461.59999999999997</ele><time>2026-04-19T08:31:32.27Z</time></trkpt><trkpt lat="43.4565067" lon="13.0028442"><ele>464.79999999999995</ele><time>2026-04-19T08:31:33.269Z</time></trkpt><trkpt lat="43.4564178" lon="13.0027687"><ele>468.0</ele><time>2026-04-19T08:31:34.27Z</time></trkpt><trkpt lat="43.4563261" lon="13.0026984"><ele>469.79999999999995</ele><time>2026-04-19T08:31:35.27Z</time></trkpt><trkpt lat="43.4562299" lon="13.0026319"><ele>471.59999999999997</ele><time>2026-04-19T08:31:36.27Z</time></trkpt><trkpt lat="43.4561316" lon="13.0025779"><ele>473.40000000000003</ele><time>2026-04-19T08:31:37.268Z</time></trkpt><trkpt lat="43.4560347" lon="13.0025345"><ele>475.20000000000005</ele><time>2026-04-19T08:31:38.27Z</time></trkpt><trkpt lat="43.4559364" lon="13.0024958"><ele>477.0</ele><time>2026-04-19T08:31:39.27Z</time></trkpt><trkpt lat="43.4558407" lon="13.0024509"><ele>477.0</ele><time>2026-04-19T08:31:40.269Z</time></trkpt><trkpt lat="43.4557485" lon="13.0023953"><ele>477.00000000000006</ele><time>2026-04-19T08:31:41.269Z</time></trkpt><trkpt lat="43.455664" lon="13.0023267"><ele>477.00000000000006</ele><time>2026-04-19T08:31:42.269Z</time></trkpt><trkpt lat="43.4555896" lon="13.0022397"><ele>477.0</ele><time>2026-04-19T08:31:43.268Z</time></trkpt><trkpt lat="43.4555188" lon="13.002133"><ele>477.0</ele><time>2026-04-19T08:31:44.27Z</time></trkpt><trkpt lat="43.4554481" lon="13.0020094"><ele>478.0</ele><time>2026-04-19T08:31:45.27Z</time></trkpt><trkpt lat="43.4553785" lon="13.0018874"><ele>479.0</ele><time>2026-04-19T08:31:46.27Z</time></trkpt><trkpt lat="43.4553061" lon="13.0017665"><ele>480.0</ele><time>2026-04-19T08:31:47.27Z</time></trkpt><trkpt lat="43.4552322" lon="13.0016452"><ele>481.0</ele><time>2026-04-19T08:31:48.269Z</time></trkpt><trkpt lat="43.4551607" lon="13.0015282"><ele>481.00000000000006</ele><time>2026-04-19T08:31:49.269Z</time></trkpt><trkpt lat="43.4550988" lon="13.0014263"><ele>481.0</ele><time>2026-04-19T08:31:50.269Z</time></trkpt><trkpt lat="43.4550411" lon="13.0013325"><ele>481.0</ele><time>2026-04-19T08:31:51.269Z</time></trkpt><trkpt lat="43.4549828" lon="13.0012489"><ele>481.0</ele><time>2026-04-19T08:31:52.27Z</time></trkpt><trkpt lat="43.4549214" lon="13.0011679"><ele>481.00000000000006</ele><time>2026-04-19T08:31:53.269Z</time></trkpt><trkpt lat="43.4548583" lon="13.0010929"><ele>481.0</ele><time>2026-04-19T08:31:54.27Z</time></trkpt><trkpt lat="43.4547906" lon="13.0010166"><ele>481.0</ele><time>2026-04-19T08:31:55.27Z</time></trkpt><trkpt lat="43.4547247" lon="13.0009377"><ele>481.0</ele><time>2026-04-19T08:31:56.27Z</time></trkpt><trkpt lat="43.4546565" lon="13.0008602"><ele>481.0</ele><time>2026-04-19T08:31:57.269Z</time></trkpt><trkpt lat="43.4545867" lon="13.00078"><ele>481.0</ele><time>2026-04-19T08:31:58.269Z</time></trkpt><trkpt lat="43.4545169" lon="13.0006991"><ele>481.0</ele><time>2026-04-19T08:31:59.269Z</time></trkpt><trkpt lat="43.454445" lon="13.0006184"><ele>482.0</ele><time>2026-04-19T08:32:00.27Z</time></trkpt><trkpt lat="43.4543757" lon="13.0005381"><ele>483.0</ele><time>2026-04-19T08:32:01.269Z</time></trkpt><trkpt lat="43.4543054" lon="13.0004556"><ele>484.0</ele><time>2026-04-19T08:32:02.268Z</time></trkpt><trkpt lat="43.4542352" lon="13.0003698"><ele>485.0</ele><time>2026-04-19T08:32:03.269Z</time></trkpt><trkpt lat="43.4541653" lon="13.0002824"><ele>486.0</ele><time>2026-04-19T08:32:04.27Z</time></trkpt><trkpt lat="43.4540956" lon="13.0001887"><ele>486.0</ele><time>2026-04-19T08:32:05.27Z</time></trkpt><trkpt lat="43.4540274" lon="13.0000907"><ele>486.0</ele><time>2026-04-19T08:32:06.27Z</time></trkpt><trkpt lat="43.453959" lon="12.9999927"><ele>486.0</ele><time>2026-04-19T08:32:07.269Z</time></trkpt><trkpt lat="43.453892" lon="12.9998893"><ele>486.0</ele><time>2026-04-19T08:32:08.269Z</time></trkpt><trkpt lat="43.453824" lon="12.9997825"><ele>486.0</ele><time>2026-04-19T08:32:09.269Z</time></trkpt><trkpt lat="43.4537584" lon="12.9996717"><ele>488.20000000000005</ele><time>2026-04-19T08:32:10.269Z</time></trkpt><trkpt lat="43.4536945" lon="12.9995564"><ele>490.40000000000003</ele><time>2026-04-19T08:32:11.268Z</time></trkpt><trkpt lat="43.453632" lon="12.9994394"><ele>492.6</ele><time>2026-04-19T08:32:12.269Z</time></trkpt><trkpt lat="43.4535778" lon="12.9993169"><ele>494.8</ele><time>2026-04-19T08:32:13.269Z</time></trkpt><trkpt lat="43.4535312" lon="12.9991877"><ele>497.0</ele><time>2026-04-19T08:32:14.27Z</time></trkpt><trkpt lat="43.4534945" lon="12.9990459"><ele>497.0</ele><time>2026-04-19T08:32:15.269Z</time></trkpt><trkpt lat="43.4534546" lon="12.998914"><ele>497.00000000000006</ele><time>2026-04-19T08:32:16.27Z</time></trkpt><trkpt lat="43.453422" lon="12.9987704"><ele>497.00000000000006</ele><time>2026-04-19T08:32:17.27Z</time></trkpt><trkpt lat="43.4533784" lon="12.9986304"><ele>497.0</ele><time>2026-04-19T08:32:18.27Z</time></trkpt><trkpt lat="43.4533433" lon="12.9984872"><ele>497.0</ele><time>2026-04-19T08:32:19.27Z</time></trkpt><trkpt lat="43.4533048" lon="12.9983448"><ele>498.0</ele><time>2026-04-19T08:32:20.27Z</time></trkpt><trkpt lat="43.4532615" lon="12.9982048"><ele>499.00000000000006</ele><time>2026-04-19T08:32:21.269Z</time></trkpt><trkpt lat="43.4532163" lon="12.9980694"><ele>500.00000000000006</ele><time>2026-04-19T08:32:22.27Z</time></trkpt><trkpt lat="43.4531651" lon="12.9979337"><ele>501.0</ele><time>2026-04-19T08:32:23.269Z</time></trkpt><trkpt lat="43.4531123" lon="12.9977927"><ele>502.0</ele><time>2026-04-19T08:32:24.27Z</time></trkpt><trkpt lat="43.4530551" lon="12.9976548"><ele>502.0</ele><time>2026-04-19T08:32:25.269Z</time></trkpt><trkpt lat="43.452999" lon="12.9975153"><ele>502.0</ele><time>2026-04-19T08:32:26.27Z</time></trkpt><trkpt lat="43.452945" lon="12.9973751"><ele>502.0</ele><time>2026-04-19T08:32:27.27Z</time></trkpt><trkpt lat="43.4528979" lon="12.9972273"><ele>502.0</ele><time>2026-04-19T08:32:28.27Z</time></trkpt><trkpt lat="43.4528551" lon="12.9970776"><ele>504.0</ele><time>2026-04-19T08:32:29.27Z</time></trkpt><trkpt lat="43.4528154" lon="12.9969271"><ele>506.0</ele><time>2026-04-19T08:32:30.269Z</time></trkpt><trkpt lat="43.452772" lon="12.9967645"><ele>508.0</ele><time>2026-04-19T08:32:31.27Z</time></trkpt><trkpt lat="43.452739" lon="12.9965679"><ele>510.0</ele><time>2026-04-19T08:32:32.27Z</time></trkpt><trkpt lat="43.4527037" lon="12.9963692"><ele>510.0</ele><time>2026-04-19T08:32:33.268Z</time></trkpt><trkpt lat="43.4526723" lon="12.9961644"><ele>510.0</ele><time>2026-04-19T08:32:34.27Z</time></trkpt><trkpt lat="43.4526456" lon="12.9959665"><ele>510.0</ele><time>2026-04-19T08:32:35.269Z</time></trkpt><trkpt lat="43.4526274" lon="12.9957657"><ele>510.0</ele><time>2026-04-19T08:32:36.269Z</time></trkpt><trkpt lat="43.4526121" lon="12.9955697"><ele>509.75</ele><time>2026-04-19T08:32:37.269Z</time></trkpt><trkpt lat="43.4526002" lon="12.9953722"><ele>509.5</ele><time>2026-04-19T08:32:38.27Z</time></trkpt><trkpt lat="43.4525897" lon="12.9951722"><ele>509.25</ele><time>2026-04-19T08:32:39.27Z</time></trkpt><trkpt lat="43.4525856" lon="12.994971"><ele>509.0</ele><time>2026-04-19T08:32:40.27Z</time></trkpt><trkpt lat="43.4525855" lon="12.9947701"><ele>509.0</ele><time>2026-04-19T08:32:41.269Z</time></trkpt><trkpt lat="43.452588" lon="12.994571"><ele>509.0</ele><time>2026-04-19T08:32:42.269Z</time></trkpt><trkpt lat="43.4525836" lon="12.9943818"><ele>509.0</ele><time>2026-04-19T08:32:43.27Z</time></trkpt><trkpt lat="43.4525686" lon="12.9941957"><ele>509.0</ele><time>2026-04-19T08:32:44.268Z</time></trkpt><trkpt lat="43.4525344" lon="12.994017"><ele>511.3333333333333</ele><time>2026-04-19T08:32:45.269Z</time></trkpt><trkpt lat="43.4524824" lon="12.9938362"><ele>513.6666666666666</ele><time>2026-04-19T08:32:46.269Z</time></trkpt><trkpt lat="43.452418" lon="12.9936433"><ele>516.0</ele><time>2026-04-19T08:32:47.268Z</time></trkpt><trkpt lat="43.4523419" lon="12.9934374"><ele>518.0</ele><time>2026-04-19T08:32:48.27Z</time></trkpt><trkpt lat="43.4522604" lon="12.9932185"><ele>520.0</ele><time>2026-04-19T08:32:49.269Z</time></trkpt><trkpt lat="43.4521936" lon="12.9930319"><ele>522.0</ele><time>2026-04-19T08:32:50.269Z</time></trkpt><trkpt lat="43.4521295" lon="12.9928583"><ele>521.25</ele><time>2026-04-19T08:32:51.27Z</time></trkpt><trkpt lat="43.4520593" lon="12.9927096"><ele>520.5</ele><time>2026-04-19T08:32:52.269Z</time></trkpt><trkpt lat="43.4519831" lon="12.9925984"><ele>519.75</ele><time>2026-04-19T08:32:53.27Z</time></trkpt><trkpt lat="43.4518895" lon="12.9925021"><ele>519.0</ele><time>2026-04-19T08:32:54.27Z</time></trkpt><trkpt lat="43.4517751" lon="12.9924109"><ele>519.0</ele><time>2026-04-19T08:32:55.27Z</time></trkpt><trkpt lat="43.4516499" lon="12.9923178"><ele>519.0</ele><time>2026-04-19T08:32:56.27Z</time></trkpt><trkpt lat="43.4515272" lon="12.9922103"><ele>519.0</ele><time>2026-04-19T08:32:57.269Z</time></trkpt><trkpt lat="43.4514048" lon="12.9920817"><ele>519.0</ele><time>2026-04-19T08:32:58.27Z</time></trkpt><trkpt lat="43.4512939" lon="12.9919721"><ele>519.0</ele><time>2026-04-19T08:32:59.268Z</time></trkpt><trkpt lat="43.4511957" lon="12.9918699"><ele>519.0</ele><time>2026-04-19T08:33:00.268Z</time></trkpt><trkpt lat="43.4511079" lon="12.9917718"><ele>519.0</ele><time>2026-04-19T08:33:01.27Z</time></trkpt><trkpt lat="43.4510197" lon="12.9916734"><ele>519.0</ele><time>2026-04-19T08:33:02.269Z</time></trkpt><trkpt lat="43.4509361" lon="12.9915816"><ele>522.0</ele><time>2026-04-19T08:33:03.27Z</time></trkpt><trkpt lat="43.450855" lon="12.991491"><ele>525.0</ele><time>2026-04-19T08:33:04.27Z</time></trkpt><trkpt lat="43.4507776" lon="12.9914031"><ele>528.0</ele><time>2026-04-19T08:33:05.27Z</time></trkpt><trkpt lat="43.4507022" lon="12.991316"><ele>531.0</ele><time>2026-04-19T08:33:06.27Z</time></trkpt><trkpt lat="43.450629" lon="12.9912246"><ele>534.0</ele><time>2026-04-19T08:33:07.27Z</time></trkpt><trkpt lat="43.4505529" lon="12.9911282"><ele>534.0</ele><time>2026-04-19T08:33:08.27Z</time></trkpt><trkpt lat="43.4504772" lon="12.9910289"><ele>534.0</ele><time>2026-04-19T08:33:09.27Z</time></trkpt><trkpt lat="43.4503914" lon="12.9909187"><ele>534.0</ele><time>2026-04-19T08:33:10.269Z</time></trkpt><trkpt lat="43.450295" lon="12.9908069"><ele>534.0</ele><time>2026-04-19T08:33:11.27Z</time></trkpt><trkpt lat="43.4501959" lon="12.9907004"><ele>535.8</ele><time>2026-04-19T08:33:12.27Z</time></trkpt><trkpt lat="43.4501088" lon="12.9906179"><ele>537.5999999999999</ele><time>2026-04-19T08:33:13.27Z</time></trkpt><trkpt lat="43.4500327" lon="12.9905526"><ele>539.4</ele><time>2026-04-19T08:33:14.27Z</time></trkpt><trkpt lat="43.4499557" lon="12.9905005"><ele>541.1999999999999</ele><time>2026-04-19T08:33:15.27Z</time></trkpt><trkpt lat="43.4498818" lon="12.9904639"><ele>543.0</ele><time>2026-04-19T08:33:16.27Z</time></trkpt><trkpt lat="43.4497742" lon="12.9904254"><ele>543.0</ele><time>2026-04-19T08:33:18.27Z</time></trkpt><trkpt lat="43.4496935" lon="12.9903689"><ele>543.0</ele><time>2026-04-19T08:33:20.269Z</time></trkpt><trkpt lat="43.4496764" lon="12.9902788"><ele>543.0</ele><time>2026-04-19T08:33:22.269Z</time></trkpt><trkpt lat="43.4497729" lon="12.9902237"><ele>543.0</ele><time>2026-04-19T08:33:25.269Z</time></trkpt><trkpt lat="43.4499083" lon="12.9902577"><ele>543.0</ele><time>2026-04-19T08:33:27.27Z</time></trkpt><trkpt lat="43.4499927" lon="12.9902933"><ele>543.0</ele><time>2026-04-19T08:33:28.27Z</time></trkpt><trkpt lat="43.4501059" lon="12.9903433"><ele>543.0</ele><time>2026-04-19T08:33:29.27Z</time></trkpt><trkpt lat="43.4502372" lon="12.9904061"><ele>543.0</ele><time>2026-04-19T08:33:30.27Z</time></trkpt><trkpt lat="43.45035" lon="12.9904622"><ele>543.0</ele><time>2026-04-19T08:33:31.27Z</time></trkpt><trkpt lat="43.4504402" lon="12.9905083"><ele>543.0</ele><time>2026-04-19T08:33:32.269Z</time></trkpt><trkpt lat="43.4505127" lon="12.9905411"><ele>543.0</ele><time>2026-04-19T08:33:33.27Z</time></trkpt><trkpt lat="43.4506119" lon="12.9905322"><ele>543.0</ele><time>2026-04-19T08:33:35.268Z</time></trkpt><trkpt lat="43.4506388" lon="12.9904449"><ele>543.0</ele><time>2026-04-19T08:33:37.269Z</time></trkpt><trkpt lat="43.450596" lon="12.9903442"><ele>543.0</ele><time>2026-04-19T08:33:39.27Z</time></trkpt><trkpt lat="43.4504968" lon="12.990258"><ele>543.0</ele><time>2026-04-19T08:33:41.268Z</time></trkpt><trkpt lat="43.4504257" lon="12.9902044"><ele>543.0</ele><time>2026-04-19T08:33:42.269Z</time></trkpt><trkpt lat="43.4503455" lon="12.990143"><ele>543.0</ele><time>2026-04-19T08:33:43.27Z</time></trkpt><trkpt lat="43.4502569" lon="12.9900767"><ele>543.0</ele><time>2026-04-19T08:33:44.27Z</time></trkpt><trkpt lat="43.4501751" lon="12.9900132"><ele>543.0</ele><time>2026-04-19T08:33:45.269Z</time></trkpt><trkpt lat="43.4500949" lon="12.9899549"><ele>543.0</ele><time>2026-04-19T08:33:46.27Z</time></trkpt><trkpt lat="43.4500164" lon="12.9898975"><ele>546.5</ele><time>2026-04-19T08:33:47.27Z</time></trkpt><trkpt lat="43.4499392" lon="12.989839"><ele>550.0</ele><time>2026-04-19T08:33:48.269Z</time></trkpt><trkpt lat="43.4498628" lon="12.9897841"><ele>553.5</ele><time>2026-04-19T08:33:49.27Z</time></trkpt><trkpt lat="43.4497883" lon="12.9897272"><ele>557.0</ele><time>2026-04-19T08:33:50.27Z</time></trkpt><trkpt lat="43.4497122" lon="12.9896704"><ele>560.5</ele><time>2026-04-19T08:33:51.27Z</time></trkpt><trkpt lat="43.4496363" lon="12.9896109"><ele>564.0</ele><time>2026-04-19T08:33:52.269Z</time></trkpt><trkpt lat="43.4495613" lon="12.9895474"><ele>564.0</ele><time>2026-04-19T08:33:53.27Z</time></trkpt><trkpt lat="43.4494987" lon="12.9894709"><ele>564.0</ele><time>2026-04-19T08:33:54.27Z</time></trkpt><trkpt lat="43.4494498" lon="12.9893751"><ele>564.0</ele><time>2026-04-19T08:33:55.268Z</time></trkpt><trkpt lat="43.4494191" lon="12.9892639"><ele>564.0</ele><time>2026-04-19T08:33:56.27Z</time></trkpt><trkpt lat="43.4493954" lon="12.9891405"><ele>564.0</ele><time>2026-04-19T08:33:57.27Z</time></trkpt><trkpt lat="43.4493703" lon="12.9890072"><ele>564.0</ele><time>2026-04-19T08:33:58.268Z</time></trkpt><trkpt lat="43.4493364" lon="12.9888825"><ele>565.6</ele><time>2026-04-19T08:33:59.27Z</time></trkpt><trkpt lat="43.4492903" lon="12.9887636"><ele>567.2</ele><time>2026-04-19T08:34:00.269Z</time></trkpt><trkpt lat="43.4492331" lon="12.9886447"><ele>568.8000000000001</ele><time>2026-04-19T08:34:01.269Z</time></trkpt><trkpt lat="43.4491638" lon="12.9885208"><ele>570.4</ele><time>2026-04-19T08:34:02.27Z</time></trkpt><trkpt lat="43.4491159" lon="12.9883929"><ele>572.0</ele><time>2026-04-19T08:34:03.269Z</time></trkpt><trkpt lat="43.4490692" lon="12.9882627"><ele>572.0</ele><time>2026-04-19T08:34:04.27Z</time></trkpt><trkpt lat="43.4490371" lon="12.9881408"><ele>572.0</ele><time>2026-04-19T08:34:05.27Z</time></trkpt><trkpt lat="43.4489981" lon="12.9880291"><ele>572.0</ele><time>2026-04-19T08:34:06.269Z</time></trkpt><trkpt lat="43.4489466" lon="12.9879248"><ele>572.0</ele><time>2026-04-19T08:34:07.27Z</time></trkpt><trkpt lat="43.448882" lon="12.9878401"><ele>572.0</ele><time>2026-04-19T08:34:08.27Z</time></trkpt><trkpt lat="43.4488057" lon="12.987768"><ele>575.0</ele><time>2026-04-19T08:34:09.27Z</time></trkpt><trkpt lat="43.4487263" lon="12.9876924"><ele>578.0</ele><time>2026-04-19T08:34:10.269Z</time></trkpt><trkpt lat="43.4486431" lon="12.9876217"><ele>581.0</ele><time>2026-04-19T08:34:11.269Z</time></trkpt><trkpt lat="43.4485566" lon="12.9875484"><ele>584.0</ele><time>2026-04-19T08:34:12.27Z</time></trkpt><trkpt lat="43.44847" lon="12.9874737"><ele>587.0</ele><time>2026-04-19T08:34:13.27Z</time></trkpt><trkpt lat="43.4483805" lon="12.9874"><ele>587.0</ele><time>2026-04-19T08:34:14.269Z</time></trkpt><trkpt lat="43.4482909" lon="12.9873223"><ele>587.0</ele><time>2026-04-19T08:34:15.27Z</time></trkpt><trkpt lat="43.4482026" lon="12.9872417"><ele>587.0</ele><time>2026-04-19T08:34:16.27Z</time></trkpt><trkpt lat="43.4481132" lon="12.9871605"><ele>587.0</ele><time>2026-04-19T08:34:17.27Z</time></trkpt><trkpt lat="43.4480315" lon="12.987067"><ele>587.0</ele><time>2026-04-19T08:34:18.27Z</time></trkpt><trkpt lat="43.4479512" lon="12.9869703"><ele>589.0</ele><time>2026-04-19T08:34:19.269Z</time></trkpt><trkpt lat="43.447868" lon="12.9868718"><ele>591.0</ele><time>2026-04-19T08:34:20.27Z</time></trkpt><trkpt lat="43.4477826" lon="12.9867733"><ele>593.0</ele><time>2026-04-19T08:34:21.269Z</time></trkpt><trkpt lat="43.4476979" lon="12.9866702"><ele>595.0</ele><time>2026-04-19T08:34:22.269Z</time></trkpt><trkpt lat="43.4476164" lon="12.9865594"><ele>597.0</ele><time>2026-04-19T08:34:23.269Z</time></trkpt><trkpt lat="43.4475355" lon="12.986442"><ele>597.0</ele><time>2026-04-19T08:34:24.27Z</time></trkpt><trkpt lat="43.4474531" lon="12.9863242"><ele>597.0</ele><time>2026-04-19T08:34:25.27Z</time></trkpt><trkpt lat="43.4473699" lon="12.9862004"><ele>597.0</ele><time>2026-04-19T08:34:26.27Z</time></trkpt><trkpt lat="43.4472893" lon="12.9860736"><ele>597.0</ele><time>2026-04-19T08:34:27.269Z</time></trkpt><trkpt lat="43.4472095" lon="12.9859442"><ele>602.5</ele><time>2026-04-19T08:34:28.27Z</time></trkpt><trkpt lat="43.4471271" lon="12.9858158"><ele>608.0</ele><time>2026-04-19T08:34:29.27Z</time></trkpt><trkpt lat="43.4470461" lon="12.9856832"><ele>613.5</ele><time>2026-04-19T08:34:30.27Z</time></trkpt><trkpt lat="43.4469645" lon="12.9855514"><ele>619.0</ele><time>2026-04-19T08:34:31.27Z</time></trkpt><trkpt lat="43.446881" lon="12.9854216"><ele>619.0</ele><time>2026-04-19T08:34:32.269Z</time></trkpt><trkpt lat="43.4467981" lon="12.9852904"><ele>619.0</ele><time>2026-04-19T08:34:33.269Z</time></trkpt><trkpt lat="43.4467148" lon="12.9851601"><ele>619.0</ele><time>2026-04-19T08:34:34.269Z</time></trkpt><trkpt lat="43.4466328" lon="12.9850283"><ele>619.0</ele><time>2026-04-19T08:34:35.269Z</time></trkpt><trkpt lat="43.4465499" lon="12.984898"><ele>623.75</ele><time>2026-04-19T08:34:36.269Z</time></trkpt><trkpt lat="43.4464673" lon="12.9847672"><ele>628.5</ele><time>2026-04-19T08:34:37.27Z</time></trkpt><trkpt lat="43.4463841" lon="12.9846346"><ele>633.25</ele><time>2026-04-19T08:34:38.269Z</time></trkpt><trkpt lat="43.4463011" lon="12.9845012"><ele>638.0</ele><time>2026-04-19T08:34:39.27Z</time></trkpt><trkpt lat="43.4462159" lon="12.9843671"><ele>638.0</ele><time>2026-04-19T08:34:40.269Z</time></trkpt><trkpt lat="43.4461313" lon="12.9842319"><ele>638.0</ele><time>2026-04-19T08:34:41.27Z</time></trkpt><trkpt lat="43.4460438" lon="12.9840967"><ele>638.0</ele><time>2026-04-19T08:34:42.269Z</time></trkpt><trkpt lat="43.4459559" lon="12.983962"><ele>638.0</ele><time>2026-04-19T08:34:43.27Z</time></trkpt><trkpt lat="43.4458687" lon="12.9838253"><ele>632.5</ele><time>2026-04-19T08:34:44.27Z</time></trkpt><trkpt lat="43.4457828" lon="12.98369"><ele>627.0</ele><time>2026-04-19T08:34:45.269Z</time></trkpt><trkpt lat="43.4457017" lon="12.9835531"><ele>621.5</ele><time>2026-04-19T08:34:46.269Z</time></trkpt><trkpt lat="43.4456234" lon="12.9834159"><ele>616.0</ele><time>2026-04-19T08:34:47.27Z</time></trkpt><trkpt lat="43.4455486" lon="12.9832767"><ele>621.75</ele><time>2026-04-19T08:34:48.269Z</time></trkpt><trkpt lat="43.4454746" lon="12.9831317"><ele>627.5</ele><time>2026-04-19T08:34:49.269Z</time></trkpt><trkpt lat="43.4454045" lon="12.9829773"><ele>633.25</ele><time>2026-04-19T08:34:50.27Z</time></trkpt><trkpt lat="43.4453353" lon="12.9828175"><ele>639.0</ele><time>2026-04-19T08:34:51.27Z</time></trkpt><trkpt lat="43.4452667" lon="12.9826535"><ele>634.25</ele><time>2026-04-19T08:34:52.27Z</time></trkpt><trkpt lat="43.4452001" lon="12.9824904"><ele>629.5</ele><time>2026-04-19T08:34:53.269Z</time></trkpt><trkpt lat="43.445138" lon="12.9823257"><ele>624.75</ele><time>2026-04-19T08:34:54.27Z</time></trkpt><trkpt lat="43.4450768" lon="12.9821619"><ele>620.0</ele><time>2026-04-19T08:34:55.268Z</time></trkpt><trkpt lat="43.4450175" lon="12.9819963"><ele>620.0</ele><time>2026-04-19T08:34:56.268Z</time></trkpt><trkpt lat="43.4449626" lon="12.9818327"><ele>620.0</ele><time>2026-04-19T08:34:57.268Z</time></trkpt><trkpt lat="43.4449122" lon="12.9816801"><ele>620.0</ele><time>2026-04-19T08:34:58.269Z</time></trkpt><trkpt lat="43.4448666" lon="12.9815357"><ele>620.0</ele><time>2026-04-19T08:34:59.269Z</time></trkpt><trkpt lat="43.4448243" lon="12.9813959"><ele>617.2</ele><time>2026-04-19T08:35:00.269Z</time></trkpt><trkpt lat="43.4447857" lon="12.9812651"><ele>614.4</ele><time>2026-04-19T08:35:01.269Z</time></trkpt><trkpt lat="43.4447561" lon="12.9811417"><ele>611.6</ele><time>2026-04-19T08:35:02.268Z</time></trkpt><trkpt lat="43.4447387" lon="12.9810246"><ele>608.8</ele><time>2026-04-19T08:35:03.269Z</time></trkpt><trkpt lat="43.4447387" lon="12.9808995"><ele>606.0</ele><time>2026-04-19T08:35:04.269Z</time></trkpt><trkpt lat="43.4447582" lon="12.9807797"><ele>605.0</ele><time>2026-04-19T08:35:05.268Z</time></trkpt><trkpt lat="43.4447982" lon="12.9806812"><ele>604.0</ele><time>2026-04-19T08:35:06.268Z</time></trkpt><trkpt lat="43.4448518" lon="12.9805785"><ele>603.0</ele><time>2026-04-19T08:35:07.269Z</time></trkpt><trkpt lat="43.4449036" lon="12.9804683"><ele>602.0</ele><time>2026-04-19T08:35:08.269Z</time></trkpt><trkpt lat="43.4449488" lon="12.9803445"><ele>601.0</ele><time>2026-04-19T08:35:09.267Z</time></trkpt><trkpt lat="43.4449848" lon="12.9802136"><ele>601.0</ele><time>2026-04-19T08:35:10.269Z</time></trkpt><trkpt lat="43.445012" lon="12.9800608"><ele>601.0</ele><time>2026-04-19T08:35:11.268Z</time></trkpt><trkpt lat="43.4450328" lon="12.9798927"><ele>601.0</ele><time>2026-04-19T08:35:12.269Z</time></trkpt><trkpt lat="43.4450553" lon="12.9797174"><ele>601.0</ele><time>2026-04-19T08:35:13.268Z</time></trkpt><trkpt lat="43.4450786" lon="12.9795319"><ele>603.75</ele><time>2026-04-19T08:35:14.269Z</time></trkpt><trkpt lat="43.4451128" lon="12.9793612"><ele>606.5</ele><time>2026-04-19T08:35:15.268Z</time></trkpt><trkpt lat="43.4451535" lon="12.9792092"><ele>609.25</ele><time>2026-04-19T08:35:16.269Z</time></trkpt><trkpt lat="43.4451961" lon="12.9790663"><ele>612.0</ele><time>2026-04-19T08:35:17.269Z</time></trkpt><trkpt lat="43.4452254" lon="12.9789385"><ele>613.2</ele><time>2026-04-19T08:35:18.269Z</time></trkpt><trkpt lat="43.4452364" lon="12.9788133"><ele>614.4000000000001</ele><time>2026-04-19T08:35:19.268Z</time></trkpt><trkpt lat="43.4452448" lon="12.9786911"><ele>615.5999999999999</ele><time>2026-04-19T08:35:20.268Z</time></trkpt><trkpt lat="43.4452482" lon="12.9785728"><ele>616.8</ele><time>2026-04-19T08:35:21.269Z</time></trkpt><trkpt lat="43.4452532" lon="12.9784473"><ele>618.0</ele><time>2026-04-19T08:35:22.268Z</time></trkpt><trkpt lat="43.4453263" lon="12.9783321"><ele>619.1999999999999</ele><time>2026-04-19T08:35:23.269Z</time></trkpt><trkpt lat="43.445395" lon="12.978207"><ele>620.4</ele><time>2026-04-19T08:35:24.269Z</time></trkpt><trkpt lat="43.4454677" lon="12.978088"><ele>621.5999999999999</ele><time>2026-04-19T08:35:25.269Z</time></trkpt><trkpt lat="43.4455277" lon="12.9779688"><ele>622.8</ele><time>2026-04-19T08:35:26.269Z</time></trkpt><trkpt lat="43.4455719" lon="12.9778526"><ele>624.0</ele><time>2026-04-19T08:35:27.269Z</time></trkpt><trkpt lat="43.4455967" lon="12.9777347"><ele>619.2</ele><time>2026-04-19T08:35:28.269Z</time></trkpt><trkpt lat="43.4456006" lon="12.9776141"><ele>614.4</ele><time>2026-04-19T08:35:29.269Z</time></trkpt><trkpt lat="43.4455857" lon="12.9774883"><ele>609.6</ele><time>2026-04-19T08:35:30.269Z</time></trkpt><trkpt lat="43.4455591" lon="12.9773445"><ele>604.8</ele><time>2026-04-19T08:35:31.268Z</time></trkpt><trkpt lat="43.4455147" lon="12.9771741"><ele>600.0</ele><time>2026-04-19T08:35:32.269Z</time></trkpt><trkpt lat="43.4454676" lon="12.9769974"><ele>606.5</ele><time>2026-04-19T08:35:33.268Z</time></trkpt><trkpt lat="43.4454195" lon="12.9768284"><ele>613.0</ele><time>2026-04-19T08:35:34.268Z</time></trkpt><trkpt lat="43.4453685" lon="12.9766589"><ele>619.5</ele><time>2026-04-19T08:35:35.268Z</time></trkpt><trkpt lat="43.4453185" lon="12.9764966"><ele>626.0</ele><time>2026-04-19T08:35:36.269Z</time></trkpt><trkpt lat="43.4452611" lon="12.9763399"><ele>626.0</ele><time>2026-04-19T08:35:37.269Z</time></trkpt><trkpt lat="43.4452011" lon="12.9761862"><ele>626.0</ele><time>2026-04-19T08:35:38.269Z</time></trkpt><trkpt lat="43.4451388" lon="12.9760381"><ele>626.0</ele><time>2026-04-19T08:35:39.268Z</time></trkpt><trkpt lat="43.4450699" lon="12.9758886"><ele>626.0</ele><time>2026-04-19T08:35:40.269Z</time></trkpt><trkpt lat="43.4449964" lon="12.9757381"><ele>624.75</ele><time>2026-04-19T08:35:41.269Z</time></trkpt><trkpt lat="43.4449162" lon="12.9755907"><ele>623.5</ele><time>2026-04-19T08:35:42.269Z</time></trkpt><trkpt lat="43.4448312" lon="12.9754491"><ele>622.25</ele><time>2026-04-19T08:35:43.269Z</time></trkpt><trkpt lat="43.444746" lon="12.9753115"><ele>621.0</ele><time>2026-04-19T08:35:44.267Z</time></trkpt><trkpt lat="43.4446619" lon="12.9751832"><ele>622.8</ele><time>2026-04-19T08:35:45.269Z</time></trkpt><trkpt lat="43.4445815" lon="12.9750733"><ele>624.6</ele><time>2026-04-19T08:35:46.268Z</time></trkpt><trkpt lat="43.4445004" lon="12.9749689"><ele>626.4</ele><time>2026-04-19T08:35:47.269Z</time></trkpt><trkpt lat="43.4444171" lon="12.9748708"><ele>628.2</ele><time>2026-04-19T08:35:48.269Z</time></trkpt><trkpt lat="43.4443308" lon="12.974773"><ele>630.0</ele><time>2026-04-19T08:35:49.268Z</time></trkpt><trkpt lat="43.4442447" lon="12.9746696"><ele>630.0</ele><time>2026-04-19T08:35:50.269Z</time></trkpt><trkpt lat="43.4441578" lon="12.9745611"><ele>630.0</ele><time>2026-04-19T08:35:51.268Z</time></trkpt><trkpt lat="43.4440707" lon="12.9744542"><ele>630.0</ele><time>2026-04-19T08:35:52.269Z</time></trkpt><trkpt lat="43.4439866" lon="12.974356"><ele>630.0</ele><time>2026-04-19T08:35:53.269Z</time></trkpt><trkpt lat="43.4439072" lon="12.974272"><ele>630.0</ele><time>2026-04-19T08:35:54.268Z</time></trkpt><trkpt lat="43.4438329" lon="12.974198"><ele>630.5</ele><time>2026-04-19T08:35:55.269Z</time></trkpt><trkpt lat="43.4437623" lon="12.97413"><ele>631.0</ele><time>2026-04-19T08:35:56.269Z</time></trkpt><trkpt lat="43.4436954" lon="12.9740654"><ele>631.5</ele><time>2026-04-19T08:35:57.269Z</time></trkpt><trkpt lat="43.4436302" lon="12.9740054"><ele>632.0</ele><time>2026-04-19T08:35:58.269Z</time></trkpt><trkpt lat="43.4435714" lon="12.9739484"><ele>632.5</ele><time>2026-04-19T08:35:59.268Z</time></trkpt><trkpt lat="43.4434817" lon="12.9738642"><ele>633.0</ele><time>2026-04-19T08:36:01.269Z</time></trkpt><trkpt lat="43.4434278" lon="12.9738166"><ele>633.0</ele><time>2026-04-19T08:36:04.269Z</time></trkpt><trkpt lat="43.4433723" lon="12.9737602"><ele>633.0</ele><time>2026-04-19T08:36:20.268Z</time></trkpt><trkpt lat="43.4432706" lon="12.9737357"><ele>633.0</ele><time>2026-04-19T08:36:22.269Z</time></trkpt><trkpt lat="43.4432057" lon="12.9737465"><ele>633.0</ele><time>2026-04-19T08:36:23.269Z</time></trkpt><trkpt lat="43.4431271" lon="12.9737673"><ele>633.0</ele><time>2026-04-19T08:36:24.268Z</time></trkpt><trkpt lat="43.4430463" lon="12.9737906"><ele>633.0</ele><time>2026-04-19T08:36:25.269Z</time></trkpt><trkpt lat="43.4429556" lon="12.9738213"><ele>633.1999999999999</ele><time>2026-04-19T08:36:26.269Z</time></trkpt><trkpt lat="43.442865" lon="12.9738511"><ele>633.4</ele><time>2026-04-19T08:36:27.269Z</time></trkpt><trkpt lat="43.4427706" lon="12.9738803"><ele>633.5999999999999</ele><time>2026-04-19T08:36:28.269Z</time></trkpt><trkpt lat="43.442669" lon="12.9739152"><ele>633.8</ele><time>2026-04-19T08:36:29.269Z</time></trkpt><trkpt lat="43.4425608" lon="12.9739542"><ele>634.0</ele><time>2026-04-19T08:36:30.269Z</time></trkpt><trkpt lat="43.442452" lon="12.9739959"><ele>634.0</ele><time>2026-04-19T08:36:31.268Z</time></trkpt><trkpt lat="43.4423438" lon="12.9740346"><ele>634.0</ele><time>2026-04-19T08:36:32.268Z</time></trkpt><trkpt lat="43.4422384" lon="12.9740719"><ele>634.0</ele><time>2026-04-19T08:36:33.269Z</time></trkpt><trkpt lat="43.4421348" lon="12.974108"><ele>634.0</ele><time>2026-04-19T08:36:34.268Z</time></trkpt><trkpt lat="43.4420332" lon="12.9741438"><ele>634.0</ele><time>2026-04-19T08:36:35.269Z</time></trkpt><trkpt lat="43.4419347" lon="12.9741778"><ele>635.4</ele><time>2026-04-19T08:36:36.269Z</time></trkpt><trkpt lat="43.4418406" lon="12.974209"><ele>636.8</ele><time>2026-04-19T08:36:37.269Z</time></trkpt><trkpt lat="43.4417561" lon="12.9742345"><ele>638.1999999999999</ele><time>2026-04-19T08:36:38.268Z</time></trkpt><trkpt lat="43.441687" lon="12.9742527"><ele>639.5999999999999</ele><time>2026-04-19T08:36:39.269Z</time></trkpt><trkpt lat="43.441581" lon="12.9743072"><ele>641.0</ele><time>2026-04-19T08:36:41.268Z</time></trkpt><trkpt lat="43.4415191" lon="12.9744253"><ele>641.0</ele><time>2026-04-19T08:36:43.269Z</time></trkpt><trkpt lat="43.4415241" lon="12.9745992"><ele>641.0</ele><time>2026-04-19T08:36:45.268Z</time></trkpt><trkpt lat="43.4415409" lon="12.9747046"><ele>641.0</ele><time>2026-04-19T08:36:46.268Z</time></trkpt><trkpt lat="43.441555" lon="12.9748118"><ele>641.0</ele><time>2026-04-19T08:36:47.268Z</time></trkpt><trkpt lat="43.441564" lon="12.9749128"><ele>641.0</ele><time>2026-04-19T08:36:48.268Z</time></trkpt><trkpt lat="43.441567" lon="12.9750125"><ele>641.0</ele><time>2026-04-19T08:36:49.268Z</time></trkpt><trkpt lat="43.4415391" lon="12.9751725"><ele>643.0</ele><time>2026-04-19T08:36:51.269Z</time></trkpt><trkpt lat="43.4414553" lon="12.9752783"><ele>645.0</ele><time>2026-04-19T08:36:53.269Z</time></trkpt><trkpt lat="43.441389" lon="12.9753105"><ele>647.0</ele><time>2026-04-19T08:36:54.269Z</time></trkpt><trkpt lat="43.4413051" lon="12.9753377"><ele>649.0</ele><time>2026-04-19T08:36:55.269Z</time></trkpt><trkpt lat="43.4412147" lon="12.9753602"><ele>651.0</ele><time>2026-04-19T08:36:56.269Z</time></trkpt><trkpt lat="43.4411137" lon="12.9753765"><ele>651.5999999999999</ele><time>2026-04-19T08:36:57.269Z</time></trkpt><trkpt lat="43.4410201" lon="12.9753877"><ele>652.2</ele><time>2026-04-19T08:36:58.269Z</time></trkpt><trkpt lat="43.4409192" lon="12.9753901"><ele>652.8</ele><time>2026-04-19T08:36:59.269Z</time></trkpt><trkpt lat="43.4408187" lon="12.9753877"><ele>653.4000000000001</ele><time>2026-04-19T08:37:00.269Z</time></trkpt><trkpt lat="43.4407148" lon="12.9753812"><ele>654.0</ele><time>2026-04-19T08:37:01.269Z</time></trkpt><trkpt lat="43.4406111" lon="12.975377"><ele>654.0</ele><time>2026-04-19T08:37:02.269Z</time></trkpt><trkpt lat="43.44051" lon="12.9753717"><ele>654.0</ele><time>2026-04-19T08:37:03.269Z</time></trkpt><trkpt lat="43.4404105" lon="12.9753644"><ele>654.0</ele><time>2026-04-19T08:37:04.269Z</time></trkpt><trkpt lat="43.4403121" lon="12.9753458"><ele>654.0</ele><time>2026-04-19T08:37:05.269Z</time></trkpt><trkpt lat="43.4402106" lon="12.97533"><ele>654.0</ele><time>2026-04-19T08:37:06.269Z</time></trkpt><trkpt lat="43.4401061" lon="12.9753026"><ele>655.8000000000001</ele><time>2026-04-19T08:37:07.268Z</time></trkpt><trkpt lat="43.4400007" lon="12.9752739"><ele>657.6</ele><time>2026-04-19T08:37:08.269Z</time></trkpt><trkpt lat="43.4398951" lon="12.9752402"><ele>659.4</ele><time>2026-04-19T08:37:09.269Z</time></trkpt><trkpt lat="43.4397931" lon="12.9752045"><ele>661.2</ele><time>2026-04-19T08:37:10.269Z</time></trkpt><trkpt lat="43.4396926" lon="12.9751673"><ele>663.0</ele><time>2026-04-19T08:37:11.269Z</time></trkpt><trkpt lat="43.4395934" lon="12.9751278"><ele>665.0</ele><time>2026-04-19T08:37:12.269Z</time></trkpt><trkpt lat="43.4394982" lon="12.9750883"><ele>667.0</ele><time>2026-04-19T08:37:13.269Z</time></trkpt><trkpt lat="43.4394051" lon="12.9750479"><ele>669.0</ele><time>2026-04-19T08:37:14.268Z</time></trkpt><trkpt lat="43.4393105" lon="12.975011"><ele>671.0</ele><time>2026-04-19T08:37:15.269Z</time></trkpt><trkpt lat="43.4392131" lon="12.9749707"><ele>673.0</ele><time>2026-04-19T08:37:16.268Z</time></trkpt><trkpt lat="43.4391159" lon="12.9749312"><ele>665.8</ele><time>2026-04-19T08:37:17.268Z</time></trkpt><trkpt lat="43.43902" lon="12.974902"><ele>658.5999999999999</ele><time>2026-04-19T08:37:18.269Z</time></trkpt><trkpt lat="43.4389211" lon="12.9748863"><ele>651.4000000000001</ele><time>2026-04-19T08:37:19.268Z</time></trkpt><trkpt lat="43.4388203" lon="12.9748844"><ele>644.2</ele><time>2026-04-19T08:37:20.269Z</time></trkpt><trkpt lat="43.4387132" lon="12.9748983"><ele>637.0</ele><time>2026-04-19T08:37:21.269Z</time></trkpt><trkpt lat="43.4386013" lon="12.9749186"><ele>636.75</ele><time>2026-04-19T08:37:22.269Z</time></trkpt><trkpt lat="43.438484" lon="12.9749364"><ele>636.5</ele><time>2026-04-19T08:37:23.268Z</time></trkpt><trkpt lat="43.4383671" lon="12.9749513"><ele>636.25</ele><time>2026-04-19T08:37:24.268Z</time></trkpt><trkpt lat="43.4382555" lon="12.974963"><ele>636.0</ele><time>2026-04-19T08:37:25.269Z</time></trkpt><trkpt lat="43.438147" lon="12.9749747"><ele>636.0</ele><time>2026-04-19T08:37:26.269Z</time></trkpt><trkpt lat="43.4380443" lon="12.9749808"><ele>636.0</ele><time>2026-04-19T08:37:27.268Z</time></trkpt><trkpt lat="43.4379488" lon="12.9749572"><ele>636.0</ele><time>2026-04-19T08:37:28.268Z</time></trkpt><trkpt lat="43.4378632" lon="12.9749063"><ele>636.0</ele><time>2026-04-19T08:37:29.269Z</time></trkpt><trkpt lat="43.4377863" lon="12.9748356"><ele>636.0</ele><time>2026-04-19T08:37:30.267Z</time></trkpt><trkpt lat="43.4377131" lon="12.9747563"><ele>639.0</ele><time>2026-04-19T08:37:31.269Z</time></trkpt><trkpt lat="43.4376338" lon="12.974672"><ele>642.0</ele><time>2026-04-19T08:37:32.269Z</time></trkpt><trkpt lat="43.4375573" lon="12.9745892"><ele>645.0</ele><time>2026-04-19T08:37:33.269Z</time></trkpt><trkpt lat="43.4374782" lon="12.9745084"><ele>648.0</ele><time>2026-04-19T08:37:34.269Z</time></trkpt><trkpt lat="43.4373982" lon="12.9744386"><ele>651.0</ele><time>2026-04-19T08:37:35.269Z</time></trkpt><trkpt lat="43.4373191" lon="12.9743817"><ele>651.0</ele><time>2026-04-19T08:37:36.268Z</time></trkpt><trkpt lat="43.4372408" lon="12.9743349"><ele>651.0</ele><time>2026-04-19T08:37:37.268Z</time></trkpt><trkpt lat="43.4371574" lon="12.9743045"><ele>651.0</ele><time>2026-04-19T08:37:38.268Z</time></trkpt><trkpt lat="43.4370694" lon="12.9742982"><ele>651.0</ele><time>2026-04-19T08:37:39.268Z</time></trkpt><trkpt lat="43.4369807" lon="12.974319"><ele>651.0</ele><time>2026-04-19T08:37:40.269Z</time></trkpt><trkpt lat="43.4368956" lon="12.9743633"><ele>651.0</ele><time>2026-04-19T08:37:41.269Z</time></trkpt><trkpt lat="43.4368194" lon="12.974425"><ele>651.6666666666666</ele><time>2026-04-19T08:37:42.268Z</time></trkpt><trkpt lat="43.4367551" lon="12.9744989"><ele>652.3333333333334</ele><time>2026-04-19T08:37:43.267Z</time></trkpt><trkpt lat="43.4366952" lon="12.9745741"><ele>653.0</ele><time>2026-04-19T08:37:44.267Z</time></trkpt><trkpt lat="43.4366343" lon="12.9746388"><ele>653.6666666666667</ele><time>2026-04-19T08:37:45.269Z</time></trkpt><trkpt lat="43.43657" lon="12.9746906"><ele>654.3333333333334</ele><time>2026-04-19T08:37:46.269Z</time></trkpt><trkpt lat="43.4365054" lon="12.97473"><ele>655.0</ele><time>2026-04-19T08:37:47.269Z</time></trkpt><trkpt lat="43.4364374" lon="12.9747468"><ele>655.0</ele><time>2026-04-19T08:37:48.268Z</time></trkpt><trkpt lat="43.4363747" lon="12.9747285"><ele>655.0</ele><time>2026-04-19T08:37:49.269Z</time></trkpt><trkpt lat="43.4363128" lon="12.9746986"><ele>655.0</ele><time>2026-04-19T08:37:50.269Z</time></trkpt><trkpt lat="43.4362481" lon="12.9746491"><ele>655.0</ele><time>2026-04-19T08:37:51.268Z</time></trkpt><trkpt lat="43.4361809" lon="12.974591"><ele>655.0</ele><time>2026-04-19T08:37:52.269Z</time></trkpt><trkpt lat="43.4361124" lon="12.9745257"><ele>655.0</ele><time>2026-04-19T08:37:53.268Z</time></trkpt><trkpt lat="43.4360452" lon="12.9744547"><ele>655.3333333333334</ele><time>2026-04-19T08:37:54.268Z</time></trkpt><trkpt lat="43.4359722" lon="12.9743922"><ele>655.6666666666667</ele><time>2026-04-19T08:37:55.269Z</time></trkpt><trkpt lat="43.4359" lon="12.9743359"><ele>656.0</ele><time>2026-04-19T08:37:56.268Z</time></trkpt><trkpt lat="43.4358265" lon="12.9742889"><ele>656.3333333333334</ele><time>2026-04-19T08:37:57.268Z</time></trkpt><trkpt lat="43.435752" lon="12.9742468"><ele>656.6666666666666</ele><time>2026-04-19T08:37:58.267Z</time></trkpt><trkpt lat="43.435679" lon="12.9742054"><ele>657.0</ele><time>2026-04-19T08:37:59.267Z</time></trkpt><trkpt lat="43.4356062" lon="12.9741753"><ele>657.5714285714286</ele><time>2026-04-19T08:38:00.269Z</time></trkpt><trkpt lat="43.4355337" lon="12.9741544"><ele>658.1428571428572</ele><time>2026-04-19T08:38:01.269Z</time></trkpt><trkpt lat="43.4354624" lon="12.9741492"><ele>658.7142857142858</ele><time>2026-04-19T08:38:02.268Z</time></trkpt><trkpt lat="43.4353936" lon="12.9741558"><ele>659.2857142857142</ele><time>2026-04-19T08:38:03.268Z</time></trkpt><trkpt lat="43.4353317" lon="12.9741758"><ele>659.8571428571429</ele><time>2026-04-19T08:38:04.269Z</time></trkpt><trkpt lat="43.4352693" lon="12.974209"><ele>660.4285714285714</ele><time>2026-04-19T08:38:05.269Z</time></trkpt><trkpt lat="43.4352049" lon="12.9742403"><ele>661.0</ele><time>2026-04-19T08:38:06.269Z</time></trkpt><trkpt lat="43.4351361" lon="12.9742364"><ele>661.0</ele><time>2026-04-19T08:38:07.268Z</time></trkpt><trkpt lat="43.435074" lon="12.974205"><ele>661.0</ele><time>2026-04-19T08:38:08.269Z</time></trkpt><trkpt lat="43.4350264" lon="12.9741433"><ele>661.0</ele><time>2026-04-19T08:38:09.269Z</time></trkpt><trkpt lat="43.4349855" lon="12.9740547"><ele>661.0</ele><time>2026-04-19T08:38:10.268Z</time></trkpt><trkpt lat="43.4349449" lon="12.9739472"><ele>661.0</ele><time>2026-04-19T08:38:11.268Z</time></trkpt><trkpt lat="43.4348961" lon="12.9738209"><ele>661.0</ele><time>2026-04-19T08:38:12.268Z</time></trkpt><trkpt lat="43.4348413" lon="12.9736867"><ele>655.4</ele><time>2026-04-19T08:38:13.269Z</time></trkpt><trkpt lat="43.4347879" lon="12.9735536"><ele>649.8</ele><time>2026-04-19T08:38:14.269Z</time></trkpt><trkpt lat="43.4347491" lon="12.9734093"><ele>644.1999999999999</ele><time>2026-04-19T08:38:15.269Z</time></trkpt><trkpt lat="43.4347355" lon="12.9732688"><ele>638.5999999999999</ele><time>2026-04-19T08:38:16.268Z</time></trkpt><trkpt lat="43.4347233" lon="12.9731261"><ele>633.0</ele><time>2026-04-19T08:38:17.268Z</time></trkpt><trkpt lat="43.4346938" lon="12.9729985"><ele>632.0</ele><time>2026-04-19T08:38:18.268Z</time></trkpt><trkpt lat="43.4346675" lon="12.9728713"><ele>631.0</ele><time>2026-04-19T08:38:19.269Z</time></trkpt><trkpt lat="43.434628" lon="12.9727499"><ele>630.0</ele><time>2026-04-19T08:38:20.269Z</time></trkpt><trkpt lat="43.4345724" lon="12.9726205"><ele>629.0</ele><time>2026-04-19T08:38:21.269Z</time></trkpt><trkpt lat="43.4345114" lon="12.9724921"><ele>628.0</ele><time>2026-04-19T08:38:22.268Z</time></trkpt><trkpt lat="43.4344444" lon="12.9723801"><ele>628.0</ele><time>2026-04-19T08:38:23.269Z</time></trkpt><trkpt lat="43.4343747" lon="12.9722753"><ele>628.0</ele><time>2026-04-19T08:38:24.269Z</time></trkpt><trkpt lat="43.4343029" lon="12.9721707"><ele>628.0</ele><time>2026-04-19T08:38:25.269Z</time></trkpt><trkpt lat="43.4342303" lon="12.9720628"><ele>628.0</ele><time>2026-04-19T08:38:26.268Z</time></trkpt><trkpt lat="43.4341598" lon="12.9719381"><ele>628.0</ele><time>2026-04-19T08:38:27.269Z</time></trkpt><trkpt lat="43.4340902" lon="12.9718017"><ele>620.75</ele><time>2026-04-19T08:38:28.268Z</time></trkpt><trkpt lat="43.434024" lon="12.9716654"><ele>613.5</ele><time>2026-04-19T08:38:29.268Z</time></trkpt><trkpt lat="43.4339595" lon="12.9715334"><ele>606.25</ele><time>2026-04-19T08:38:30.269Z</time></trkpt><trkpt lat="43.4338975" lon="12.9714061"><ele>599.0</ele><time>2026-04-19T08:38:31.268Z</time></trkpt><trkpt lat="43.4338377" lon="12.9712826"><ele>602.8</ele><time>2026-04-19T08:38:32.268Z</time></trkpt><trkpt lat="43.433783" lon="12.9711581"><ele>606.5999999999999</ele><time>2026-04-19T08:38:33.268Z</time></trkpt><trkpt lat="43.4337368" lon="12.9710206"><ele>610.4</ele><time>2026-04-19T08:38:34.268Z</time></trkpt><trkpt lat="43.4336998" lon="12.9708817"><ele>614.1999999999999</ele><time>2026-04-19T08:38:35.269Z</time></trkpt><trkpt lat="43.4336644" lon="12.9707433"><ele>618.0</ele><time>2026-04-19T08:38:36.268Z</time></trkpt><trkpt lat="43.4336255" lon="12.9706046"><ele>618.0</ele><time>2026-04-19T08:38:37.268Z</time></trkpt><trkpt lat="43.4335806" lon="12.970465"><ele>618.0</ele><time>2026-04-19T08:38:38.268Z</time></trkpt><trkpt lat="43.4335279" lon="12.9703284"><ele>618.0</ele><time>2026-04-19T08:38:39.269Z</time></trkpt><trkpt lat="43.4334719" lon="12.9701874"><ele>618.0</ele><time>2026-04-19T08:38:40.269Z</time></trkpt><trkpt lat="43.4334102" lon="12.97005"><ele>612.25</ele><time>2026-04-19T08:38:41.269Z</time></trkpt><trkpt lat="43.4333447" lon="12.9699127"><ele>606.5</ele><time>2026-04-19T08:38:42.269Z</time></trkpt><trkpt lat="43.4332784" lon="12.9697725"><ele>600.75</ele><time>2026-04-19T08:38:43.268Z</time></trkpt><trkpt lat="43.4332108" lon="12.9696381"><ele>595.0</ele><time>2026-04-19T08:38:44.269Z</time></trkpt><trkpt lat="43.4331453" lon="12.9695071"><ele>595.0</ele><time>2026-04-19T08:38:45.269Z</time></trkpt><trkpt lat="43.4330822" lon="12.969377"><ele>595.0</ele><time>2026-04-19T08:38:46.268Z</time></trkpt><trkpt lat="43.4330201" lon="12.9692481"><ele>595.0</ele><time>2026-04-19T08:38:47.268Z</time></trkpt><trkpt lat="43.4329594" lon="12.9691176"><ele>595.0</ele><time>2026-04-19T08:38:48.269Z</time></trkpt><trkpt lat="43.4328992" lon="12.9689866"><ele>595.25</ele><time>2026-04-19T08:38:49.269Z</time></trkpt><trkpt lat="43.4328376" lon="12.9688554"><ele>595.5</ele><time>2026-04-19T08:38:50.269Z</time></trkpt><trkpt lat="43.4327777" lon="12.9687236"><ele>595.75</ele><time>2026-04-19T08:38:51.269Z</time></trkpt><trkpt lat="43.4327196" lon="12.9685897"><ele>596.0</ele><time>2026-04-19T08:38:52.268Z</time></trkpt><trkpt lat="43.4326618" lon="12.9684558"><ele>592.8</ele><time>2026-04-19T08:38:53.268Z</time></trkpt><trkpt lat="43.4326074" lon="12.9683216"><ele>589.6</ele><time>2026-04-19T08:38:54.268Z</time></trkpt><trkpt lat="43.432552" lon="12.9681895"><ele>586.4</ele><time>2026-04-19T08:38:55.269Z</time></trkpt><trkpt lat="43.4324969" lon="12.96806"><ele>583.2</ele><time>2026-04-19T08:38:56.268Z</time></trkpt><trkpt lat="43.432445" lon="12.9679452"><ele>580.0</ele><time>2026-04-19T08:38:57.268Z</time></trkpt><trkpt lat="43.4323957" lon="12.9678394"><ele>580.0</ele><time>2026-04-19T08:38:58.269Z</time></trkpt><trkpt lat="43.4323438" lon="12.9677322"><ele>580.0</ele><time>2026-04-19T08:38:59.269Z</time></trkpt><trkpt lat="43.4322969" lon="12.967634"><ele>580.0</ele><time>2026-04-19T08:39:00.268Z</time></trkpt><trkpt lat="43.4322536" lon="12.9675419"><ele>580.0</ele><time>2026-04-19T08:39:01.269Z</time></trkpt><trkpt lat="43.4322142" lon="12.9674678"><ele>580.0</ele><time>2026-04-19T08:39:02.268Z</time></trkpt><trkpt lat="43.4321219" lon="12.9673989"><ele>580.0</ele><time>2026-04-19T08:39:04.269Z</time></trkpt><trkpt lat="43.4320351" lon="12.9674568"><ele>574.6</ele><time>2026-04-19T08:39:06.268Z</time></trkpt><trkpt lat="43.4319871" lon="12.9676258"><ele>569.2</ele><time>2026-04-19T08:39:08.268Z</time></trkpt><trkpt lat="43.4319695" lon="12.9677406"><ele>563.8</ele><time>2026-04-19T08:39:09.269Z</time></trkpt><trkpt lat="43.431949" lon="12.967864"><ele>558.4</ele><time>2026-04-19T08:39:10.269Z</time></trkpt><trkpt lat="43.4319155" lon="12.9680018"><ele>553.0</ele><time>2026-04-19T08:39:11.269Z</time></trkpt><trkpt lat="43.4318696" lon="12.9681632"><ele>553.0</ele><time>2026-04-19T08:39:12.268Z</time></trkpt><trkpt lat="43.4318192" lon="12.9683235"><ele>553.0</ele><time>2026-04-19T08:39:13.269Z</time></trkpt><trkpt lat="43.4317699" lon="12.9684815"><ele>553.0</ele><time>2026-04-19T08:39:14.269Z</time></trkpt><trkpt lat="43.4317145" lon="12.9686392"><ele>553.0</ele><time>2026-04-19T08:39:15.268Z</time></trkpt><trkpt lat="43.4316608" lon="12.9687911"><ele>557.0</ele><time>2026-04-19T08:39:16.269Z</time></trkpt><trkpt lat="43.4316049" lon="12.9689383"><ele>561.0</ele><time>2026-04-19T08:39:17.269Z</time></trkpt><trkpt lat="43.4315464" lon="12.9690816"><ele>565.0</ele><time>2026-04-19T08:39:18.268Z</time></trkpt><trkpt lat="43.4314863" lon="12.9692179"><ele>569.0</ele><time>2026-04-19T08:39:19.269Z</time></trkpt><trkpt lat="43.4314249" lon="12.96935"><ele>573.5</ele><time>2026-04-19T08:39:20.269Z</time></trkpt><trkpt lat="43.431364" lon="12.9694845"><ele>578.0</ele><time>2026-04-19T08:39:21.268Z</time></trkpt><trkpt lat="43.4313021" lon="12.9696248"><ele>582.5</ele><time>2026-04-19T08:39:22.268Z</time></trkpt><trkpt lat="43.4312361" lon="12.9697716"><ele>587.0</ele><time>2026-04-19T08:39:23.269Z</time></trkpt><trkpt lat="43.4311695" lon="12.9699155"><ele>582.0</ele><time>2026-04-19T08:39:24.269Z</time></trkpt><trkpt lat="43.431104" lon="12.9700526"><ele>577.0</ele><time>2026-04-19T08:39:25.268Z</time></trkpt><trkpt lat="43.4310386" lon="12.9701817"><ele>572.0</ele><time>2026-04-19T08:39:26.268Z</time></trkpt><trkpt lat="43.4309697" lon="12.9703004"><ele>567.0</ele><time>2026-04-19T08:39:27.269Z</time></trkpt><trkpt lat="43.430896" lon="12.9704092"><ele>567.0</ele><time>2026-04-19T08:39:28.268Z</time></trkpt><trkpt lat="43.4308145" lon="12.9705074"><ele>567.0</ele><time>2026-04-19T08:39:29.268Z</time></trkpt><trkpt lat="43.4307286" lon="12.970587"><ele>567.0</ele><time>2026-04-19T08:39:30.267Z</time></trkpt><trkpt lat="43.4306452" lon="12.9706557"><ele>567.0</ele><time>2026-04-19T08:39:31.268Z</time></trkpt><trkpt lat="43.4305677" lon="12.9707269"><ele>567.0</ele><time>2026-04-19T08:39:32.268Z</time></trkpt><trkpt lat="43.4304981" lon="12.9708082"><ele>564.0</ele><time>2026-04-19T08:39:33.269Z</time></trkpt><trkpt lat="43.4304362" lon="12.9709109"><ele>561.0</ele><time>2026-04-19T08:39:34.268Z</time></trkpt><trkpt lat="43.4303898" lon="12.9710299"><ele>558.0</ele><time>2026-04-19T08:39:35.269Z</time></trkpt><trkpt lat="43.4303581" lon="12.9711638"><ele>555.0</ele><time>2026-04-19T08:39:36.268Z</time></trkpt><trkpt lat="43.4303349" lon="12.9713086"><ele>552.0</ele><time>2026-04-19T08:39:37.269Z</time></trkpt><trkpt lat="43.4303156" lon="12.9714518"><ele>552.0</ele><time>2026-04-19T08:39:38.269Z</time></trkpt><trkpt lat="43.4302982" lon="12.9715844"><ele>552.0</ele><time>2026-04-19T08:39:39.269Z</time></trkpt><trkpt lat="43.4302779" lon="12.9717069"><ele>552.0</ele><time>2026-04-19T08:39:40.269Z</time></trkpt><trkpt lat="43.4302536" lon="12.9718194"><ele>552.0</ele><time>2026-04-19T08:39:41.268Z</time></trkpt><trkpt lat="43.4302243" lon="12.9719226"><ele>552.0</ele><time>2026-04-19T08:39:42.269Z</time></trkpt><trkpt lat="43.4301828" lon="12.972011"><ele>552.0</ele><time>2026-04-19T08:39:43.269Z</time></trkpt><trkpt lat="43.4301241" lon="12.9720731"><ele>555.6666666666666</ele><time>2026-04-19T08:39:44.268Z</time></trkpt><trkpt lat="43.4300562" lon="12.9720936"><ele>559.3333333333334</ele><time>2026-04-19T08:39:45.268Z</time></trkpt><trkpt lat="43.429985" lon="12.9720865"><ele>563.0</ele><time>2026-04-19T08:39:46.269Z</time></trkpt><trkpt lat="43.4299067" lon="12.9720555"><ele>566.6666666666667</ele><time>2026-04-19T08:39:47.268Z</time></trkpt><trkpt lat="43.4298203" lon="12.9720076"><ele>570.3333333333334</ele><time>2026-04-19T08:39:48.269Z</time></trkpt><trkpt lat="43.4297297" lon="12.9719556"><ele>574.0</ele><time>2026-04-19T08:39:49.269Z</time></trkpt><trkpt lat="43.4296481" lon="12.9718885"><ele>573.5</ele><time>2026-04-19T08:39:50.269Z</time></trkpt><trkpt lat="43.4295711" lon="12.9717898"><ele>573.0</ele><time>2026-04-19T08:39:51.268Z</time></trkpt><trkpt lat="43.4295048" lon="12.9716653"><ele>572.5</ele><time>2026-04-19T08:39:52.269Z</time></trkpt><trkpt lat="43.4294453" lon="12.9715165"><ele>572.0</ele><time>2026-04-19T08:39:53.269Z</time></trkpt><trkpt lat="43.4293933" lon="12.9713654"><ele>572.0</ele><time>2026-04-19T08:39:54.267Z</time></trkpt><trkpt lat="43.4293517" lon="12.9712142"><ele>572.0</ele><time>2026-04-19T08:39:55.269Z</time></trkpt><trkpt lat="43.4293155" lon="12.9710638"><ele>572.0</ele><time>2026-04-19T08:39:56.269Z</time></trkpt><trkpt lat="43.4292746" lon="12.9709171"><ele>572.0</ele><time>2026-04-19T08:39:57.269Z</time></trkpt><trkpt lat="43.4292252" lon="12.9707724"><ele>566.5</ele><time>2026-04-19T08:39:58.268Z</time></trkpt><trkpt lat="43.4291757" lon="12.9706266"><ele>561.0</ele><time>2026-04-19T08:39:59.269Z</time></trkpt><trkpt lat="43.4291265" lon="12.9704807"><ele>555.5</ele><time>2026-04-19T08:40:00.269Z</time></trkpt><trkpt lat="43.4290719" lon="12.9703398"><ele>550.0</ele><time>2026-04-19T08:40:01.269Z</time></trkpt><trkpt lat="43.429013" lon="12.9702003"><ele>550.0</ele><time>2026-04-19T08:40:02.269Z</time></trkpt><trkpt lat="43.4289521" lon="12.970064"><ele>550.0</ele><time>2026-04-19T08:40:03.268Z</time></trkpt><trkpt lat="43.4288921" lon="12.9699244"><ele>550.0</ele><time>2026-04-19T08:40:04.269Z</time></trkpt><trkpt lat="43.4288317" lon="12.9697837"><ele>550.0</ele><time>2026-04-19T08:40:05.268Z</time></trkpt><trkpt lat="43.4287702" lon="12.9696429"><ele>548.0</ele><time>2026-04-19T08:40:06.268Z</time></trkpt><trkpt lat="43.4287085" lon="12.9695002"><ele>546.0</ele><time>2026-04-19T08:40:07.269Z</time></trkpt><trkpt lat="43.4286448" lon="12.9693591"><ele>544.0</ele><time>2026-04-19T08:40:08.269Z</time></trkpt><trkpt lat="43.4285766" lon="12.9692221"><ele>542.0</ele><time>2026-04-19T08:40:09.268Z</time></trkpt><trkpt lat="43.4285095" lon="12.9690849"><ele>542.0</ele><time>2026-04-19T08:40:10.268Z</time></trkpt><trkpt lat="43.4284456" lon="12.9689433"><ele>542.0</ele><time>2026-04-19T08:40:11.269Z</time></trkpt><trkpt lat="43.4283899" lon="12.9687951"><ele>542.0</ele><time>2026-04-19T08:40:12.269Z</time></trkpt><trkpt lat="43.4283428" lon="12.9686417"><ele>542.0</ele><time>2026-04-19T08:40:13.268Z</time></trkpt><trkpt lat="43.4283097" lon="12.9684824"><ele>536.25</ele><time>2026-04-19T08:40:14.268Z</time></trkpt><trkpt lat="43.428289" lon="12.9683216"><ele>530.5</ele><time>2026-04-19T08:40:15.269Z</time></trkpt><trkpt lat="43.4282679" lon="12.9681627"><ele>524.75</ele><time>2026-04-19T08:40:16.268Z</time></trkpt><trkpt lat="43.428237" lon="12.9679998"><ele>519.0</ele><time>2026-04-19T08:40:17.269Z</time></trkpt><trkpt lat="43.428196" lon="12.9678294"><ele>519.0</ele><time>2026-04-19T08:40:18.268Z</time></trkpt><trkpt lat="43.428149" lon="12.9676634"><ele>519.0</ele><time>2026-04-19T08:40:19.269Z</time></trkpt><trkpt lat="43.4281001" lon="12.9674974"><ele>519.0</ele><time>2026-04-19T08:40:20.269Z</time></trkpt><trkpt lat="43.4280541" lon="12.9673386"><ele>519.0</ele><time>2026-04-19T08:40:21.269Z</time></trkpt><trkpt lat="43.4280146" lon="12.967181"><ele>518.2</ele><time>2026-04-19T08:40:22.268Z</time></trkpt><trkpt lat="43.4279859" lon="12.9670272"><ele>517.4</ele><time>2026-04-19T08:40:23.269Z</time></trkpt><trkpt lat="43.4279578" lon="12.9668793"><ele>516.6</ele><time>2026-04-19T08:40:24.269Z</time></trkpt><trkpt lat="43.427922" lon="12.966743"><ele>515.8</ele><time>2026-04-19T08:40:25.269Z</time></trkpt><trkpt lat="43.427882" lon="12.9666125"><ele>515.0</ele><time>2026-04-19T08:40:26.269Z</time></trkpt><trkpt lat="43.4278451" lon="12.9664861"><ele>515.0</ele><time>2026-04-19T08:40:27.269Z</time></trkpt><trkpt lat="43.4278057" lon="12.966365"><ele>515.0</ele><time>2026-04-19T08:40:28.268Z</time></trkpt><trkpt lat="43.4277606" lon="12.9662522"><ele>515.0</ele><time>2026-04-19T08:40:29.268Z</time></trkpt><trkpt lat="43.4277052" lon="12.9661531"><ele>515.0</ele><time>2026-04-19T08:40:30.269Z</time></trkpt><trkpt lat="43.4276442" lon="12.9660681"><ele>515.0</ele><time>2026-04-19T08:40:31.268Z</time></trkpt><trkpt lat="43.4275671" lon="12.9660002"><ele>515.0</ele><time>2026-04-19T08:40:32.269Z</time></trkpt><trkpt lat="43.4274757" lon="12.9659454"><ele>515.0</ele><time>2026-04-19T08:40:33.268Z</time></trkpt><trkpt lat="43.4273719" lon="12.965919"><ele>515.0</ele><time>2026-04-19T08:40:34.269Z</time></trkpt><trkpt lat="43.4272607" lon="12.9659237"><ele>515.0</ele><time>2026-04-19T08:40:35.269Z</time></trkpt><trkpt lat="43.4271383" lon="12.9659468"><ele>515.0</ele><time>2026-04-19T08:40:36.267Z</time></trkpt><trkpt lat="43.4270182" lon="12.965975"><ele>515.8</ele><time>2026-04-19T08:40:37.269Z</time></trkpt><trkpt lat="43.4269067" lon="12.9659989"><ele>516.6</ele><time>2026-04-19T08:40:38.268Z</time></trkpt><trkpt lat="43.4267962" lon="12.9660164"><ele>517.4</ele><time>2026-04-19T08:40:39.269Z</time></trkpt><trkpt lat="43.4266881" lon="12.9660285"><ele>518.2</ele><time>2026-04-19T08:40:40.269Z</time></trkpt><trkpt lat="43.4265821" lon="12.9660417"><ele>519.0</ele><time>2026-04-19T08:40:41.268Z</time></trkpt><trkpt lat="43.4264778" lon="12.9660599"><ele>519.0</ele><time>2026-04-19T08:40:42.269Z</time></trkpt><trkpt lat="43.4263755" lon="12.9660808"><ele>519.0</ele><time>2026-04-19T08:40:43.269Z</time></trkpt><trkpt lat="43.4262753" lon="12.9660998"><ele>519.0</ele><time>2026-04-19T08:40:44.267Z</time></trkpt><trkpt lat="43.4261776" lon="12.9661208"><ele>519.0</ele><time>2026-04-19T08:40:45.268Z</time></trkpt><trkpt lat="43.4260829" lon="12.9661415"><ele>519.0</ele><time>2026-04-19T08:40:46.269Z</time></trkpt><trkpt lat="43.4259915" lon="12.9661653"><ele>516.6</ele><time>2026-04-19T08:40:47.268Z</time></trkpt><trkpt lat="43.4259067" lon="12.966202"><ele>514.2</ele><time>2026-04-19T08:40:48.268Z</time></trkpt><trkpt lat="43.4258231" lon="12.966256"><ele>511.80000000000007</ele><time>2026-04-19T08:40:49.267Z</time></trkpt><trkpt lat="43.4257385" lon="12.966316"><ele>509.40000000000003</ele><time>2026-04-19T08:40:50.268Z</time></trkpt><trkpt lat="43.4256554" lon="12.9663731"><ele>507.0</ele><time>2026-04-19T08:40:51.269Z</time></trkpt><trkpt lat="43.4255686" lon="12.9664073"><ele>506.40000000000003</ele><time>2026-04-19T08:40:52.268Z</time></trkpt><trkpt lat="43.4254775" lon="12.9664088"><ele>505.80000000000007</ele><time>2026-04-19T08:40:53.269Z</time></trkpt><trkpt lat="43.4253907" lon="12.9663785"><ele>505.2</ele><time>2026-04-19T08:40:54.269Z</time></trkpt><trkpt lat="43.4253084" lon="12.9663195"><ele>504.6</ele><time>2026-04-19T08:40:55.269Z</time></trkpt><trkpt lat="43.425228" lon="12.9662461"><ele>504.0</ele><time>2026-04-19T08:40:56.268Z</time></trkpt><trkpt lat="43.425143" lon="12.9661851"><ele>504.0</ele><time>2026-04-19T08:40:57.269Z</time></trkpt><trkpt lat="43.4250452" lon="12.9661416"><ele>504.0</ele><time>2026-04-19T08:40:58.267Z</time></trkpt><trkpt lat="43.424941" lon="12.9661111"><ele>504.0</ele><time>2026-04-19T08:40:59.268Z</time></trkpt><trkpt lat="43.4248324" lon="12.9660933"><ele>504.0</ele><time>2026-04-19T08:41:00.269Z</time></trkpt><trkpt lat="43.42472" lon="12.9660812"><ele>504.0</ele><time>2026-04-19T08:41:01.268Z</time></trkpt><trkpt lat="43.424605" lon="12.9660741"><ele>502.0</ele><time>2026-04-19T08:41:02.269Z</time></trkpt><trkpt lat="43.4244897" lon="12.9660718"><ele>500.0</ele><time>2026-04-19T08:41:03.268Z</time></trkpt><trkpt lat="43.4243737" lon="12.9660723"><ele>498.0</ele><time>2026-04-19T08:41:04.269Z</time></trkpt><trkpt lat="43.4242571" lon="12.9660736"><ele>496.0</ele><time>2026-04-19T08:41:05.269Z</time></trkpt><trkpt lat="43.4241414" lon="12.9660765"><ele>496.0</ele><time>2026-04-19T08:41:06.269Z</time></trkpt><trkpt lat="43.4240262" lon="12.9660789"><ele>496.0</ele><time>2026-04-19T08:41:07.269Z</time></trkpt><trkpt lat="43.4239125" lon="12.9660762"><ele>496.0</ele><time>2026-04-19T08:41:08.269Z</time></trkpt><trkpt lat="43.4237983" lon="12.9660681"><ele>496.0</ele><time>2026-04-19T08:41:09.269Z</time></trkpt><trkpt lat="43.4236819" lon="12.9660516"><ele>494.75</ele><time>2026-04-19T08:41:10.269Z</time></trkpt><trkpt lat="43.4235638" lon="12.9660196"><ele>493.5</ele><time>2026-04-19T08:41:11.269Z</time></trkpt><trkpt lat="43.4234459" lon="12.9659678"><ele>492.25</ele><time>2026-04-19T08:41:12.268Z</time></trkpt><trkpt lat="43.423331" lon="12.9658917"><ele>491.0</ele><time>2026-04-19T08:41:13.269Z</time></trkpt><trkpt lat="43.4232208" lon="12.9657916"><ele>486.6</ele><time>2026-04-19T08:41:14.269Z</time></trkpt><trkpt lat="43.423121" lon="12.9656892"><ele>482.20000000000005</ele><time>2026-04-19T08:41:15.268Z</time></trkpt><trkpt lat="43.4230262" lon="12.965592"><ele>477.79999999999995</ele><time>2026-04-19T08:41:16.268Z</time></trkpt><trkpt lat="43.4229399" lon="12.9655121"><ele>473.4</ele><time>2026-04-19T08:41:17.268Z</time></trkpt><trkpt lat="43.4228618" lon="12.9654433"><ele>469.0</ele><time>2026-04-19T08:41:18.269Z</time></trkpt><trkpt lat="43.4227975" lon="12.9653917"><ele>468.83333333333337</ele><time>2026-04-19T08:41:19.269Z</time></trkpt><trkpt lat="43.4227062" lon="12.9653292"><ele>468.6666666666667</ele><time>2026-04-19T08:41:21.268Z</time></trkpt><trkpt lat="43.4226318" lon="12.9652833"><ele>468.5</ele><time>2026-04-19T08:41:23.268Z</time></trkpt><trkpt lat="43.4225476" lon="12.9652371"><ele>468.33333333333337</ele><time>2026-04-19T08:41:25.268Z</time></trkpt><trkpt lat="43.4224858" lon="12.9652011"><ele>468.1666666666667</ele><time>2026-04-19T08:41:27.268Z</time></trkpt><trkpt lat="43.4224203" lon="12.9651576"><ele>468.0</ele><time>2026-04-19T08:41:35.268Z</time></trkpt><trkpt lat="43.4223611" lon="12.9651997"><ele>468.0</ele><time>2026-04-19T08:41:47.269Z</time></trkpt><trkpt lat="43.422326" lon="12.9652755"><ele>468.0</ele><time>2026-04-19T08:41:50.268Z</time></trkpt><trkpt lat="43.4223892" lon="12.9652821"><ele>468.0</ele><time>2026-04-19T08:41:54.269Z</time></trkpt><trkpt lat="43.4223161" lon="12.9652361"><ele>468.0</ele><time>2026-04-19T08:59:58.266Z</time></trkpt><trkpt lat="43.4222508" lon="12.9652489"><ele>468.0</ele><time>2026-04-19T09:00:00.266Z</time></trkpt><trkpt lat="43.4221773" lon="12.9652438"><ele>468.0</ele><time>2026-04-19T09:00:02.266Z</time></trkpt><trkpt lat="43.4220768" lon="12.9652006"><ele>468.0</ele><time>2026-04-19T09:00:04.266Z</time></trkpt><trkpt lat="43.4219583" lon="12.9651056"><ele>468.0</ele><time>2026-04-19T09:00:06.265Z</time></trkpt><trkpt lat="43.4218897" lon="12.9650422"><ele>468.0</ele><time>2026-04-19T09:00:07.266Z</time></trkpt><trkpt lat="43.4218183" lon="12.9649879"><ele>468.0</ele><time>2026-04-19T09:00:08.265Z</time></trkpt><trkpt lat="43.4217508" lon="12.9649452"><ele>468.0</ele><time>2026-04-19T09:00:09.265Z</time></trkpt><trkpt lat="43.4216852" lon="12.9649158"><ele>468.0</ele><time>2026-04-19T09:00:10.266Z</time></trkpt><trkpt lat="43.4216224" lon="12.9649039"><ele>468.0</ele><time>2026-04-19T09:00:11.266Z</time></trkpt><trkpt lat="43.4215128" lon="12.9649014"><ele>467.99999999999994</ele><time>2026-04-19T09:00:13.265Z</time></trkpt><trkpt lat="43.4214027" lon="12.9649042"><ele>467.99999999999994</ele><time>2026-04-19T09:00:15.266Z</time></trkpt><trkpt lat="43.4213388" lon="12.9649033"><ele>468.0</ele><time>2026-04-19T09:00:16.265Z</time></trkpt><trkpt lat="43.4212706" lon="12.964904"><ele>468.0</ele><time>2026-04-19T09:00:17.265Z</time></trkpt><trkpt lat="43.4211527" lon="12.9649061"><ele>467.25</ele><time>2026-04-19T09:00:19.266Z</time></trkpt><trkpt lat="43.4210376" lon="12.9649291"><ele>466.5</ele><time>2026-04-19T09:00:21.265Z</time></trkpt><trkpt lat="43.4209139" lon="12.9649639"><ele>465.75</ele><time>2026-04-19T09:00:23.265Z</time></trkpt><trkpt lat="43.420799" lon="12.9650167"><ele>465.0</ele><time>2026-04-19T09:00:25.265Z</time></trkpt><trkpt lat="43.4206902" lon="12.9650663"><ele>459.3333333333333</ele><time>2026-04-19T09:00:27.266Z</time></trkpt><trkpt lat="43.4205789" lon="12.9651008"><ele>453.66666666666663</ele><time>2026-04-19T09:00:29.265Z</time></trkpt><trkpt lat="43.4204659" lon="12.9651262"><ele>448.0</ele><time>2026-04-19T09:00:31.266Z</time></trkpt><trkpt lat="43.4204027" lon="12.965139"><ele>442.3333333333333</ele><time>2026-04-19T09:00:32.266Z</time></trkpt><trkpt lat="43.4203371" lon="12.9651502"><ele>436.66666666666663</ele><time>2026-04-19T09:00:33.265Z</time></trkpt><trkpt lat="43.4202702" lon="12.9651616"><ele>431.0</ele><time>2026-04-19T09:00:34.266Z</time></trkpt><trkpt lat="43.4202021" lon="12.9651741"><ele>430.99999999999994</ele><time>2026-04-19T09:00:35.266Z</time></trkpt><trkpt lat="43.4201295" lon="12.965184"><ele>431.0</ele><time>2026-04-19T09:00:36.266Z</time></trkpt><trkpt lat="43.420048" lon="12.9651892"><ele>431.0</ele><time>2026-04-19T09:00:37.266Z</time></trkpt><trkpt lat="43.4199622" lon="12.9651897"><ele>431.0</ele><time>2026-04-19T09:00:38.264Z</time></trkpt><trkpt lat="43.4198756" lon="12.965189"><ele>430.99999999999994</ele><time>2026-04-19T09:00:39.265Z</time></trkpt><trkpt lat="43.419789" lon="12.9651873"><ele>431.0</ele><time>2026-04-19T09:00:40.265Z</time></trkpt><trkpt lat="43.4197022" lon="12.9651852"><ele>429.99999999999994</ele><time>2026-04-19T09:00:41.266Z</time></trkpt><trkpt lat="43.419615" lon="12.9651817"><ele>429.0</ele><time>2026-04-19T09:00:42.266Z</time></trkpt><trkpt lat="43.419529" lon="12.9651783"><ele>428.0</ele><time>2026-04-19T09:00:43.265Z</time></trkpt><trkpt lat="43.419446" lon="12.9651792"><ele>427.0</ele><time>2026-04-19T09:00:44.266Z</time></trkpt><trkpt lat="43.4193683" lon="12.9651815"><ele>425.99999999999994</ele><time>2026-04-19T09:00:45.266Z</time></trkpt><trkpt lat="43.4192948" lon="12.9651857"><ele>425.0</ele><time>2026-04-19T09:00:46.264Z</time></trkpt><trkpt lat="43.4192229" lon="12.965188"><ele>424.99999999999994</ele><time>2026-04-19T09:00:47.266Z</time></trkpt><trkpt lat="43.419154" lon="12.9651865"><ele>425.0</ele><time>2026-04-19T09:00:48.266Z</time></trkpt><trkpt lat="43.4190866" lon="12.9651798"><ele>425.0</ele><time>2026-04-19T09:00:49.266Z</time></trkpt><trkpt lat="43.4190178" lon="12.9651664"><ele>425.0</ele><time>2026-04-19T09:00:50.266Z</time></trkpt><trkpt lat="43.4189443" lon="12.9651439"><ele>424.99999999999994</ele><time>2026-04-19T09:00:51.266Z</time></trkpt><trkpt lat="43.4188659" lon="12.9651063"><ele>425.0</ele><time>2026-04-19T09:00:52.265Z</time></trkpt><trkpt lat="43.4187907" lon="12.9650486"><ele>427.3333333333333</ele><time>2026-04-19T09:00:53.265Z</time></trkpt><trkpt lat="43.4187203" lon="12.964975"><ele>429.66666666666663</ele><time>2026-04-19T09:00:54.265Z</time></trkpt><trkpt lat="43.418655" lon="12.9648899"><ele>432.0</ele><time>2026-04-19T09:00:55.266Z</time></trkpt><trkpt lat="43.4185974" lon="12.9648174"><ele>434.33333333333337</ele><time>2026-04-19T09:00:56.266Z</time></trkpt><trkpt lat="43.4185459" lon="12.964756"><ele>436.6666666666667</ele><time>2026-04-19T09:00:57.265Z</time></trkpt><trkpt lat="43.4184943" lon="12.9647024"><ele>439.0</ele><time>2026-04-19T09:00:58.266Z</time></trkpt><trkpt lat="43.418388" lon="12.9646204"><ele>439.0</ele><time>2026-04-19T09:01:00.265Z</time></trkpt><trkpt lat="43.4183198" lon="12.9645954"><ele>439.0</ele><time>2026-04-19T09:01:01.266Z</time></trkpt><trkpt lat="43.4182477" lon="12.9645914"><ele>439.0</ele><time>2026-04-19T09:01:02.264Z</time></trkpt><trkpt lat="43.4181737" lon="12.9646111"><ele>439.0</ele><time>2026-04-19T09:01:03.265Z</time></trkpt><trkpt lat="43.4181046" lon="12.9646534"><ele>439.0</ele><time>2026-04-19T09:01:04.264Z</time></trkpt><trkpt lat="43.4180394" lon="12.9647036"><ele>439.0</ele><time>2026-04-19T09:01:05.266Z</time></trkpt><trkpt lat="43.4179719" lon="12.9647591"><ele>439.0</ele><time>2026-04-19T09:01:06.265Z</time></trkpt><trkpt lat="43.4179007" lon="12.9648129"><ele>439.6666666666667</ele><time>2026-04-19T09:01:07.265Z</time></trkpt><trkpt lat="43.4178262" lon="12.9648624"><ele>440.33333333333337</ele><time>2026-04-19T09:01:08.265Z</time></trkpt><trkpt lat="43.4177511" lon="12.9649094"><ele>441.0</ele><time>2026-04-19T09:01:09.265Z</time></trkpt><trkpt lat="43.4176708" lon="12.9649482"><ele>441.66666666666663</ele><time>2026-04-19T09:01:10.266Z</time></trkpt><trkpt lat="43.417584" lon="12.9649823"><ele>442.3333333333333</ele><time>2026-04-19T09:01:11.265Z</time></trkpt><trkpt lat="43.417489" lon="12.9650124"><ele>443.0</ele><time>2026-04-19T09:01:12.266Z</time></trkpt><trkpt lat="43.4173928" lon="12.9650394"><ele>437.49999999999994</ele><time>2026-04-19T09:01:13.266Z</time></trkpt><trkpt lat="43.4172993" lon="12.9650704"><ele>432.0</ele><time>2026-04-19T09:01:14.265Z</time></trkpt><trkpt lat="43.4172121" lon="12.9651051"><ele>426.5</ele><time>2026-04-19T09:01:15.265Z</time></trkpt><trkpt lat="43.4171315" lon="12.9651367"><ele>421.0</ele><time>2026-04-19T09:01:16.265Z</time></trkpt><trkpt lat="43.4170524" lon="12.9651615"><ele>415.49999999999994</ele><time>2026-04-19T09:01:17.266Z</time></trkpt><trkpt lat="43.4169771" lon="12.9651712"><ele>410.0</ele><time>2026-04-19T09:01:18.265Z</time></trkpt><trkpt lat="43.4169024" lon="12.9651671"><ele>409.66666666666663</ele><time>2026-04-19T09:01:19.266Z</time></trkpt><trkpt lat="43.41683" lon="12.9651376"><ele>409.3333333333333</ele><time>2026-04-19T09:01:20.266Z</time></trkpt><trkpt lat="43.4167623" lon="12.9650802"><ele>409.0</ele><time>2026-04-19T09:01:21.265Z</time></trkpt><trkpt lat="43.4167025" lon="12.9649997"><ele>408.66666666666663</ele><time>2026-04-19T09:01:22.266Z</time></trkpt><trkpt lat="43.4166501" lon="12.9648925"><ele>408.3333333333333</ele><time>2026-04-19T09:01:23.266Z</time></trkpt><trkpt lat="43.4166067" lon="12.9647697"><ele>408.0</ele><time>2026-04-19T09:01:24.266Z</time></trkpt><trkpt lat="43.4165689" lon="12.9646411"><ele>411.59999999999997</ele><time>2026-04-19T09:01:25.266Z</time></trkpt><trkpt lat="43.4165309" lon="12.9645128"><ele>415.2</ele><time>2026-04-19T09:01:26.266Z</time></trkpt><trkpt lat="43.4164871" lon="12.9643874"><ele>418.8</ele><time>2026-04-19T09:01:27.266Z</time></trkpt><trkpt lat="43.4164499" lon="12.9642773"><ele>422.4</ele><time>2026-04-19T09:01:28.265Z</time></trkpt><trkpt lat="43.4164135" lon="12.9641695"><ele>426.0</ele><time>2026-04-19T09:01:29.266Z</time></trkpt><trkpt lat="43.4163788" lon="12.9640685"><ele>423.1666666666667</ele><time>2026-04-19T09:01:30.266Z</time></trkpt><trkpt lat="43.4163389" lon="12.9639744"><ele>420.33333333333337</ele><time>2026-04-19T09:01:31.265Z</time></trkpt><trkpt lat="43.416294" lon="12.9638907"><ele>417.5</ele><time>2026-04-19T09:01:32.266Z</time></trkpt><trkpt lat="43.4162412" lon="12.9638184"><ele>414.6666666666667</ele><time>2026-04-19T09:01:33.265Z</time></trkpt><trkpt lat="43.4161809" lon="12.9637551"><ele>411.83333333333337</ele><time>2026-04-19T09:01:34.264Z</time></trkpt><trkpt lat="43.4161119" lon="12.9636995"><ele>409.0</ele><time>2026-04-19T09:01:35.265Z</time></trkpt><trkpt lat="43.4160379" lon="12.9636501"><ele>409.00000000000006</ele><time>2026-04-19T09:01:36.266Z</time></trkpt><trkpt lat="43.4159643" lon="12.9636063"><ele>409.0</ele><time>2026-04-19T09:01:37.266Z</time></trkpt><trkpt lat="43.4158921" lon="12.9635671"><ele>409.0</ele><time>2026-04-19T09:01:38.265Z</time></trkpt><trkpt lat="43.4158204" lon="12.9635332"><ele>409.0</ele><time>2026-04-19T09:01:39.265Z</time></trkpt><trkpt lat="43.4157459" lon="12.9635007"><ele>409.00000000000006</ele><time>2026-04-19T09:01:40.266Z</time></trkpt><trkpt lat="43.4156675" lon="12.9634669"><ele>409.0</ele><time>2026-04-19T09:01:41.266Z</time></trkpt><trkpt lat="43.4155857" lon="12.9634327"><ele>409.00000000000006</ele><time>2026-04-19T09:01:42.266Z</time></trkpt><trkpt lat="43.4155005" lon="12.9633952"><ele>409.0</ele><time>2026-04-19T09:01:43.266Z</time></trkpt><trkpt lat="43.4154144" lon="12.9633571"><ele>409.0</ele><time>2026-04-19T09:01:44.265Z</time></trkpt><trkpt lat="43.4153328" lon="12.9633241"><ele>409.0</ele><time>2026-04-19T09:01:45.265Z</time></trkpt><trkpt lat="43.415252" lon="12.9632974"><ele>409.00000000000006</ele><time>2026-04-19T09:01:46.265Z</time></trkpt><trkpt lat="43.4151694" lon="12.9632808"><ele>409.0</ele><time>2026-04-19T09:01:47.266Z</time></trkpt><trkpt lat="43.4150843" lon="12.9632784"><ele>407.33333333333337</ele><time>2026-04-19T09:01:48.265Z</time></trkpt><trkpt lat="43.4149978" lon="12.963293"><ele>405.6666666666667</ele><time>2026-04-19T09:01:49.266Z</time></trkpt><trkpt lat="43.4149119" lon="12.963326"><ele>404.0</ele><time>2026-04-19T09:01:50.265Z</time></trkpt><trkpt lat="43.4148301" lon="12.9633753"><ele>402.33333333333337</ele><time>2026-04-19T09:01:51.265Z</time></trkpt><trkpt lat="43.414754" lon="12.9634382"><ele>400.6666666666667</ele><time>2026-04-19T09:01:52.264Z</time></trkpt><trkpt lat="43.4146868" lon="12.9635161"><ele>399.0</ele><time>2026-04-19T09:01:53.266Z</time></trkpt><trkpt lat="43.4146326" lon="12.9636095"><ele>403.5</ele><time>2026-04-19T09:01:54.266Z</time></trkpt><trkpt lat="43.4145861" lon="12.9637038"><ele>408.0</ele><time>2026-04-19T09:01:55.265Z</time></trkpt><trkpt lat="43.4145448" lon="12.9638047"><ele>412.5</ele><time>2026-04-19T09:01:56.266Z</time></trkpt><trkpt lat="43.4144985" lon="12.9639012"><ele>417.0</ele><time>2026-04-19T09:01:57.266Z</time></trkpt><trkpt lat="43.4144479" lon="12.9639895"><ele>421.5</ele><time>2026-04-19T09:01:58.266Z</time></trkpt><trkpt lat="43.414379" lon="12.9640643"><ele>426.0</ele><time>2026-04-19T09:01:59.265Z</time></trkpt><trkpt lat="43.414303" lon="12.9641279"><ele>426.0</ele><time>2026-04-19T09:02:00.266Z</time></trkpt><trkpt lat="43.4142249" lon="12.9641784"><ele>426.0</ele><time>2026-04-19T09:02:01.266Z</time></trkpt><trkpt lat="43.4141509" lon="12.9642214"><ele>426.0</ele><time>2026-04-19T09:02:02.266Z</time></trkpt><trkpt lat="43.4140803" lon="12.9642737"><ele>426.0</ele><time>2026-04-19T09:02:03.265Z</time></trkpt><trkpt lat="43.4140171" lon="12.96434"><ele>426.0</ele><time>2026-04-19T09:02:04.266Z</time></trkpt><trkpt lat="43.4139627" lon="12.9644313"><ele>426.0</ele><time>2026-04-19T09:02:05.266Z</time></trkpt><trkpt lat="43.4139193" lon="12.9645387"><ele>426.6</ele><time>2026-04-19T09:02:06.264Z</time></trkpt><trkpt lat="43.4138842" lon="12.9646537"><ele>427.20000000000005</ele><time>2026-04-19T09:02:07.266Z</time></trkpt><trkpt lat="43.4138543" lon="12.9647773"><ele>427.79999999999995</ele><time>2026-04-19T09:02:08.266Z</time></trkpt><trkpt lat="43.4138261" lon="12.964901"><ele>428.4</ele><time>2026-04-19T09:02:09.266Z</time></trkpt><trkpt lat="43.4137953" lon="12.965029"><ele>429.0</ele><time>2026-04-19T09:02:10.266Z</time></trkpt><trkpt lat="43.4137658" lon="12.9651535"><ele>429.0</ele><time>2026-04-19T09:02:11.265Z</time></trkpt><trkpt lat="43.4137381" lon="12.9652805"><ele>429.0</ele><time>2026-04-19T09:02:12.264Z</time></trkpt><trkpt lat="43.4137099" lon="12.9654076"><ele>429.0</ele><time>2026-04-19T09:02:13.266Z</time></trkpt><trkpt lat="43.4136775" lon="12.9655318"><ele>429.0</ele><time>2026-04-19T09:02:14.266Z</time></trkpt><trkpt lat="43.4136458" lon="12.9656509"><ele>429.0</ele><time>2026-04-19T09:02:15.266Z</time></trkpt><trkpt lat="43.4136112" lon="12.9657628"><ele>425.8333333333333</ele><time>2026-04-19T09:02:16.265Z</time></trkpt><trkpt lat="43.4135737" lon="12.9658674"><ele>422.66666666666663</ele><time>2026-04-19T09:02:17.265Z</time></trkpt><trkpt lat="43.4135303" lon="12.9659653"><ele>419.5</ele><time>2026-04-19T09:02:18.266Z</time></trkpt><trkpt lat="43.413483" lon="12.9660635"><ele>416.3333333333333</ele><time>2026-04-19T09:02:19.266Z</time></trkpt><trkpt lat="43.4134331" lon="12.9661592"><ele>413.16666666666663</ele><time>2026-04-19T09:02:20.265Z</time></trkpt><trkpt lat="43.4133774" lon="12.9662579"><ele>410.0</ele><time>2026-04-19T09:02:21.266Z</time></trkpt><trkpt lat="43.4133171" lon="12.9663552"><ele>410.0</ele><time>2026-04-19T09:02:22.266Z</time></trkpt><trkpt lat="43.41325" lon="12.9664499"><ele>410.0</ele><time>2026-04-19T09:02:23.266Z</time></trkpt><trkpt lat="43.4131737" lon="12.9665478"><ele>410.0</ele><time>2026-04-19T09:02:24.266Z</time></trkpt><trkpt lat="43.4131024" lon="12.9666452"><ele>410.0</ele><time>2026-04-19T09:02:25.265Z</time></trkpt><trkpt lat="43.4130365" lon="12.9667464"><ele>410.0</ele><time>2026-04-19T09:02:26.265Z</time></trkpt><trkpt lat="43.4129805" lon="12.9668599"><ele>409.8</ele><time>2026-04-19T09:02:27.266Z</time></trkpt><trkpt lat="43.4129315" lon="12.9669743"><ele>409.6</ele><time>2026-04-19T09:02:28.266Z</time></trkpt><trkpt lat="43.412893" lon="12.9670949"><ele>409.4</ele><time>2026-04-19T09:02:29.266Z</time></trkpt><trkpt lat="43.4128649" lon="12.9672191"><ele>409.2</ele><time>2026-04-19T09:02:30.266Z</time></trkpt><trkpt lat="43.4128466" lon="12.9673462"><ele>409.0</ele><time>2026-04-19T09:02:31.265Z</time></trkpt><trkpt lat="43.4128292" lon="12.967467"><ele>404.83333333333337</ele><time>2026-04-19T09:02:32.266Z</time></trkpt><trkpt lat="43.4128129" lon="12.9675736"><ele>400.6666666666667</ele><time>2026-04-19T09:02:33.266Z</time></trkpt><trkpt lat="43.4127923" lon="12.9676644"><ele>396.5</ele><time>2026-04-19T09:02:34.266Z</time></trkpt><trkpt lat="43.4127528" lon="12.967747"><ele>392.33333333333337</ele><time>2026-04-19T09:02:35.265Z</time></trkpt><trkpt lat="43.4126947" lon="12.9677961"><ele>388.1666666666667</ele><time>2026-04-19T09:02:36.266Z</time></trkpt><trkpt lat="43.412615" lon="12.9678163"><ele>384.0</ele><time>2026-04-19T09:02:37.265Z</time></trkpt><trkpt lat="43.4125201" lon="12.9678163"><ele>384.0</ele><time>2026-04-19T09:02:38.266Z</time></trkpt><trkpt lat="43.4124055" lon="12.9678096"><ele>384.0</ele><time>2026-04-19T09:02:39.266Z</time></trkpt><trkpt lat="43.4122823" lon="12.9678031"><ele>384.0</ele><time>2026-04-19T09:02:40.266Z</time></trkpt><trkpt lat="43.4121617" lon="12.9677976"><ele>384.0</ele><time>2026-04-19T09:02:41.266Z</time></trkpt><trkpt lat="43.4120506" lon="12.9677859"><ele>382.6666666666667</ele><time>2026-04-19T09:02:42.266Z</time></trkpt><trkpt lat="43.4119504" lon="12.9677643"><ele>381.3333333333333</ele><time>2026-04-19T09:02:43.266Z</time></trkpt><trkpt lat="43.4118662" lon="12.9677394"><ele>380.0</ele><time>2026-04-19T09:02:44.265Z</time></trkpt><trkpt lat="43.4117956" lon="12.9677106"><ele>378.66666666666663</ele><time>2026-04-19T09:02:45.266Z</time></trkpt><trkpt lat="43.4117336" lon="12.9676926"><ele>377.3333333333333</ele><time>2026-04-19T09:02:46.266Z</time></trkpt><trkpt lat="43.4116435" lon="12.9677497"><ele>376.0</ele><time>2026-04-19T09:02:48.266Z</time></trkpt><trkpt lat="43.4116542" lon="12.9678851"><ele>376.0</ele><time>2026-04-19T09:02:50.265Z</time></trkpt><trkpt lat="43.4117013" lon="12.9679438"><ele>376.0</ele><time>2026-04-19T09:02:51.266Z</time></trkpt><trkpt lat="43.4117718" lon="12.9679724"><ele>376.0</ele><time>2026-04-19T09:02:52.265Z</time></trkpt><trkpt lat="43.4118609" lon="12.9679782"><ele>376.0</ele><time>2026-04-19T09:02:53.266Z</time></trkpt><trkpt lat="43.4119587" lon="12.9679941"><ele>376.0</ele><time>2026-04-19T09:02:54.266Z</time></trkpt><trkpt lat="43.4120641" lon="12.9680257"><ele>376.0</ele><time>2026-04-19T09:02:55.266Z</time></trkpt><trkpt lat="43.4121664" lon="12.9680757"><ele>377.6</ele><time>2026-04-19T09:02:56.265Z</time></trkpt><trkpt lat="43.4122643" lon="12.9681402"><ele>379.20000000000005</ele><time>2026-04-19T09:02:57.265Z</time></trkpt><trkpt lat="43.4123568" lon="12.9682078"><ele>380.79999999999995</ele><time>2026-04-19T09:02:58.264Z</time></trkpt><trkpt lat="43.4124415" lon="12.9682725"><ele>382.4</ele><time>2026-04-19T09:02:59.266Z</time></trkpt><trkpt lat="43.4125183" lon="12.9683311"><ele>384.0</ele><time>2026-04-19T09:03:00.266Z</time></trkpt><trkpt lat="43.412585" lon="12.9683812"><ele>380.3333333333333</ele><time>2026-04-19T09:03:01.266Z</time></trkpt><trkpt lat="43.4126462" lon="12.968429"><ele>376.6666666666667</ele><time>2026-04-19T09:03:02.265Z</time></trkpt><trkpt lat="43.4127018" lon="12.9684724"><ele>373.0</ele><time>2026-04-19T09:03:03.266Z</time></trkpt><trkpt lat="43.4127994" lon="12.968558"><ele>369.33333333333337</ele><time>2026-04-19T09:03:05.266Z</time></trkpt><trkpt lat="43.4128607" lon="12.9686775"><ele>365.6666666666667</ele><time>2026-04-19T09:03:07.265Z</time></trkpt><trkpt lat="43.4128047" lon="12.9687749"><ele>362.0</ele><time>2026-04-19T09:03:09.266Z</time></trkpt><trkpt lat="43.4126861" lon="12.9687314"><ele>362.0</ele><time>2026-04-19T09:03:11.266Z</time></trkpt><trkpt lat="43.4126161" lon="12.9686654"><ele>362.0</ele><time>2026-04-19T09:03:12.265Z</time></trkpt><trkpt lat="43.4125309" lon="12.968582"><ele>362.0</ele><time>2026-04-19T09:03:13.265Z</time></trkpt><trkpt lat="43.412424" lon="12.9685136"><ele>362.0</ele><time>2026-04-19T09:03:14.266Z</time></trkpt><trkpt lat="43.4123007" lon="12.9684587"><ele>362.0</ele><time>2026-04-19T09:03:15.266Z</time></trkpt><trkpt lat="43.4121798" lon="12.9684279"><ele>359.6</ele><time>2026-04-19T09:03:16.266Z</time></trkpt><trkpt lat="43.4120667" lon="12.9684144"><ele>357.20000000000005</ele><time>2026-04-19T09:03:17.266Z</time></trkpt><trkpt lat="43.4119633" lon="12.9684205"><ele>354.8</ele><time>2026-04-19T09:03:18.266Z</time></trkpt><trkpt lat="43.4118771" lon="12.9684421"><ele>352.4</ele><time>2026-04-19T09:03:19.266Z</time></trkpt><trkpt lat="43.4117995" lon="12.9684651"><ele>350.0</ele><time>2026-04-19T09:03:20.264Z</time></trkpt><trkpt lat="43.4117275" lon="12.9684849"><ele>350.0</ele><time>2026-04-19T09:03:21.266Z</time></trkpt><trkpt lat="43.4116608" lon="12.9685051"><ele>350.0</ele><time>2026-04-19T09:03:22.266Z</time></trkpt><trkpt lat="43.4115919" lon="12.9685271"><ele>350.0</ele><time>2026-04-19T09:03:23.266Z</time></trkpt><trkpt lat="43.4115256" lon="12.968547"><ele>350.0</ele><time>2026-04-19T09:03:24.265Z</time></trkpt><trkpt lat="43.4114578" lon="12.9685782"><ele>350.0</ele><time>2026-04-19T09:03:25.266Z</time></trkpt><trkpt lat="43.4113884" lon="12.9686152"><ele>350.0</ele><time>2026-04-19T09:03:26.265Z</time></trkpt><trkpt lat="43.411316" lon="12.9686628"><ele>350.0</ele><time>2026-04-19T09:03:27.266Z</time></trkpt><trkpt lat="43.4112444" lon="12.9687289"><ele>350.33333333333337</ele><time>2026-04-19T09:03:28.266Z</time></trkpt><trkpt lat="43.4111736" lon="12.9688043"><ele>350.6666666666667</ele><time>2026-04-19T09:03:29.266Z</time></trkpt><trkpt lat="43.4111034" lon="12.9688893"><ele>351.0</ele><time>2026-04-19T09:03:30.266Z</time></trkpt><trkpt lat="43.4110375" lon="12.9689805"><ele>351.3333333333333</ele><time>2026-04-19T09:03:31.265Z</time></trkpt><trkpt lat="43.4109845" lon="12.9690803"><ele>351.66666666666663</ele><time>2026-04-19T09:03:32.265Z</time></trkpt><trkpt lat="43.4109437" lon="12.9691796"><ele>352.0</ele><time>2026-04-19T09:03:33.266Z</time></trkpt><trkpt lat="43.4109094" lon="12.9692744"><ele>352.0</ele><time>2026-04-19T09:03:34.265Z</time></trkpt><trkpt lat="43.4108786" lon="12.9693602"><ele>352.0</ele><time>2026-04-19T09:03:35.265Z</time></trkpt><trkpt lat="43.4108471" lon="12.9694366"><ele>352.0</ele><time>2026-04-19T09:03:36.266Z</time></trkpt><trkpt lat="43.4107724" lon="12.9695657"><ele>352.0</ele><time>2026-04-19T09:03:38.266Z</time></trkpt><trkpt lat="43.4106923" lon="12.9696815"><ele>352.0</ele><time>2026-04-19T09:03:40.266Z</time></trkpt><trkpt lat="43.4105906" lon="12.9698006"><ele>352.0</ele><time>2026-04-19T09:03:42.266Z</time></trkpt><trkpt lat="43.4105407" lon="12.9698587"><ele>352.0</ele><time>2026-04-19T09:03:43.265Z</time></trkpt><trkpt lat="43.4104634" lon="12.9699665"><ele>352.0</ele><time>2026-04-19T09:03:45.266Z</time></trkpt><trkpt lat="43.4103846" lon="12.9700645"><ele>352.0</ele><time>2026-04-19T09:03:47.266Z</time></trkpt><trkpt lat="43.4102931" lon="12.9701684"><ele>352.0</ele><time>2026-04-19T09:03:49.266Z</time></trkpt><trkpt lat="43.4102253" lon="12.9702976"><ele>355.6</ele><time>2026-04-19T09:03:51.266Z</time></trkpt><trkpt lat="43.4101885" lon="12.9704526"><ele>359.20000000000005</ele><time>2026-04-19T09:03:53.265Z</time></trkpt><trkpt lat="43.4101554" lon="12.9705644"><ele>362.8</ele><time>2026-04-19T09:03:55.265Z</time></trkpt><trkpt lat="43.4100858" lon="12.9706281"><ele>366.4</ele><time>2026-04-19T09:03:57.264Z</time></trkpt><trkpt lat="43.4099688" lon="12.9706531"><ele>370.0</ele><time>2026-04-19T09:03:59.265Z</time></trkpt><trkpt lat="43.4098512" lon="12.9707244"><ele>370.0</ele><time>2026-04-19T09:04:01.265Z</time></trkpt><trkpt lat="43.4097877" lon="12.9707832"><ele>370.0</ele><time>2026-04-19T09:04:02.265Z</time></trkpt><trkpt lat="43.4097164" lon="12.9708517"><ele>370.0</ele><time>2026-04-19T09:04:03.264Z</time></trkpt><trkpt lat="43.4096323" lon="12.9709217"><ele>370.0</ele><time>2026-04-19T09:04:04.266Z</time></trkpt><trkpt lat="43.4095378" lon="12.9709865"><ele>370.0</ele><time>2026-04-19T09:04:05.265Z</time></trkpt><trkpt lat="43.4094339" lon="12.971046"><ele>371.25</ele><time>2026-04-19T09:04:06.265Z</time></trkpt><trkpt lat="43.4093161" lon="12.9710926"><ele>372.5</ele><time>2026-04-19T09:04:07.266Z</time></trkpt><trkpt lat="43.4091929" lon="12.9711348"><ele>373.75</ele><time>2026-04-19T09:04:08.266Z</time></trkpt><trkpt lat="43.409065" lon="12.9711743"><ele>375.0</ele><time>2026-04-19T09:04:09.265Z</time></trkpt><trkpt lat="43.408938" lon="12.9712187"><ele>370.75</ele><time>2026-04-19T09:04:10.266Z</time></trkpt><trkpt lat="43.4088138" lon="12.971261"><ele>366.5</ele><time>2026-04-19T09:04:11.264Z</time></trkpt><trkpt lat="43.4086905" lon="12.9713004"><ele>362.25</ele><time>2026-04-19T09:04:12.264Z</time></trkpt><trkpt lat="43.4085684" lon="12.9713358"><ele>358.0</ele><time>2026-04-19T09:04:13.265Z</time></trkpt><trkpt lat="43.4084543" lon="12.9713744"><ele>358.0</ele><time>2026-04-19T09:04:14.264Z</time></trkpt><trkpt lat="43.4083475" lon="12.9714127"><ele>358.0</ele><time>2026-04-19T09:04:15.265Z</time></trkpt><trkpt lat="43.4082394" lon="12.9714552"><ele>358.0</ele><time>2026-04-19T09:04:16.264Z</time></trkpt><trkpt lat="43.4081324" lon="12.971496"><ele>358.0</ele><time>2026-04-19T09:04:17.264Z</time></trkpt><trkpt lat="43.4080278" lon="12.971541"><ele>358.0</ele><time>2026-04-19T09:04:18.265Z</time></trkpt><trkpt lat="43.4079258" lon="12.9715883"><ele>358.59999999999997</ele><time>2026-04-19T09:04:19.265Z</time></trkpt><trkpt lat="43.4078247" lon="12.9716409"><ele>359.2</ele><time>2026-04-19T09:04:20.265Z</time></trkpt><trkpt lat="43.4077243" lon="12.9716907"><ele>359.8</ele><time>2026-04-19T09:04:21.263Z</time></trkpt><trkpt lat="43.4076231" lon="12.9717445"><ele>360.4</ele><time>2026-04-19T09:04:22.263Z</time></trkpt><trkpt lat="43.4075229" lon="12.9718095"><ele>361.0</ele><time>2026-04-19T09:04:23.265Z</time></trkpt><trkpt lat="43.4074267" lon="12.9718837"><ele>361.0</ele><time>2026-04-19T09:04:24.265Z</time></trkpt><trkpt lat="43.4073356" lon="12.9719603"><ele>361.0</ele><time>2026-04-19T09:04:25.264Z</time></trkpt><trkpt lat="43.4072468" lon="12.9720392"><ele>361.0</ele><time>2026-04-19T09:04:26.265Z</time></trkpt><trkpt lat="43.4071595" lon="12.9721175"><ele>361.0</ele><time>2026-04-19T09:04:27.265Z</time></trkpt><trkpt lat="43.4070722" lon="12.9722016"><ele>361.0</ele><time>2026-04-19T09:04:28.265Z</time></trkpt><trkpt lat="43.4069837" lon="12.9722857"><ele>359.4</ele><time>2026-04-19T09:04:29.265Z</time></trkpt><trkpt lat="43.4068953" lon="12.9723718"><ele>357.8</ele><time>2026-04-19T09:04:30.264Z</time></trkpt><trkpt lat="43.4068094" lon="12.97246"><ele>356.2</ele><time>2026-04-19T09:04:31.265Z</time></trkpt><trkpt lat="43.4067218" lon="12.9725515"><ele>354.59999999999997</ele><time>2026-04-19T09:04:32.265Z</time></trkpt><trkpt lat="43.4066344" lon="12.9726478"><ele>353.0</ele><time>2026-04-19T09:04:33.265Z</time></trkpt><trkpt lat="43.4065447" lon="12.9727465"><ele>353.0</ele><time>2026-04-19T09:04:34.265Z</time></trkpt><trkpt lat="43.4064528" lon="12.9728436"><ele>353.0</ele><time>2026-04-19T09:04:35.265Z</time></trkpt><trkpt lat="43.4063559" lon="12.9729272"><ele>353.0</ele><time>2026-04-19T09:04:36.265Z</time></trkpt><trkpt lat="43.4062599" lon="12.9730018"><ele>353.0</ele><time>2026-04-19T09:04:37.264Z</time></trkpt><trkpt lat="43.4061728" lon="12.9730673"><ele>353.0</ele><time>2026-04-19T09:04:38.265Z</time></trkpt><trkpt lat="43.4060912" lon="12.973123"><ele>349.83333333333337</ele><time>2026-04-19T09:04:39.265Z</time></trkpt><trkpt lat="43.4060142" lon="12.9731742"><ele>346.6666666666667</ele><time>2026-04-19T09:04:40.265Z</time></trkpt><trkpt lat="43.4059415" lon="12.9732257"><ele>343.5</ele><time>2026-04-19T09:04:41.264Z</time></trkpt><trkpt lat="43.4058748" lon="12.9732764"><ele>340.3333333333333</ele><time>2026-04-19T09:04:42.265Z</time></trkpt><trkpt lat="43.4058088" lon="12.9733281"><ele>337.16666666666663</ele><time>2026-04-19T09:04:43.265Z</time></trkpt><trkpt lat="43.4057474" lon="12.973382"><ele>334.0</ele><time>2026-04-19T09:04:44.264Z</time></trkpt><trkpt lat="43.4056924" lon="12.9734334"><ele>334.0</ele><time>2026-04-19T09:04:45.264Z</time></trkpt><trkpt lat="43.4056089" lon="12.9735189"><ele>334.0</ele><time>2026-04-19T09:04:47.265Z</time></trkpt><trkpt lat="43.4055339" lon="12.9735733"><ele>334.0</ele><time>2026-04-19T09:04:49.265Z</time></trkpt><trkpt lat="43.4054684" lon="12.9735412"><ele>334.0</ele><time>2026-04-19T09:04:51.265Z</time></trkpt><trkpt lat="43.4054902" lon="12.9734324"><ele>334.0</ele><time>2026-04-19T09:04:53.265Z</time></trkpt><trkpt lat="43.4055403" lon="12.9733721"><ele>334.0</ele><time>2026-04-19T09:04:54.264Z</time></trkpt><trkpt lat="43.4055983" lon="12.973304"><ele>334.0</ele><time>2026-04-19T09:04:55.265Z</time></trkpt><trkpt lat="43.4057021" lon="12.9732497"><ele>334.0</ele><time>2026-04-19T09:04:56.264Z</time></trkpt><trkpt lat="43.4058028" lon="12.9731587"><ele>334.0</ele><time>2026-04-19T09:04:57.265Z</time></trkpt><trkpt lat="43.4059108" lon="12.9730564"><ele>334.0</ele><time>2026-04-19T09:04:58.265Z</time></trkpt><trkpt lat="43.4060246" lon="12.9729421"><ele>334.0</ele><time>2026-04-19T09:04:59.265Z</time></trkpt><trkpt lat="43.4061518" lon="12.9728198"><ele>334.0</ele><time>2026-04-19T09:05:00.263Z</time></trkpt><trkpt lat="43.4062643" lon="12.9726773"><ele>334.0</ele><time>2026-04-19T09:05:01.265Z</time></trkpt><trkpt lat="43.4063724" lon="12.9725364"><ele>335.0</ele><time>2026-04-19T09:05:02.265Z</time></trkpt><trkpt lat="43.4064733" lon="12.9723915"><ele>336.0</ele><time>2026-04-19T09:05:03.265Z</time></trkpt><trkpt lat="43.4065653" lon="12.9722394"><ele>337.0</ele><time>2026-04-19T09:05:04.265Z</time></trkpt><trkpt lat="43.4066523" lon="12.9720882"><ele>338.0</ele><time>2026-04-19T09:05:05.265Z</time></trkpt><trkpt lat="43.4067416" lon="12.9719393"><ele>338.0</ele><time>2026-04-19T09:05:06.264Z</time></trkpt><trkpt lat="43.4068272" lon="12.9717928"><ele>338.0</ele><time>2026-04-19T09:05:07.265Z</time></trkpt><trkpt lat="43.4069081" lon="12.9716465"><ele>338.0</ele><time>2026-04-19T09:05:08.264Z</time></trkpt><trkpt lat="43.406978" lon="12.9715106"><ele>338.0</ele><time>2026-04-19T09:05:09.264Z</time></trkpt><trkpt lat="43.4070416" lon="12.9713855"><ele>338.0</ele><time>2026-04-19T09:05:10.265Z</time></trkpt><trkpt lat="43.4070998" lon="12.9712661"><ele>338.0</ele><time>2026-04-19T09:05:11.265Z</time></trkpt><trkpt lat="43.4071605" lon="12.9711531"><ele>338.0</ele><time>2026-04-19T09:05:12.265Z</time></trkpt><trkpt lat="43.4072259" lon="12.9710521"><ele>338.0</ele><time>2026-04-19T09:05:13.264Z</time></trkpt><trkpt lat="43.4072976" lon="12.9709585"><ele>338.0</ele><time>2026-04-19T09:05:14.264Z</time></trkpt><trkpt lat="43.4073799" lon="12.9708724"><ele>331.79999999999995</ele><time>2026-04-19T09:05:15.265Z</time></trkpt><trkpt lat="43.407475" lon="12.9707924"><ele>325.59999999999997</ele><time>2026-04-19T09:05:16.265Z</time></trkpt><trkpt lat="43.4075753" lon="12.9707206"><ele>319.4</ele><time>2026-04-19T09:05:17.265Z</time></trkpt><trkpt lat="43.4076768" lon="12.9706557"><ele>313.2</ele><time>2026-04-19T09:05:18.265Z</time></trkpt><trkpt lat="43.4077776" lon="12.9705895"><ele>307.0</ele><time>2026-04-19T09:05:19.265Z</time></trkpt><trkpt lat="43.4078775" lon="12.9705248"><ele>307.0</ele><time>2026-04-19T09:05:20.264Z</time></trkpt><trkpt lat="43.4079731" lon="12.9704611"><ele>307.0</ele><time>2026-04-19T09:05:21.264Z</time></trkpt><trkpt lat="43.4080676" lon="12.9704055"><ele>307.0</ele><time>2026-04-19T09:05:22.265Z</time></trkpt><trkpt lat="43.4081589" lon="12.9703643"><ele>307.0</ele><time>2026-04-19T09:05:23.265Z</time></trkpt><trkpt lat="43.4082469" lon="12.9703331"><ele>307.0</ele><time>2026-04-19T09:05:24.265Z</time></trkpt><trkpt lat="43.4083295" lon="12.970307"><ele>305.2</ele><time>2026-04-19T09:05:25.265Z</time></trkpt><trkpt lat="43.4083958" lon="12.9702824"><ele>303.4</ele><time>2026-04-19T09:05:26.265Z</time></trkpt><trkpt lat="43.4085101" lon="12.970246"><ele>301.6</ele><time>2026-04-19T09:05:28.265Z</time></trkpt><trkpt lat="43.408616" lon="12.9701835"><ele>299.8</ele><time>2026-04-19T09:05:30.263Z</time></trkpt><trkpt lat="43.4086589" lon="12.9700411"><ele>298.0</ele><time>2026-04-19T09:05:32.264Z</time></trkpt><trkpt lat="43.4085833" lon="12.9699242"><ele>298.0</ele><time>2026-04-19T09:05:34.263Z</time></trkpt><trkpt lat="43.4085149" lon="12.9699259"><ele>298.0</ele><time>2026-04-19T09:05:35.265Z</time></trkpt><trkpt lat="43.4084312" lon="12.9699637"><ele>298.0</ele><time>2026-04-19T09:05:36.265Z</time></trkpt><trkpt lat="43.4083317" lon="12.9700284"><ele>298.0</ele><time>2026-04-19T09:05:37.264Z</time></trkpt><trkpt lat="43.4082159" lon="12.9700911"><ele>298.0</ele><time>2026-04-19T09:05:38.264Z</time></trkpt><trkpt lat="43.4080857" lon="12.9701471"><ele>300.25</ele><time>2026-04-19T09:05:39.265Z</time></trkpt><trkpt lat="43.4079531" lon="12.9702001"><ele>302.5</ele><time>2026-04-19T09:05:40.264Z</time></trkpt><trkpt lat="43.4078208" lon="12.9702484"><ele>304.75</ele><time>2026-04-19T09:05:41.265Z</time></trkpt><trkpt lat="43.4076903" lon="12.9702937"><ele>307.0</ele><time>2026-04-19T09:05:42.264Z</time></trkpt><trkpt lat="43.4075624" lon="12.9703346"><ele>307.0</ele><time>2026-04-19T09:05:43.265Z</time></trkpt><trkpt lat="43.407437" lon="12.9703682"><ele>307.0</ele><time>2026-04-19T09:05:44.264Z</time></trkpt><trkpt lat="43.4073158" lon="12.9703952"><ele>307.0</ele><time>2026-04-19T09:05:45.264Z</time></trkpt><trkpt lat="43.4071956" lon="12.9704203"><ele>307.0</ele><time>2026-04-19T09:05:46.264Z</time></trkpt><trkpt lat="43.4070751" lon="12.9704455"><ele>302.0</ele><time>2026-04-19T09:05:47.265Z</time></trkpt><trkpt lat="43.4069561" lon="12.9704736"><ele>297.0</ele><time>2026-04-19T09:05:48.265Z</time></trkpt><trkpt lat="43.4068386" lon="12.9705174"><ele>292.0</ele><time>2026-04-19T09:05:49.265Z</time></trkpt><trkpt lat="43.4067234" lon="12.9705869"><ele>287.0</ele><time>2026-04-19T09:05:50.264Z</time></trkpt><trkpt lat="43.4066159" lon="12.9706806"><ele>287.0</ele><time>2026-04-19T09:05:51.264Z</time></trkpt><trkpt lat="43.4065168" lon="12.970797"><ele>287.0</ele><time>2026-04-19T09:05:52.265Z</time></trkpt><trkpt lat="43.4064212" lon="12.970926"><ele>287.0</ele><time>2026-04-19T09:05:53.265Z</time></trkpt><trkpt lat="43.4063237" lon="12.9710667"><ele>287.0</ele><time>2026-04-19T09:05:54.265Z</time></trkpt><trkpt lat="43.4062293" lon="12.9712096"><ele>283.5</ele><time>2026-04-19T09:05:55.264Z</time></trkpt><trkpt lat="43.4061324" lon="12.9713479"><ele>280.0</ele><time>2026-04-19T09:05:56.265Z</time></trkpt><trkpt lat="43.4060313" lon="12.9714806"><ele>276.5</ele><time>2026-04-19T09:05:57.265Z</time></trkpt><trkpt lat="43.405928" lon="12.9716032"><ele>273.0</ele><time>2026-04-19T09:05:58.265Z</time></trkpt><trkpt lat="43.4058239" lon="12.9717241"><ele>272.25</ele><time>2026-04-19T09:05:59.265Z</time></trkpt><trkpt lat="43.4057202" lon="12.9718379"><ele>271.5</ele><time>2026-04-19T09:06:00.264Z</time></trkpt><trkpt lat="43.405611" lon="12.9719399"><ele>270.75</ele><time>2026-04-19T09:06:01.265Z</time></trkpt><trkpt lat="43.4055012" lon="12.9720385"><ele>270.0</ele><time>2026-04-19T09:06:02.265Z</time></trkpt><trkpt lat="43.4053881" lon="12.9721251"><ele>270.0</ele><time>2026-04-19T09:06:03.264Z</time></trkpt><trkpt lat="43.4052757" lon="12.9722045"><ele>270.0</ele><time>2026-04-19T09:06:04.264Z</time></trkpt><trkpt lat="43.4051648" lon="12.9722835"><ele>270.0</ele><time>2026-04-19T09:06:05.264Z</time></trkpt><trkpt lat="43.405057" lon="12.9723576"><ele>270.0</ele><time>2026-04-19T09:06:06.265Z</time></trkpt><trkpt lat="43.40495" lon="12.9724261"><ele>270.0</ele><time>2026-04-19T09:06:07.265Z</time></trkpt><trkpt lat="43.4048428" lon="12.9724893"><ele>270.0</ele><time>2026-04-19T09:06:08.265Z</time></trkpt><trkpt lat="43.4047334" lon="12.9725364"><ele>270.0</ele><time>2026-04-19T09:06:09.265Z</time></trkpt><trkpt lat="43.4046339" lon="12.9725836"><ele>270.0</ele><time>2026-04-19T09:06:10.265Z</time></trkpt><trkpt lat="43.404517" lon="12.9726162"><ele>271.8</ele><time>2026-04-19T09:06:11.265Z</time></trkpt><trkpt lat="43.4044084" lon="12.97265"><ele>273.6</ele><time>2026-04-19T09:06:12.265Z</time></trkpt><trkpt lat="43.404296" lon="12.9726714"><ele>275.4</ele><time>2026-04-19T09:06:13.264Z</time></trkpt><trkpt lat="43.4041851" lon="12.9726792"><ele>277.2</ele><time>2026-04-19T09:06:14.265Z</time></trkpt><trkpt lat="43.4040737" lon="12.9726784"><ele>279.0</ele><time>2026-04-19T09:06:15.265Z</time></trkpt><trkpt lat="43.4039698" lon="12.9726733"><ele>279.0</ele><time>2026-04-19T09:06:16.265Z</time></trkpt><trkpt lat="43.403873" lon="12.9726649"><ele>279.0</ele><time>2026-04-19T09:06:17.265Z</time></trkpt><trkpt lat="43.4037816" lon="12.9726531"><ele>279.0</ele><time>2026-04-19T09:06:18.264Z</time></trkpt><trkpt lat="43.4036939" lon="12.9726631"><ele>279.0</ele><time>2026-04-19T09:06:19.263Z</time></trkpt><trkpt lat="43.4036096" lon="12.9727017"><ele>279.0</ele><time>2026-04-19T09:06:20.265Z</time></trkpt><trkpt lat="43.4035223" lon="12.9727642"><ele>273.4</ele><time>2026-04-19T09:06:21.264Z</time></trkpt><trkpt lat="43.4034387" lon="12.9728462"><ele>267.79999999999995</ele><time>2026-04-19T09:06:22.265Z</time></trkpt><trkpt lat="43.403355" lon="12.9729297"><ele>262.20000000000005</ele><time>2026-04-19T09:06:23.265Z</time></trkpt><trkpt lat="43.403272" lon="12.9730153"><ele>256.6</ele><time>2026-04-19T09:06:24.265Z</time></trkpt><trkpt lat="43.4031892" lon="12.9731003"><ele>251.0</ele><time>2026-04-19T09:06:25.265Z</time></trkpt><trkpt lat="43.4031151" lon="12.9731865"><ele>251.00000000000003</ele><time>2026-04-19T09:06:26.265Z</time></trkpt><trkpt lat="43.4030582" lon="12.9732664"><ele>251.0</ele><time>2026-04-19T09:06:27.265Z</time></trkpt><trkpt lat="43.4030089" lon="12.9733455"><ele>251.0</ele><time>2026-04-19T09:06:28.265Z</time></trkpt><trkpt lat="43.4029663" lon="12.9734265"><ele>251.0</ele><time>2026-04-19T09:06:29.263Z</time></trkpt><trkpt lat="43.4029376" lon="12.9735042"><ele>251.00000000000003</ele><time>2026-04-19T09:06:30.265Z</time></trkpt><trkpt lat="43.402902" lon="12.9736456"><ele>251.0</ele><time>2026-04-19T09:06:32.265Z</time></trkpt><trkpt lat="43.4028559" lon="12.9737551"><ele>244.8</ele><time>2026-04-19T09:06:34.265Z</time></trkpt><trkpt lat="43.4027629" lon="12.9737764"><ele>238.60000000000002</ele><time>2026-04-19T09:06:36.265Z</time></trkpt><trkpt lat="43.4027397" lon="12.9736499"><ele>232.4</ele><time>2026-04-19T09:06:38.265Z</time></trkpt><trkpt lat="43.4027678" lon="12.9735624"><ele>226.2</ele><time>2026-04-19T09:06:39.265Z</time></trkpt><trkpt lat="43.4028237" lon="12.9734559"><ele>220.0</ele><time>2026-04-19T09:06:40.264Z</time></trkpt><trkpt lat="43.4028923" lon="12.9733425"><ele>219.25</ele><time>2026-04-19T09:06:41.265Z</time></trkpt><trkpt lat="43.4029676" lon="12.9732061"><ele>218.5</ele><time>2026-04-19T09:06:42.264Z</time></trkpt><trkpt lat="43.4030344" lon="12.9730728"><ele>217.75</ele><time>2026-04-19T09:06:43.263Z</time></trkpt><trkpt lat="43.4031026" lon="12.9729419"><ele>217.0</ele><time>2026-04-19T09:06:44.264Z</time></trkpt><trkpt lat="43.4031735" lon="12.9728141"><ele>219.8</ele><time>2026-04-19T09:06:45.265Z</time></trkpt><trkpt lat="43.4032402" lon="12.9726866"><ele>222.6</ele><time>2026-04-19T09:06:46.264Z</time></trkpt><trkpt lat="43.4033063" lon="12.9725617"><ele>225.40000000000003</ele><time>2026-04-19T09:06:47.265Z</time></trkpt><trkpt lat="43.4033765" lon="12.9724453"><ele>228.20000000000002</ele><time>2026-04-19T09:06:48.265Z</time></trkpt><trkpt lat="43.4034532" lon="12.9723398"><ele>231.0</ele><time>2026-04-19T09:06:49.264Z</time></trkpt><trkpt lat="43.4035363" lon="12.9722464"><ele>231.0</ele><time>2026-04-19T09:06:50.265Z</time></trkpt><trkpt lat="43.4036141" lon="12.9721567"><ele>231.00000000000003</ele><time>2026-04-19T09:06:51.264Z</time></trkpt><trkpt lat="43.4036863" lon="12.9720665"><ele>231.00000000000003</ele><time>2026-04-19T09:06:52.264Z</time></trkpt><trkpt lat="43.4037589" lon="12.9719755"><ele>231.0</ele><time>2026-04-19T09:06:53.264Z</time></trkpt><trkpt lat="43.4038278" lon="12.9718804"><ele>231.0</ele><time>2026-04-19T09:06:54.265Z</time></trkpt><trkpt lat="43.4038903" lon="12.9717791"><ele>231.20000000000002</ele><time>2026-04-19T09:06:55.264Z</time></trkpt><trkpt lat="43.4039486" lon="12.9716748"><ele>231.40000000000003</ele><time>2026-04-19T09:06:56.264Z</time></trkpt><trkpt lat="43.4040014" lon="12.9715647"><ele>231.6</ele><time>2026-04-19T09:06:57.265Z</time></trkpt><trkpt lat="43.4040476" lon="12.9714527"><ele>231.8</ele><time>2026-04-19T09:06:58.264Z</time></trkpt><trkpt lat="43.4040856" lon="12.9713345"><ele>232.0</ele><time>2026-04-19T09:06:59.265Z</time></trkpt><trkpt lat="43.4041097" lon="12.9712075"><ele>232.0</ele><time>2026-04-19T09:07:00.264Z</time></trkpt><trkpt lat="43.4041193" lon="12.9710726"><ele>232.0</ele><time>2026-04-19T09:07:01.264Z</time></trkpt><trkpt lat="43.4041214" lon="12.9709364"><ele>232.0</ele><time>2026-04-19T09:07:02.264Z</time></trkpt><trkpt lat="43.4041214" lon="12.9707964"><ele>232.0</ele><time>2026-04-19T09:07:03.264Z</time></trkpt><trkpt lat="43.4041211" lon="12.970658"><ele>232.0</ele><time>2026-04-19T09:07:04.265Z</time></trkpt><trkpt lat="43.4041211" lon="12.9705255"><ele>229.8</ele><time>2026-04-19T09:07:05.265Z</time></trkpt><trkpt lat="43.4041189" lon="12.9704"><ele>227.6</ele><time>2026-04-19T09:07:06.264Z</time></trkpt><trkpt lat="43.4041153" lon="12.9702892"><ele>225.40000000000003</ele><time>2026-04-19T09:07:07.265Z</time></trkpt><trkpt lat="43.4041028" lon="12.9701923"><ele>223.20000000000002</ele><time>2026-04-19T09:07:08.264Z</time></trkpt><trkpt lat="43.4040253" lon="12.9700792"><ele>221.0</ele><time>2026-04-19T09:07:10.265Z</time></trkpt><trkpt lat="43.4039106" lon="12.9701338"><ele>217.25</ele><time>2026-04-19T09:07:12.264Z</time></trkpt><trkpt lat="43.4038188" lon="12.9703303"><ele>213.5</ele><time>2026-04-19T09:07:14.264Z</time></trkpt><trkpt lat="43.4037763" lon="12.9704535"><ele>209.75</ele><time>2026-04-19T09:07:15.265Z</time></trkpt><trkpt lat="43.4037398" lon="12.9705804"><ele>206.0</ele><time>2026-04-19T09:07:16.265Z</time></trkpt><trkpt lat="43.403703" lon="12.9707041"><ele>206.0</ele><time>2026-04-19T09:07:17.265Z</time></trkpt><trkpt lat="43.4036532" lon="12.9708196"><ele>206.0</ele><time>2026-04-19T09:07:18.263Z</time></trkpt><trkpt lat="43.4035997" lon="12.9709339"><ele>206.0</ele><time>2026-04-19T09:07:19.264Z</time></trkpt><trkpt lat="43.4034978" lon="12.9709991"><ele>206.0</ele><time>2026-04-19T09:07:20.264Z</time></trkpt><trkpt lat="43.4034002" lon="12.9710533"><ele>206.0</ele><time>2026-04-19T09:07:21.265Z</time></trkpt><trkpt lat="43.4033012" lon="12.9710914"><ele>204.83333333333334</ele><time>2026-04-19T09:07:22.265Z</time></trkpt><trkpt lat="43.4032133" lon="12.9711127"><ele>203.66666666666669</ele><time>2026-04-19T09:07:23.265Z</time></trkpt><trkpt lat="43.4031402" lon="12.9711283"><ele>202.5</ele><time>2026-04-19T09:07:24.264Z</time></trkpt><trkpt lat="43.4030714" lon="12.9711489"><ele>201.33333333333331</ele><time>2026-04-19T09:07:25.265Z</time></trkpt><trkpt lat="43.4030015" lon="12.9711837"><ele>200.16666666666666</ele><time>2026-04-19T09:07:26.265Z</time></trkpt><trkpt lat="43.4029326" lon="12.9712317"><ele>199.0</ele><time>2026-04-19T09:07:27.265Z</time></trkpt><trkpt lat="43.402874" lon="12.971303"><ele>198.99999999999997</ele><time>2026-04-19T09:07:28.264Z</time></trkpt><trkpt lat="43.4028219" lon="12.9713976"><ele>199.0</ele><time>2026-04-19T09:07:29.263Z</time></trkpt><trkpt lat="43.4027769" lon="12.971497"><ele>199.0</ele><time>2026-04-19T09:07:30.264Z</time></trkpt><trkpt lat="43.402744" lon="12.9715909"><ele>199.0</ele><time>2026-04-19T09:07:31.265Z</time></trkpt><trkpt lat="43.4027339" lon="12.9716953"><ele>198.99999999999997</ele><time>2026-04-19T09:07:32.264Z</time></trkpt><trkpt lat="43.4027213" lon="12.9718109"><ele>199.0</ele><time>2026-04-19T09:07:33.265Z</time></trkpt><trkpt lat="43.40271" lon="12.9719418"><ele>200.2</ele><time>2026-04-19T09:07:34.265Z</time></trkpt><trkpt lat="43.4026995" lon="12.9720859"><ele>201.39999999999998</ele><time>2026-04-19T09:07:35.264Z</time></trkpt><trkpt lat="43.4026821" lon="12.9722321"><ele>202.6</ele><time>2026-04-19T09:07:36.265Z</time></trkpt><trkpt lat="43.4026579" lon="12.9723828"><ele>203.8</ele><time>2026-04-19T09:07:37.265Z</time></trkpt><trkpt lat="43.4026306" lon="12.9725344"><ele>205.0</ele><time>2026-04-19T09:07:38.265Z</time></trkpt><trkpt lat="43.4026034" lon="12.9726867"><ele>207.4</ele><time>2026-04-19T09:07:39.264Z</time></trkpt><trkpt lat="43.4025704" lon="12.9728371"><ele>209.8</ele><time>2026-04-19T09:07:40.265Z</time></trkpt><trkpt lat="43.4025219" lon="12.9729758"><ele>212.2</ele><time>2026-04-19T09:07:41.265Z</time></trkpt><trkpt lat="43.402462" lon="12.9730976"><ele>214.6</ele><time>2026-04-19T09:07:42.264Z</time></trkpt><trkpt lat="43.4023967" lon="12.9731985"><ele>217.0</ele><time>2026-04-19T09:07:43.264Z</time></trkpt><trkpt lat="43.4023292" lon="12.9732855"><ele>217.49999999999997</ele><time>2026-04-19T09:07:44.265Z</time></trkpt><trkpt lat="43.4022625" lon="12.9733618"><ele>218.0</ele><time>2026-04-19T09:07:45.265Z</time></trkpt><trkpt lat="43.4021963" lon="12.9734315"><ele>218.5</ele><time>2026-04-19T09:07:46.264Z</time></trkpt><trkpt lat="43.4021267" lon="12.9734993"><ele>219.0</ele><time>2026-04-19T09:07:47.265Z</time></trkpt><trkpt lat="43.4020569" lon="12.9735554"><ele>219.49999999999997</ele><time>2026-04-19T09:07:48.264Z</time></trkpt><trkpt lat="43.4019868" lon="12.9736027"><ele>220.0</ele><time>2026-04-19T09:07:49.265Z</time></trkpt><trkpt lat="43.4019141" lon="12.9736263"><ele>218.8</ele><time>2026-04-19T09:07:50.265Z</time></trkpt><trkpt lat="43.4018058" lon="12.9736306"><ele>217.6</ele><time>2026-04-19T09:07:52.265Z</time></trkpt><trkpt lat="43.4017194" lon="12.9736051"><ele>216.39999999999998</ele><time>2026-04-19T09:07:54.263Z</time></trkpt><trkpt lat="43.4016363" lon="12.9735909"><ele>215.2</ele><time>2026-04-19T09:07:56.265Z</time></trkpt><trkpt lat="43.401563" lon="12.9736459"><ele>214.0</ele><time>2026-04-19T09:07:59.264Z</time></trkpt><trkpt lat="43.4015422" lon="12.9737663"><ele>214.0</ele><time>2026-04-19T09:08:01.264Z</time></trkpt><trkpt lat="43.4016072" lon="12.9739514"><ele>213.99999999999997</ele><time>2026-04-19T09:08:03.265Z</time></trkpt><trkpt lat="43.4016461" lon="12.9740443"><ele>213.99999999999997</ele><time>2026-04-19T09:08:04.265Z</time></trkpt><trkpt lat="43.4016823" lon="12.9741264"><ele>214.0</ele><time>2026-04-19T09:08:05.265Z</time></trkpt><trkpt lat="43.4017344" lon="12.9742068"><ele>214.0</ele><time>2026-04-19T09:08:06.264Z</time></trkpt><trkpt lat="43.4017945" lon="12.9742751"><ele>214.49999999999997</ele><time>2026-04-19T09:08:07.263Z</time></trkpt><trkpt lat="43.4018596" lon="12.9743336"><ele>215.0</ele><time>2026-04-19T09:08:08.263Z</time></trkpt><trkpt lat="43.4019352" lon="12.9743829"><ele>215.5</ele><time>2026-04-19T09:08:09.265Z</time></trkpt><trkpt lat="43.4020175" lon="12.9744238"><ele>216.0</ele><time>2026-04-19T09:08:10.264Z</time></trkpt><trkpt lat="43.4021052" lon="12.9744532"><ele>216.49999999999997</ele><time>2026-04-19T09:08:11.265Z</time></trkpt><trkpt lat="43.4021981" lon="12.9744742"><ele>217.0</ele><time>2026-04-19T09:08:12.265Z</time></trkpt><trkpt lat="43.4022934" lon="12.9744869"><ele>213.0</ele><time>2026-04-19T09:08:13.265Z</time></trkpt><trkpt lat="43.4023919" lon="12.9744987"><ele>209.0</ele><time>2026-04-19T09:08:14.265Z</time></trkpt><trkpt lat="43.4024948" lon="12.974513"><ele>205.0</ele><time>2026-04-19T09:08:15.264Z</time></trkpt><trkpt lat="43.4025927" lon="12.9745312"><ele>201.0</ele><time>2026-04-19T09:08:16.264Z</time></trkpt><trkpt lat="43.4026891" lon="12.9745397"><ele>197.0</ele><time>2026-04-19T09:08:17.264Z</time></trkpt><trkpt lat="43.4027811" lon="12.9745493"><ele>197.0</ele><time>2026-04-19T09:08:18.265Z</time></trkpt><trkpt lat="43.4028673" lon="12.9745568"><ele>197.0</ele><time>2026-04-19T09:08:19.265Z</time></trkpt><trkpt lat="43.402948" lon="12.9745619"><ele>197.0</ele><time>2026-04-19T09:08:20.263Z</time></trkpt><trkpt lat="43.4030196" lon="12.9745728"><ele>197.0</ele><time>2026-04-19T09:08:21.265Z</time></trkpt><trkpt lat="43.4030863" lon="12.974584"><ele>197.0</ele><time>2026-04-19T09:08:22.265Z</time></trkpt><trkpt lat="43.4031507" lon="12.9745945"><ele>197.0</ele><time>2026-04-19T09:08:23.265Z</time></trkpt><trkpt lat="43.4032152" lon="12.9746058"><ele>197.0</ele><time>2026-04-19T09:08:24.264Z</time></trkpt><trkpt lat="43.403283" lon="12.9746148"><ele>196.83333333333334</ele><time>2026-04-19T09:08:25.265Z</time></trkpt><trkpt lat="43.4033601" lon="12.9746262"><ele>196.66666666666669</ele><time>2026-04-19T09:08:26.265Z</time></trkpt><trkpt lat="43.4034402" lon="12.9746364"><ele>196.5</ele><time>2026-04-19T09:08:27.265Z</time></trkpt><trkpt lat="43.4035213" lon="12.9746515"><ele>196.33333333333331</ele><time>2026-04-19T09:08:28.265Z</time></trkpt><trkpt lat="43.4036026" lon="12.97467"><ele>196.16666666666666</ele><time>2026-04-19T09:08:29.265Z</time></trkpt><trkpt lat="43.4036841" lon="12.974692"><ele>196.0</ele><time>2026-04-19T09:08:30.264Z</time></trkpt><trkpt lat="43.403765" lon="12.9747182"><ele>198.66666666666666</ele><time>2026-04-19T09:08:31.265Z</time></trkpt><trkpt lat="43.4038458" lon="12.9747479"><ele>201.33333333333331</ele><time>2026-04-19T09:08:32.263Z</time></trkpt><trkpt lat="43.4039269" lon="12.9747854"><ele>204.0</ele><time>2026-04-19T09:08:33.265Z</time></trkpt><trkpt lat="43.4040051" lon="12.9748285"><ele>206.66666666666669</ele><time>2026-04-19T09:08:34.264Z</time></trkpt><trkpt lat="43.4040811" lon="12.9748802"><ele>209.33333333333334</ele><time>2026-04-19T09:08:35.264Z</time></trkpt><trkpt lat="43.404156" lon="12.9749385"><ele>212.0</ele><time>2026-04-19T09:08:36.265Z</time></trkpt><trkpt lat="43.4042296" lon="12.9750086"><ele>208.0</ele><time>2026-04-19T09:08:37.265Z</time></trkpt><trkpt lat="43.4042992" lon="12.975094"><ele>204.0</ele><time>2026-04-19T09:08:38.265Z</time></trkpt><trkpt lat="43.4043673" lon="12.9751917"><ele>200.0</ele><time>2026-04-19T09:08:39.264Z</time></trkpt><trkpt lat="43.4044359" lon="12.9752945"><ele>196.0</ele><time>2026-04-19T09:08:40.265Z</time></trkpt><trkpt lat="43.404502" lon="12.9754067"><ele>192.0</ele><time>2026-04-19T09:08:41.263Z</time></trkpt><trkpt lat="43.4045606" lon="12.9755263"><ele>192.0</ele><time>2026-04-19T09:08:42.265Z</time></trkpt><trkpt lat="43.4046063" lon="12.9756479"><ele>192.0</ele><time>2026-04-19T09:08:43.265Z</time></trkpt><trkpt lat="43.4046371" lon="12.9757743"><ele>192.0</ele><time>2026-04-19T09:08:44.265Z</time></trkpt><trkpt lat="43.4046626" lon="12.9759079"><ele>192.0</ele><time>2026-04-19T09:08:45.265Z</time></trkpt><trkpt lat="43.4046847" lon="12.9760438"><ele>192.0</ele><time>2026-04-19T09:08:46.264Z</time></trkpt><trkpt lat="43.4047061" lon="12.9761805"><ele>193.39999999999998</ele><time>2026-04-19T09:08:47.265Z</time></trkpt><trkpt lat="43.404725" lon="12.9763172"><ele>194.79999999999998</ele><time>2026-04-19T09:08:48.265Z</time></trkpt><trkpt lat="43.4047425" lon="12.9764502"><ele>196.2</ele><time>2026-04-19T09:08:49.264Z</time></trkpt><trkpt lat="43.4047587" lon="12.9765771"><ele>197.6</ele><time>2026-04-19T09:08:50.264Z</time></trkpt><trkpt lat="43.4047748" lon="12.9767001"><ele>199.0</ele><time>2026-04-19T09:08:51.264Z</time></trkpt><trkpt lat="43.4047889" lon="12.9768216"><ele>199.0</ele><time>2026-04-19T09:08:52.264Z</time></trkpt><trkpt lat="43.4048044" lon="12.9769399"><ele>199.0</ele><time>2026-04-19T09:08:53.265Z</time></trkpt><trkpt lat="43.4048211" lon="12.9770566"><ele>199.0</ele><time>2026-04-19T09:08:54.264Z</time></trkpt><trkpt lat="43.4048387" lon="12.9771782"><ele>199.0</ele><time>2026-04-19T09:08:55.265Z</time></trkpt><trkpt lat="43.4048597" lon="12.9773079"><ele>199.0</ele><time>2026-04-19T09:08:56.265Z</time></trkpt><trkpt lat="43.4048888" lon="12.9774317"><ele>197.49999999999997</ele><time>2026-04-19T09:08:57.265Z</time></trkpt><trkpt lat="43.4049269" lon="12.9775486"><ele>196.0</ele><time>2026-04-19T09:08:58.265Z</time></trkpt><trkpt lat="43.4049696" lon="12.9776539"><ele>194.5</ele><time>2026-04-19T09:08:59.265Z</time></trkpt><trkpt lat="43.4050145" lon="12.9777472"><ele>193.0</ele><time>2026-04-19T09:09:00.264Z</time></trkpt><trkpt lat="43.4050655" lon="12.9778452"><ele>191.5</ele><time>2026-04-19T09:09:01.263Z</time></trkpt><trkpt lat="43.40512" lon="12.9779482"><ele>190.0</ele><time>2026-04-19T09:09:02.264Z</time></trkpt><trkpt lat="43.4051768" lon="12.9780568"><ele>190.0</ele><time>2026-04-19T09:09:03.265Z</time></trkpt><trkpt lat="43.4052329" lon="12.9781652"><ele>190.0</ele><time>2026-04-19T09:09:04.264Z</time></trkpt><trkpt lat="43.4052872" lon="12.978271"><ele>190.0</ele><time>2026-04-19T09:09:05.265Z</time></trkpt><trkpt lat="43.4053398" lon="12.9783721"><ele>190.0</ele><time>2026-04-19T09:09:06.264Z</time></trkpt><trkpt lat="43.4053855" lon="12.9784622"><ele>190.0</ele><time>2026-04-19T09:09:07.265Z</time></trkpt><trkpt lat="43.4054291" lon="12.9785443"><ele>190.0</ele><time>2026-04-19T09:09:08.265Z</time></trkpt><trkpt lat="43.4054707" lon="12.9786175"><ele>189.33333333333334</ele><time>2026-04-19T09:09:09.264Z</time></trkpt><trkpt lat="43.4055093" lon="12.9786903"><ele>188.66666666666669</ele><time>2026-04-19T09:09:10.264Z</time></trkpt><trkpt lat="43.405548" lon="12.9787597"><ele>188.0</ele><time>2026-04-19T09:09:11.265Z</time></trkpt><trkpt lat="43.4056174" lon="12.9788965"><ele>187.33333333333334</ele><time>2026-04-19T09:09:13.265Z</time></trkpt><trkpt lat="43.4056924" lon="12.9790294"><ele>186.66666666666666</ele><time>2026-04-19T09:09:15.265Z</time></trkpt><trkpt lat="43.4057307" lon="12.9790985"><ele>186.0</ele><time>2026-04-19T09:09:16.264Z</time></trkpt><trkpt lat="43.4057688" lon="12.9791753"><ele>185.83333333333334</ele><time>2026-04-19T09:09:17.265Z</time></trkpt><trkpt lat="43.4058095" lon="12.9792547"><ele>185.66666666666666</ele><time>2026-04-19T09:09:18.265Z</time></trkpt><trkpt lat="43.4058506" lon="12.9793284"><ele>185.5</ele><time>2026-04-19T09:09:19.264Z</time></trkpt><trkpt lat="43.4059192" lon="12.9794576"><ele>185.33333333333331</ele><time>2026-04-19T09:09:21.265Z</time></trkpt><trkpt lat="43.4059715" lon="12.9795614"><ele>185.16666666666666</ele><time>2026-04-19T09:09:23.263Z</time></trkpt><trkpt lat="43.406018" lon="12.9796513"><ele>185.0</ele><time>2026-04-19T09:09:25.264Z</time></trkpt><trkpt lat="43.4060595" lon="12.9797367"><ele>184.99999999999997</ele><time>2026-04-19T09:09:27.265Z</time></trkpt><trkpt lat="43.4061062" lon="12.9798297"><ele>185.0</ele><time>2026-04-19T09:09:30.265Z</time></trkpt><trkpt lat="43.4061538" lon="12.9799014"><ele>185.0</ele><time>2026-04-19T09:09:41.264Z</time></trkpt><trkpt lat="43.4062009" lon="12.9799913"><ele>185.0</ele><time>2026-04-19T09:09:53.265Z</time></trkpt><trkpt lat="43.4062421" lon="12.9800604"><ele>185.0</ele><time>2026-04-19T09:09:56.264Z</time></trkpt><trkpt lat="43.4062785" lon="12.9801384"><ele>184.99999999999997</ele><time>2026-04-19T09:10:00.264Z</time></trkpt><trkpt lat="43.4063252" lon="12.9802221"><ele>185.0</ele><time>2026-04-19T09:10:05.265Z</time></trkpt><trkpt lat="43.4063505" lon="12.9803149"><ele>185.6</ele><time>2026-04-19T09:10:10.264Z</time></trkpt><trkpt lat="43.4064114" lon="12.9804108"><ele>186.2</ele><time>2026-04-19T09:33:46.261Z</time></trkpt><trkpt lat="43.4064813" lon="12.9805389"><ele>186.8</ele><time>2026-04-19T09:33:48.261Z</time></trkpt><trkpt lat="43.4065363" lon="12.9806581"><ele>187.4</ele><time>2026-04-19T09:33:50.26Z</time></trkpt><trkpt lat="43.4065603" lon="12.9807488"><ele>188.0</ele><time>2026-04-19T09:33:52.261Z</time></trkpt><trkpt lat="43.4065912" lon="12.9808431"><ele>191.66666666666666</ele><time>2026-04-19T09:33:55.261Z</time></trkpt><trkpt lat="43.4066367" lon="12.9809174"><ele>195.33333333333331</ele><time>2026-04-19T09:33:59.26Z</time></trkpt><trkpt lat="43.4066983" lon="12.9809808"><ele>199.0</ele><time>2026-04-19T09:34:01.261Z</time></trkpt><trkpt lat="43.4067833" lon="12.9809761"><ele>202.66666666666666</ele><time>2026-04-19T09:34:04.261Z</time></trkpt><trkpt lat="43.4068623" lon="12.9809597"><ele>206.33333333333334</ele><time>2026-04-19T09:34:07.26Z</time></trkpt><trkpt lat="43.4069328" lon="12.9809177"><ele>210.0</ele><time>2026-04-19T09:34:13.26Z</time></trkpt><trkpt lat="43.4070159" lon="12.9808837"><ele>206.2</ele><time>2026-04-19T09:34:16.26Z</time></trkpt><trkpt lat="43.4070961" lon="12.9808381"><ele>202.4</ele><time>2026-04-19T09:34:18.261Z</time></trkpt><trkpt lat="43.4071821" lon="12.9807882"><ele>198.60000000000002</ele><time>2026-04-19T09:34:20.26Z</time></trkpt><trkpt lat="43.407271" lon="12.9807419"><ele>194.8</ele><time>2026-04-19T09:34:22.26Z</time></trkpt><trkpt lat="43.4073636" lon="12.980695"><ele>191.0</ele><time>2026-04-19T09:34:24.259Z</time></trkpt><trkpt lat="43.4074539" lon="12.9806428"><ele>191.0</ele><time>2026-04-19T09:34:26.261Z</time></trkpt><trkpt lat="43.4075515" lon="12.9805841"><ele>191.0</ele><time>2026-04-19T09:34:28.261Z</time></trkpt><trkpt lat="43.4076679" lon="12.9805247"><ele>191.0</ele><time>2026-04-19T09:34:30.261Z</time></trkpt><trkpt lat="43.4077829" lon="12.9804619"><ele>191.0</ele><time>2026-04-19T09:34:32.261Z</time></trkpt><trkpt lat="43.4078968" lon="12.980398"><ele>193.5</ele><time>2026-04-19T09:34:34.261Z</time></trkpt><trkpt lat="43.4080086" lon="12.9803419"><ele>196.0</ele><time>2026-04-19T09:34:36.26Z</time></trkpt><trkpt lat="43.4081203" lon="12.9802864"><ele>198.5</ele><time>2026-04-19T09:34:38.261Z</time></trkpt><trkpt lat="43.4082319" lon="12.9802358"><ele>201.0</ele><time>2026-04-19T09:34:40.261Z</time></trkpt><trkpt lat="43.4083367" lon="12.9801918"><ele>201.0</ele><time>2026-04-19T09:34:42.26Z</time></trkpt><trkpt lat="43.4084395" lon="12.9801592"><ele>201.0</ele><time>2026-04-19T09:34:44.261Z</time></trkpt><trkpt lat="43.4085277" lon="12.9801259"><ele>201.0</ele><time>2026-04-19T09:34:46.261Z</time></trkpt><trkpt lat="43.4085961" lon="12.9801031"><ele>201.0</ele><time>2026-04-19T09:34:48.261Z</time></trkpt><trkpt lat="43.4086748" lon="12.9800779"><ele>201.0</ele><time>2026-04-19T09:34:51.26Z</time></trkpt><trkpt lat="43.4087583" lon="12.980032"><ele>201.0</ele><time>2026-04-19T09:34:53.261Z</time></trkpt><trkpt lat="43.4088221" lon="12.9799468"><ele>199.16666666666666</ele><time>2026-04-19T09:34:55.26Z</time></trkpt><trkpt lat="43.4088335" lon="12.9798385"><ele>197.33333333333334</ele><time>2026-04-19T09:34:57.261Z</time></trkpt><trkpt lat="43.4088356" lon="12.9797265"><ele>195.5</ele><time>2026-04-19T09:34:59.261Z</time></trkpt><trkpt lat="43.4088402" lon="12.9796174"><ele>193.66666666666669</ele><time>2026-04-19T09:35:01.26Z</time></trkpt><trkpt lat="43.4088337" lon="12.979504"><ele>191.83333333333334</ele><time>2026-04-19T09:35:03.26Z</time></trkpt><trkpt lat="43.408841" lon="12.9793665"><ele>190.0</ele><time>2026-04-19T09:35:05.26Z</time></trkpt><trkpt lat="43.408861" lon="12.9792834"><ele>190.0</ele><time>2026-04-19T09:35:06.261Z</time></trkpt><trkpt lat="43.408897" lon="12.9792005"><ele>190.0</ele><time>2026-04-19T09:35:07.261Z</time></trkpt><trkpt lat="43.4089423" lon="12.9791199"><ele>190.0</ele><time>2026-04-19T09:35:08.261Z</time></trkpt><trkpt lat="43.4089954" lon="12.9790444"><ele>190.0</ele><time>2026-04-19T09:35:09.26Z</time></trkpt><trkpt lat="43.4090532" lon="12.9789724"><ele>190.0</ele><time>2026-04-19T09:35:10.261Z</time></trkpt><trkpt lat="43.4091169" lon="12.9789079"><ele>190.0</ele><time>2026-04-19T09:35:11.261Z</time></trkpt><trkpt lat="43.4091877" lon="12.978855"><ele>188.66666666666669</ele><time>2026-04-19T09:35:12.26Z</time></trkpt><trkpt lat="43.4092645" lon="12.9788143"><ele>187.33333333333334</ele><time>2026-04-19T09:35:13.261Z</time></trkpt><trkpt lat="43.4093444" lon="12.978778"><ele>186.0</ele><time>2026-04-19T09:35:14.261Z</time></trkpt><trkpt lat="43.4094255" lon="12.9787445"><ele>184.66666666666666</ele><time>2026-04-19T09:35:15.261Z</time></trkpt><trkpt lat="43.4095095" lon="12.9787093"><ele>183.33333333333331</ele><time>2026-04-19T09:35:16.26Z</time></trkpt><trkpt lat="43.4095979" lon="12.9786759"><ele>182.0</ele><time>2026-04-19T09:35:17.261Z</time></trkpt><trkpt lat="43.4096891" lon="12.9786397"><ele>182.0</ele><time>2026-04-19T09:35:18.261Z</time></trkpt><trkpt lat="43.4097838" lon="12.9786027"><ele>182.0</ele><time>2026-04-19T09:35:19.261Z</time></trkpt><trkpt lat="43.4098823" lon="12.9785709"><ele>182.0</ele><time>2026-04-19T09:35:20.261Z</time></trkpt><trkpt lat="43.4099839" lon="12.9785443"><ele>182.0</ele><time>2026-04-19T09:35:21.261Z</time></trkpt><trkpt lat="43.4100868" lon="12.9785203"><ele>182.0</ele><time>2026-04-19T09:35:22.261Z</time></trkpt><trkpt lat="43.4101911" lon="12.9785139"><ele>182.0</ele><time>2026-04-19T09:35:23.261Z</time></trkpt><trkpt lat="43.4102963" lon="12.9785264"><ele>182.0</ele><time>2026-04-19T09:35:24.261Z</time></trkpt><trkpt lat="43.4103985" lon="12.9785513"><ele>182.0</ele><time>2026-04-19T09:35:25.26Z</time></trkpt><trkpt lat="43.4104968" lon="12.9785861"><ele>182.0</ele><time>2026-04-19T09:35:26.26Z</time></trkpt><trkpt lat="43.4105871" lon="12.9786306"><ele>182.0</ele><time>2026-04-19T09:35:27.261Z</time></trkpt><trkpt lat="43.4106708" lon="12.9786845"><ele>182.0</ele><time>2026-04-19T09:35:28.26Z</time></trkpt><trkpt lat="43.4107487" lon="12.978738"><ele>182.0</ele><time>2026-04-19T09:35:29.26Z</time></trkpt><trkpt lat="43.4108156" lon="12.978789"><ele>182.0</ele><time>2026-04-19T09:35:30.26Z</time></trkpt><trkpt lat="43.4108703" lon="12.9788487"><ele>182.0</ele><time>2026-04-19T09:35:31.26Z</time></trkpt><trkpt lat="43.4109185" lon="12.9789106"><ele>182.0</ele><time>2026-04-19T09:35:32.261Z</time></trkpt><trkpt lat="43.4110298" lon="12.978978"><ele>182.0</ele><time>2026-04-19T09:35:34.26Z</time></trkpt><trkpt lat="43.4111425" lon="12.9789129"><ele>182.0</ele><time>2026-04-19T09:35:36.26Z</time></trkpt><trkpt lat="43.4111859" lon="12.9788409"><ele>182.0</ele><time>2026-04-19T09:35:37.261Z</time></trkpt><trkpt lat="43.4112296" lon="12.9787681"><ele>182.0</ele><time>2026-04-19T09:35:38.261Z</time></trkpt><trkpt lat="43.4112949" lon="12.9787279"><ele>182.0</ele><time>2026-04-19T09:35:39.261Z</time></trkpt><trkpt lat="43.4113701" lon="12.9787318"><ele>182.0</ele><time>2026-04-19T09:35:40.26Z</time></trkpt><trkpt lat="43.4114435" lon="12.9787715"><ele>182.0</ele><time>2026-04-19T09:35:41.261Z</time></trkpt><trkpt lat="43.4115105" lon="12.978846"><ele>182.0</ele><time>2026-04-19T09:35:42.261Z</time></trkpt><trkpt lat="43.4115694" lon="12.9789453"><ele>182.33333333333331</ele><time>2026-04-19T09:35:43.26Z</time></trkpt><trkpt lat="43.4116184" lon="12.9790531"><ele>182.66666666666666</ele><time>2026-04-19T09:35:44.261Z</time></trkpt><trkpt lat="43.411666" lon="12.9791593"><ele>183.0</ele><time>2026-04-19T09:35:45.261Z</time></trkpt><trkpt lat="43.4117149" lon="12.9792618"><ele>183.33333333333334</ele><time>2026-04-19T09:35:46.261Z</time></trkpt><trkpt lat="43.4117553" lon="12.9793589"><ele>183.66666666666669</ele><time>2026-04-19T09:35:47.261Z</time></trkpt><trkpt lat="43.4117916" lon="12.9794495"><ele>184.0</ele><time>2026-04-19T09:35:48.261Z</time></trkpt><trkpt lat="43.4118275" lon="12.9795303"><ele>185.83333333333334</ele><time>2026-04-19T09:35:49.26Z</time></trkpt><trkpt lat="43.4118665" lon="12.9796065"><ele>187.66666666666669</ele><time>2026-04-19T09:35:50.261Z</time></trkpt><trkpt lat="43.4119059" lon="12.9796815"><ele>189.5</ele><time>2026-04-19T09:35:51.261Z</time></trkpt><trkpt lat="43.4119457" lon="12.9797557"><ele>191.33333333333334</ele><time>2026-04-19T09:35:52.26Z</time></trkpt><trkpt lat="43.4119824" lon="12.9798321"><ele>193.16666666666666</ele><time>2026-04-19T09:35:53.26Z</time></trkpt><trkpt lat="43.4120356" lon="12.9798842"><ele>195.0</ele><time>2026-04-19T09:35:54.26Z</time></trkpt><trkpt lat="43.4121367" lon="12.9799783"><ele>198.66666666666666</ele><time>2026-04-19T09:35:56.261Z</time></trkpt><trkpt lat="43.4121904" lon="12.9800258"><ele>202.33333333333331</ele><time>2026-04-19T09:35:57.26Z</time></trkpt><trkpt lat="43.4122464" lon="12.9800712"><ele>206.0</ele><time>2026-04-19T09:35:58.261Z</time></trkpt><trkpt lat="43.4123032" lon="12.9801122"><ele>209.66666666666666</ele><time>2026-04-19T09:35:59.261Z</time></trkpt><trkpt lat="43.412405" lon="12.980182"><ele>213.33333333333331</ele><time>2026-04-19T09:36:01.261Z</time></trkpt><trkpt lat="43.4124859" lon="12.9802313"><ele>217.0</ele><time>2026-04-19T09:36:03.261Z</time></trkpt><trkpt lat="43.412548" lon="12.9802672"><ele>217.0</ele><time>2026-04-19T09:36:05.26Z</time></trkpt><trkpt lat="43.4126168" lon="12.9802979"><ele>217.0</ele><time>2026-04-19T09:36:08.261Z</time></trkpt><trkpt lat="43.4126979" lon="12.9803532"><ele>217.0</ele><time>2026-04-19T09:36:11.261Z</time></trkpt><trkpt lat="43.4127751" lon="12.9804122"><ele>217.0</ele><time>2026-04-19T09:36:13.26Z</time></trkpt><trkpt lat="43.4128684" lon="12.9805007"><ele>217.0</ele><time>2026-04-19T09:36:15.261Z</time></trkpt><trkpt lat="43.412962" lon="12.9806127"><ele>218.0</ele><time>2026-04-19T09:36:17.261Z</time></trkpt><trkpt lat="43.4130074" lon="12.980681"><ele>219.0</ele><time>2026-04-19T09:36:18.261Z</time></trkpt><trkpt lat="43.4130493" lon="12.9807522"><ele>220.0</ele><time>2026-04-19T09:36:19.26Z</time></trkpt><trkpt lat="43.4130878" lon="12.9808319"><ele>221.0</ele><time>2026-04-19T09:36:20.261Z</time></trkpt><trkpt lat="43.4131263" lon="12.9809125"><ele>222.0</ele><time>2026-04-19T09:36:21.261Z</time></trkpt><trkpt lat="43.4131628" lon="12.9809923"><ele>223.0</ele><time>2026-04-19T09:36:22.26Z</time></trkpt><trkpt lat="43.4132001" lon="12.9810724"><ele>224.0</ele><time>2026-04-19T09:36:23.261Z</time></trkpt><trkpt lat="43.4132356" lon="12.9811542"><ele>224.0</ele><time>2026-04-19T09:36:24.26Z</time></trkpt><trkpt lat="43.4132726" lon="12.9812349"><ele>224.0</ele><time>2026-04-19T09:36:25.26Z</time></trkpt><trkpt lat="43.4133113" lon="12.9813131"><ele>224.0</ele><time>2026-04-19T09:36:26.261Z</time></trkpt><trkpt lat="43.4133499" lon="12.9813921"><ele>224.0</ele><time>2026-04-19T09:36:27.261Z</time></trkpt><trkpt lat="43.4133845" lon="12.9814696"><ele>224.0</ele><time>2026-04-19T09:36:28.261Z</time></trkpt><trkpt lat="43.4134209" lon="12.9815461"><ele>224.0</ele><time>2026-04-19T09:36:29.26Z</time></trkpt><trkpt lat="43.4134575" lon="12.9816235"><ele>224.0</ele><time>2026-04-19T09:36:30.261Z</time></trkpt><trkpt lat="43.4134939" lon="12.9817008"><ele>228.14285714285714</ele><time>2026-04-19T09:36:31.261Z</time></trkpt><trkpt lat="43.4135308" lon="12.9817764"><ele>232.28571428571428</ele><time>2026-04-19T09:36:32.26Z</time></trkpt><trkpt lat="43.4135683" lon="12.9818518"><ele>236.42857142857144</ele><time>2026-04-19T09:36:33.261Z</time></trkpt><trkpt lat="43.4136076" lon="12.9819244"><ele>240.57142857142858</ele><time>2026-04-19T09:36:34.261Z</time></trkpt><trkpt lat="43.4136494" lon="12.9819945"><ele>244.71428571428572</ele><time>2026-04-19T09:36:35.26Z</time></trkpt><trkpt lat="43.4136973" lon="12.982058"><ele>248.8571428571429</ele><time>2026-04-19T09:36:36.26Z</time></trkpt><trkpt lat="43.4137469" lon="12.9821213"><ele>253.00000000000003</ele><time>2026-04-19T09:36:37.259Z</time></trkpt><trkpt lat="43.4137988" lon="12.9821822"><ele>250.5714285714286</ele><time>2026-04-19T09:36:38.261Z</time></trkpt><trkpt lat="43.4138515" lon="12.9822429"><ele>248.14285714285717</ele><time>2026-04-19T09:36:39.261Z</time></trkpt><trkpt lat="43.4139083" lon="12.9822982"><ele>245.71428571428572</ele><time>2026-04-19T09:36:40.26Z</time></trkpt><trkpt lat="43.4139656" lon="12.9823523"><ele>243.2857142857143</ele><time>2026-04-19T09:36:41.26Z</time></trkpt><trkpt lat="43.4140209" lon="12.9824044"><ele>240.8571428571429</ele><time>2026-04-19T09:36:42.261Z</time></trkpt><trkpt lat="43.4140768" lon="12.9824541"><ele>238.42857142857142</ele><time>2026-04-19T09:36:43.261Z</time></trkpt><trkpt lat="43.4141299" lon="12.9825068"><ele>236.0</ele><time>2026-04-19T09:36:44.26Z</time></trkpt><trkpt lat="43.4141823" lon="12.9825572"><ele>236.0</ele><time>2026-04-19T09:36:45.26Z</time></trkpt><trkpt lat="43.414235" lon="12.9826095"><ele>236.0</ele><time>2026-04-19T09:36:46.259Z</time></trkpt><trkpt lat="43.414287" lon="12.9826652"><ele>236.0</ele><time>2026-04-19T09:36:47.261Z</time></trkpt><trkpt lat="43.4143401" lon="12.982721"><ele>236.0</ele><time>2026-04-19T09:36:48.26Z</time></trkpt><trkpt lat="43.4143937" lon="12.9827785"><ele>236.0</ele><time>2026-04-19T09:36:49.26Z</time></trkpt><trkpt lat="43.4144491" lon="12.9828314"><ele>236.0</ele><time>2026-04-19T09:36:50.26Z</time></trkpt><trkpt lat="43.4145047" lon="12.9828832"><ele>236.0</ele><time>2026-04-19T09:36:51.26Z</time></trkpt><trkpt lat="43.4145577" lon="12.9829423"><ele>236.00000000000003</ele><time>2026-04-19T09:36:52.261Z</time></trkpt><trkpt lat="43.4146163" lon="12.9829992"><ele>236.0</ele><time>2026-04-19T09:36:53.261Z</time></trkpt><trkpt lat="43.4146751" lon="12.9830589"><ele>236.0</ele><time>2026-04-19T09:36:54.261Z</time></trkpt><trkpt lat="43.4147376" lon="12.9831198"><ele>236.0</ele><time>2026-04-19T09:36:55.261Z</time></trkpt><trkpt lat="43.414804" lon="12.983181"><ele>236.00000000000003</ele><time>2026-04-19T09:36:56.261Z</time></trkpt><trkpt lat="43.4148715" lon="12.9832452"><ele>236.0</ele><time>2026-04-19T09:36:57.26Z</time></trkpt><trkpt lat="43.4149389" lon="12.9833158"><ele>234.0</ele><time>2026-04-19T09:36:58.261Z</time></trkpt><trkpt lat="43.4150021" lon="12.9834036"><ele>232.00000000000003</ele><time>2026-04-19T09:36:59.261Z</time></trkpt><trkpt lat="43.4150641" lon="12.9835019"><ele>230.00000000000003</ele><time>2026-04-19T09:37:00.261Z</time></trkpt><trkpt lat="43.4151228" lon="12.9836025"><ele>228.0</ele><time>2026-04-19T09:37:01.261Z</time></trkpt><trkpt lat="43.4151812" lon="12.9837091"><ele>226.0</ele><time>2026-04-19T09:37:02.261Z</time></trkpt><trkpt lat="43.4152396" lon="12.9838175"><ele>226.0</ele><time>2026-04-19T09:37:03.261Z</time></trkpt><trkpt lat="43.4152999" lon="12.9839257"><ele>226.00000000000003</ele><time>2026-04-19T09:37:04.261Z</time></trkpt><trkpt lat="43.4153605" lon="12.9840342"><ele>226.00000000000003</ele><time>2026-04-19T09:37:05.261Z</time></trkpt><trkpt lat="43.4154187" lon="12.9841448"><ele>226.0</ele><time>2026-04-19T09:37:06.261Z</time></trkpt><trkpt lat="43.4154765" lon="12.9842573"><ele>226.0</ele><time>2026-04-19T09:37:07.26Z</time></trkpt><trkpt lat="43.4155324" lon="12.9843625"><ele>223.8</ele><time>2026-04-19T09:37:08.261Z</time></trkpt><trkpt lat="43.4155886" lon="12.9844635"><ele>221.60000000000002</ele><time>2026-04-19T09:37:09.26Z</time></trkpt><trkpt lat="43.4156407" lon="12.9845673"><ele>219.4</ele><time>2026-04-19T09:37:10.26Z</time></trkpt><trkpt lat="43.4156862" lon="12.98468"><ele>217.2</ele><time>2026-04-19T09:37:11.261Z</time></trkpt><trkpt lat="43.4157312" lon="12.9847975"><ele>215.0</ele><time>2026-04-19T09:37:12.259Z</time></trkpt><trkpt lat="43.4157711" lon="12.9849143"><ele>215.50000000000003</ele><time>2026-04-19T09:37:13.261Z</time></trkpt><trkpt lat="43.4158089" lon="12.9850266"><ele>216.0</ele><time>2026-04-19T09:37:14.26Z</time></trkpt><trkpt lat="43.4158448" lon="12.9851366"><ele>216.5</ele><time>2026-04-19T09:37:15.261Z</time></trkpt><trkpt lat="43.4158768" lon="12.9852467"><ele>217.0</ele><time>2026-04-19T09:37:16.261Z</time></trkpt><trkpt lat="43.4159052" lon="12.9853564"><ele>217.50000000000003</ele><time>2026-04-19T09:37:17.261Z</time></trkpt><trkpt lat="43.4159345" lon="12.9854573"><ele>218.0</ele><time>2026-04-19T09:37:18.261Z</time></trkpt><trkpt lat="43.4159643" lon="12.9855488"><ele>218.00000000000003</ele><time>2026-04-19T09:37:19.261Z</time></trkpt><trkpt lat="43.4159947" lon="12.9856275"><ele>218.0</ele><time>2026-04-19T09:37:20.261Z</time></trkpt><trkpt lat="43.4160455" lon="12.9857436"><ele>218.0</ele><time>2026-04-19T09:37:22.26Z</time></trkpt><trkpt lat="43.4160471" lon="12.9858334"><ele>218.0</ele><time>2026-04-19T09:37:24.261Z</time></trkpt><trkpt lat="43.4159796" lon="12.9858958"><ele>218.00000000000003</ele><time>2026-04-19T09:37:26.261Z</time></trkpt><trkpt lat="43.4159008" lon="12.9859368"><ele>218.0</ele><time>2026-04-19T09:37:28.26Z</time></trkpt><trkpt lat="43.4158319" lon="12.986002"><ele>219.50000000000003</ele><time>2026-04-19T09:37:30.261Z</time></trkpt><trkpt lat="43.4157684" lon="12.9860525"><ele>221.0</ele><time>2026-04-19T09:37:32.261Z</time></trkpt><trkpt lat="43.4157035" lon="12.9861329"><ele>222.5</ele><time>2026-04-19T09:37:35.261Z</time></trkpt><trkpt lat="43.4156675" lon="12.9862066"><ele>224.0</ele><time>2026-04-19T09:37:44.26Z</time></trkpt><trkpt lat="43.4156101" lon="12.9863489"><ele>225.50000000000003</ele><time>2026-04-19T09:37:46.261Z</time></trkpt><trkpt lat="43.4155803" lon="12.9864338"><ele>227.0</ele><time>2026-04-19T09:37:47.261Z</time></trkpt><trkpt lat="43.4155527" lon="12.9865306"><ele>227.00000000000003</ele><time>2026-04-19T09:37:48.261Z</time></trkpt><trkpt lat="43.4155158" lon="12.9866348"><ele>227.0</ele><time>2026-04-19T09:37:49.261Z</time></trkpt><trkpt lat="43.4154854" lon="12.9867262"><ele>227.0</ele><time>2026-04-19T09:37:50.26Z</time></trkpt><trkpt lat="43.4154579" lon="12.9868219"><ele>227.0</ele><time>2026-04-19T09:37:51.261Z</time></trkpt><trkpt lat="43.4154279" lon="12.9869261"><ele>227.00000000000003</ele><time>2026-04-19T09:37:52.26Z</time></trkpt><trkpt lat="43.4153878" lon="12.9870116"><ele>227.0</ele><time>2026-04-19T09:37:53.261Z</time></trkpt><trkpt lat="43.4153514" lon="12.987108"><ele>232.00000000000003</ele><time>2026-04-19T09:37:54.261Z</time></trkpt><trkpt lat="43.4153103" lon="12.9872287"><ele>237.0</ele><time>2026-04-19T09:37:55.261Z</time></trkpt><trkpt lat="43.4152681" lon="12.9873074"><ele>242.0</ele><time>2026-04-19T09:37:56.26Z</time></trkpt><trkpt lat="43.4152226" lon="12.9873721"><ele>247.0</ele><time>2026-04-19T09:37:57.261Z</time></trkpt><trkpt lat="43.4151671" lon="12.9874602"><ele>252.00000000000003</ele><time>2026-04-19T09:37:59.261Z</time></trkpt><trkpt lat="43.4151056" lon="12.9874088"><ele>257.0</ele><time>2026-04-19T09:38:02.26Z</time></trkpt><trkpt lat="43.4150944" lon="12.9872953"><ele>257.0</ele><time>2026-04-19T09:38:04.261Z</time></trkpt><trkpt lat="43.4150779" lon="12.9871318"><ele>257.0</ele><time>2026-04-19T09:38:06.261Z</time></trkpt><trkpt lat="43.4150364" lon="12.9870631"><ele>257.0</ele><time>2026-04-19T09:38:07.26Z</time></trkpt><trkpt lat="43.4150039" lon="12.9869816"><ele>257.0</ele><time>2026-04-19T09:38:08.261Z</time></trkpt><trkpt lat="43.4149392" lon="12.9868973"><ele>257.0</ele><time>2026-04-19T09:38:09.261Z</time></trkpt><trkpt lat="43.4149016" lon="12.9868067"><ele>257.0</ele><time>2026-04-19T09:38:10.26Z</time></trkpt><trkpt lat="43.4148849" lon="12.986703"><ele>255.33333333333334</ele><time>2026-04-19T09:38:11.26Z</time></trkpt><trkpt lat="43.4148671" lon="12.9866019"><ele>253.66666666666669</ele><time>2026-04-19T09:38:12.26Z</time></trkpt><trkpt lat="43.4148528" lon="12.9864986"><ele>252.0</ele><time>2026-04-19T09:38:13.261Z</time></trkpt><trkpt lat="43.4148423" lon="12.9863832"><ele>250.33333333333331</ele><time>2026-04-19T09:38:14.261Z</time></trkpt><trkpt lat="43.4148156" lon="12.9862748"><ele>248.66666666666666</ele><time>2026-04-19T09:38:15.259Z</time></trkpt><trkpt lat="43.4147874" lon="12.9861813"><ele>247.0</ele><time>2026-04-19T09:38:16.261Z</time></trkpt><trkpt lat="43.4147558" lon="12.9861044"><ele>246.99999999999997</ele><time>2026-04-19T09:38:17.261Z</time></trkpt><trkpt lat="43.4146967" lon="12.9860494"><ele>247.0</ele><time>2026-04-19T09:38:18.26Z</time></trkpt><trkpt lat="43.4145829" lon="12.9859436"><ele>247.0</ele><time>2026-04-19T09:38:20.261Z</time></trkpt><trkpt lat="43.4145209" lon="12.9859011"><ele>247.0</ele><time>2026-04-19T09:38:21.261Z</time></trkpt><trkpt lat="43.414447" lon="12.9858591"><ele>246.99999999999997</ele><time>2026-04-19T09:38:22.261Z</time></trkpt><trkpt lat="43.4143737" lon="12.9858161"><ele>247.0</ele><time>2026-04-19T09:38:23.26Z</time></trkpt><trkpt lat="43.4142924" lon="12.9857623"><ele>251.49999999999997</ele><time>2026-04-19T09:38:24.26Z</time></trkpt><trkpt lat="43.4142147" lon="12.9857075"><ele>256.0</ele><time>2026-04-19T09:38:25.261Z</time></trkpt><trkpt lat="43.4141429" lon="12.9856435"><ele>260.5</ele><time>2026-04-19T09:38:26.261Z</time></trkpt><trkpt lat="43.4140906" lon="12.9855661"><ele>265.0</ele><time>2026-04-19T09:38:27.26Z</time></trkpt><trkpt lat="43.4140433" lon="12.9854894"><ele>269.5</ele><time>2026-04-19T09:38:28.26Z</time></trkpt><trkpt lat="43.4140169" lon="12.9854063"><ele>274.0</ele><time>2026-04-19T09:38:29.26Z</time></trkpt><trkpt lat="43.4139751" lon="12.985341"><ele>274.0</ele><time>2026-04-19T09:38:30.261Z</time></trkpt><trkpt lat="43.4139263" lon="12.9852817"><ele>274.0</ele><time>2026-04-19T09:38:31.261Z</time></trkpt><trkpt lat="43.4138728" lon="12.9852275"><ele>274.0</ele><time>2026-04-19T09:38:32.261Z</time></trkpt><trkpt lat="43.4138093" lon="12.985171"><ele>274.0</ele><time>2026-04-19T09:38:33.26Z</time></trkpt><trkpt lat="43.4137567" lon="12.9850825"><ele>274.0</ele><time>2026-04-19T09:38:34.261Z</time></trkpt><trkpt lat="43.4136828" lon="12.9849948"><ele>274.0</ele><time>2026-04-19T09:38:35.26Z</time></trkpt><trkpt lat="43.4135917" lon="12.9849123"><ele>276.16666666666663</ele><time>2026-04-19T09:38:36.26Z</time></trkpt><trkpt lat="43.4135269" lon="12.9848301"><ele>278.3333333333333</ele><time>2026-04-19T09:38:37.261Z</time></trkpt><trkpt lat="43.4134779" lon="12.9847541"><ele>280.5</ele><time>2026-04-19T09:38:38.26Z</time></trkpt><trkpt lat="43.4134443" lon="12.9846734"><ele>282.6666666666667</ele><time>2026-04-19T09:38:39.26Z</time></trkpt><trkpt lat="43.4133746" lon="12.9846167"><ele>284.83333333333337</ele><time>2026-04-19T09:38:41.261Z</time></trkpt><trkpt lat="43.4133188" lon="12.9846785"><ele>287.0</ele><time>2026-04-19T09:38:43.261Z</time></trkpt><trkpt lat="43.413304" lon="12.9848058"><ele>287.0</ele><time>2026-04-19T09:38:45.259Z</time></trkpt><trkpt lat="43.4133559" lon="12.9849741"><ele>287.0</ele><time>2026-04-19T09:38:47.26Z</time></trkpt><trkpt lat="43.413391" lon="12.9850834"><ele>287.0</ele><time>2026-04-19T09:38:48.261Z</time></trkpt><trkpt lat="43.4134026" lon="12.9852121"><ele>287.0</ele><time>2026-04-19T09:38:49.261Z</time></trkpt><trkpt lat="43.4134303" lon="12.9853078"><ele>287.0</ele><time>2026-04-19T09:38:50.261Z</time></trkpt><trkpt lat="43.4134502" lon="12.9853937"><ele>289.8</ele><time>2026-04-19T09:38:51.26Z</time></trkpt><trkpt lat="43.4134804" lon="12.9855273"><ele>292.6</ele><time>2026-04-19T09:38:53.261Z</time></trkpt><trkpt lat="43.4134288" lon="12.9856107"><ele>295.40000000000003</ele><time>2026-04-19T09:38:56.261Z</time></trkpt><trkpt lat="43.4133189" lon="12.9855325"><ele>298.2</ele><time>2026-04-19T09:38:59.261Z</time></trkpt><trkpt lat="43.4132743" lon="12.9854628"><ele>301.0</ele><time>2026-04-19T09:39:00.261Z</time></trkpt><trkpt lat="43.4131955" lon="12.9853461"><ele>301.0</ele><time>2026-04-19T09:39:02.26Z</time></trkpt><trkpt lat="43.4131387" lon="12.9852767"><ele>301.0</ele><time>2026-04-19T09:39:03.261Z</time></trkpt><trkpt lat="43.413077" lon="12.9852084"><ele>301.0</ele><time>2026-04-19T09:39:04.261Z</time></trkpt><trkpt lat="43.4130243" lon="12.9851417"><ele>301.0</ele><time>2026-04-19T09:39:05.259Z</time></trkpt><trkpt lat="43.4129737" lon="12.9850698"><ele>301.0</ele><time>2026-04-19T09:39:06.261Z</time></trkpt><trkpt lat="43.4129264" lon="12.9849828"><ele>301.0</ele><time>2026-04-19T09:39:07.261Z</time></trkpt><trkpt lat="43.412877" lon="12.9849066"><ele>303.5</ele><time>2026-04-19T09:39:08.261Z</time></trkpt><trkpt lat="43.4128294" lon="12.9848206"><ele>306.0</ele><time>2026-04-19T09:39:09.261Z</time></trkpt><trkpt lat="43.4127912" lon="12.9847382"><ele>308.5</ele><time>2026-04-19T09:39:10.26Z</time></trkpt><trkpt lat="43.4127607" lon="12.9846561"><ele>311.0</ele><time>2026-04-19T09:39:11.261Z</time></trkpt><trkpt lat="43.4127061" lon="12.9845728"><ele>313.5</ele><time>2026-04-19T09:39:13.261Z</time></trkpt><trkpt lat="43.4126308" lon="12.9845508"><ele>316.0</ele><time>2026-04-19T09:39:16.261Z</time></trkpt><trkpt lat="43.412572" lon="12.9846508"><ele>316.0</ele><time>2026-04-19T09:39:18.259Z</time></trkpt><trkpt lat="43.4125616" lon="12.9848271"><ele>316.0</ele><time>2026-04-19T09:39:20.261Z</time></trkpt><trkpt lat="43.4125801" lon="12.9849347"><ele>316.0</ele><time>2026-04-19T09:39:21.26Z</time></trkpt><trkpt lat="43.4125836" lon="12.985058"><ele>316.0</ele><time>2026-04-19T09:39:22.261Z</time></trkpt><trkpt lat="43.4125859" lon="12.9852085"><ele>316.0</ele><time>2026-04-19T09:39:23.26Z</time></trkpt><trkpt lat="43.4125842" lon="12.9853293"><ele>318.0</ele><time>2026-04-19T09:39:24.259Z</time></trkpt><trkpt lat="43.4125884" lon="12.9854709"><ele>320.0</ele><time>2026-04-19T09:39:25.261Z</time></trkpt><trkpt lat="43.4125898" lon="12.9856087"><ele>322.0</ele><time>2026-04-19T09:39:26.261Z</time></trkpt><trkpt lat="43.4125933" lon="12.9857353"><ele>324.0</ele><time>2026-04-19T09:39:27.261Z</time></trkpt><trkpt lat="43.4125909" lon="12.9858458"><ele>326.0</ele><time>2026-04-19T09:39:28.261Z</time></trkpt><trkpt lat="43.4125882" lon="12.9859524"><ele>328.6</ele><time>2026-04-19T09:39:29.261Z</time></trkpt><trkpt lat="43.4125632" lon="12.9860661"><ele>331.20000000000005</ele><time>2026-04-19T09:39:30.261Z</time></trkpt><trkpt lat="43.4125384" lon="12.9861824"><ele>333.79999999999995</ele><time>2026-04-19T09:39:31.261Z</time></trkpt><trkpt lat="43.4125197" lon="12.9863437"><ele>336.4</ele><time>2026-04-19T09:39:33.261Z</time></trkpt><trkpt lat="43.4125749" lon="12.9864921"><ele>339.0</ele><time>2026-04-19T09:39:35.261Z</time></trkpt><trkpt lat="43.4126072" lon="12.9865828"><ele>342.2</ele><time>2026-04-19T09:39:36.26Z</time></trkpt><trkpt lat="43.4126735" lon="12.9866919"><ele>345.4</ele><time>2026-04-19T09:39:37.261Z</time></trkpt><trkpt lat="43.41273" lon="12.9867913"><ele>348.6</ele><time>2026-04-19T09:39:38.261Z</time></trkpt><trkpt lat="43.4127936" lon="12.9868951"><ele>351.8</ele><time>2026-04-19T09:39:39.261Z</time></trkpt><trkpt lat="43.4128836" lon="12.98696"><ele>355.0</ele><time>2026-04-19T09:39:40.26Z</time></trkpt><trkpt lat="43.4129503" lon="12.9870333"><ele>351.0</ele><time>2026-04-19T09:39:41.261Z</time></trkpt><trkpt lat="43.4130099" lon="12.9870718"><ele>347.0</ele><time>2026-04-19T09:39:42.261Z</time></trkpt><trkpt lat="43.4130886" lon="12.9871497"><ele>343.0</ele><time>2026-04-19T09:39:44.261Z</time></trkpt><trkpt lat="43.4131533" lon="12.9872041"><ele>339.0</ele><time>2026-04-19T09:39:46.261Z</time></trkpt><trkpt lat="43.4131999" lon="12.9872861"><ele>335.0</ele><time>2026-04-19T09:39:49.26Z</time></trkpt><trkpt lat="43.4132335" lon="12.9873816"><ele>331.0</ele><time>2026-04-19T09:39:56.261Z</time></trkpt><trkpt lat="43.4132602" lon="12.9874787"><ele>331.16666666666663</ele><time>2026-04-19T09:40:44.261Z</time></trkpt><trkpt lat="43.413233" lon="12.9875932"><ele>331.3333333333333</ele><time>2026-04-19T09:41:27.261Z</time></trkpt><trkpt lat="43.413175" lon="12.9876378"><ele>331.5</ele><time>2026-04-19T09:41:29.26Z</time></trkpt><trkpt lat="43.4130763" lon="12.9876774"><ele>331.6666666666667</ele><time>2026-04-19T09:41:31.261Z</time></trkpt><trkpt lat="43.4130164" lon="12.9877159"><ele>331.83333333333337</ele><time>2026-04-19T09:41:32.261Z</time></trkpt><trkpt lat="43.4129581" lon="12.9877556"><ele>332.0</ele><time>2026-04-19T09:41:33.261Z</time></trkpt><trkpt lat="43.412894" lon="12.9878047"><ele>337.6</ele><time>2026-04-19T09:41:34.261Z</time></trkpt><trkpt lat="43.4128395" lon="12.987872"><ele>343.20000000000005</ele><time>2026-04-19T09:41:35.261Z</time></trkpt><trkpt lat="43.412757" lon="12.9879964"><ele>348.8</ele><time>2026-04-19T09:41:37.259Z</time></trkpt><trkpt lat="43.4126895" lon="12.9881439"><ele>354.4</ele><time>2026-04-19T09:41:39.259Z</time></trkpt><trkpt lat="43.4126516" lon="12.9882147"><ele>360.0</ele><time>2026-04-19T09:41:40.259Z</time></trkpt><trkpt lat="43.4126145" lon="12.9882869"><ele>359.2</ele><time>2026-04-19T09:41:41.26Z</time></trkpt><trkpt lat="43.4125276" lon="12.9884007"><ele>358.4</ele><time>2026-04-19T09:41:43.26Z</time></trkpt><trkpt lat="43.4124543" lon="12.9885198"><ele>357.6</ele><time>2026-04-19T09:41:45.259Z</time></trkpt><trkpt lat="43.4124036" lon="12.9886276"><ele>356.8</ele><time>2026-04-19T09:41:47.259Z</time></trkpt><trkpt lat="43.4123576" lon="12.9887281"><ele>356.0</ele><time>2026-04-19T09:41:49.259Z</time></trkpt><trkpt lat="43.4123103" lon="12.9888054"><ele>356.0</ele><time>2026-04-19T09:41:51.26Z</time></trkpt><trkpt lat="43.4122365" lon="12.988868"><ele>356.0</ele><time>2026-04-19T09:41:53.26Z</time></trkpt><trkpt lat="43.4121581" lon="12.9889187"><ele>356.0</ele><time>2026-04-19T09:41:55.259Z</time></trkpt><trkpt lat="43.4120667" lon="12.9889552"><ele>356.0</ele><time>2026-04-19T09:41:57.259Z</time></trkpt><trkpt lat="43.4119839" lon="12.9889743"><ele>356.0</ele><time>2026-04-19T09:41:59.26Z</time></trkpt><trkpt lat="43.4118819" lon="12.9890369"><ele>360.20000000000005</ele><time>2026-04-19T09:42:01.26Z</time></trkpt><trkpt lat="43.4118142" lon="12.98907"><ele>364.40000000000003</ele><time>2026-04-19T09:42:02.259Z</time></trkpt><trkpt lat="43.4117333" lon="12.9891009"><ele>368.6</ele><time>2026-04-19T09:42:03.259Z</time></trkpt><trkpt lat="43.411671" lon="12.9891481"><ele>372.8</ele><time>2026-04-19T09:42:04.26Z</time></trkpt><trkpt lat="43.4115439" lon="12.9891886"><ele>377.0</ele><time>2026-04-19T09:42:06.26Z</time></trkpt><trkpt lat="43.4114355" lon="12.9892432"><ele>377.6</ele><time>2026-04-19T09:42:08.26Z</time></trkpt><trkpt lat="43.4113586" lon="12.9893292"><ele>378.20000000000005</ele><time>2026-04-19T09:42:10.259Z</time></trkpt><trkpt lat="43.4113589" lon="12.9894361"><ele>378.8</ele><time>2026-04-19T09:42:12.26Z</time></trkpt><trkpt lat="43.4114275" lon="12.9895427"><ele>379.4</ele><time>2026-04-19T09:42:14.259Z</time></trkpt><trkpt lat="43.4115005" lon="12.9896646"><ele>380.0</ele><time>2026-04-19T09:42:16.259Z</time></trkpt><trkpt lat="43.4115254" lon="12.9897533"><ele>380.0</ele><time>2026-04-19T09:42:17.259Z</time></trkpt><trkpt lat="43.4115434" lon="12.9898406"><ele>380.0</ele><time>2026-04-19T09:42:18.26Z</time></trkpt><trkpt lat="43.4115714" lon="12.9899729"><ele>380.0</ele><time>2026-04-19T09:42:19.26Z</time></trkpt><trkpt lat="43.4116061" lon="12.9901194"><ele>380.0</ele><time>2026-04-19T09:42:20.26Z</time></trkpt><trkpt lat="43.4116532" lon="12.9902779"><ele>380.0</ele><time>2026-04-19T09:42:21.26Z</time></trkpt><trkpt lat="43.4116976" lon="12.9904419"><ele>381.8</ele><time>2026-04-19T09:42:22.26Z</time></trkpt><trkpt lat="43.4117286" lon="12.9905981"><ele>383.6</ele><time>2026-04-19T09:42:23.26Z</time></trkpt><trkpt lat="43.4117514" lon="12.9907329"><ele>385.4</ele><time>2026-04-19T09:42:24.259Z</time></trkpt><trkpt lat="43.4117765" lon="12.9908591"><ele>387.2</ele><time>2026-04-19T09:42:25.258Z</time></trkpt><trkpt lat="43.4118063" lon="12.9909737"><ele>389.0</ele><time>2026-04-19T09:42:26.259Z</time></trkpt><trkpt lat="43.4118429" lon="12.9910771"><ele>390.49999999999994</ele><time>2026-04-19T09:42:27.26Z</time></trkpt><trkpt lat="43.4118875" lon="12.9911587"><ele>392.0</ele><time>2026-04-19T09:42:28.26Z</time></trkpt><trkpt lat="43.4119413" lon="12.9912268"><ele>393.5</ele><time>2026-04-19T09:42:29.259Z</time></trkpt><trkpt lat="43.4120079" lon="12.9912814"><ele>395.0</ele><time>2026-04-19T09:42:30.26Z</time></trkpt><trkpt lat="43.4120857" lon="12.9913296"><ele>396.49999999999994</ele><time>2026-04-19T09:42:31.26Z</time></trkpt><trkpt lat="43.4121524" lon="12.9913394"><ele>398.0</ele><time>2026-04-19T09:42:32.26Z</time></trkpt><trkpt lat="43.4122263" lon="12.991371"><ele>398.0</ele><time>2026-04-19T09:42:33.26Z</time></trkpt><trkpt lat="43.4123156" lon="12.9914339"><ele>398.0</ele><time>2026-04-19T09:42:34.26Z</time></trkpt><trkpt lat="43.412412" lon="12.9915039"><ele>398.0</ele><time>2026-04-19T09:42:35.26Z</time></trkpt><trkpt lat="43.4125056" lon="12.9915539"><ele>398.0</ele><time>2026-04-19T09:42:36.259Z</time></trkpt><trkpt lat="43.4126043" lon="12.9916071"><ele>398.0</ele><time>2026-04-19T09:42:37.26Z</time></trkpt><trkpt lat="43.4127078" lon="12.9916537"><ele>401.0</ele><time>2026-04-19T09:42:38.26Z</time></trkpt><trkpt lat="43.4128036" lon="12.9917088"><ele>404.0</ele><time>2026-04-19T09:42:39.26Z</time></trkpt><trkpt lat="43.4128897" lon="12.9917661"><ele>407.0</ele><time>2026-04-19T09:42:40.26Z</time></trkpt><trkpt lat="43.4129669" lon="12.9918297"><ele>410.0</ele><time>2026-04-19T09:42:41.259Z</time></trkpt><trkpt lat="43.4130485" lon="12.9918946"><ele>413.0</ele><time>2026-04-19T09:42:42.258Z</time></trkpt><trkpt lat="43.4131287" lon="12.9919639"><ele>412.99999999999994</ele><time>2026-04-19T09:42:43.259Z</time></trkpt><trkpt lat="43.4132051" lon="12.9920292"><ele>413.0</ele><time>2026-04-19T09:42:44.26Z</time></trkpt><trkpt lat="43.4132817" lon="12.9920954"><ele>413.0</ele><time>2026-04-19T09:42:45.26Z</time></trkpt><trkpt lat="43.4133585" lon="12.9921632"><ele>413.0</ele><time>2026-04-19T09:42:46.26Z</time></trkpt><trkpt lat="43.413427" lon="12.9922222"><ele>412.99999999999994</ele><time>2026-04-19T09:42:47.26Z</time></trkpt><trkpt lat="43.413498" lon="12.9922837"><ele>413.0</ele><time>2026-04-19T09:42:48.259Z</time></trkpt><trkpt lat="43.4135615" lon="12.9923503"><ele>412.99999999999994</ele><time>2026-04-19T09:42:49.259Z</time></trkpt><trkpt lat="43.4136201" lon="12.9924239"><ele>413.0</ele><time>2026-04-19T09:42:50.259Z</time></trkpt><trkpt lat="43.4136835" lon="12.9925133"><ele>413.0</ele><time>2026-04-19T09:42:51.26Z</time></trkpt><trkpt lat="43.4137349" lon="12.9925931"><ele>413.0</ele><time>2026-04-19T09:42:52.258Z</time></trkpt><trkpt lat="43.4137794" lon="12.9926737"><ele>412.99999999999994</ele><time>2026-04-19T09:42:53.26Z</time></trkpt><trkpt lat="43.41386" lon="12.9927834"><ele>413.0</ele><time>2026-04-19T09:42:55.259Z</time></trkpt><trkpt lat="43.4139358" lon="12.9928782"><ele>411.49999999999994</ele><time>2026-04-19T09:42:57.259Z</time></trkpt><trkpt lat="43.4139702" lon="12.992973"><ele>410.0</ele><time>2026-04-19T09:42:59.26Z</time></trkpt><trkpt lat="43.4139137" lon="12.9930459"><ele>408.5</ele><time>2026-04-19T09:43:01.26Z</time></trkpt><trkpt lat="43.4138345" lon="12.9930763"><ele>407.0</ele><time>2026-04-19T09:43:03.259Z</time></trkpt><trkpt lat="43.4137435" lon="12.9929958"><ele>405.49999999999994</ele><time>2026-04-19T09:43:05.26Z</time></trkpt><trkpt lat="43.4136877" lon="12.9929501"><ele>404.0</ele><time>2026-04-19T09:43:06.26Z</time></trkpt><trkpt lat="43.4135822" lon="12.992876"><ele>410.2</ele><time>2026-04-19T09:43:08.26Z</time></trkpt><trkpt lat="43.4134785" lon="12.992825"><ele>416.4</ele><time>2026-04-19T09:43:10.258Z</time></trkpt><trkpt lat="43.4133638" lon="12.9928068"><ele>422.6</ele><time>2026-04-19T09:43:12.26Z</time></trkpt><trkpt lat="43.4132382" lon="12.9928393"><ele>428.8</ele><time>2026-04-19T09:43:14.26Z</time></trkpt><trkpt lat="43.4131655" lon="12.9928882"><ele>435.0</ele><time>2026-04-19T09:43:16.26Z</time></trkpt><trkpt lat="43.4131636" lon="12.9929816"><ele>435.0</ele><time>2026-04-19T09:43:18.26Z</time></trkpt><trkpt lat="43.4132103" lon="12.9930607"><ele>435.0</ele><time>2026-04-19T09:43:20.26Z</time></trkpt><trkpt lat="43.4133182" lon="12.9931194"><ele>435.0</ele><time>2026-04-19T09:43:22.26Z</time></trkpt><trkpt lat="43.4134135" lon="12.9931804"><ele>435.0</ele><time>2026-04-19T09:43:24.26Z</time></trkpt><trkpt lat="43.4134854" lon="12.9932943"><ele>435.0</ele><time>2026-04-19T09:43:26.26Z</time></trkpt><trkpt lat="43.4135447" lon="12.9934081"><ele>436.4</ele><time>2026-04-19T09:43:28.26Z</time></trkpt><trkpt lat="43.4135864" lon="12.9935076"><ele>437.8</ele><time>2026-04-19T09:43:30.259Z</time></trkpt><trkpt lat="43.4135747" lon="12.9936085"><ele>439.20000000000005</ele><time>2026-04-19T09:43:32.259Z</time></trkpt><trkpt lat="43.4135321" lon="12.9937285"><ele>440.6</ele><time>2026-04-19T09:43:34.26Z</time></trkpt><trkpt lat="43.4134355" lon="12.9938782"><ele>442.0</ele><time>2026-04-19T09:43:36.26Z</time></trkpt><trkpt lat="43.4133941" lon="12.9939763"><ele>442.0</ele><time>2026-04-19T09:43:37.26Z</time></trkpt><trkpt lat="43.4133609" lon="12.994082"><ele>442.00000000000006</ele><time>2026-04-19T09:43:38.259Z</time></trkpt><trkpt lat="43.4133189" lon="12.9942394"><ele>442.00000000000006</ele><time>2026-04-19T09:43:40.26Z</time></trkpt><trkpt lat="43.4132605" lon="12.9943343"><ele>442.0</ele><time>2026-04-19T09:43:42.258Z</time></trkpt><trkpt lat="43.4131759" lon="12.994324"><ele>442.0</ele><time>2026-04-19T09:43:44.26Z</time></trkpt><trkpt lat="43.4130754" lon="12.9942194"><ele>442.0</ele><time>2026-04-19T09:43:46.259Z</time></trkpt><trkpt lat="43.413013" lon="12.9941648"><ele>442.00000000000006</ele><time>2026-04-19T09:43:47.259Z</time></trkpt><trkpt lat="43.4129438" lon="12.9941238"><ele>442.00000000000006</ele><time>2026-04-19T09:43:48.26Z</time></trkpt><trkpt lat="43.4128603" lon="12.9940839"><ele>442.0</ele><time>2026-04-19T09:43:49.26Z</time></trkpt><trkpt lat="43.4127611" lon="12.9940214"><ele>442.0</ele><time>2026-04-19T09:43:50.258Z</time></trkpt><trkpt lat="43.4126373" lon="12.993949"><ele>445.5</ele><time>2026-04-19T09:43:51.259Z</time></trkpt><trkpt lat="43.4125172" lon="12.9938812"><ele>449.0</ele><time>2026-04-19T09:43:52.26Z</time></trkpt><trkpt lat="43.4124023" lon="12.9938181"><ele>452.5</ele><time>2026-04-19T09:43:53.259Z</time></trkpt><trkpt lat="43.4122939" lon="12.9937546"><ele>456.0</ele><time>2026-04-19T09:43:54.259Z</time></trkpt><trkpt lat="43.4121891" lon="12.9936875"><ele>458.4</ele><time>2026-04-19T09:43:55.259Z</time></trkpt><trkpt lat="43.412095" lon="12.9936261"><ele>460.8</ele><time>2026-04-19T09:43:56.26Z</time></trkpt><trkpt lat="43.4119916" lon="12.9935609"><ele>463.19999999999993</ele><time>2026-04-19T09:43:57.259Z</time></trkpt><trkpt lat="43.4118993" lon="12.9935141"><ele>465.59999999999997</ele><time>2026-04-19T09:43:58.259Z</time></trkpt><trkpt lat="43.4117993" lon="12.9934794"><ele>468.0</ele><time>2026-04-19T09:43:59.259Z</time></trkpt><trkpt lat="43.4117023" lon="12.9934547"><ele>468.0</ele><time>2026-04-19T09:44:00.26Z</time></trkpt><trkpt lat="43.4116222" lon="12.993438"><ele>468.0</ele><time>2026-04-19T09:44:01.259Z</time></trkpt><trkpt lat="43.4115466" lon="12.9934181"><ele>468.0</ele><time>2026-04-19T09:44:02.259Z</time></trkpt><trkpt lat="43.4114814" lon="12.9933788"><ele>468.0</ele><time>2026-04-19T09:44:03.259Z</time></trkpt><trkpt lat="43.4114234" lon="12.9933167"><ele>468.0</ele><time>2026-04-19T09:44:04.259Z</time></trkpt><trkpt lat="43.4113665" lon="12.9932285"><ele>468.0</ele><time>2026-04-19T09:44:05.26Z</time></trkpt><trkpt lat="43.4113027" lon="12.9931339"><ele>468.79999999999995</ele><time>2026-04-19T09:44:06.26Z</time></trkpt><trkpt lat="43.411233" lon="12.9930524"><ele>469.59999999999997</ele><time>2026-04-19T09:44:07.259Z</time></trkpt><trkpt lat="43.4111577" lon="12.9929873"><ele>470.40000000000003</ele><time>2026-04-19T09:44:08.26Z</time></trkpt><trkpt lat="43.4110856" lon="12.9929416"><ele>471.20000000000005</ele><time>2026-04-19T09:44:09.259Z</time></trkpt><trkpt lat="43.4109935" lon="12.9928954"><ele>472.0</ele><time>2026-04-19T09:44:10.26Z</time></trkpt><trkpt lat="43.4108757" lon="12.9928434"><ele>472.0</ele><time>2026-04-19T09:44:11.259Z</time></trkpt><trkpt lat="43.4107637" lon="12.9927977"><ele>472.00000000000006</ele><time>2026-04-19T09:44:12.26Z</time></trkpt><trkpt lat="43.4106683" lon="12.9927612"><ele>472.00000000000006</ele><time>2026-04-19T09:44:13.26Z</time></trkpt><trkpt lat="43.4105765" lon="12.9927289"><ele>472.0</ele><time>2026-04-19T09:44:14.26Z</time></trkpt><trkpt lat="43.4104865" lon="12.9927087"><ele>472.0</ele><time>2026-04-19T09:44:15.26Z</time></trkpt><trkpt lat="43.4103875" lon="12.9926806"><ele>473.40000000000003</ele><time>2026-04-19T09:44:16.259Z</time></trkpt><trkpt lat="43.4102861" lon="12.9926383"><ele>474.80000000000007</ele><time>2026-04-19T09:44:17.26Z</time></trkpt><trkpt lat="43.4101879" lon="12.992603"><ele>476.2</ele><time>2026-04-19T09:44:18.26Z</time></trkpt><trkpt lat="43.4100939" lon="12.9925699"><ele>477.6</ele><time>2026-04-19T09:44:19.26Z</time></trkpt><trkpt lat="43.4099937" lon="12.9925403"><ele>479.0</ele><time>2026-04-19T09:44:20.26Z</time></trkpt><trkpt lat="43.4098761" lon="12.9925233"><ele>479.0</ele><time>2026-04-19T09:44:21.26Z</time></trkpt><trkpt lat="43.4097639" lon="12.9925094"><ele>479.0</ele><time>2026-04-19T09:44:22.26Z</time></trkpt><trkpt lat="43.4096375" lon="12.9924827"><ele>479.0</ele><time>2026-04-19T09:44:23.259Z</time></trkpt><trkpt lat="43.4095175" lon="12.9924521"><ele>479.0</ele><time>2026-04-19T09:44:24.26Z</time></trkpt><trkpt lat="43.4094094" lon="12.992419"><ele>479.79999999999995</ele><time>2026-04-19T09:44:25.26Z</time></trkpt><trkpt lat="43.4093123" lon="12.9923827"><ele>480.59999999999997</ele><time>2026-04-19T09:44:26.26Z</time></trkpt><trkpt lat="43.409224" lon="12.9923382"><ele>481.4</ele><time>2026-04-19T09:44:27.259Z</time></trkpt><trkpt lat="43.40915" lon="12.9922687"><ele>482.2</ele><time>2026-04-19T09:44:28.259Z</time></trkpt><trkpt lat="43.4090907" lon="12.9921823"><ele>483.0</ele><time>2026-04-19T09:44:29.259Z</time></trkpt><trkpt lat="43.4090295" lon="12.9920664"><ele>483.0</ele><time>2026-04-19T09:44:30.26Z</time></trkpt><trkpt lat="43.4089723" lon="12.991951"><ele>482.99999999999994</ele><time>2026-04-19T09:44:31.259Z</time></trkpt><trkpt lat="43.4089135" lon="12.9918375"><ele>482.99999999999994</ele><time>2026-04-19T09:44:32.26Z</time></trkpt><trkpt lat="43.4088596" lon="12.9917361"><ele>483.0</ele><time>2026-04-19T09:44:33.26Z</time></trkpt><trkpt lat="43.4088007" lon="12.9916469"><ele>483.0</ele><time>2026-04-19T09:44:34.259Z</time></trkpt><trkpt lat="43.4087473" lon="12.9915572"><ele>484.0</ele><time>2026-04-19T09:44:35.259Z</time></trkpt><trkpt lat="43.4086804" lon="12.991478"><ele>484.99999999999994</ele><time>2026-04-19T09:44:36.26Z</time></trkpt><trkpt lat="43.4086031" lon="12.9913871"><ele>485.99999999999994</ele><time>2026-04-19T09:44:37.26Z</time></trkpt><trkpt lat="43.4084968" lon="12.9913203"><ele>487.0</ele><time>2026-04-19T09:44:38.26Z</time></trkpt><trkpt lat="43.4083996" lon="12.9912408"><ele>488.0</ele><time>2026-04-19T09:44:39.259Z</time></trkpt><trkpt lat="43.4083101" lon="12.9911669"><ele>488.0</ele><time>2026-04-19T09:44:40.26Z</time></trkpt><trkpt lat="43.4082209" lon="12.9910962"><ele>488.0</ele><time>2026-04-19T09:44:41.26Z</time></trkpt><trkpt lat="43.4081157" lon="12.9910163"><ele>488.0</ele><time>2026-04-19T09:44:42.259Z</time></trkpt><trkpt lat="43.4080107" lon="12.9909411"><ele>488.0</ele><time>2026-04-19T09:44:43.26Z</time></trkpt><trkpt lat="43.407904" lon="12.9908749"><ele>487.79999999999995</ele><time>2026-04-19T09:44:44.26Z</time></trkpt><trkpt lat="43.4078043" lon="12.9908104"><ele>487.59999999999997</ele><time>2026-04-19T09:44:45.26Z</time></trkpt><trkpt lat="43.4077156" lon="12.9907429"><ele>487.40000000000003</ele><time>2026-04-19T09:44:46.259Z</time></trkpt><trkpt lat="43.4076181" lon="12.990667"><ele>487.20000000000005</ele><time>2026-04-19T09:44:47.26Z</time></trkpt><trkpt lat="43.4075291" lon="12.9905884"><ele>487.0</ele><time>2026-04-19T09:44:48.259Z</time></trkpt><trkpt lat="43.4074425" lon="12.9905178"><ele>487.0</ele><time>2026-04-19T09:44:49.259Z</time></trkpt><trkpt lat="43.4073635" lon="12.9904527"><ele>487.00000000000006</ele><time>2026-04-19T09:44:50.26Z</time></trkpt><trkpt lat="43.4072763" lon="12.9903993"><ele>487.00000000000006</ele><time>2026-04-19T09:44:51.26Z</time></trkpt><trkpt lat="43.4071828" lon="12.9903643"><ele>487.0</ele><time>2026-04-19T09:44:52.26Z</time></trkpt><trkpt lat="43.4070711" lon="12.9903309"><ele>487.0</ele><time>2026-04-19T09:44:53.26Z</time></trkpt><trkpt lat="43.4069563" lon="12.9903036"><ele>488.40000000000003</ele><time>2026-04-19T09:44:54.258Z</time></trkpt><trkpt lat="43.4068442" lon="12.9902726"><ele>489.80000000000007</ele><time>2026-04-19T09:44:55.26Z</time></trkpt><trkpt lat="43.4067377" lon="12.9902393"><ele>491.2</ele><time>2026-04-19T09:44:56.26Z</time></trkpt><trkpt lat="43.4066309" lon="12.990207"><ele>492.6</ele><time>2026-04-19T09:44:57.259Z</time></trkpt><trkpt lat="43.4065251" lon="12.9901815"><ele>494.0</ele><time>2026-04-19T09:44:58.258Z</time></trkpt><trkpt lat="43.4064231" lon="12.9901547"><ele>495.2</ele><time>2026-04-19T09:44:59.26Z</time></trkpt><trkpt lat="43.4063218" lon="12.9901318"><ele>496.4</ele><time>2026-04-19T09:45:00.26Z</time></trkpt><trkpt lat="43.4062242" lon="12.9901178"><ele>497.6</ele><time>2026-04-19T09:45:01.26Z</time></trkpt><trkpt lat="43.406128" lon="12.9901053"><ele>498.8</ele><time>2026-04-19T09:45:02.259Z</time></trkpt><trkpt lat="43.4060372" lon="12.9900986"><ele>500.0</ele><time>2026-04-19T09:45:03.259Z</time></trkpt><trkpt lat="43.4059537" lon="12.9900988"><ele>499.99999999999994</ele><time>2026-04-19T09:45:04.26Z</time></trkpt><trkpt lat="43.4058895" lon="12.9901009"><ele>500.0</ele><time>2026-04-19T09:45:05.26Z</time></trkpt><trkpt lat="43.405791" lon="12.9901439"><ele>500.0</ele><time>2026-04-19T09:45:07.26Z</time></trkpt><trkpt lat="43.4057269" lon="12.9901902"><ele>500.0</ele><time>2026-04-19T09:45:08.26Z</time></trkpt><trkpt lat="43.4056466" lon="12.9902324"><ele>499.99999999999994</ele><time>2026-04-19T09:45:09.26Z</time></trkpt><trkpt lat="43.4055376" lon="12.9902651"><ele>500.0</ele><time>2026-04-19T09:45:10.259Z</time></trkpt><trkpt lat="43.4054176" lon="12.9903002"><ele>500.0</ele><time>2026-04-19T09:45:11.259Z</time></trkpt><trkpt lat="43.405298" lon="12.9903445"><ele>500.0</ele><time>2026-04-19T09:45:12.26Z</time></trkpt><trkpt lat="43.4051765" lon="12.990388"><ele>500.0</ele><time>2026-04-19T09:45:13.26Z</time></trkpt><trkpt lat="43.4050628" lon="12.9904264"><ele>500.0</ele><time>2026-04-19T09:45:14.259Z</time></trkpt><trkpt lat="43.4049577" lon="12.990455"><ele>499.99999999999994</ele><time>2026-04-19T09:45:15.259Z</time></trkpt><trkpt lat="43.4048586" lon="12.990483"><ele>500.0</ele><time>2026-04-19T09:45:16.26Z</time></trkpt><trkpt lat="43.4047757" lon="12.9905132"><ele>500.0</ele><time>2026-04-19T09:45:17.26Z</time></trkpt><trkpt lat="43.4046974" lon="12.9905392"><ele>500.0</ele><time>2026-04-19T09:45:18.259Z</time></trkpt><trkpt lat="43.4046159" lon="12.9905694"><ele>499.99999999999994</ele><time>2026-04-19T09:45:19.259Z</time></trkpt><trkpt lat="43.4045322" lon="12.9905898"><ele>500.0</ele><time>2026-04-19T09:45:20.26Z</time></trkpt><trkpt lat="43.4044422" lon="12.9906058"><ele>499.0</ele><time>2026-04-19T09:45:21.259Z</time></trkpt><trkpt lat="43.4043484" lon="12.9906224"><ele>498.0</ele><time>2026-04-19T09:45:22.26Z</time></trkpt><trkpt lat="43.4042578" lon="12.9906346"><ele>497.0</ele><time>2026-04-19T09:45:23.259Z</time></trkpt><trkpt lat="43.4041643" lon="12.9906518"><ele>496.0</ele><time>2026-04-19T09:45:24.26Z</time></trkpt><trkpt lat="43.4040726" lon="12.9906775"><ele>495.0</ele><time>2026-04-19T09:45:25.258Z</time></trkpt><trkpt lat="43.4039849" lon="12.9907192"><ele>495.0</ele><time>2026-04-19T09:45:26.259Z</time></trkpt><trkpt lat="43.4038917" lon="12.9907707"><ele>495.0</ele><time>2026-04-19T09:45:27.26Z</time></trkpt><trkpt lat="43.4038002" lon="12.9908256"><ele>495.0</ele><time>2026-04-19T09:45:28.26Z</time></trkpt><trkpt lat="43.4037112" lon="12.9908824"><ele>495.0</ele><time>2026-04-19T09:45:29.26Z</time></trkpt><trkpt lat="43.4036231" lon="12.9909441"><ele>495.0</ele><time>2026-04-19T09:45:30.26Z</time></trkpt><trkpt lat="43.4035299" lon="12.991006"><ele>498.2</ele><time>2026-04-19T09:45:31.26Z</time></trkpt><trkpt lat="43.4034335" lon="12.9910709"><ele>501.4</ele><time>2026-04-19T09:45:32.26Z</time></trkpt><trkpt lat="43.4033341" lon="12.9911384"><ele>504.6</ele><time>2026-04-19T09:45:33.259Z</time></trkpt><trkpt lat="43.4032307" lon="12.9912037"><ele>507.8</ele><time>2026-04-19T09:45:34.26Z</time></trkpt><trkpt lat="43.403127" lon="12.9912643"><ele>511.0</ele><time>2026-04-19T09:45:35.26Z</time></trkpt><trkpt lat="43.4030271" lon="12.99133"><ele>510.0</ele><time>2026-04-19T09:45:36.258Z</time></trkpt><trkpt lat="43.4029256" lon="12.9913928"><ele>509.0</ele><time>2026-04-19T09:45:37.259Z</time></trkpt><trkpt lat="43.4028235" lon="12.9914538"><ele>508.0</ele><time>2026-04-19T09:45:38.26Z</time></trkpt><trkpt lat="43.4027207" lon="12.9915234"><ele>507.0</ele><time>2026-04-19T09:45:39.26Z</time></trkpt><trkpt lat="43.4026149" lon="12.9915919"><ele>507.0</ele><time>2026-04-19T09:45:40.26Z</time></trkpt><trkpt lat="43.402506" lon="12.9916526"><ele>507.0</ele><time>2026-04-19T09:45:41.259Z</time></trkpt><trkpt lat="43.4024007" lon="12.9917177"><ele>507.0</ele><time>2026-04-19T09:45:42.259Z</time></trkpt><trkpt lat="43.4022939" lon="12.9917802"><ele>507.0</ele><time>2026-04-19T09:45:43.259Z</time></trkpt><trkpt lat="43.4021842" lon="12.9918502"><ele>510.6</ele><time>2026-04-19T09:45:44.259Z</time></trkpt><trkpt lat="43.402079" lon="12.991924"><ele>514.2</ele><time>2026-04-19T09:45:45.26Z</time></trkpt><trkpt lat="43.4019727" lon="12.9919918"><ele>517.8</ele><time>2026-04-19T09:45:46.26Z</time></trkpt><trkpt lat="43.4018789" lon="12.9920506"><ele>521.4</ele><time>2026-04-19T09:45:47.26Z</time></trkpt><trkpt lat="43.4017886" lon="12.9921053"><ele>525.0</ele><time>2026-04-19T09:45:48.26Z</time></trkpt><trkpt lat="43.4017012" lon="12.9921547"><ele>525.0</ele><time>2026-04-19T09:45:49.26Z</time></trkpt><trkpt lat="43.4016161" lon="12.9922125"><ele>525.0</ele><time>2026-04-19T09:45:50.26Z</time></trkpt><trkpt lat="43.4015317" lon="12.9922748"><ele>525.0</ele><time>2026-04-19T09:45:51.26Z</time></trkpt><trkpt lat="43.4014554" lon="12.9923456"><ele>525.0</ele><time>2026-04-19T09:45:52.26Z</time></trkpt><trkpt lat="43.4013886" lon="12.9924255"><ele>525.0</ele><time>2026-04-19T09:45:53.259Z</time></trkpt><trkpt lat="43.4013314" lon="12.9925043"><ele>526.4285714285714</ele><time>2026-04-19T09:45:54.259Z</time></trkpt><trkpt lat="43.4012901" lon="12.9925755"><ele>527.8571428571429</ele><time>2026-04-19T09:45:55.26Z</time></trkpt><trkpt lat="43.4012533" lon="12.9926503"><ele>529.2857142857142</ele><time>2026-04-19T09:45:56.259Z</time></trkpt><trkpt lat="43.4012387" lon="12.9927461"><ele>530.7142857142858</ele><time>2026-04-19T09:45:57.26Z</time></trkpt><trkpt lat="43.4012161" lon="12.9928544"><ele>532.1428571428571</ele><time>2026-04-19T09:45:58.26Z</time></trkpt><trkpt lat="43.4011819" lon="12.9929579"><ele>533.5714285714286</ele><time>2026-04-19T09:45:59.259Z</time></trkpt><trkpt lat="43.4011422" lon="12.9930488"><ele>535.0</ele><time>2026-04-19T09:46:00.26Z</time></trkpt><trkpt lat="43.4011002" lon="12.9931384"><ele>535.0</ele><time>2026-04-19T09:46:01.259Z</time></trkpt><trkpt lat="43.4010352" lon="12.9932018"><ele>535.0</ele><time>2026-04-19T09:46:02.259Z</time></trkpt><trkpt lat="43.4009615" lon="12.9932436"><ele>535.0</ele><time>2026-04-19T09:46:03.26Z</time></trkpt><trkpt lat="43.4008876" lon="12.9932689"><ele>535.0</ele><time>2026-04-19T09:46:04.259Z</time></trkpt><trkpt lat="43.4008174" lon="12.9932904"><ele>535.0</ele><time>2026-04-19T09:46:05.26Z</time></trkpt><trkpt lat="43.4007485" lon="12.9933169"><ele>535.0</ele><time>2026-04-19T09:46:06.259Z</time></trkpt><trkpt lat="43.4006757" lon="12.9933436"><ele>539.4</ele><time>2026-04-19T09:46:07.259Z</time></trkpt><trkpt lat="43.400584" lon="12.9933873"><ele>543.8</ele><time>2026-04-19T09:46:08.26Z</time></trkpt><trkpt lat="43.4004854" lon="12.9934495"><ele>548.2</ele><time>2026-04-19T09:46:09.26Z</time></trkpt><trkpt lat="43.4003902" lon="12.9935092"><ele>552.6</ele><time>2026-04-19T09:46:10.26Z</time></trkpt><trkpt lat="43.4003023" lon="12.9935552"><ele>557.0</ele><time>2026-04-19T09:46:11.26Z</time></trkpt><trkpt lat="43.4002173" lon="12.9936005"><ele>557.0</ele><time>2026-04-19T09:46:12.26Z</time></trkpt><trkpt lat="43.4001272" lon="12.993653"><ele>557.0</ele><time>2026-04-19T09:46:13.26Z</time></trkpt><trkpt lat="43.4000377" lon="12.9937091"><ele>557.0</ele><time>2026-04-19T09:46:14.26Z</time></trkpt><trkpt lat="43.3999488" lon="12.9937687"><ele>557.0</ele><time>2026-04-19T09:46:15.26Z</time></trkpt><trkpt lat="43.399861" lon="12.9938327"><ele>557.0</ele><time>2026-04-19T09:46:16.259Z</time></trkpt><trkpt lat="43.3997765" lon="12.9938818"><ele>557.0</ele><time>2026-04-19T09:46:17.259Z</time></trkpt><trkpt lat="43.3996844" lon="12.9939026"><ele>557.0</ele><time>2026-04-19T09:46:18.259Z</time></trkpt><trkpt lat="43.399591" lon="12.9938971"><ele>557.0</ele><time>2026-04-19T09:46:19.26Z</time></trkpt><trkpt lat="43.3995134" lon="12.9938714"><ele>557.0</ele><time>2026-04-19T09:46:20.26Z</time></trkpt><trkpt lat="43.3994215" lon="12.9938173"><ele>557.0</ele><time>2026-04-19T09:46:22.259Z</time></trkpt><trkpt lat="43.3993526" lon="12.9938573"><ele>557.0</ele><time>2026-04-19T09:46:25.259Z</time></trkpt><trkpt lat="43.3994116" lon="12.993949"><ele>557.0</ele><time>2026-04-19T09:46:29.26Z</time></trkpt><trkpt lat="43.3994735" lon="12.9939717"><ele>557.0</ele><time>2026-04-19T09:46:30.26Z</time></trkpt><trkpt lat="43.3995568" lon="12.9939995"><ele>557.0</ele><time>2026-04-19T09:46:31.259Z</time></trkpt><trkpt lat="43.399664" lon="12.9940342"><ele>557.0</ele><time>2026-04-19T09:46:32.259Z</time></trkpt><trkpt lat="43.3997779" lon="12.9940666"><ele>557.0</ele><time>2026-04-19T09:46:33.26Z</time></trkpt><trkpt lat="43.3999047" lon="12.9940905"><ele>557.0</ele><time>2026-04-19T09:46:34.259Z</time></trkpt><trkpt lat="43.4000336" lon="12.9941059"><ele>557.0</ele><time>2026-04-19T09:46:35.259Z</time></trkpt><trkpt lat="43.4001668" lon="12.9941202"><ele>557.0</ele><time>2026-04-19T09:46:36.26Z</time></trkpt><trkpt lat="43.4002971" lon="12.9941401"><ele>557.0</ele><time>2026-04-19T09:46:37.259Z</time></trkpt><trkpt lat="43.400424" lon="12.9941552"><ele>565.0</ele><time>2026-04-19T09:46:38.26Z</time></trkpt><trkpt lat="43.400549" lon="12.9941733"><ele>573.0</ele><time>2026-04-19T09:46:39.26Z</time></trkpt><trkpt lat="43.4006753" lon="12.9941925"><ele>581.0</ele><time>2026-04-19T09:46:40.259Z</time></trkpt><trkpt lat="43.4008054" lon="12.9942146"><ele>589.0</ele><time>2026-04-19T09:46:41.26Z</time></trkpt><trkpt lat="43.4009354" lon="12.9942366"><ele>589.0</ele><time>2026-04-19T09:46:42.26Z</time></trkpt><trkpt lat="43.4010664" lon="12.9942597"><ele>589.0</ele><time>2026-04-19T09:46:43.26Z</time></trkpt><trkpt lat="43.4011972" lon="12.9942811"><ele>589.0</ele><time>2026-04-19T09:46:44.26Z</time></trkpt><trkpt lat="43.4013298" lon="12.9942981"><ele>589.0</ele><time>2026-04-19T09:46:45.26Z</time></trkpt><trkpt lat="43.4014643" lon="12.9943046"><ele>590.5</ele><time>2026-04-19T09:46:46.259Z</time></trkpt><trkpt lat="43.4015983" lon="12.9943124"><ele>592.0</ele><time>2026-04-19T09:46:47.259Z</time></trkpt><trkpt lat="43.4017307" lon="12.994312"><ele>593.5</ele><time>2026-04-19T09:46:48.26Z</time></trkpt><trkpt lat="43.4018636" lon="12.9943016"><ele>595.0</ele><time>2026-04-19T09:46:49.26Z</time></trkpt><trkpt lat="43.4019961" lon="12.9942629"><ele>595.0</ele><time>2026-04-19T09:46:50.258Z</time></trkpt><trkpt lat="43.4021277" lon="12.9942227"><ele>595.0</ele><time>2026-04-19T09:46:51.259Z</time></trkpt><trkpt lat="43.4022571" lon="12.9941786"><ele>595.0</ele><time>2026-04-19T09:46:52.26Z</time></trkpt><trkpt lat="43.4023884" lon="12.9941423"><ele>595.0</ele><time>2026-04-19T09:46:53.259Z</time></trkpt><trkpt lat="43.4025225" lon="12.9941158"><ele>590.5</ele><time>2026-04-19T09:46:54.26Z</time></trkpt><trkpt lat="43.4026575" lon="12.9940981"><ele>586.0</ele><time>2026-04-19T09:46:55.26Z</time></trkpt><trkpt lat="43.4027925" lon="12.9940917"><ele>581.5</ele><time>2026-04-19T09:46:56.26Z</time></trkpt><trkpt lat="43.4029316" lon="12.9940945"><ele>577.0</ele><time>2026-04-19T09:46:57.26Z</time></trkpt><trkpt lat="43.4030726" lon="12.9941062"><ele>577.0</ele><time>2026-04-19T09:46:58.259Z</time></trkpt><trkpt lat="43.4032179" lon="12.9941246"><ele>577.0</ele><time>2026-04-19T09:46:59.259Z</time></trkpt><trkpt lat="43.4033677" lon="12.9941439"><ele>577.0</ele><time>2026-04-19T09:47:00.26Z</time></trkpt><trkpt lat="43.4035157" lon="12.9941684"><ele>577.0</ele><time>2026-04-19T09:47:01.259Z</time></trkpt><trkpt lat="43.4036729" lon="12.9941976"><ele>585.6666666666667</ele><time>2026-04-19T09:47:02.259Z</time></trkpt><trkpt lat="43.4038307" lon="12.9942342"><ele>594.3333333333334</ele><time>2026-04-19T09:47:03.259Z</time></trkpt><trkpt lat="43.4039796" lon="12.9942678"><ele>603.0</ele><time>2026-04-19T09:47:04.26Z</time></trkpt><trkpt lat="43.4041267" lon="12.9943014"><ele>603.0</ele><time>2026-04-19T09:47:05.26Z</time></trkpt><trkpt lat="43.4042697" lon="12.9943343"><ele>603.0</ele><time>2026-04-19T09:47:06.26Z</time></trkpt><trkpt lat="43.4044124" lon="12.9943714"><ele>603.0</ele><time>2026-04-19T09:47:07.259Z</time></trkpt><trkpt lat="43.4045538" lon="12.9944156"><ele>603.0</ele><time>2026-04-19T09:47:08.259Z</time></trkpt><trkpt lat="43.404692" lon="12.9944656"><ele>602.75</ele><time>2026-04-19T09:47:09.26Z</time></trkpt><trkpt lat="43.4048262" lon="12.9945206"><ele>602.5</ele><time>2026-04-19T09:47:10.259Z</time></trkpt><trkpt lat="43.404958" lon="12.9945744"><ele>602.25</ele><time>2026-04-19T09:47:11.26Z</time></trkpt><trkpt lat="43.4050879" lon="12.994631"><ele>602.0</ele><time>2026-04-19T09:47:12.26Z</time></trkpt><trkpt lat="43.4052179" lon="12.9946893"><ele>602.0</ele><time>2026-04-19T09:47:13.259Z</time></trkpt><trkpt lat="43.405347" lon="12.9947488"><ele>602.0</ele><time>2026-04-19T09:47:14.259Z</time></trkpt><trkpt lat="43.4054801" lon="12.9948126"><ele>602.0</ele><time>2026-04-19T09:47:15.259Z</time></trkpt><trkpt lat="43.4056121" lon="12.9948836"><ele>602.0</ele><time>2026-04-19T09:47:16.26Z</time></trkpt><trkpt lat="43.4057475" lon="12.9949577"><ele>606.75</ele><time>2026-04-19T09:47:17.26Z</time></trkpt><trkpt lat="43.4058844" lon="12.9950319"><ele>611.5</ele><time>2026-04-19T09:47:18.259Z</time></trkpt><trkpt lat="43.4060215" lon="12.9951084"><ele>616.25</ele><time>2026-04-19T09:47:19.259Z</time></trkpt><trkpt lat="43.4061626" lon="12.995192"><ele>621.0</ele><time>2026-04-19T09:47:20.26Z</time></trkpt><trkpt lat="43.4063036" lon="12.9952763"><ele>618.3333333333334</ele><time>2026-04-19T09:47:21.258Z</time></trkpt><trkpt lat="43.4064431" lon="12.9953637"><ele>615.6666666666667</ele><time>2026-04-19T09:47:22.26Z</time></trkpt><trkpt lat="43.4065795" lon="12.9954507"><ele>613.0</ele><time>2026-04-19T09:47:23.259Z</time></trkpt><trkpt lat="43.4067148" lon="12.9955367"><ele>613.0</ele><time>2026-04-19T09:47:24.26Z</time></trkpt><trkpt lat="43.406844" lon="12.9956181"><ele>613.0</ele><time>2026-04-19T09:47:25.258Z</time></trkpt><trkpt lat="43.4069618" lon="12.9956862"><ele>613.0</ele><time>2026-04-19T09:47:26.258Z</time></trkpt><trkpt lat="43.4070686" lon="12.9957453"><ele>613.0</ele><time>2026-04-19T09:47:27.259Z</time></trkpt><trkpt lat="43.4071636" lon="12.9957994"><ele>615.3333333333334</ele><time>2026-04-19T09:47:28.259Z</time></trkpt><trkpt lat="43.4072419" lon="12.9958498"><ele>617.6666666666667</ele><time>2026-04-19T09:47:29.26Z</time></trkpt><trkpt lat="43.4073034" lon="12.9959082"><ele>620.0</ele><time>2026-04-19T09:47:30.26Z</time></trkpt><trkpt lat="43.40734" lon="12.9959807"><ele>622.3333333333334</ele><time>2026-04-19T09:47:31.26Z</time></trkpt><trkpt lat="43.4073154" lon="12.9961032"><ele>624.6666666666666</ele><time>2026-04-19T09:47:33.26Z</time></trkpt><trkpt lat="43.4072067" lon="12.996134"><ele>627.0</ele><time>2026-04-19T09:47:35.26Z</time></trkpt><trkpt lat="43.4071424" lon="12.9961"><ele>629.25</ele><time>2026-04-19T09:47:36.26Z</time></trkpt><trkpt lat="43.4070624" lon="12.9960387"><ele>631.5</ele><time>2026-04-19T09:47:37.26Z</time></trkpt><trkpt lat="43.406964" lon="12.9959819"><ele>633.75</ele><time>2026-04-19T09:47:38.26Z</time></trkpt><trkpt lat="43.4068388" lon="12.9959485"><ele>636.0</ele><time>2026-04-19T09:47:39.26Z</time></trkpt><trkpt lat="43.4066938" lon="12.9959245"><ele>636.0</ele><time>2026-04-19T09:47:40.26Z</time></trkpt><trkpt lat="43.4065306" lon="12.9959194"><ele>636.0</ele><time>2026-04-19T09:47:41.26Z</time></trkpt><trkpt lat="43.4063475" lon="12.995925"><ele>636.0</ele><time>2026-04-19T09:47:42.26Z</time></trkpt><trkpt lat="43.406145" lon="12.9959369"><ele>642.0</ele><time>2026-04-19T09:47:43.259Z</time></trkpt><trkpt lat="43.4059256" lon="12.9959542"><ele>648.0</ele><time>2026-04-19T09:47:44.259Z</time></trkpt><trkpt lat="43.4056887" lon="12.9959782"><ele>651.0</ele><time>2026-04-19T09:47:45.26Z</time></trkpt><trkpt lat="43.4054503" lon="12.9960021"><ele>654.0</ele><time>2026-04-19T09:47:46.26Z</time></trkpt><trkpt lat="43.4052387" lon="12.9960211"><ele>654.0</ele><time>2026-04-19T09:47:47.259Z</time></trkpt><trkpt lat="43.4050425" lon="12.9960385"><ele>654.0</ele><time>2026-04-19T09:47:48.26Z</time></trkpt><trkpt lat="43.4048559" lon="12.996057"><ele>654.0</ele><time>2026-04-19T09:47:49.259Z</time></trkpt><trkpt lat="43.4046661" lon="12.9960787"><ele>653.3333333333334</ele><time>2026-04-19T09:47:50.259Z</time></trkpt><trkpt lat="43.4044782" lon="12.9961057"><ele>652.6666666666667</ele><time>2026-04-19T09:47:51.258Z</time></trkpt><trkpt lat="43.4042931" lon="12.996136"><ele>652.0</ele><time>2026-04-19T09:47:52.258Z</time></trkpt><trkpt lat="43.4041018" lon="12.9961711"><ele>652.0</ele><time>2026-04-19T09:47:53.259Z</time></trkpt><trkpt lat="43.4039205" lon="12.9961949"><ele>652.0</ele><time>2026-04-19T09:47:54.259Z</time></trkpt><trkpt lat="43.4037543" lon="12.9962009"><ele>652.0</ele><time>2026-04-19T09:47:55.259Z</time></trkpt><trkpt lat="43.4035943" lon="12.996198"><ele>652.5</ele><time>2026-04-19T09:47:56.258Z</time></trkpt><trkpt lat="43.4034465" lon="12.9962022"><ele>653.0</ele><time>2026-04-19T09:47:57.259Z</time></trkpt><trkpt lat="43.4033133" lon="12.9962065"><ele>653.5</ele><time>2026-04-19T09:47:58.257Z</time></trkpt><trkpt lat="43.4031847" lon="12.996219"><ele>654.0</ele><time>2026-04-19T09:47:59.259Z</time></trkpt><trkpt lat="43.4030612" lon="12.9962515"><ele>652.75</ele><time>2026-04-19T09:48:00.259Z</time></trkpt><trkpt lat="43.4029504" lon="12.9963162"><ele>651.5</ele><time>2026-04-19T09:48:01.259Z</time></trkpt><trkpt lat="43.402852" lon="12.996406"><ele>650.25</ele><time>2026-04-19T09:48:02.259Z</time></trkpt><trkpt lat="43.4027416" lon="12.9964962"><ele>649.0</ele><time>2026-04-19T09:48:03.258Z</time></trkpt><trkpt lat="43.4026242" lon="12.9965736"><ele>649.0</ele><time>2026-04-19T09:48:04.259Z</time></trkpt><trkpt lat="43.4024977" lon="12.9966419"><ele>649.0</ele><time>2026-04-19T09:48:05.258Z</time></trkpt><trkpt lat="43.4023696" lon="12.9966967"><ele>649.0</ele><time>2026-04-19T09:48:06.259Z</time></trkpt><trkpt lat="43.4022488" lon="12.9967344"><ele>649.0</ele><time>2026-04-19T09:48:07.259Z</time></trkpt><trkpt lat="43.4021384" lon="12.9967619"><ele>650.5</ele><time>2026-04-19T09:48:08.258Z</time></trkpt><trkpt lat="43.4020388" lon="12.9967798"><ele>652.0</ele><time>2026-04-19T09:48:09.259Z</time></trkpt><trkpt lat="43.4019538" lon="12.9967875"><ele>653.5</ele><time>2026-04-19T09:48:10.259Z</time></trkpt><trkpt lat="43.401891" lon="12.9968046"><ele>655.0</ele><time>2026-04-19T09:48:11.259Z</time></trkpt><trkpt lat="43.401827" lon="12.9968945"><ele>656.5</ele><time>2026-04-19T09:48:13.259Z</time></trkpt><trkpt lat="43.4018458" lon="12.9969956"><ele>658.0</ele><time>2026-04-19T09:48:15.258Z</time></trkpt><trkpt lat="43.4019477" lon="12.9970615"><ele>658.0</ele><time>2026-04-19T09:48:17.258Z</time></trkpt><trkpt lat="43.4020241" lon="12.9970648"><ele>658.0</ele><time>2026-04-19T09:48:18.258Z</time></trkpt><trkpt lat="43.4021232" lon="12.9970604"><ele>658.0</ele><time>2026-04-19T09:48:19.259Z</time></trkpt><trkpt lat="43.4022381" lon="12.9970621"><ele>658.0</ele><time>2026-04-19T09:48:20.259Z</time></trkpt><trkpt lat="43.4023575" lon="12.9970655"><ele>658.0</ele><time>2026-04-19T09:48:21.258Z</time></trkpt><trkpt lat="43.4024845" lon="12.9970705"><ele>658.75</ele><time>2026-04-19T09:48:22.257Z</time></trkpt><trkpt lat="43.402613" lon="12.9970785"><ele>659.5</ele><time>2026-04-19T09:48:23.258Z</time></trkpt><trkpt lat="43.4027458" lon="12.9970834"><ele>660.25</ele><time>2026-04-19T09:48:24.259Z</time></trkpt><trkpt lat="43.40288" lon="12.997073"><ele>661.0</ele><time>2026-04-19T09:48:25.258Z</time></trkpt><trkpt lat="43.4030162" lon="12.997042"><ele>663.75</ele><time>2026-04-19T09:48:26.259Z</time></trkpt><trkpt lat="43.4031498" lon="12.9970163"><ele>666.5</ele><time>2026-04-19T09:48:27.258Z</time></trkpt><trkpt lat="43.403286" lon="12.9970069"><ele>669.25</ele><time>2026-04-19T09:48:28.259Z</time></trkpt><trkpt lat="43.4034127" lon="12.9970303"><ele>672.0</ele><time>2026-04-19T09:48:29.257Z</time></trkpt><trkpt lat="43.4035401" lon="12.9970809"><ele>672.0</ele><time>2026-04-19T09:48:30.259Z</time></trkpt><trkpt lat="43.4036751" lon="12.9971388"><ele>672.0</ele><time>2026-04-19T09:48:31.258Z</time></trkpt><trkpt lat="43.4038156" lon="12.9971936"><ele>672.0</ele><time>2026-04-19T09:48:32.259Z</time></trkpt><trkpt lat="43.4039573" lon="12.9972494"><ele>672.0</ele><time>2026-04-19T09:48:33.258Z</time></trkpt><trkpt lat="43.4041015" lon="12.9973043"><ele>672.6</ele><time>2026-04-19T09:48:34.258Z</time></trkpt><trkpt lat="43.4042444" lon="12.9973625"><ele>673.2</ele><time>2026-04-19T09:48:35.258Z</time></trkpt><trkpt lat="43.4043663" lon="12.9974168"><ele>673.8</ele><time>2026-04-19T09:48:36.259Z</time></trkpt><trkpt lat="43.4044411" lon="12.9974586"><ele>674.4</ele><time>2026-04-19T09:48:37.259Z</time></trkpt><trkpt lat="43.4045049" lon="12.9975373"><ele>675.0</ele><time>2026-04-19T09:48:39.258Z</time></trkpt><trkpt lat="43.4045348" lon="12.9976196"><ele>676.0</ele><time>2026-04-19T09:48:41.259Z</time></trkpt><trkpt lat="43.4045584" lon="12.9977103"><ele>677.0</ele><time>2026-04-19T09:48:44.259Z</time></trkpt><trkpt lat="43.4045188" lon="12.9978378"><ele>678.0</ele><time>2026-04-19T09:48:47.258Z</time></trkpt><trkpt lat="43.4044267" lon="12.9978683"><ele>679.0</ele><time>2026-04-19T09:48:49.259Z</time></trkpt><trkpt lat="43.4043578" lon="12.9978854"><ele>680.0</ele><time>2026-04-19T09:48:51.258Z</time></trkpt><trkpt lat="43.4042722" lon="12.9979091"><ele>681.0</ele><time>2026-04-19T09:48:53.259Z</time></trkpt><trkpt lat="43.4041783" lon="12.9979323"><ele>681.0</ele><time>2026-04-19T09:48:55.258Z</time></trkpt><trkpt lat="43.4040758" lon="12.9979502"><ele>681.0</ele><time>2026-04-19T09:48:57.257Z</time></trkpt><trkpt lat="43.4039758" lon="12.9979629"><ele>681.0</ele><time>2026-04-19T09:48:59.259Z</time></trkpt><trkpt lat="43.4038843" lon="12.9979979"><ele>681.0</ele><time>2026-04-19T09:49:01.258Z</time></trkpt><trkpt lat="43.4037912" lon="12.9980532"><ele>681.0</ele><time>2026-04-19T09:49:03.257Z</time></trkpt><trkpt lat="43.4037156" lon="12.998145"><ele>681.5999999999999</ele><time>2026-04-19T09:49:05.259Z</time></trkpt><trkpt lat="43.4036255" lon="12.9982565"><ele>682.2</ele><time>2026-04-19T09:49:07.259Z</time></trkpt><trkpt lat="43.4035376" lon="12.9983464"><ele>682.8</ele><time>2026-04-19T09:49:09.258Z</time></trkpt><trkpt lat="43.4034841" lon="12.998464"><ele>683.4000000000001</ele><time>2026-04-19T09:49:11.258Z</time></trkpt><trkpt lat="43.4034842" lon="12.9986142"><ele>684.0</ele><time>2026-04-19T09:49:13.259Z</time></trkpt><trkpt lat="43.4035199" lon="12.998747"><ele>684.0</ele><time>2026-04-19T09:49:15.259Z</time></trkpt><trkpt lat="43.4035555" lon="12.9988412"><ele>684.0</ele><time>2026-04-19T09:49:16.259Z</time></trkpt><trkpt lat="43.4035924" lon="12.9989365"><ele>684.0</ele><time>2026-04-19T09:49:17.258Z</time></trkpt><trkpt lat="43.4036216" lon="12.9990349"><ele>684.0</ele><time>2026-04-19T09:49:18.259Z</time></trkpt><trkpt lat="43.4036541" lon="12.9991498"><ele>684.0</ele><time>2026-04-19T09:49:19.258Z</time></trkpt><trkpt lat="43.4036813" lon="12.9992487"><ele>684.0</ele><time>2026-04-19T09:49:20.258Z</time></trkpt><trkpt lat="43.4037078" lon="12.9993585"><ele>684.3333333333334</ele><time>2026-04-19T09:49:21.258Z</time></trkpt><trkpt lat="43.4037205" lon="12.999473"><ele>684.6666666666666</ele><time>2026-04-19T09:49:22.259Z</time></trkpt><trkpt lat="43.4037218" lon="12.9995796"><ele>685.0</ele><time>2026-04-19T09:49:23.258Z</time></trkpt><trkpt lat="43.4037056" lon="12.9996752"><ele>685.3333333333333</ele><time>2026-04-19T09:49:24.258Z</time></trkpt><trkpt lat="43.4036323" lon="12.9998139"><ele>685.6666666666666</ele><time>2026-04-19T09:49:26.259Z</time></trkpt><trkpt lat="43.4035754" lon="12.9998592"><ele>686.0</ele><time>2026-04-19T09:49:27.259Z</time></trkpt><trkpt lat="43.4035068" lon="12.9998837"><ele>686.0</ele><time>2026-04-19T09:49:28.258Z</time></trkpt><trkpt lat="43.4034288" lon="12.9999027"><ele>686.0</ele><time>2026-04-19T09:49:29.258Z</time></trkpt><trkpt lat="43.4033262" lon="12.9999255"><ele>686.0</ele><time>2026-04-19T09:49:30.259Z</time></trkpt><trkpt lat="43.4032142" lon="12.9999483"><ele>686.0</ele><time>2026-04-19T09:49:31.259Z</time></trkpt><trkpt lat="43.4030953" lon="12.9999676"><ele>686.0</ele><time>2026-04-19T09:49:32.258Z</time></trkpt><trkpt lat="43.4029621" lon="12.9999751"><ele>687.5</ele><time>2026-04-19T09:49:33.258Z</time></trkpt><trkpt lat="43.4028243" lon="12.9999776"><ele>689.0</ele><time>2026-04-19T09:49:34.258Z</time></trkpt><trkpt lat="43.4026886" lon="12.9999797"><ele>690.5</ele><time>2026-04-19T09:49:35.259Z</time></trkpt><trkpt lat="43.4025525" lon="12.9999801"><ele>692.0</ele><time>2026-04-19T09:49:36.259Z</time></trkpt><trkpt lat="43.4024198" lon="12.999983"><ele>692.0</ele><time>2026-04-19T09:49:37.259Z</time></trkpt><trkpt lat="43.4022943" lon="12.9999887"><ele>692.0</ele><time>2026-04-19T09:49:38.258Z</time></trkpt><trkpt lat="43.4021682" lon="12.9999963"><ele>692.0</ele><time>2026-04-19T09:49:39.257Z</time></trkpt><trkpt lat="43.4020473" lon="13.0000049"><ele>692.0</ele><time>2026-04-19T09:49:40.258Z</time></trkpt><trkpt lat="43.4019319" lon="13.0000132"><ele>694.25</ele><time>2026-04-19T09:49:41.259Z</time></trkpt><trkpt lat="43.4018046" lon="13.000019"><ele>696.5</ele><time>2026-04-19T09:49:42.259Z</time></trkpt><trkpt lat="43.4016791" lon="13.0000184"><ele>698.75</ele><time>2026-04-19T09:49:43.258Z</time></trkpt><trkpt lat="43.4015553" lon="13.0000122"><ele>701.0</ele><time>2026-04-19T09:49:44.259Z</time></trkpt><trkpt lat="43.4014478" lon="12.9999997"><ele>701.0</ele><time>2026-04-19T09:49:45.259Z</time></trkpt><trkpt lat="43.4013454" lon="12.9999782"><ele>701.0</ele><time>2026-04-19T09:49:46.259Z</time></trkpt><trkpt lat="43.4012433" lon="12.9999366"><ele>701.0</ele><time>2026-04-19T09:49:47.259Z</time></trkpt><trkpt lat="43.4011389" lon="12.9998839"><ele>701.0</ele><time>2026-04-19T09:49:48.259Z</time></trkpt><trkpt lat="43.4010407" lon="12.9998346"><ele>701.0</ele><time>2026-04-19T09:49:49.259Z</time></trkpt><trkpt lat="43.4009317" lon="12.9997818"><ele>703.5</ele><time>2026-04-19T09:49:50.259Z</time></trkpt><trkpt lat="43.4008222" lon="12.9997275"><ele>706.0</ele><time>2026-04-19T09:49:51.259Z</time></trkpt><trkpt lat="43.400718" lon="12.9996775"><ele>708.5</ele><time>2026-04-19T09:49:52.259Z</time></trkpt><trkpt lat="43.4006088" lon="12.999627"><ele>711.0</ele><time>2026-04-19T09:49:53.258Z</time></trkpt><trkpt lat="43.4004975" lon="12.9995803"><ele>712.8</ele><time>2026-04-19T09:49:54.258Z</time></trkpt><trkpt lat="43.4003938" lon="12.9995364"><ele>714.5999999999999</ele><time>2026-04-19T09:49:55.259Z</time></trkpt><trkpt lat="43.400299" lon="12.9994981"><ele>716.4</ele><time>2026-04-19T09:49:56.258Z</time></trkpt><trkpt lat="43.4002004" lon="12.9994568"><ele>718.2</ele><time>2026-04-19T09:49:57.258Z</time></trkpt><trkpt lat="43.4000949" lon="12.9994204"><ele>720.0</ele><time>2026-04-19T09:49:58.259Z</time></trkpt><trkpt lat="43.3999906" lon="12.9993855"><ele>720.0</ele><time>2026-04-19T09:49:59.259Z</time></trkpt><trkpt lat="43.3998839" lon="12.9993468"><ele>720.0</ele><time>2026-04-19T09:50:00.259Z</time></trkpt><trkpt lat="43.3997764" lon="12.9993091"><ele>720.0</ele><time>2026-04-19T09:50:01.258Z</time></trkpt><trkpt lat="43.3996627" lon="12.9992725"><ele>720.0</ele><time>2026-04-19T09:50:02.259Z</time></trkpt><trkpt lat="43.3995376" lon="12.9992335"><ele>719.75</ele><time>2026-04-19T09:50:03.259Z</time></trkpt><trkpt lat="43.3994046" lon="12.999193"><ele>719.5</ele><time>2026-04-19T09:50:04.259Z</time></trkpt><trkpt lat="43.3992885" lon="12.9991628"><ele>719.25</ele><time>2026-04-19T09:50:05.258Z</time></trkpt><trkpt lat="43.3991708" lon="12.9991332"><ele>719.0</ele><time>2026-04-19T09:50:06.259Z</time></trkpt><trkpt lat="43.3990629" lon="12.9991059"><ele>718.8000000000001</ele><time>2026-04-19T09:50:07.258Z</time></trkpt><trkpt lat="43.3989667" lon="12.9990762"><ele>718.6</ele><time>2026-04-19T09:50:08.258Z</time></trkpt><trkpt lat="43.3988768" lon="12.9990338"><ele>718.4</ele><time>2026-04-19T09:50:09.259Z</time></trkpt><trkpt lat="43.3987952" lon="12.9989801"><ele>718.2</ele><time>2026-04-19T09:50:10.259Z</time></trkpt><trkpt lat="43.3987169" lon="12.9989181"><ele>718.0</ele><time>2026-04-19T09:50:11.259Z</time></trkpt><trkpt lat="43.3986358" lon="12.9988549"><ele>718.0</ele><time>2026-04-19T09:50:12.257Z</time></trkpt><trkpt lat="43.3985539" lon="12.9987954"><ele>718.0</ele><time>2026-04-19T09:50:13.259Z</time></trkpt><trkpt lat="43.3984661" lon="12.9987361"><ele>718.0</ele><time>2026-04-19T09:50:14.259Z</time></trkpt><trkpt lat="43.3983802" lon="12.9986671"><ele>718.0</ele><time>2026-04-19T09:50:15.258Z</time></trkpt><trkpt lat="43.3982969" lon="12.9986014"><ele>718.0</ele><time>2026-04-19T09:50:16.259Z</time></trkpt><trkpt lat="43.3982121" lon="12.9985346"><ele>718.0</ele><time>2026-04-19T09:50:17.259Z</time></trkpt><trkpt lat="43.3981246" lon="12.9984662"><ele>718.0</ele><time>2026-04-19T09:50:18.258Z</time></trkpt><trkpt lat="43.3980319" lon="12.9984059"><ele>718.0</ele><time>2026-04-19T09:50:19.259Z</time></trkpt><trkpt lat="43.3979423" lon="12.9983484"><ele>718.0</ele><time>2026-04-19T09:50:20.259Z</time></trkpt><trkpt lat="43.3978401" lon="12.9982973"><ele>718.0</ele><time>2026-04-19T09:50:21.258Z</time></trkpt><trkpt lat="43.3977368" lon="12.9982541"><ele>716.5999999999999</ele><time>2026-04-19T09:50:22.259Z</time></trkpt><trkpt lat="43.3976416" lon="12.9982059"><ele>715.1999999999999</ele><time>2026-04-19T09:50:23.259Z</time></trkpt><trkpt lat="43.397557" lon="12.9981699"><ele>713.8</ele><time>2026-04-19T09:50:24.259Z</time></trkpt><trkpt lat="43.3974658" lon="12.9981306"><ele>712.4</ele><time>2026-04-19T09:50:25.258Z</time></trkpt><trkpt lat="43.3973799" lon="12.9980947"><ele>711.0</ele><time>2026-04-19T09:50:26.259Z</time></trkpt><trkpt lat="43.3973058" lon="12.9981157"><ele>711.0</ele><time>2026-04-19T09:50:27.257Z</time></trkpt><trkpt lat="43.3972226" lon="12.9981039"><ele>711.0</ele><time>2026-04-19T09:50:28.258Z</time></trkpt><trkpt lat="43.3971315" lon="12.9981042"><ele>711.0</ele><time>2026-04-19T09:50:29.259Z</time></trkpt><trkpt lat="43.3970463" lon="12.9981064"><ele>711.0</ele><time>2026-04-19T09:50:30.259Z</time></trkpt><trkpt lat="43.3969499" lon="12.9981142"><ele>711.0</ele><time>2026-04-19T09:50:31.258Z</time></trkpt><trkpt lat="43.3968391" lon="12.9981271"><ele>710.25</ele><time>2026-04-19T09:50:32.257Z</time></trkpt><trkpt lat="43.3967346" lon="12.9981467"><ele>709.5</ele><time>2026-04-19T09:50:33.259Z</time></trkpt><trkpt lat="43.3966207" lon="12.9981668"><ele>708.75</ele><time>2026-04-19T09:50:34.259Z</time></trkpt><trkpt lat="43.3965009" lon="12.9981959"><ele>708.0</ele><time>2026-04-19T09:50:35.259Z</time></trkpt><trkpt lat="43.3963846" lon="12.9982202"><ele>708.8</ele><time>2026-04-19T09:50:36.259Z</time></trkpt><trkpt lat="43.39628" lon="12.9982395"><ele>709.5999999999999</ele><time>2026-04-19T09:50:37.259Z</time></trkpt><trkpt lat="43.396178" lon="12.998267"><ele>710.4000000000001</ele><time>2026-04-19T09:50:38.259Z</time></trkpt><trkpt lat="43.3960761" lon="12.9982769"><ele>711.2</ele><time>2026-04-19T09:50:39.259Z</time></trkpt><trkpt lat="43.3959793" lon="12.9982978"><ele>712.0</ele><time>2026-04-19T09:50:40.259Z</time></trkpt><trkpt lat="43.3958872" lon="12.9983131"><ele>711.9999999999999</ele><time>2026-04-19T09:50:41.258Z</time></trkpt><trkpt lat="43.3958056" lon="12.9983245"><ele>712.0</ele><time>2026-04-19T09:50:42.259Z</time></trkpt><trkpt lat="43.3957282" lon="12.9983256"><ele>712.0</ele><time>2026-04-19T09:50:43.258Z</time></trkpt><trkpt lat="43.3956599" lon="12.9983085"><ele>712.0</ele><time>2026-04-19T09:50:44.259Z</time></trkpt><trkpt lat="43.3955943" lon="12.9982538"><ele>712.0</ele><time>2026-04-19T09:50:45.259Z</time></trkpt><trkpt lat="43.3955375" lon="12.9982004"><ele>711.9999999999999</ele><time>2026-04-19T09:50:46.258Z</time></trkpt><trkpt lat="43.3954781" lon="12.9981481"><ele>712.0</ele><time>2026-04-19T09:50:47.259Z</time></trkpt><trkpt lat="43.3954233" lon="12.9980949"><ele>714.8333333333334</ele><time>2026-04-19T09:50:48.258Z</time></trkpt><trkpt lat="43.3953613" lon="12.9980439"><ele>717.6666666666667</ele><time>2026-04-19T09:50:49.259Z</time></trkpt><trkpt lat="43.3952896" lon="12.9979862"><ele>720.5</ele><time>2026-04-19T09:50:50.259Z</time></trkpt><trkpt lat="43.3952245" lon="12.9979311"><ele>723.3333333333334</ele><time>2026-04-19T09:50:51.258Z</time></trkpt><trkpt lat="43.3951598" lon="12.9978786"><ele>726.1666666666666</ele><time>2026-04-19T09:50:52.259Z</time></trkpt><trkpt lat="43.3950979" lon="12.9978288"><ele>729.0</ele><time>2026-04-19T09:50:53.259Z</time></trkpt><trkpt lat="43.3950375" lon="12.9977721"><ele>729.0</ele><time>2026-04-19T09:50:54.258Z</time></trkpt><trkpt lat="43.3949779" lon="12.9977205"><ele>729.0</ele><time>2026-04-19T09:50:55.259Z</time></trkpt><trkpt lat="43.3949157" lon="12.9976664"><ele>729.0</ele><time>2026-04-19T09:50:56.258Z</time></trkpt><trkpt lat="43.3948497" lon="12.9976076"><ele>729.0</ele><time>2026-04-19T09:50:57.259Z</time></trkpt><trkpt lat="43.394779" lon="12.9975406"><ele>729.0</ele><time>2026-04-19T09:50:58.257Z</time></trkpt><trkpt lat="43.3947127" lon="12.9974686"><ele>729.0</ele><time>2026-04-19T09:50:59.259Z</time></trkpt><trkpt lat="43.3946452" lon="12.9973975"><ele>730.6666666666666</ele><time>2026-04-19T09:51:00.259Z</time></trkpt><trkpt lat="43.3945783" lon="12.9973376"><ele>732.3333333333334</ele><time>2026-04-19T09:51:01.259Z</time></trkpt><trkpt lat="43.3945129" lon="12.9972937"><ele>734.0</ele><time>2026-04-19T09:51:02.259Z</time></trkpt><trkpt lat="43.3944442" lon="12.9972613"><ele>735.6666666666667</ele><time>2026-04-19T09:51:03.259Z</time></trkpt><trkpt lat="43.3943701" lon="12.9972322"><ele>737.3333333333334</ele><time>2026-04-19T09:51:04.259Z</time></trkpt><trkpt lat="43.3942929" lon="12.9972036"><ele>739.0</ele><time>2026-04-19T09:51:05.258Z</time></trkpt><trkpt lat="43.3942111" lon="12.9971706"><ele>739.0</ele><time>2026-04-19T09:51:06.259Z</time></trkpt><trkpt lat="43.3941216" lon="12.997133"><ele>739.0</ele><time>2026-04-19T09:51:07.258Z</time></trkpt><trkpt lat="43.3940386" lon="12.9971"><ele>739.0</ele><time>2026-04-19T09:51:08.257Z</time></trkpt><trkpt lat="43.3939587" lon="12.9970719"><ele>739.0</ele><time>2026-04-19T09:51:09.259Z</time></trkpt><trkpt lat="43.3938738" lon="12.997042"><ele>739.0</ele><time>2026-04-19T09:51:10.259Z</time></trkpt><trkpt lat="43.3937744" lon="12.9970049"><ele>740.6</ele><time>2026-04-19T09:51:11.258Z</time></trkpt><trkpt lat="43.3936619" lon="12.9969573"><ele>742.2</ele><time>2026-04-19T09:51:12.259Z</time></trkpt><trkpt lat="43.3935546" lon="12.9969055"><ele>743.8000000000001</ele><time>2026-04-19T09:51:13.259Z</time></trkpt><trkpt lat="43.3934655" lon="12.9968591"><ele>745.4000000000001</ele><time>2026-04-19T09:51:14.259Z</time></trkpt><trkpt lat="43.3933802" lon="12.9968084"><ele>747.0</ele><time>2026-04-19T09:51:15.259Z</time></trkpt><trkpt lat="43.393296" lon="12.9967447"><ele>747.0</ele><time>2026-04-19T09:51:16.259Z</time></trkpt><trkpt lat="43.3932147" lon="12.9966751"><ele>747.0</ele><time>2026-04-19T09:51:17.258Z</time></trkpt><trkpt lat="43.3931361" lon="12.9965932"><ele>747.0</ele><time>2026-04-19T09:51:18.259Z</time></trkpt><trkpt lat="43.3930548" lon="12.9965062"><ele>747.0</ele><time>2026-04-19T09:51:19.259Z</time></trkpt><trkpt lat="43.392975" lon="12.9964173"><ele>747.0</ele><time>2026-04-19T09:51:20.259Z</time></trkpt><trkpt lat="43.3929" lon="12.9963234"><ele>750.1666666666666</ele><time>2026-04-19T09:51:21.258Z</time></trkpt><trkpt lat="43.3928311" lon="12.9962359"><ele>753.3333333333334</ele><time>2026-04-19T09:51:22.258Z</time></trkpt><trkpt lat="43.3927672" lon="12.9961566"><ele>756.5</ele><time>2026-04-19T09:51:23.259Z</time></trkpt><trkpt lat="43.3927089" lon="12.9960817"><ele>759.6666666666667</ele><time>2026-04-19T09:51:24.259Z</time></trkpt><trkpt lat="43.392663" lon="12.9960195"><ele>762.8333333333334</ele><time>2026-04-19T09:51:25.259Z</time></trkpt><trkpt lat="43.3925868" lon="12.9959319"><ele>766.0</ele><time>2026-04-19T09:51:27.259Z</time></trkpt><trkpt lat="43.3925256" lon="12.9959746"><ele>766.0</ele><time>2026-04-19T09:51:30.258Z</time></trkpt><trkpt lat="43.392566" lon="12.9960927"><ele>766.0</ele><time>2026-04-19T09:51:33.259Z</time></trkpt><trkpt lat="43.3926437" lon="12.9962272"><ele>766.0</ele><time>2026-04-19T09:51:35.259Z</time></trkpt><trkpt lat="43.3926912" lon="12.9963779"><ele>766.0</ele><time>2026-04-19T09:51:37.259Z</time></trkpt><trkpt lat="43.3927052" lon="12.9964816"><ele>766.0</ele><time>2026-04-19T09:51:38.258Z</time></trkpt><trkpt lat="43.3927097" lon="12.9966032"><ele>766.75</ele><time>2026-04-19T09:51:39.259Z</time></trkpt><trkpt lat="43.3927117" lon="12.9967394"><ele>767.5</ele><time>2026-04-19T09:51:40.259Z</time></trkpt><trkpt lat="43.3927075" lon="12.9968928"><ele>768.25</ele><time>2026-04-19T09:51:41.258Z</time></trkpt><trkpt lat="43.3927019" lon="12.9970615"><ele>769.0</ele><time>2026-04-19T09:51:42.258Z</time></trkpt><trkpt lat="43.3926905" lon="12.997241"><ele>769.0</ele><time>2026-04-19T09:51:43.258Z</time></trkpt><trkpt lat="43.3926805" lon="12.9974162"><ele>769.0</ele><time>2026-04-19T09:51:44.259Z</time></trkpt><trkpt lat="43.3926663" lon="12.9975706"><ele>769.0</ele><time>2026-04-19T09:51:45.258Z</time></trkpt><trkpt lat="43.3926531" lon="12.9977159"><ele>769.0</ele><time>2026-04-19T09:51:46.259Z</time></trkpt><trkpt lat="43.3926312" lon="12.9978503"><ele>769.0</ele><time>2026-04-19T09:51:47.259Z</time></trkpt><trkpt lat="43.3925999" lon="12.9979749"><ele>768.2</ele><time>2026-04-19T09:51:48.258Z</time></trkpt><trkpt lat="43.392562" lon="12.9980823"><ele>767.4000000000001</ele><time>2026-04-19T09:51:49.259Z</time></trkpt><trkpt lat="43.3925276" lon="12.9981657"><ele>766.6</ele><time>2026-04-19T09:51:50.258Z</time></trkpt><trkpt lat="43.3924427" lon="12.9982773"><ele>765.8</ele><time>2026-04-19T09:51:52.259Z</time></trkpt><trkpt lat="43.3923337" lon="12.9982944"><ele>765.0</ele><time>2026-04-19T09:51:54.258Z</time></trkpt><trkpt lat="43.3922634" lon="12.9982828"><ele>765.0</ele><time>2026-04-19T09:51:55.259Z</time></trkpt><trkpt lat="43.3921959" lon="12.9982945"><ele>765.0</ele><time>2026-04-19T09:51:56.259Z</time></trkpt><trkpt lat="43.3920852" lon="12.9984285"><ele>765.0</ele><time>2026-04-19T09:51:58.259Z</time></trkpt><trkpt lat="43.3920321" lon="12.9985243"><ele>765.0</ele><time>2026-04-19T09:51:59.258Z</time></trkpt><trkpt lat="43.3919809" lon="12.9986528"><ele>765.0</ele><time>2026-04-19T09:52:00.259Z</time></trkpt><trkpt lat="43.3919347" lon="12.9988041"><ele>769.5</ele><time>2026-04-19T09:52:01.258Z</time></trkpt><trkpt lat="43.391886" lon="12.9989679"><ele>774.0</ele><time>2026-04-19T09:52:02.259Z</time></trkpt><trkpt lat="43.3918425" lon="12.9991219"><ele>778.5</ele><time>2026-04-19T09:52:03.259Z</time></trkpt><trkpt lat="43.3918132" lon="12.9992677"><ele>783.0</ele><time>2026-04-19T09:52:04.259Z</time></trkpt><trkpt lat="43.3918021" lon="12.9994109"><ele>784.25</ele><time>2026-04-19T09:52:05.259Z</time></trkpt><trkpt lat="43.3917932" lon="12.9995587"><ele>785.5</ele><time>2026-04-19T09:52:06.259Z</time></trkpt><trkpt lat="43.3917851" lon="12.9997196"><ele>786.75</ele><time>2026-04-19T09:52:07.258Z</time></trkpt><trkpt lat="43.3917791" lon="12.9998761"><ele>788.0</ele><time>2026-04-19T09:52:08.258Z</time></trkpt><trkpt lat="43.3917739" lon="13.000039"><ele>788.0</ele><time>2026-04-19T09:52:09.258Z</time></trkpt><trkpt lat="43.3917697" lon="13.0002243"><ele>788.0</ele><time>2026-04-19T09:52:10.259Z</time></trkpt><trkpt lat="43.3917675" lon="13.0004052"><ele>788.0</ele><time>2026-04-19T09:52:11.259Z</time></trkpt><trkpt lat="43.3917599" lon="13.0005894"><ele>788.0</ele><time>2026-04-19T09:52:12.259Z</time></trkpt><trkpt lat="43.3917496" lon="13.0007799"><ele>788.75</ele><time>2026-04-19T09:52:13.258Z</time></trkpt><trkpt lat="43.3917449" lon="13.0009633"><ele>789.5</ele><time>2026-04-19T09:52:14.258Z</time></trkpt><trkpt lat="43.3917443" lon="13.0011551"><ele>790.25</ele><time>2026-04-19T09:52:15.259Z</time></trkpt><trkpt lat="43.3917501" lon="13.0013401"><ele>791.0</ele><time>2026-04-19T09:52:16.259Z</time></trkpt><trkpt lat="43.3917561" lon="13.0015336"><ele>793.0</ele><time>2026-04-19T09:52:17.259Z</time></trkpt><trkpt lat="43.3917622" lon="13.0017202"><ele>795.0</ele><time>2026-04-19T09:52:18.258Z</time></trkpt><trkpt lat="43.3917715" lon="13.0019047"><ele>797.0</ele><time>2026-04-19T09:52:19.259Z</time></trkpt><trkpt lat="43.3917819" lon="13.0020796"><ele>799.0</ele><time>2026-04-19T09:52:20.258Z</time></trkpt><trkpt lat="43.3917927" lon="13.0022551"><ele>799.0</ele><time>2026-04-19T09:52:21.259Z</time></trkpt><trkpt lat="43.3918044" lon="13.0024292"><ele>799.0</ele><time>2026-04-19T09:52:22.258Z</time></trkpt><trkpt lat="43.3918155" lon="13.0026015"><ele>799.0</ele><time>2026-04-19T09:52:23.258Z</time></trkpt><trkpt lat="43.3918244" lon="13.0027746"><ele>799.0</ele><time>2026-04-19T09:52:24.259Z</time></trkpt><trkpt lat="43.3918352" lon="13.002951"><ele>800.5</ele><time>2026-04-19T09:52:25.258Z</time></trkpt><trkpt lat="43.3918486" lon="13.0031268"><ele>802.0</ele><time>2026-04-19T09:52:26.259Z</time></trkpt><trkpt lat="43.3918628" lon="13.003304"><ele>803.5</ele><time>2026-04-19T09:52:27.258Z</time></trkpt><trkpt lat="43.3918816" lon="13.0034832"><ele>805.0</ele><time>2026-04-19T09:52:28.259Z</time></trkpt><trkpt lat="43.3918994" lon="13.0036611"><ele>807.5</ele><time>2026-04-19T09:52:29.259Z</time></trkpt><trkpt lat="43.3919176" lon="13.003835"><ele>810.0</ele><time>2026-04-19T09:52:30.258Z</time></trkpt><trkpt lat="43.3919333" lon="13.0040015"><ele>812.5</ele><time>2026-04-19T09:52:31.258Z</time></trkpt><trkpt lat="43.3919462" lon="13.0041705"><ele>815.0</ele><time>2026-04-19T09:52:32.259Z</time></trkpt><trkpt lat="43.3919588" lon="13.004349"><ele>818.0</ele><time>2026-04-19T09:52:33.259Z</time></trkpt><trkpt lat="43.3919681" lon="13.0045381"><ele>821.0</ele><time>2026-04-19T09:52:34.258Z</time></trkpt><trkpt lat="43.3919828" lon="13.0047317"><ele>824.0</ele><time>2026-04-19T09:52:35.259Z</time></trkpt><trkpt lat="43.3919934" lon="13.0049141"><ele>827.0</ele><time>2026-04-19T09:52:36.258Z</time></trkpt><trkpt lat="43.3920008" lon="13.0050939"><ele>828.6</ele><time>2026-04-19T09:52:37.259Z</time></trkpt><trkpt lat="43.3920082" lon="13.0052647"><ele>830.2</ele><time>2026-04-19T09:52:38.259Z</time></trkpt><trkpt lat="43.3920162" lon="13.0054294"><ele>831.8</ele><time>2026-04-19T09:52:39.259Z</time></trkpt><trkpt lat="43.392022" lon="13.0055794"><ele>833.4</ele><time>2026-04-19T09:52:40.259Z</time></trkpt><trkpt lat="43.392026" lon="13.0057047"><ele>835.0</ele><time>2026-04-19T09:52:41.258Z</time></trkpt><trkpt lat="43.3920304" lon="13.0058086"><ele>834.7142857142858</ele><time>2026-04-19T09:52:42.259Z</time></trkpt><trkpt lat="43.3920354" lon="13.0059058"><ele>834.4285714285714</ele><time>2026-04-19T09:52:43.258Z</time></trkpt><trkpt lat="43.3920363" lon="13.0060017"><ele>834.1428571428571</ele><time>2026-04-19T09:52:44.259Z</time></trkpt><trkpt lat="43.392035" lon="13.0060913"><ele>833.8571428571429</ele><time>2026-04-19T09:52:45.259Z</time></trkpt><trkpt lat="43.3920374" lon="13.0062295"><ele>833.5714285714286</ele><time>2026-04-19T09:52:47.258Z</time></trkpt><trkpt lat="43.3920291" lon="13.0063233"><ele>833.2857142857143</ele><time>2026-04-19T09:52:49.259Z</time></trkpt><trkpt lat="43.3919962" lon="13.0064109"><ele>833.0</ele><time>2026-04-19T09:52:52.258Z</time></trkpt><trkpt lat="43.3919275" lon="13.0063679"><ele>833.0</ele><time>2026-04-19T09:52:56.259Z</time></trkpt><trkpt lat="43.3919347" lon="13.0062254"><ele>833.0</ele><time>2026-04-19T09:52:58.258Z</time></trkpt><trkpt lat="43.3919233" lon="13.0060578"><ele>833.0</ele><time>2026-04-19T09:53:00.259Z</time></trkpt><trkpt lat="43.3919046" lon="13.0059434"><ele>833.0</ele><time>2026-04-19T09:53:01.259Z</time></trkpt><trkpt lat="43.3918829" lon="13.0058266"><ele>833.0</ele><time>2026-04-19T09:53:02.257Z</time></trkpt><trkpt lat="43.3918562" lon="13.0056908"><ele>833.5</ele><time>2026-04-19T09:53:03.259Z</time></trkpt><trkpt lat="43.3918276" lon="13.005556"><ele>834.0</ele><time>2026-04-19T09:53:04.259Z</time></trkpt><trkpt lat="43.3917948" lon="13.005426"><ele>834.5</ele><time>2026-04-19T09:53:05.259Z</time></trkpt><trkpt lat="43.391747" lon="13.0052717"><ele>835.0</ele><time>2026-04-19T09:53:06.259Z</time></trkpt><trkpt lat="43.3916949" lon="13.0050921"><ele>833.0</ele><time>2026-04-19T09:53:07.259Z</time></trkpt><trkpt lat="43.3916475" lon="13.0049298"><ele>831.0</ele><time>2026-04-19T09:53:08.258Z</time></trkpt><trkpt lat="43.3916096" lon="13.0047796"><ele>829.0</ele><time>2026-04-19T09:53:09.259Z</time></trkpt><trkpt lat="43.3915595" lon="13.0046225"><ele>827.0</ele><time>2026-04-19T09:53:10.258Z</time></trkpt><trkpt lat="43.3915053" lon="13.0044769"><ele>827.0</ele><time>2026-04-19T09:53:11.258Z</time></trkpt><trkpt lat="43.3914427" lon="13.0043181"><ele>827.0</ele><time>2026-04-19T09:53:12.259Z</time></trkpt><trkpt lat="43.3913782" lon="13.0041495"><ele>827.0</ele><time>2026-04-19T09:53:13.259Z</time></trkpt><trkpt lat="43.3913213" lon="13.0039748"><ele>827.0</ele><time>2026-04-19T09:53:14.259Z</time></trkpt><trkpt lat="43.3912779" lon="13.0037994"><ele>833.25</ele><time>2026-04-19T09:53:15.258Z</time></trkpt><trkpt lat="43.3912356" lon="13.0036402"><ele>839.5</ele><time>2026-04-19T09:53:16.259Z</time></trkpt><trkpt lat="43.3911937" lon="13.0034938"><ele>845.75</ele><time>2026-04-19T09:53:17.259Z</time></trkpt><trkpt lat="43.3911458" lon="13.0033442"><ele>852.0</ele><time>2026-04-19T09:53:18.259Z</time></trkpt><trkpt lat="43.3910936" lon="13.0031831"><ele>852.0</ele><time>2026-04-19T09:53:19.259Z</time></trkpt><trkpt lat="43.3910385" lon="13.0030234"><ele>852.0</ele><time>2026-04-19T09:53:20.258Z</time></trkpt><trkpt lat="43.3909834" lon="13.0028661"><ele>852.0</ele><time>2026-04-19T09:53:21.259Z</time></trkpt><trkpt lat="43.3909322" lon="13.0027078"><ele>852.0</ele><time>2026-04-19T09:53:22.259Z</time></trkpt><trkpt lat="43.3908812" lon="13.002554"><ele>849.75</ele><time>2026-04-19T09:53:23.259Z</time></trkpt><trkpt lat="43.3908316" lon="13.0024032"><ele>847.5</ele><time>2026-04-19T09:53:24.259Z</time></trkpt><trkpt lat="43.3907808" lon="13.002252"><ele>845.25</ele><time>2026-04-19T09:53:25.259Z</time></trkpt><trkpt lat="43.3907309" lon="13.0021018"><ele>843.0</ele><time>2026-04-19T09:53:26.259Z</time></trkpt><trkpt lat="43.390677" lon="13.0019578"><ele>843.0</ele><time>2026-04-19T09:53:27.258Z</time></trkpt><trkpt lat="43.3906161" lon="13.0018128"><ele>843.0</ele><time>2026-04-19T09:53:28.259Z</time></trkpt><trkpt lat="43.3905498" lon="13.0016488"><ele>843.0</ele><time>2026-04-19T09:53:29.259Z</time></trkpt><trkpt lat="43.3904816" lon="13.0014861"><ele>843.0</ele><time>2026-04-19T09:53:30.259Z</time></trkpt><trkpt lat="43.3904043" lon="13.0013072"><ele>850.25</ele><time>2026-04-19T09:53:31.258Z</time></trkpt><trkpt lat="43.3903346" lon="13.0011309"><ele>857.5</ele><time>2026-04-19T09:53:32.259Z</time></trkpt><trkpt lat="43.3902777" lon="13.0009757"><ele>864.75</ele><time>2026-04-19T09:53:33.258Z</time></trkpt><trkpt lat="43.390222" lon="13.000825"><ele>872.0</ele><time>2026-04-19T09:53:34.259Z</time></trkpt><trkpt lat="43.3901699" lon="13.0006857"><ele>872.0</ele><time>2026-04-19T09:53:35.259Z</time></trkpt><trkpt lat="43.3901202" lon="13.0005515"><ele>872.0</ele><time>2026-04-19T09:53:36.258Z</time></trkpt><trkpt lat="43.3900795" lon="13.0004123"><ele>872.0</ele><time>2026-04-19T09:53:37.259Z</time></trkpt><trkpt lat="43.3900366" lon="13.0002761"><ele>872.0</ele><time>2026-04-19T09:53:38.258Z</time></trkpt><trkpt lat="43.3899953" lon="13.0001452"><ele>872.0</ele><time>2026-04-19T09:53:39.258Z</time></trkpt><trkpt lat="43.3899529" lon="13.000028"><ele>872.0</ele><time>2026-04-19T09:53:40.259Z</time></trkpt><trkpt lat="43.3899077" lon="12.9999031"><ele>872.0</ele><time>2026-04-19T09:53:41.259Z</time></trkpt><trkpt lat="43.3898622" lon="12.9997708"><ele>872.0</ele><time>2026-04-19T09:53:42.259Z</time></trkpt><trkpt lat="43.3898248" lon="12.9996505"><ele>872.0</ele><time>2026-04-19T09:53:43.258Z</time></trkpt><trkpt lat="43.3897899" lon="12.9995566"><ele>872.0</ele><time>2026-04-19T09:53:44.259Z</time></trkpt><trkpt lat="43.3897458" lon="12.9994598"><ele>872.0000000000001</ele><time>2026-04-19T09:53:45.258Z</time></trkpt><trkpt lat="43.3897006" lon="12.9993478"><ele>872.0</ele><time>2026-04-19T09:53:46.259Z</time></trkpt><trkpt lat="43.3896603" lon="12.9992511"><ele>872.0</ele><time>2026-04-19T09:53:47.259Z</time></trkpt><trkpt lat="43.3896086" lon="12.9991519"><ele>872.0</ele><time>2026-04-19T09:53:48.258Z</time></trkpt><trkpt lat="43.3895573" lon="12.9990491"><ele>872.0000000000001</ele><time>2026-04-19T09:53:49.258Z</time></trkpt><trkpt lat="43.3895055" lon="12.9989533"><ele>872.0</ele><time>2026-04-19T09:53:50.258Z</time></trkpt><trkpt lat="43.3894651" lon="12.9988678"><ele>875.6666666666667</ele><time>2026-04-19T09:53:51.258Z</time></trkpt><trkpt lat="43.3894196" lon="12.9987771"><ele>879.3333333333334</ele><time>2026-04-19T09:53:52.259Z</time></trkpt><trkpt lat="43.3893773" lon="12.9986846"><ele>883.0</ele><time>2026-04-19T09:53:53.259Z</time></trkpt><trkpt lat="43.3893284" lon="12.9985831"><ele>886.6666666666667</ele><time>2026-04-19T09:53:54.258Z</time></trkpt><trkpt lat="43.3892822" lon="12.9984841"><ele>890.3333333333334</ele><time>2026-04-19T09:53:55.258Z</time></trkpt><trkpt lat="43.3892092" lon="12.9983741"><ele>894.0</ele><time>2026-04-19T09:53:56.259Z</time></trkpt><trkpt lat="43.3891092" lon="12.9982634"><ele>894.0</ele><time>2026-04-19T09:53:57.258Z</time></trkpt><trkpt lat="43.3890166" lon="12.9981347"><ele>894.0</ele><time>2026-04-19T09:53:58.259Z</time></trkpt><trkpt lat="43.388925" lon="12.9980045"><ele>894.0</ele><time>2026-04-19T09:53:59.259Z</time></trkpt><trkpt lat="43.3888418" lon="12.9978718"><ele>894.0</ele><time>2026-04-19T09:54:00.259Z</time></trkpt><trkpt lat="43.3887631" lon="12.997746"><ele>895.8000000000001</ele><time>2026-04-19T09:54:01.259Z</time></trkpt><trkpt lat="43.3886997" lon="12.9976416"><ele>897.6000000000001</ele><time>2026-04-19T09:54:02.259Z</time></trkpt><trkpt lat="43.3886345" lon="12.997541"><ele>899.4</ele><time>2026-04-19T09:54:03.259Z</time></trkpt><trkpt lat="43.3885739" lon="12.9974542"><ele>901.2</ele><time>2026-04-19T09:54:04.258Z</time></trkpt><trkpt lat="43.3885127" lon="12.9973652"><ele>903.0</ele><time>2026-04-19T09:54:05.259Z</time></trkpt><trkpt lat="43.3884494" lon="12.9972906"><ele>903.0</ele><time>2026-04-19T09:54:06.259Z</time></trkpt><trkpt lat="43.3883683" lon="12.9972192"><ele>903.0</ele><time>2026-04-19T09:54:07.259Z</time></trkpt><trkpt lat="43.3882741" lon="12.9971495"><ele>903.0</ele><time>2026-04-19T09:54:08.258Z</time></trkpt><trkpt lat="43.3881794" lon="12.9970721"><ele>903.0</ele><time>2026-04-19T09:54:09.259Z</time></trkpt><trkpt lat="43.3880804" lon="12.9969916"><ele>903.0</ele><time>2026-04-19T09:54:10.259Z</time></trkpt><trkpt lat="43.3879822" lon="12.9969126"><ele>904.8333333333334</ele><time>2026-04-19T09:54:11.259Z</time></trkpt><trkpt lat="43.3878947" lon="12.996841"><ele>906.6666666666667</ele><time>2026-04-19T09:54:12.259Z</time></trkpt><trkpt lat="43.387813" lon="12.996783"><ele>908.5</ele><time>2026-04-19T09:54:13.258Z</time></trkpt><trkpt lat="43.3877362" lon="12.9967286"><ele>910.3333333333334</ele><time>2026-04-19T09:54:14.258Z</time></trkpt><trkpt lat="43.3876637" lon="12.9966936"><ele>912.1666666666667</ele><time>2026-04-19T09:54:15.259Z</time></trkpt><trkpt lat="43.387595" lon="12.9966726"><ele>914.0</ele><time>2026-04-19T09:54:16.258Z</time></trkpt><trkpt lat="43.3875274" lon="12.9966704"><ele>914.0</ele><time>2026-04-19T09:54:17.258Z</time></trkpt><trkpt lat="43.3874439" lon="12.9967299"><ele>914.0000000000001</ele><time>2026-04-19T09:54:19.259Z</time></trkpt><trkpt lat="43.3874486" lon="12.9968559"><ele>914.0000000000001</ele><time>2026-04-19T09:54:21.259Z</time></trkpt><trkpt lat="43.3875204" lon="12.9969709"><ele>914.0</ele><time>2026-04-19T09:54:23.259Z</time></trkpt><trkpt lat="43.3875896" lon="12.9970341"><ele>914.0</ele><time>2026-04-19T09:54:24.258Z</time></trkpt><trkpt lat="43.387681" lon="12.997098"><ele>914.0</ele><time>2026-04-19T09:54:25.259Z</time></trkpt><trkpt lat="43.3877698" lon="12.9971819"><ele>914.0000000000001</ele><time>2026-04-19T09:54:26.258Z</time></trkpt><trkpt lat="43.3878505" lon="12.9972682"><ele>914.0000000000001</ele><time>2026-04-19T09:54:27.258Z</time></trkpt><trkpt lat="43.3879137" lon="12.9973562"><ele>914.0</ele><time>2026-04-19T09:54:28.258Z</time></trkpt><trkpt lat="43.3879719" lon="12.9974581"><ele>914.0</ele><time>2026-04-19T09:54:29.259Z</time></trkpt><trkpt lat="43.3880294" lon="12.9975675"><ele>914.6</ele><time>2026-04-19T09:54:30.258Z</time></trkpt><trkpt lat="43.3880923" lon="12.9977097"><ele>915.2</ele><time>2026-04-19T09:54:31.259Z</time></trkpt><trkpt lat="43.3881465" lon="12.9978494"><ele>915.8000000000001</ele><time>2026-04-19T09:54:32.259Z</time></trkpt><trkpt lat="43.3881824" lon="12.997961"><ele>916.4000000000001</ele><time>2026-04-19T09:54:33.259Z</time></trkpt><trkpt lat="43.3882164" lon="12.9980379"><ele>917.0</ele><time>2026-04-19T09:54:34.258Z</time></trkpt><trkpt lat="43.3882585" lon="12.9981349"><ele>917.0</ele><time>2026-04-19T09:54:36.257Z</time></trkpt><trkpt lat="43.3882064" lon="12.9981897"><ele>917.0</ele><time>2026-04-19T09:54:39.259Z</time></trkpt><trkpt lat="43.3881145" lon="12.9981418"><ele>917.0</ele><time>2026-04-19T09:54:41.258Z</time></trkpt><trkpt lat="43.3880371" lon="12.9980821"><ele>917.0</ele><time>2026-04-19T09:54:42.259Z</time></trkpt><trkpt lat="43.3879445" lon="12.9980154"><ele>917.0</ele><time>2026-04-19T09:54:43.258Z</time></trkpt><trkpt lat="43.3878476" lon="12.9979404"><ele>921.0</ele><time>2026-04-19T09:54:44.259Z</time></trkpt><trkpt lat="43.3877212" lon="12.9978931"><ele>925.0</ele><time>2026-04-19T09:54:45.258Z</time></trkpt><trkpt lat="43.3876135" lon="12.9978447"><ele>929.0</ele><time>2026-04-19T09:54:46.259Z</time></trkpt><trkpt lat="43.3875141" lon="12.9978046"><ele>933.0</ele><time>2026-04-19T09:54:47.258Z</time></trkpt><trkpt lat="43.387394" lon="12.997795"><ele>933.0</ele><time>2026-04-19T09:54:48.259Z</time></trkpt><trkpt lat="43.3872671" lon="12.9978061"><ele>933.0</ele><time>2026-04-19T09:54:49.259Z</time></trkpt><trkpt lat="43.3871533" lon="12.9978125"><ele>933.0</ele><time>2026-04-19T09:54:50.258Z</time></trkpt><trkpt lat="43.3870287" lon="12.9978407"><ele>933.0</ele><time>2026-04-19T09:54:51.258Z</time></trkpt><trkpt lat="43.3869017" lon="12.9978564"><ele>936.6666666666667</ele><time>2026-04-19T09:54:52.259Z</time></trkpt><trkpt lat="43.3867334" lon="12.9978832"><ele>940.3333333333334</ele><time>2026-04-19T09:54:53.259Z</time></trkpt><trkpt lat="43.3865787" lon="12.9978994"><ele>944.0</ele><time>2026-04-19T09:54:54.259Z</time></trkpt><trkpt lat="43.3864321" lon="12.9979177"><ele>948.0</ele><time>2026-04-19T09:54:55.259Z</time></trkpt><trkpt lat="43.3862904" lon="12.9979324"><ele>952.0</ele><time>2026-04-19T09:54:56.257Z</time></trkpt><trkpt lat="43.3861578" lon="12.9979378"><ele>956.0</ele><time>2026-04-19T09:54:57.258Z</time></trkpt><trkpt lat="43.3860579" lon="12.9979495"><ele>960.0</ele><time>2026-04-19T09:54:58.258Z</time></trkpt><trkpt lat="43.3859696" lon="12.9979618"><ele>960.0</ele><time>2026-04-19T09:54:59.259Z</time></trkpt><trkpt lat="43.3858815" lon="12.9979816"><ele>960.0</ele><time>2026-04-19T09:55:00.259Z</time></trkpt><trkpt lat="43.385798" lon="12.9980073"><ele>960.0</ele><time>2026-04-19T09:55:01.259Z</time></trkpt><trkpt lat="43.3857149" lon="12.9980658"><ele>960.0</ele><time>2026-04-19T09:55:02.259Z</time></trkpt><trkpt lat="43.3856204" lon="12.9981277"><ele>960.0</ele><time>2026-04-19T09:55:03.259Z</time></trkpt><trkpt lat="43.3855516" lon="12.9981832"><ele>962.8333333333334</ele><time>2026-04-19T09:55:04.259Z</time></trkpt><trkpt lat="43.3854892" lon="12.99821"><ele>965.6666666666667</ele><time>2026-04-19T09:55:05.258Z</time></trkpt><trkpt lat="43.3853673" lon="12.9981979"><ele>968.5</ele><time>2026-04-19T09:55:07.258Z</time></trkpt><trkpt lat="43.3853046" lon="12.9981795"><ele>971.3333333333334</ele><time>2026-04-19T09:55:08.259Z</time></trkpt><trkpt lat="43.3852398" lon="12.9981645"><ele>974.1666666666667</ele><time>2026-04-19T09:55:09.259Z</time></trkpt><trkpt lat="43.3851649" lon="12.9981486"><ele>977.0</ele><time>2026-04-19T09:55:10.259Z</time></trkpt><trkpt lat="43.3850625" lon="12.9980555"><ele>977.0000000000001</ele><time>2026-04-19T09:55:12.259Z</time></trkpt><trkpt lat="43.385016" lon="12.9979968"><ele>977.0</ele><time>2026-04-19T09:55:13.258Z</time></trkpt><trkpt lat="43.3849048" lon="12.9979259"><ele>977.0</ele><time>2026-04-19T09:55:15.258Z</time></trkpt><trkpt lat="43.3847871" lon="12.9979327"><ele>977.0</ele><time>2026-04-19T09:55:17.258Z</time></trkpt><trkpt lat="43.3847227" lon="12.997968"><ele>977.0000000000001</ele><time>2026-04-19T09:55:18.258Z</time></trkpt><trkpt lat="43.3846518" lon="12.9980079"><ele>977.0</ele><time>2026-04-19T09:55:19.258Z</time></trkpt><trkpt lat="43.3845832" lon="12.9980248"><ele>975.8</ele><time>2026-04-19T09:55:20.259Z</time></trkpt><trkpt lat="43.384511" lon="12.9980417"><ele>974.6</ele><time>2026-04-19T09:55:21.258Z</time></trkpt><trkpt lat="43.3843971" lon="12.9980264"><ele>973.3999999999999</ele><time>2026-04-19T09:55:22.258Z</time></trkpt><trkpt lat="43.3843154" lon="12.9980297"><ele>972.1999999999999</ele><time>2026-04-19T09:55:23.259Z</time></trkpt><trkpt lat="43.3842239" lon="12.9980385"><ele>971.0</ele><time>2026-04-19T09:55:24.258Z</time></trkpt><trkpt lat="43.3840986" lon="12.9980579"><ele>971.0</ele><time>2026-04-19T09:55:25.259Z</time></trkpt><trkpt lat="43.3840017" lon="12.9980762"><ele>970.9999999999999</ele><time>2026-04-19T09:55:26.258Z</time></trkpt><trkpt lat="43.3839127" lon="12.9980877"><ele>970.9999999999999</ele><time>2026-04-19T09:55:27.259Z</time></trkpt><trkpt lat="43.3838202" lon="12.9980921"><ele>971.0</ele><time>2026-04-19T09:55:28.259Z</time></trkpt><trkpt lat="43.3837184" lon="12.9981084"><ele>971.0</ele><time>2026-04-19T09:55:29.259Z</time></trkpt><trkpt lat="43.3835999" lon="12.9981108"><ele>971.5999999999999</ele><time>2026-04-19T09:55:30.259Z</time></trkpt><trkpt lat="43.3834987" lon="12.9981193"><ele>972.1999999999999</ele><time>2026-04-19T09:55:31.259Z</time></trkpt><trkpt lat="43.3833968" lon="12.9981312"><ele>972.8000000000001</ele><time>2026-04-19T09:55:32.259Z</time></trkpt><trkpt lat="43.3832941" lon="12.9981479"><ele>973.4000000000001</ele><time>2026-04-19T09:55:33.259Z</time></trkpt><trkpt lat="43.3831921" lon="12.9981627"><ele>974.0</ele><time>2026-04-19T09:55:34.259Z</time></trkpt><trkpt lat="43.3830949" lon="12.9981793"><ele>974.2</ele><time>2026-04-19T09:55:35.258Z</time></trkpt><trkpt lat="43.3829904" lon="12.9981964"><ele>974.4000000000001</ele><time>2026-04-19T09:55:36.258Z</time></trkpt><trkpt lat="43.3828968" lon="12.9982002"><ele>974.6</ele><time>2026-04-19T09:55:37.258Z</time></trkpt><trkpt lat="43.382813" lon="12.9982168"><ele>974.8</ele><time>2026-04-19T09:55:38.259Z</time></trkpt><trkpt lat="43.3827176" lon="12.998234"><ele>975.0</ele><time>2026-04-19T09:55:39.259Z</time></trkpt><trkpt lat="43.3826428" lon="12.9982294"><ele>975.0</ele><time>2026-04-19T09:55:40.259Z</time></trkpt><trkpt lat="43.3825574" lon="12.9982138"><ele>975.0</ele><time>2026-04-19T09:55:41.257Z</time></trkpt><trkpt lat="43.3824798" lon="12.9982141"><ele>975.0</ele><time>2026-04-19T09:55:42.259Z</time></trkpt><trkpt lat="43.3823877" lon="12.9982247"><ele>975.0</ele><time>2026-04-19T09:55:43.259Z</time></trkpt><trkpt lat="43.3822938" lon="12.9982379"><ele>975.0</ele><time>2026-04-19T09:55:44.258Z</time></trkpt><trkpt lat="43.382192" lon="12.9982539"><ele>974.8</ele><time>2026-04-19T09:55:45.259Z</time></trkpt><trkpt lat="43.3820963" lon="12.9982658"><ele>974.6</ele><time>2026-04-19T09:55:46.259Z</time></trkpt><trkpt lat="43.3820045" lon="12.9982778"><ele>974.4000000000001</ele><time>2026-04-19T09:55:47.259Z</time></trkpt><trkpt lat="43.3819128" lon="12.998282"><ele>974.2</ele><time>2026-04-19T09:55:48.259Z</time></trkpt><trkpt lat="43.3818155" lon="12.9982922"><ele>974.0</ele><time>2026-04-19T09:55:49.258Z</time></trkpt><trkpt lat="43.3817092" lon="12.9983255"><ele>976.4000000000001</ele><time>2026-04-19T09:55:50.259Z</time></trkpt><trkpt lat="43.3816053" lon="12.9983681"><ele>978.8000000000001</ele><time>2026-04-19T09:55:51.258Z</time></trkpt><trkpt lat="43.3815009" lon="12.9984157"><ele>981.1999999999999</ele><time>2026-04-19T09:55:52.258Z</time></trkpt><trkpt lat="43.3814013" lon="12.99846"><ele>983.5999999999999</ele><time>2026-04-19T09:55:53.259Z</time></trkpt><trkpt lat="43.3812892" lon="12.9985309"><ele>986.0</ele><time>2026-04-19T09:55:54.258Z</time></trkpt><trkpt lat="43.3811809" lon="12.99858"><ele>986.0</ele><time>2026-04-19T09:55:55.259Z</time></trkpt><trkpt lat="43.3810729" lon="12.9986093"><ele>985.9999999999999</ele><time>2026-04-19T09:55:56.259Z</time></trkpt><trkpt lat="43.3809705" lon="12.9986429"><ele>985.9999999999999</ele><time>2026-04-19T09:55:57.259Z</time></trkpt><trkpt lat="43.3808691" lon="12.9986608"><ele>986.0</ele><time>2026-04-19T09:55:58.259Z</time></trkpt><trkpt lat="43.3807805" lon="12.9986694"><ele>986.0</ele><time>2026-04-19T09:55:59.259Z</time></trkpt><trkpt lat="43.380708" lon="12.9986797"><ele>986.0000000000001</ele><time>2026-04-19T09:56:00.257Z</time></trkpt><trkpt lat="43.3806016" lon="12.9987278"><ele>986.0</ele><time>2026-04-19T09:56:02.259Z</time></trkpt><trkpt lat="43.3805589" lon="12.9987949"><ele>986.0</ele><time>2026-04-19T09:56:03.258Z</time></trkpt><trkpt lat="43.3805127" lon="12.9988905"><ele>986.0</ele><time>2026-04-19T09:56:04.259Z</time></trkpt><trkpt lat="43.3804855" lon="12.9989859"><ele>986.0000000000001</ele><time>2026-04-19T09:56:05.258Z</time></trkpt><trkpt lat="43.3804748" lon="12.9990902"><ele>986.0</ele><time>2026-04-19T09:56:06.259Z</time></trkpt><trkpt lat="43.3804759" lon="12.9992128"><ele>986.3333333333334</ele><time>2026-04-19T09:56:07.258Z</time></trkpt><trkpt lat="43.3804846" lon="12.9993432"><ele>986.6666666666667</ele><time>2026-04-19T09:56:08.259Z</time></trkpt><trkpt lat="43.3804916" lon="12.9994602"><ele>987.0</ele><time>2026-04-19T09:56:09.258Z</time></trkpt><trkpt lat="43.3804995" lon="12.9995832"><ele>987.3333333333333</ele><time>2026-04-19T09:56:10.258Z</time></trkpt><trkpt lat="43.3805113" lon="12.9996868"><ele>987.6666666666666</ele><time>2026-04-19T09:56:11.258Z</time></trkpt><trkpt lat="43.3805343" lon="12.9997965"><ele>988.0</ele><time>2026-04-19T09:56:12.259Z</time></trkpt><trkpt lat="43.3805655" lon="12.9999151"><ele>988.0</ele><time>2026-04-19T09:56:13.259Z</time></trkpt><trkpt lat="43.3806017" lon="13.0000485"><ele>988.0</ele><time>2026-04-19T09:56:14.257Z</time></trkpt><trkpt lat="43.380646" lon="13.0001907"><ele>988.0</ele><time>2026-04-19T09:56:15.259Z</time></trkpt><trkpt lat="43.3806857" lon="13.000322"><ele>988.0</ele><time>2026-04-19T09:56:16.259Z</time></trkpt><trkpt lat="43.3807262" lon="13.0004654"><ele>988.0</ele><time>2026-04-19T09:56:17.259Z</time></trkpt><trkpt lat="43.380769" lon="13.0006172"><ele>988.0</ele><time>2026-04-19T09:56:18.259Z</time></trkpt><trkpt lat="43.3808091" lon="13.0007676"><ele>988.0</ele><time>2026-04-19T09:56:19.259Z</time></trkpt><trkpt lat="43.3808486" lon="13.0009122"><ele>988.0</ele><time>2026-04-19T09:56:20.258Z</time></trkpt><trkpt lat="43.3808826" lon="13.0010431"><ele>988.0</ele><time>2026-04-19T09:56:21.258Z</time></trkpt><trkpt lat="43.380915" lon="13.0011678"><ele>988.0</ele><time>2026-04-19T09:56:22.259Z</time></trkpt><trkpt lat="43.3809439" lon="13.0012883"><ele>987.2</ele><time>2026-04-19T09:56:23.258Z</time></trkpt><trkpt lat="43.3809718" lon="13.0014047"><ele>986.4</ele><time>2026-04-19T09:56:24.257Z</time></trkpt><trkpt lat="43.3810009" lon="13.0015385"><ele>985.6000000000001</ele><time>2026-04-19T09:56:25.259Z</time></trkpt><trkpt lat="43.381032" lon="13.0016779"><ele>984.8000000000001</ele><time>2026-04-19T09:56:26.259Z</time></trkpt><trkpt lat="43.3810671" lon="13.0018247"><ele>984.0</ele><time>2026-04-19T09:56:27.259Z</time></trkpt><trkpt lat="43.3811005" lon="13.0019588"><ele>982.25</ele><time>2026-04-19T09:56:28.258Z</time></trkpt><trkpt lat="43.3811357" lon="13.0020872"><ele>980.5</ele><time>2026-04-19T09:56:29.257Z</time></trkpt><trkpt lat="43.3811726" lon="13.0022286"><ele>978.75</ele><time>2026-04-19T09:56:30.258Z</time></trkpt><trkpt lat="43.381205" lon="13.0023843"><ele>977.0</ele><time>2026-04-19T09:56:31.259Z</time></trkpt><trkpt lat="43.3812372" lon="13.0025574"><ele>976.25</ele><time>2026-04-19T09:56:32.259Z</time></trkpt><trkpt lat="43.3812594" lon="13.0027166"><ele>975.5</ele><time>2026-04-19T09:56:33.258Z</time></trkpt><trkpt lat="43.3812859" lon="13.0028795"><ele>974.75</ele><time>2026-04-19T09:56:34.259Z</time></trkpt><trkpt lat="43.3813094" lon="13.0030375"><ele>974.0</ele><time>2026-04-19T09:56:35.259Z</time></trkpt><trkpt lat="43.3813238" lon="13.0031879"><ele>979.6</ele><time>2026-04-19T09:56:36.259Z</time></trkpt><trkpt lat="43.3813495" lon="13.0033371"><ele>985.2</ele><time>2026-04-19T09:56:37.259Z</time></trkpt><trkpt lat="43.3813704" lon="13.0034856"><ele>990.8000000000001</ele><time>2026-04-19T09:56:38.258Z</time></trkpt><trkpt lat="43.3813876" lon="13.0036201"><ele>996.4000000000001</ele><time>2026-04-19T09:56:39.259Z</time></trkpt><trkpt lat="43.3814121" lon="13.0037477"><ele>1002.0</ele><time>2026-04-19T09:56:40.258Z</time></trkpt><trkpt lat="43.3814332" lon="13.0038705"><ele>1002.0</ele><time>2026-04-19T09:56:41.258Z</time></trkpt><trkpt lat="43.3814757" lon="13.0040022"><ele>1002.0</ele><time>2026-04-19T09:56:42.258Z</time></trkpt><trkpt lat="43.3815" lon="13.0041409"><ele>1002.0</ele><time>2026-04-19T09:56:43.258Z</time></trkpt><trkpt lat="43.381527" lon="13.004303"><ele>1002.0</ele><time>2026-04-19T09:56:44.259Z</time></trkpt><trkpt lat="43.3815571" lon="13.0044333"><ele>1002.0</ele><time>2026-04-19T09:56:45.259Z</time></trkpt><trkpt lat="43.3815923" lon="13.0045697"><ele>1001.25</ele><time>2026-04-19T09:56:46.259Z</time></trkpt><trkpt lat="43.3816301" lon="13.0047128"><ele>1000.5</ele><time>2026-04-19T09:56:47.258Z</time></trkpt><trkpt lat="43.3816564" lon="13.0048843"><ele>999.75</ele><time>2026-04-19T09:56:48.259Z</time></trkpt><trkpt lat="43.3816941" lon="13.0050356"><ele>999.0</ele><time>2026-04-19T09:56:49.259Z</time></trkpt><trkpt lat="43.3817232" lon="13.0051847"><ele>997.75</ele><time>2026-04-19T09:56:50.259Z</time></trkpt><trkpt lat="43.3817577" lon="13.0053409"><ele>996.5</ele><time>2026-04-19T09:56:51.258Z</time></trkpt><trkpt lat="43.38179" lon="13.0054918"><ele>995.25</ele><time>2026-04-19T09:56:52.259Z</time></trkpt><trkpt lat="43.3818151" lon="13.0056435"><ele>994.0</ele><time>2026-04-19T09:56:53.258Z</time></trkpt><trkpt lat="43.3818504" lon="13.0057893"><ele>993.25</ele><time>2026-04-19T09:56:54.259Z</time></trkpt><trkpt lat="43.3818872" lon="13.0059502"><ele>992.5</ele><time>2026-04-19T09:56:55.259Z</time></trkpt><trkpt lat="43.3819142" lon="13.0060962"><ele>991.75</ele><time>2026-04-19T09:56:56.258Z</time></trkpt><trkpt lat="43.3819433" lon="13.0062434"><ele>991.0</ele><time>2026-04-19T09:56:57.258Z</time></trkpt><trkpt lat="43.3819728" lon="13.0064073"><ele>991.0</ele><time>2026-04-19T09:56:58.259Z</time></trkpt><trkpt lat="43.3819933" lon="13.0065831"><ele>991.0</ele><time>2026-04-19T09:56:59.259Z</time></trkpt><trkpt lat="43.3819973" lon="13.0067606"><ele>991.0</ele><time>2026-04-19T09:57:00.258Z</time></trkpt><trkpt lat="43.3820052" lon="13.0069225"><ele>991.0</ele><time>2026-04-19T09:57:01.258Z</time></trkpt><trkpt lat="43.3820087" lon="13.007065"><ele>991.0</ele><time>2026-04-19T09:57:02.258Z</time></trkpt><trkpt lat="43.3820107" lon="13.0071963"><ele>990.9999999999999</ele><time>2026-04-19T09:57:03.258Z</time></trkpt><trkpt lat="43.3820135" lon="13.0072953"><ele>990.9999999999999</ele><time>2026-04-19T09:57:04.257Z</time></trkpt><trkpt lat="43.3820444" lon="13.0074625"><ele>991.0</ele><time>2026-04-19T09:57:06.259Z</time></trkpt><trkpt lat="43.382071" lon="13.0075717"><ele>991.0</ele><time>2026-04-19T09:57:07.259Z</time></trkpt><trkpt lat="43.3820965" lon="13.0076682"><ele>992.0</ele><time>2026-04-19T09:57:08.259Z</time></trkpt><trkpt lat="43.3821331" lon="13.0077795"><ele>992.9999999999999</ele><time>2026-04-19T09:57:09.258Z</time></trkpt><trkpt lat="43.382172" lon="13.0078931"><ele>993.9999999999999</ele><time>2026-04-19T09:57:10.258Z</time></trkpt><trkpt lat="43.3822325" lon="13.0080396"><ele>995.0</ele><time>2026-04-19T09:57:11.258Z</time></trkpt><trkpt lat="43.3822838" lon="13.0081789"><ele>996.0</ele><time>2026-04-19T09:57:12.259Z</time></trkpt><trkpt lat="43.3823274" lon="13.008293"><ele>998.0</ele><time>2026-04-19T09:57:13.259Z</time></trkpt><trkpt lat="43.3823646" lon="13.0083906"><ele>999.9999999999999</ele><time>2026-04-19T09:57:14.259Z</time></trkpt><trkpt lat="43.3823873" lon="13.0085118"><ele>1001.9999999999999</ele><time>2026-04-19T09:57:16.258Z</time></trkpt><trkpt lat="43.3823249" lon="13.0085724"><ele>1004.0</ele><time>2026-04-19T09:57:18.259Z</time></trkpt><trkpt lat="43.3822064" lon="13.0085737"><ele>1006.0</ele><time>2026-04-19T09:57:20.259Z</time></trkpt><trkpt lat="43.3820782" lon="13.0085781"><ele>1006.4</ele><time>2026-04-19T09:57:21.258Z</time></trkpt><trkpt lat="43.3819866" lon="13.0085695"><ele>1006.8</ele><time>2026-04-19T09:57:22.259Z</time></trkpt><trkpt lat="43.381904" lon="13.0085555"><ele>1007.1999999999999</ele><time>2026-04-19T09:57:23.258Z</time></trkpt><trkpt lat="43.381823" lon="13.0085415"><ele>1007.5999999999999</ele><time>2026-04-19T09:57:24.259Z</time></trkpt><trkpt lat="43.3817169" lon="13.008491"><ele>1008.0</ele><time>2026-04-19T09:57:25.257Z</time></trkpt><trkpt lat="43.3816141" lon="13.0084387"><ele>1008.0</ele><time>2026-04-19T09:57:26.259Z</time></trkpt><trkpt lat="43.381514" lon="13.0083465"><ele>1008.0</ele><time>2026-04-19T09:57:27.259Z</time></trkpt><trkpt lat="43.3814125" lon="13.0082628"><ele>1008.0</ele><time>2026-04-19T09:57:28.259Z</time></trkpt><trkpt lat="43.3812931" lon="13.0081772"><ele>1008.0</ele><time>2026-04-19T09:57:29.259Z</time></trkpt><trkpt lat="43.3811996" lon="13.0080829"><ele>1007.75</ele><time>2026-04-19T09:57:30.258Z</time></trkpt><trkpt lat="43.3811037" lon="13.0079947"><ele>1007.5</ele><time>2026-04-19T09:57:31.259Z</time></trkpt><trkpt lat="43.381009" lon="13.0078941"><ele>1007.25</ele><time>2026-04-19T09:57:32.259Z</time></trkpt><trkpt lat="43.3809106" lon="13.0078069"><ele>1007.0</ele><time>2026-04-19T09:57:33.258Z</time></trkpt><trkpt lat="43.3808184" lon="13.0077159"><ele>1007.0</ele><time>2026-04-19T09:57:34.258Z</time></trkpt><trkpt lat="43.3807269" lon="13.0076284"><ele>1007.0</ele><time>2026-04-19T09:57:35.259Z</time></trkpt><trkpt lat="43.3806317" lon="13.0075357"><ele>1007.0</ele><time>2026-04-19T09:57:36.259Z</time></trkpt><trkpt lat="43.3805463" lon="13.0074621"><ele>1007.0</ele><time>2026-04-19T09:57:37.259Z</time></trkpt><trkpt lat="43.3804653" lon="13.0074086"><ele>1007.0</ele><time>2026-04-19T09:57:38.259Z</time></trkpt><trkpt lat="43.3803971" lon="13.0073506"><ele>1005.6666666666667</ele><time>2026-04-19T09:57:39.258Z</time></trkpt><trkpt lat="43.3803438" lon="13.0072931"><ele>1004.3333333333334</ele><time>2026-04-19T09:57:40.259Z</time></trkpt><trkpt lat="43.3802835" lon="13.0072467"><ele>1003.0</ele><time>2026-04-19T09:57:41.259Z</time></trkpt><trkpt lat="43.3802045" lon="13.0072122"><ele>1001.6666666666667</ele><time>2026-04-19T09:57:42.259Z</time></trkpt><trkpt lat="43.3801254" lon="13.0071894"><ele>1000.3333333333334</ele><time>2026-04-19T09:57:43.258Z</time></trkpt><trkpt lat="43.3800453" lon="13.0071845"><ele>999.0</ele><time>2026-04-19T09:57:44.258Z</time></trkpt><trkpt lat="43.3799632" lon="13.0071998"><ele>999.0</ele><time>2026-04-19T09:57:45.258Z</time></trkpt><trkpt lat="43.3798852" lon="13.0072183"><ele>999.0</ele><time>2026-04-19T09:57:46.258Z</time></trkpt><trkpt lat="43.3798171" lon="13.0072479"><ele>999.0</ele><time>2026-04-19T09:57:47.259Z</time></trkpt><trkpt lat="43.3797532" lon="13.0073148"><ele>999.0</ele><time>2026-04-19T09:57:48.259Z</time></trkpt><trkpt lat="43.3796973" lon="13.0073872"><ele>999.0</ele><time>2026-04-19T09:57:49.258Z</time></trkpt><trkpt lat="43.3796317" lon="13.0074746"><ele>999.0</ele><time>2026-04-19T09:57:50.259Z</time></trkpt><trkpt lat="43.3795545" lon="13.0075747"><ele>999.4000000000001</ele><time>2026-04-19T09:57:51.259Z</time></trkpt><trkpt lat="43.3794749" lon="13.0076775"><ele>999.8000000000001</ele><time>2026-04-19T09:57:52.259Z</time></trkpt><trkpt lat="43.37939" lon="13.0077806"><ele>1000.1999999999999</ele><time>2026-04-19T09:57:53.258Z</time></trkpt><trkpt lat="43.3793029" lon="13.007883"><ele>1000.5999999999999</ele><time>2026-04-19T09:57:54.259Z</time></trkpt><trkpt lat="43.379215" lon="13.0079745"><ele>1001.0</ele><time>2026-04-19T09:57:55.257Z</time></trkpt><trkpt lat="43.3791285" lon="13.0080723"><ele>1001.0</ele><time>2026-04-19T09:57:56.259Z</time></trkpt><trkpt lat="43.3790494" lon="13.0081607"><ele>1000.9999999999999</ele><time>2026-04-19T09:57:57.258Z</time></trkpt><trkpt lat="43.3789744" lon="13.0082605"><ele>1000.9999999999999</ele><time>2026-04-19T09:57:58.258Z</time></trkpt><trkpt lat="43.3789002" lon="13.0083506"><ele>1001.0</ele><time>2026-04-19T09:57:59.258Z</time></trkpt><trkpt lat="43.3788244" lon="13.008444"><ele>1001.0</ele><time>2026-04-19T09:58:00.257Z</time></trkpt><trkpt lat="43.3787352" lon="13.0085321"><ele>1001.4</ele><time>2026-04-19T09:58:01.257Z</time></trkpt><trkpt lat="43.3786533" lon="13.0085999"><ele>1001.8</ele><time>2026-04-19T09:58:02.257Z</time></trkpt><trkpt lat="43.378569" lon="13.0086371"><ele>1002.1999999999999</ele><time>2026-04-19T09:58:03.258Z</time></trkpt><trkpt lat="43.3784842" lon="13.0086491"><ele>1002.5999999999999</ele><time>2026-04-19T09:58:04.258Z</time></trkpt><trkpt lat="43.3783963" lon="13.0086372"><ele>1003.0</ele><time>2026-04-19T09:58:05.256Z</time></trkpt><trkpt lat="43.3782979" lon="13.0086137"><ele>1003.0</ele><time>2026-04-19T09:58:06.258Z</time></trkpt><trkpt lat="43.3781883" lon="13.0085701"><ele>1003.0</ele><time>2026-04-19T09:58:07.258Z</time></trkpt><trkpt lat="43.3780703" lon="13.0085081"><ele>1003.0</ele><time>2026-04-19T09:58:08.258Z</time></trkpt><trkpt lat="43.3779508" lon="13.0084619"><ele>1003.0</ele><time>2026-04-19T09:58:09.257Z</time></trkpt><trkpt lat="43.3778284" lon="13.0084132"><ele>1002.25</ele><time>2026-04-19T09:58:10.258Z</time></trkpt><trkpt lat="43.3777052" lon="13.008346"><ele>1001.5</ele><time>2026-04-19T09:58:11.258Z</time></trkpt><trkpt lat="43.3775681" lon="13.008296"><ele>1000.75</ele><time>2026-04-19T09:58:12.256Z</time></trkpt><trkpt lat="43.377429" lon="13.0082397"><ele>1000.0</ele><time>2026-04-19T09:58:13.258Z</time></trkpt><trkpt lat="43.3772732" lon="13.0081781"><ele>996.0</ele><time>2026-04-19T09:58:14.258Z</time></trkpt><trkpt lat="43.377125" lon="13.0081336"><ele>992.0</ele><time>2026-04-19T09:58:15.257Z</time></trkpt><trkpt lat="43.376982" lon="13.0080755"><ele>988.0</ele><time>2026-04-19T09:58:16.257Z</time></trkpt><trkpt lat="43.3768344" lon="13.0080203"><ele>988.0</ele><time>2026-04-19T09:58:17.257Z</time></trkpt><trkpt lat="43.3766763" lon="13.0079548"><ele>988.0</ele><time>2026-04-19T09:58:18.258Z</time></trkpt><trkpt lat="43.3765156" lon="13.0078935"><ele>988.0</ele><time>2026-04-19T09:58:19.257Z</time></trkpt><trkpt lat="43.3763641" lon="13.0078314"><ele>988.75</ele><time>2026-04-19T09:58:20.256Z</time></trkpt><trkpt lat="43.3762147" lon="13.0077725"><ele>989.5</ele><time>2026-04-19T09:58:21.257Z</time></trkpt><trkpt lat="43.3760782" lon="13.0077077"><ele>990.25</ele><time>2026-04-19T09:58:22.257Z</time></trkpt><trkpt lat="43.3759593" lon="13.0076508"><ele>991.0</ele><time>2026-04-19T09:58:23.257Z</time></trkpt><trkpt lat="43.3758494" lon="13.0075974"><ele>990.9999999999999</ele><time>2026-04-19T09:58:24.258Z</time></trkpt><trkpt lat="43.3757521" lon="13.0075569"><ele>991.0</ele><time>2026-04-19T09:58:25.258Z</time></trkpt><trkpt lat="43.3756719" lon="13.0075298"><ele>991.0</ele><time>2026-04-19T09:58:26.257Z</time></trkpt><trkpt lat="43.3755902" lon="13.0075294"><ele>991.0</ele><time>2026-04-19T09:58:27.258Z</time></trkpt><trkpt lat="43.3755175" lon="13.0075377"><ele>990.9999999999999</ele><time>2026-04-19T09:58:28.258Z</time></trkpt><trkpt lat="43.3754451" lon="13.0076444"><ele>991.0</ele><time>2026-04-19T09:58:30.258Z</time></trkpt><trkpt lat="43.3754541" lon="13.0078323"><ele>991.0</ele><time>2026-04-19T09:58:32.258Z</time></trkpt><trkpt lat="43.375474" lon="13.0079484"><ele>990.9999999999999</ele><time>2026-04-19T09:58:33.258Z</time></trkpt><trkpt lat="43.3754887" lon="13.0080654"><ele>990.9999999999999</ele><time>2026-04-19T09:58:34.258Z</time></trkpt><trkpt lat="43.3754987" lon="13.0081909"><ele>991.0</ele><time>2026-04-19T09:58:35.258Z</time></trkpt><trkpt lat="43.3755088" lon="13.0083287"><ele>991.0</ele><time>2026-04-19T09:58:36.258Z</time></trkpt><trkpt lat="43.3755232" lon="13.0084772"><ele>991.0</ele><time>2026-04-19T09:58:37.258Z</time></trkpt><trkpt lat="43.3755443" lon="13.0086293"><ele>991.0</ele><time>2026-04-19T09:58:38.258Z</time></trkpt><trkpt lat="43.3755755" lon="13.0087745"><ele>991.0</ele><time>2026-04-19T09:58:39.258Z</time></trkpt><trkpt lat="43.3756194" lon="13.0089238"><ele>991.0</ele><time>2026-04-19T09:58:40.258Z</time></trkpt><trkpt lat="43.3756669" lon="13.0090707"><ele>989.5</ele><time>2026-04-19T09:58:41.257Z</time></trkpt><trkpt lat="43.3757214" lon="13.0092144"><ele>988.0</ele><time>2026-04-19T09:58:42.257Z</time></trkpt><trkpt lat="43.3757785" lon="13.0093748"><ele>986.5</ele><time>2026-04-19T09:58:43.258Z</time></trkpt><trkpt lat="43.3758358" lon="13.0095422"><ele>985.0</ele><time>2026-04-19T09:58:44.258Z</time></trkpt><trkpt lat="43.3759003" lon="13.0097217"><ele>985.0</ele><time>2026-04-19T09:58:45.258Z</time></trkpt><trkpt lat="43.3759643" lon="13.0099014"><ele>985.0</ele><time>2026-04-19T09:58:46.256Z</time></trkpt><trkpt lat="43.3760303" lon="13.0100779"><ele>985.0</ele><time>2026-04-19T09:58:47.258Z</time></trkpt><trkpt lat="43.3760957" lon="13.0102614"><ele>985.0</ele><time>2026-04-19T09:58:48.257Z</time></trkpt><trkpt lat="43.376162" lon="13.0104455"><ele>984.25</ele><time>2026-04-19T09:58:49.257Z</time></trkpt><trkpt lat="43.3762199" lon="13.0106185"><ele>983.5</ele><time>2026-04-19T09:58:50.258Z</time></trkpt><trkpt lat="43.37628" lon="13.0107913"><ele>982.75</ele><time>2026-04-19T09:58:51.257Z</time></trkpt><trkpt lat="43.3763355" lon="13.0109528"><ele>982.0</ele><time>2026-04-19T09:58:52.258Z</time></trkpt><trkpt lat="43.3763869" lon="13.0111141"><ele>982.0</ele><time>2026-04-19T09:58:53.258Z</time></trkpt><trkpt lat="43.3764349" lon="13.0112636"><ele>982.0</ele><time>2026-04-19T09:58:54.257Z</time></trkpt><trkpt lat="43.3764708" lon="13.0114001"><ele>982.0</ele><time>2026-04-19T09:58:55.258Z</time></trkpt><trkpt lat="43.3764948" lon="13.0115365"><ele>982.0</ele><time>2026-04-19T09:58:56.258Z</time></trkpt><trkpt lat="43.3765048" lon="13.0116713"><ele>982.0</ele><time>2026-04-19T09:58:57.258Z</time></trkpt><trkpt lat="43.3764928" lon="13.0118161"><ele>980.8</ele><time>2026-04-19T09:58:58.258Z</time></trkpt><trkpt lat="43.376472" lon="13.0119689"><ele>979.6</ele><time>2026-04-19T09:58:59.258Z</time></trkpt><trkpt lat="43.3764489" lon="13.0121308"><ele>978.3999999999999</ele><time>2026-04-19T09:59:00.258Z</time></trkpt><trkpt lat="43.3764037" lon="13.0122656"><ele>977.1999999999999</ele><time>2026-04-19T09:59:01.258Z</time></trkpt><trkpt lat="43.3763813" lon="13.0123936"><ele>976.0</ele><time>2026-04-19T09:59:02.257Z</time></trkpt><trkpt lat="43.3763661" lon="13.0125017"><ele>973.4</ele><time>2026-04-19T09:59:03.257Z</time></trkpt><trkpt lat="43.3763528" lon="13.0126003"><ele>970.8</ele><time>2026-04-19T09:59:04.257Z</time></trkpt><trkpt lat="43.3763424" lon="13.0126913"><ele>968.1999999999999</ele><time>2026-04-19T09:59:05.258Z</time></trkpt><trkpt lat="43.3763155" lon="13.012847"><ele>965.5999999999999</ele><time>2026-04-19T09:59:07.258Z</time></trkpt><trkpt lat="43.3762894" lon="13.0129838"><ele>963.0</ele><time>2026-04-19T09:59:09.257Z</time></trkpt><trkpt lat="43.3762636" lon="13.013114"><ele>963.0</ele><time>2026-04-19T09:59:11.257Z</time></trkpt><trkpt lat="43.376248" lon="13.0132037"><ele>963.0</ele><time>2026-04-19T09:59:12.257Z</time></trkpt><trkpt lat="43.3762301" lon="13.013311"><ele>963.0</ele><time>2026-04-19T09:59:13.257Z</time></trkpt><trkpt lat="43.3762087" lon="13.013439"><ele>963.0</ele><time>2026-04-19T09:59:14.258Z</time></trkpt><trkpt lat="43.3761866" lon="13.0135977"><ele>963.0</ele><time>2026-04-19T09:59:15.258Z</time></trkpt><trkpt lat="43.3761602" lon="13.0137803"><ele>962.3333333333333</ele><time>2026-04-19T09:59:16.257Z</time></trkpt><trkpt lat="43.3761253" lon="13.0139812"><ele>961.6666666666666</ele><time>2026-04-19T09:59:17.257Z</time></trkpt><trkpt lat="43.3760903" lon="13.014209"><ele>961.0</ele><time>2026-04-19T09:59:18.258Z</time></trkpt><trkpt lat="43.3760505" lon="13.0144343"><ele>960.3333333333333</ele><time>2026-04-19T09:59:19.258Z</time></trkpt><trkpt lat="43.3760157" lon="13.0146499"><ele>959.6666666666667</ele><time>2026-04-19T09:59:20.256Z</time></trkpt><trkpt lat="43.3759855" lon="13.0148558"><ele>959.0</ele><time>2026-04-19T09:59:21.256Z</time></trkpt><trkpt lat="43.3759501" lon="13.0150479"><ele>958.6666666666667</ele><time>2026-04-19T09:59:22.257Z</time></trkpt><trkpt lat="43.3758876" lon="13.0152275"><ele>958.3333333333333</ele><time>2026-04-19T09:59:23.258Z</time></trkpt><trkpt lat="43.3758185" lon="13.0154159"><ele>958.0</ele><time>2026-04-19T09:59:24.257Z</time></trkpt><trkpt lat="43.375741" lon="13.0155987"><ele>958.0</ele><time>2026-04-19T09:59:25.257Z</time></trkpt><trkpt lat="43.3756662" lon="13.0157792"><ele>958.0</ele><time>2026-04-19T09:59:26.258Z</time></trkpt><trkpt lat="43.3755923" lon="13.0159514"><ele>958.0</ele><time>2026-04-19T09:59:27.257Z</time></trkpt><trkpt lat="43.3755254" lon="13.0161185"><ele>958.0</ele><time>2026-04-19T09:59:28.257Z</time></trkpt><trkpt lat="43.3754615" lon="13.0162837"><ele>955.0</ele><time>2026-04-19T09:59:29.257Z</time></trkpt><trkpt lat="43.375392" lon="13.0164494"><ele>952.0</ele><time>2026-04-19T09:59:30.258Z</time></trkpt><trkpt lat="43.3753266" lon="13.0166123"><ele>949.0</ele><time>2026-04-19T09:59:31.257Z</time></trkpt><trkpt lat="43.3752601" lon="13.0167745"><ele>946.0</ele><time>2026-04-19T09:59:32.257Z</time></trkpt><trkpt lat="43.3751996" lon="13.0169408"><ele>945.5999999999999</ele><time>2026-04-19T09:59:33.258Z</time></trkpt><trkpt lat="43.3751408" lon="13.0170923"><ele>945.1999999999999</ele><time>2026-04-19T09:59:34.257Z</time></trkpt><trkpt lat="43.3750822" lon="13.017209"><ele>944.8000000000001</ele><time>2026-04-19T09:59:35.257Z</time></trkpt><trkpt lat="43.3750373" lon="13.017297"><ele>944.4000000000001</ele><time>2026-04-19T09:59:36.258Z</time></trkpt><trkpt lat="43.3749872" lon="13.0174129"><ele>944.0</ele><time>2026-04-19T09:59:38.258Z</time></trkpt><trkpt lat="43.3749163" lon="13.0174387"><ele>944.0000000000001</ele><time>2026-04-19T09:59:40.257Z</time></trkpt><trkpt lat="43.374787" lon="13.0174265"><ele>944.0</ele><time>2026-04-19T09:59:42.258Z</time></trkpt><trkpt lat="43.3747081" lon="13.017454"><ele>944.0</ele><time>2026-04-19T09:59:43.257Z</time></trkpt><trkpt lat="43.3746438" lon="13.0174972"><ele>944.0</ele><time>2026-04-19T09:59:44.257Z</time></trkpt><trkpt lat="43.3745929" lon="13.0175684"><ele>944.0000000000001</ele><time>2026-04-19T09:59:45.257Z</time></trkpt><trkpt lat="43.3745543" lon="13.0176623"><ele>944.0</ele><time>2026-04-19T09:59:46.258Z</time></trkpt><trkpt lat="43.3745314" lon="13.017771"><ele>939.25</ele><time>2026-04-19T09:59:47.258Z</time></trkpt><trkpt lat="43.3745098" lon="13.0179191"><ele>934.5</ele><time>2026-04-19T09:59:48.257Z</time></trkpt><trkpt lat="43.3744905" lon="13.0181205"><ele>929.75</ele><time>2026-04-19T09:59:49.258Z</time></trkpt><trkpt lat="43.3744737" lon="13.0183206"><ele>925.0</ele><time>2026-04-19T09:59:50.258Z</time></trkpt><trkpt lat="43.3744621" lon="13.018499"><ele>925.0</ele><time>2026-04-19T09:59:51.257Z</time></trkpt><trkpt lat="43.3744495" lon="13.0186638"><ele>925.0</ele><time>2026-04-19T09:59:52.257Z</time></trkpt><trkpt lat="43.3744313" lon="13.0188116"><ele>925.0</ele><time>2026-04-19T09:59:53.257Z</time></trkpt><trkpt lat="43.3744042" lon="13.0189489"><ele>925.0</ele><time>2026-04-19T09:59:54.258Z</time></trkpt><trkpt lat="43.3743758" lon="13.0191004"><ele>925.0</ele><time>2026-04-19T09:59:55.257Z</time></trkpt><trkpt lat="43.3743514" lon="13.0192716"><ele>925.5</ele><time>2026-04-19T09:59:56.258Z</time></trkpt><trkpt lat="43.3743287" lon="13.0194507"><ele>926.0</ele><time>2026-04-19T09:59:57.257Z</time></trkpt><trkpt lat="43.3742963" lon="13.0196414"><ele>926.5</ele><time>2026-04-19T09:59:58.258Z</time></trkpt><trkpt lat="43.3742606" lon="13.0198251"><ele>927.0</ele><time>2026-04-19T09:59:59.258Z</time></trkpt><trkpt lat="43.3742277" lon="13.0199911"><ele>928.4000000000001</ele><time>2026-04-19T10:00:00.257Z</time></trkpt><trkpt lat="43.3741984" lon="13.0201337"><ele>929.8000000000001</ele><time>2026-04-19T10:00:01.258Z</time></trkpt><trkpt lat="43.3741688" lon="13.0202541"><ele>931.2</ele><time>2026-04-19T10:00:02.257Z</time></trkpt><trkpt lat="43.3741354" lon="13.0203703"><ele>932.6</ele><time>2026-04-19T10:00:03.258Z</time></trkpt><trkpt lat="43.3740837" lon="13.0204812"><ele>934.0</ele><time>2026-04-19T10:00:04.257Z</time></trkpt><trkpt lat="43.3740309" lon="13.0205703"><ele>933.9999999999999</ele><time>2026-04-19T10:00:05.257Z</time></trkpt><trkpt lat="43.3739704" lon="13.0206431"><ele>934.0</ele><time>2026-04-19T10:00:06.257Z</time></trkpt><trkpt lat="43.3739099" lon="13.0207076"><ele>934.0</ele><time>2026-04-19T10:00:07.258Z</time></trkpt><trkpt lat="43.3738486" lon="13.0207586"><ele>934.0</ele><time>2026-04-19T10:00:08.257Z</time></trkpt><trkpt lat="43.3737835" lon="13.0208054"><ele>933.9999999999999</ele><time>2026-04-19T10:00:09.257Z</time></trkpt><trkpt lat="43.3737133" lon="13.0208457"><ele>934.0</ele><time>2026-04-19T10:00:10.257Z</time></trkpt><trkpt lat="43.3736342" lon="13.0208883"><ele>933.8333333333333</ele><time>2026-04-19T10:00:11.257Z</time></trkpt><trkpt lat="43.3735607" lon="13.0209368"><ele>933.6666666666666</ele><time>2026-04-19T10:00:12.257Z</time></trkpt><trkpt lat="43.3734937" lon="13.0209926"><ele>933.5</ele><time>2026-04-19T10:00:13.258Z</time></trkpt><trkpt lat="43.3734204" lon="13.021044"><ele>933.3333333333333</ele><time>2026-04-19T10:00:14.258Z</time></trkpt><trkpt lat="43.3733437" lon="13.0210993"><ele>933.1666666666666</ele><time>2026-04-19T10:00:15.257Z</time></trkpt><trkpt lat="43.3732705" lon="13.0211582"><ele>933.0</ele><time>2026-04-19T10:00:16.258Z</time></trkpt><trkpt lat="43.3731969" lon="13.0212204"><ele>933.0</ele><time>2026-04-19T10:00:17.258Z</time></trkpt><trkpt lat="43.3731146" lon="13.0212753"><ele>933.0</ele><time>2026-04-19T10:00:18.258Z</time></trkpt><trkpt lat="43.3730309" lon="13.0213348"><ele>933.0</ele><time>2026-04-19T10:00:19.258Z</time></trkpt><trkpt lat="43.3729464" lon="13.0214082"><ele>933.0</ele><time>2026-04-19T10:00:20.258Z</time></trkpt><trkpt lat="43.3728687" lon="13.021471"><ele>933.0</ele><time>2026-04-19T10:00:21.258Z</time></trkpt><trkpt lat="43.3727989" lon="13.0215302"><ele>933.8</ele><time>2026-04-19T10:00:22.258Z</time></trkpt><trkpt lat="43.3727195" lon="13.0216009"><ele>934.5999999999999</ele><time>2026-04-19T10:00:23.258Z</time></trkpt><trkpt lat="43.3726376" lon="13.0216748"><ele>935.4000000000001</ele><time>2026-04-19T10:00:24.257Z</time></trkpt><trkpt lat="43.3725533" lon="13.021756"><ele>936.2</ele><time>2026-04-19T10:00:25.257Z</time></trkpt><trkpt lat="43.3724709" lon="13.0218327"><ele>937.0</ele><time>2026-04-19T10:00:26.257Z</time></trkpt><trkpt lat="43.3724041" lon="13.0218876"><ele>938.1666666666666</ele><time>2026-04-19T10:00:27.257Z</time></trkpt><trkpt lat="43.3723393" lon="13.0219466"><ele>939.3333333333333</ele><time>2026-04-19T10:00:28.257Z</time></trkpt><trkpt lat="43.3722855" lon="13.0220062"><ele>940.5</ele><time>2026-04-19T10:00:29.257Z</time></trkpt><trkpt lat="43.3722216" lon="13.0220674"><ele>941.6666666666667</ele><time>2026-04-19T10:00:30.258Z</time></trkpt><trkpt lat="43.3721405" lon="13.0221274"><ele>942.8333333333334</ele><time>2026-04-19T10:00:31.257Z</time></trkpt><trkpt lat="43.3720606" lon="13.022209"><ele>944.0</ele><time>2026-04-19T10:00:32.257Z</time></trkpt><trkpt lat="43.3719905" lon="13.0222966"><ele>944.8333333333334</ele><time>2026-04-19T10:00:33.258Z</time></trkpt><trkpt lat="43.3719323" lon="13.0223751"><ele>945.6666666666667</ele><time>2026-04-19T10:00:34.258Z</time></trkpt><trkpt lat="43.3718688" lon="13.0224651"><ele>946.5</ele><time>2026-04-19T10:00:35.258Z</time></trkpt><trkpt lat="43.3718051" lon="13.0225529"><ele>947.3333333333333</ele><time>2026-04-19T10:00:36.258Z</time></trkpt><trkpt lat="43.3717566" lon="13.0226207"><ele>948.1666666666666</ele><time>2026-04-19T10:00:37.256Z</time></trkpt><trkpt lat="43.3717118" lon="13.0227106"><ele>949.0</ele><time>2026-04-19T10:00:38.258Z</time></trkpt><trkpt lat="43.3716652" lon="13.0228005"><ele>949.4999999999999</ele><time>2026-04-19T10:00:39.257Z</time></trkpt><trkpt lat="43.3716047" lon="13.0228867"><ele>950.0</ele><time>2026-04-19T10:00:40.257Z</time></trkpt><trkpt lat="43.3715353" lon="13.0229653"><ele>950.5</ele><time>2026-04-19T10:00:41.257Z</time></trkpt><trkpt lat="43.3714582" lon="13.0230365"><ele>951.0</ele><time>2026-04-19T10:00:42.258Z</time></trkpt><trkpt lat="43.3713719" lon="13.0230988"><ele>951.4999999999999</ele><time>2026-04-19T10:00:43.258Z</time></trkpt><trkpt lat="43.3712959" lon="13.0231386"><ele>952.0</ele><time>2026-04-19T10:00:44.257Z</time></trkpt><trkpt lat="43.3712231" lon="13.0231666"><ele>953.2</ele><time>2026-04-19T10:00:45.257Z</time></trkpt><trkpt lat="43.3711435" lon="13.0231849"><ele>954.4000000000001</ele><time>2026-04-19T10:00:46.256Z</time></trkpt><trkpt lat="43.37105" lon="13.0231998"><ele>955.5999999999999</ele><time>2026-04-19T10:00:47.258Z</time></trkpt><trkpt lat="43.3709546" lon="13.0232211"><ele>956.8</ele><time>2026-04-19T10:00:48.258Z</time></trkpt><trkpt lat="43.370853" lon="13.0232524"><ele>958.0</ele><time>2026-04-19T10:00:49.257Z</time></trkpt><trkpt lat="43.3707653" lon="13.0232847"><ele>957.9999999999999</ele><time>2026-04-19T10:00:50.258Z</time></trkpt><trkpt lat="43.3706813" lon="13.0233121"><ele>958.0</ele><time>2026-04-19T10:00:51.258Z</time></trkpt><trkpt lat="43.3706026" lon="13.0233332"><ele>958.0</ele><time>2026-04-19T10:00:52.257Z</time></trkpt><trkpt lat="43.370529" lon="13.0233509"><ele>958.0</ele><time>2026-04-19T10:00:53.257Z</time></trkpt><trkpt lat="43.3704495" lon="13.0233745"><ele>957.9999999999999</ele><time>2026-04-19T10:00:54.258Z</time></trkpt><trkpt lat="43.3703552" lon="13.0233983"><ele>958.0</ele><time>2026-04-19T10:00:55.257Z</time></trkpt><trkpt lat="43.3702529" lon="13.0234193"><ele>957.0</ele><time>2026-04-19T10:00:56.257Z</time></trkpt><trkpt lat="43.3701654" lon="13.0234447"><ele>956.0</ele><time>2026-04-19T10:00:57.258Z</time></trkpt><trkpt lat="43.3700784" lon="13.0234733"><ele>955.0</ele><time>2026-04-19T10:00:58.258Z</time></trkpt><trkpt lat="43.3699929" lon="13.0235127"><ele>954.0</ele><time>2026-04-19T10:00:59.257Z</time></trkpt><trkpt lat="43.369902" lon="13.0235536"><ele>953.0</ele><time>2026-04-19T10:01:00.258Z</time></trkpt><trkpt lat="43.3698112" lon="13.0236076"><ele>953.0000000000001</ele><time>2026-04-19T10:01:01.257Z</time></trkpt><trkpt lat="43.3697227" lon="13.0236599"><ele>953.0</ele><time>2026-04-19T10:01:02.258Z</time></trkpt><trkpt lat="43.3696371" lon="13.0237106"><ele>953.0</ele><time>2026-04-19T10:01:03.257Z</time></trkpt><trkpt lat="43.3695595" lon="13.0237547"><ele>953.0</ele><time>2026-04-19T10:01:04.258Z</time></trkpt><trkpt lat="43.3694926" lon="13.0237892"><ele>953.0000000000001</ele><time>2026-04-19T10:01:05.258Z</time></trkpt><trkpt lat="43.3694284" lon="13.0238277"><ele>953.0</ele><time>2026-04-19T10:01:06.257Z</time></trkpt><trkpt lat="43.3693373" lon="13.0238904"><ele>953.4</ele><time>2026-04-19T10:01:08.257Z</time></trkpt><trkpt lat="43.3692679" lon="13.0239416"><ele>953.8</ele><time>2026-04-19T10:01:10.257Z</time></trkpt><trkpt lat="43.3691739" lon="13.0240202"><ele>954.2</ele><time>2026-04-19T10:01:12.257Z</time></trkpt><trkpt lat="43.3690661" lon="13.0240849"><ele>954.6</ele><time>2026-04-19T10:01:14.257Z</time></trkpt><trkpt lat="43.3690008" lon="13.0241454"><ele>955.0</ele><time>2026-04-19T10:01:15.258Z</time></trkpt><trkpt lat="43.3689285" lon="13.0242141"><ele>953.9999999999999</ele><time>2026-04-19T10:01:16.258Z</time></trkpt><trkpt lat="43.3688482" lon="13.024293"><ele>953.0</ele><time>2026-04-19T10:01:17.258Z</time></trkpt><trkpt lat="43.3687724" lon="13.0243657"><ele>952.0</ele><time>2026-04-19T10:01:18.257Z</time></trkpt><trkpt lat="43.368702" lon="13.0244412"><ele>951.0</ele><time>2026-04-19T10:01:19.258Z</time></trkpt><trkpt lat="43.3686357" lon="13.0245104"><ele>949.9999999999999</ele><time>2026-04-19T10:01:20.257Z</time></trkpt><trkpt lat="43.3685689" lon="13.0245776"><ele>949.0</ele><time>2026-04-19T10:01:21.257Z</time></trkpt><trkpt lat="43.3684977" lon="13.0246562"><ele>949.0</ele><time>2026-04-19T10:01:22.258Z</time></trkpt><trkpt lat="43.3684262" lon="13.0247358"><ele>949.0000000000001</ele><time>2026-04-19T10:01:23.257Z</time></trkpt><trkpt lat="43.3683527" lon="13.024822"><ele>949.0000000000001</ele><time>2026-04-19T10:01:24.258Z</time></trkpt><trkpt lat="43.3682816" lon="13.0249054"><ele>949.0</ele><time>2026-04-19T10:01:25.258Z</time></trkpt><trkpt lat="43.3682119" lon="13.0249739"><ele>949.0</ele><time>2026-04-19T10:01:26.257Z</time></trkpt><trkpt lat="43.3681439" lon="13.0250372"><ele>947.4000000000001</ele><time>2026-04-19T10:01:27.258Z</time></trkpt><trkpt lat="43.3680745" lon="13.0251097"><ele>945.8000000000001</ele><time>2026-04-19T10:01:28.257Z</time></trkpt><trkpt lat="43.3679998" lon="13.0251794"><ele>944.1999999999999</ele><time>2026-04-19T10:01:29.258Z</time></trkpt><trkpt lat="43.3679268" lon="13.0252355"><ele>942.5999999999999</ele><time>2026-04-19T10:01:30.258Z</time></trkpt><trkpt lat="43.3678648" lon="13.0252851"><ele>941.0</ele><time>2026-04-19T10:01:31.258Z</time></trkpt><trkpt lat="43.3677673" lon="13.0253773"><ele>940.9999999999999</ele><time>2026-04-19T10:01:33.258Z</time></trkpt><trkpt lat="43.3677082" lon="13.0254239"><ele>941.0</ele><time>2026-04-19T10:01:34.258Z</time></trkpt><trkpt lat="43.3676455" lon="13.0254626"><ele>940.9999999999999</ele><time>2026-04-19T10:01:35.258Z</time></trkpt><trkpt lat="43.3675822" lon="13.0254927"><ele>940.9999999999999</ele><time>2026-04-19T10:01:36.258Z</time></trkpt><trkpt lat="43.3675095" lon="13.025521"><ele>941.0</ele><time>2026-04-19T10:01:37.257Z</time></trkpt><trkpt lat="43.367434" lon="13.0255307"><ele>940.9999999999999</ele><time>2026-04-19T10:01:38.258Z</time></trkpt><trkpt lat="43.3673483" lon="13.0255435"><ele>940.9999999999999</ele><time>2026-04-19T10:01:39.257Z</time></trkpt><trkpt lat="43.3672612" lon="13.0255587"><ele>939.8</ele><time>2026-04-19T10:01:40.257Z</time></trkpt><trkpt lat="43.3671573" lon="13.0255881"><ele>938.5999999999999</ele><time>2026-04-19T10:01:41.257Z</time></trkpt><trkpt lat="43.3670742" lon="13.0256078"><ele>937.4</ele><time>2026-04-19T10:01:42.257Z</time></trkpt><trkpt lat="43.3670071" lon="13.0256324"><ele>936.2</ele><time>2026-04-19T10:01:43.258Z</time></trkpt><trkpt lat="43.366891" lon="13.0256689"><ele>935.0</ele><time>2026-04-19T10:01:45.258Z</time></trkpt><trkpt lat="43.3667982" lon="13.0257008"><ele>935.0000000000001</ele><time>2026-04-19T10:01:47.258Z</time></trkpt><trkpt lat="43.3667165" lon="13.0257455"><ele>935.0</ele><time>2026-04-19T10:01:49.258Z</time></trkpt><trkpt lat="43.3665917" lon="13.0258151"><ele>935.0</ele><time>2026-04-19T10:01:51.258Z</time></trkpt><trkpt lat="43.3665264" lon="13.0258586"><ele>935.0</ele><time>2026-04-19T10:01:52.257Z</time></trkpt><trkpt lat="43.3664665" lon="13.0259079"><ele>935.0000000000001</ele><time>2026-04-19T10:01:53.256Z</time></trkpt><trkpt lat="43.3664133" lon="13.0259661"><ele>935.0</ele><time>2026-04-19T10:01:54.258Z</time></trkpt><trkpt lat="43.3663693" lon="13.0260344"><ele>934.8333333333334</ele><time>2026-04-19T10:01:55.258Z</time></trkpt><trkpt lat="43.3663379" lon="13.0261115"><ele>934.6666666666667</ele><time>2026-04-19T10:01:56.258Z</time></trkpt><trkpt lat="43.3663142" lon="13.0261984"><ele>934.5</ele><time>2026-04-19T10:01:57.257Z</time></trkpt><trkpt lat="43.3662969" lon="13.0262905"><ele>934.3333333333333</ele><time>2026-04-19T10:01:58.256Z</time></trkpt><trkpt lat="43.3662799" lon="13.026393"><ele>934.1666666666666</ele><time>2026-04-19T10:01:59.258Z</time></trkpt><trkpt lat="43.3662588" lon="13.0265144"><ele>934.0</ele><time>2026-04-19T10:02:00.258Z</time></trkpt><trkpt lat="43.3662406" lon="13.0266501"><ele>933.9999999999999</ele><time>2026-04-19T10:02:01.258Z</time></trkpt><trkpt lat="43.3662222" lon="13.026783"><ele>934.0</ele><time>2026-04-19T10:02:02.257Z</time></trkpt><trkpt lat="43.366205" lon="13.0269021"><ele>934.0</ele><time>2026-04-19T10:02:03.258Z</time></trkpt><trkpt lat="43.366193" lon="13.0270164"><ele>934.0</ele><time>2026-04-19T10:02:04.257Z</time></trkpt><trkpt lat="43.3661867" lon="13.0271264"><ele>933.9999999999999</ele><time>2026-04-19T10:02:05.257Z</time></trkpt><trkpt lat="43.3661812" lon="13.0272302"><ele>934.0</ele><time>2026-04-19T10:02:06.258Z</time></trkpt><trkpt lat="43.3661711" lon="13.0273291"><ele>933.9999999999999</ele><time>2026-04-19T10:02:07.258Z</time></trkpt><trkpt lat="43.3661589" lon="13.0274265"><ele>934.0</ele><time>2026-04-19T10:02:08.258Z</time></trkpt><trkpt lat="43.3661469" lon="13.0275239"><ele>934.0</ele><time>2026-04-19T10:02:09.257Z</time></trkpt><trkpt lat="43.3661344" lon="13.0276192"><ele>934.0</ele><time>2026-04-19T10:02:10.258Z</time></trkpt><trkpt lat="43.3661226" lon="13.0277136"><ele>933.9999999999999</ele><time>2026-04-19T10:02:11.257Z</time></trkpt><trkpt lat="43.3661123" lon="13.0277998"><ele>934.0</ele><time>2026-04-19T10:02:12.257Z</time></trkpt><trkpt lat="43.3660972" lon="13.0279452"><ele>934.1666666666666</ele><time>2026-04-19T10:02:14.258Z</time></trkpt><trkpt lat="43.3660753" lon="13.0280358"><ele>934.3333333333333</ele><time>2026-04-19T10:02:16.257Z</time></trkpt><trkpt lat="43.3660087" lon="13.028148"><ele>934.5</ele><time>2026-04-19T10:02:25.258Z</time></trkpt><trkpt lat="43.3659616" lon="13.0282127"><ele>934.6666666666667</ele><time>2026-04-19T10:02:26.258Z</time></trkpt><trkpt lat="43.3658989" lon="13.0282873"><ele>934.8333333333334</ele><time>2026-04-19T10:02:27.258Z</time></trkpt><trkpt lat="43.3658337" lon="13.0283855"><ele>935.0</ele><time>2026-04-19T10:02:28.257Z</time></trkpt><trkpt lat="43.3657862" lon="13.0284873"><ele>935.0</ele><time>2026-04-19T10:02:29.257Z</time></trkpt><trkpt lat="43.3657528" lon="13.028596"><ele>935.0</ele><time>2026-04-19T10:02:30.258Z</time></trkpt><trkpt lat="43.3657293" lon="13.0287146"><ele>935.0</ele><time>2026-04-19T10:02:31.257Z</time></trkpt><trkpt lat="43.3657078" lon="13.0288435"><ele>935.0</ele><time>2026-04-19T10:02:32.257Z</time></trkpt><trkpt lat="43.365689" lon="13.0289728"><ele>935.0</ele><time>2026-04-19T10:02:33.258Z</time></trkpt><trkpt lat="43.3656728" lon="13.0290972"><ele>934.8</ele><time>2026-04-19T10:02:34.258Z</time></trkpt><trkpt lat="43.3656561" lon="13.0292251"><ele>934.6</ele><time>2026-04-19T10:02:35.258Z</time></trkpt><trkpt lat="43.3656385" lon="13.0293577"><ele>934.4000000000001</ele><time>2026-04-19T10:02:36.258Z</time></trkpt><trkpt lat="43.3656187" lon="13.0294935"><ele>934.2</ele><time>2026-04-19T10:02:37.258Z</time></trkpt><trkpt lat="43.3655958" lon="13.0296253"><ele>934.0</ele><time>2026-04-19T10:02:38.258Z</time></trkpt><trkpt lat="43.3655752" lon="13.0297541"><ele>934.0</ele><time>2026-04-19T10:02:39.257Z</time></trkpt><trkpt lat="43.3655669" lon="13.0298903"><ele>934.0000000000001</ele><time>2026-04-19T10:02:40.258Z</time></trkpt><trkpt lat="43.3655722" lon="13.0300247"><ele>934.0000000000001</ele><time>2026-04-19T10:02:41.257Z</time></trkpt><trkpt lat="43.3655784" lon="13.0301628"><ele>934.0</ele><time>2026-04-19T10:02:42.258Z</time></trkpt><trkpt lat="43.3655774" lon="13.0302981"><ele>934.0</ele><time>2026-04-19T10:02:43.258Z</time></trkpt><trkpt lat="43.3655608" lon="13.0304261"><ele>933.8333333333333</ele><time>2026-04-19T10:02:44.258Z</time></trkpt><trkpt lat="43.3655095" lon="13.0305182"><ele>933.6666666666666</ele><time>2026-04-19T10:02:45.258Z</time></trkpt><trkpt lat="43.3654521" lon="13.0305906"><ele>933.5</ele><time>2026-04-19T10:02:46.257Z</time></trkpt><trkpt lat="43.3653832" lon="13.0306334"><ele>933.3333333333333</ele><time>2026-04-19T10:02:47.257Z</time></trkpt><trkpt lat="43.3653019" lon="13.0306604"><ele>933.1666666666666</ele><time>2026-04-19T10:02:48.257Z</time></trkpt><trkpt lat="43.3652074" lon="13.030678"><ele>933.0</ele><time>2026-04-19T10:02:49.258Z</time></trkpt><trkpt lat="43.3651114" lon="13.0306788"><ele>933.0</ele><time>2026-04-19T10:02:50.257Z</time></trkpt><trkpt lat="43.3650164" lon="13.0306653"><ele>933.0</ele><time>2026-04-19T10:02:51.258Z</time></trkpt><trkpt lat="43.3649197" lon="13.0306439"><ele>933.0</ele><time>2026-04-19T10:02:52.257Z</time></trkpt><trkpt lat="43.3648163" lon="13.0306112"><ele>933.0</ele><time>2026-04-19T10:02:53.258Z</time></trkpt><trkpt lat="43.3647084" lon="13.0305718"><ele>933.0</ele><time>2026-04-19T10:02:54.256Z</time></trkpt><trkpt lat="43.3646026" lon="13.0305241"><ele>932.3333333333334</ele><time>2026-04-19T10:02:55.258Z</time></trkpt><trkpt lat="43.3645058" lon="13.0304755"><ele>931.6666666666667</ele><time>2026-04-19T10:02:56.258Z</time></trkpt><trkpt lat="43.3644242" lon="13.0304318"><ele>931.0</ele><time>2026-04-19T10:02:57.257Z</time></trkpt><trkpt lat="43.3643604" lon="13.030404"><ele>930.3333333333334</ele><time>2026-04-19T10:02:58.257Z</time></trkpt><trkpt lat="43.3642468" lon="13.0303445"><ele>929.6666666666667</ele><time>2026-04-19T10:03:00.258Z</time></trkpt><trkpt lat="43.3641855" lon="13.0303174"><ele>929.0</ele><time>2026-04-19T10:03:01.257Z</time></trkpt><trkpt lat="43.3640621" lon="13.030269"><ele>929.0000000000001</ele><time>2026-04-19T10:03:03.257Z</time></trkpt><trkpt lat="43.3639847" lon="13.0302539"><ele>929.0</ele><time>2026-04-19T10:03:04.258Z</time></trkpt><trkpt lat="43.3639096" lon="13.0302616"><ele>929.0</ele><time>2026-04-19T10:03:05.258Z</time></trkpt><trkpt lat="43.363828" lon="13.0302886"><ele>929.0</ele><time>2026-04-19T10:03:06.258Z</time></trkpt><trkpt lat="43.3637531" lon="13.0303369"><ele>929.0000000000001</ele><time>2026-04-19T10:03:07.258Z</time></trkpt><trkpt lat="43.363687" lon="13.0303953"><ele>929.0</ele><time>2026-04-19T10:03:08.257Z</time></trkpt><trkpt lat="43.363626" lon="13.0304727"><ele>929.2</ele><time>2026-04-19T10:03:09.257Z</time></trkpt><trkpt lat="43.3635722" lon="13.030576"><ele>929.4000000000001</ele><time>2026-04-19T10:03:10.258Z</time></trkpt><trkpt lat="43.3635171" lon="13.0307005"><ele>929.6</ele><time>2026-04-19T10:03:11.258Z</time></trkpt><trkpt lat="43.3634651" lon="13.030837"><ele>929.8</ele><time>2026-04-19T10:03:12.258Z</time></trkpt><trkpt lat="43.3634083" lon="13.0309898"><ele>930.0</ele><time>2026-04-19T10:03:13.257Z</time></trkpt><trkpt lat="43.3633568" lon="13.0311431"><ele>930.0</ele><time>2026-04-19T10:03:14.258Z</time></trkpt><trkpt lat="43.3633101" lon="13.0312864"><ele>930.0</ele><time>2026-04-19T10:03:15.258Z</time></trkpt><trkpt lat="43.3632647" lon="13.0314176"><ele>930.0</ele><time>2026-04-19T10:03:16.257Z</time></trkpt><trkpt lat="43.3632224" lon="13.0315449"><ele>930.0</ele><time>2026-04-19T10:03:17.258Z</time></trkpt><trkpt lat="43.3631839" lon="13.0316617"><ele>930.0</ele><time>2026-04-19T10:03:18.258Z</time></trkpt><trkpt lat="43.3631441" lon="13.031776"><ele>929.1666666666666</ele><time>2026-04-19T10:03:19.257Z</time></trkpt><trkpt lat="43.3631057" lon="13.0318801"><ele>928.3333333333333</ele><time>2026-04-19T10:03:20.257Z</time></trkpt><trkpt lat="43.363067" lon="13.0319846"><ele>927.5</ele><time>2026-04-19T10:03:21.257Z</time></trkpt><trkpt lat="43.3630322" lon="13.0320868"><ele>926.6666666666666</ele><time>2026-04-19T10:03:22.257Z</time></trkpt><trkpt lat="43.3629973" lon="13.032194"><ele>925.8333333333333</ele><time>2026-04-19T10:03:23.258Z</time></trkpt><trkpt lat="43.3629571" lon="13.0322995"><ele>925.0</ele><time>2026-04-19T10:03:24.256Z</time></trkpt><trkpt lat="43.3629131" lon="13.032391"><ele>928.3333333333333</ele><time>2026-04-19T10:03:25.258Z</time></trkpt><trkpt lat="43.3628736" lon="13.0324659"><ele>931.6666666666666</ele><time>2026-04-19T10:03:26.258Z</time></trkpt><trkpt lat="43.3628111" lon="13.0325887"><ele>935.0</ele><time>2026-04-19T10:03:28.258Z</time></trkpt><trkpt lat="43.3627429" lon="13.0327229"><ele>938.3333333333333</ele><time>2026-04-19T10:03:30.257Z</time></trkpt><trkpt lat="43.3627005" lon="13.0327939"><ele>941.6666666666666</ele><time>2026-04-19T10:03:31.258Z</time></trkpt><trkpt lat="43.3626514" lon="13.0328805"><ele>945.0</ele><time>2026-04-19T10:03:32.258Z</time></trkpt><trkpt lat="43.3625904" lon="13.0329902"><ele>945.0</ele><time>2026-04-19T10:03:33.258Z</time></trkpt><trkpt lat="43.362535" lon="13.0331039"><ele>945.0</ele><time>2026-04-19T10:03:34.257Z</time></trkpt><trkpt lat="43.3624771" lon="13.0332277"><ele>945.0</ele><time>2026-04-19T10:03:35.258Z</time></trkpt><trkpt lat="43.3624118" lon="13.0333495"><ele>945.0</ele><time>2026-04-19T10:03:36.258Z</time></trkpt><trkpt lat="43.3623289" lon="13.0334857"><ele>945.0</ele><time>2026-04-19T10:03:37.257Z</time></trkpt><trkpt lat="43.362238" lon="13.0336289"><ele>950.0</ele><time>2026-04-19T10:03:38.258Z</time></trkpt><trkpt lat="43.3621406" lon="13.0337649"><ele>955.0</ele><time>2026-04-19T10:03:39.257Z</time></trkpt><trkpt lat="43.3620483" lon="13.0338868"><ele>960.0</ele><time>2026-04-19T10:03:40.258Z</time></trkpt><trkpt lat="43.361969" lon="13.0340011"><ele>965.0</ele><time>2026-04-19T10:03:41.257Z</time></trkpt><trkpt lat="43.3618912" lon="13.0340939"><ele>961.6</ele><time>2026-04-19T10:03:42.258Z</time></trkpt><trkpt lat="43.3618063" lon="13.0341597"><ele>958.2</ele><time>2026-04-19T10:03:43.257Z</time></trkpt><trkpt lat="43.3617183" lon="13.0342123"><ele>954.8</ele><time>2026-04-19T10:03:44.258Z</time></trkpt><trkpt lat="43.3616232" lon="13.0342365"><ele>951.4</ele><time>2026-04-19T10:03:45.257Z</time></trkpt><trkpt lat="43.3615163" lon="13.0342436"><ele>948.0</ele><time>2026-04-19T10:03:46.258Z</time></trkpt><trkpt lat="43.3613955" lon="13.0342249"><ele>951.75</ele><time>2026-04-19T10:03:47.258Z</time></trkpt><trkpt lat="43.3612828" lon="13.0342133"><ele>955.5</ele><time>2026-04-19T10:03:48.256Z</time></trkpt><trkpt lat="43.3611679" lon="13.0342039"><ele>959.25</ele><time>2026-04-19T10:03:49.257Z</time></trkpt><trkpt lat="43.3610555" lon="13.0341955"><ele>963.0</ele><time>2026-04-19T10:03:50.257Z</time></trkpt><trkpt lat="43.360946" lon="13.0341972"><ele>963.0</ele><time>2026-04-19T10:03:51.258Z</time></trkpt><trkpt lat="43.3608449" lon="13.0342224"><ele>963.0</ele><time>2026-04-19T10:03:52.258Z</time></trkpt><trkpt lat="43.3607544" lon="13.0342761"><ele>963.0</ele><time>2026-04-19T10:03:53.258Z</time></trkpt><trkpt lat="43.3606663" lon="13.0343632"><ele>963.0</ele><time>2026-04-19T10:03:54.258Z</time></trkpt><trkpt lat="43.3605902" lon="13.0344769"><ele>963.0</ele><time>2026-04-19T10:03:55.257Z</time></trkpt><trkpt lat="43.3605336" lon="13.0346086"><ele>962.5999999999999</ele><time>2026-04-19T10:03:56.258Z</time></trkpt><trkpt lat="43.3604877" lon="13.0347495"><ele>962.1999999999999</ele><time>2026-04-19T10:03:57.258Z</time></trkpt><trkpt lat="43.3604494" lon="13.0348702"><ele>961.8</ele><time>2026-04-19T10:03:58.258Z</time></trkpt><trkpt lat="43.3604111" lon="13.0349763"><ele>961.4</ele><time>2026-04-19T10:03:59.258Z</time></trkpt><trkpt lat="43.3603532" lon="13.0350693"><ele>961.0</ele><time>2026-04-19T10:04:00.257Z</time></trkpt><trkpt lat="43.3602794" lon="13.0351359"><ele>961.0</ele><time>2026-04-19T10:04:01.257Z</time></trkpt><trkpt lat="43.3602033" lon="13.0351706"><ele>960.9999999999999</ele><time>2026-04-19T10:04:02.258Z</time></trkpt><trkpt lat="43.3601175" lon="13.0351951"><ele>960.9999999999999</ele><time>2026-04-19T10:04:03.257Z</time></trkpt><trkpt lat="43.3600266" lon="13.035192"><ele>961.0</ele><time>2026-04-19T10:04:04.258Z</time></trkpt><trkpt lat="43.3599279" lon="13.0351676"><ele>961.0</ele><time>2026-04-19T10:04:05.258Z</time></trkpt><trkpt lat="43.3598233" lon="13.0351217"><ele>961.0</ele><time>2026-04-19T10:04:06.258Z</time></trkpt><trkpt lat="43.3597158" lon="13.0350562"><ele>961.0</ele><time>2026-04-19T10:04:07.257Z</time></trkpt><trkpt lat="43.3596125" lon="13.0349885"><ele>961.0</ele><time>2026-04-19T10:04:08.257Z</time></trkpt><trkpt lat="43.3595086" lon="13.0349238"><ele>961.0</ele><time>2026-04-19T10:04:09.257Z</time></trkpt><trkpt lat="43.3593949" lon="13.0348537"><ele>960.0</ele><time>2026-04-19T10:04:10.257Z</time></trkpt><trkpt lat="43.3592647" lon="13.0347817"><ele>959.0</ele><time>2026-04-19T10:04:11.257Z</time></trkpt><trkpt lat="43.3591315" lon="13.034716"><ele>958.0</ele><time>2026-04-19T10:04:12.257Z</time></trkpt><trkpt lat="43.3589922" lon="13.0346526"><ele>957.0</ele><time>2026-04-19T10:04:13.258Z</time></trkpt><trkpt lat="43.3588668" lon="13.0345893"><ele>957.0</ele><time>2026-04-19T10:04:14.258Z</time></trkpt><trkpt lat="43.3587461" lon="13.0345253"><ele>957.0</ele><time>2026-04-19T10:04:15.258Z</time></trkpt><trkpt lat="43.3586173" lon="13.0344563"><ele>957.0</ele><time>2026-04-19T10:04:16.257Z</time></trkpt><trkpt lat="43.3584921" lon="13.0343816"><ele>957.0</ele><time>2026-04-19T10:04:17.258Z</time></trkpt><trkpt lat="43.3583741" lon="13.0343038"><ele>957.0</ele><time>2026-04-19T10:04:18.258Z</time></trkpt><trkpt lat="43.3582591" lon="13.0342174"><ele>957.0</ele><time>2026-04-19T10:04:19.256Z</time></trkpt><trkpt lat="43.3581486" lon="13.0341225"><ele>957.0</ele><time>2026-04-19T10:04:20.258Z</time></trkpt><trkpt lat="43.3580447" lon="13.0340284"><ele>957.0</ele><time>2026-04-19T10:04:21.258Z</time></trkpt><trkpt lat="43.3579413" lon="13.0339318"><ele>956.75</ele><time>2026-04-19T10:04:22.258Z</time></trkpt><trkpt lat="43.3578368" lon="13.0338265"><ele>956.5</ele><time>2026-04-19T10:04:23.257Z</time></trkpt><trkpt lat="43.357732" lon="13.0337159"><ele>956.25</ele><time>2026-04-19T10:04:24.256Z</time></trkpt><trkpt lat="43.357632" lon="13.0336117"><ele>956.0</ele><time>2026-04-19T10:04:25.258Z</time></trkpt><trkpt lat="43.3575367" lon="13.0335084"><ele>956.0</ele><time>2026-04-19T10:04:26.258Z</time></trkpt><trkpt lat="43.3574436" lon="13.0334101"><ele>956.0</ele><time>2026-04-19T10:04:27.257Z</time></trkpt><trkpt lat="43.3573482" lon="13.0333159"><ele>956.0</ele><time>2026-04-19T10:04:28.257Z</time></trkpt><trkpt lat="43.3572462" lon="13.0332186"><ele>956.0</ele><time>2026-04-19T10:04:29.258Z</time></trkpt><trkpt lat="43.3571525" lon="13.0331301"><ele>953.75</ele><time>2026-04-19T10:04:30.258Z</time></trkpt><trkpt lat="43.3570571" lon="13.0330391"><ele>951.5</ele><time>2026-04-19T10:04:31.258Z</time></trkpt><trkpt lat="43.3569655" lon="13.0329468"><ele>949.25</ele><time>2026-04-19T10:04:32.257Z</time></trkpt><trkpt lat="43.3568741" lon="13.032858"><ele>947.0</ele><time>2026-04-19T10:04:33.258Z</time></trkpt><trkpt lat="43.356781" lon="13.0327693"><ele>947.0</ele><time>2026-04-19T10:04:34.257Z</time></trkpt><trkpt lat="43.3566869" lon="13.0326737"><ele>947.0</ele><time>2026-04-19T10:04:35.257Z</time></trkpt><trkpt lat="43.3565982" lon="13.0325908"><ele>947.0</ele><time>2026-04-19T10:04:36.258Z</time></trkpt><trkpt lat="43.3565143" lon="13.032508"><ele>947.0</ele><time>2026-04-19T10:04:37.257Z</time></trkpt><trkpt lat="43.3564354" lon="13.0324195"><ele>947.0</ele><time>2026-04-19T10:04:38.258Z</time></trkpt><trkpt lat="43.3563584" lon="13.0323311"><ele>944.5000000000001</ele><time>2026-04-19T10:04:39.258Z</time></trkpt><trkpt lat="43.3562815" lon="13.0322507"><ele>942.0</ele><time>2026-04-19T10:04:40.257Z</time></trkpt><trkpt lat="43.3562118" lon="13.0321788"><ele>939.5</ele><time>2026-04-19T10:04:41.258Z</time></trkpt><trkpt lat="43.3561484" lon="13.0321094"><ele>937.0</ele><time>2026-04-19T10:04:42.258Z</time></trkpt><trkpt lat="43.3560852" lon="13.0320358"><ele>934.5000000000001</ele><time>2026-04-19T10:04:43.258Z</time></trkpt><trkpt lat="43.3560211" lon="13.0319638"><ele>932.0</ele><time>2026-04-19T10:04:44.257Z</time></trkpt><trkpt lat="43.3559557" lon="13.0318909"><ele>932.0000000000001</ele><time>2026-04-19T10:04:45.257Z</time></trkpt><trkpt lat="43.3558883" lon="13.0318158"><ele>932.0</ele><time>2026-04-19T10:04:46.258Z</time></trkpt><trkpt lat="43.3558216" lon="13.0317434"><ele>932.0</ele><time>2026-04-19T10:04:47.256Z</time></trkpt><trkpt lat="43.3557561" lon="13.0316716"><ele>932.0</ele><time>2026-04-19T10:04:48.257Z</time></trkpt><trkpt lat="43.3556912" lon="13.0316022"><ele>932.0000000000001</ele><time>2026-04-19T10:04:49.257Z</time></trkpt><trkpt lat="43.3556241" lon="13.0315361"><ele>932.0</ele><time>2026-04-19T10:04:50.257Z</time></trkpt><trkpt lat="43.3555533" lon="13.0314585"><ele>928.8</ele><time>2026-04-19T10:04:51.258Z</time></trkpt><trkpt lat="43.3554834" lon="13.0313681"><ele>925.6</ele><time>2026-04-19T10:04:52.257Z</time></trkpt><trkpt lat="43.3554103" lon="13.0312751"><ele>922.3999999999999</ele><time>2026-04-19T10:04:53.257Z</time></trkpt><trkpt lat="43.355332" lon="13.0311792"><ele>919.1999999999999</ele><time>2026-04-19T10:04:54.257Z</time></trkpt><trkpt lat="43.3552491" lon="13.03107"><ele>916.0</ele><time>2026-04-19T10:04:55.257Z</time></trkpt><trkpt lat="43.355162" lon="13.0309519"><ele>916.0</ele><time>2026-04-19T10:04:56.256Z</time></trkpt><trkpt lat="43.355081" lon="13.0308363"><ele>915.9999999999999</ele><time>2026-04-19T10:04:57.258Z</time></trkpt><trkpt lat="43.3550041" lon="13.0307247"><ele>915.9999999999999</ele><time>2026-04-19T10:04:58.258Z</time></trkpt><trkpt lat="43.3549301" lon="13.0306127"><ele>916.0</ele><time>2026-04-19T10:04:59.258Z</time></trkpt><trkpt lat="43.3548626" lon="13.0304976"><ele>916.0</ele><time>2026-04-19T10:05:00.257Z</time></trkpt><trkpt lat="43.3548011" lon="13.0303888"><ele>915.1666666666666</ele><time>2026-04-19T10:05:01.258Z</time></trkpt><trkpt lat="43.3547456" lon="13.0302976"><ele>914.3333333333333</ele><time>2026-04-19T10:05:02.258Z</time></trkpt><trkpt lat="43.3546915" lon="13.0302129"><ele>913.5</ele><time>2026-04-19T10:05:03.257Z</time></trkpt><trkpt lat="43.354636" lon="13.0301302"><ele>912.6666666666667</ele><time>2026-04-19T10:05:04.257Z</time></trkpt><trkpt lat="43.3545786" lon="13.0300513"><ele>911.8333333333334</ele><time>2026-04-19T10:05:05.257Z</time></trkpt><trkpt lat="43.3545204" lon="13.0299742"><ele>911.0</ele><time>2026-04-19T10:05:06.258Z</time></trkpt><trkpt lat="43.3544571" lon="13.0298916"><ele>911.0</ele><time>2026-04-19T10:05:07.258Z</time></trkpt><trkpt lat="43.3543874" lon="13.0298179"><ele>910.9999999999999</ele><time>2026-04-19T10:05:08.258Z</time></trkpt><trkpt lat="43.3543078" lon="13.0297585"><ele>910.9999999999999</ele><time>2026-04-19T10:05:09.258Z</time></trkpt><trkpt lat="43.3542168" lon="13.0297135"><ele>911.0</ele><time>2026-04-19T10:05:10.258Z</time></trkpt><trkpt lat="43.3541214" lon="13.0296847"><ele>911.0</ele><time>2026-04-19T10:05:11.258Z</time></trkpt><trkpt lat="43.3540252" lon="13.029675"><ele>911.0</ele><time>2026-04-19T10:05:12.258Z</time></trkpt><trkpt lat="43.3539262" lon="13.0296856"><ele>910.9999999999999</ele><time>2026-04-19T10:05:13.258Z</time></trkpt><trkpt lat="43.3538165" lon="13.0297196"><ele>910.9999999999999</ele><time>2026-04-19T10:05:14.257Z</time></trkpt><trkpt lat="43.3537072" lon="13.0297854"><ele>911.0</ele><time>2026-04-19T10:05:15.257Z</time></trkpt><trkpt lat="43.3536165" lon="13.0298786"><ele>911.0</ele><time>2026-04-19T10:05:16.257Z</time></trkpt><trkpt lat="43.353532" lon="13.0299743"><ele>910.75</ele><time>2026-04-19T10:05:17.257Z</time></trkpt><trkpt lat="43.3534493" lon="13.0300895"><ele>910.5</ele><time>2026-04-19T10:05:18.258Z</time></trkpt><trkpt lat="43.353367" lon="13.0302296"><ele>910.25</ele><time>2026-04-19T10:05:19.258Z</time></trkpt><trkpt lat="43.3532825" lon="13.0303538"><ele>910.0</ele><time>2026-04-19T10:05:20.258Z</time></trkpt><trkpt lat="43.3532025" lon="13.0304492"><ele>909.9999999999999</ele><time>2026-04-19T10:05:21.257Z</time></trkpt><trkpt lat="43.353123" lon="13.0305172"><ele>910.0</ele><time>2026-04-19T10:05:22.257Z</time></trkpt><trkpt lat="43.3530487" lon="13.0305464"><ele>910.0</ele><time>2026-04-19T10:05:23.256Z</time></trkpt><trkpt lat="43.3529839" lon="13.0305402"><ele>910.0</ele><time>2026-04-19T10:05:24.257Z</time></trkpt><trkpt lat="43.3529202" lon="13.0305042"><ele>909.9999999999999</ele><time>2026-04-19T10:05:25.258Z</time></trkpt><trkpt lat="43.3528572" lon="13.0304376"><ele>910.0</ele><time>2026-04-19T10:05:26.257Z</time></trkpt><trkpt lat="43.352787" lon="13.0303424"><ele>910.0</ele><time>2026-04-19T10:05:27.257Z</time></trkpt><trkpt lat="43.3526953" lon="13.0302227"><ele>910.0</ele><time>2026-04-19T10:05:28.258Z</time></trkpt><trkpt lat="43.3525869" lon="13.0300877"><ele>910.0</ele><time>2026-04-19T10:05:29.258Z</time></trkpt><trkpt lat="43.3524693" lon="13.0299469"><ele>910.0</ele><time>2026-04-19T10:05:30.258Z</time></trkpt><trkpt lat="43.3523498" lon="13.0298202"><ele>914.25</ele><time>2026-04-19T10:05:31.257Z</time></trkpt><trkpt lat="43.3522356" lon="13.0297189"><ele>918.5</ele><time>2026-04-19T10:05:32.257Z</time></trkpt><trkpt lat="43.3521285" lon="13.0296497"><ele>922.75</ele><time>2026-04-19T10:05:33.258Z</time></trkpt><trkpt lat="43.3520268" lon="13.02961"><ele>927.0</ele><time>2026-04-19T10:05:34.258Z</time></trkpt><trkpt lat="43.3519232" lon="13.0296237"><ele>929.75</ele><time>2026-04-19T10:05:35.257Z</time></trkpt><trkpt lat="43.3518105" lon="13.0296736"><ele>932.5</ele><time>2026-04-19T10:05:36.257Z</time></trkpt><trkpt lat="43.3516926" lon="13.0297399"><ele>935.25</ele><time>2026-04-19T10:05:37.257Z</time></trkpt><trkpt lat="43.3515953" lon="13.0298216"><ele>938.0</ele><time>2026-04-19T10:05:38.257Z</time></trkpt><trkpt lat="43.3515014" lon="13.029906"><ele>940.5</ele><time>2026-04-19T10:05:39.257Z</time></trkpt><trkpt lat="43.3514354" lon="13.0300566"><ele>943.0</ele><time>2026-04-19T10:05:40.257Z</time></trkpt><trkpt lat="43.3513694" lon="13.0302"><ele>945.5</ele><time>2026-04-19T10:05:41.258Z</time></trkpt><trkpt lat="43.3513143" lon="13.0303557"><ele>948.0</ele><time>2026-04-19T10:05:42.257Z</time></trkpt><trkpt lat="43.35127" lon="13.0305188"><ele>948.0</ele><time>2026-04-19T10:05:43.256Z</time></trkpt><trkpt lat="43.3512339" lon="13.0307246"><ele>948.0</ele><time>2026-04-19T10:05:44.258Z</time></trkpt><trkpt lat="43.3511958" lon="13.0309335"><ele>948.0</ele><time>2026-04-19T10:05:45.258Z</time></trkpt><trkpt lat="43.3511614" lon="13.0310964"><ele>948.0</ele><time>2026-04-19T10:05:46.257Z</time></trkpt><trkpt lat="43.3511348" lon="13.0312485"><ele>948.0</ele><time>2026-04-19T10:05:47.258Z</time></trkpt><trkpt lat="43.3511168" lon="13.0314074"><ele>948.0</ele><time>2026-04-19T10:05:48.257Z</time></trkpt><trkpt lat="43.3510994" lon="13.0315909"><ele>948.0</ele><time>2026-04-19T10:05:49.258Z</time></trkpt><trkpt lat="43.3510775" lon="13.0318072"><ele>948.0</ele><time>2026-04-19T10:05:50.258Z</time></trkpt><trkpt lat="43.351057" lon="13.0320522"><ele>946.0</ele><time>2026-04-19T10:05:51.258Z</time></trkpt><trkpt lat="43.3510417" lon="13.0322995"><ele>944.0</ele><time>2026-04-19T10:05:52.257Z</time></trkpt><trkpt lat="43.3510256" lon="13.0325352"><ele>942.0</ele><time>2026-04-19T10:05:53.258Z</time></trkpt><trkpt lat="43.3510051" lon="13.0327679"><ele>940.25</ele><time>2026-04-19T10:05:54.258Z</time></trkpt><trkpt lat="43.3509852" lon="13.0329913"><ele>938.5</ele><time>2026-04-19T10:05:55.258Z</time></trkpt><trkpt lat="43.3509664" lon="13.0331915"><ele>936.75</ele><time>2026-04-19T10:05:56.258Z</time></trkpt><trkpt lat="43.3509487" lon="13.0333652"><ele>935.0</ele><time>2026-04-19T10:05:57.258Z</time></trkpt><trkpt lat="43.3509284" lon="13.0335159"><ele>933.6</ele><time>2026-04-19T10:05:58.258Z</time></trkpt><trkpt lat="43.3508969" lon="13.0336392"><ele>932.2</ele><time>2026-04-19T10:05:59.257Z</time></trkpt><trkpt lat="43.3508458" lon="13.0337535"><ele>930.8</ele><time>2026-04-19T10:06:00.256Z</time></trkpt><trkpt lat="43.3507804" lon="13.033864"><ele>929.4</ele><time>2026-04-19T10:06:01.257Z</time></trkpt><trkpt lat="43.3507092" lon="13.0339813"><ele>928.0</ele><time>2026-04-19T10:06:02.258Z</time></trkpt><trkpt lat="43.3506102" lon="13.0341127"><ele>934.75</ele><time>2026-04-19T10:06:03.258Z</time></trkpt><trkpt lat="43.3505331" lon="13.0342575"><ele>941.5</ele><time>2026-04-19T10:06:04.258Z</time></trkpt><trkpt lat="43.3504745" lon="13.0343931"><ele>948.25</ele><time>2026-04-19T10:06:05.257Z</time></trkpt><trkpt lat="43.3504201" lon="13.0345567"><ele>955.0</ele><time>2026-04-19T10:06:06.257Z</time></trkpt><trkpt lat="43.3503827" lon="13.0347526"><ele>953.6666666666666</ele><time>2026-04-19T10:06:07.257Z</time></trkpt><trkpt lat="43.3503417" lon="13.0349749"><ele>952.3333333333333</ele><time>2026-04-19T10:06:08.257Z</time></trkpt><trkpt lat="43.3503234" lon="13.0352223"><ele>951.0</ele><time>2026-04-19T10:06:09.257Z</time></trkpt><trkpt lat="43.3503126" lon="13.0354638"><ele>951.0</ele><time>2026-04-19T10:06:10.258Z</time></trkpt><trkpt lat="43.3503013" lon="13.0356768"><ele>951.0</ele><time>2026-04-19T10:06:11.258Z</time></trkpt><trkpt lat="43.3502961" lon="13.0358599"><ele>951.0</ele><time>2026-04-19T10:06:12.258Z</time></trkpt><trkpt lat="43.3502956" lon="13.0360141"><ele>951.0</ele><time>2026-04-19T10:06:13.257Z</time></trkpt><trkpt lat="43.3502954" lon="13.0361453"><ele>950.5</ele><time>2026-04-19T10:06:14.257Z</time></trkpt><trkpt lat="43.3502867" lon="13.0362772"><ele>950.0</ele><time>2026-04-19T10:06:15.258Z</time></trkpt><trkpt lat="43.3502836" lon="13.03643"><ele>949.5</ele><time>2026-04-19T10:06:16.257Z</time></trkpt><trkpt lat="43.3502868" lon="13.0366047"><ele>949.0</ele><time>2026-04-19T10:06:17.257Z</time></trkpt><trkpt lat="43.3502868" lon="13.036784"><ele>948.25</ele><time>2026-04-19T10:06:18.257Z</time></trkpt><trkpt lat="43.3502873" lon="13.0369666"><ele>947.5</ele><time>2026-04-19T10:06:19.257Z</time></trkpt><trkpt lat="43.3502876" lon="13.0371455"><ele>946.75</ele><time>2026-04-19T10:06:20.257Z</time></trkpt><trkpt lat="43.3502879" lon="13.037322"><ele>946.0</ele><time>2026-04-19T10:06:21.258Z</time></trkpt><trkpt lat="43.350276" lon="13.0375007"><ele>944.1999999999999</ele><time>2026-04-19T10:06:22.258Z</time></trkpt><trkpt lat="43.350262" lon="13.0376691"><ele>942.3999999999999</ele><time>2026-04-19T10:06:23.258Z</time></trkpt><trkpt lat="43.3502464" lon="13.0378236"><ele>940.6</ele><time>2026-04-19T10:06:24.258Z</time></trkpt><trkpt lat="43.3502293" lon="13.0379568"><ele>938.8</ele><time>2026-04-19T10:06:25.258Z</time></trkpt><trkpt lat="43.3502041" lon="13.0380829"><ele>937.0</ele><time>2026-04-19T10:06:26.258Z</time></trkpt><trkpt lat="43.3501668" lon="13.0381855"><ele>936.9999999999999</ele><time>2026-04-19T10:06:27.258Z</time></trkpt><trkpt lat="43.35011" lon="13.0382524"><ele>937.0</ele><time>2026-04-19T10:06:28.257Z</time></trkpt><trkpt lat="43.350036" lon="13.0382895"><ele>937.0</ele><time>2026-04-19T10:06:29.258Z</time></trkpt><trkpt lat="43.3499586" lon="13.0382927"><ele>937.0</ele><time>2026-04-19T10:06:30.258Z</time></trkpt><trkpt lat="43.349889" lon="13.0382651"><ele>936.9999999999999</ele><time>2026-04-19T10:06:31.258Z</time></trkpt><trkpt lat="43.3498074" lon="13.0382153"><ele>937.0</ele><time>2026-04-19T10:06:32.257Z</time></trkpt><trkpt lat="43.349713" lon="13.0381457"><ele>939.5</ele><time>2026-04-19T10:06:33.258Z</time></trkpt><trkpt lat="43.3496065" lon="13.0380665"><ele>942.0</ele><time>2026-04-19T10:06:34.258Z</time></trkpt><trkpt lat="43.3494987" lon="13.0379924"><ele>944.5</ele><time>2026-04-19T10:06:35.257Z</time></trkpt><trkpt lat="43.3493919" lon="13.0379159"><ele>947.0</ele><time>2026-04-19T10:06:36.257Z</time></trkpt><trkpt lat="43.3492792" lon="13.0378358"><ele>947.0</ele><time>2026-04-19T10:06:37.258Z</time></trkpt><trkpt lat="43.3491597" lon="13.0377526"><ele>947.0</ele><time>2026-04-19T10:06:38.257Z</time></trkpt><trkpt lat="43.3490463" lon="13.0376748"><ele>947.0</ele><time>2026-04-19T10:06:39.258Z</time></trkpt><trkpt lat="43.3489504" lon="13.0376099"><ele>947.0</ele><time>2026-04-19T10:06:40.257Z</time></trkpt><trkpt lat="43.3488563" lon="13.0375437"><ele>944.75</ele><time>2026-04-19T10:06:41.257Z</time></trkpt><trkpt lat="43.3487575" lon="13.0374777"><ele>942.5</ele><time>2026-04-19T10:06:42.258Z</time></trkpt><trkpt lat="43.3486606" lon="13.0374026"><ele>940.25</ele><time>2026-04-19T10:06:43.258Z</time></trkpt><trkpt lat="43.3485675" lon="13.0373068"><ele>938.0</ele><time>2026-04-19T10:06:44.257Z</time></trkpt><trkpt lat="43.3484754" lon="13.0371944"><ele>944.5</ele><time>2026-04-19T10:06:45.258Z</time></trkpt><trkpt lat="43.3483831" lon="13.0370824"><ele>951.0</ele><time>2026-04-19T10:06:46.258Z</time></trkpt><trkpt lat="43.3482848" lon="13.036971"><ele>957.5</ele><time>2026-04-19T10:06:47.257Z</time></trkpt><trkpt lat="43.3481877" lon="13.0368629"><ele>964.0</ele><time>2026-04-19T10:06:48.258Z</time></trkpt><trkpt lat="43.3481008" lon="13.0367837"><ele>963.4000000000001</ele><time>2026-04-19T10:06:49.258Z</time></trkpt><trkpt lat="43.348016" lon="13.0367379"><ele>962.8000000000001</ele><time>2026-04-19T10:06:50.258Z</time></trkpt><trkpt lat="43.3479237" lon="13.03672"><ele>962.1999999999999</ele><time>2026-04-19T10:06:51.258Z</time></trkpt><trkpt lat="43.347819" lon="13.0367245"><ele>961.5999999999999</ele><time>2026-04-19T10:06:52.257Z</time></trkpt><trkpt lat="43.3477114" lon="13.0367424"><ele>961.0</ele><time>2026-04-19T10:06:53.257Z</time></trkpt><trkpt lat="43.3475785" lon="13.0367528"><ele>961.0</ele><time>2026-04-19T10:06:54.258Z</time></trkpt><trkpt lat="43.3474382" lon="13.0367691"><ele>961.0</ele><time>2026-04-19T10:06:55.258Z</time></trkpt><trkpt lat="43.3473039" lon="13.0367908"><ele>961.0</ele><time>2026-04-19T10:06:56.256Z</time></trkpt><trkpt lat="43.3471727" lon="13.0368188"><ele>961.0</ele><time>2026-04-19T10:06:57.258Z</time></trkpt><trkpt lat="43.3470568" lon="13.0368576"><ele>964.0</ele><time>2026-04-19T10:06:58.258Z</time></trkpt><trkpt lat="43.3469489" lon="13.0368756"><ele>966.9999999999999</ele><time>2026-04-19T10:06:59.257Z</time></trkpt><trkpt lat="43.346833" lon="13.036889"><ele>969.9999999999999</ele><time>2026-04-19T10:07:00.258Z</time></trkpt><trkpt lat="43.3467217" lon="13.036913"><ele>973.0</ele><time>2026-04-19T10:07:01.258Z</time></trkpt><trkpt lat="43.3466166" lon="13.0369605"><ele>976.0</ele><time>2026-04-19T10:07:02.257Z</time></trkpt><trkpt lat="43.3464986" lon="13.0370317"><ele>980.25</ele><time>2026-04-19T10:07:03.257Z</time></trkpt><trkpt lat="43.3463719" lon="13.0371325"><ele>984.5</ele><time>2026-04-19T10:07:04.256Z</time></trkpt><trkpt lat="43.3462484" lon="13.0372493"><ele>988.75</ele><time>2026-04-19T10:07:05.258Z</time></trkpt><trkpt lat="43.3461441" lon="13.0373617"><ele>993.0</ele><time>2026-04-19T10:07:06.258Z</time></trkpt><trkpt lat="43.3460566" lon="13.0374584"><ele>989.1666666666666</ele><time>2026-04-19T10:07:07.258Z</time></trkpt><trkpt lat="43.3459916" lon="13.0375286"><ele>985.3333333333333</ele><time>2026-04-19T10:07:08.257Z</time></trkpt><trkpt lat="43.3459358" lon="13.0375867"><ele>981.5</ele><time>2026-04-19T10:07:09.258Z</time></trkpt><trkpt lat="43.345846" lon="13.0376692"><ele>977.6666666666666</ele><time>2026-04-19T10:07:11.258Z</time></trkpt><trkpt lat="43.3457759" lon="13.0377192"><ele>973.8333333333333</ele><time>2026-04-19T10:07:13.258Z</time></trkpt><trkpt lat="43.3457158" lon="13.0377834"><ele>970.0</ele><time>2026-04-19T10:07:15.256Z</time></trkpt><trkpt lat="43.3457088" lon="13.0378831"><ele>969.9999999999999</ele><time>2026-04-19T10:07:30.258Z</time></trkpt><trkpt lat="43.3457768" lon="13.037884"><ele>970.0</ele><time>2026-04-19T10:07:34.258Z</time></trkpt><trkpt lat="43.345872" lon="13.0378049"><ele>970.0</ele><time>2026-04-19T10:10:19.258Z</time></trkpt><trkpt lat="43.345933" lon="13.0377489"><ele>970.0</ele><time>2026-04-19T10:10:20.257Z</time></trkpt><trkpt lat="43.3460001" lon="13.037682"><ele>969.9999999999999</ele><time>2026-04-19T10:10:21.258Z</time></trkpt><trkpt lat="43.3460749" lon="13.0376097"><ele>970.0</ele><time>2026-04-19T10:10:22.258Z</time></trkpt><trkpt lat="43.3461541" lon="13.0375337"><ele>971.2</ele><time>2026-04-19T10:10:23.258Z</time></trkpt><trkpt lat="43.346241" lon="13.0374483"><ele>972.4</ele><time>2026-04-19T10:10:24.257Z</time></trkpt><trkpt lat="43.3463275" lon="13.0373647"><ele>973.5999999999999</ele><time>2026-04-19T10:10:25.257Z</time></trkpt><trkpt lat="43.346422" lon="13.0372953"><ele>974.8</ele><time>2026-04-19T10:10:26.257Z</time></trkpt><trkpt lat="43.3465246" lon="13.0372451"><ele>976.0</ele><time>2026-04-19T10:10:27.258Z</time></trkpt><trkpt lat="43.3466336" lon="13.0372216"><ele>976.0</ele><time>2026-04-19T10:10:28.257Z</time></trkpt><trkpt lat="43.3467418" lon="13.0371996"><ele>976.0</ele><time>2026-04-19T10:10:29.237Z</time></trkpt><trkpt lat="43.3468559" lon="13.0371868"><ele>976.0</ele><time>2026-04-19T10:10:30.238Z</time></trkpt><trkpt lat="43.3469746" lon="13.0371808"><ele>976.0</ele><time>2026-04-19T10:10:31.238Z</time></trkpt><trkpt lat="43.347084" lon="13.0371766"><ele>976.0</ele><time>2026-04-19T10:10:32.258Z</time></trkpt><trkpt lat="43.3472056" lon="13.037176"><ele>975.9999999999999</ele><time>2026-04-19T10:10:33.258Z</time></trkpt><trkpt lat="43.3473221" lon="13.0371834"><ele>975.9999999999999</ele><time>2026-04-19T10:10:34.258Z</time></trkpt><trkpt lat="43.3474322" lon="13.0372009"><ele>976.0</ele><time>2026-04-19T10:10:35.257Z</time></trkpt><trkpt lat="43.3475304" lon="13.0372231"><ele>976.0</ele><time>2026-04-19T10:10:36.258Z</time></trkpt><trkpt lat="43.3476216" lon="13.0372434"><ele>973.9999999999999</ele><time>2026-04-19T10:10:37.258Z</time></trkpt><trkpt lat="43.347709" lon="13.0372594"><ele>972.0</ele><time>2026-04-19T10:10:38.258Z</time></trkpt><trkpt lat="43.3477907" lon="13.0372788"><ele>970.0</ele><time>2026-04-19T10:10:39.257Z</time></trkpt><trkpt lat="43.347875" lon="13.0372983"><ele>968.0</ele><time>2026-04-19T10:10:40.258Z</time></trkpt><trkpt lat="43.3479532" lon="13.0373291"><ele>965.9999999999999</ele><time>2026-04-19T10:10:41.257Z</time></trkpt><trkpt lat="43.3480238" lon="13.0373726"><ele>964.0</ele><time>2026-04-19T10:10:42.257Z</time></trkpt><trkpt lat="43.3480844" lon="13.0374367"><ele>958.8000000000001</ele><time>2026-04-19T10:10:43.258Z</time></trkpt><trkpt lat="43.3481447" lon="13.0375256"><ele>953.6000000000001</ele><time>2026-04-19T10:10:44.257Z</time></trkpt><trkpt lat="43.3482108" lon="13.0376343"><ele>948.4</ele><time>2026-04-19T10:10:45.258Z</time></trkpt><trkpt lat="43.3482803" lon="13.037757"><ele>943.2</ele><time>2026-04-19T10:10:46.258Z</time></trkpt><trkpt lat="43.3483411" lon="13.0378725"><ele>938.0</ele><time>2026-04-19T10:10:47.258Z</time></trkpt><trkpt lat="43.3484026" lon="13.0379881"><ele>938.0000000000001</ele><time>2026-04-19T10:10:48.257Z</time></trkpt><trkpt lat="43.3484641" lon="13.0381002"><ele>938.0</ele><time>2026-04-19T10:10:49.258Z</time></trkpt><trkpt lat="43.3485199" lon="13.0382095"><ele>938.0</ele><time>2026-04-19T10:10:50.258Z</time></trkpt><trkpt lat="43.3485686" lon="13.038316"><ele>938.0</ele><time>2026-04-19T10:10:51.258Z</time></trkpt><trkpt lat="43.3486113" lon="13.0384071"><ele>938.0000000000001</ele><time>2026-04-19T10:10:52.257Z</time></trkpt><trkpt lat="43.3486441" lon="13.0384942"><ele>938.0</ele><time>2026-04-19T10:10:53.257Z</time></trkpt><trkpt lat="43.34867" lon="13.0385778"><ele>933.2</ele><time>2026-04-19T10:10:54.258Z</time></trkpt><trkpt lat="43.3486863" lon="13.0386632"><ele>928.4</ele><time>2026-04-19T10:10:55.257Z</time></trkpt><trkpt lat="43.3486756" lon="13.038812"><ele>923.6000000000001</ele><time>2026-04-19T10:10:57.258Z</time></trkpt><trkpt lat="43.3486373" lon="13.0389775"><ele>918.8000000000001</ele><time>2026-04-19T10:10:59.258Z</time></trkpt><trkpt lat="43.3485759" lon="13.0391063"><ele>914.0</ele><time>2026-04-19T10:11:01.258Z</time></trkpt><trkpt lat="43.3484944" lon="13.0391862"><ele>911.8000000000001</ele><time>2026-04-19T10:11:03.258Z</time></trkpt><trkpt lat="43.3483908" lon="13.0392281"><ele>909.6000000000001</ele><time>2026-04-19T10:11:05.258Z</time></trkpt><trkpt lat="43.3482629" lon="13.0392706"><ele>907.4</ele><time>2026-04-19T10:11:07.258Z</time></trkpt><trkpt lat="43.3481813" lon="13.0392997"><ele>905.2</ele><time>2026-04-19T10:11:08.257Z</time></trkpt><trkpt lat="43.3480977" lon="13.0393257"><ele>903.0</ele><time>2026-04-19T10:11:09.258Z</time></trkpt><trkpt lat="43.3480052" lon="13.0393518"><ele>903.0</ele><time>2026-04-19T10:11:10.258Z</time></trkpt><trkpt lat="43.3479127" lon="13.0393881"><ele>903.0</ele><time>2026-04-19T10:11:11.257Z</time></trkpt><trkpt lat="43.3478255" lon="13.0394332"><ele>903.0</ele><time>2026-04-19T10:11:12.258Z</time></trkpt><trkpt lat="43.3477439" lon="13.0394965"><ele>903.0</ele><time>2026-04-19T10:11:13.258Z</time></trkpt><trkpt lat="43.3476849" lon="13.0395788"><ele>903.0</ele><time>2026-04-19T10:11:14.257Z</time></trkpt><trkpt lat="43.3476278" lon="13.0396653"><ele>903.0</ele><time>2026-04-19T10:11:15.257Z</time></trkpt><trkpt lat="43.3475778" lon="13.0397566"><ele>903.0</ele><time>2026-04-19T10:11:16.257Z</time></trkpt><trkpt lat="43.3475338" lon="13.039853"><ele>903.0</ele><time>2026-04-19T10:11:17.257Z</time></trkpt><trkpt lat="43.3474893" lon="13.0399405"><ele>903.0</ele><time>2026-04-19T10:11:18.256Z</time></trkpt><trkpt lat="43.3474497" lon="13.0400293"><ele>903.0</ele><time>2026-04-19T10:11:19.257Z</time></trkpt><trkpt lat="43.3474068" lon="13.0401209"><ele>903.0</ele><time>2026-04-19T10:11:20.257Z</time></trkpt><trkpt lat="43.3473625" lon="13.0402104"><ele>903.0</ele><time>2026-04-19T10:11:21.258Z</time></trkpt><trkpt lat="43.3473109" lon="13.0403038"><ele>903.0</ele><time>2026-04-19T10:11:22.258Z</time></trkpt><trkpt lat="43.3472594" lon="13.0403998"><ele>903.0</ele><time>2026-04-19T10:11:23.257Z</time></trkpt><trkpt lat="43.347204" lon="13.040501"><ele>903.0</ele><time>2026-04-19T10:11:24.258Z</time></trkpt><trkpt lat="43.347147" lon="13.0405986"><ele>903.0</ele><time>2026-04-19T10:11:25.256Z</time></trkpt><trkpt lat="43.3470955" lon="13.0406977"><ele>903.0</ele><time>2026-04-19T10:11:26.257Z</time></trkpt><trkpt lat="43.3470412" lon="13.0407935"><ele>900.1666666666666</ele><time>2026-04-19T10:11:27.257Z</time></trkpt><trkpt lat="43.3469854" lon="13.0408921"><ele>897.3333333333333</ele><time>2026-04-19T10:11:28.258Z</time></trkpt><trkpt lat="43.3469229" lon="13.0409872"><ele>894.5</ele><time>2026-04-19T10:11:29.258Z</time></trkpt><trkpt lat="43.346858" lon="13.0410787"><ele>891.6666666666666</ele><time>2026-04-19T10:11:30.257Z</time></trkpt><trkpt lat="43.3467988" lon="13.0411455"><ele>888.8333333333333</ele><time>2026-04-19T10:11:31.257Z</time></trkpt><trkpt lat="43.346748" lon="13.041199"><ele>886.0</ele><time>2026-04-19T10:11:32.257Z</time></trkpt><trkpt lat="43.3466845" lon="13.0413086"><ele>886.0</ele><time>2026-04-19T10:11:34.258Z</time></trkpt><trkpt lat="43.3466887" lon="13.0414354"><ele>885.9999999999999</ele><time>2026-04-19T10:11:36.258Z</time></trkpt><trkpt lat="43.3467158" lon="13.0415798"><ele>885.9999999999999</ele><time>2026-04-19T10:11:38.258Z</time></trkpt><trkpt lat="43.3467563" lon="13.0417247"><ele>886.0</ele><time>2026-04-19T10:11:40.257Z</time></trkpt><trkpt lat="43.3468051" lon="13.0418875"><ele>886.0</ele><time>2026-04-19T10:11:42.258Z</time></trkpt><trkpt lat="43.346835" lon="13.0419787"><ele>882.6666666666666</ele><time>2026-04-19T10:11:43.258Z</time></trkpt><trkpt lat="43.3468628" lon="13.0420623"><ele>879.3333333333333</ele><time>2026-04-19T10:11:44.258Z</time></trkpt><trkpt lat="43.3468951" lon="13.0421511"><ele>876.0</ele><time>2026-04-19T10:11:45.258Z</time></trkpt><trkpt lat="43.3469206" lon="13.0422312"><ele>872.6666666666667</ele><time>2026-04-19T10:11:46.257Z</time></trkpt><trkpt lat="43.3469764" lon="13.0423417"><ele>869.3333333333334</ele><time>2026-04-19T10:11:48.258Z</time></trkpt><trkpt lat="43.347057" lon="13.0424079"><ele>866.0</ele><time>2026-04-19T10:11:50.256Z</time></trkpt><trkpt lat="43.3471347" lon="13.0424251"><ele>866.0</ele><time>2026-04-19T10:11:52.257Z</time></trkpt><trkpt lat="43.3472066" lon="13.042438"><ele>865.9999999999999</ele><time>2026-04-19T10:11:55.257Z</time></trkpt><trkpt lat="43.3472802" lon="13.0424295"><ele>865.9999999999999</ele><time>2026-04-19T10:12:19.257Z</time></trkpt><trkpt lat="43.3473706" lon="13.0424309"><ele>866.0</ele><time>2026-04-19T10:12:21.257Z</time></trkpt><trkpt lat="43.3474844" lon="13.0424434"><ele>866.0</ele><time>2026-04-19T10:12:23.258Z</time></trkpt><trkpt lat="43.3475923" lon="13.0424568"><ele>859.4</ele><time>2026-04-19T10:12:25.257Z</time></trkpt><trkpt lat="43.3476882" lon="13.0424768"><ele>852.8</ele><time>2026-04-19T10:12:27.258Z</time></trkpt><trkpt lat="43.3477888" lon="13.0424947"><ele>846.1999999999999</ele><time>2026-04-19T10:12:29.256Z</time></trkpt><trkpt lat="43.3479007" lon="13.0425145"><ele>839.5999999999999</ele><time>2026-04-19T10:12:31.257Z</time></trkpt><trkpt lat="43.3480155" lon="13.04253"><ele>833.0</ele><time>2026-04-19T10:12:33.256Z</time></trkpt><trkpt lat="43.3481096" lon="13.0425478"><ele>829.2857142857143</ele><time>2026-04-19T10:12:35.257Z</time></trkpt><trkpt lat="43.34818" lon="13.0425696"><ele>825.5714285714286</ele><time>2026-04-19T10:12:37.257Z</time></trkpt><trkpt lat="43.348251" lon="13.0425881"><ele>821.8571428571429</ele><time>2026-04-19T10:12:39.257Z</time></trkpt><trkpt lat="43.3483207" lon="13.0426203"><ele>818.1428571428571</ele><time>2026-04-19T10:12:41.258Z</time></trkpt><trkpt lat="43.3483859" lon="13.0426567"><ele>814.4285714285714</ele><time>2026-04-19T10:12:43.258Z</time></trkpt><trkpt lat="43.3484427" lon="13.0427232"><ele>810.7142857142858</ele><time>2026-04-19T10:12:47.258Z</time></trkpt><trkpt lat="43.3484333" lon="13.0428142"><ele>807.0</ele><time>2026-04-19T10:12:50.258Z</time></trkpt><trkpt lat="43.3484127" lon="13.0429001"><ele>807.0</ele><time>2026-04-19T10:12:53.257Z</time></trkpt><trkpt lat="43.3483891" lon="13.0429897"><ele>807.0</ele><time>2026-04-19T10:12:59.258Z</time></trkpt><trkpt lat="43.3483656" lon="13.0431372"><ele>807.0</ele><time>2026-04-19T10:13:01.257Z</time></trkpt><trkpt lat="43.3483544" lon="13.0432391"><ele>807.0</ele><time>2026-04-19T10:13:02.257Z</time></trkpt><trkpt lat="43.3483272" lon="13.0433505"><ele>807.0</ele><time>2026-04-19T10:13:03.257Z</time></trkpt><trkpt lat="43.3482974" lon="13.0434567"><ele>807.0</ele><time>2026-04-19T10:13:04.258Z</time></trkpt><trkpt lat="43.3482566" lon="13.0435557"><ele>805.3333333333334</ele><time>2026-04-19T10:13:05.258Z</time></trkpt><trkpt lat="43.3482099" lon="13.0436363"><ele>803.6666666666667</ele><time>2026-04-19T10:13:06.256Z</time></trkpt><trkpt lat="43.3481572" lon="13.0436992"><ele>802.0</ele><time>2026-04-19T10:13:07.256Z</time></trkpt><trkpt lat="43.3481145" lon="13.043764"><ele>800.3333333333334</ele><time>2026-04-19T10:13:08.257Z</time></trkpt><trkpt lat="43.3480616" lon="13.0438145"><ele>798.6666666666667</ele><time>2026-04-19T10:13:09.257Z</time></trkpt><trkpt lat="43.3479757" lon="13.0438685"><ele>797.0</ele><time>2026-04-19T10:13:10.258Z</time></trkpt><trkpt lat="43.3478692" lon="13.0439226"><ele>795.8</ele><time>2026-04-19T10:13:11.258Z</time></trkpt><trkpt lat="43.3477641" lon="13.0439767"><ele>794.6</ele><time>2026-04-19T10:13:12.257Z</time></trkpt><trkpt lat="43.3476626" lon="13.044031"><ele>793.4</ele><time>2026-04-19T10:13:13.258Z</time></trkpt><trkpt lat="43.347555" lon="13.044075"><ele>792.1999999999999</ele><time>2026-04-19T10:13:14.258Z</time></trkpt><trkpt lat="43.3474555" lon="13.0441078"><ele>791.0</ele><time>2026-04-19T10:13:15.257Z</time></trkpt><trkpt lat="43.347379" lon="13.0441597"><ele>791.0</ele><time>2026-04-19T10:13:16.257Z</time></trkpt><trkpt lat="43.3473027" lon="13.0441846"><ele>791.0</ele><time>2026-04-19T10:13:17.258Z</time></trkpt><trkpt lat="43.3472399" lon="13.0442396"><ele>791.0</ele><time>2026-04-19T10:13:18.257Z</time></trkpt><trkpt lat="43.3471748" lon="13.0442655"><ele>791.0</ele><time>2026-04-19T10:13:19.257Z</time></trkpt><trkpt lat="43.3471095" lon="13.0442903"><ele>791.0</ele><time>2026-04-19T10:13:20.257Z</time></trkpt><trkpt lat="43.3470353" lon="13.0443123"><ele>791.0</ele><time>2026-04-19T10:13:21.258Z</time></trkpt><trkpt lat="43.3469559" lon="13.044349"><ele>791.0</ele><time>2026-04-19T10:13:22.257Z</time></trkpt><trkpt lat="43.346877" lon="13.0443863"><ele>791.5000000000001</ele><time>2026-04-19T10:13:23.258Z</time></trkpt><trkpt lat="43.3467892" lon="13.0444131"><ele>792.0</ele><time>2026-04-19T10:13:24.257Z</time></trkpt><trkpt lat="43.3467118" lon="13.0444227"><ele>792.5</ele><time>2026-04-19T10:13:25.258Z</time></trkpt><trkpt lat="43.3466348" lon="13.0444224"><ele>793.0</ele><time>2026-04-19T10:13:26.257Z</time></trkpt><trkpt lat="43.3465548" lon="13.044406"><ele>793.5000000000001</ele><time>2026-04-19T10:13:27.257Z</time></trkpt><trkpt lat="43.346483" lon="13.0444022"><ele>794.0</ele><time>2026-04-19T10:13:28.257Z</time></trkpt><trkpt lat="43.3463761" lon="13.0443991"><ele>795.6</ele><time>2026-04-19T10:13:30.258Z</time></trkpt><trkpt lat="43.3462682" lon="13.0444278"><ele>797.2</ele><time>2026-04-19T10:13:32.257Z</time></trkpt><trkpt lat="43.346206" lon="13.0444859"><ele>798.8000000000001</ele><time>2026-04-19T10:13:33.258Z</time></trkpt><trkpt lat="43.3461265" lon="13.0445754"><ele>800.4000000000001</ele><time>2026-04-19T10:13:34.256Z</time></trkpt><trkpt lat="43.3460331" lon="13.0446796"><ele>802.0</ele><time>2026-04-19T10:13:35.258Z</time></trkpt><trkpt lat="43.3459459" lon="13.0447711"><ele>802.0</ele><time>2026-04-19T10:13:36.257Z</time></trkpt><trkpt lat="43.3458616" lon="13.0448432"><ele>802.0</ele><time>2026-04-19T10:13:37.258Z</time></trkpt><trkpt lat="43.3457826" lon="13.0449078"><ele>802.0</ele><time>2026-04-19T10:13:38.258Z</time></trkpt><trkpt lat="43.3456936" lon="13.044942"><ele>802.0</ele><time>2026-04-19T10:13:39.258Z</time></trkpt><trkpt lat="43.3455889" lon="13.0449596"><ele>802.0</ele><time>2026-04-19T10:13:40.258Z</time></trkpt><trkpt lat="43.3454689" lon="13.0449623"><ele>796.25</ele><time>2026-04-19T10:13:41.256Z</time></trkpt><trkpt lat="43.3453356" lon="13.0449689"><ele>790.5</ele><time>2026-04-19T10:13:42.258Z</time></trkpt><trkpt lat="43.3452048" lon="13.0449864"><ele>784.75</ele><time>2026-04-19T10:13:43.258Z</time></trkpt><trkpt lat="43.3450781" lon="13.0449914"><ele>779.0</ele><time>2026-04-19T10:13:44.258Z</time></trkpt><trkpt lat="43.3449442" lon="13.0450275"><ele>779.0</ele><time>2026-04-19T10:13:45.257Z</time></trkpt><trkpt lat="43.3448113" lon="13.0450797"><ele>779.0</ele><time>2026-04-19T10:13:46.257Z</time></trkpt><trkpt lat="43.3446933" lon="13.045149"><ele>779.0</ele><time>2026-04-19T10:13:47.257Z</time></trkpt><trkpt lat="43.3445661" lon="13.0452008"><ele>779.0</ele><time>2026-04-19T10:13:48.258Z</time></trkpt><trkpt lat="43.3444321" lon="13.0452515"><ele>779.8000000000001</ele><time>2026-04-19T10:13:49.257Z</time></trkpt><trkpt lat="43.3443059" lon="13.0452765"><ele>780.6</ele><time>2026-04-19T10:13:50.257Z</time></trkpt><trkpt lat="43.3441915" lon="13.0453097"><ele>781.4</ele><time>2026-04-19T10:13:51.256Z</time></trkpt><trkpt lat="43.3440906" lon="13.0453171"><ele>782.2</ele><time>2026-04-19T10:13:52.258Z</time></trkpt><trkpt lat="43.3439892" lon="13.0453192"><ele>783.0</ele><time>2026-04-19T10:13:53.258Z</time></trkpt><trkpt lat="43.343884" lon="13.045299"><ele>782.0</ele><time>2026-04-19T10:13:54.256Z</time></trkpt><trkpt lat="43.3437648" lon="13.0452437"><ele>781.0</ele><time>2026-04-19T10:13:55.256Z</time></trkpt><trkpt lat="43.3436458" lon="13.045202"><ele>780.0</ele><time>2026-04-19T10:13:56.257Z</time></trkpt><trkpt lat="43.3435271" lon="13.0451715"><ele>779.0</ele><time>2026-04-19T10:13:57.257Z</time></trkpt><trkpt lat="43.3434101" lon="13.045144"><ele>779.0000000000001</ele><time>2026-04-19T10:13:58.256Z</time></trkpt><trkpt lat="43.3433" lon="13.0451393"><ele>779.0</ele><time>2026-04-19T10:13:59.257Z</time></trkpt><trkpt lat="43.3432127" lon="13.0451411"><ele>779.0</ele><time>2026-04-19T10:14:00.257Z</time></trkpt><trkpt lat="43.3431366" lon="13.0451615"><ele>779.0</ele><time>2026-04-19T10:14:01.258Z</time></trkpt><trkpt lat="43.3430385" lon="13.0451834"><ele>779.0000000000001</ele><time>2026-04-19T10:14:03.257Z</time></trkpt><trkpt lat="43.3429768" lon="13.0452301"><ele>779.0</ele><time>2026-04-19T10:15:34.258Z</time></trkpt><trkpt lat="43.3429062" lon="13.0452472"><ele>780.1666666666667</ele><time>2026-04-19T10:27:39.256Z</time></trkpt><trkpt lat="43.3428351" lon="13.0452193"><ele>781.3333333333334</ele><time>2026-04-19T10:27:40.256Z</time></trkpt><trkpt lat="43.3427676" lon="13.0452033"><ele>782.5</ele><time>2026-04-19T10:27:41.256Z</time></trkpt><trkpt lat="43.342636" lon="13.0452256"><ele>783.6666666666667</ele><time>2026-04-19T10:27:43.254Z</time></trkpt><trkpt lat="43.3425747" lon="13.0452619"><ele>784.8333333333334</ele><time>2026-04-19T10:27:44.255Z</time></trkpt><trkpt lat="43.3425106" lon="13.0453021"><ele>786.0</ele><time>2026-04-19T10:27:45.256Z</time></trkpt><trkpt lat="43.3424423" lon="13.0453486"><ele>786.0</ele><time>2026-04-19T10:27:46.256Z</time></trkpt><trkpt lat="43.3423669" lon="13.0454409"><ele>786.0</ele><time>2026-04-19T10:27:47.256Z</time></trkpt><trkpt lat="43.3423076" lon="13.0455075"><ele>786.0</ele><time>2026-04-19T10:27:48.256Z</time></trkpt><trkpt lat="43.3422292" lon="13.0455358"><ele>786.0</ele><time>2026-04-19T10:27:49.255Z</time></trkpt><trkpt lat="43.3421469" lon="13.0455595"><ele>786.0</ele><time>2026-04-19T10:27:50.256Z</time></trkpt><trkpt lat="43.3420537" lon="13.0455703"><ele>786.0</ele><time>2026-04-19T10:27:51.255Z</time></trkpt><trkpt lat="43.3419524" lon="13.0455794"><ele>791.5</ele><time>2026-04-19T10:27:52.256Z</time></trkpt><trkpt lat="43.3418462" lon="13.0455883"><ele>797.0</ele><time>2026-04-19T10:27:53.255Z</time></trkpt><trkpt lat="43.3417328" lon="13.0456015"><ele>802.5</ele><time>2026-04-19T10:27:54.256Z</time></trkpt><trkpt lat="43.3416117" lon="13.0456185"><ele>808.0</ele><time>2026-04-19T10:27:55.256Z</time></trkpt><trkpt lat="43.3414838" lon="13.0456407"><ele>805.75</ele><time>2026-04-19T10:27:56.256Z</time></trkpt><trkpt lat="43.3413493" lon="13.0456943"><ele>803.5</ele><time>2026-04-19T10:27:57.256Z</time></trkpt><trkpt lat="43.3412252" lon="13.04577"><ele>801.25</ele><time>2026-04-19T10:27:58.255Z</time></trkpt><trkpt lat="43.3411011" lon="13.0458747"><ele>799.0</ele><time>2026-04-19T10:27:59.256Z</time></trkpt><trkpt lat="43.3409796" lon="13.0460025"><ele>799.0</ele><time>2026-04-19T10:28:00.255Z</time></trkpt><trkpt lat="43.3408553" lon="13.0461121"><ele>799.0</ele><time>2026-04-19T10:28:01.255Z</time></trkpt><trkpt lat="43.3407259" lon="13.0462134"><ele>799.0</ele><time>2026-04-19T10:28:02.256Z</time></trkpt><trkpt lat="43.3405999" lon="13.0463156"><ele>799.0</ele><time>2026-04-19T10:28:03.256Z</time></trkpt><trkpt lat="43.3404703" lon="13.0464154"><ele>799.25</ele><time>2026-04-19T10:28:04.255Z</time></trkpt><trkpt lat="43.3403412" lon="13.0465116"><ele>799.5</ele><time>2026-04-19T10:28:05.256Z</time></trkpt><trkpt lat="43.340218" lon="13.0466043"><ele>799.75</ele><time>2026-04-19T10:28:06.256Z</time></trkpt><trkpt lat="43.3401005" lon="13.0466886"><ele>800.0</ele><time>2026-04-19T10:28:07.256Z</time></trkpt><trkpt lat="43.3399793" lon="13.0467755"><ele>800.0</ele><time>2026-04-19T10:28:08.255Z</time></trkpt><trkpt lat="43.3398599" lon="13.0468753"><ele>800.0</ele><time>2026-04-19T10:28:09.256Z</time></trkpt><trkpt lat="43.3397376" lon="13.0469724"><ele>800.0</ele><time>2026-04-19T10:28:10.255Z</time></trkpt><trkpt lat="43.3396191" lon="13.0470698"><ele>800.0</ele><time>2026-04-19T10:28:11.255Z</time></trkpt><trkpt lat="43.3395039" lon="13.0471634"><ele>799.25</ele><time>2026-04-19T10:28:12.256Z</time></trkpt><trkpt lat="43.3393821" lon="13.0472446"><ele>798.5</ele><time>2026-04-19T10:28:13.255Z</time></trkpt><trkpt lat="43.3392529" lon="13.0473251"><ele>797.75</ele><time>2026-04-19T10:28:14.255Z</time></trkpt><trkpt lat="43.3391141" lon="13.04742"><ele>797.0</ele><time>2026-04-19T10:28:15.256Z</time></trkpt><trkpt lat="43.338973" lon="13.0475152"><ele>802.5</ele><time>2026-04-19T10:28:16.254Z</time></trkpt><trkpt lat="43.3388383" lon="13.0476052"><ele>808.0</ele><time>2026-04-19T10:28:17.255Z</time></trkpt><trkpt lat="43.3387164" lon="13.0476852"><ele>813.5</ele><time>2026-04-19T10:28:18.255Z</time></trkpt><trkpt lat="43.3385937" lon="13.0477546"><ele>819.0</ele><time>2026-04-19T10:28:19.256Z</time></trkpt><trkpt lat="43.3384796" lon="13.0478106"><ele>819.0</ele><time>2026-04-19T10:28:20.256Z</time></trkpt><trkpt lat="43.338366" lon="13.0478639"><ele>819.0</ele><time>2026-04-19T10:28:21.255Z</time></trkpt><trkpt lat="43.338258" lon="13.0479262"><ele>819.0</ele><time>2026-04-19T10:28:22.256Z</time></trkpt><trkpt lat="43.3381647" lon="13.0479988"><ele>819.0</ele><time>2026-04-19T10:28:23.255Z</time></trkpt><trkpt lat="43.3380863" lon="13.048085"><ele>819.0</ele><time>2026-04-19T10:28:24.255Z</time></trkpt><trkpt lat="43.3380238" lon="13.0481779"><ele>819.5</ele><time>2026-04-19T10:28:25.256Z</time></trkpt><trkpt lat="43.3379813" lon="13.0482755"><ele>820.0</ele><time>2026-04-19T10:28:26.256Z</time></trkpt><trkpt lat="43.3379625" lon="13.0483775"><ele>820.5</ele><time>2026-04-19T10:28:27.256Z</time></trkpt><trkpt lat="43.3379672" lon="13.0484947"><ele>821.0</ele><time>2026-04-19T10:28:28.255Z</time></trkpt><trkpt lat="43.3379974" lon="13.0486184"><ele>821.5</ele><time>2026-04-19T10:28:29.256Z</time></trkpt><trkpt lat="43.3380447" lon="13.0487527"><ele>822.0</ele><time>2026-04-19T10:28:30.256Z</time></trkpt><trkpt lat="43.3381067" lon="13.0488829"><ele>821.0</ele><time>2026-04-19T10:28:31.256Z</time></trkpt><trkpt lat="43.3381796" lon="13.0489904"><ele>820.0</ele><time>2026-04-19T10:28:32.256Z</time></trkpt><trkpt lat="43.3382576" lon="13.0490576"><ele>819.0</ele><time>2026-04-19T10:28:33.256Z</time></trkpt><trkpt lat="43.3383484" lon="13.0490999"><ele>818.0</ele><time>2026-04-19T10:28:34.256Z</time></trkpt><trkpt lat="43.3384658" lon="13.0491189"><ele>817.0</ele><time>2026-04-19T10:28:35.255Z</time></trkpt><trkpt lat="43.3385937" lon="13.0491358"><ele>817.0</ele><time>2026-04-19T10:28:36.256Z</time></trkpt><trkpt lat="43.3387211" lon="13.0491555"><ele>817.0</ele><time>2026-04-19T10:28:37.255Z</time></trkpt><trkpt lat="43.3388448" lon="13.0491831"><ele>817.0</ele><time>2026-04-19T10:28:38.256Z</time></trkpt><trkpt lat="43.3389707" lon="13.0492031"><ele>817.0</ele><time>2026-04-19T10:28:39.256Z</time></trkpt><trkpt lat="43.3390961" lon="13.0492063"><ele>816.25</ele><time>2026-04-19T10:28:40.255Z</time></trkpt><trkpt lat="43.3392172" lon="13.0492253"><ele>815.5</ele><time>2026-04-19T10:28:41.256Z</time></trkpt><trkpt lat="43.3393433" lon="13.0492407"><ele>814.75</ele><time>2026-04-19T10:28:42.256Z</time></trkpt><trkpt lat="43.3394689" lon="13.0492524"><ele>814.0</ele><time>2026-04-19T10:28:43.254Z</time></trkpt><trkpt lat="43.3395845" lon="13.0492547"><ele>814.0</ele><time>2026-04-19T10:28:44.255Z</time></trkpt><trkpt lat="43.3397099" lon="13.0492475"><ele>814.0</ele><time>2026-04-19T10:28:45.255Z</time></trkpt><trkpt lat="43.3398412" lon="13.0492184"><ele>814.0</ele><time>2026-04-19T10:28:46.256Z</time></trkpt><trkpt lat="43.3399713" lon="13.0491923"><ele>814.0</ele><time>2026-04-19T10:28:47.256Z</time></trkpt><trkpt lat="43.3400975" lon="13.0491631"><ele>814.2</ele><time>2026-04-19T10:28:48.256Z</time></trkpt><trkpt lat="43.3402151" lon="13.0491386"><ele>814.4000000000001</ele><time>2026-04-19T10:28:49.255Z</time></trkpt><trkpt lat="43.340325" lon="13.0491187"><ele>814.6</ele><time>2026-04-19T10:28:50.255Z</time></trkpt><trkpt lat="43.3404265" lon="13.0491244"><ele>814.8</ele><time>2026-04-19T10:28:51.256Z</time></trkpt><trkpt lat="43.3405287" lon="13.0491247"><ele>815.0</ele><time>2026-04-19T10:28:52.256Z</time></trkpt><trkpt lat="43.3406495" lon="13.0491364"><ele>815.0</ele><time>2026-04-19T10:28:53.254Z</time></trkpt><trkpt lat="43.3407675" lon="13.0492106"><ele>815.0</ele><time>2026-04-19T10:28:54.256Z</time></trkpt><trkpt lat="43.340886" lon="13.0492616"><ele>815.0</ele><time>2026-04-19T10:28:55.256Z</time></trkpt><trkpt lat="43.3410004" lon="13.0493159"><ele>815.0</ele><time>2026-04-19T10:28:56.255Z</time></trkpt><trkpt lat="43.3411146" lon="13.0493762"><ele>815.0</ele><time>2026-04-19T10:28:57.256Z</time></trkpt><trkpt lat="43.3412289" lon="13.0494216"><ele>815.0</ele><time>2026-04-19T10:28:58.254Z</time></trkpt><trkpt lat="43.3413459" lon="13.0494833"><ele>815.0</ele><time>2026-04-19T10:28:59.256Z</time></trkpt><trkpt lat="43.3414603" lon="13.0495407"><ele>815.0</ele><time>2026-04-19T10:29:00.256Z</time></trkpt><trkpt lat="43.341569" lon="13.0496063"><ele>812.5</ele><time>2026-04-19T10:29:01.256Z</time></trkpt><trkpt lat="43.3416812" lon="13.0496684"><ele>810.0</ele><time>2026-04-19T10:29:02.255Z</time></trkpt><trkpt lat="43.3417991" lon="13.0497597"><ele>807.5</ele><time>2026-04-19T10:29:03.256Z</time></trkpt><trkpt lat="43.3419147" lon="13.0498478"><ele>805.0</ele><time>2026-04-19T10:29:04.256Z</time></trkpt><trkpt lat="43.3420263" lon="13.0499437"><ele>810.5</ele><time>2026-04-19T10:29:05.255Z</time></trkpt><trkpt lat="43.3421343" lon="13.0500304"><ele>816.0</ele><time>2026-04-19T10:29:06.256Z</time></trkpt><trkpt lat="43.3422456" lon="13.0501134"><ele>821.5</ele><time>2026-04-19T10:29:07.255Z</time></trkpt><trkpt lat="43.3423569" lon="13.0501935"><ele>827.0</ele><time>2026-04-19T10:29:08.256Z</time></trkpt><trkpt lat="43.3424634" lon="13.0502478"><ele>827.0</ele><time>2026-04-19T10:29:09.255Z</time></trkpt><trkpt lat="43.3425703" lon="13.0503179"><ele>827.0</ele><time>2026-04-19T10:29:10.256Z</time></trkpt><trkpt lat="43.3426823" lon="13.0503891"><ele>827.0</ele><time>2026-04-19T10:29:11.256Z</time></trkpt><trkpt lat="43.3427951" lon="13.0504567"><ele>827.0</ele><time>2026-04-19T10:29:12.256Z</time></trkpt><trkpt lat="43.3429087" lon="13.0505325"><ele>827.0</ele><time>2026-04-19T10:29:13.254Z</time></trkpt><trkpt lat="43.3430175" lon="13.0506013"><ele>827.0</ele><time>2026-04-19T10:29:14.256Z</time></trkpt><trkpt lat="43.3431243" lon="13.0506737"><ele>827.0</ele><time>2026-04-19T10:29:15.256Z</time></trkpt><trkpt lat="43.343234" lon="13.0507472"><ele>827.0</ele><time>2026-04-19T10:29:16.256Z</time></trkpt><trkpt lat="43.3433439" lon="13.0508292"><ele>831.25</ele><time>2026-04-19T10:29:17.254Z</time></trkpt><trkpt lat="43.3434373" lon="13.0509377"><ele>835.5</ele><time>2026-04-19T10:29:18.256Z</time></trkpt><trkpt lat="43.3435308" lon="13.0510208"><ele>839.75</ele><time>2026-04-19T10:29:19.255Z</time></trkpt><trkpt lat="43.3436295" lon="13.0510986"><ele>844.0</ele><time>2026-04-19T10:29:20.255Z</time></trkpt><trkpt lat="43.3437375" lon="13.0511699"><ele>844.0</ele><time>2026-04-19T10:29:21.255Z</time></trkpt><trkpt lat="43.3438536" lon="13.0512354"><ele>844.0</ele><time>2026-04-19T10:29:22.255Z</time></trkpt><trkpt lat="43.343975" lon="13.0512855"><ele>844.0</ele><time>2026-04-19T10:29:23.256Z</time></trkpt><trkpt lat="43.3441053" lon="13.0513097"><ele>844.0</ele><time>2026-04-19T10:29:24.256Z</time></trkpt><trkpt lat="43.3442266" lon="13.0513319"><ele>840.0</ele><time>2026-04-19T10:29:25.254Z</time></trkpt><trkpt lat="43.3443397" lon="13.0513618"><ele>836.0</ele><time>2026-04-19T10:29:26.256Z</time></trkpt><trkpt lat="43.3444393" lon="13.0513721"><ele>832.0</ele><time>2026-04-19T10:29:27.255Z</time></trkpt><trkpt lat="43.3445366" lon="13.0513872"><ele>828.0</ele><time>2026-04-19T10:29:28.256Z</time></trkpt><trkpt lat="43.3446423" lon="13.0514129"><ele>824.0</ele><time>2026-04-19T10:29:29.256Z</time></trkpt><trkpt lat="43.3447591" lon="13.0514455"><ele>822.25</ele><time>2026-04-19T10:29:30.256Z</time></trkpt><trkpt lat="43.3448815" lon="13.0514842"><ele>820.5</ele><time>2026-04-19T10:29:31.256Z</time></trkpt><trkpt lat="43.3450101" lon="13.0515201"><ele>818.75</ele><time>2026-04-19T10:29:32.255Z</time></trkpt><trkpt lat="43.345136" lon="13.0515568"><ele>817.0</ele><time>2026-04-19T10:29:33.255Z</time></trkpt><trkpt lat="43.3452604" lon="13.0515958"><ele>821.5</ele><time>2026-04-19T10:29:34.256Z</time></trkpt><trkpt lat="43.3453917" lon="13.0516354"><ele>826.0</ele><time>2026-04-19T10:29:35.256Z</time></trkpt><trkpt lat="43.3455207" lon="13.0516756"><ele>830.5</ele><time>2026-04-19T10:29:36.256Z</time></trkpt><trkpt lat="43.3456526" lon="13.0517089"><ele>835.0</ele><time>2026-04-19T10:29:37.256Z</time></trkpt><trkpt lat="43.3457796" lon="13.0517385"><ele>835.0</ele><time>2026-04-19T10:29:38.254Z</time></trkpt><trkpt lat="43.3459056" lon="13.0517642"><ele>835.0</ele><time>2026-04-19T10:29:39.256Z</time></trkpt><trkpt lat="43.3460327" lon="13.0517935"><ele>835.0</ele><time>2026-04-19T10:29:40.255Z</time></trkpt><trkpt lat="43.3461609" lon="13.0518223"><ele>835.0</ele><time>2026-04-19T10:29:41.256Z</time></trkpt><trkpt lat="43.3462942" lon="13.0518462"><ele>836.25</ele><time>2026-04-19T10:29:42.256Z</time></trkpt><trkpt lat="43.3464258" lon="13.0518687"><ele>837.5</ele><time>2026-04-19T10:29:43.256Z</time></trkpt><trkpt lat="43.3465539" lon="13.0518917"><ele>838.75</ele><time>2026-04-19T10:29:44.256Z</time></trkpt><trkpt lat="43.346684" lon="13.0519176"><ele>840.0</ele><time>2026-04-19T10:29:45.255Z</time></trkpt><trkpt lat="43.3468156" lon="13.0519475"><ele>840.0</ele><time>2026-04-19T10:29:46.255Z</time></trkpt><trkpt lat="43.3469505" lon="13.0519772"><ele>840.0</ele><time>2026-04-19T10:29:47.255Z</time></trkpt><trkpt lat="43.3470861" lon="13.0520102"><ele>840.0</ele><time>2026-04-19T10:29:48.256Z</time></trkpt><trkpt lat="43.3472184" lon="13.0520418"><ele>840.0</ele><time>2026-04-19T10:29:49.256Z</time></trkpt><trkpt lat="43.347349" lon="13.0520728"><ele>838.25</ele><time>2026-04-19T10:29:50.256Z</time></trkpt><trkpt lat="43.3474795" lon="13.0521045"><ele>836.5</ele><time>2026-04-19T10:29:51.256Z</time></trkpt><trkpt lat="43.3476107" lon="13.0521371"><ele>834.75</ele><time>2026-04-19T10:29:52.256Z</time></trkpt><trkpt lat="43.3477468" lon="13.0521685"><ele>833.0</ele><time>2026-04-19T10:29:53.255Z</time></trkpt><trkpt lat="43.3478859" lon="13.0521992"><ele>833.0</ele><time>2026-04-19T10:29:54.256Z</time></trkpt><trkpt lat="43.3480283" lon="13.0522294"><ele>833.0</ele><time>2026-04-19T10:29:55.256Z</time></trkpt><trkpt lat="43.348173" lon="13.0522596"><ele>833.0</ele><time>2026-04-19T10:29:56.256Z</time></trkpt><trkpt lat="43.3483182" lon="13.0522925"><ele>833.0</ele><time>2026-04-19T10:29:57.256Z</time></trkpt><trkpt lat="43.3484674" lon="13.0523274"><ele>832.6666666666667</ele><time>2026-04-19T10:29:58.255Z</time></trkpt><trkpt lat="43.3486161" lon="13.0523558"><ele>832.3333333333333</ele><time>2026-04-19T10:29:59.255Z</time></trkpt><trkpt lat="43.3487645" lon="13.0523799"><ele>832.0</ele><time>2026-04-19T10:30:00.256Z</time></trkpt><trkpt lat="43.3489171" lon="13.0524033"><ele>832.75</ele><time>2026-04-19T10:30:01.255Z</time></trkpt><trkpt lat="43.3490662" lon="13.0524246"><ele>833.5</ele><time>2026-04-19T10:30:02.256Z</time></trkpt><trkpt lat="43.3492025" lon="13.0524303"><ele>834.25</ele><time>2026-04-19T10:30:03.255Z</time></trkpt><trkpt lat="43.3493304" lon="13.0524188"><ele>835.0</ele><time>2026-04-19T10:30:04.255Z</time></trkpt><trkpt lat="43.3494625" lon="13.0523995"><ele>835.0</ele><time>2026-04-19T10:30:05.255Z</time></trkpt><trkpt lat="43.3495925" lon="13.0523791"><ele>835.0</ele><time>2026-04-19T10:30:06.256Z</time></trkpt><trkpt lat="43.3497182" lon="13.0523685"><ele>835.0</ele><time>2026-04-19T10:30:07.255Z</time></trkpt><trkpt lat="43.3498446" lon="13.0523761"><ele>835.0</ele><time>2026-04-19T10:30:08.256Z</time></trkpt><trkpt lat="43.3499701" lon="13.0523986"><ele>833.0</ele><time>2026-04-19T10:30:09.255Z</time></trkpt><trkpt lat="43.3500931" lon="13.0524313"><ele>831.0</ele><time>2026-04-19T10:30:10.256Z</time></trkpt><trkpt lat="43.3502195" lon="13.0524817"><ele>829.0</ele><time>2026-04-19T10:30:11.255Z</time></trkpt><trkpt lat="43.350351" lon="13.052543"><ele>827.0</ele><time>2026-04-19T10:30:12.256Z</time></trkpt><trkpt lat="43.3504797" lon="13.0526149"><ele>830.5</ele><time>2026-04-19T10:30:13.255Z</time></trkpt><trkpt lat="43.3506061" lon="13.0527014"><ele>834.0</ele><time>2026-04-19T10:30:14.256Z</time></trkpt><trkpt lat="43.3507302" lon="13.0528028"><ele>837.5</ele><time>2026-04-19T10:30:15.255Z</time></trkpt><trkpt lat="43.350845" lon="13.0529075"><ele>841.0</ele><time>2026-04-19T10:30:16.256Z</time></trkpt><trkpt lat="43.3509541" lon="13.0530107"><ele>841.0</ele><time>2026-04-19T10:30:17.256Z</time></trkpt><trkpt lat="43.351058" lon="13.0531102"><ele>841.0</ele><time>2026-04-19T10:30:18.254Z</time></trkpt><trkpt lat="43.35116" lon="13.053207"><ele>841.0</ele><time>2026-04-19T10:30:19.255Z</time></trkpt><trkpt lat="43.3512585" lon="13.0533082"><ele>841.0</ele><time>2026-04-19T10:30:20.256Z</time></trkpt><trkpt lat="43.3513507" lon="13.0534164"><ele>843.4</ele><time>2026-04-19T10:30:21.255Z</time></trkpt><trkpt lat="43.3514329" lon="13.0535167"><ele>845.8</ele><time>2026-04-19T10:30:22.256Z</time></trkpt><trkpt lat="43.3515093" lon="13.0536035"><ele>848.1999999999999</ele><time>2026-04-19T10:30:23.255Z</time></trkpt><trkpt lat="43.3515867" lon="13.0536742"><ele>850.5999999999999</ele><time>2026-04-19T10:30:24.256Z</time></trkpt><trkpt lat="43.3516725" lon="13.0537342"><ele>853.0</ele><time>2026-04-19T10:30:25.255Z</time></trkpt><trkpt lat="43.3517557" lon="13.0537962"><ele>853.0</ele><time>2026-04-19T10:30:26.256Z</time></trkpt><trkpt lat="43.3518714" lon="13.0538145"><ele>853.0</ele><time>2026-04-19T10:30:27.256Z</time></trkpt><trkpt lat="43.3519843" lon="13.0538396"><ele>853.0</ele><time>2026-04-19T10:30:28.255Z</time></trkpt><trkpt lat="43.3520986" lon="13.0538541"><ele>853.0</ele><time>2026-04-19T10:30:29.256Z</time></trkpt><trkpt lat="43.3522102" lon="13.0538677"><ele>851.5999999999999</ele><time>2026-04-19T10:30:30.256Z</time></trkpt><trkpt lat="43.3523256" lon="13.053879"><ele>850.1999999999999</ele><time>2026-04-19T10:30:31.255Z</time></trkpt><trkpt lat="43.352438" lon="13.0538905"><ele>848.8</ele><time>2026-04-19T10:30:32.256Z</time></trkpt><trkpt lat="43.3525432" lon="13.0539166"><ele>847.4</ele><time>2026-04-19T10:30:33.256Z</time></trkpt><trkpt lat="43.3526465" lon="13.0539319"><ele>846.0</ele><time>2026-04-19T10:30:34.255Z</time></trkpt><trkpt lat="43.3527538" lon="13.0539601"><ele>846.0</ele><time>2026-04-19T10:30:35.256Z</time></trkpt><trkpt lat="43.3528602" lon="13.0540123"><ele>846.0</ele><time>2026-04-19T10:30:36.255Z</time></trkpt><trkpt lat="43.3529708" lon="13.0540669"><ele>846.0</ele><time>2026-04-19T10:30:37.255Z</time></trkpt><trkpt lat="43.3530688" lon="13.0541227"><ele>846.0</ele><time>2026-04-19T10:30:38.256Z</time></trkpt><trkpt lat="43.3531684" lon="13.0542173"><ele>851.0</ele><time>2026-04-19T10:30:39.256Z</time></trkpt><trkpt lat="43.3532658" lon="13.0543107"><ele>856.0</ele><time>2026-04-19T10:30:40.255Z</time></trkpt><trkpt lat="43.3533643" lon="13.0544082"><ele>861.0</ele><time>2026-04-19T10:30:41.255Z</time></trkpt><trkpt lat="43.3534472" lon="13.0545204"><ele>866.0</ele><time>2026-04-19T10:30:42.255Z</time></trkpt><trkpt lat="43.3535291" lon="13.0546186"><ele>866.0</ele><time>2026-04-19T10:30:43.256Z</time></trkpt><trkpt lat="43.3535834" lon="13.0547123"><ele>865.9999999999999</ele><time>2026-04-19T10:30:44.256Z</time></trkpt><trkpt lat="43.3536532" lon="13.0548106"><ele>865.9999999999999</ele><time>2026-04-19T10:30:45.255Z</time></trkpt><trkpt lat="43.353721" lon="13.0549238"><ele>866.0</ele><time>2026-04-19T10:30:46.256Z</time></trkpt><trkpt lat="43.3537638" lon="13.0550357"><ele>866.0</ele><time>2026-04-19T10:30:47.256Z</time></trkpt><trkpt lat="43.3538301" lon="13.0551515"><ele>866.25</ele><time>2026-04-19T10:30:48.255Z</time></trkpt><trkpt lat="43.3539034" lon="13.0552635"><ele>866.5</ele><time>2026-04-19T10:30:49.255Z</time></trkpt><trkpt lat="43.353973" lon="13.0553843"><ele>866.75</ele><time>2026-04-19T10:30:50.256Z</time></trkpt><trkpt lat="43.3540381" lon="13.0555172"><ele>867.0</ele><time>2026-04-19T10:30:51.255Z</time></trkpt><trkpt lat="43.3541245" lon="13.055632"><ele>867.0</ele><time>2026-04-19T10:30:52.256Z</time></trkpt><trkpt lat="43.3541968" lon="13.0557458"><ele>867.0</ele><time>2026-04-19T10:30:53.254Z</time></trkpt><trkpt lat="43.3542651" lon="13.0558523"><ele>867.0</ele><time>2026-04-19T10:30:54.255Z</time></trkpt><trkpt lat="43.3543362" lon="13.0559758"><ele>867.0</ele><time>2026-04-19T10:30:55.256Z</time></trkpt><trkpt lat="43.3543998" lon="13.0560947"><ele>867.0</ele><time>2026-04-19T10:30:56.256Z</time></trkpt><trkpt lat="43.3544677" lon="13.0562305"><ele>867.25</ele><time>2026-04-19T10:30:57.255Z</time></trkpt><trkpt lat="43.3545403" lon="13.056376"><ele>867.5</ele><time>2026-04-19T10:30:58.255Z</time></trkpt><trkpt lat="43.354614" lon="13.0565261"><ele>867.75</ele><time>2026-04-19T10:30:59.256Z</time></trkpt><trkpt lat="43.3546893" lon="13.0566787"><ele>868.0</ele><time>2026-04-19T10:31:00.255Z</time></trkpt><trkpt lat="43.3547607" lon="13.056833"><ele>868.0</ele><time>2026-04-19T10:31:01.256Z</time></trkpt><trkpt lat="43.3548315" lon="13.0569796"><ele>868.0</ele><time>2026-04-19T10:31:02.256Z</time></trkpt><trkpt lat="43.3549039" lon="13.0571186"><ele>868.0</ele><time>2026-04-19T10:31:03.255Z</time></trkpt><trkpt lat="43.3549767" lon="13.0572501"><ele>868.0</ele><time>2026-04-19T10:31:04.255Z</time></trkpt><trkpt lat="43.3550439" lon="13.0573727"><ele>870.4</ele><time>2026-04-19T10:31:05.256Z</time></trkpt><trkpt lat="43.3551027" lon="13.0574843"><ele>872.8</ele><time>2026-04-19T10:31:06.255Z</time></trkpt><trkpt lat="43.3551484" lon="13.0575859"><ele>875.2</ele><time>2026-04-19T10:31:07.255Z</time></trkpt><trkpt lat="43.355173" lon="13.0576873"><ele>877.6</ele><time>2026-04-19T10:31:08.255Z</time></trkpt><trkpt lat="43.3551696" lon="13.0577764"><ele>880.0</ele><time>2026-04-19T10:31:09.255Z</time></trkpt><trkpt lat="43.3551026" lon="13.0579254"><ele>880.0</ele><time>2026-04-19T10:31:11.256Z</time></trkpt><trkpt lat="43.355041" lon="13.0579905"><ele>880.0</ele><time>2026-04-19T10:31:12.255Z</time></trkpt><trkpt lat="43.3549464" lon="13.0580734"><ele>880.0</ele><time>2026-04-19T10:31:13.256Z</time></trkpt><trkpt lat="43.3548322" lon="13.0581756"><ele>880.0</ele><time>2026-04-19T10:31:14.256Z</time></trkpt><trkpt lat="43.3547109" lon="13.0582895"><ele>884.6666666666666</ele><time>2026-04-19T10:31:15.255Z</time></trkpt><trkpt lat="43.3545855" lon="13.0584075"><ele>889.3333333333333</ele><time>2026-04-19T10:31:16.256Z</time></trkpt><trkpt lat="43.3544559" lon="13.0585255"><ele>894.0</ele><time>2026-04-19T10:31:17.256Z</time></trkpt><trkpt lat="43.3543262" lon="13.0586427"><ele>894.0</ele><time>2026-04-19T10:31:18.256Z</time></trkpt><trkpt lat="43.3542108" lon="13.0587559"><ele>894.0</ele><time>2026-04-19T10:31:19.256Z</time></trkpt><trkpt lat="43.354099" lon="13.0588717"><ele>894.0</ele><time>2026-04-19T10:31:20.256Z</time></trkpt><trkpt lat="43.3539862" lon="13.0589887"><ele>894.0</ele><time>2026-04-19T10:31:21.256Z</time></trkpt><trkpt lat="43.3538746" lon="13.0591014"><ele>896.75</ele><time>2026-04-19T10:31:22.256Z</time></trkpt><trkpt lat="43.3537606" lon="13.0592104"><ele>899.5</ele><time>2026-04-19T10:31:23.255Z</time></trkpt><trkpt lat="43.3536476" lon="13.0593083"><ele>902.25</ele><time>2026-04-19T10:31:24.255Z</time></trkpt><trkpt lat="43.3535387" lon="13.0593995"><ele>905.0</ele><time>2026-04-19T10:31:25.256Z</time></trkpt><trkpt lat="43.3534407" lon="13.0594896"><ele>905.0</ele><time>2026-04-19T10:31:26.255Z</time></trkpt><trkpt lat="43.3533562" lon="13.0595921"><ele>905.0</ele><time>2026-04-19T10:31:27.255Z</time></trkpt><trkpt lat="43.3532877" lon="13.0597153"><ele>905.0</ele><time>2026-04-19T10:31:28.254Z</time></trkpt><trkpt lat="43.3532324" lon="13.0598681"><ele>905.0</ele><time>2026-04-19T10:31:29.256Z</time></trkpt><trkpt lat="43.3531844" lon="13.0600493"><ele>904.25</ele><time>2026-04-19T10:31:30.256Z</time></trkpt><trkpt lat="43.3531381" lon="13.0602321"><ele>903.5</ele><time>2026-04-19T10:31:31.256Z</time></trkpt><trkpt lat="43.3530956" lon="13.0604149"><ele>902.75</ele><time>2026-04-19T10:31:32.256Z</time></trkpt><trkpt lat="43.3530535" lon="13.0605939"><ele>902.0</ele><time>2026-04-19T10:31:33.255Z</time></trkpt><trkpt lat="43.3530063" lon="13.0607776"><ele>905.0</ele><time>2026-04-19T10:31:34.256Z</time></trkpt><trkpt lat="43.3529544" lon="13.0609667"><ele>908.0</ele><time>2026-04-19T10:31:35.255Z</time></trkpt><trkpt lat="43.3528974" lon="13.0611533"><ele>911.0</ele><time>2026-04-19T10:31:36.255Z</time></trkpt><trkpt lat="43.352839" lon="13.0613402"><ele>914.0</ele><time>2026-04-19T10:31:37.256Z</time></trkpt><trkpt lat="43.3527811" lon="13.0615289"><ele>913.25</ele><time>2026-04-19T10:31:38.256Z</time></trkpt><trkpt lat="43.3527238" lon="13.0617174"><ele>912.5</ele><time>2026-04-19T10:31:39.256Z</time></trkpt><trkpt lat="43.3526679" lon="13.0619052"><ele>911.75</ele><time>2026-04-19T10:31:40.255Z</time></trkpt><trkpt lat="43.3526129" lon="13.0620921"><ele>911.0</ele><time>2026-04-19T10:31:41.255Z</time></trkpt><trkpt lat="43.3525612" lon="13.0622744"><ele>909.75</ele><time>2026-04-19T10:31:42.256Z</time></trkpt><trkpt lat="43.3525104" lon="13.062452"><ele>908.5</ele><time>2026-04-19T10:31:43.256Z</time></trkpt><trkpt lat="43.3524636" lon="13.062625"><ele>907.25</ele><time>2026-04-19T10:31:44.255Z</time></trkpt><trkpt lat="43.3524212" lon="13.0627898"><ele>906.0</ele><time>2026-04-19T10:31:45.256Z</time></trkpt><trkpt lat="43.3523826" lon="13.0629427"><ele>906.0</ele><time>2026-04-19T10:31:46.255Z</time></trkpt><trkpt lat="43.3523461" lon="13.0630857"><ele>906.0</ele><time>2026-04-19T10:31:47.254Z</time></trkpt><trkpt lat="43.3523071" lon="13.0632322"><ele>906.0</ele><time>2026-04-19T10:31:48.256Z</time></trkpt><trkpt lat="43.3522629" lon="13.0633872"><ele>906.0</ele><time>2026-04-19T10:31:49.255Z</time></trkpt><trkpt lat="43.3522166" lon="13.0635492"><ele>908.75</ele><time>2026-04-19T10:31:50.255Z</time></trkpt><trkpt lat="43.3521676" lon="13.0637171"><ele>911.5</ele><time>2026-04-19T10:31:51.255Z</time></trkpt><trkpt lat="43.3521139" lon="13.0638885"><ele>914.25</ele><time>2026-04-19T10:31:52.256Z</time></trkpt><trkpt lat="43.3520533" lon="13.0640595"><ele>917.0</ele><time>2026-04-19T10:31:53.256Z</time></trkpt><trkpt lat="43.3519865" lon="13.064219"><ele>917.0</ele><time>2026-04-19T10:31:54.255Z</time></trkpt><trkpt lat="43.3519155" lon="13.0643641"><ele>917.0</ele><time>2026-04-19T10:31:55.256Z</time></trkpt><trkpt lat="43.3518355" lon="13.0645059"><ele>917.0</ele><time>2026-04-19T10:31:56.256Z</time></trkpt><trkpt lat="43.3517474" lon="13.0646348"><ele>917.0</ele><time>2026-04-19T10:31:57.255Z</time></trkpt><trkpt lat="43.3516586" lon="13.0647513"><ele>917.0</ele><time>2026-04-19T10:31:58.255Z</time></trkpt><trkpt lat="43.3515695" lon="13.0648555"><ele>917.0</ele><time>2026-04-19T10:31:59.256Z</time></trkpt><trkpt lat="43.3514707" lon="13.0649552"><ele>917.0</ele><time>2026-04-19T10:32:00.256Z</time></trkpt><trkpt lat="43.3513618" lon="13.0650511"><ele>917.0</ele><time>2026-04-19T10:32:01.256Z</time></trkpt><trkpt lat="43.3512498" lon="13.0651393"><ele>918.75</ele><time>2026-04-19T10:32:02.256Z</time></trkpt><trkpt lat="43.351136" lon="13.0652242"><ele>920.5</ele><time>2026-04-19T10:32:03.256Z</time></trkpt><trkpt lat="43.3510183" lon="13.0653074"><ele>922.25</ele><time>2026-04-19T10:32:04.255Z</time></trkpt><trkpt lat="43.3508979" lon="13.0653849"><ele>924.0</ele><time>2026-04-19T10:32:05.254Z</time></trkpt><trkpt lat="43.350776" lon="13.0654611"><ele>924.0</ele><time>2026-04-19T10:32:06.256Z</time></trkpt><trkpt lat="43.3506518" lon="13.0655375"><ele>924.0</ele><time>2026-04-19T10:32:07.256Z</time></trkpt><trkpt lat="43.3505322" lon="13.0656103"><ele>924.0</ele><time>2026-04-19T10:32:08.256Z</time></trkpt><trkpt lat="43.3504212" lon="13.0656751"><ele>924.0</ele><time>2026-04-19T10:32:09.256Z</time></trkpt><trkpt lat="43.3503129" lon="13.0657331"><ele>922.75</ele><time>2026-04-19T10:32:10.256Z</time></trkpt><trkpt lat="43.3502039" lon="13.0657892"><ele>921.5</ele><time>2026-04-19T10:32:11.256Z</time></trkpt><trkpt lat="43.3500875" lon="13.0658444"><ele>920.25</ele><time>2026-04-19T10:32:12.256Z</time></trkpt><trkpt lat="43.3499652" lon="13.0658945"><ele>919.0</ele><time>2026-04-19T10:32:13.256Z</time></trkpt><trkpt lat="43.349837" lon="13.0659374"><ele>920.25</ele><time>2026-04-19T10:32:14.256Z</time></trkpt><trkpt lat="43.3497059" lon="13.0659756"><ele>921.5</ele><time>2026-04-19T10:32:15.255Z</time></trkpt><trkpt lat="43.3495736" lon="13.0660096"><ele>922.75</ele><time>2026-04-19T10:32:16.255Z</time></trkpt><trkpt lat="43.3494494" lon="13.0660431"><ele>924.0</ele><time>2026-04-19T10:32:17.255Z</time></trkpt><trkpt lat="43.3493339" lon="13.0660769"><ele>924.0</ele><time>2026-04-19T10:32:18.256Z</time></trkpt><trkpt lat="43.3492243" lon="13.0661069"><ele>924.0000000000001</ele><time>2026-04-19T10:32:19.256Z</time></trkpt><trkpt lat="43.3491107" lon="13.0661372"><ele>924.0000000000001</ele><time>2026-04-19T10:32:20.256Z</time></trkpt><trkpt lat="43.3490072" lon="13.0661615"><ele>924.0</ele><time>2026-04-19T10:32:21.254Z</time></trkpt><trkpt lat="43.3489026" lon="13.0661806"><ele>924.0</ele><time>2026-04-19T10:32:22.255Z</time></trkpt><trkpt lat="43.3487949" lon="13.0662002"><ele>924.2</ele><time>2026-04-19T10:32:23.256Z</time></trkpt><trkpt lat="43.3486839" lon="13.0662111"><ele>924.4000000000001</ele><time>2026-04-19T10:32:24.255Z</time></trkpt><trkpt lat="43.3485764" lon="13.0662101"><ele>924.6</ele><time>2026-04-19T10:32:25.256Z</time></trkpt><trkpt lat="43.3484766" lon="13.0662035"><ele>924.8</ele><time>2026-04-19T10:32:26.256Z</time></trkpt><trkpt lat="43.3483817" lon="13.0661888"><ele>925.0</ele><time>2026-04-19T10:32:27.256Z</time></trkpt><trkpt lat="43.3482902" lon="13.066155"><ele>925.0</ele><time>2026-04-19T10:32:28.256Z</time></trkpt><trkpt lat="43.3481974" lon="13.0660933"><ele>925.0</ele><time>2026-04-19T10:32:29.256Z</time></trkpt><trkpt lat="43.3481079" lon="13.0660181"><ele>925.0</ele><time>2026-04-19T10:32:30.256Z</time></trkpt><trkpt lat="43.3480217" lon="13.0659298"><ele>925.0</ele><time>2026-04-19T10:32:31.256Z</time></trkpt><trkpt lat="43.3479385" lon="13.0658282"><ele>925.0</ele><time>2026-04-19T10:32:32.256Z</time></trkpt><trkpt lat="43.3478561" lon="13.0657164"><ele>926.0</ele><time>2026-04-19T10:32:33.256Z</time></trkpt><trkpt lat="43.3477762" lon="13.065601"><ele>927.0</ele><time>2026-04-19T10:32:34.256Z</time></trkpt><trkpt lat="43.3476975" lon="13.0654851"><ele>928.0</ele><time>2026-04-19T10:32:35.256Z</time></trkpt><trkpt lat="43.3476239" lon="13.0653704"><ele>929.0</ele><time>2026-04-19T10:32:36.255Z</time></trkpt><trkpt lat="43.3475485" lon="13.0652509"><ele>929.0</ele><time>2026-04-19T10:32:37.255Z</time></trkpt><trkpt lat="43.3474692" lon="13.0651271"><ele>929.0</ele><time>2026-04-19T10:32:38.255Z</time></trkpt><trkpt lat="43.3473843" lon="13.0650002"><ele>929.0</ele><time>2026-04-19T10:32:39.255Z</time></trkpt><trkpt lat="43.3472972" lon="13.0648697"><ele>929.0</ele><time>2026-04-19T10:32:40.256Z</time></trkpt><trkpt lat="43.3472116" lon="13.064749"><ele>927.75</ele><time>2026-04-19T10:32:41.256Z</time></trkpt><trkpt lat="43.3471273" lon="13.0646297"><ele>926.5</ele><time>2026-04-19T10:32:42.255Z</time></trkpt><trkpt lat="43.3470424" lon="13.0645062"><ele>925.25</ele><time>2026-04-19T10:32:43.256Z</time></trkpt><trkpt lat="43.3469611" lon="13.0643781"><ele>924.0</ele><time>2026-04-19T10:32:44.256Z</time></trkpt><trkpt lat="43.34688" lon="13.0642529"><ele>924.0</ele><time>2026-04-19T10:32:45.256Z</time></trkpt><trkpt lat="43.3467963" lon="13.0641351"><ele>924.0</ele><time>2026-04-19T10:32:46.256Z</time></trkpt><trkpt lat="43.3467074" lon="13.0640201"><ele>924.0</ele><time>2026-04-19T10:32:47.256Z</time></trkpt><trkpt lat="43.3466134" lon="13.0639093"><ele>924.0</ele><time>2026-04-19T10:32:48.256Z</time></trkpt><trkpt lat="43.346523" lon="13.0638066"><ele>924.0</ele><time>2026-04-19T10:32:49.255Z</time></trkpt><trkpt lat="43.3464357" lon="13.0637166"><ele>924.0000000000001</ele><time>2026-04-19T10:32:50.256Z</time></trkpt><trkpt lat="43.3463528" lon="13.063633"><ele>924.0000000000001</ele><time>2026-04-19T10:32:51.256Z</time></trkpt><trkpt lat="43.3462711" lon="13.0635548"><ele>924.0</ele><time>2026-04-19T10:32:52.256Z</time></trkpt><trkpt lat="43.3461964" lon="13.0634824"><ele>924.0</ele><time>2026-04-19T10:32:53.255Z</time></trkpt><trkpt lat="43.3461306" lon="13.0634167"><ele>924.0</ele><time>2026-04-19T10:32:54.255Z</time></trkpt><trkpt lat="43.3460656" lon="13.0633628"><ele>924.0</ele><time>2026-04-19T10:32:55.256Z</time></trkpt><trkpt lat="43.3460029" lon="13.063301"><ele>924.0</ele><time>2026-04-19T10:32:56.256Z</time></trkpt><trkpt lat="43.3459387" lon="13.0632252"><ele>924.0</ele><time>2026-04-19T10:32:57.255Z</time></trkpt><trkpt lat="43.3458703" lon="13.0631303"><ele>924.0</ele><time>2026-04-19T10:32:58.255Z</time></trkpt><trkpt lat="43.3457944" lon="13.0630248"><ele>924.0</ele><time>2026-04-19T10:32:59.255Z</time></trkpt><trkpt lat="43.3457099" lon="13.0629159"><ele>922.5</ele><time>2026-04-19T10:33:00.256Z</time></trkpt><trkpt lat="43.3456207" lon="13.0627967"><ele>921.0</ele><time>2026-04-19T10:33:01.256Z</time></trkpt><trkpt lat="43.3455289" lon="13.0626732"><ele>919.5</ele><time>2026-04-19T10:33:02.254Z</time></trkpt><trkpt lat="43.3454374" lon="13.0625463"><ele>918.0</ele><time>2026-04-19T10:33:03.255Z</time></trkpt><trkpt lat="43.345351" lon="13.0624125"><ele>921.0</ele><time>2026-04-19T10:33:04.256Z</time></trkpt><trkpt lat="43.3452599" lon="13.0622841"><ele>924.0</ele><time>2026-04-19T10:33:05.256Z</time></trkpt><trkpt lat="43.3451574" lon="13.0621429"><ele>927.0</ele><time>2026-04-19T10:33:06.256Z</time></trkpt><trkpt lat="43.3450529" lon="13.0620029"><ele>930.0</ele><time>2026-04-19T10:33:07.255Z</time></trkpt><trkpt lat="43.3449449" lon="13.0618652"><ele>930.0</ele><time>2026-04-19T10:33:08.256Z</time></trkpt><trkpt lat="43.3448393" lon="13.0617334"><ele>930.0</ele><time>2026-04-19T10:33:09.256Z</time></trkpt><trkpt lat="43.3447426" lon="13.0616068"><ele>930.0</ele><time>2026-04-19T10:33:10.256Z</time></trkpt><trkpt lat="43.3446522" lon="13.0614947"><ele>930.0</ele><time>2026-04-19T10:33:11.255Z</time></trkpt><trkpt lat="43.3445588" lon="13.0613846"><ele>930.75</ele><time>2026-04-19T10:33:12.255Z</time></trkpt><trkpt lat="43.3444686" lon="13.061278"><ele>931.5</ele><time>2026-04-19T10:33:13.255Z</time></trkpt><trkpt lat="43.3443753" lon="13.0611785"><ele>932.25</ele><time>2026-04-19T10:33:14.254Z</time></trkpt><trkpt lat="43.3442811" lon="13.0610877"><ele>933.0</ele><time>2026-04-19T10:33:15.256Z</time></trkpt><trkpt lat="43.3441879" lon="13.0610041"><ele>933.0</ele><time>2026-04-19T10:33:16.256Z</time></trkpt><trkpt lat="43.3440972" lon="13.0609311"><ele>933.0</ele><time>2026-04-19T10:33:17.256Z</time></trkpt><trkpt lat="43.3440127" lon="13.0608707"><ele>933.0</ele><time>2026-04-19T10:33:18.254Z</time></trkpt><trkpt lat="43.3439289" lon="13.0608307"><ele>933.0</ele><time>2026-04-19T10:33:19.255Z</time></trkpt><trkpt lat="43.3438353" lon="13.0608069"><ele>933.0</ele><time>2026-04-19T10:33:20.256Z</time></trkpt><trkpt lat="43.3437327" lon="13.0607946"><ele>933.5999999999999</ele><time>2026-04-19T10:33:21.256Z</time></trkpt><trkpt lat="43.3436222" lon="13.0607921"><ele>934.1999999999999</ele><time>2026-04-19T10:33:22.256Z</time></trkpt><trkpt lat="43.3435103" lon="13.0607908"><ele>934.8</ele><time>2026-04-19T10:33:23.256Z</time></trkpt><trkpt lat="43.3434031" lon="13.0607819"><ele>935.4</ele><time>2026-04-19T10:33:24.256Z</time></trkpt><trkpt lat="43.3432957" lon="13.0607578"><ele>936.0</ele><time>2026-04-19T10:33:25.256Z</time></trkpt><trkpt lat="43.3431944" lon="13.0607215"><ele>936.0</ele><time>2026-04-19T10:33:26.255Z</time></trkpt><trkpt lat="43.3431011" lon="13.0606764"><ele>935.9999999999999</ele><time>2026-04-19T10:33:27.256Z</time></trkpt><trkpt lat="43.3430058" lon="13.0606283"><ele>935.9999999999999</ele><time>2026-04-19T10:33:28.255Z</time></trkpt><trkpt lat="43.3429196" lon="13.060572"><ele>936.0</ele><time>2026-04-19T10:33:29.255Z</time></trkpt><trkpt lat="43.3428358" lon="13.0605184"><ele>936.0</ele><time>2026-04-19T10:33:30.255Z</time></trkpt><trkpt lat="43.3427518" lon="13.0604705"><ele>937.5999999999999</ele><time>2026-04-19T10:33:31.255Z</time></trkpt><trkpt lat="43.3426664" lon="13.0604175"><ele>939.1999999999999</ele><time>2026-04-19T10:33:32.256Z</time></trkpt><trkpt lat="43.3425823" lon="13.0603595"><ele>940.8000000000001</ele><time>2026-04-19T10:33:33.254Z</time></trkpt><trkpt lat="43.3424977" lon="13.060296"><ele>942.4000000000001</ele><time>2026-04-19T10:33:34.256Z</time></trkpt><trkpt lat="43.3424086" lon="13.060236"><ele>944.0</ele><time>2026-04-19T10:33:35.256Z</time></trkpt><trkpt lat="43.3423063" lon="13.0601941"><ele>947.75</ele><time>2026-04-19T10:33:36.255Z</time></trkpt><trkpt lat="43.3421976" lon="13.0601701"><ele>951.5</ele><time>2026-04-19T10:33:37.255Z</time></trkpt><trkpt lat="43.3420836" lon="13.060172"><ele>955.25</ele><time>2026-04-19T10:33:38.255Z</time></trkpt><trkpt lat="43.3419629" lon="13.0601931"><ele>959.0</ele><time>2026-04-19T10:33:39.254Z</time></trkpt><trkpt lat="43.3418463" lon="13.0602156"><ele>959.0</ele><time>2026-04-19T10:33:40.254Z</time></trkpt><trkpt lat="43.3417261" lon="13.0602909"><ele>959.0</ele><time>2026-04-19T10:33:41.255Z</time></trkpt><trkpt lat="43.3416278" lon="13.0603802"><ele>959.0</ele><time>2026-04-19T10:33:42.256Z</time></trkpt><trkpt lat="43.3415339" lon="13.0604799"><ele>959.0</ele><time>2026-04-19T10:33:43.256Z</time></trkpt><trkpt lat="43.3414419" lon="13.0605811"><ele>962.25</ele><time>2026-04-19T10:33:44.256Z</time></trkpt><trkpt lat="43.3413473" lon="13.060676"><ele>965.5</ele><time>2026-04-19T10:33:45.256Z</time></trkpt><trkpt lat="43.3412506" lon="13.0607607"><ele>968.75</ele><time>2026-04-19T10:33:46.255Z</time></trkpt><trkpt lat="43.3411668" lon="13.0608539"><ele>972.0</ele><time>2026-04-19T10:33:47.255Z</time></trkpt><trkpt lat="43.3410883" lon="13.0609704"><ele>972.0</ele><time>2026-04-19T10:33:48.255Z</time></trkpt><trkpt lat="43.3410093" lon="13.0611097"><ele>972.0</ele><time>2026-04-19T10:33:49.256Z</time></trkpt><trkpt lat="43.3409354" lon="13.0612714"><ele>972.0</ele><time>2026-04-19T10:33:50.256Z</time></trkpt><trkpt lat="43.3408667" lon="13.061436"><ele>972.0</ele><time>2026-04-19T10:33:51.256Z</time></trkpt><trkpt lat="43.3407877" lon="13.0616022"><ele>968.0</ele><time>2026-04-19T10:33:52.256Z</time></trkpt><trkpt lat="43.3406881" lon="13.0617861"><ele>964.0</ele><time>2026-04-19T10:33:53.256Z</time></trkpt><trkpt lat="43.3406029" lon="13.0619804"><ele>960.0</ele><time>2026-04-19T10:33:54.256Z</time></trkpt><trkpt lat="43.3405162" lon="13.0621853"><ele>964.6666666666667</ele><time>2026-04-19T10:33:55.256Z</time></trkpt><trkpt lat="43.3404307" lon="13.0624023"><ele>969.3333333333334</ele><time>2026-04-19T10:33:56.256Z</time></trkpt><trkpt lat="43.3403613" lon="13.0626306"><ele>974.0</ele><time>2026-04-19T10:33:57.256Z</time></trkpt><trkpt lat="43.3402976" lon="13.062845"><ele>974.0</ele><time>2026-04-19T10:33:58.255Z</time></trkpt><trkpt lat="43.3402476" lon="13.063057"><ele>974.0</ele><time>2026-04-19T10:33:59.254Z</time></trkpt><trkpt lat="43.3401905" lon="13.0632531"><ele>974.0</ele><time>2026-04-19T10:34:00.255Z</time></trkpt><trkpt lat="43.34012" lon="13.0634555"><ele>969.3333333333334</ele><time>2026-04-19T10:34:01.255Z</time></trkpt><trkpt lat="43.3399812" lon="13.0636263"><ele>964.6666666666667</ele><time>2026-04-19T10:34:02.255Z</time></trkpt><trkpt lat="43.3398737" lon="13.0638106"><ele>960.0</ele><time>2026-04-19T10:34:03.255Z</time></trkpt><trkpt lat="43.3397672" lon="13.0639999"><ele>966.0</ele><time>2026-04-19T10:34:04.256Z</time></trkpt><trkpt lat="43.339666" lon="13.0641915"><ele>972.0</ele><time>2026-04-19T10:34:05.256Z</time></trkpt><trkpt lat="43.3395637" lon="13.0643745"><ele>978.0</ele><time>2026-04-19T10:34:06.256Z</time></trkpt><trkpt lat="43.339455" lon="13.0645517"><ele>978.0</ele><time>2026-04-19T10:34:07.256Z</time></trkpt><trkpt lat="43.3393539" lon="13.0647169"><ele>978.0</ele><time>2026-04-19T10:34:08.256Z</time></trkpt><trkpt lat="43.3392693" lon="13.0648583"><ele>978.0</ele><time>2026-04-19T10:34:09.255Z</time></trkpt><trkpt lat="43.3391864" lon="13.0649912"><ele>978.0</ele><time>2026-04-19T10:34:10.256Z</time></trkpt><trkpt lat="43.3391184" lon="13.0651179"><ele>980.4</ele><time>2026-04-19T10:34:11.256Z</time></trkpt><trkpt lat="43.3390571" lon="13.0652228"><ele>982.8</ele><time>2026-04-19T10:34:12.255Z</time></trkpt><trkpt lat="43.3389969" lon="13.0653214"><ele>985.2</ele><time>2026-04-19T10:34:13.256Z</time></trkpt><trkpt lat="43.3389264" lon="13.0654016"><ele>987.6</ele><time>2026-04-19T10:34:14.255Z</time></trkpt><trkpt lat="43.3388516" lon="13.0654884"><ele>990.0</ele><time>2026-04-19T10:34:15.256Z</time></trkpt><trkpt lat="43.3387785" lon="13.065579"><ele>990.0</ele><time>2026-04-19T10:34:16.256Z</time></trkpt><trkpt lat="43.3387067" lon="13.0656682"><ele>990.0</ele><time>2026-04-19T10:34:17.255Z</time></trkpt><trkpt lat="43.3386357" lon="13.065755"><ele>990.0</ele><time>2026-04-19T10:34:18.255Z</time></trkpt><trkpt lat="43.3385649" lon="13.0658329"><ele>990.0</ele><time>2026-04-19T10:34:19.256Z</time></trkpt><trkpt lat="43.3384869" lon="13.0658908"><ele>990.0</ele><time>2026-04-19T10:34:20.256Z</time></trkpt><trkpt lat="43.3384151" lon="13.0659209"><ele>990.0</ele><time>2026-04-19T10:34:21.255Z</time></trkpt><trkpt lat="43.3383515" lon="13.0659329"><ele>986.4</ele><time>2026-04-19T10:34:22.256Z</time></trkpt><trkpt lat="43.3382522" lon="13.0659324"><ele>982.8</ele><time>2026-04-19T10:34:24.255Z</time></trkpt><trkpt lat="43.3381812" lon="13.0659713"><ele>979.2</ele><time>2026-04-19T10:34:26.256Z</time></trkpt><trkpt lat="43.3381164" lon="13.0661176"><ele>975.6</ele><time>2026-04-19T10:34:28.256Z</time></trkpt><trkpt lat="43.3380887" lon="13.0662131"><ele>972.0</ele><time>2026-04-19T10:34:29.255Z</time></trkpt><trkpt lat="43.3380561" lon="13.0663218"><ele>979.0</ele><time>2026-04-19T10:34:30.256Z</time></trkpt><trkpt lat="43.3380214" lon="13.0664414"><ele>986.0</ele><time>2026-04-19T10:34:31.255Z</time></trkpt><trkpt lat="43.3379897" lon="13.0665676"><ele>993.0</ele><time>2026-04-19T10:34:32.256Z</time></trkpt><trkpt lat="43.3379721" lon="13.0667015"><ele>1000.0</ele><time>2026-04-19T10:34:33.254Z</time></trkpt><trkpt lat="43.3379712" lon="13.0668471"><ele>1007.0</ele><time>2026-04-19T10:34:34.255Z</time></trkpt><trkpt lat="43.3379857" lon="13.0669885"><ele>1007.0</ele><time>2026-04-19T10:34:35.256Z</time></trkpt><trkpt lat="43.338004" lon="13.0671335"><ele>1007.0</ele><time>2026-04-19T10:34:36.256Z</time></trkpt><trkpt lat="43.3380293" lon="13.0672821"><ele>1007.0</ele><time>2026-04-19T10:34:37.255Z</time></trkpt><trkpt lat="43.3380556" lon="13.0674299"><ele>1007.0</ele><time>2026-04-19T10:34:38.256Z</time></trkpt><trkpt lat="43.3381007" lon="13.0675742"><ele>1007.0</ele><time>2026-04-19T10:34:39.255Z</time></trkpt><trkpt lat="43.3381351" lon="13.0677301"><ele>994.75</ele><time>2026-04-19T10:34:40.256Z</time></trkpt><trkpt lat="43.338173" lon="13.0678689"><ele>982.5</ele><time>2026-04-19T10:34:41.256Z</time></trkpt><trkpt lat="43.3382085" lon="13.0680162"><ele>970.25</ele><time>2026-04-19T10:34:42.256Z</time></trkpt><trkpt lat="43.3382692" lon="13.0681611"><ele>958.0</ele><time>2026-04-19T10:34:43.255Z</time></trkpt><trkpt lat="43.3383228" lon="13.0683129"><ele>958.0</ele><time>2026-04-19T10:34:44.255Z</time></trkpt><trkpt lat="43.3383737" lon="13.0684684"><ele>958.0</ele><time>2026-04-19T10:34:45.254Z</time></trkpt><trkpt lat="43.3384325" lon="13.0686171"><ele>958.0</ele><time>2026-04-19T10:34:46.255Z</time></trkpt><trkpt lat="43.3384729" lon="13.0687666"><ele>958.0</ele><time>2026-04-19T10:34:47.256Z</time></trkpt><trkpt lat="43.3385086" lon="13.068903"><ele>958.0</ele><time>2026-04-19T10:34:48.255Z</time></trkpt><trkpt lat="43.3385531" lon="13.0690382"><ele>958.0</ele><time>2026-04-19T10:34:49.256Z</time></trkpt><trkpt lat="43.3385871" lon="13.0691565"><ele>958.0</ele><time>2026-04-19T10:34:50.256Z</time></trkpt><trkpt lat="43.3386294" lon="13.0692678"><ele>958.0</ele><time>2026-04-19T10:34:51.256Z</time></trkpt><trkpt lat="43.3386855" lon="13.0693704"><ele>958.0</ele><time>2026-04-19T10:34:52.255Z</time></trkpt><trkpt lat="43.3387539" lon="13.0694648"><ele>960.2</ele><time>2026-04-19T10:34:53.256Z</time></trkpt><trkpt lat="43.3388263" lon="13.06955"><ele>962.4</ele><time>2026-04-19T10:34:54.254Z</time></trkpt><trkpt lat="43.338912" lon="13.069633"><ele>964.6000000000001</ele><time>2026-04-19T10:34:55.256Z</time></trkpt><trkpt lat="43.3390146" lon="13.0697106"><ele>966.8000000000001</ele><time>2026-04-19T10:34:56.256Z</time></trkpt><trkpt lat="43.3391228" lon="13.0697895"><ele>969.0</ele><time>2026-04-19T10:34:57.256Z</time></trkpt><trkpt lat="43.3392352" lon="13.0698669"><ele>961.75</ele><time>2026-04-19T10:34:58.254Z</time></trkpt><trkpt lat="43.3393452" lon="13.0699512"><ele>954.5</ele><time>2026-04-19T10:34:59.256Z</time></trkpt><trkpt lat="43.3394527" lon="13.0700356"><ele>947.25</ele><time>2026-04-19T10:35:00.256Z</time></trkpt><trkpt lat="43.3395643" lon="13.0701164"><ele>940.0</ele><time>2026-04-19T10:35:01.256Z</time></trkpt><trkpt lat="43.3396778" lon="13.0701951"><ele>930.0</ele><time>2026-04-19T10:35:02.256Z</time></trkpt><trkpt lat="43.3397922" lon="13.070271"><ele>920.0</ele><time>2026-04-19T10:35:03.255Z</time></trkpt><trkpt lat="43.3399109" lon="13.0703388"><ele>910.0</ele><time>2026-04-19T10:35:04.256Z</time></trkpt><trkpt lat="43.3400226" lon="13.0704051"><ele>900.0</ele><time>2026-04-19T10:35:05.256Z</time></trkpt><trkpt lat="43.3401286" lon="13.0704731"><ele>900.0</ele><time>2026-04-19T10:35:06.256Z</time></trkpt><trkpt lat="43.3402327" lon="13.0705454"><ele>900.0</ele><time>2026-04-19T10:35:07.256Z</time></trkpt><trkpt lat="43.3403361" lon="13.0706261"><ele>900.0</ele><time>2026-04-19T10:35:08.255Z</time></trkpt><trkpt lat="43.3404357" lon="13.0707145"><ele>900.0</ele><time>2026-04-19T10:35:09.255Z</time></trkpt><trkpt lat="43.3405252" lon="13.0708025"><ele>898.8</ele><time>2026-04-19T10:35:10.256Z</time></trkpt><trkpt lat="43.3406144" lon="13.0708984"><ele>897.6</ele><time>2026-04-19T10:35:11.256Z</time></trkpt><trkpt lat="43.3406922" lon="13.0709906"><ele>896.4000000000001</ele><time>2026-04-19T10:35:12.256Z</time></trkpt><trkpt lat="43.3407611" lon="13.0710831"><ele>895.2</ele><time>2026-04-19T10:35:13.256Z</time></trkpt><trkpt lat="43.3408311" lon="13.0711848"><ele>894.0</ele><time>2026-04-19T10:35:14.255Z</time></trkpt><trkpt lat="43.3408957" lon="13.0712876"><ele>894.0</ele><time>2026-04-19T10:35:15.256Z</time></trkpt><trkpt lat="43.3409546" lon="13.0713885"><ele>894.0000000000001</ele><time>2026-04-19T10:35:16.256Z</time></trkpt><trkpt lat="43.34101" lon="13.0714898"><ele>894.0000000000001</ele><time>2026-04-19T10:35:17.255Z</time></trkpt><trkpt lat="43.3410664" lon="13.071591"><ele>894.0</ele><time>2026-04-19T10:35:18.254Z</time></trkpt><trkpt lat="43.3411227" lon="13.0716916"><ele>894.0</ele><time>2026-04-19T10:35:19.256Z</time></trkpt><trkpt lat="43.3411763" lon="13.0717899"><ele>896.8333333333334</ele><time>2026-04-19T10:35:20.256Z</time></trkpt><trkpt lat="43.3412264" lon="13.0718883"><ele>899.6666666666667</ele><time>2026-04-19T10:35:21.256Z</time></trkpt><trkpt lat="43.3412766" lon="13.0719849"><ele>902.5</ele><time>2026-04-19T10:35:22.256Z</time></trkpt><trkpt lat="43.341318" lon="13.0720818"><ele>905.3333333333334</ele><time>2026-04-19T10:35:23.255Z</time></trkpt><trkpt lat="43.3413579" lon="13.0721738"><ele>908.1666666666667</ele><time>2026-04-19T10:35:24.256Z</time></trkpt><trkpt lat="43.341397" lon="13.0722714"><ele>911.0</ele><time>2026-04-19T10:35:25.256Z</time></trkpt><trkpt lat="43.3414339" lon="13.0723749"><ele>904.8333333333334</ele><time>2026-04-19T10:35:26.255Z</time></trkpt><trkpt lat="43.3414675" lon="13.0724816"><ele>898.6666666666667</ele><time>2026-04-19T10:35:27.255Z</time></trkpt><trkpt lat="43.3415" lon="13.0725904"><ele>892.5</ele><time>2026-04-19T10:35:28.256Z</time></trkpt><trkpt lat="43.3415327" lon="13.072701"><ele>886.3333333333333</ele><time>2026-04-19T10:35:29.256Z</time></trkpt><trkpt lat="43.3415606" lon="13.0728135"><ele>880.1666666666666</ele><time>2026-04-19T10:35:30.256Z</time></trkpt><trkpt lat="43.3415872" lon="13.0729302"><ele>874.0</ele><time>2026-04-19T10:35:31.255Z</time></trkpt><trkpt lat="43.3416108" lon="13.0730567"><ele>874.0</ele><time>2026-04-19T10:35:32.255Z</time></trkpt><trkpt lat="43.3416326" lon="13.0731848"><ele>874.0000000000001</ele><time>2026-04-19T10:35:33.256Z</time></trkpt><trkpt lat="43.3416486" lon="13.0733173"><ele>874.0000000000001</ele><time>2026-04-19T10:35:34.255Z</time></trkpt><trkpt lat="43.3416598" lon="13.0734523"><ele>874.0</ele><time>2026-04-19T10:35:35.256Z</time></trkpt><trkpt lat="43.3416698" lon="13.0735871"><ele>874.0</ele><time>2026-04-19T10:35:36.256Z</time></trkpt><trkpt lat="43.3416741" lon="13.0737195"><ele>873.9999999999999</ele><time>2026-04-19T10:35:37.256Z</time></trkpt><trkpt lat="43.3416751" lon="13.073846"><ele>874.0</ele><time>2026-04-19T10:35:38.256Z</time></trkpt><trkpt lat="43.3416665" lon="13.0739655"><ele>874.0</ele><time>2026-04-19T10:35:39.256Z</time></trkpt><trkpt lat="43.3416514" lon="13.0740739"><ele>874.0</ele><time>2026-04-19T10:35:40.255Z</time></trkpt><trkpt lat="43.3416255" lon="13.0741837"><ele>873.9999999999999</ele><time>2026-04-19T10:35:41.255Z</time></trkpt><trkpt lat="43.3415864" lon="13.0742814"><ele>874.0</ele><time>2026-04-19T10:35:42.256Z</time></trkpt><trkpt lat="43.3415352" lon="13.0743855"><ele>873.4000000000001</ele><time>2026-04-19T10:35:43.256Z</time></trkpt><trkpt lat="43.3414771" lon="13.0744884"><ele>872.8000000000001</ele><time>2026-04-19T10:35:44.256Z</time></trkpt><trkpt lat="43.3414083" lon="13.0745826"><ele>872.1999999999999</ele><time>2026-04-19T10:35:45.256Z</time></trkpt><trkpt lat="43.3413309" lon="13.0746793"><ele>871.5999999999999</ele><time>2026-04-19T10:35:46.255Z</time></trkpt><trkpt lat="43.3412463" lon="13.0747673"><ele>871.0</ele><time>2026-04-19T10:35:47.256Z</time></trkpt><trkpt lat="43.3411576" lon="13.0748484"><ele>872.1999999999999</ele><time>2026-04-19T10:35:48.256Z</time></trkpt><trkpt lat="43.3410652" lon="13.0749288"><ele>873.3999999999999</ele><time>2026-04-19T10:35:49.256Z</time></trkpt><trkpt lat="43.3409777" lon="13.07501"><ele>874.6</ele><time>2026-04-19T10:35:50.256Z</time></trkpt><trkpt lat="43.3409" lon="13.0750963"><ele>875.8</ele><time>2026-04-19T10:35:51.256Z</time></trkpt><trkpt lat="43.3408339" lon="13.0751949"><ele>877.0</ele><time>2026-04-19T10:35:52.254Z</time></trkpt><trkpt lat="43.3407791" lon="13.0753098"><ele>877.0</ele><time>2026-04-19T10:35:53.255Z</time></trkpt><trkpt lat="43.3407399" lon="13.075431"><ele>877.0</ele><time>2026-04-19T10:35:54.256Z</time></trkpt><trkpt lat="43.3407125" lon="13.0755596"><ele>877.0</ele><time>2026-04-19T10:35:55.256Z</time></trkpt><trkpt lat="43.3406864" lon="13.0756896"><ele>877.0</ele><time>2026-04-19T10:35:56.255Z</time></trkpt><trkpt lat="43.3406563" lon="13.0758177"><ele>877.0</ele><time>2026-04-19T10:35:57.255Z</time></trkpt><trkpt lat="43.3406162" lon="13.07593"><ele>877.8333333333333</ele><time>2026-04-19T10:35:58.255Z</time></trkpt><trkpt lat="43.3405629" lon="13.0760265"><ele>878.6666666666666</ele><time>2026-04-19T10:35:59.256Z</time></trkpt><trkpt lat="43.3404954" lon="13.076104"><ele>879.5</ele><time>2026-04-19T10:36:00.256Z</time></trkpt><trkpt lat="43.3404194" lon="13.0761499"><ele>880.3333333333333</ele><time>2026-04-19T10:36:01.256Z</time></trkpt><trkpt lat="43.3403379" lon="13.0761631"><ele>881.1666666666666</ele><time>2026-04-19T10:36:02.255Z</time></trkpt><trkpt lat="43.3402515" lon="13.0761491"><ele>882.0</ele><time>2026-04-19T10:36:03.255Z</time></trkpt><trkpt lat="43.3401604" lon="13.076117"><ele>882.0</ele><time>2026-04-19T10:36:04.256Z</time></trkpt><trkpt lat="43.3400702" lon="13.0760707"><ele>882.0</ele><time>2026-04-19T10:36:05.256Z</time></trkpt><trkpt lat="43.3399827" lon="13.0760159"><ele>882.0</ele><time>2026-04-19T10:36:06.255Z</time></trkpt><trkpt lat="43.3398984" lon="13.075961"><ele>882.0</ele><time>2026-04-19T10:36:07.256Z</time></trkpt><trkpt lat="43.3398168" lon="13.0759007"><ele>882.0</ele><time>2026-04-19T10:36:08.256Z</time></trkpt><trkpt lat="43.3397406" lon="13.0758423"><ele>881.5</ele><time>2026-04-19T10:36:09.256Z</time></trkpt><trkpt lat="43.3396692" lon="13.075778"><ele>881.0</ele><time>2026-04-19T10:36:10.255Z</time></trkpt><trkpt lat="43.3396012" lon="13.0757184"><ele>880.5</ele><time>2026-04-19T10:36:11.255Z</time></trkpt><trkpt lat="43.3395337" lon="13.0756591"><ele>880.0</ele><time>2026-04-19T10:36:12.256Z</time></trkpt><trkpt lat="43.3394646" lon="13.075591"><ele>879.5</ele><time>2026-04-19T10:36:13.255Z</time></trkpt><trkpt lat="43.3393926" lon="13.0755246"><ele>879.0</ele><time>2026-04-19T10:36:14.254Z</time></trkpt><trkpt lat="43.3393157" lon="13.0754571"><ele>884.8000000000001</ele><time>2026-04-19T10:36:15.255Z</time></trkpt><trkpt lat="43.339232" lon="13.0753968"><ele>890.6000000000001</ele><time>2026-04-19T10:36:16.255Z</time></trkpt><trkpt lat="43.339143" lon="13.0753485"><ele>896.4</ele><time>2026-04-19T10:36:17.254Z</time></trkpt><trkpt lat="43.3390487" lon="13.0753117"><ele>902.2</ele><time>2026-04-19T10:36:18.254Z</time></trkpt><trkpt lat="43.3389491" lon="13.0752932"><ele>908.0</ele><time>2026-04-19T10:36:19.255Z</time></trkpt><trkpt lat="43.3388449" lon="13.0752909"><ele>911.75</ele><time>2026-04-19T10:36:20.255Z</time></trkpt><trkpt lat="43.3387377" lon="13.0753001"><ele>915.5</ele><time>2026-04-19T10:36:21.255Z</time></trkpt><trkpt lat="43.3386226" lon="13.0753155"><ele>919.25</ele><time>2026-04-19T10:36:22.255Z</time></trkpt><trkpt lat="43.3385008" lon="13.0753379"><ele>923.0</ele><time>2026-04-19T10:36:23.255Z</time></trkpt><trkpt lat="43.3383776" lon="13.0753634"><ele>923.0</ele><time>2026-04-19T10:36:24.255Z</time></trkpt><trkpt lat="43.3382586" lon="13.075392"><ele>923.0</ele><time>2026-04-19T10:36:25.255Z</time></trkpt><trkpt lat="43.338154" lon="13.0754252"><ele>923.0</ele><time>2026-04-19T10:36:26.254Z</time></trkpt><trkpt lat="43.3380533" lon="13.0754653"><ele>923.0</ele><time>2026-04-19T10:36:27.254Z</time></trkpt><trkpt lat="43.337951" lon="13.0755079"><ele>923.0</ele><time>2026-04-19T10:36:28.255Z</time></trkpt><trkpt lat="43.3378521" lon="13.0755666"><ele>919.75</ele><time>2026-04-19T10:36:29.255Z</time></trkpt><trkpt lat="43.3377591" lon="13.0756467"><ele>916.5</ele><time>2026-04-19T10:36:30.255Z</time></trkpt><trkpt lat="43.3376816" lon="13.0757496"><ele>913.25</ele><time>2026-04-19T10:36:31.255Z</time></trkpt><trkpt lat="43.3376097" lon="13.0758644"><ele>910.0</ele><time>2026-04-19T10:36:32.254Z</time></trkpt><trkpt lat="43.3375571" lon="13.0760185"><ele>910.0</ele><time>2026-04-19T10:36:33.254Z</time></trkpt><trkpt lat="43.337498" lon="13.0761782"><ele>910.0</ele><time>2026-04-19T10:36:34.255Z</time></trkpt><trkpt lat="43.337448" lon="13.0763451"><ele>910.0</ele><time>2026-04-19T10:36:35.255Z</time></trkpt><trkpt lat="43.3373986" lon="13.0765118"><ele>910.0</ele><time>2026-04-19T10:36:36.254Z</time></trkpt><trkpt lat="43.3373512" lon="13.0766752"><ele>905.25</ele><time>2026-04-19T10:36:37.254Z</time></trkpt><trkpt lat="43.3373063" lon="13.0768346"><ele>900.5</ele><time>2026-04-19T10:36:38.255Z</time></trkpt><trkpt lat="43.3372673" lon="13.0769921"><ele>895.75</ele><time>2026-04-19T10:36:39.255Z</time></trkpt><trkpt lat="43.337239" lon="13.0771537"><ele>891.0</ele><time>2026-04-19T10:36:40.255Z</time></trkpt><trkpt lat="43.3372203" lon="13.0773154"><ele>895.75</ele><time>2026-04-19T10:36:41.255Z</time></trkpt><trkpt lat="43.3372066" lon="13.0774894"><ele>900.5</ele><time>2026-04-19T10:36:42.254Z</time></trkpt><trkpt lat="43.3372012" lon="13.0776665"><ele>905.25</ele><time>2026-04-19T10:36:43.255Z</time></trkpt><trkpt lat="43.3372008" lon="13.0778454"><ele>910.0</ele><time>2026-04-19T10:36:44.255Z</time></trkpt><trkpt lat="43.3372056" lon="13.0780238"><ele>910.0</ele><time>2026-04-19T10:36:45.255Z</time></trkpt><trkpt lat="43.337214" lon="13.0782021"><ele>910.0</ele><time>2026-04-19T10:36:46.255Z</time></trkpt><trkpt lat="43.337227" lon="13.0783897"><ele>910.0</ele><time>2026-04-19T10:36:47.254Z</time></trkpt><trkpt lat="43.3372458" lon="13.0785849"><ele>910.0</ele><time>2026-04-19T10:36:48.254Z</time></trkpt><trkpt lat="43.3372674" lon="13.0787865"><ele>900.5</ele><time>2026-04-19T10:36:49.255Z</time></trkpt><trkpt lat="43.3372907" lon="13.0789869"><ele>891.0</ele><time>2026-04-19T10:36:50.255Z</time></trkpt><trkpt lat="43.3373147" lon="13.0791798"><ele>881.5</ele><time>2026-04-19T10:36:51.255Z</time></trkpt><trkpt lat="43.3373413" lon="13.0793725"><ele>872.0</ele><time>2026-04-19T10:36:52.255Z</time></trkpt><trkpt lat="43.3373699" lon="13.0795693"><ele>871.75</ele><time>2026-04-19T10:36:53.255Z</time></trkpt><trkpt lat="43.3373978" lon="13.0797624"><ele>871.5</ele><time>2026-04-19T10:36:54.253Z</time></trkpt><trkpt lat="43.3374266" lon="13.0799602"><ele>871.25</ele><time>2026-04-19T10:36:55.255Z</time></trkpt><trkpt lat="43.3374565" lon="13.0801553"><ele>871.0</ele><time>2026-04-19T10:36:56.255Z</time></trkpt><trkpt lat="43.3374838" lon="13.0803486"><ele>871.5</ele><time>2026-04-19T10:36:57.255Z</time></trkpt><trkpt lat="43.3375105" lon="13.0805423"><ele>872.0</ele><time>2026-04-19T10:36:58.255Z</time></trkpt><trkpt lat="43.3375405" lon="13.0807392"><ele>872.5</ele><time>2026-04-19T10:36:59.255Z</time></trkpt><trkpt lat="43.3375713" lon="13.0809322"><ele>873.0</ele><time>2026-04-19T10:37:00.254Z</time></trkpt><trkpt lat="43.3375966" lon="13.0811179"><ele>873.2</ele><time>2026-04-19T10:37:01.254Z</time></trkpt><trkpt lat="43.3376235" lon="13.081289"><ele>873.4</ele><time>2026-04-19T10:37:02.255Z</time></trkpt><trkpt lat="43.3376507" lon="13.0814511"><ele>873.6000000000001</ele><time>2026-04-19T10:37:03.255Z</time></trkpt><trkpt lat="43.3376721" lon="13.0815949"><ele>873.8000000000001</ele><time>2026-04-19T10:37:04.254Z</time></trkpt><trkpt lat="43.337692" lon="13.0817209"><ele>874.0</ele><time>2026-04-19T10:37:05.255Z</time></trkpt><trkpt lat="43.337703" lon="13.0818248"><ele>873.1666666666666</ele><time>2026-04-19T10:37:06.254Z</time></trkpt><trkpt lat="43.3376966" lon="13.0819126"><ele>872.3333333333333</ele><time>2026-04-19T10:37:07.253Z</time></trkpt><trkpt lat="43.3376251" lon="13.0820365"><ele>871.5</ele><time>2026-04-19T10:37:09.254Z</time></trkpt><trkpt lat="43.3375584" lon="13.0820735"><ele>870.6666666666667</ele><time>2026-04-19T10:37:10.255Z</time></trkpt><trkpt lat="43.3374807" lon="13.0820846"><ele>869.8333333333334</ele><time>2026-04-19T10:37:11.255Z</time></trkpt><trkpt lat="43.3373872" lon="13.082078"><ele>869.0</ele><time>2026-04-19T10:37:12.255Z</time></trkpt><trkpt lat="43.3372851" lon="13.0820535"><ele>867.75</ele><time>2026-04-19T10:37:13.255Z</time></trkpt><trkpt lat="43.3371729" lon="13.0820138"><ele>866.5</ele><time>2026-04-19T10:37:14.254Z</time></trkpt><trkpt lat="43.3370529" lon="13.0819732"><ele>865.25</ele><time>2026-04-19T10:37:15.255Z</time></trkpt><trkpt lat="43.336921" lon="13.0819301"><ele>864.0</ele><time>2026-04-19T10:37:16.255Z</time></trkpt><trkpt lat="43.3367915" lon="13.0818885"><ele>864.0</ele><time>2026-04-19T10:37:17.254Z</time></trkpt><trkpt lat="43.3366634" lon="13.0818513"><ele>864.0</ele><time>2026-04-19T10:37:18.254Z</time></trkpt><trkpt lat="43.3365316" lon="13.0818114"><ele>864.0</ele><time>2026-04-19T10:37:19.253Z</time></trkpt><trkpt lat="43.3364057" lon="13.081777"><ele>864.0</ele><time>2026-04-19T10:37:20.255Z</time></trkpt><trkpt lat="43.3362822" lon="13.0817473"><ele>861.5</ele><time>2026-04-19T10:37:21.255Z</time></trkpt><trkpt lat="43.3361607" lon="13.0817201"><ele>859.0</ele><time>2026-04-19T10:37:22.254Z</time></trkpt><trkpt lat="43.3360404" lon="13.0816925"><ele>856.5</ele><time>2026-04-19T10:37:23.254Z</time></trkpt><trkpt lat="43.3359134" lon="13.0816641"><ele>854.0</ele><time>2026-04-19T10:37:24.255Z</time></trkpt><trkpt lat="43.3357833" lon="13.0816353"><ele>854.0</ele><time>2026-04-19T10:37:25.255Z</time></trkpt><trkpt lat="43.3356438" lon="13.0816054"><ele>854.0</ele><time>2026-04-19T10:37:26.254Z</time></trkpt><trkpt lat="43.3355015" lon="13.0815738"><ele>854.0</ele><time>2026-04-19T10:37:27.255Z</time></trkpt><trkpt lat="43.3353613" lon="13.0815464"><ele>854.0</ele><time>2026-04-19T10:37:28.255Z</time></trkpt><trkpt lat="43.3352231" lon="13.0815193"><ele>856.25</ele><time>2026-04-19T10:37:29.255Z</time></trkpt><trkpt lat="43.335087" lon="13.0814935"><ele>858.5</ele><time>2026-04-19T10:37:30.255Z</time></trkpt><trkpt lat="43.3349539" lon="13.0814698"><ele>860.75</ele><time>2026-04-19T10:37:31.254Z</time></trkpt><trkpt lat="43.3348178" lon="13.0814444"><ele>863.0</ele><time>2026-04-19T10:37:32.254Z</time></trkpt><trkpt lat="43.3346842" lon="13.0814233"><ele>863.0</ele><time>2026-04-19T10:37:33.255Z</time></trkpt><trkpt lat="43.3345543" lon="13.0814116"><ele>863.0</ele><time>2026-04-19T10:37:34.254Z</time></trkpt><trkpt lat="43.3344281" lon="13.0814035"><ele>863.0</ele><time>2026-04-19T10:37:35.255Z</time></trkpt><trkpt lat="43.3343054" lon="13.0814001"><ele>863.0</ele><time>2026-04-19T10:37:36.255Z</time></trkpt><trkpt lat="43.3341807" lon="13.0814113"><ele>863.0</ele><time>2026-04-19T10:37:37.255Z</time></trkpt><trkpt lat="43.3340516" lon="13.0814346"><ele>863.0</ele><time>2026-04-19T10:37:38.254Z</time></trkpt><trkpt lat="43.3339259" lon="13.0814621"><ele>863.0</ele><time>2026-04-19T10:37:39.253Z</time></trkpt><trkpt lat="43.3337994" lon="13.0814921"><ele>863.0</ele><time>2026-04-19T10:37:40.255Z</time></trkpt><trkpt lat="43.3336779" lon="13.0815244"><ele>863.2</ele><time>2026-04-19T10:37:41.255Z</time></trkpt><trkpt lat="43.3335616" lon="13.0815604"><ele>863.4</ele><time>2026-04-19T10:37:42.255Z</time></trkpt><trkpt lat="43.3334523" lon="13.0815948"><ele>863.6000000000001</ele><time>2026-04-19T10:37:43.255Z</time></trkpt><trkpt lat="43.3333465" lon="13.0816236"><ele>863.8000000000001</ele><time>2026-04-19T10:37:44.254Z</time></trkpt><trkpt lat="43.3332429" lon="13.0816395"><ele>864.0</ele><time>2026-04-19T10:37:45.254Z</time></trkpt><trkpt lat="43.3331403" lon="13.0816309"><ele>860.8000000000001</ele><time>2026-04-19T10:37:46.254Z</time></trkpt><trkpt lat="43.33303" lon="13.0816023"><ele>857.6000000000001</ele><time>2026-04-19T10:37:47.255Z</time></trkpt><trkpt lat="43.3329225" lon="13.0815688"><ele>854.4</ele><time>2026-04-19T10:37:48.254Z</time></trkpt><trkpt lat="43.3328131" lon="13.081521"><ele>851.2</ele><time>2026-04-19T10:37:49.255Z</time></trkpt><trkpt lat="43.3327093" lon="13.0814663"><ele>848.0</ele><time>2026-04-19T10:37:50.254Z</time></trkpt><trkpt lat="43.3326033" lon="13.0813978"><ele>848.0</ele><time>2026-04-19T10:37:51.255Z</time></trkpt><trkpt lat="43.3325028" lon="13.0813187"><ele>848.0</ele><time>2026-04-19T10:37:52.254Z</time></trkpt><trkpt lat="43.3324136" lon="13.0812347"><ele>848.0</ele><time>2026-04-19T10:37:53.255Z</time></trkpt><trkpt lat="43.3323331" lon="13.081139"><ele>848.0</ele><time>2026-04-19T10:37:54.254Z</time></trkpt><trkpt lat="43.3322579" lon="13.081029"><ele>848.0</ele><time>2026-04-19T10:37:55.254Z</time></trkpt><trkpt lat="43.3321878" lon="13.0809108"><ele>843.5999999999999</ele><time>2026-04-19T10:37:56.254Z</time></trkpt><trkpt lat="43.3321256" lon="13.0807895"><ele>839.1999999999999</ele><time>2026-04-19T10:37:57.254Z</time></trkpt><trkpt lat="43.3320699" lon="13.0806625"><ele>834.8</ele><time>2026-04-19T10:37:58.254Z</time></trkpt><trkpt lat="43.3320221" lon="13.0805429"><ele>830.4</ele><time>2026-04-19T10:37:59.254Z</time></trkpt><trkpt lat="43.3319844" lon="13.0804314"><ele>826.0</ele><time>2026-04-19T10:38:00.255Z</time></trkpt><trkpt lat="43.3319568" lon="13.0803193"><ele>826.0</ele><time>2026-04-19T10:38:01.254Z</time></trkpt><trkpt lat="43.3319343" lon="13.0801937"><ele>826.0</ele><time>2026-04-19T10:38:02.254Z</time></trkpt><trkpt lat="43.3319172" lon="13.0800629"><ele>826.0</ele><time>2026-04-19T10:38:03.253Z</time></trkpt><trkpt lat="43.331908" lon="13.0799293"><ele>826.0</ele><time>2026-04-19T10:38:04.255Z</time></trkpt><trkpt lat="43.3319112" lon="13.0797939"><ele>826.0</ele><time>2026-04-19T10:38:05.255Z</time></trkpt><trkpt lat="43.331934" lon="13.0796706"><ele>826.8</ele><time>2026-04-19T10:38:06.255Z</time></trkpt><trkpt lat="43.3319681" lon="13.079545"><ele>827.5999999999999</ele><time>2026-04-19T10:38:07.255Z</time></trkpt><trkpt lat="43.3320071" lon="13.0794227"><ele>828.4</ele><time>2026-04-19T10:38:08.255Z</time></trkpt><trkpt lat="43.3320445" lon="13.0793115"><ele>829.2</ele><time>2026-04-19T10:38:09.255Z</time></trkpt><trkpt lat="43.3320815" lon="13.0792061"><ele>830.0</ele><time>2026-04-19T10:38:10.254Z</time></trkpt><trkpt lat="43.3321191" lon="13.0791002"><ele>832.5714285714286</ele><time>2026-04-19T10:38:11.254Z</time></trkpt><trkpt lat="43.3321532" lon="13.0789997"><ele>835.1428571428571</ele><time>2026-04-19T10:38:12.255Z</time></trkpt><trkpt lat="43.3321779" lon="13.0788973"><ele>837.7142857142858</ele><time>2026-04-19T10:38:13.254Z</time></trkpt><trkpt lat="43.3321917" lon="13.0787987"><ele>840.2857142857142</ele><time>2026-04-19T10:38:14.255Z</time></trkpt><trkpt lat="43.3321947" lon="13.078708"><ele>842.8571428571428</ele><time>2026-04-19T10:38:15.255Z</time></trkpt><trkpt lat="43.3321878" lon="13.0786123"><ele>845.4285714285714</ele><time>2026-04-19T10:38:16.255Z</time></trkpt><trkpt lat="43.3321684" lon="13.0785045"><ele>848.0</ele><time>2026-04-19T10:38:17.254Z</time></trkpt><trkpt lat="43.3321316" lon="13.0784094"><ele>848.0000000000001</ele><time>2026-04-19T10:38:18.255Z</time></trkpt><trkpt lat="43.3320916" lon="13.0783269"><ele>848.0</ele><time>2026-04-19T10:38:19.254Z</time></trkpt><trkpt lat="43.332027" lon="13.0782874"><ele>848.0</ele><time>2026-04-19T10:38:20.255Z</time></trkpt><trkpt lat="43.3319549" lon="13.0782733"><ele>848.0</ele><time>2026-04-19T10:38:21.255Z</time></trkpt><trkpt lat="43.3318833" lon="13.0782955"><ele>848.0000000000001</ele><time>2026-04-19T10:38:22.255Z</time></trkpt><trkpt lat="43.3318089" lon="13.0783408"><ele>848.0</ele><time>2026-04-19T10:38:23.254Z</time></trkpt><trkpt lat="43.3317328" lon="13.0783925"><ele>848.0</ele><time>2026-04-19T10:38:24.255Z</time></trkpt><trkpt lat="43.3316507" lon="13.0784421"><ele>848.0</ele><time>2026-04-19T10:38:25.255Z</time></trkpt><trkpt lat="43.3315612" lon="13.0784771"><ele>848.0</ele><time>2026-04-19T10:38:26.255Z</time></trkpt><trkpt lat="43.3314793" lon="13.0784942"><ele>848.0</ele><time>2026-04-19T10:38:27.255Z</time></trkpt><trkpt lat="43.3314087" lon="13.0785018"><ele>848.0</ele><time>2026-04-19T10:38:28.254Z</time></trkpt><trkpt lat="43.3312985" lon="13.078541"><ele>849.8</ele><time>2026-04-19T10:38:30.254Z</time></trkpt><trkpt lat="43.3312038" lon="13.0786255"><ele>851.5999999999999</ele><time>2026-04-19T10:38:32.254Z</time></trkpt><trkpt lat="43.3311121" lon="13.0787204"><ele>853.4000000000001</ele><time>2026-04-19T10:38:34.255Z</time></trkpt><trkpt lat="43.3310355" lon="13.0787974"><ele>855.2</ele><time>2026-04-19T10:38:36.255Z</time></trkpt><trkpt lat="43.3309476" lon="13.0788608"><ele>857.0</ele><time>2026-04-19T10:38:38.255Z</time></trkpt><trkpt lat="43.3308481" lon="13.078903"><ele>857.0</ele><time>2026-04-19T10:38:40.254Z</time></trkpt><trkpt lat="43.3307508" lon="13.0789135"><ele>857.0</ele><time>2026-04-19T10:38:42.254Z</time></trkpt><trkpt lat="43.3306439" lon="13.0789025"><ele>857.0</ele><time>2026-04-19T10:38:44.255Z</time></trkpt><trkpt lat="43.3305552" lon="13.0788728"><ele>857.0</ele><time>2026-04-19T10:38:46.255Z</time></trkpt><trkpt lat="43.330461" lon="13.0788317"><ele>857.0</ele><time>2026-04-19T10:38:48.255Z</time></trkpt><trkpt lat="43.3303623" lon="13.0787824"><ele>856.5000000000001</ele><time>2026-04-19T10:38:50.254Z</time></trkpt><trkpt lat="43.3302677" lon="13.0787367"><ele>856.0</ele><time>2026-04-19T10:38:52.255Z</time></trkpt><trkpt lat="43.3301832" lon="13.0786961"><ele>855.5</ele><time>2026-04-19T10:38:54.255Z</time></trkpt><trkpt lat="43.3301012" lon="13.0786472"><ele>855.0</ele><time>2026-04-19T10:38:56.255Z</time></trkpt><trkpt lat="43.3300268" lon="13.0786069"><ele>854.5000000000001</ele><time>2026-04-19T10:38:58.254Z</time></trkpt><trkpt lat="43.3299519" lon="13.0785598"><ele>854.0</ele><time>2026-04-19T10:39:00.255Z</time></trkpt><trkpt lat="43.3298541" lon="13.0785039"><ele>854.0</ele><time>2026-04-19T10:39:02.255Z</time></trkpt><trkpt lat="43.3297959" lon="13.0784692"><ele>854.0</ele><time>2026-04-19T10:39:03.254Z</time></trkpt><trkpt lat="43.3297308" lon="13.0784322"><ele>854.0</ele><time>2026-04-19T10:39:04.254Z</time></trkpt><trkpt lat="43.3296645" lon="13.0783934"><ele>854.0</ele><time>2026-04-19T10:39:05.255Z</time></trkpt><trkpt lat="43.3296017" lon="13.0783536"><ele>854.0</ele><time>2026-04-19T10:39:06.255Z</time></trkpt><trkpt lat="43.329539" lon="13.078313"><ele>854.0</ele><time>2026-04-19T10:39:07.254Z</time></trkpt><trkpt lat="43.3294766" lon="13.0782623"><ele>854.0</ele><time>2026-04-19T10:39:08.254Z</time></trkpt><trkpt lat="43.329416" lon="13.0782036"><ele>857.3333333333334</ele><time>2026-04-19T10:39:09.254Z</time></trkpt><trkpt lat="43.3293509" lon="13.0781431"><ele>860.6666666666667</ele><time>2026-04-19T10:39:10.255Z</time></trkpt><trkpt lat="43.3292788" lon="13.0780942"><ele>864.0</ele><time>2026-04-19T10:39:11.255Z</time></trkpt><trkpt lat="43.329199" lon="13.0780532"><ele>867.3333333333333</ele><time>2026-04-19T10:39:12.254Z</time></trkpt><trkpt lat="43.3291141" lon="13.0780292"><ele>870.6666666666666</ele><time>2026-04-19T10:39:13.255Z</time></trkpt><trkpt lat="43.3290292" lon="13.0780153"><ele>874.0</ele><time>2026-04-19T10:39:14.255Z</time></trkpt><trkpt lat="43.3289457" lon="13.0780068"><ele>873.3333333333333</ele><time>2026-04-19T10:39:15.254Z</time></trkpt><trkpt lat="43.3288557" lon="13.0779982"><ele>872.6666666666666</ele><time>2026-04-19T10:39:16.253Z</time></trkpt><trkpt lat="43.328769" lon="13.0779848"><ele>872.0</ele><time>2026-04-19T10:39:17.254Z</time></trkpt><trkpt lat="43.3286872" lon="13.0779556"><ele>871.3333333333333</ele><time>2026-04-19T10:39:18.254Z</time></trkpt><trkpt lat="43.3286124" lon="13.0779323"><ele>870.6666666666666</ele><time>2026-04-19T10:39:19.254Z</time></trkpt><trkpt lat="43.3285306" lon="13.0779215"><ele>870.0</ele><time>2026-04-19T10:39:20.255Z</time></trkpt><trkpt lat="43.3284481" lon="13.0779325"><ele>870.0</ele><time>2026-04-19T10:39:21.253Z</time></trkpt><trkpt lat="43.3283637" lon="13.0779489"><ele>870.0</ele><time>2026-04-19T10:39:22.255Z</time></trkpt><trkpt lat="43.3282803" lon="13.0779741"><ele>870.0</ele><time>2026-04-19T10:39:23.255Z</time></trkpt><trkpt lat="43.3281945" lon="13.0780013"><ele>870.0</ele><time>2026-04-19T10:39:24.254Z</time></trkpt><trkpt lat="43.3280977" lon="13.077996"><ele>870.0</ele><time>2026-04-19T10:39:25.254Z</time></trkpt><trkpt lat="43.3280013" lon="13.0779842"><ele>869.5</ele><time>2026-04-19T10:39:26.255Z</time></trkpt><trkpt lat="43.3279071" lon="13.0779586"><ele>869.0</ele><time>2026-04-19T10:39:27.255Z</time></trkpt><trkpt lat="43.3278307" lon="13.0778931"><ele>868.5</ele><time>2026-04-19T10:39:28.255Z</time></trkpt><trkpt lat="43.3277588" lon="13.0778167"><ele>868.0</ele><time>2026-04-19T10:39:29.255Z</time></trkpt><trkpt lat="43.3276881" lon="13.0777572"><ele>867.5</ele><time>2026-04-19T10:39:30.255Z</time></trkpt><trkpt lat="43.3276145" lon="13.077719"><ele>867.0</ele><time>2026-04-19T10:39:31.255Z</time></trkpt><trkpt lat="43.3275331" lon="13.0776953"><ele>867.0</ele><time>2026-04-19T10:39:32.255Z</time></trkpt><trkpt lat="43.3274477" lon="13.0776973"><ele>867.0</ele><time>2026-04-19T10:39:33.255Z</time></trkpt><trkpt lat="43.3273582" lon="13.0776986"><ele>867.0</ele><time>2026-04-19T10:39:34.255Z</time></trkpt><trkpt lat="43.3272648" lon="13.0776969"><ele>867.0</ele><time>2026-04-19T10:39:35.254Z</time></trkpt><trkpt lat="43.3271641" lon="13.0776688"><ele>867.0</ele><time>2026-04-19T10:39:36.254Z</time></trkpt><trkpt lat="43.3270664" lon="13.0776431"><ele>865.6</ele><time>2026-04-19T10:39:37.254Z</time></trkpt><trkpt lat="43.3269665" lon="13.0776215"><ele>864.2</ele><time>2026-04-19T10:39:38.255Z</time></trkpt><trkpt lat="43.3268692" lon="13.0775929"><ele>862.8</ele><time>2026-04-19T10:39:39.255Z</time></trkpt><trkpt lat="43.3267724" lon="13.0775711"><ele>861.4</ele><time>2026-04-19T10:39:40.254Z</time></trkpt><trkpt lat="43.3266779" lon="13.0775447"><ele>860.0</ele><time>2026-04-19T10:39:41.255Z</time></trkpt><trkpt lat="43.3265826" lon="13.0775233"><ele>860.0000000000001</ele><time>2026-04-19T10:39:42.255Z</time></trkpt><trkpt lat="43.3264889" lon="13.0775089"><ele>860.0</ele><time>2026-04-19T10:39:43.254Z</time></trkpt><trkpt lat="43.3263992" lon="13.0774837"><ele>860.0</ele><time>2026-04-19T10:39:44.255Z</time></trkpt><trkpt lat="43.3263129" lon="13.0774513"><ele>860.0</ele><time>2026-04-19T10:39:45.255Z</time></trkpt><trkpt lat="43.3262381" lon="13.0774227"><ele>860.0000000000001</ele><time>2026-04-19T10:39:46.255Z</time></trkpt><trkpt lat="43.3261746" lon="13.0773938"><ele>860.0</ele><time>2026-04-19T10:39:47.254Z</time></trkpt><trkpt lat="43.3260723" lon="13.0773297"><ele>863.6666666666667</ele><time>2026-04-19T10:39:49.254Z</time></trkpt><trkpt lat="43.3260046" lon="13.0772809"><ele>867.3333333333334</ele><time>2026-04-19T10:39:51.255Z</time></trkpt><trkpt lat="43.3259462" lon="13.0772231"><ele>871.0</ele><time>2026-04-19T10:39:54.255Z</time></trkpt><trkpt lat="43.3258505" lon="13.077189"><ele>874.6666666666667</ele><time>2026-04-19T10:41:49.254Z</time></trkpt><trkpt lat="43.3257637" lon="13.0771178"><ele>878.3333333333334</ele><time>2026-04-19T10:41:51.253Z</time></trkpt><trkpt lat="43.3257042" lon="13.0770687"><ele>882.0</ele><time>2026-04-19T10:41:53.255Z</time></trkpt><trkpt lat="43.3256316" lon="13.0770328"><ele>879.8333333333334</ele><time>2026-04-19T10:41:55.254Z</time></trkpt><trkpt lat="43.3255462" lon="13.0769771"><ele>877.6666666666667</ele><time>2026-04-19T10:41:57.254Z</time></trkpt><trkpt lat="43.3254954" lon="13.0769172"><ele>875.5</ele><time>2026-04-19T10:41:58.254Z</time></trkpt><trkpt lat="43.3254439" lon="13.0768563"><ele>873.3333333333334</ele><time>2026-04-19T10:41:59.255Z</time></trkpt><trkpt lat="43.3253923" lon="13.0767885"><ele>871.1666666666667</ele><time>2026-04-19T10:42:00.254Z</time></trkpt><trkpt lat="43.3253359" lon="13.0766999"><ele>869.0</ele><time>2026-04-19T10:42:01.255Z</time></trkpt><trkpt lat="43.3252818" lon="13.0766176"><ele>872.8333333333334</ele><time>2026-04-19T10:42:02.254Z</time></trkpt><trkpt lat="43.3252314" lon="13.0765456"><ele>876.6666666666667</ele><time>2026-04-19T10:42:03.254Z</time></trkpt><trkpt lat="43.3251814" lon="13.076478"><ele>880.5</ele><time>2026-04-19T10:42:04.254Z</time></trkpt><trkpt lat="43.3250762" lon="13.0764233"><ele>884.3333333333333</ele><time>2026-04-19T10:42:06.255Z</time></trkpt><trkpt lat="43.3250118" lon="13.0764323"><ele>888.1666666666666</ele><time>2026-04-19T10:42:07.255Z</time></trkpt><trkpt lat="43.3249382" lon="13.0764689"><ele>892.0</ele><time>2026-04-19T10:42:08.254Z</time></trkpt><trkpt lat="43.3248546" lon="13.0765168"><ele>892.0</ele><time>2026-04-19T10:42:09.254Z</time></trkpt><trkpt lat="43.3247695" lon="13.0765728"><ele>892.0</ele><time>2026-04-19T10:42:10.254Z</time></trkpt><trkpt lat="43.3246807" lon="13.0766409"><ele>892.0</ele><time>2026-04-19T10:42:11.254Z</time></trkpt><trkpt lat="43.3245944" lon="13.0767075"><ele>892.0</ele><time>2026-04-19T10:42:12.254Z</time></trkpt><trkpt lat="43.3245157" lon="13.0767991"><ele>892.0</ele><time>2026-04-19T10:42:13.255Z</time></trkpt><trkpt lat="43.3244386" lon="13.076908"><ele>891.0</ele><time>2026-04-19T10:42:14.255Z</time></trkpt><trkpt lat="43.3243579" lon="13.077"><ele>890.0</ele><time>2026-04-19T10:42:15.255Z</time></trkpt><trkpt lat="43.3242826" lon="13.0770774"><ele>889.0</ele><time>2026-04-19T10:42:16.255Z</time></trkpt><trkpt lat="43.3242145" lon="13.0771528"><ele>888.0</ele><time>2026-04-19T10:42:17.255Z</time></trkpt><trkpt lat="43.3241485" lon="13.077228"><ele>887.0</ele><time>2026-04-19T10:42:18.254Z</time></trkpt><trkpt lat="43.3240942" lon="13.0773071"><ele>887.0</ele><time>2026-04-19T10:42:19.254Z</time></trkpt><trkpt lat="43.324045" lon="13.0773965"><ele>887.0</ele><time>2026-04-19T10:42:20.253Z</time></trkpt><trkpt lat="43.3240112" lon="13.0775062"><ele>887.0</ele><time>2026-04-19T10:42:21.255Z</time></trkpt><trkpt lat="43.3239936" lon="13.0776384"><ele>887.0</ele><time>2026-04-19T10:42:22.254Z</time></trkpt><trkpt lat="43.3239947" lon="13.0777657"><ele>887.0</ele><time>2026-04-19T10:42:23.255Z</time></trkpt><trkpt lat="43.3240056" lon="13.0778986"><ele>884.8</ele><time>2026-04-19T10:42:24.255Z</time></trkpt><trkpt lat="43.3240088" lon="13.0780314"><ele>882.6</ele><time>2026-04-19T10:42:25.253Z</time></trkpt><trkpt lat="43.3240171" lon="13.0781634"><ele>880.3999999999999</ele><time>2026-04-19T10:42:26.255Z</time></trkpt><trkpt lat="43.324038" lon="13.0783044"><ele>878.1999999999999</ele><time>2026-04-19T10:42:27.255Z</time></trkpt><trkpt lat="43.3240654" lon="13.078451"><ele>876.0</ele><time>2026-04-19T10:42:28.254Z</time></trkpt><trkpt lat="43.3240989" lon="13.0785927"><ele>876.0</ele><time>2026-04-19T10:42:29.255Z</time></trkpt><trkpt lat="43.3241348" lon="13.0787356"><ele>875.9999999999999</ele><time>2026-04-19T10:42:30.255Z</time></trkpt><trkpt lat="43.3241724" lon="13.0788745"><ele>875.9999999999999</ele><time>2026-04-19T10:42:31.255Z</time></trkpt><trkpt lat="43.3241964" lon="13.0790238"><ele>876.0</ele><time>2026-04-19T10:42:32.254Z</time></trkpt><trkpt lat="43.3242149" lon="13.0791831"><ele>876.0</ele><time>2026-04-19T10:42:33.253Z</time></trkpt><trkpt lat="43.3242285" lon="13.0793491"><ele>879.5</ele><time>2026-04-19T10:42:34.255Z</time></trkpt><trkpt lat="43.3242491" lon="13.0795127"><ele>883.0</ele><time>2026-04-19T10:42:35.255Z</time></trkpt><trkpt lat="43.3242862" lon="13.0796877"><ele>886.5</ele><time>2026-04-19T10:42:36.255Z</time></trkpt><trkpt lat="43.3243281" lon="13.0798516"><ele>890.0</ele><time>2026-04-19T10:42:37.255Z</time></trkpt><trkpt lat="43.3243746" lon="13.0800075"><ele>892.2</ele><time>2026-04-19T10:42:38.255Z</time></trkpt><trkpt lat="43.3244081" lon="13.0801646"><ele>894.4</ele><time>2026-04-19T10:42:39.255Z</time></trkpt><trkpt lat="43.3244498" lon="13.0803071"><ele>896.5999999999999</ele><time>2026-04-19T10:42:40.254Z</time></trkpt><trkpt lat="43.3244986" lon="13.080431"><ele>898.8</ele><time>2026-04-19T10:42:41.255Z</time></trkpt><trkpt lat="43.324535" lon="13.0805481"><ele>901.0</ele><time>2026-04-19T10:42:42.255Z</time></trkpt><trkpt lat="43.3245549" lon="13.0806718"><ele>901.5999999999999</ele><time>2026-04-19T10:42:43.255Z</time></trkpt><trkpt lat="43.324552" lon="13.0807967"><ele>902.1999999999999</ele><time>2026-04-19T10:42:44.255Z</time></trkpt><trkpt lat="43.3245335" lon="13.0809374"><ele>902.8000000000001</ele><time>2026-04-19T10:42:45.255Z</time></trkpt><trkpt lat="43.32451" lon="13.081079"><ele>903.4000000000001</ele><time>2026-04-19T10:42:46.254Z</time></trkpt><trkpt lat="43.324458" lon="13.0812258"><ele>904.0</ele><time>2026-04-19T10:42:47.254Z</time></trkpt><trkpt lat="43.3243999" lon="13.0813682"><ele>904.0</ele><time>2026-04-19T10:42:48.255Z</time></trkpt><trkpt lat="43.3243263" lon="13.0815152"><ele>904.0</ele><time>2026-04-19T10:42:49.255Z</time></trkpt><trkpt lat="43.3242548" lon="13.0816431"><ele>904.0</ele><time>2026-04-19T10:42:50.255Z</time></trkpt><trkpt lat="43.3241813" lon="13.0817729"><ele>904.0</ele><time>2026-04-19T10:42:51.255Z</time></trkpt><trkpt lat="43.3241382" lon="13.0819186"><ele>903.0</ele><time>2026-04-19T10:42:52.253Z</time></trkpt><trkpt lat="43.3241055" lon="13.0820597"><ele>902.0000000000001</ele><time>2026-04-19T10:42:53.255Z</time></trkpt><trkpt lat="43.3240943" lon="13.082203"><ele>901.0000000000001</ele><time>2026-04-19T10:42:54.255Z</time></trkpt><trkpt lat="43.3241061" lon="13.0823466"><ele>900.0</ele><time>2026-04-19T10:42:55.255Z</time></trkpt><trkpt lat="43.324135" lon="13.0824892"><ele>899.0</ele><time>2026-04-19T10:42:56.255Z</time></trkpt><trkpt lat="43.3241514" lon="13.0826262"><ele>898.6</ele><time>2026-04-19T10:42:57.255Z</time></trkpt><trkpt lat="43.3241505" lon="13.0827662"><ele>898.2</ele><time>2026-04-19T10:42:58.254Z</time></trkpt><trkpt lat="43.3241337" lon="13.082902"><ele>897.8000000000001</ele><time>2026-04-19T10:42:59.255Z</time></trkpt><trkpt lat="43.3240971" lon="13.083019"><ele>897.4000000000001</ele><time>2026-04-19T10:43:00.254Z</time></trkpt><trkpt lat="43.3240462" lon="13.0831186"><ele>897.0</ele><time>2026-04-19T10:43:01.254Z</time></trkpt><trkpt lat="43.3239911" lon="13.0831976"><ele>896.3333333333334</ele><time>2026-04-19T10:43:02.255Z</time></trkpt><trkpt lat="43.3239337" lon="13.0832661"><ele>895.6666666666667</ele><time>2026-04-19T10:43:03.253Z</time></trkpt><trkpt lat="43.3238786" lon="13.083325"><ele>895.0</ele><time>2026-04-19T10:43:04.252Z</time></trkpt><trkpt lat="43.3238132" lon="13.0834396"><ele>894.3333333333334</ele><time>2026-04-19T10:43:06.253Z</time></trkpt><trkpt lat="43.3238104" lon="13.0835424"><ele>893.6666666666667</ele><time>2026-04-19T10:43:08.254Z</time></trkpt><trkpt lat="43.3238635" lon="13.0836597"><ele>893.0</ele><time>2026-04-19T10:43:10.254Z</time></trkpt><trkpt lat="43.3239516" lon="13.0837695"><ele>893.0000000000001</ele><time>2026-04-19T10:43:12.253Z</time></trkpt><trkpt lat="43.3239915" lon="13.0838704"><ele>893.0</ele><time>2026-04-19T10:43:13.254Z</time></trkpt><trkpt lat="43.3240289" lon="13.0839752"><ele>893.0</ele><time>2026-04-19T10:43:14.252Z</time></trkpt><trkpt lat="43.3240592" lon="13.0840801"><ele>893.0</ele><time>2026-04-19T10:43:15.254Z</time></trkpt><trkpt lat="43.3240874" lon="13.0841924"><ele>893.0000000000001</ele><time>2026-04-19T10:43:16.254Z</time></trkpt><trkpt lat="43.3241163" lon="13.0843108"><ele>893.0</ele><time>2026-04-19T10:43:17.254Z</time></trkpt><trkpt lat="43.3241518" lon="13.0844306"><ele>893.0</ele><time>2026-04-19T10:43:18.254Z</time></trkpt><trkpt lat="43.3241906" lon="13.0845459"><ele>893.0</ele><time>2026-04-19T10:43:19.254Z</time></trkpt><trkpt lat="43.3242335" lon="13.0846614"><ele>893.0</ele><time>2026-04-19T10:43:20.253Z</time></trkpt><trkpt lat="43.3242759" lon="13.0847767"><ele>893.0</ele><time>2026-04-19T10:43:21.254Z</time></trkpt><trkpt lat="43.3243214" lon="13.0848927"><ele>893.0</ele><time>2026-04-19T10:43:22.254Z</time></trkpt><trkpt lat="43.3243685" lon="13.0850119"><ele>892.0</ele><time>2026-04-19T10:43:23.254Z</time></trkpt><trkpt lat="43.3244192" lon="13.0851328"><ele>891.0</ele><time>2026-04-19T10:43:24.253Z</time></trkpt><trkpt lat="43.3244726" lon="13.0852618"><ele>890.0</ele><time>2026-04-19T10:43:25.254Z</time></trkpt><trkpt lat="43.324526" lon="13.0853979"><ele>889.0</ele><time>2026-04-19T10:43:26.254Z</time></trkpt><trkpt lat="43.3245729" lon="13.0855425"><ele>888.0</ele><time>2026-04-19T10:43:27.253Z</time></trkpt><trkpt lat="43.3246192" lon="13.0856905"><ele>891.5</ele><time>2026-04-19T10:43:28.254Z</time></trkpt><trkpt lat="43.3246639" lon="13.0858452"><ele>895.0</ele><time>2026-04-19T10:43:29.254Z</time></trkpt><trkpt lat="43.3247094" lon="13.0860044"><ele>898.5</ele><time>2026-04-19T10:43:30.254Z</time></trkpt><trkpt lat="43.3247562" lon="13.0861654"><ele>902.0</ele><time>2026-04-19T10:43:31.254Z</time></trkpt><trkpt lat="43.3248035" lon="13.0863257"><ele>902.0</ele><time>2026-04-19T10:43:32.253Z</time></trkpt><trkpt lat="43.324852" lon="13.0864844"><ele>902.0</ele><time>2026-04-19T10:43:33.253Z</time></trkpt><trkpt lat="43.3248975" lon="13.0866441"><ele>902.0</ele><time>2026-04-19T10:43:34.254Z</time></trkpt><trkpt lat="43.3249387" lon="13.0867996"><ele>902.0</ele><time>2026-04-19T10:43:35.254Z</time></trkpt><trkpt lat="43.324971" lon="13.0869531"><ele>899.5</ele><time>2026-04-19T10:43:36.253Z</time></trkpt><trkpt lat="43.3249905" lon="13.0871174"><ele>897.0</ele><time>2026-04-19T10:43:37.253Z</time></trkpt><trkpt lat="43.3249887" lon="13.0872853"><ele>894.5</ele><time>2026-04-19T10:43:38.253Z</time></trkpt><trkpt lat="43.3249638" lon="13.0874515"><ele>892.0</ele><time>2026-04-19T10:43:39.253Z</time></trkpt><trkpt lat="43.324917" lon="13.0876016"><ele>891.0</ele><time>2026-04-19T10:43:40.253Z</time></trkpt><trkpt lat="43.3248447" lon="13.0877334"><ele>890.0</ele><time>2026-04-19T10:43:41.253Z</time></trkpt><trkpt lat="43.3247541" lon="13.0878582"><ele>889.0</ele><time>2026-04-19T10:43:42.252Z</time></trkpt><trkpt lat="43.3246579" lon="13.0879752"><ele>888.0</ele><time>2026-04-19T10:43:43.254Z</time></trkpt><trkpt lat="43.3245562" lon="13.088088"><ele>883.75</ele><time>2026-04-19T10:43:44.254Z</time></trkpt><trkpt lat="43.3244533" lon="13.0882003"><ele>879.5</ele><time>2026-04-19T10:43:45.253Z</time></trkpt><trkpt lat="43.3243603" lon="13.0883276"><ele>875.25</ele><time>2026-04-19T10:43:46.252Z</time></trkpt><trkpt lat="43.3242775" lon="13.088468"><ele>871.0</ele><time>2026-04-19T10:43:47.253Z</time></trkpt><trkpt lat="43.324218" lon="13.0886283"><ele>871.0</ele><time>2026-04-19T10:43:48.253Z</time></trkpt><trkpt lat="43.3241748" lon="13.0887957"><ele>871.0</ele><time>2026-04-19T10:43:49.252Z</time></trkpt><trkpt lat="43.3241507" lon="13.0889618"><ele>871.0</ele><time>2026-04-19T10:43:50.253Z</time></trkpt><trkpt lat="43.3241424" lon="13.0891318"><ele>871.0</ele><time>2026-04-19T10:43:51.254Z</time></trkpt><trkpt lat="43.3241424" lon="13.0893085"><ele>872.5</ele><time>2026-04-19T10:43:52.254Z</time></trkpt><trkpt lat="43.3241409" lon="13.0894876"><ele>874.0</ele><time>2026-04-19T10:43:53.254Z</time></trkpt><trkpt lat="43.3241207" lon="13.0896624"><ele>875.5</ele><time>2026-04-19T10:43:54.253Z</time></trkpt><trkpt lat="43.3240809" lon="13.0898362"><ele>877.0</ele><time>2026-04-19T10:43:55.253Z</time></trkpt><trkpt lat="43.3240335" lon="13.0900074"><ele>877.75</ele><time>2026-04-19T10:43:56.254Z</time></trkpt><trkpt lat="43.3239868" lon="13.0901806"><ele>878.5</ele><time>2026-04-19T10:43:57.254Z</time></trkpt><trkpt lat="43.323928" lon="13.0903512"><ele>879.25</ele><time>2026-04-19T10:43:58.253Z</time></trkpt><trkpt lat="43.3238662" lon="13.0905176"><ele>880.0</ele><time>2026-04-19T10:43:59.253Z</time></trkpt><trkpt lat="43.3238062" lon="13.0906844"><ele>873.25</ele><time>2026-04-19T10:44:00.254Z</time></trkpt><trkpt lat="43.3237439" lon="13.0908428"><ele>866.5</ele><time>2026-04-19T10:44:01.254Z</time></trkpt><trkpt lat="43.3236869" lon="13.0909987"><ele>859.75</ele><time>2026-04-19T10:44:02.253Z</time></trkpt><trkpt lat="43.3236342" lon="13.091154"><ele>853.0</ele><time>2026-04-19T10:44:03.254Z</time></trkpt><trkpt lat="43.3235859" lon="13.0913137"><ele>853.0</ele><time>2026-04-19T10:44:04.254Z</time></trkpt><trkpt lat="43.3235497" lon="13.0914871"><ele>853.0</ele><time>2026-04-19T10:44:05.254Z</time></trkpt><trkpt lat="43.3235189" lon="13.0916738"><ele>853.0</ele><time>2026-04-19T10:44:06.253Z</time></trkpt><trkpt lat="43.3234895" lon="13.0918688"><ele>853.0</ele><time>2026-04-19T10:44:07.253Z</time></trkpt><trkpt lat="43.3234584" lon="13.0920614"><ele>854.25</ele><time>2026-04-19T10:44:08.253Z</time></trkpt><trkpt lat="43.323424" lon="13.092252"><ele>855.5</ele><time>2026-04-19T10:44:09.253Z</time></trkpt><trkpt lat="43.3233854" lon="13.0924487"><ele>856.75</ele><time>2026-04-19T10:44:10.254Z</time></trkpt><trkpt lat="43.3233399" lon="13.0926336"><ele>858.0</ele><time>2026-04-19T10:44:11.254Z</time></trkpt><trkpt lat="43.3232925" lon="13.0928113"><ele>858.75</ele><time>2026-04-19T10:44:12.254Z</time></trkpt><trkpt lat="43.3232393" lon="13.0929821"><ele>859.5</ele><time>2026-04-19T10:44:13.253Z</time></trkpt><trkpt lat="43.3231816" lon="13.0931471"><ele>860.25</ele><time>2026-04-19T10:44:14.254Z</time></trkpt><trkpt lat="43.3231359" lon="13.0933157"><ele>861.0</ele><time>2026-04-19T10:44:15.254Z</time></trkpt><trkpt lat="43.3231025" lon="13.0934934"><ele>861.25</ele><time>2026-04-19T10:44:16.253Z</time></trkpt><trkpt lat="43.3230798" lon="13.0936816"><ele>861.5</ele><time>2026-04-19T10:44:17.253Z</time></trkpt><trkpt lat="43.3230738" lon="13.093877"><ele>861.75</ele><time>2026-04-19T10:44:18.253Z</time></trkpt><trkpt lat="43.3230797" lon="13.0940785"><ele>862.0</ele><time>2026-04-19T10:44:19.254Z</time></trkpt><trkpt lat="43.3230951" lon="13.0942791"><ele>862.0</ele><time>2026-04-19T10:44:20.254Z</time></trkpt><trkpt lat="43.3231206" lon="13.0944794"><ele>862.0</ele><time>2026-04-19T10:44:21.254Z</time></trkpt><trkpt lat="43.3231538" lon="13.094676"><ele>862.0</ele><time>2026-04-19T10:44:22.254Z</time></trkpt><trkpt lat="43.3231985" lon="13.0948563"><ele>862.0</ele><time>2026-04-19T10:44:23.254Z</time></trkpt><trkpt lat="43.323269" lon="13.09501"><ele>858.75</ele><time>2026-04-19T10:44:24.253Z</time></trkpt><trkpt lat="43.3233601" lon="13.0951437"><ele>855.5</ele><time>2026-04-19T10:44:25.254Z</time></trkpt><trkpt lat="43.3234588" lon="13.0952615"><ele>852.25</ele><time>2026-04-19T10:44:26.254Z</time></trkpt><trkpt lat="43.3235636" lon="13.0953585"><ele>849.0</ele><time>2026-04-19T10:44:27.253Z</time></trkpt><trkpt lat="43.323684" lon="13.0954489"><ele>849.0</ele><time>2026-04-19T10:44:28.254Z</time></trkpt><trkpt lat="43.3238012" lon="13.0955294"><ele>849.0</ele><time>2026-04-19T10:44:29.254Z</time></trkpt><trkpt lat="43.3239161" lon="13.0956009"><ele>849.0</ele><time>2026-04-19T10:44:30.254Z</time></trkpt><trkpt lat="43.3240275" lon="13.0956758"><ele>849.0</ele><time>2026-04-19T10:44:31.253Z</time></trkpt><trkpt lat="43.3241328" lon="13.0957455"><ele>848.3333333333334</ele><time>2026-04-19T10:44:32.253Z</time></trkpt><trkpt lat="43.3242284" lon="13.0958077"><ele>847.6666666666667</ele><time>2026-04-19T10:44:33.254Z</time></trkpt><trkpt lat="43.3243093" lon="13.0958773"><ele>847.0</ele><time>2026-04-19T10:44:34.253Z</time></trkpt><trkpt lat="43.3243607" lon="13.0959599"><ele>846.3333333333334</ele><time>2026-04-19T10:44:35.254Z</time></trkpt><trkpt lat="43.3243722" lon="13.0960488"><ele>845.6666666666667</ele><time>2026-04-19T10:44:36.253Z</time></trkpt><trkpt lat="43.3243532" lon="13.0961411"><ele>845.0</ele><time>2026-04-19T10:44:37.254Z</time></trkpt><trkpt lat="43.3242827" lon="13.0962344"><ele>845.0</ele><time>2026-04-19T10:44:38.254Z</time></trkpt><trkpt lat="43.3242001" lon="13.0963281"><ele>845.0</ele><time>2026-04-19T10:44:39.254Z</time></trkpt><trkpt lat="43.3240959" lon="13.0964367"><ele>845.0</ele><time>2026-04-19T10:44:40.253Z</time></trkpt><trkpt lat="43.323991" lon="13.0965446"><ele>845.0</ele><time>2026-04-19T10:44:41.254Z</time></trkpt><trkpt lat="43.3238848" lon="13.0966514"><ele>837.25</ele><time>2026-04-19T10:44:42.254Z</time></trkpt><trkpt lat="43.3237773" lon="13.0967599"><ele>829.5</ele><time>2026-04-19T10:44:43.253Z</time></trkpt><trkpt lat="43.323669" lon="13.0968637"><ele>821.75</ele><time>2026-04-19T10:44:44.254Z</time></trkpt><trkpt lat="43.323561" lon="13.0969631"><ele>814.0</ele><time>2026-04-19T10:44:45.254Z</time></trkpt><trkpt lat="43.3234568" lon="13.0970662"><ele>814.0</ele><time>2026-04-19T10:44:46.253Z</time></trkpt><trkpt lat="43.323362" lon="13.0971782"><ele>814.0</ele><time>2026-04-19T10:44:47.253Z</time></trkpt><trkpt lat="43.3232837" lon="13.0973077"><ele>814.0</ele><time>2026-04-19T10:44:48.253Z</time></trkpt><trkpt lat="43.3232148" lon="13.0974504"><ele>814.0</ele><time>2026-04-19T10:44:49.252Z</time></trkpt><trkpt lat="43.3231598" lon="13.0976069"><ele>818.25</ele><time>2026-04-19T10:44:50.254Z</time></trkpt><trkpt lat="43.3231158" lon="13.0977809"><ele>822.5</ele><time>2026-04-19T10:44:51.254Z</time></trkpt><trkpt lat="43.3230883" lon="13.0979588"><ele>826.75</ele><time>2026-04-19T10:44:52.253Z</time></trkpt><trkpt lat="43.3230658" lon="13.0981368"><ele>831.0</ele><time>2026-04-19T10:44:53.254Z</time></trkpt><trkpt lat="43.3230438" lon="13.098318"><ele>821.75</ele><time>2026-04-19T10:44:54.253Z</time></trkpt><trkpt lat="43.3230256" lon="13.098502"><ele>812.5</ele><time>2026-04-19T10:44:55.254Z</time></trkpt><trkpt lat="43.3230113" lon="13.0986896"><ele>803.25</ele><time>2026-04-19T10:44:56.253Z</time></trkpt><trkpt lat="43.3229967" lon="13.0988775"><ele>794.0</ele><time>2026-04-19T10:44:57.252Z</time></trkpt><trkpt lat="43.3229857" lon="13.0990652"><ele>793.6</ele><time>2026-04-19T10:44:58.254Z</time></trkpt><trkpt lat="43.3229858" lon="13.0992426"><ele>793.2</ele><time>2026-04-19T10:44:59.254Z</time></trkpt><trkpt lat="43.3230002" lon="13.099385"><ele>792.8000000000001</ele><time>2026-04-19T10:45:00.254Z</time></trkpt><trkpt lat="43.3230412" lon="13.0995021"><ele>792.4000000000001</ele><time>2026-04-19T10:45:01.254Z</time></trkpt><trkpt lat="43.3231118" lon="13.0996042"><ele>792.0</ele><time>2026-04-19T10:45:02.253Z</time></trkpt><trkpt lat="43.3231994" lon="13.09968"><ele>797.6666666666666</ele><time>2026-04-19T10:45:03.254Z</time></trkpt><trkpt lat="43.3232651" lon="13.0997646"><ele>803.3333333333333</ele><time>2026-04-19T10:45:04.254Z</time></trkpt><trkpt lat="43.3232868" lon="13.0998573"><ele>809.0</ele><time>2026-04-19T10:45:05.253Z</time></trkpt><trkpt lat="43.323269" lon="13.0999555"><ele>814.6666666666666</ele><time>2026-04-19T10:45:06.254Z</time></trkpt><trkpt lat="43.3232214" lon="13.1000663"><ele>820.3333333333333</ele><time>2026-04-19T10:45:07.254Z</time></trkpt><trkpt lat="43.3231539" lon="13.1001803"><ele>826.0</ele><time>2026-04-19T10:45:08.254Z</time></trkpt><trkpt lat="43.3231014" lon="13.1002951"><ele>826.0</ele><time>2026-04-19T10:45:09.254Z</time></trkpt><trkpt lat="43.3230857" lon="13.1004206"><ele>826.0</ele><time>2026-04-19T10:45:10.252Z</time></trkpt><trkpt lat="43.3231072" lon="13.1005321"><ele>826.0</ele><time>2026-04-19T10:45:11.254Z</time></trkpt><trkpt lat="43.3231626" lon="13.1006242"><ele>826.0</ele><time>2026-04-19T10:45:12.254Z</time></trkpt><trkpt lat="43.323242" lon="13.1007299"><ele>826.0</ele><time>2026-04-19T10:45:13.254Z</time></trkpt><trkpt lat="43.3233109" lon="13.1008447"><ele>824.8</ele><time>2026-04-19T10:45:14.253Z</time></trkpt><trkpt lat="43.3233541" lon="13.1009746"><ele>823.5999999999999</ele><time>2026-04-19T10:45:15.253Z</time></trkpt><trkpt lat="43.3233644" lon="13.1011114"><ele>822.4</ele><time>2026-04-19T10:45:16.253Z</time></trkpt><trkpt lat="43.3233362" lon="13.1012582"><ele>821.2</ele><time>2026-04-19T10:45:17.254Z</time></trkpt><trkpt lat="43.3232768" lon="13.1014166"><ele>820.0</ele><time>2026-04-19T10:45:18.254Z</time></trkpt><trkpt lat="43.3232084" lon="13.1015668"><ele>820.25</ele><time>2026-04-19T10:45:19.252Z</time></trkpt><trkpt lat="43.3231304" lon="13.1016965"><ele>820.5</ele><time>2026-04-19T10:45:20.253Z</time></trkpt><trkpt lat="43.3230392" lon="13.1018103"><ele>820.75</ele><time>2026-04-19T10:45:21.253Z</time></trkpt><trkpt lat="43.3229379" lon="13.1018982"><ele>821.0</ele><time>2026-04-19T10:45:22.253Z</time></trkpt><trkpt lat="43.3228204" lon="13.1019584"><ele>814.5</ele><time>2026-04-19T10:45:23.253Z</time></trkpt><trkpt lat="43.3227052" lon="13.1020036"><ele>808.0</ele><time>2026-04-19T10:45:24.252Z</time></trkpt><trkpt lat="43.3225961" lon="13.1020631"><ele>801.5</ele><time>2026-04-19T10:45:25.254Z</time></trkpt><trkpt lat="43.3225014" lon="13.1021474"><ele>795.0</ele><time>2026-04-19T10:45:26.254Z</time></trkpt><trkpt lat="43.322427" lon="13.1022556"><ele>795.0</ele><time>2026-04-19T10:45:27.253Z</time></trkpt><trkpt lat="43.322384" lon="13.1023661"><ele>795.0</ele><time>2026-04-19T10:45:28.254Z</time></trkpt><trkpt lat="43.3223627" lon="13.1024786"><ele>795.0</ele><time>2026-04-19T10:45:29.253Z</time></trkpt><trkpt lat="43.3223494" lon="13.1025741"><ele>795.0</ele><time>2026-04-19T10:45:30.253Z</time></trkpt><trkpt lat="43.3223351" lon="13.1027085"><ele>795.0</ele><time>2026-04-19T10:45:32.254Z</time></trkpt><trkpt lat="43.3223222" lon="13.1028004"><ele>795.0</ele><time>2026-04-19T10:45:34.254Z</time></trkpt><trkpt lat="43.3222941" lon="13.1028835"><ele>796.6666666666666</ele><time>2026-04-19T10:45:36.253Z</time></trkpt><trkpt lat="43.3222328" lon="13.1029089"><ele>798.3333333333333</ele><time>2026-04-19T10:45:38.254Z</time></trkpt><trkpt lat="43.3222032" lon="13.1027903"><ele>800.0</ele><time>2026-04-19T10:45:40.254Z</time></trkpt><trkpt lat="43.3221972" lon="13.1026936"><ele>801.6666666666666</ele><time>2026-04-19T10:45:41.254Z</time></trkpt><trkpt lat="43.3221925" lon="13.1025811"><ele>803.3333333333333</ele><time>2026-04-19T10:45:42.253Z</time></trkpt><trkpt lat="43.3221896" lon="13.1024522"><ele>805.0</ele><time>2026-04-19T10:45:43.254Z</time></trkpt><trkpt lat="43.3221881" lon="13.1023179"><ele>796.2</ele><time>2026-04-19T10:45:44.254Z</time></trkpt><trkpt lat="43.3221844" lon="13.1021827"><ele>787.4</ele><time>2026-04-19T10:45:45.254Z</time></trkpt><trkpt lat="43.322179" lon="13.1020465"><ele>778.5999999999999</ele><time>2026-04-19T10:45:46.253Z</time></trkpt><trkpt lat="43.3221781" lon="13.1019078"><ele>769.8</ele><time>2026-04-19T10:45:47.253Z</time></trkpt><trkpt lat="43.322191" lon="13.1017666"><ele>761.0</ele><time>2026-04-19T10:45:48.253Z</time></trkpt><trkpt lat="43.3222201" lon="13.1016338"><ele>765.3333333333333</ele><time>2026-04-19T10:45:49.254Z</time></trkpt><trkpt lat="43.3222632" lon="13.10152"><ele>769.6666666666666</ele><time>2026-04-19T10:45:50.254Z</time></trkpt><trkpt lat="43.3223121" lon="13.1014206"><ele>774.0</ele><time>2026-04-19T10:45:51.254Z</time></trkpt><trkpt lat="43.3223713" lon="13.1013375"><ele>778.3333333333333</ele><time>2026-04-19T10:45:52.253Z</time></trkpt><trkpt lat="43.3224372" lon="13.1012803"><ele>782.6666666666666</ele><time>2026-04-19T10:45:53.253Z</time></trkpt><trkpt lat="43.3225005" lon="13.1012437"><ele>787.0</ele><time>2026-04-19T10:45:54.254Z</time></trkpt><trkpt lat="43.3225908" lon="13.1011294"><ele>787.0</ele><time>2026-04-19T10:45:56.253Z</time></trkpt><trkpt lat="43.3225918" lon="13.1009586"><ele>787.0</ele><time>2026-04-19T10:45:58.253Z</time></trkpt><trkpt lat="43.3225506" lon="13.1008656"><ele>787.0</ele><time>2026-04-19T10:45:59.254Z</time></trkpt><trkpt lat="43.3224929" lon="13.1007692"><ele>787.0</ele><time>2026-04-19T10:46:00.254Z</time></trkpt><trkpt lat="43.3224271" lon="13.1006675"><ele>787.0</ele><time>2026-04-19T10:46:01.254Z</time></trkpt><trkpt lat="43.322356" lon="13.1005701"><ele>787.4000000000001</ele><time>2026-04-19T10:46:02.254Z</time></trkpt><trkpt lat="43.3222838" lon="13.1004727"><ele>787.8000000000001</ele><time>2026-04-19T10:46:03.252Z</time></trkpt><trkpt lat="43.3222201" lon="13.1003707"><ele>788.2</ele><time>2026-04-19T10:46:04.254Z</time></trkpt><trkpt lat="43.3221835" lon="13.1002581"><ele>788.6</ele><time>2026-04-19T10:46:05.254Z</time></trkpt><trkpt lat="43.3221917" lon="13.1001298"><ele>789.0</ele><time>2026-04-19T10:46:06.254Z</time></trkpt><trkpt lat="43.3222093" lon="13.1000012"><ele>781.6</ele><time>2026-04-19T10:46:07.254Z</time></trkpt><trkpt lat="43.3222249" lon="13.0998782"><ele>774.2</ele><time>2026-04-19T10:46:08.253Z</time></trkpt><trkpt lat="43.3222311" lon="13.0997528"><ele>766.8000000000001</ele><time>2026-04-19T10:46:09.254Z</time></trkpt><trkpt lat="43.322221" lon="13.0996284"><ele>759.4000000000001</ele><time>2026-04-19T10:46:10.253Z</time></trkpt><trkpt lat="43.3221949" lon="13.0995019"><ele>752.0</ele><time>2026-04-19T10:46:11.253Z</time></trkpt><trkpt lat="43.3221497" lon="13.0993804"><ele>752.0</ele><time>2026-04-19T10:46:12.253Z</time></trkpt><trkpt lat="43.3221262" lon="13.0992443"><ele>752.0</ele><time>2026-04-19T10:46:13.254Z</time></trkpt><trkpt lat="43.3221128" lon="13.0991003"><ele>752.0</ele><time>2026-04-19T10:46:14.254Z</time></trkpt><trkpt lat="43.3220952" lon="13.0989583"><ele>752.0</ele><time>2026-04-19T10:46:15.254Z</time></trkpt><trkpt lat="43.322085" lon="13.0988179"><ele>752.0</ele><time>2026-04-19T10:46:16.253Z</time></trkpt><trkpt lat="43.3220762" lon="13.0986772"><ele>752.0</ele><time>2026-04-19T10:46:17.253Z</time></trkpt><trkpt lat="43.3220656" lon="13.0985385"><ele>752.0</ele><time>2026-04-19T10:46:18.253Z</time></trkpt><trkpt lat="43.3220546" lon="13.0983983"><ele>752.0</ele><time>2026-04-19T10:46:19.254Z</time></trkpt><trkpt lat="43.3220428" lon="13.098262"><ele>752.0</ele><time>2026-04-19T10:46:20.254Z</time></trkpt><trkpt lat="43.3220323" lon="13.0981332"><ele>752.0</ele><time>2026-04-19T10:46:21.254Z</time></trkpt><trkpt lat="43.3220214" lon="13.0980062"><ele>751.8333333333333</ele><time>2026-04-19T10:46:22.253Z</time></trkpt><trkpt lat="43.3220123" lon="13.0978823"><ele>751.6666666666666</ele><time>2026-04-19T10:46:23.252Z</time></trkpt><trkpt lat="43.322004" lon="13.0977606"><ele>751.5</ele><time>2026-04-19T10:46:24.254Z</time></trkpt><trkpt lat="43.3219977" lon="13.0976476"><ele>751.3333333333334</ele><time>2026-04-19T10:46:25.254Z</time></trkpt><trkpt lat="43.3219921" lon="13.0975432"><ele>751.1666666666667</ele><time>2026-04-19T10:46:26.254Z</time></trkpt><trkpt lat="43.3219875" lon="13.097444"><ele>751.0</ele><time>2026-04-19T10:46:27.254Z</time></trkpt><trkpt lat="43.3219798" lon="13.0973533"><ele>751.0</ele><time>2026-04-19T10:46:28.253Z</time></trkpt><trkpt lat="43.3219724" lon="13.0972634"><ele>751.0</ele><time>2026-04-19T10:46:29.253Z</time></trkpt><trkpt lat="43.3219612" lon="13.0970987"><ele>751.0</ele><time>2026-04-19T10:46:31.254Z</time></trkpt><trkpt lat="43.32195" lon="13.0969541"><ele>751.0</ele><time>2026-04-19T10:46:33.254Z</time></trkpt><trkpt lat="43.3219436" lon="13.0968547"><ele>751.0</ele><time>2026-04-19T10:46:35.254Z</time></trkpt><trkpt lat="43.321936" lon="13.0967398"><ele>751.0</ele><time>2026-04-19T10:46:38.253Z</time></trkpt><trkpt lat="43.3219428" lon="13.0966289"><ele>752.1999999999999</ele><time>2026-04-19T10:46:41.254Z</time></trkpt><trkpt lat="43.3219673" lon="13.0964933"><ele>753.4</ele><time>2026-04-19T10:46:43.253Z</time></trkpt><trkpt lat="43.3219411" lon="13.0963281"><ele>754.6</ele><time>2026-04-19T10:46:45.254Z</time></trkpt><trkpt lat="43.3219006" lon="13.0962256"><ele>755.8</ele><time>2026-04-19T10:46:46.253Z</time></trkpt><trkpt lat="43.3218559" lon="13.0961264"><ele>757.0</ele><time>2026-04-19T10:46:47.254Z</time></trkpt><trkpt lat="43.3218059" lon="13.096025"><ele>757.0</ele><time>2026-04-19T10:46:48.254Z</time></trkpt><trkpt lat="43.3217556" lon="13.0959152"><ele>757.0</ele><time>2026-04-19T10:46:49.253Z</time></trkpt><trkpt lat="43.3217182" lon="13.0957892"><ele>757.0</ele><time>2026-04-19T10:46:50.253Z</time></trkpt><trkpt lat="43.3216869" lon="13.0956524"><ele>757.0</ele><time>2026-04-19T10:46:51.254Z</time></trkpt><trkpt lat="43.321664" lon="13.0955185"><ele>757.0</ele><time>2026-04-19T10:46:52.254Z</time></trkpt><trkpt lat="43.3216454" lon="13.0953818"><ele>759.4000000000001</ele><time>2026-04-19T10:46:53.254Z</time></trkpt><trkpt lat="43.3216288" lon="13.095237"><ele>761.8000000000001</ele><time>2026-04-19T10:46:54.253Z</time></trkpt><trkpt lat="43.3216114" lon="13.0950898"><ele>764.2</ele><time>2026-04-19T10:46:55.254Z</time></trkpt><trkpt lat="43.3215929" lon="13.0949394"><ele>766.6</ele><time>2026-04-19T10:46:56.254Z</time></trkpt><trkpt lat="43.3215749" lon="13.0947934"><ele>769.0</ele><time>2026-04-19T10:46:57.254Z</time></trkpt><trkpt lat="43.3215641" lon="13.0946515"><ele>770.0</ele><time>2026-04-19T10:46:58.254Z</time></trkpt><trkpt lat="43.321557" lon="13.0945095"><ele>771.0</ele><time>2026-04-19T10:46:59.254Z</time></trkpt><trkpt lat="43.3215507" lon="13.0943648"><ele>772.0</ele><time>2026-04-19T10:47:00.253Z</time></trkpt><trkpt lat="43.3215482" lon="13.0942182"><ele>773.0</ele><time>2026-04-19T10:47:01.253Z</time></trkpt><trkpt lat="43.321542" lon="13.0940645"><ele>774.0</ele><time>2026-04-19T10:47:02.254Z</time></trkpt><trkpt lat="43.3215353" lon="13.0939136"><ele>774.4000000000001</ele><time>2026-04-19T10:47:03.254Z</time></trkpt><trkpt lat="43.3215241" lon="13.0937601"><ele>774.8</ele><time>2026-04-19T10:47:04.253Z</time></trkpt><trkpt lat="43.3215133" lon="13.0936055"><ele>775.2</ele><time>2026-04-19T10:47:05.253Z</time></trkpt><trkpt lat="43.3215058" lon="13.0934539"><ele>775.5999999999999</ele><time>2026-04-19T10:47:06.254Z</time></trkpt><trkpt lat="43.3214915" lon="13.0933113"><ele>776.0</ele><time>2026-04-19T10:47:07.254Z</time></trkpt><trkpt lat="43.3214782" lon="13.0931662"><ele>776.0</ele><time>2026-04-19T10:47:08.253Z</time></trkpt><trkpt lat="43.3214641" lon="13.0930191"><ele>776.0</ele><time>2026-04-19T10:47:09.253Z</time></trkpt><trkpt lat="43.3214477" lon="13.0928831"><ele>776.0</ele><time>2026-04-19T10:47:10.253Z</time></trkpt><trkpt lat="43.3214238" lon="13.0927497"><ele>776.0</ele><time>2026-04-19T10:47:11.254Z</time></trkpt><trkpt lat="43.3214025" lon="13.092625"><ele>776.0</ele><time>2026-04-19T10:47:12.254Z</time></trkpt><trkpt lat="43.3213479" lon="13.0925078"><ele>771.0</ele><time>2026-04-19T10:47:13.253Z</time></trkpt><trkpt lat="43.3212893" lon="13.0923962"><ele>766.0</ele><time>2026-04-19T10:47:14.254Z</time></trkpt><trkpt lat="43.321218" lon="13.0922886"><ele>761.0</ele><time>2026-04-19T10:47:15.254Z</time></trkpt><trkpt lat="43.3211374" lon="13.092175"><ele>756.0</ele><time>2026-04-19T10:47:16.254Z</time></trkpt><trkpt lat="43.321065" lon="13.0920762"><ele>751.0</ele><time>2026-04-19T10:47:17.254Z</time></trkpt><trkpt lat="43.3210006" lon="13.0919882"><ele>751.0</ele><time>2026-04-19T10:47:18.252Z</time></trkpt><trkpt lat="43.3209355" lon="13.0919027"><ele>751.0</ele><time>2026-04-19T10:47:19.253Z</time></trkpt><trkpt lat="43.3208701" lon="13.0918188"><ele>751.0</ele><time>2026-04-19T10:47:20.254Z</time></trkpt><trkpt lat="43.3208023" lon="13.0917286"><ele>751.0</ele><time>2026-04-19T10:47:21.253Z</time></trkpt><trkpt lat="43.3207393" lon="13.0916447"><ele>751.0</ele><time>2026-04-19T10:47:22.253Z</time></trkpt><trkpt lat="43.3206713" lon="13.0915716"><ele>751.0</ele><time>2026-04-19T10:47:23.254Z</time></trkpt><trkpt lat="43.3206031" lon="13.0915209"><ele>752.0</ele><time>2026-04-19T10:47:24.254Z</time></trkpt><trkpt lat="43.3205114" lon="13.0914831"><ele>753.0</ele><time>2026-04-19T10:47:25.253Z</time></trkpt><trkpt lat="43.3204241" lon="13.0914501"><ele>754.0</ele><time>2026-04-19T10:47:26.253Z</time></trkpt><trkpt lat="43.3203372" lon="13.091425"><ele>755.0</ele><time>2026-04-19T10:47:27.253Z</time></trkpt><trkpt lat="43.3202495" lon="13.0913772"><ele>756.0</ele><time>2026-04-19T10:47:28.254Z</time></trkpt><trkpt lat="43.3201729" lon="13.0913346"><ele>756.0</ele><time>2026-04-19T10:47:29.254Z</time></trkpt><trkpt lat="43.3201019" lon="13.0912912"><ele>756.0</ele><time>2026-04-19T10:47:30.254Z</time></trkpt><trkpt lat="43.3200331" lon="13.091244"><ele>756.0</ele><time>2026-04-19T10:47:31.253Z</time></trkpt><trkpt lat="43.3199676" lon="13.0912041"><ele>756.0</ele><time>2026-04-19T10:47:32.253Z</time></trkpt><trkpt lat="43.3199079" lon="13.0911699"><ele>756.0</ele><time>2026-04-19T10:47:33.254Z</time></trkpt><trkpt lat="43.319793" lon="13.0911533"><ele>756.0</ele><time>2026-04-19T10:47:35.253Z</time></trkpt><trkpt lat="43.3197317" lon="13.0911766"><ele>756.0</ele><time>2026-04-19T10:47:36.253Z</time></trkpt><trkpt lat="43.3196717" lon="13.0912317"><ele>756.0</ele><time>2026-04-19T10:47:37.254Z</time></trkpt><trkpt lat="43.3196107" lon="13.0912941"><ele>756.0</ele><time>2026-04-19T10:47:38.254Z</time></trkpt><trkpt lat="43.3195453" lon="13.0913555"><ele>756.0</ele><time>2026-04-19T10:47:39.254Z</time></trkpt><trkpt lat="43.319483" lon="13.0914125"><ele>756.0</ele><time>2026-04-19T10:47:40.253Z</time></trkpt><trkpt lat="43.3194123" lon="13.0914674"><ele>756.0</ele><time>2026-04-19T10:47:41.254Z</time></trkpt><trkpt lat="43.3193465" lon="13.0915144"><ele>756.0</ele><time>2026-04-19T10:47:42.253Z</time></trkpt><trkpt lat="43.3192777" lon="13.0915679"><ele>756.0</ele><time>2026-04-19T10:47:43.254Z</time></trkpt><trkpt lat="43.3192034" lon="13.091621"><ele>756.0</ele><time>2026-04-19T10:47:44.253Z</time></trkpt><trkpt lat="43.3191358" lon="13.0916865"><ele>756.0</ele><time>2026-04-19T10:47:45.254Z</time></trkpt><trkpt lat="43.3190757" lon="13.0917485"><ele>756.0</ele><time>2026-04-19T10:47:46.253Z</time></trkpt><trkpt lat="43.3190254" lon="13.0918029"><ele>756.0</ele><time>2026-04-19T10:47:47.253Z</time></trkpt><trkpt lat="43.3190107" lon="13.091893"><ele>755.5</ele><time>2026-04-19T10:47:49.254Z</time></trkpt><trkpt lat="43.3189944" lon="13.0920138"><ele>755.0</ele><time>2026-04-19T10:48:11.254Z</time></trkpt><trkpt lat="43.3189794" lon="13.0921135"><ele>754.5</ele><time>2026-04-19T10:48:14.253Z</time></trkpt><trkpt lat="43.3189642" lon="13.0922175"><ele>754.0</ele><time>2026-04-19T10:48:18.253Z</time></trkpt><trkpt lat="43.3189353" lon="13.0923253"><ele>753.5</ele><time>2026-04-19T10:48:21.253Z</time></trkpt><trkpt lat="43.3189019" lon="13.0924438"><ele>753.0</ele><time>2026-04-19T10:51:20.252Z</time></trkpt><trkpt lat="43.3188703" lon="13.0925288"><ele>754.5</ele><time>2026-04-19T10:51:22.252Z</time></trkpt><trkpt lat="43.3188484" lon="13.0926202"><ele>756.0</ele><time>2026-04-19T10:51:24.252Z</time></trkpt><trkpt lat="43.3188228" lon="13.0927115"><ele>757.5</ele><time>2026-04-19T10:51:39.252Z</time></trkpt><trkpt lat="43.3187858" lon="13.0928091"><ele>759.0</ele><time>2026-04-19T10:51:41.253Z</time></trkpt><trkpt lat="43.3187473" lon="13.0929629"><ele>760.5</ele><time>2026-04-19T10:51:43.253Z</time></trkpt><trkpt lat="43.318721" lon="13.0930507"><ele>762.0</ele><time>2026-04-19T10:51:44.253Z</time></trkpt><trkpt lat="43.3187028" lon="13.0931391"><ele>762.0</ele><time>2026-04-19T10:51:45.253Z</time></trkpt><trkpt lat="43.3186834" lon="13.0932276"><ele>762.0</ele><time>2026-04-19T10:51:46.253Z</time></trkpt><trkpt lat="43.3186702" lon="13.0933824"><ele>762.0</ele><time>2026-04-19T10:51:48.253Z</time></trkpt><trkpt lat="43.3186296" lon="13.0935277"><ele>762.0</ele><time>2026-04-19T10:51:50.253Z</time></trkpt><trkpt lat="43.3185966" lon="13.0936212"><ele>762.0</ele><time>2026-04-19T10:51:51.253Z</time></trkpt><trkpt lat="43.3185682" lon="13.0937071"><ele>762.0</ele><time>2026-04-19T10:51:52.253Z</time></trkpt><trkpt lat="43.3185238" lon="13.0938363"><ele>763.4000000000001</ele><time>2026-04-19T10:51:54.253Z</time></trkpt><trkpt lat="43.318475" lon="13.0939311"><ele>764.8000000000001</ele><time>2026-04-19T10:52:07.252Z</time></trkpt><trkpt lat="43.3184355" lon="13.0940005"><ele>766.2</ele><time>2026-04-19T10:52:09.252Z</time></trkpt><trkpt lat="43.3183771" lon="13.09412"><ele>767.6</ele><time>2026-04-19T10:52:11.252Z</time></trkpt><trkpt lat="43.3183418" lon="13.0942602"><ele>769.0</ele><time>2026-04-19T10:52:13.253Z</time></trkpt><trkpt lat="43.3183539" lon="13.0943983"><ele>770.4000000000001</ele><time>2026-04-19T10:52:15.253Z</time></trkpt><trkpt lat="43.3183704" lon="13.094552"><ele>771.8</ele><time>2026-04-19T10:52:17.252Z</time></trkpt><trkpt lat="43.3183925" lon="13.0946377"><ele>773.2</ele><time>2026-04-19T10:52:18.253Z</time></trkpt><trkpt lat="43.3184256" lon="13.0947284"><ele>774.5999999999999</ele><time>2026-04-19T10:52:19.253Z</time></trkpt><trkpt lat="43.3184637" lon="13.0948588"><ele>776.0</ele><time>2026-04-19T10:52:21.253Z</time></trkpt><trkpt lat="43.318517" lon="13.094974"><ele>777.6666666666667</ele><time>2026-04-19T10:52:23.253Z</time></trkpt><trkpt lat="43.3185613" lon="13.0951001"><ele>779.3333333333334</ele><time>2026-04-19T10:52:25.253Z</time></trkpt><trkpt lat="43.3186017" lon="13.095198"><ele>781.0</ele><time>2026-04-19T10:52:27.253Z</time></trkpt><trkpt lat="43.3186385" lon="13.0953037"><ele>782.6666666666667</ele><time>2026-04-19T10:52:29.252Z</time></trkpt><trkpt lat="43.3186698" lon="13.0954208"><ele>784.3333333333334</ele><time>2026-04-19T10:52:31.253Z</time></trkpt><trkpt lat="43.3186964" lon="13.0955282"><ele>786.0</ele><time>2026-04-19T10:52:33.253Z</time></trkpt><trkpt lat="43.3187203" lon="13.0956461"><ele>786.0</ele><time>2026-04-19T10:52:35.251Z</time></trkpt><trkpt lat="43.3186943" lon="13.0957429"><ele>786.0</ele><time>2026-04-19T10:52:37.252Z</time></trkpt><trkpt lat="43.3186227" lon="13.095766"><ele>786.0</ele><time>2026-04-19T10:52:39.252Z</time></trkpt><trkpt lat="43.3185366" lon="13.095721"><ele>786.0</ele><time>2026-04-19T10:52:41.253Z</time></trkpt><trkpt lat="43.3184878" lon="13.0955942"><ele>786.0</ele><time>2026-04-19T10:52:43.253Z</time></trkpt><trkpt lat="43.3183966" lon="13.0954856"><ele>786.0</ele><time>2026-04-19T10:52:45.253Z</time></trkpt><trkpt lat="43.3183391" lon="13.0954233"><ele>786.0</ele><time>2026-04-19T10:52:46.253Z</time></trkpt><trkpt lat="43.3182704" lon="13.0953535"><ele>786.0</ele><time>2026-04-19T10:52:47.252Z</time></trkpt><trkpt lat="43.3181998" lon="13.0952677"><ele>786.0</ele><time>2026-04-19T10:52:48.252Z</time></trkpt><trkpt lat="43.3181283" lon="13.0951669"><ele>786.0</ele><time>2026-04-19T10:52:49.253Z</time></trkpt><trkpt lat="43.3180629" lon="13.0950845"><ele>786.0</ele><time>2026-04-19T10:52:50.253Z</time></trkpt><trkpt lat="43.3180117" lon="13.0950249"><ele>790.0</ele><time>2026-04-19T10:52:51.252Z</time></trkpt><trkpt lat="43.3179205" lon="13.0949313"><ele>794.0</ele><time>2026-04-19T10:52:53.253Z</time></trkpt><trkpt lat="43.3178618" lon="13.0948462"><ele>798.0</ele><time>2026-04-19T10:52:55.253Z</time></trkpt><trkpt lat="43.3178017" lon="13.0947766"><ele>802.0</ele><time>2026-04-19T10:52:58.252Z</time></trkpt><trkpt lat="43.3177526" lon="13.0948737"><ele>806.0</ele><time>2026-04-19T10:53:01.253Z</time></trkpt><trkpt lat="43.3177844" lon="13.0949903"><ele>808.0000000000001</ele><time>2026-04-19T10:53:03.252Z</time></trkpt><trkpt lat="43.3178395" lon="13.0951395"><ele>810.0</ele><time>2026-04-19T10:53:05.252Z</time></trkpt><trkpt lat="43.31786" lon="13.0952369"><ele>812.0</ele><time>2026-04-19T10:53:06.253Z</time></trkpt><trkpt lat="43.3178774" lon="13.0953425"><ele>814.0</ele><time>2026-04-19T10:53:07.253Z</time></trkpt><trkpt lat="43.317873" lon="13.0954378"><ele>816.0000000000001</ele><time>2026-04-19T10:53:08.252Z</time></trkpt><trkpt lat="43.3178801" lon="13.0955456"><ele>818.0</ele><time>2026-04-19T10:53:09.253Z</time></trkpt><trkpt lat="43.3178963" lon="13.095644"><ele>818.0000000000001</ele><time>2026-04-19T10:53:10.253Z</time></trkpt><trkpt lat="43.3179362" lon="13.0957416"><ele>818.0</ele><time>2026-04-19T10:53:11.253Z</time></trkpt><trkpt lat="43.317955" lon="13.0958451"><ele>818.0</ele><time>2026-04-19T10:53:12.253Z</time></trkpt><trkpt lat="43.3179743" lon="13.0959485"><ele>818.0</ele><time>2026-04-19T10:53:13.251Z</time></trkpt><trkpt lat="43.3179789" lon="13.0960544"><ele>818.0000000000001</ele><time>2026-04-19T10:53:14.253Z</time></trkpt><trkpt lat="43.3179792" lon="13.0961688"><ele>818.0</ele><time>2026-04-19T10:53:15.253Z</time></trkpt><trkpt lat="43.3179733" lon="13.0962571"><ele>819.25</ele><time>2026-04-19T10:53:16.252Z</time></trkpt><trkpt lat="43.3179433" lon="13.0964182"><ele>820.5</ele><time>2026-04-19T10:53:18.253Z</time></trkpt><trkpt lat="43.317916" lon="13.0965772"><ele>821.75</ele><time>2026-04-19T10:53:20.253Z</time></trkpt><trkpt lat="43.3178773" lon="13.0967166"><ele>823.0</ele><time>2026-04-19T10:53:22.252Z</time></trkpt><trkpt lat="43.3178067" lon="13.0968444"><ele>823.6666666666666</ele><time>2026-04-19T10:53:24.252Z</time></trkpt><trkpt lat="43.3177244" lon="13.096959"><ele>824.3333333333333</ele><time>2026-04-19T10:53:26.253Z</time></trkpt><trkpt lat="43.3176705" lon="13.0970235"><ele>825.0</ele><time>2026-04-19T10:53:27.253Z</time></trkpt><trkpt lat="43.3176069" lon="13.0970995"><ele>825.6666666666667</ele><time>2026-04-19T10:53:28.253Z</time></trkpt><trkpt lat="43.3175341" lon="13.0971867"><ele>826.3333333333334</ele><time>2026-04-19T10:53:29.252Z</time></trkpt><trkpt lat="43.3174772" lon="13.097254"><ele>827.0</ele><time>2026-04-19T10:53:30.253Z</time></trkpt><trkpt lat="43.3174031" lon="13.0973223"><ele>827.0000000000001</ele><time>2026-04-19T10:53:31.252Z</time></trkpt><trkpt lat="43.3173283" lon="13.0973775"><ele>827.0</ele><time>2026-04-19T10:53:32.252Z</time></trkpt><trkpt lat="43.3172695" lon="13.0974094"><ele>827.0</ele><time>2026-04-19T10:53:33.253Z</time></trkpt><trkpt lat="43.31719" lon="13.0974162"><ele>827.0</ele><time>2026-04-19T10:53:34.253Z</time></trkpt><trkpt lat="43.3171039" lon="13.09741"><ele>827.0000000000001</ele><time>2026-04-19T10:53:35.253Z</time></trkpt><trkpt lat="43.3170409" lon="13.0973932"><ele>827.0</ele><time>2026-04-19T10:53:36.252Z</time></trkpt><trkpt lat="43.3169155" lon="13.0973843"><ele>829.0</ele><time>2026-04-19T10:53:38.251Z</time></trkpt><trkpt lat="43.3168421" lon="13.0973688"><ele>831.0</ele><time>2026-04-19T10:53:40.253Z</time></trkpt><trkpt lat="43.3167495" lon="13.0973746"><ele>833.0</ele><time>2026-04-19T10:53:57.253Z</time></trkpt><trkpt lat="43.3166644" lon="13.0973578"><ele>835.0</ele><time>2026-04-19T10:53:59.253Z</time></trkpt><trkpt lat="43.3165429" lon="13.0973349"><ele>837.0</ele><time>2026-04-19T10:54:01.253Z</time></trkpt><trkpt lat="43.3164229" lon="13.0973294"><ele>836.2</ele><time>2026-04-19T10:54:03.253Z</time></trkpt><trkpt lat="43.3163022" lon="13.0973211"><ele>835.4000000000001</ele><time>2026-04-19T10:54:05.253Z</time></trkpt><trkpt lat="43.3161946" lon="13.0973097"><ele>834.5999999999999</ele><time>2026-04-19T10:54:07.252Z</time></trkpt><trkpt lat="43.3160861" lon="13.0972987"><ele>833.8</ele><time>2026-04-19T10:54:09.252Z</time></trkpt><trkpt lat="43.315984" lon="13.0972873"><ele>833.0</ele><time>2026-04-19T10:54:11.252Z</time></trkpt><trkpt lat="43.3158793" lon="13.0972733"><ele>833.0000000000001</ele><time>2026-04-19T10:54:13.253Z</time></trkpt><trkpt lat="43.3157583" lon="13.0972588"><ele>833.0</ele><time>2026-04-19T10:54:15.253Z</time></trkpt><trkpt lat="43.3156953" lon="13.0972398"><ele>833.0</ele><time>2026-04-19T10:54:16.253Z</time></trkpt><trkpt lat="43.3156286" lon="13.0972068"><ele>833.0</ele><time>2026-04-19T10:54:17.253Z</time></trkpt><trkpt lat="43.3155604" lon="13.0971617"><ele>833.0000000000001</ele><time>2026-04-19T10:54:18.253Z</time></trkpt><trkpt lat="43.3154961" lon="13.0971045"><ele>833.0</ele><time>2026-04-19T10:54:19.252Z</time></trkpt><trkpt lat="43.3154298" lon="13.0970277"><ele>832.8</ele><time>2026-04-19T10:54:20.252Z</time></trkpt><trkpt lat="43.3153624" lon="13.0969565"><ele>832.5999999999999</ele><time>2026-04-19T10:54:21.253Z</time></trkpt><trkpt lat="43.3153015" lon="13.0968779"><ele>832.4000000000001</ele><time>2026-04-19T10:54:22.252Z</time></trkpt><trkpt lat="43.3152389" lon="13.096779"><ele>832.2</ele><time>2026-04-19T10:54:23.253Z</time></trkpt><trkpt lat="43.3151653" lon="13.0966585"><ele>832.0</ele><time>2026-04-19T10:54:24.253Z</time></trkpt><trkpt lat="43.3150916" lon="13.0965237"><ele>832.0</ele><time>2026-04-19T10:54:25.253Z</time></trkpt><trkpt lat="43.315022" lon="13.0963957"><ele>832.0</ele><time>2026-04-19T10:54:26.253Z</time></trkpt><trkpt lat="43.3149416" lon="13.0962843"><ele>832.0</ele><time>2026-04-19T10:54:27.253Z</time></trkpt><trkpt lat="43.3148561" lon="13.0961933"><ele>832.0</ele><time>2026-04-19T10:54:28.253Z</time></trkpt><trkpt lat="43.314774" lon="13.0961132"><ele>832.0</ele><time>2026-04-19T10:54:29.252Z</time></trkpt><trkpt lat="43.3147045" lon="13.0960323"><ele>829.4999999999999</ele><time>2026-04-19T10:54:30.253Z</time></trkpt><trkpt lat="43.314632" lon="13.0959568"><ele>827.0</ele><time>2026-04-19T10:54:31.252Z</time></trkpt><trkpt lat="43.3145586" lon="13.095885"><ele>824.5</ele><time>2026-04-19T10:54:32.252Z</time></trkpt><trkpt lat="43.3144985" lon="13.095815"><ele>822.0</ele><time>2026-04-19T10:54:33.253Z</time></trkpt><trkpt lat="43.3144425" lon="13.0957535"><ele>819.4999999999999</ele><time>2026-04-19T10:54:34.252Z</time></trkpt><trkpt lat="43.31439" lon="13.0957006"><ele>817.0</ele><time>2026-04-19T10:54:35.252Z</time></trkpt><trkpt lat="43.3142885" lon="13.0956104"><ele>816.9999999999999</ele><time>2026-04-19T10:54:37.253Z</time></trkpt><trkpt lat="43.3142308" lon="13.0955644"><ele>817.0</ele><time>2026-04-19T10:54:38.253Z</time></trkpt><trkpt lat="43.3141678" lon="13.0955215"><ele>817.0</ele><time>2026-04-19T10:54:39.252Z</time></trkpt><trkpt lat="43.314108" lon="13.0954759"><ele>817.0</ele><time>2026-04-19T10:54:40.253Z</time></trkpt><trkpt lat="43.3140046" lon="13.0953911"><ele>816.9999999999999</ele><time>2026-04-19T10:54:42.253Z</time></trkpt><trkpt lat="43.3139485" lon="13.0953368"><ele>817.0</ele><time>2026-04-19T10:54:43.253Z</time></trkpt><trkpt lat="43.3138834" lon="13.095297"><ele>814.4999999999999</ele><time>2026-04-19T10:54:44.252Z</time></trkpt><trkpt lat="43.3138291" lon="13.0952318"><ele>812.0</ele><time>2026-04-19T10:54:45.252Z</time></trkpt><trkpt lat="43.3137774" lon="13.0951611"><ele>809.5</ele><time>2026-04-19T10:54:46.253Z</time></trkpt><trkpt lat="43.3137252" lon="13.095091"><ele>807.0</ele><time>2026-04-19T10:54:47.252Z</time></trkpt><trkpt lat="43.3136621" lon="13.0950063"><ele>804.4999999999999</ele><time>2026-04-19T10:54:48.253Z</time></trkpt><trkpt lat="43.3135916" lon="13.0949122"><ele>802.0</ele><time>2026-04-19T10:54:49.252Z</time></trkpt><trkpt lat="43.3135169" lon="13.0948267"><ele>802.0</ele><time>2026-04-19T10:54:50.253Z</time></trkpt><trkpt lat="43.3134433" lon="13.0947419"><ele>802.0</ele><time>2026-04-19T10:54:51.253Z</time></trkpt><trkpt lat="43.3133657" lon="13.0946661"><ele>802.0</ele><time>2026-04-19T10:54:52.253Z</time></trkpt><trkpt lat="43.313283" lon="13.0946005"><ele>802.0</ele><time>2026-04-19T10:54:53.252Z</time></trkpt><trkpt lat="43.3132039" lon="13.0945462"><ele>802.0</ele><time>2026-04-19T10:54:54.252Z</time></trkpt><trkpt lat="43.3131234" lon="13.0945056"><ele>801.3333333333333</ele><time>2026-04-19T10:54:55.253Z</time></trkpt><trkpt lat="43.3130411" lon="13.0944779"><ele>800.6666666666666</ele><time>2026-04-19T10:54:56.253Z</time></trkpt><trkpt lat="43.3129563" lon="13.0944676"><ele>800.0</ele><time>2026-04-19T10:54:57.253Z</time></trkpt><trkpt lat="43.3128847" lon="13.0944815"><ele>799.3333333333333</ele><time>2026-04-19T10:54:58.252Z</time></trkpt><trkpt lat="43.312809" lon="13.0945273"><ele>798.6666666666666</ele><time>2026-04-19T10:54:59.253Z</time></trkpt><trkpt lat="43.3127441" lon="13.0945869"><ele>798.0</ele><time>2026-04-19T10:55:00.252Z</time></trkpt><trkpt lat="43.3126718" lon="13.0946414"><ele>798.0</ele><time>2026-04-19T10:55:01.253Z</time></trkpt><trkpt lat="43.3125803" lon="13.0946898"><ele>798.0</ele><time>2026-04-19T10:55:02.253Z</time></trkpt><trkpt lat="43.312477" lon="13.0947309"><ele>798.0</ele><time>2026-04-19T10:55:03.252Z</time></trkpt><trkpt lat="43.3123741" lon="13.0947652"><ele>798.0</ele><time>2026-04-19T10:55:04.252Z</time></trkpt><trkpt lat="43.312275" lon="13.0947916"><ele>798.0</ele><time>2026-04-19T10:55:05.252Z</time></trkpt><trkpt lat="43.3121865" lon="13.0948098"><ele>797.8333333333334</ele><time>2026-04-19T10:55:06.253Z</time></trkpt><trkpt lat="43.3121167" lon="13.0948265"><ele>797.6666666666667</ele><time>2026-04-19T10:55:07.252Z</time></trkpt><trkpt lat="43.312" lon="13.0948458"><ele>797.5</ele><time>2026-04-19T10:55:09.252Z</time></trkpt><trkpt lat="43.3119376" lon="13.0948594"><ele>797.3333333333334</ele><time>2026-04-19T10:55:10.252Z</time></trkpt><trkpt lat="43.3118181" lon="13.0948926"><ele>797.1666666666667</ele><time>2026-04-19T10:55:12.253Z</time></trkpt><trkpt lat="43.3117517" lon="13.0949078"><ele>797.0</ele><time>2026-04-19T10:55:13.253Z</time></trkpt><trkpt lat="43.3116398" lon="13.0949336"><ele>797.0000000000001</ele><time>2026-04-19T10:55:15.253Z</time></trkpt><trkpt lat="43.3115198" lon="13.0949757"><ele>797.0</ele><time>2026-04-19T10:55:17.252Z</time></trkpt><trkpt lat="43.3114548" lon="13.0950058"><ele>797.0</ele><time>2026-04-19T10:55:18.253Z</time></trkpt><trkpt lat="43.3113884" lon="13.0950382"><ele>797.0</ele><time>2026-04-19T10:55:19.253Z</time></trkpt><trkpt lat="43.311323" lon="13.0950734"><ele>797.0000000000001</ele><time>2026-04-19T10:55:20.252Z</time></trkpt><trkpt lat="43.3112537" lon="13.09511"><ele>797.0</ele><time>2026-04-19T10:55:21.252Z</time></trkpt><trkpt lat="43.3111796" lon="13.0951478"><ele>798.8</ele><time>2026-04-19T10:55:22.253Z</time></trkpt><trkpt lat="43.3110962" lon="13.0951888"><ele>800.6</ele><time>2026-04-19T10:55:23.253Z</time></trkpt><trkpt lat="43.3110122" lon="13.0952284"><ele>802.4</ele><time>2026-04-19T10:55:24.253Z</time></trkpt><trkpt lat="43.3109256" lon="13.095271"><ele>804.1999999999999</ele><time>2026-04-19T10:55:25.253Z</time></trkpt><trkpt lat="43.3108387" lon="13.0953169"><ele>806.0</ele><time>2026-04-19T10:55:26.252Z</time></trkpt><trkpt lat="43.3107502" lon="13.0953658"><ele>806.0000000000001</ele><time>2026-04-19T10:55:27.252Z</time></trkpt><trkpt lat="43.3106642" lon="13.0954178"><ele>806.0</ele><time>2026-04-19T10:55:28.253Z</time></trkpt><trkpt lat="43.310585" lon="13.0954796"><ele>806.0</ele><time>2026-04-19T10:55:29.252Z</time></trkpt><trkpt lat="43.3105189" lon="13.0955547"><ele>806.0</ele><time>2026-04-19T10:55:30.253Z</time></trkpt><trkpt lat="43.3104693" lon="13.0956371"><ele>806.0000000000001</ele><time>2026-04-19T10:55:31.253Z</time></trkpt><trkpt lat="43.310448" lon="13.0957208"><ele>806.0</ele><time>2026-04-19T10:55:32.253Z</time></trkpt><trkpt lat="43.3104494" lon="13.0958075"><ele>807.0000000000001</ele><time>2026-04-19T10:55:33.253Z</time></trkpt><trkpt lat="43.3104686" lon="13.0959064"><ele>808.0</ele><time>2026-04-19T10:55:34.253Z</time></trkpt><trkpt lat="43.310496" lon="13.0959955"><ele>809.0</ele><time>2026-04-19T10:55:35.253Z</time></trkpt><trkpt lat="43.3105135" lon="13.0961096"><ele>810.0</ele><time>2026-04-19T10:55:37.251Z</time></trkpt><trkpt lat="43.3104242" lon="13.0961542"><ele>811.0000000000001</ele><time>2026-04-19T10:55:40.253Z</time></trkpt><trkpt lat="43.3103648" lon="13.0960477"><ele>812.0</ele><time>2026-04-19T10:55:42.252Z</time></trkpt><trkpt lat="43.3103384" lon="13.0959478"><ele>812.0</ele><time>2026-04-19T10:55:43.251Z</time></trkpt><trkpt lat="43.3102931" lon="13.0958737"><ele>812.0</ele><time>2026-04-19T10:55:44.253Z</time></trkpt><trkpt lat="43.3101922" lon="13.0958178"><ele>812.0</ele><time>2026-04-19T10:55:46.253Z</time></trkpt><trkpt lat="43.3100785" lon="13.0958452"><ele>812.0</ele><time>2026-04-19T10:55:48.253Z</time></trkpt><trkpt lat="43.3099985" lon="13.0958741"><ele>812.0</ele><time>2026-04-19T10:55:49.253Z</time></trkpt><trkpt lat="43.3099089" lon="13.0959117"><ele>812.0</ele><time>2026-04-19T10:55:50.252Z</time></trkpt><trkpt lat="43.3098095" lon="13.095954"><ele>812.0</ele><time>2026-04-19T10:55:51.252Z</time></trkpt><trkpt lat="43.3097126" lon="13.0960013"><ele>812.0</ele><time>2026-04-19T10:55:52.252Z</time></trkpt><trkpt lat="43.309617" lon="13.0960465"><ele>812.0</ele><time>2026-04-19T10:55:53.253Z</time></trkpt><trkpt lat="43.3095275" lon="13.0960761"><ele>812.0</ele><time>2026-04-19T10:55:54.252Z</time></trkpt><trkpt lat="43.3094438" lon="13.0961028"><ele>815.4000000000001</ele><time>2026-04-19T10:55:55.251Z</time></trkpt><trkpt lat="43.3093676" lon="13.0961229"><ele>818.8000000000001</ele><time>2026-04-19T10:55:56.252Z</time></trkpt><trkpt lat="43.3092889" lon="13.0961945"><ele>822.2</ele><time>2026-04-19T10:55:58.252Z</time></trkpt><trkpt lat="43.3092552" lon="13.0963252"><ele>825.6</ele><time>2026-04-19T10:56:00.252Z</time></trkpt><trkpt lat="43.3092117" lon="13.0964822"><ele>829.0</ele><time>2026-04-19T10:56:02.253Z</time></trkpt><trkpt lat="43.3091797" lon="13.0965702"><ele>830.8000000000001</ele><time>2026-04-19T10:56:03.252Z</time></trkpt><trkpt lat="43.3091497" lon="13.0966769"><ele>832.6</ele><time>2026-04-19T10:56:04.252Z</time></trkpt><trkpt lat="43.3091335" lon="13.0967949"><ele>834.4</ele><time>2026-04-19T10:56:05.252Z</time></trkpt><trkpt lat="43.3091258" lon="13.0969215"><ele>836.2</ele><time>2026-04-19T10:56:06.253Z</time></trkpt><trkpt lat="43.3091477" lon="13.0970679"><ele>838.0</ele><time>2026-04-19T10:56:07.253Z</time></trkpt><trkpt lat="43.3091694" lon="13.0971922"><ele>837.9999999999999</ele><time>2026-04-19T10:56:08.253Z</time></trkpt><trkpt lat="43.3091997" lon="13.097328"><ele>838.0</ele><time>2026-04-19T10:56:09.253Z</time></trkpt><trkpt lat="43.3092416" lon="13.0974444"><ele>838.0</ele><time>2026-04-19T10:56:10.252Z</time></trkpt><trkpt lat="43.3092971" lon="13.0975507"><ele>838.0</ele><time>2026-04-19T10:56:11.252Z</time></trkpt><trkpt lat="43.3093337" lon="13.0976427"><ele>837.9999999999999</ele><time>2026-04-19T10:56:12.253Z</time></trkpt><trkpt lat="43.3093655" lon="13.0977263"><ele>838.0</ele><time>2026-04-19T10:56:13.252Z</time></trkpt><trkpt lat="43.3093944" lon="13.0978137"><ele>840.6666666666666</ele><time>2026-04-19T10:56:14.252Z</time></trkpt><trkpt lat="43.3094315" lon="13.0978998"><ele>843.3333333333333</ele><time>2026-04-19T10:56:15.253Z</time></trkpt><trkpt lat="43.3094855" lon="13.0979853"><ele>846.0</ele><time>2026-04-19T10:56:16.253Z</time></trkpt><trkpt lat="43.3095437" lon="13.0980753"><ele>848.6666666666667</ele><time>2026-04-19T10:56:17.252Z</time></trkpt><trkpt lat="43.3096002" lon="13.0981592"><ele>851.3333333333334</ele><time>2026-04-19T10:56:18.253Z</time></trkpt><trkpt lat="43.3096608" lon="13.0982009"><ele>854.0</ele><time>2026-04-19T10:56:19.253Z</time></trkpt><trkpt lat="43.3097367" lon="13.0983026"><ele>854.6</ele><time>2026-04-19T10:56:21.253Z</time></trkpt><trkpt lat="43.309819" lon="13.0984087"><ele>855.2</ele><time>2026-04-19T10:56:23.252Z</time></trkpt><trkpt lat="43.3098644" lon="13.0985613"><ele>855.8000000000001</ele><time>2026-04-19T10:56:25.253Z</time></trkpt><trkpt lat="43.309882" lon="13.0986529"><ele>856.4000000000001</ele><time>2026-04-19T10:56:26.252Z</time></trkpt><trkpt lat="43.3099057" lon="13.0987552"><ele>857.0</ele><time>2026-04-19T10:56:27.253Z</time></trkpt><trkpt lat="43.3099349" lon="13.0988465"><ele>857.0000000000001</ele><time>2026-04-19T10:56:28.253Z</time></trkpt><trkpt lat="43.3099595" lon="13.0989363"><ele>857.0</ele><time>2026-04-19T10:56:29.253Z</time></trkpt><trkpt lat="43.3099807" lon="13.099041"><ele>857.0</ele><time>2026-04-19T10:56:30.252Z</time></trkpt><trkpt lat="43.3100129" lon="13.0991514"><ele>857.0</ele><time>2026-04-19T10:56:31.252Z</time></trkpt><trkpt lat="43.3100497" lon="13.0992613"><ele>857.0000000000001</ele><time>2026-04-19T10:56:32.252Z</time></trkpt><trkpt lat="43.3100825" lon="13.0993634"><ele>857.0</ele><time>2026-04-19T10:56:33.252Z</time></trkpt><trkpt lat="43.310122" lon="13.0994583"><ele>858.0000000000001</ele><time>2026-04-19T10:56:34.252Z</time></trkpt><trkpt lat="43.310165" lon="13.0995469"><ele>859.0</ele><time>2026-04-19T10:56:35.252Z</time></trkpt><trkpt lat="43.3101967" lon="13.0996319"><ele>860.0</ele><time>2026-04-19T10:56:36.253Z</time></trkpt><trkpt lat="43.3102275" lon="13.0997312"><ele>861.0</ele><time>2026-04-19T10:56:37.252Z</time></trkpt><trkpt lat="43.3102632" lon="13.0998438"><ele>862.0000000000001</ele><time>2026-04-19T10:56:38.252Z</time></trkpt><trkpt lat="43.3102933" lon="13.0999646"><ele>863.0</ele><time>2026-04-19T10:56:39.252Z</time></trkpt><trkpt lat="43.310324" lon="13.100087"><ele>864.8</ele><time>2026-04-19T10:56:40.253Z</time></trkpt><trkpt lat="43.310358" lon="13.1002125"><ele>866.5999999999999</ele><time>2026-04-19T10:56:41.253Z</time></trkpt><trkpt lat="43.310398" lon="13.1003391"><ele>868.4000000000001</ele><time>2026-04-19T10:56:42.253Z</time></trkpt><trkpt lat="43.3104373" lon="13.1004685"><ele>870.2</ele><time>2026-04-19T10:56:43.253Z</time></trkpt><trkpt lat="43.310476" lon="13.1005946"><ele>872.0</ele><time>2026-04-19T10:56:44.252Z</time></trkpt><trkpt lat="43.3105159" lon="13.1007156"><ele>874.1666666666667</ele><time>2026-04-19T10:56:45.253Z</time></trkpt><trkpt lat="43.310555" lon="13.1008248"><ele>876.3333333333334</ele><time>2026-04-19T10:56:46.253Z</time></trkpt><trkpt lat="43.3105962" lon="13.100935"><ele>878.5</ele><time>2026-04-19T10:56:47.253Z</time></trkpt><trkpt lat="43.310636" lon="13.1010484"><ele>880.6666666666667</ele><time>2026-04-19T10:56:48.253Z</time></trkpt><trkpt lat="43.310676" lon="13.101155"><ele>882.8333333333334</ele><time>2026-04-19T10:56:49.253Z</time></trkpt><trkpt lat="43.3107118" lon="13.1012437"><ele>885.0</ele><time>2026-04-19T10:56:50.253Z</time></trkpt><trkpt lat="43.3107434" lon="13.1013208"><ele>881.8</ele><time>2026-04-19T10:56:51.253Z</time></trkpt><trkpt lat="43.3107973" lon="13.1014242"><ele>878.6</ele><time>2026-04-19T10:56:53.253Z</time></trkpt><trkpt lat="43.310862" lon="13.1015432"><ele>875.4000000000001</ele><time>2026-04-19T10:56:55.252Z</time></trkpt><trkpt lat="43.3109429" lon="13.1016775"><ele>872.2</ele><time>2026-04-19T10:56:57.252Z</time></trkpt><trkpt lat="43.3109798" lon="13.1017504"><ele>869.0</ele><time>2026-04-19T10:56:58.253Z</time></trkpt><trkpt lat="43.3110346" lon="13.1018825"><ele>869.0</ele><time>2026-04-19T10:57:00.252Z</time></trkpt><trkpt lat="43.3110792" lon="13.1020348"><ele>869.0000000000001</ele><time>2026-04-19T10:57:02.253Z</time></trkpt><trkpt lat="43.3111181" lon="13.1021532"><ele>869.0000000000001</ele><time>2026-04-19T10:57:04.252Z</time></trkpt><trkpt lat="43.3111357" lon="13.1022527"><ele>869.0</ele><time>2026-04-19T10:57:06.253Z</time></trkpt><trkpt lat="43.3111905" lon="13.1023691"><ele>869.0</ele><time>2026-04-19T10:57:08.252Z</time></trkpt><trkpt lat="43.3112297" lon="13.1024979"><ele>869.8333333333334</ele><time>2026-04-19T10:57:10.253Z</time></trkpt><trkpt lat="43.3112514" lon="13.1026072"><ele>870.6666666666667</ele><time>2026-04-19T10:57:12.252Z</time></trkpt><trkpt lat="43.3112999" lon="13.1026729"><ele>871.5</ele><time>2026-04-19T10:57:14.253Z</time></trkpt><trkpt lat="43.311319" lon="13.102763"><ele>872.3333333333333</ele><time>2026-04-19T10:57:16.252Z</time></trkpt><trkpt lat="43.311349" lon="13.1028468"><ele>873.1666666666666</ele><time>2026-04-19T10:57:18.253Z</time></trkpt><trkpt lat="43.3113753" lon="13.1029594"><ele>874.0</ele><time>2026-04-19T10:57:20.253Z</time></trkpt><trkpt lat="43.31139" lon="13.1030895"><ele>874.0</ele><time>2026-04-19T10:57:22.253Z</time></trkpt><trkpt lat="43.3113897" lon="13.1032041"><ele>874.0000000000001</ele><time>2026-04-19T10:57:24.253Z</time></trkpt><trkpt lat="43.3114171" lon="13.1033057"><ele>874.0000000000001</ele><time>2026-04-19T10:57:26.253Z</time></trkpt><trkpt lat="43.3114266" lon="13.1034355"><ele>874.0</ele><time>2026-04-19T10:57:28.253Z</time></trkpt><trkpt lat="43.3113944" lon="13.1035685"><ele>874.0</ele><time>2026-04-19T10:57:30.253Z</time></trkpt><trkpt lat="43.3113706" lon="13.1037052"><ele>873.0</ele><time>2026-04-19T10:57:32.252Z</time></trkpt><trkpt lat="43.3113553" lon="13.1038256"><ele>872.0</ele><time>2026-04-19T10:57:34.253Z</time></trkpt><trkpt lat="43.3113411" lon="13.1039263"><ele>871.0</ele><time>2026-04-19T10:57:36.253Z</time></trkpt><trkpt lat="43.3113306" lon="13.1040205"><ele>870.0</ele><time>2026-04-19T10:57:39.252Z</time></trkpt><trkpt lat="43.3113167" lon="13.1041186"><ele>869.0</ele><time>2026-04-19T10:57:42.253Z</time></trkpt><trkpt lat="43.311295" lon="13.1042066"><ele>868.0</ele><time>2026-04-19T10:57:45.253Z</time></trkpt><trkpt lat="43.311265" lon="13.1042873"><ele>867.0</ele><time>2026-04-19T10:57:48.252Z</time></trkpt><trkpt lat="43.3112415" lon="13.1044113"><ele>865.0</ele><time>2026-04-19T10:57:51.252Z</time></trkpt><trkpt lat="43.3112262" lon="13.1045215"><ele>863.0</ele><time>2026-04-19T10:57:53.252Z</time></trkpt><trkpt lat="43.3112063" lon="13.1046307"><ele>861.0</ele><time>2026-04-19T10:57:55.252Z</time></trkpt><trkpt lat="43.3111738" lon="13.104748"><ele>859.0</ele><time>2026-04-19T10:57:57.252Z</time></trkpt><trkpt lat="43.311153" lon="13.1048534"><ele>857.0</ele><time>2026-04-19T10:57:59.252Z</time></trkpt><trkpt lat="43.3111329" lon="13.1049879"><ele>855.0</ele><time>2026-04-19T10:58:01.252Z</time></trkpt><trkpt lat="43.3111017" lon="13.1051332"><ele>853.0</ele><time>2026-04-19T10:58:03.253Z</time></trkpt><trkpt lat="43.311072" lon="13.1052577"><ele>851.0</ele><time>2026-04-19T10:58:05.253Z</time></trkpt><trkpt lat="43.3110519" lon="13.1053757"><ele>849.0</ele><time>2026-04-19T10:58:07.252Z</time></trkpt><trkpt lat="43.311039" lon="13.1055022"><ele>847.0</ele><time>2026-04-19T10:58:09.253Z</time></trkpt><trkpt lat="43.3110263" lon="13.1056086"><ele>845.0</ele><time>2026-04-19T10:58:12.252Z</time></trkpt><trkpt lat="43.3110035" lon="13.1056936"><ele>843.0</ele><time>2026-04-19T10:58:15.253Z</time></trkpt><trkpt lat="43.3110157" lon="13.1058216"><ele>841.5</ele><time>2026-04-19T11:00:20.253Z</time></trkpt><trkpt lat="43.3110212" lon="13.1059105"><ele>840.0</ele><time>2026-04-19T11:00:21.253Z</time></trkpt><trkpt lat="43.3110248" lon="13.1060211"><ele>838.5</ele><time>2026-04-19T11:00:22.252Z</time></trkpt><trkpt lat="43.3110332" lon="13.1061453"><ele>837.0</ele><time>2026-04-19T11:00:23.253Z</time></trkpt><trkpt lat="43.3110441" lon="13.106273"><ele>835.5</ele><time>2026-04-19T11:00:24.253Z</time></trkpt><trkpt lat="43.3110617" lon="13.1063799"><ele>834.0</ele><time>2026-04-19T11:00:25.253Z</time></trkpt><trkpt lat="43.3111024" lon="13.1065212"><ele>832.6666666666666</ele><time>2026-04-19T11:00:27.253Z</time></trkpt><trkpt lat="43.3111222" lon="13.1066413"><ele>831.3333333333333</ele><time>2026-04-19T11:00:29.252Z</time></trkpt><trkpt lat="43.3111279" lon="13.106782"><ele>830.0</ele><time>2026-04-19T11:00:31.252Z</time></trkpt><trkpt lat="43.3111321" lon="13.1068746"><ele>828.6666666666666</ele><time>2026-04-19T11:00:32.253Z</time></trkpt><trkpt lat="43.3111357" lon="13.1069755"><ele>827.3333333333333</ele><time>2026-04-19T11:00:33.253Z</time></trkpt><trkpt lat="43.3111379" lon="13.1070766"><ele>826.0</ele><time>2026-04-19T11:00:34.252Z</time></trkpt><trkpt lat="43.3111253" lon="13.10718"><ele>826.0</ele><time>2026-04-19T11:00:35.253Z</time></trkpt><trkpt lat="43.3111082" lon="13.1072844"><ele>826.0</ele><time>2026-04-19T11:00:36.253Z</time></trkpt><trkpt lat="43.3110931" lon="13.1073909"><ele>826.0</ele><time>2026-04-19T11:00:37.253Z</time></trkpt><trkpt lat="43.3110753" lon="13.1074958"><ele>826.0</ele><time>2026-04-19T11:00:38.253Z</time></trkpt><trkpt lat="43.3110611" lon="13.1075954"><ele>826.0</ele><time>2026-04-19T11:00:39.252Z</time></trkpt><trkpt lat="43.3110485" lon="13.107683"><ele>826.0</ele><time>2026-04-19T11:00:40.253Z</time></trkpt><trkpt lat="43.3110456" lon="13.107781"><ele>826.0</ele><time>2026-04-19T11:00:41.253Z</time></trkpt><trkpt lat="43.3110483" lon="13.1078875"><ele>825.8571428571429</ele><time>2026-04-19T11:00:42.253Z</time></trkpt><trkpt lat="43.3110597" lon="13.1080033"><ele>825.7142857142858</ele><time>2026-04-19T11:00:43.253Z</time></trkpt><trkpt lat="43.3110697" lon="13.10812"><ele>825.5714285714286</ele><time>2026-04-19T11:00:44.253Z</time></trkpt><trkpt lat="43.3110771" lon="13.1082179"><ele>825.4285714285714</ele><time>2026-04-19T11:00:45.253Z</time></trkpt><trkpt lat="43.3110813" lon="13.1083125"><ele>825.2857142857143</ele><time>2026-04-19T11:00:46.253Z</time></trkpt><trkpt lat="43.3110722" lon="13.1084112"><ele>825.1428571428571</ele><time>2026-04-19T11:00:47.253Z</time></trkpt><trkpt lat="43.3110636" lon="13.1085005"><ele>825.0</ele><time>2026-04-19T11:00:48.253Z</time></trkpt><trkpt lat="43.3110543" lon="13.1086685"><ele>825.0</ele><time>2026-04-19T11:00:50.253Z</time></trkpt><trkpt lat="43.311028" lon="13.108829"><ele>825.0</ele><time>2026-04-19T11:00:52.252Z</time></trkpt><trkpt lat="43.3109937" lon="13.108992"><ele>825.0</ele><time>2026-04-19T11:00:54.251Z</time></trkpt><trkpt lat="43.3109779" lon="13.1091635"><ele>825.0</ele><time>2026-04-19T11:00:56.253Z</time></trkpt><trkpt lat="43.3109641" lon="13.1092653"><ele>825.0</ele><time>2026-04-19T11:00:57.253Z</time></trkpt><trkpt lat="43.3109505" lon="13.1093715"><ele>825.0</ele><time>2026-04-19T11:00:58.253Z</time></trkpt><trkpt lat="43.310937" lon="13.1094795"><ele>825.0</ele><time>2026-04-19T11:00:59.253Z</time></trkpt><trkpt lat="43.3109232" lon="13.1095851"><ele>825.0</ele><time>2026-04-19T11:01:00.253Z</time></trkpt><trkpt lat="43.3109046" lon="13.109696"><ele>825.0</ele><time>2026-04-19T11:01:01.253Z</time></trkpt><trkpt lat="43.3108907" lon="13.1098015"><ele>825.0</ele><time>2026-04-19T11:01:02.253Z</time></trkpt><trkpt lat="43.310879" lon="13.1099055"><ele>825.0</ele><time>2026-04-19T11:01:03.253Z</time></trkpt><trkpt lat="43.3108677" lon="13.1100049"><ele>824.5</ele><time>2026-04-19T11:01:04.252Z</time></trkpt><trkpt lat="43.3108552" lon="13.1101121"><ele>824.0</ele><time>2026-04-19T11:01:05.253Z</time></trkpt><trkpt lat="43.3108482" lon="13.1102167"><ele>823.5</ele><time>2026-04-19T11:01:06.253Z</time></trkpt><trkpt lat="43.31085" lon="13.1103696"><ele>823.0</ele><time>2026-04-19T11:01:08.253Z</time></trkpt><trkpt lat="43.3108897" lon="13.110454"><ele>822.5</ele><time>2026-04-19T11:01:11.251Z</time></trkpt><trkpt lat="43.3109638" lon="13.1105007"><ele>822.0</ele><time>2026-04-19T11:03:26.252Z</time></trkpt><trkpt lat="43.3110462" lon="13.1105047"><ele>822.0</ele><time>2026-04-19T11:03:29.252Z</time></trkpt><trkpt lat="43.3111292" lon="13.1105767"><ele>822.0</ele><time>2026-04-19T11:03:31.253Z</time></trkpt><trkpt lat="43.3112522" lon="13.1106521"><ele>822.0</ele><time>2026-04-19T11:03:33.253Z</time></trkpt><trkpt lat="43.3113149" lon="13.1106939"><ele>822.0</ele><time>2026-04-19T11:03:34.253Z</time></trkpt><trkpt lat="43.3113815" lon="13.1107342"><ele>822.0</ele><time>2026-04-19T11:03:35.253Z</time></trkpt><trkpt lat="43.3114463" lon="13.1107722"><ele>822.0</ele><time>2026-04-19T11:03:36.251Z</time></trkpt><trkpt lat="43.311546" lon="13.1108335"><ele>821.6666666666666</ele><time>2026-04-19T11:03:38.253Z</time></trkpt><trkpt lat="43.311656" lon="13.1109054"><ele>821.3333333333333</ele><time>2026-04-19T11:03:40.252Z</time></trkpt><trkpt lat="43.3117231" lon="13.1109482"><ele>821.0</ele><time>2026-04-19T11:03:41.253Z</time></trkpt><trkpt lat="43.3117907" lon="13.1109948"><ele>820.6666666666666</ele><time>2026-04-19T11:03:42.253Z</time></trkpt><trkpt lat="43.3118564" lon="13.1110439"><ele>820.3333333333333</ele><time>2026-04-19T11:03:43.252Z</time></trkpt><trkpt lat="43.3119156" lon="13.1110876"><ele>820.0</ele><time>2026-04-19T11:03:44.252Z</time></trkpt><trkpt lat="43.3119747" lon="13.1111335"><ele>819.9999999999999</ele><time>2026-04-19T11:03:45.252Z</time></trkpt><trkpt lat="43.3120297" lon="13.1111771"><ele>820.0</ele><time>2026-04-19T11:03:46.252Z</time></trkpt><trkpt lat="43.3120876" lon="13.1112242"><ele>820.0</ele><time>2026-04-19T11:03:47.253Z</time></trkpt><trkpt lat="43.3121446" lon="13.1112701"><ele>820.0</ele><time>2026-04-19T11:03:48.251Z</time></trkpt><trkpt lat="43.3122525" lon="13.1113604"><ele>819.9999999999999</ele><time>2026-04-19T11:03:50.253Z</time></trkpt><trkpt lat="43.3123073" lon="13.1114066"><ele>820.0</ele><time>2026-04-19T11:03:51.253Z</time></trkpt><trkpt lat="43.3123653" lon="13.1114532"><ele>818.8333333333333</ele><time>2026-04-19T11:03:52.253Z</time></trkpt><trkpt lat="43.3124228" lon="13.1115003"><ele>817.6666666666666</ele><time>2026-04-19T11:03:53.253Z</time></trkpt><trkpt lat="43.3124826" lon="13.1115504"><ele>816.5</ele><time>2026-04-19T11:03:54.253Z</time></trkpt><trkpt lat="43.3125431" lon="13.1116023"><ele>815.3333333333333</ele><time>2026-04-19T11:03:55.253Z</time></trkpt><trkpt lat="43.3126035" lon="13.1116575"><ele>814.1666666666666</ele><time>2026-04-19T11:03:56.253Z</time></trkpt><trkpt lat="43.3126636" lon="13.111711"><ele>813.0</ele><time>2026-04-19T11:03:57.252Z</time></trkpt><trkpt lat="43.3127741" lon="13.111804"><ele>812.3333333333334</ele><time>2026-04-19T11:03:59.253Z</time></trkpt><trkpt lat="43.3128316" lon="13.1118508"><ele>811.6666666666667</ele><time>2026-04-19T11:04:00.253Z</time></trkpt><trkpt lat="43.31289" lon="13.1118969"><ele>811.0</ele><time>2026-04-19T11:04:01.253Z</time></trkpt><trkpt lat="43.3129493" lon="13.1119397"><ele>810.3333333333334</ele><time>2026-04-19T11:04:02.253Z</time></trkpt><trkpt lat="43.3130618" lon="13.1120122"><ele>809.6666666666667</ele><time>2026-04-19T11:04:04.251Z</time></trkpt><trkpt lat="43.3131671" lon="13.1120735"><ele>809.0</ele><time>2026-04-19T11:04:06.253Z</time></trkpt><trkpt lat="43.3132676" lon="13.1121286"><ele>806.0</ele><time>2026-04-19T11:04:08.253Z</time></trkpt><trkpt lat="43.3133675" lon="13.1121826"><ele>803.0</ele><time>2026-04-19T11:04:10.253Z</time></trkpt><trkpt lat="43.3134598" lon="13.1122345"><ele>800.0</ele><time>2026-04-19T11:04:12.253Z</time></trkpt><trkpt lat="43.3135537" lon="13.1122845"><ele>797.0</ele><time>2026-04-19T11:04:14.253Z</time></trkpt><trkpt lat="43.3136367" lon="13.1123308"><ele>794.0</ele><time>2026-04-19T11:04:16.253Z</time></trkpt><trkpt lat="43.3137068" lon="13.1123623"><ele>794.0</ele><time>2026-04-19T11:04:18.253Z</time></trkpt><trkpt lat="43.3137671" lon="13.112391"><ele>794.0</ele><time>2026-04-19T11:04:20.252Z</time></trkpt><trkpt lat="43.3138372" lon="13.1124076"><ele>794.0</ele><time>2026-04-19T11:04:23.253Z</time></trkpt><trkpt lat="43.3139006" lon="13.1124289"><ele>794.0</ele><time>2026-04-19T11:04:25.252Z</time></trkpt><trkpt lat="43.3139766" lon="13.1124654"><ele>794.0</ele><time>2026-04-19T11:04:28.252Z</time></trkpt><trkpt lat="43.3140376" lon="13.1125203"><ele>794.0</ele><time>2026-04-19T11:04:32.252Z</time></trkpt><trkpt lat="43.3140841" lon="13.1125806"><ele>794.0</ele><time>2026-04-19T11:05:35.252Z</time></trkpt><trkpt lat="43.3141285" lon="13.1126571"><ele>790.2</ele><time>2026-04-19T11:05:43.252Z</time></trkpt><trkpt lat="43.3141835" lon="13.1127828"><ele>786.4000000000001</ele><time>2026-04-19T11:05:45.252Z</time></trkpt><trkpt lat="43.3142452" lon="13.1129106"><ele>782.6</ele><time>2026-04-19T11:05:47.25Z</time></trkpt><trkpt lat="43.3143319" lon="13.1130462"><ele>778.8</ele><time>2026-04-19T11:05:49.252Z</time></trkpt><trkpt lat="43.3143768" lon="13.1131158"><ele>775.0</ele><time>2026-04-19T11:05:50.252Z</time></trkpt><trkpt lat="43.3144239" lon="13.1131799"><ele>778.0</ele><time>2026-04-19T11:05:51.252Z</time></trkpt><trkpt lat="43.3144727" lon="13.113243"><ele>781.0</ele><time>2026-04-19T11:05:52.252Z</time></trkpt><trkpt lat="43.3145176" lon="13.1133038"><ele>784.0</ele><time>2026-04-19T11:05:53.252Z</time></trkpt><trkpt lat="43.3146037" lon="13.1134206"><ele>787.0</ele><time>2026-04-19T11:05:55.252Z</time></trkpt><trkpt lat="43.3146965" lon="13.1135341"><ele>790.0</ele><time>2026-04-19T11:05:57.25Z</time></trkpt><trkpt lat="43.314797" lon="13.1136439"><ele>783.8</ele><time>2026-04-19T11:05:59.251Z</time></trkpt><trkpt lat="43.3148882" lon="13.1137451"><ele>777.6</ele><time>2026-04-19T11:06:01.251Z</time></trkpt><trkpt lat="43.3149868" lon="13.1138149"><ele>771.4000000000001</ele><time>2026-04-19T11:06:03.251Z</time></trkpt><trkpt lat="43.3150832" lon="13.1138776"><ele>765.2</ele><time>2026-04-19T11:06:05.251Z</time></trkpt><trkpt lat="43.3151829" lon="13.1139551"><ele>759.0</ele><time>2026-04-19T11:06:07.252Z</time></trkpt><trkpt lat="43.3152375" lon="13.1140259"><ele>762.0</ele><time>2026-04-19T11:06:08.252Z</time></trkpt><trkpt lat="43.3152872" lon="13.114116"><ele>765.0</ele><time>2026-04-19T11:06:09.252Z</time></trkpt><trkpt lat="43.3153328" lon="13.1142119"><ele>768.0</ele><time>2026-04-19T11:06:10.251Z</time></trkpt><trkpt lat="43.3153805" lon="13.114308"><ele>771.0</ele><time>2026-04-19T11:06:11.252Z</time></trkpt><trkpt lat="43.3154301" lon="13.1144056"><ele>774.0</ele><time>2026-04-19T11:06:12.252Z</time></trkpt><trkpt lat="43.3154759" lon="13.1145028"><ele>777.0</ele><time>2026-04-19T11:06:13.252Z</time></trkpt><trkpt lat="43.3155179" lon="13.1146089"><ele>777.0</ele><time>2026-04-19T11:06:14.252Z</time></trkpt><trkpt lat="43.315558" lon="13.1147088"><ele>777.0</ele><time>2026-04-19T11:06:15.252Z</time></trkpt><trkpt lat="43.3155936" lon="13.1148076"><ele>777.0</ele><time>2026-04-19T11:06:16.252Z</time></trkpt><trkpt lat="43.3156229" lon="13.1149056"><ele>777.0</ele><time>2026-04-19T11:06:17.252Z</time></trkpt><trkpt lat="43.315645" lon="13.1150053"><ele>777.0</ele><time>2026-04-19T11:06:18.252Z</time></trkpt><trkpt lat="43.3156522" lon="13.1151086"><ele>777.0</ele><time>2026-04-19T11:06:19.251Z</time></trkpt><trkpt lat="43.3156649" lon="13.1152225"><ele>775.6666666666666</ele><time>2026-04-19T11:06:20.251Z</time></trkpt><trkpt lat="43.3156804" lon="13.115335"><ele>774.3333333333333</ele><time>2026-04-19T11:06:21.251Z</time></trkpt><trkpt lat="43.3157044" lon="13.1154459"><ele>773.0</ele><time>2026-04-19T11:06:22.251Z</time></trkpt><trkpt lat="43.3157203" lon="13.1155647"><ele>771.6666666666666</ele><time>2026-04-19T11:06:23.252Z</time></trkpt><trkpt lat="43.3157446" lon="13.1156789"><ele>770.3333333333333</ele><time>2026-04-19T11:06:24.252Z</time></trkpt><trkpt lat="43.3157656" lon="13.1157929"><ele>769.0</ele><time>2026-04-19T11:06:25.251Z</time></trkpt><trkpt lat="43.315787" lon="13.1159118"><ele>768.9999999999999</ele><time>2026-04-19T11:06:26.252Z</time></trkpt><trkpt lat="43.3157996" lon="13.1160368"><ele>769.0</ele><time>2026-04-19T11:06:27.252Z</time></trkpt><trkpt lat="43.3158158" lon="13.1161525"><ele>769.0</ele><time>2026-04-19T11:06:28.25Z</time></trkpt><trkpt lat="43.3158271" lon="13.1162631"><ele>769.0</ele><time>2026-04-19T11:06:29.25Z</time></trkpt><trkpt lat="43.3158328" lon="13.1163718"><ele>768.9999999999999</ele><time>2026-04-19T11:06:30.251Z</time></trkpt><trkpt lat="43.3158344" lon="13.1164878"><ele>769.0</ele><time>2026-04-19T11:06:31.251Z</time></trkpt><trkpt lat="43.3158187" lon="13.1166063"><ele>769.3333333333333</ele><time>2026-04-19T11:06:32.252Z</time></trkpt><trkpt lat="43.315816" lon="13.1167172"><ele>769.6666666666666</ele><time>2026-04-19T11:06:33.252Z</time></trkpt><trkpt lat="43.315795" lon="13.1168329"><ele>770.0</ele><time>2026-04-19T11:06:34.251Z</time></trkpt><trkpt lat="43.3157954" lon="13.1169437"><ele>770.3333333333333</ele><time>2026-04-19T11:06:35.252Z</time></trkpt><trkpt lat="43.3157878" lon="13.1170498"><ele>770.6666666666666</ele><time>2026-04-19T11:06:36.251Z</time></trkpt><trkpt lat="43.3157797" lon="13.1171389"><ele>771.0</ele><time>2026-04-19T11:06:37.252Z</time></trkpt><trkpt lat="43.3157732" lon="13.1173071"><ele>769.5</ele><time>2026-04-19T11:06:39.252Z</time></trkpt><trkpt lat="43.3157395" lon="13.1174176"><ele>768.0</ele><time>2026-04-19T11:06:41.252Z</time></trkpt><trkpt lat="43.3157327" lon="13.1175098"><ele>766.5</ele><time>2026-04-19T11:06:43.252Z</time></trkpt><trkpt lat="43.3157269" lon="13.1176211"><ele>765.0</ele><time>2026-04-19T11:06:45.252Z</time></trkpt><trkpt lat="43.3157264" lon="13.1177491"><ele>763.5</ele><time>2026-04-19T11:06:47.252Z</time></trkpt><trkpt lat="43.3156926" lon="13.1179078"><ele>762.0</ele><time>2026-04-19T11:06:49.252Z</time></trkpt><trkpt lat="43.3156656" lon="13.1179964"><ele>762.0</ele><time>2026-04-19T11:06:50.252Z</time></trkpt><trkpt lat="43.3155723" lon="13.118093"><ele>762.0</ele><time>2026-04-19T11:06:51.251Z</time></trkpt><trkpt lat="43.315532" lon="13.1181864"><ele>762.0</ele><time>2026-04-19T11:06:52.252Z</time></trkpt><trkpt lat="43.3154859" lon="13.1182977"><ele>762.0</ele><time>2026-04-19T11:06:53.251Z</time></trkpt><trkpt lat="43.3154617" lon="13.1183869"><ele>762.0</ele><time>2026-04-19T11:06:54.252Z</time></trkpt><trkpt lat="43.3154234" lon="13.1184811"><ele>762.0</ele><time>2026-04-19T11:06:55.252Z</time></trkpt><trkpt lat="43.3153817" lon="13.1185822"><ele>764.8333333333334</ele><time>2026-04-19T11:06:56.252Z</time></trkpt><trkpt lat="43.3153416" lon="13.1186777"><ele>767.6666666666667</ele><time>2026-04-19T11:06:57.251Z</time></trkpt><trkpt lat="43.3153163" lon="13.1187613"><ele>770.5</ele><time>2026-04-19T11:06:58.252Z</time></trkpt><trkpt lat="43.3152545" lon="13.1188245"><ele>773.3333333333334</ele><time>2026-04-19T11:07:00.252Z</time></trkpt><trkpt lat="43.3152274" lon="13.118904"><ele>776.1666666666667</ele><time>2026-04-19T11:07:02.252Z</time></trkpt><trkpt lat="43.3153219" lon="13.1190099"><ele>779.0</ele><time>2026-04-19T11:07:04.252Z</time></trkpt><trkpt lat="43.315432" lon="13.1190975"><ele>779.3333333333334</ele><time>2026-04-19T11:07:05.251Z</time></trkpt><trkpt lat="43.3155011" lon="13.119167"><ele>779.6666666666667</ele><time>2026-04-19T11:07:06.251Z</time></trkpt><trkpt lat="43.3155744" lon="13.1192456"><ele>780.0</ele><time>2026-04-19T11:07:07.25Z</time></trkpt><trkpt lat="43.3156437" lon="13.119325"><ele>780.3333333333333</ele><time>2026-04-19T11:07:08.252Z</time></trkpt><trkpt lat="43.3157026" lon="13.1194058"><ele>780.6666666666666</ele><time>2026-04-19T11:07:09.251Z</time></trkpt><trkpt lat="43.3157581" lon="13.1194941"><ele>781.0</ele><time>2026-04-19T11:07:10.252Z</time></trkpt><trkpt lat="43.3158088" lon="13.1195827"><ele>777.1666666666666</ele><time>2026-04-19T11:07:11.252Z</time></trkpt><trkpt lat="43.315868" lon="13.1196846"><ele>773.3333333333333</ele><time>2026-04-19T11:07:12.252Z</time></trkpt><trkpt lat="43.3159229" lon="13.1197843"><ele>769.5</ele><time>2026-04-19T11:07:13.252Z</time></trkpt><trkpt lat="43.3159776" lon="13.1198762"><ele>765.6666666666666</ele><time>2026-04-19T11:07:14.252Z</time></trkpt><trkpt lat="43.3160356" lon="13.1199409"><ele>761.8333333333333</ele><time>2026-04-19T11:07:15.251Z</time></trkpt><trkpt lat="43.3160815" lon="13.1200104"><ele>758.0</ele><time>2026-04-19T11:07:16.251Z</time></trkpt><trkpt lat="43.316144" lon="13.1201524"><ele>758.0</ele><time>2026-04-19T11:07:18.251Z</time></trkpt><trkpt lat="43.3161693" lon="13.1203148"><ele>758.0</ele><time>2026-04-19T11:07:20.251Z</time></trkpt><trkpt lat="43.3161826" lon="13.1204753"><ele>758.0</ele><time>2026-04-19T11:07:22.252Z</time></trkpt><trkpt lat="43.3162126" lon="13.1206282"><ele>758.0</ele><time>2026-04-19T11:07:24.251Z</time></trkpt><trkpt lat="43.3162499" lon="13.1207627"><ele>758.4</ele><time>2026-04-19T11:07:26.251Z</time></trkpt><trkpt lat="43.316283" lon="13.1209145"><ele>758.8</ele><time>2026-04-19T11:07:28.251Z</time></trkpt><trkpt lat="43.3163016" lon="13.1210917"><ele>759.2</ele><time>2026-04-19T11:07:30.252Z</time></trkpt><trkpt lat="43.3163116" lon="13.121187"><ele>759.6</ele><time>2026-04-19T11:07:31.251Z</time></trkpt><trkpt lat="43.3163166" lon="13.1212776"><ele>760.0</ele><time>2026-04-19T11:07:32.251Z</time></trkpt><trkpt lat="43.3163326" lon="13.1214346"><ele>757.4</ele><time>2026-04-19T11:07:34.251Z</time></trkpt><trkpt lat="43.3163759" lon="13.1215851"><ele>754.8</ele><time>2026-04-19T11:07:36.251Z</time></trkpt><trkpt lat="43.3164127" lon="13.1217118"><ele>752.2</ele><time>2026-04-19T11:07:38.25Z</time></trkpt><trkpt lat="43.3164246" lon="13.1218307"><ele>749.6</ele><time>2026-04-19T11:07:40.252Z</time></trkpt><trkpt lat="43.3163972" lon="13.1219546"><ele>747.0</ele><time>2026-04-19T11:07:42.251Z</time></trkpt><trkpt lat="43.3163693" lon="13.1220374"><ele>747.0</ele><time>2026-04-19T11:07:43.251Z</time></trkpt><trkpt lat="43.3163135" lon="13.1221932"><ele>747.0</ele><time>2026-04-19T11:07:45.252Z</time></trkpt><trkpt lat="43.3162476" lon="13.1223342"><ele>747.0</ele><time>2026-04-19T11:07:47.252Z</time></trkpt><trkpt lat="43.3162331" lon="13.1224774"><ele>747.0</ele><time>2026-04-19T11:07:49.251Z</time></trkpt><trkpt lat="43.3161995" lon="13.1226094"><ele>745.0</ele><time>2026-04-19T11:07:51.251Z</time></trkpt><trkpt lat="43.316142" lon="13.122753"><ele>743.0</ele><time>2026-04-19T11:07:53.252Z</time></trkpt><trkpt lat="43.3160943" lon="13.1228393"><ele>741.0</ele><time>2026-04-19T11:07:54.251Z</time></trkpt><trkpt lat="43.3160587" lon="13.1229259"><ele>739.0</ele><time>2026-04-19T11:07:55.251Z</time></trkpt><trkpt lat="43.3160123" lon="13.1230124"><ele>737.0</ele><time>2026-04-19T11:07:56.251Z</time></trkpt><trkpt lat="43.3159627" lon="13.1231046"><ele>735.0</ele><time>2026-04-19T11:07:57.251Z</time></trkpt><trkpt lat="43.3159127" lon="13.1231974"><ele>732.1666666666666</ele><time>2026-04-19T11:07:58.251Z</time></trkpt><trkpt lat="43.3158556" lon="13.1232886"><ele>729.3333333333334</ele><time>2026-04-19T11:07:59.251Z</time></trkpt><trkpt lat="43.3158102" lon="13.1233835"><ele>726.5</ele><time>2026-04-19T11:08:00.252Z</time></trkpt><trkpt lat="43.3157557" lon="13.1234934"><ele>723.6666666666667</ele><time>2026-04-19T11:08:01.252Z</time></trkpt><trkpt lat="43.315706" lon="13.1235824"><ele>720.8333333333334</ele><time>2026-04-19T11:08:02.251Z</time></trkpt><trkpt lat="43.3156517" lon="13.1236774"><ele>718.0</ele><time>2026-04-19T11:08:03.252Z</time></trkpt><trkpt lat="43.3155939" lon="13.1237486"><ele>716.0</ele><time>2026-04-19T11:08:04.252Z</time></trkpt><trkpt lat="43.3155349" lon="13.1238195"><ele>714.0</ele><time>2026-04-19T11:08:05.252Z</time></trkpt><trkpt lat="43.3154776" lon="13.1238823"><ele>712.0</ele><time>2026-04-19T11:08:06.252Z</time></trkpt><trkpt lat="43.315389" lon="13.1239683"><ele>710.0</ele><time>2026-04-19T11:08:08.252Z</time></trkpt><trkpt lat="43.3153288" lon="13.1240859"><ele>708.0</ele><time>2026-04-19T11:08:10.251Z</time></trkpt><trkpt lat="43.3152265" lon="13.1242008"><ele>708.0</ele><time>2026-04-19T11:08:12.252Z</time></trkpt><trkpt lat="43.315144" lon="13.1242673"><ele>708.0</ele><time>2026-04-19T11:08:13.252Z</time></trkpt><trkpt lat="43.3150544" lon="13.1243533"><ele>708.0</ele><time>2026-04-19T11:08:14.25Z</time></trkpt><trkpt lat="43.3149667" lon="13.1244327"><ele>708.0</ele><time>2026-04-19T11:08:15.251Z</time></trkpt><trkpt lat="43.3148849" lon="13.1245"><ele>708.0</ele><time>2026-04-19T11:08:16.251Z</time></trkpt><trkpt lat="43.3148038" lon="13.1245571"><ele>711.0</ele><time>2026-04-19T11:08:17.251Z</time></trkpt><trkpt lat="43.3147153" lon="13.1246064"><ele>714.0</ele><time>2026-04-19T11:08:18.251Z</time></trkpt><trkpt lat="43.3146176" lon="13.1246602"><ele>717.0</ele><time>2026-04-19T11:08:19.25Z</time></trkpt><trkpt lat="43.3145" lon="13.1247301"><ele>720.0</ele><time>2026-04-19T11:08:20.251Z</time></trkpt><trkpt lat="43.3143995" lon="13.1248062"><ele>723.0</ele><time>2026-04-19T11:08:21.251Z</time></trkpt><trkpt lat="43.3143052" lon="13.1248861"><ele>717.0</ele><time>2026-04-19T11:08:22.252Z</time></trkpt><trkpt lat="43.3142255" lon="13.1249689"><ele>711.0</ele><time>2026-04-19T11:08:23.252Z</time></trkpt><trkpt lat="43.3141508" lon="13.1250555"><ele>705.0</ele><time>2026-04-19T11:08:24.251Z</time></trkpt><trkpt lat="43.3140748" lon="13.125145"><ele>699.0</ele><time>2026-04-19T11:08:25.251Z</time></trkpt><trkpt lat="43.313994" lon="13.1252394"><ele>693.0</ele><time>2026-04-19T11:08:26.251Z</time></trkpt><trkpt lat="43.3139146" lon="13.1253358"><ele>695.5</ele><time>2026-04-19T11:08:27.251Z</time></trkpt><trkpt lat="43.3138441" lon="13.1254257"><ele>698.0</ele><time>2026-04-19T11:08:28.252Z</time></trkpt><trkpt lat="43.3137918" lon="13.1254862"><ele>700.5</ele><time>2026-04-19T11:08:29.252Z</time></trkpt><trkpt lat="43.3137344" lon="13.1255502"><ele>703.0</ele><time>2026-04-19T11:08:30.251Z</time></trkpt><trkpt lat="43.313675" lon="13.1256118"><ele>705.5</ele><time>2026-04-19T11:08:31.251Z</time></trkpt><trkpt lat="43.3136113" lon="13.1256672"><ele>708.0</ele><time>2026-04-19T11:08:32.252Z</time></trkpt><trkpt lat="43.3135461" lon="13.1257023"><ele>704.8333333333334</ele><time>2026-04-19T11:08:33.252Z</time></trkpt><trkpt lat="43.3134738" lon="13.1257322"><ele>701.6666666666666</ele><time>2026-04-19T11:08:34.252Z</time></trkpt><trkpt lat="43.3133972" lon="13.1257557"><ele>698.5</ele><time>2026-04-19T11:08:35.251Z</time></trkpt><trkpt lat="43.3133148" lon="13.125778"><ele>695.3333333333333</ele><time>2026-04-19T11:08:36.252Z</time></trkpt><trkpt lat="43.3132331" lon="13.1257991"><ele>692.1666666666666</ele><time>2026-04-19T11:08:37.252Z</time></trkpt><trkpt lat="43.3131409" lon="13.1258144"><ele>689.0</ele><time>2026-04-19T11:08:38.252Z</time></trkpt><trkpt lat="43.3130445" lon="13.1258163"><ele>689.0</ele><time>2026-04-19T11:08:39.251Z</time></trkpt><trkpt lat="43.3129425" lon="13.1258168"><ele>689.0</ele><time>2026-04-19T11:08:40.252Z</time></trkpt><trkpt lat="43.3128301" lon="13.1258184"><ele>689.0</ele><time>2026-04-19T11:08:41.252Z</time></trkpt><trkpt lat="43.3127236" lon="13.1258184"><ele>689.0</ele><time>2026-04-19T11:08:42.251Z</time></trkpt><trkpt lat="43.3126274" lon="13.1257977"><ele>689.0</ele><time>2026-04-19T11:08:43.251Z</time></trkpt><trkpt lat="43.3125436" lon="13.1257709"><ele>689.0</ele><time>2026-04-19T11:08:44.252Z</time></trkpt><trkpt lat="43.3124646" lon="13.1257325"><ele>689.0</ele><time>2026-04-19T11:08:45.252Z</time></trkpt><trkpt lat="43.3123877" lon="13.1256751"><ele>689.0</ele><time>2026-04-19T11:08:46.252Z</time></trkpt><trkpt lat="43.3123091" lon="13.1256568"><ele>689.0</ele><time>2026-04-19T11:08:47.252Z</time></trkpt><trkpt lat="43.3122362" lon="13.1256672"><ele>689.0</ele><time>2026-04-19T11:08:48.251Z</time></trkpt><trkpt lat="43.31216" lon="13.125698"><ele>689.0</ele><time>2026-04-19T11:08:49.25Z</time></trkpt><trkpt lat="43.3120964" lon="13.1257086"><ele>689.8333333333333</ele><time>2026-04-19T11:08:50.252Z</time></trkpt><trkpt lat="43.3120216" lon="13.1257291"><ele>690.6666666666666</ele><time>2026-04-19T11:08:51.252Z</time></trkpt><trkpt lat="43.3119524" lon="13.1257287"><ele>691.5</ele><time>2026-04-19T11:08:52.252Z</time></trkpt><trkpt lat="43.3118417" lon="13.1256603"><ele>692.3333333333334</ele><time>2026-04-19T11:08:54.252Z</time></trkpt><trkpt lat="43.3117865" lon="13.1256102"><ele>693.1666666666667</ele><time>2026-04-19T11:08:55.252Z</time></trkpt><trkpt lat="43.3117179" lon="13.1255635"><ele>694.0</ele><time>2026-04-19T11:08:56.251Z</time></trkpt><trkpt lat="43.3116337" lon="13.1255208"><ele>699.3333333333334</ele><time>2026-04-19T11:08:57.252Z</time></trkpt><trkpt lat="43.3115618" lon="13.1254868"><ele>704.6666666666667</ele><time>2026-04-19T11:08:58.252Z</time></trkpt><trkpt lat="43.3114988" lon="13.1254714"><ele>710.0</ele><time>2026-04-19T11:08:59.252Z</time></trkpt><trkpt lat="43.311427" lon="13.125437"><ele>715.3333333333334</ele><time>2026-04-19T11:09:00.252Z</time></trkpt><trkpt lat="43.3113546" lon="13.1254009"><ele>720.6666666666666</ele><time>2026-04-19T11:09:01.251Z</time></trkpt><trkpt lat="43.3112891" lon="13.1253889"><ele>726.0</ele><time>2026-04-19T11:09:02.251Z</time></trkpt><trkpt lat="43.3111811" lon="13.1254532"><ele>728.5</ele><time>2026-04-19T11:09:04.251Z</time></trkpt><trkpt lat="43.311116" lon="13.1254829"><ele>731.0</ele><time>2026-04-19T11:09:05.251Z</time></trkpt><trkpt lat="43.3110353" lon="13.1255207"><ele>733.5</ele><time>2026-04-19T11:09:06.252Z</time></trkpt><trkpt lat="43.3109494" lon="13.1255476"><ele>736.0</ele><time>2026-04-19T11:09:07.251Z</time></trkpt><trkpt lat="43.310862" lon="13.1255753"><ele>738.5</ele><time>2026-04-19T11:09:08.252Z</time></trkpt><trkpt lat="43.3107794" lon="13.125594"><ele>741.0</ele><time>2026-04-19T11:09:09.252Z</time></trkpt><trkpt lat="43.3106957" lon="13.1255893"><ele>741.0</ele><time>2026-04-19T11:09:10.251Z</time></trkpt><trkpt lat="43.3106171" lon="13.1255775"><ele>741.0</ele><time>2026-04-19T11:09:11.251Z</time></trkpt><trkpt lat="43.3105409" lon="13.1255693"><ele>741.0</ele><time>2026-04-19T11:09:12.251Z</time></trkpt><trkpt lat="43.310472" lon="13.1255486"><ele>741.0</ele><time>2026-04-19T11:09:13.251Z</time></trkpt><trkpt lat="43.3104046" lon="13.1255299"><ele>741.0</ele><time>2026-04-19T11:09:14.252Z</time></trkpt><trkpt lat="43.3103371" lon="13.1255077"><ele>741.0</ele><time>2026-04-19T11:09:15.252Z</time></trkpt><trkpt lat="43.3102708" lon="13.1254942"><ele>741.0</ele><time>2026-04-19T11:09:16.252Z</time></trkpt><trkpt lat="43.3101983" lon="13.1254805"><ele>742.6666666666666</ele><time>2026-04-19T11:09:17.252Z</time></trkpt><trkpt lat="43.3101253" lon="13.1254616"><ele>744.3333333333334</ele><time>2026-04-19T11:09:18.252Z</time></trkpt><trkpt lat="43.3100522" lon="13.1254382"><ele>746.0</ele><time>2026-04-19T11:09:19.252Z</time></trkpt><trkpt lat="43.3099811" lon="13.1253913"><ele>747.6666666666667</ele><time>2026-04-19T11:09:20.252Z</time></trkpt><trkpt lat="43.3098999" lon="13.125356"><ele>749.3333333333334</ele><time>2026-04-19T11:09:21.252Z</time></trkpt><trkpt lat="43.3098012" lon="13.1253238"><ele>751.0</ele><time>2026-04-19T11:09:22.251Z</time></trkpt><trkpt lat="43.3096936" lon="13.1252909"><ele>751.5</ele><time>2026-04-19T11:09:23.251Z</time></trkpt><trkpt lat="43.3096059" lon="13.1252648"><ele>752.0</ele><time>2026-04-19T11:09:24.251Z</time></trkpt><trkpt lat="43.30952" lon="13.1252301"><ele>752.5</ele><time>2026-04-19T11:09:25.251Z</time></trkpt><trkpt lat="43.3094512" lon="13.1251954"><ele>753.0</ele><time>2026-04-19T11:09:26.251Z</time></trkpt><trkpt lat="43.3093757" lon="13.1251521"><ele>753.5</ele><time>2026-04-19T11:09:27.252Z</time></trkpt><trkpt lat="43.3092905" lon="13.1251023"><ele>754.0</ele><time>2026-04-19T11:09:28.252Z</time></trkpt><trkpt lat="43.3092373" lon="13.1250539"><ele>754.0</ele><time>2026-04-19T11:09:29.252Z</time></trkpt><trkpt lat="43.3091839" lon="13.1249236"><ele>754.0</ele><time>2026-04-19T11:09:31.251Z</time></trkpt><trkpt lat="43.3091348" lon="13.1247685"><ele>754.0</ele><time>2026-04-19T11:09:33.251Z</time></trkpt><trkpt lat="43.3090473" lon="13.124677"><ele>754.0</ele><time>2026-04-19T11:09:35.251Z</time></trkpt><trkpt lat="43.3089768" lon="13.1246599"><ele>754.0</ele><time>2026-04-19T11:09:36.251Z</time></trkpt><trkpt lat="43.3088963" lon="13.1246385"><ele>757.6666666666667</ele><time>2026-04-19T11:09:37.252Z</time></trkpt><trkpt lat="43.3088197" lon="13.124612"><ele>761.3333333333334</ele><time>2026-04-19T11:09:38.252Z</time></trkpt><trkpt lat="43.3087448" lon="13.1245966"><ele>765.0</ele><time>2026-04-19T11:09:39.252Z</time></trkpt><trkpt lat="43.3086658" lon="13.1245881"><ele>768.6666666666667</ele><time>2026-04-19T11:09:40.252Z</time></trkpt><trkpt lat="43.3085734" lon="13.1245845"><ele>772.3333333333334</ele><time>2026-04-19T11:09:41.252Z</time></trkpt><trkpt lat="43.3084816" lon="13.1245876"><ele>776.0</ele><time>2026-04-19T11:09:42.252Z</time></trkpt><trkpt lat="43.3083915" lon="13.1245903"><ele>776.0</ele><time>2026-04-19T11:09:43.252Z</time></trkpt><trkpt lat="43.3083088" lon="13.1245928"><ele>776.0</ele><time>2026-04-19T11:09:44.252Z</time></trkpt><trkpt lat="43.3082365" lon="13.1245962"><ele>776.0</ele><time>2026-04-19T11:09:45.252Z</time></trkpt><trkpt lat="43.3081657" lon="13.1245995"><ele>776.0</ele><time>2026-04-19T11:09:46.252Z</time></trkpt><trkpt lat="43.3080933" lon="13.124605"><ele>776.0</ele><time>2026-04-19T11:09:47.252Z</time></trkpt><trkpt lat="43.3080297" lon="13.1245844"><ele>776.0</ele><time>2026-04-19T11:09:48.252Z</time></trkpt><trkpt lat="43.3079684" lon="13.1245533"><ele>776.0</ele><time>2026-04-19T11:09:49.252Z</time></trkpt><trkpt lat="43.3078938" lon="13.12451"><ele>776.0000000000001</ele><time>2026-04-19T11:09:50.252Z</time></trkpt><trkpt lat="43.3078118" lon="13.1244541"><ele>776.0</ele><time>2026-04-19T11:09:51.252Z</time></trkpt><trkpt lat="43.307751" lon="13.1244021"><ele>776.0</ele><time>2026-04-19T11:09:52.252Z</time></trkpt><trkpt lat="43.3076878" lon="13.124347"><ele>776.0</ele><time>2026-04-19T11:09:53.252Z</time></trkpt><trkpt lat="43.3076303" lon="13.1242862"><ele>776.0000000000001</ele><time>2026-04-19T11:09:54.252Z</time></trkpt><trkpt lat="43.3075588" lon="13.1242325"><ele>776.0</ele><time>2026-04-19T11:09:55.252Z</time></trkpt><trkpt lat="43.3074755" lon="13.1241956"><ele>776.0</ele><time>2026-04-19T11:09:56.252Z</time></trkpt><trkpt lat="43.3073936" lon="13.1241437"><ele>776.0</ele><time>2026-04-19T11:09:57.252Z</time></trkpt><trkpt lat="43.307308" lon="13.1240869"><ele>776.0</ele><time>2026-04-19T11:09:58.25Z</time></trkpt><trkpt lat="43.3072207" lon="13.1240264"><ele>776.0</ele><time>2026-04-19T11:09:59.251Z</time></trkpt><trkpt lat="43.3071311" lon="13.1239714"><ele>776.0</ele><time>2026-04-19T11:10:00.252Z</time></trkpt><trkpt lat="43.3070308" lon="13.1239127"><ele>777.0000000000001</ele><time>2026-04-19T11:10:01.252Z</time></trkpt><trkpt lat="43.306945" lon="13.1238658"><ele>778.0</ele><time>2026-04-19T11:10:02.251Z</time></trkpt><trkpt lat="43.3068741" lon="13.1238347"><ele>779.0</ele><time>2026-04-19T11:10:03.251Z</time></trkpt><trkpt lat="43.3067833" lon="13.1238215"><ele>780.0</ele><time>2026-04-19T11:10:05.252Z</time></trkpt><trkpt lat="43.3067183" lon="13.1238586"><ele>781.0000000000001</ele><time>2026-04-19T11:10:07.251Z</time></trkpt><trkpt lat="43.3067244" lon="13.1239617"><ele>782.0</ele><time>2026-04-19T11:10:10.251Z</time></trkpt><trkpt lat="43.3067367" lon="13.1240501"><ele>781.0</ele><time>2026-04-19T11:10:13.251Z</time></trkpt><trkpt lat="43.3067602" lon="13.1242045"><ele>780.0</ele><time>2026-04-19T11:10:56.25Z</time></trkpt><trkpt lat="43.3067984" lon="13.1243704"><ele>779.0</ele><time>2026-04-19T11:10:58.251Z</time></trkpt><trkpt lat="43.3068171" lon="13.1244738"><ele>778.0</ele><time>2026-04-19T11:10:59.251Z</time></trkpt><trkpt lat="43.3068333" lon="13.1245857"><ele>777.0</ele><time>2026-04-19T11:11:00.251Z</time></trkpt><trkpt lat="43.3068457" lon="13.1246946"><ele>777.0</ele><time>2026-04-19T11:11:01.251Z</time></trkpt><trkpt lat="43.3068539" lon="13.1247951"><ele>777.0</ele><time>2026-04-19T11:11:02.25Z</time></trkpt><trkpt lat="43.30686" lon="13.1248897"><ele>777.0</ele><time>2026-04-19T11:11:03.251Z</time></trkpt><trkpt lat="43.3068753" lon="13.125058"><ele>777.0</ele><time>2026-04-19T11:11:05.251Z</time></trkpt><trkpt lat="43.3069091" lon="13.125203"><ele>777.0</ele><time>2026-04-19T11:11:07.25Z</time></trkpt><trkpt lat="43.3069606" lon="13.1253294"><ele>776.6666666666666</ele><time>2026-04-19T11:11:09.251Z</time></trkpt><trkpt lat="43.3070003" lon="13.1254252"><ele>776.3333333333333</ele><time>2026-04-19T11:11:11.25Z</time></trkpt><trkpt lat="43.3070008" lon="13.1255246"><ele>776.0</ele><time>2026-04-19T11:11:13.251Z</time></trkpt><trkpt lat="43.306959" lon="13.1256653"><ele>775.6666666666666</ele><time>2026-04-19T11:11:15.25Z</time></trkpt><trkpt lat="43.3069401" lon="13.1257489"><ele>775.3333333333333</ele><time>2026-04-19T11:11:16.25Z</time></trkpt><trkpt lat="43.3069305" lon="13.1258383"><ele>775.0</ele><time>2026-04-19T11:11:17.25Z</time></trkpt><trkpt lat="43.3069273" lon="13.1259335"><ele>773.4999999999999</ele><time>2026-04-19T11:11:18.25Z</time></trkpt><trkpt lat="43.3069107" lon="13.1260908"><ele>772.0</ele><time>2026-04-19T11:11:20.251Z</time></trkpt><trkpt lat="43.3068951" lon="13.1261797"><ele>770.5</ele><time>2026-04-19T11:11:21.251Z</time></trkpt><trkpt lat="43.3068763" lon="13.1262818"><ele>769.0</ele><time>2026-04-19T11:11:22.25Z</time></trkpt><trkpt lat="43.3068541" lon="13.126404"><ele>767.5</ele><time>2026-04-19T11:11:23.251Z</time></trkpt><trkpt lat="43.3068281" lon="13.1265318"><ele>766.0</ele><time>2026-04-19T11:11:24.251Z</time></trkpt><trkpt lat="43.3067942" lon="13.1266742"><ele>762.25</ele><time>2026-04-19T11:11:25.251Z</time></trkpt><trkpt lat="43.3067532" lon="13.1268375"><ele>758.5</ele><time>2026-04-19T11:11:26.251Z</time></trkpt><trkpt lat="43.3067153" lon="13.1269819"><ele>754.75</ele><time>2026-04-19T11:11:27.251Z</time></trkpt><trkpt lat="43.3066722" lon="13.1271272"><ele>751.0</ele><time>2026-04-19T11:11:28.25Z</time></trkpt><trkpt lat="43.3066318" lon="13.1272723"><ele>748.8</ele><time>2026-04-19T11:11:29.251Z</time></trkpt><trkpt lat="43.3065925" lon="13.1274178"><ele>746.5999999999999</ele><time>2026-04-19T11:11:30.25Z</time></trkpt><trkpt lat="43.3065535" lon="13.1275609"><ele>744.4</ele><time>2026-04-19T11:11:31.251Z</time></trkpt><trkpt lat="43.3065168" lon="13.1277003"><ele>742.2</ele><time>2026-04-19T11:11:32.25Z</time></trkpt><trkpt lat="43.3064818" lon="13.1278326"><ele>740.0</ele><time>2026-04-19T11:11:33.25Z</time></trkpt><trkpt lat="43.3064414" lon="13.127973"><ele>741.8</ele><time>2026-04-19T11:11:34.251Z</time></trkpt><trkpt lat="43.3063966" lon="13.1281041"><ele>743.6</ele><time>2026-04-19T11:11:35.251Z</time></trkpt><trkpt lat="43.3063495" lon="13.1282346"><ele>745.4000000000001</ele><time>2026-04-19T11:11:36.25Z</time></trkpt><trkpt lat="43.3063081" lon="13.128356"><ele>747.2</ele><time>2026-04-19T11:11:37.251Z</time></trkpt><trkpt lat="43.3062675" lon="13.1284928"><ele>749.0</ele><time>2026-04-19T11:11:38.251Z</time></trkpt><trkpt lat="43.3062338" lon="13.1286071"><ele>749.0</ele><time>2026-04-19T11:11:39.251Z</time></trkpt><trkpt lat="43.3062035" lon="13.1287135"><ele>749.0</ele><time>2026-04-19T11:11:40.251Z</time></trkpt><trkpt lat="43.3061772" lon="13.1288076"><ele>749.0</ele><time>2026-04-19T11:11:41.251Z</time></trkpt><trkpt lat="43.3061513" lon="13.1289109"><ele>749.0</ele><time>2026-04-19T11:11:42.251Z</time></trkpt><trkpt lat="43.3061257" lon="13.1290138"><ele>749.0</ele><time>2026-04-19T11:11:43.25Z</time></trkpt><trkpt lat="43.3060817" lon="13.1291194"><ele>749.0</ele><time>2026-04-19T11:11:44.251Z</time></trkpt><trkpt lat="43.306045" lon="13.1292203"><ele>745.4000000000001</ele><time>2026-04-19T11:11:45.251Z</time></trkpt><trkpt lat="43.3060007" lon="13.129331"><ele>741.8</ele><time>2026-04-19T11:11:46.25Z</time></trkpt><trkpt lat="43.3059523" lon="13.1294521"><ele>738.2</ele><time>2026-04-19T11:11:47.251Z</time></trkpt><trkpt lat="43.305901" lon="13.1295739"><ele>734.5999999999999</ele><time>2026-04-19T11:11:48.25Z</time></trkpt><trkpt lat="43.3058439" lon="13.1297094"><ele>731.0</ele><time>2026-04-19T11:11:49.25Z</time></trkpt><trkpt lat="43.3057934" lon="13.1298369"><ele>726.4</ele><time>2026-04-19T11:11:50.25Z</time></trkpt><trkpt lat="43.3057508" lon="13.1299776"><ele>721.8</ele><time>2026-04-19T11:11:51.25Z</time></trkpt><trkpt lat="43.3057116" lon="13.1300998"><ele>717.1999999999999</ele><time>2026-04-19T11:11:52.251Z</time></trkpt><trkpt lat="43.3056726" lon="13.1302123"><ele>712.5999999999999</ele><time>2026-04-19T11:11:53.251Z</time></trkpt><trkpt lat="43.3056339" lon="13.130305"><ele>708.0</ele><time>2026-04-19T11:11:54.251Z</time></trkpt><trkpt lat="43.3055839" lon="13.1304031"><ele>707.8</ele><time>2026-04-19T11:11:55.251Z</time></trkpt><trkpt lat="43.3055434" lon="13.1305037"><ele>707.5999999999999</ele><time>2026-04-19T11:11:56.251Z</time></trkpt><trkpt lat="43.3054917" lon="13.1306317"><ele>707.4000000000001</ele><time>2026-04-19T11:11:57.251Z</time></trkpt><trkpt lat="43.305442" lon="13.1307575"><ele>707.2</ele><time>2026-04-19T11:11:58.251Z</time></trkpt><trkpt lat="43.3053819" lon="13.1308839"><ele>707.0</ele><time>2026-04-19T11:11:59.251Z</time></trkpt><trkpt lat="43.3053375" lon="13.1309928"><ele>707.0</ele><time>2026-04-19T11:12:00.251Z</time></trkpt><trkpt lat="43.3052934" lon="13.1311095"><ele>707.0</ele><time>2026-04-19T11:12:01.251Z</time></trkpt><trkpt lat="43.305254" lon="13.1312144"><ele>707.0</ele><time>2026-04-19T11:12:02.25Z</time></trkpt><trkpt lat="43.3052128" lon="13.1313209"><ele>707.0</ele><time>2026-04-19T11:12:03.25Z</time></trkpt><trkpt lat="43.3051531" lon="13.1314136"><ele>707.0</ele><time>2026-04-19T11:12:04.25Z</time></trkpt><trkpt lat="43.3050821" lon="13.1315038"><ele>703.8333333333333</ele><time>2026-04-19T11:12:05.25Z</time></trkpt><trkpt lat="43.3050218" lon="13.1315896"><ele>700.6666666666666</ele><time>2026-04-19T11:12:06.251Z</time></trkpt><trkpt lat="43.3049568" lon="13.1316695"><ele>697.5</ele><time>2026-04-19T11:12:07.251Z</time></trkpt><trkpt lat="43.3049005" lon="13.1317474"><ele>694.3333333333334</ele><time>2026-04-19T11:12:08.251Z</time></trkpt><trkpt lat="43.3048404" lon="13.1318188"><ele>691.1666666666667</ele><time>2026-04-19T11:12:09.25Z</time></trkpt><trkpt lat="43.3047844" lon="13.1318876"><ele>688.0</ele><time>2026-04-19T11:12:10.251Z</time></trkpt><trkpt lat="43.3047314" lon="13.1319488"><ele>688.0</ele><time>2026-04-19T11:12:11.25Z</time></trkpt><trkpt lat="43.3046272" lon="13.132039"><ele>688.0</ele><time>2026-04-19T11:12:13.25Z</time></trkpt><trkpt lat="43.3045625" lon="13.1320653"><ele>688.0</ele><time>2026-04-19T11:12:14.251Z</time></trkpt><trkpt lat="43.3044467" lon="13.1320896"><ele>688.0</ele><time>2026-04-19T11:12:16.251Z</time></trkpt><trkpt lat="43.3043139" lon="13.1320863"><ele>688.0</ele><time>2026-04-19T11:12:18.251Z</time></trkpt><trkpt lat="43.3042417" lon="13.1320783"><ele>688.0</ele><time>2026-04-19T11:12:19.251Z</time></trkpt><trkpt lat="43.3041708" lon="13.1320753"><ele>688.0</ele><time>2026-04-19T11:12:20.25Z</time></trkpt><trkpt lat="43.3040908" lon="13.1320979"><ele>688.0</ele><time>2026-04-19T11:12:21.25Z</time></trkpt><trkpt lat="43.30402" lon="13.1321188"><ele>688.0</ele><time>2026-04-19T11:12:22.25Z</time></trkpt><trkpt lat="43.3039035" lon="13.1321981"><ele>688.0</ele><time>2026-04-19T11:12:23.25Z</time></trkpt><trkpt lat="43.3038062" lon="13.1322419"><ele>690.0</ele><time>2026-04-19T11:12:24.25Z</time></trkpt><trkpt lat="43.303701" lon="13.1322936"><ele>692.0</ele><time>2026-04-19T11:12:25.25Z</time></trkpt><trkpt lat="43.3036041" lon="13.1323297"><ele>694.0</ele><time>2026-04-19T11:12:26.249Z</time></trkpt><trkpt lat="43.303515" lon="13.1323778"><ele>696.0</ele><time>2026-04-19T11:12:27.25Z</time></trkpt><trkpt lat="43.3034303" lon="13.1324486"><ele>698.0</ele><time>2026-04-19T11:12:28.251Z</time></trkpt><trkpt lat="43.3033674" lon="13.132596"><ele>690.0</ele><time>2026-04-19T11:12:30.251Z</time></trkpt><trkpt lat="43.3033375" lon="13.1327798"><ele>682.0</ele><time>2026-04-19T11:12:32.251Z</time></trkpt><trkpt lat="43.3033453" lon="13.1329403"><ele>674.0</ele><time>2026-04-19T11:12:34.25Z</time></trkpt><trkpt lat="43.3033589" lon="13.1330807"><ele>666.0</ele><time>2026-04-19T11:12:36.25Z</time></trkpt><trkpt lat="43.3033413" lon="13.1332189"><ele>661.8</ele><time>2026-04-19T11:12:38.25Z</time></trkpt><trkpt lat="43.3033159" lon="13.1333788"><ele>657.5999999999999</ele><time>2026-04-19T11:12:40.251Z</time></trkpt><trkpt lat="43.3032979" lon="13.133475"><ele>653.4</ele><time>2026-04-19T11:12:41.251Z</time></trkpt><trkpt lat="43.3032813" lon="13.1335757"><ele>649.2</ele><time>2026-04-19T11:12:42.251Z</time></trkpt><trkpt lat="43.3032406" lon="13.1337531"><ele>645.0</ele><time>2026-04-19T11:12:44.251Z</time></trkpt><trkpt lat="43.3032161" lon="13.1338563"><ele>645.0</ele><time>2026-04-19T11:12:45.251Z</time></trkpt><trkpt lat="43.3031889" lon="13.1339675"><ele>645.0</ele><time>2026-04-19T11:12:46.251Z</time></trkpt><trkpt lat="43.3031631" lon="13.1340671"><ele>645.0</ele><time>2026-04-19T11:12:47.251Z</time></trkpt><trkpt lat="43.3031423" lon="13.1341663"><ele>645.0</ele><time>2026-04-19T11:12:48.251Z</time></trkpt><trkpt lat="43.3031019" lon="13.1342663"><ele>645.0</ele><time>2026-04-19T11:12:49.251Z</time></trkpt><trkpt lat="43.3030491" lon="13.134358"><ele>645.0</ele><time>2026-04-19T11:12:50.251Z</time></trkpt><trkpt lat="43.3029905" lon="13.1344357"><ele>644.0</ele><time>2026-04-19T11:12:51.251Z</time></trkpt><trkpt lat="43.3029258" lon="13.1345101"><ele>643.0</ele><time>2026-04-19T11:12:52.25Z</time></trkpt><trkpt lat="43.3028666" lon="13.1345831"><ele>642.0</ele><time>2026-04-19T11:12:53.25Z</time></trkpt><trkpt lat="43.3028029" lon="13.1346671"><ele>641.0</ele><time>2026-04-19T11:12:54.251Z</time></trkpt><trkpt lat="43.3027437" lon="13.1347542"><ele>640.0</ele><time>2026-04-19T11:12:55.251Z</time></trkpt><trkpt lat="43.3026826" lon="13.1348286"><ele>639.0</ele><time>2026-04-19T11:12:56.251Z</time></trkpt><trkpt lat="43.3026217" lon="13.1348923"><ele>635.6666666666666</ele><time>2026-04-19T11:12:57.25Z</time></trkpt><trkpt lat="43.302559" lon="13.1349539"><ele>632.3333333333334</ele><time>2026-04-19T11:12:58.251Z</time></trkpt><trkpt lat="43.3024921" lon="13.1350249"><ele>629.0</ele><time>2026-04-19T11:12:59.251Z</time></trkpt><trkpt lat="43.3024333" lon="13.1350898"><ele>625.6666666666667</ele><time>2026-04-19T11:13:00.251Z</time></trkpt><trkpt lat="43.3023739" lon="13.1351562"><ele>622.3333333333334</ele><time>2026-04-19T11:13:01.251Z</time></trkpt><trkpt lat="43.3023112" lon="13.1352037"><ele>619.0</ele><time>2026-04-19T11:13:02.251Z</time></trkpt><trkpt lat="43.3022354" lon="13.1352117"><ele>619.0</ele><time>2026-04-19T11:13:03.251Z</time></trkpt><trkpt lat="43.3021732" lon="13.1352498"><ele>619.0</ele><time>2026-04-19T11:13:04.251Z</time></trkpt><trkpt lat="43.3020478" lon="13.1353257"><ele>619.0</ele><time>2026-04-19T11:13:06.249Z</time></trkpt><trkpt lat="43.3019741" lon="13.1353894"><ele>619.0</ele><time>2026-04-19T11:13:07.25Z</time></trkpt><trkpt lat="43.3019198" lon="13.1354543"><ele>619.0</ele><time>2026-04-19T11:13:08.25Z</time></trkpt><trkpt lat="43.3018579" lon="13.1355118"><ele>619.0</ele><time>2026-04-19T11:13:09.25Z</time></trkpt><trkpt lat="43.3017908" lon="13.135549"><ele>619.0</ele><time>2026-04-19T11:13:10.251Z</time></trkpt><trkpt lat="43.3017217" lon="13.1355694"><ele>619.0</ele><time>2026-04-19T11:13:11.251Z</time></trkpt><trkpt lat="43.3016435" lon="13.1356321"><ele>619.0</ele><time>2026-04-19T11:13:13.251Z</time></trkpt><trkpt lat="43.3016304" lon="13.1357263"><ele>619.0</ele><time>2026-04-19T11:13:15.251Z</time></trkpt><trkpt lat="43.301689" lon="13.1357773"><ele>619.0</ele><time>2026-04-19T11:13:17.251Z</time></trkpt><trkpt lat="43.3017716" lon="13.1358013"><ele>619.0</ele><time>2026-04-19T11:13:20.251Z</time></trkpt><trkpt lat="43.3018397" lon="13.1358811"><ele>613.8333333333334</ele><time>2026-04-19T11:13:23.251Z</time></trkpt><trkpt lat="43.3019201" lon="13.1359456"><ele>608.6666666666667</ele><time>2026-04-19T11:13:26.251Z</time></trkpt><trkpt lat="43.3019685" lon="13.1360032"><ele>603.5</ele><time>2026-04-19T11:13:28.251Z</time></trkpt><trkpt lat="43.3020514" lon="13.1360509"><ele>598.3333333333334</ele><time>2026-04-19T11:13:32.251Z</time></trkpt><trkpt lat="43.3019915" lon="13.1359579"><ele>593.1666666666666</ele><time>2026-04-19T11:13:51.25Z</time></trkpt><trkpt lat="43.3020188" lon="13.1358726"><ele>588.0</ele><time>2026-04-19T11:13:54.251Z</time></trkpt><trkpt lat="43.30203" lon="13.1357806"><ele>588.0</ele><time>2026-04-19T11:14:09.249Z</time></trkpt><trkpt lat="43.3020062" lon="13.1358842"><ele>588.0</ele><time>2026-04-19T11:21:53.247Z</time></trkpt><trkpt lat="43.3020346" lon="13.1360008"><ele>588.0</ele><time>2026-04-19T11:22:16.249Z</time></trkpt><trkpt lat="43.302106" lon="13.136016"><ele>588.0</ele><time>2026-04-19T11:22:19.249Z</time></trkpt><trkpt lat="43.3021705" lon="13.1360286"><ele>588.0</ele><time>2026-04-19T11:22:21.249Z</time></trkpt><trkpt lat="43.302236" lon="13.1360418"><ele>588.0</ele><time>2026-04-19T11:22:23.248Z</time></trkpt><trkpt lat="43.3023241" lon="13.1360509"><ele>588.6</ele><time>2026-04-19T11:22:25.249Z</time></trkpt><trkpt lat="43.3024366" lon="13.1360627"><ele>589.1999999999999</ele><time>2026-04-19T11:22:27.248Z</time></trkpt><trkpt lat="43.3025411" lon="13.1360855"><ele>589.8</ele><time>2026-04-19T11:22:29.249Z</time></trkpt><trkpt lat="43.3026186" lon="13.1361165"><ele>590.4</ele><time>2026-04-19T11:22:31.248Z</time></trkpt><trkpt lat="43.3026965" lon="13.1361542"><ele>591.0</ele><time>2026-04-19T11:22:33.249Z</time></trkpt><trkpt lat="43.3027852" lon="13.136196"><ele>591.0</ele><time>2026-04-19T11:22:35.248Z</time></trkpt><trkpt lat="43.3028584" lon="13.1362297"><ele>591.0</ele><time>2026-04-19T11:22:37.249Z</time></trkpt><trkpt lat="43.3029471" lon="13.1362738"><ele>591.0</ele><time>2026-04-19T11:22:39.249Z</time></trkpt><trkpt lat="43.30305" lon="13.1363066"><ele>591.0</ele><time>2026-04-19T11:22:41.249Z</time></trkpt><trkpt lat="43.3031318" lon="13.1363102"><ele>591.0</ele><time>2026-04-19T11:22:43.248Z</time></trkpt><trkpt lat="43.3032192" lon="13.1362981"><ele>591.0</ele><time>2026-04-19T11:22:45.249Z</time></trkpt><trkpt lat="43.3032979" lon="13.1362618"><ele>590.3333333333334</ele><time>2026-04-19T11:22:47.249Z</time></trkpt><trkpt lat="43.3033659" lon="13.1362176"><ele>589.6666666666666</ele><time>2026-04-19T11:22:49.247Z</time></trkpt><trkpt lat="43.303435" lon="13.1361684"><ele>589.0</ele><time>2026-04-19T11:22:51.248Z</time></trkpt><trkpt lat="43.3035116" lon="13.1361001"><ele>588.3333333333333</ele><time>2026-04-19T11:22:53.249Z</time></trkpt><trkpt lat="43.3035811" lon="13.1360274"><ele>587.6666666666666</ele><time>2026-04-19T11:22:55.248Z</time></trkpt><trkpt lat="43.3036374" lon="13.1359513"><ele>587.0</ele><time>2026-04-19T11:22:58.249Z</time></trkpt><trkpt lat="43.3036846" lon="13.1358784"><ele>587.0</ele><time>2026-04-19T11:23:03.247Z</time></trkpt><trkpt lat="43.3037216" lon="13.1358021"><ele>587.0</ele><time>2026-04-19T11:23:09.249Z</time></trkpt><trkpt lat="43.3037578" lon="13.1356909"><ele>587.0</ele><time>2026-04-19T11:23:11.249Z</time></trkpt><trkpt lat="43.3037828" lon="13.1355972"><ele>587.0</ele><time>2026-04-19T11:23:12.249Z</time></trkpt><trkpt lat="43.3038262" lon="13.1355046"><ele>587.0</ele><time>2026-04-19T11:23:13.248Z</time></trkpt><trkpt lat="43.3038665" lon="13.1354286"><ele>587.0</ele><time>2026-04-19T11:23:14.249Z</time></trkpt><trkpt lat="43.3039335" lon="13.1353163"><ele>585.0</ele><time>2026-04-19T11:23:16.249Z</time></trkpt><trkpt lat="43.3039833" lon="13.1352599"><ele>583.0</ele><time>2026-04-19T11:23:17.249Z</time></trkpt><trkpt lat="43.3040507" lon="13.1351424"><ele>581.0</ele><time>2026-04-19T11:23:19.249Z</time></trkpt><trkpt lat="43.3041258" lon="13.1350153"><ele>579.0</ele><time>2026-04-19T11:23:21.249Z</time></trkpt><trkpt lat="43.3041705" lon="13.1349416"><ele>577.0</ele><time>2026-04-19T11:23:22.249Z</time></trkpt><trkpt lat="43.3042414" lon="13.1347927"><ele>580.3333333333334</ele><time>2026-04-19T11:23:24.248Z</time></trkpt><trkpt lat="43.3042696" lon="13.134715"><ele>583.6666666666667</ele><time>2026-04-19T11:23:25.248Z</time></trkpt><trkpt lat="43.3042993" lon="13.1346336"><ele>587.0</ele><time>2026-04-19T11:23:26.247Z</time></trkpt><trkpt lat="43.3043265" lon="13.1345421"><ele>590.3333333333334</ele><time>2026-04-19T11:23:27.248Z</time></trkpt><trkpt lat="43.3044181" lon="13.1344408"><ele>593.6666666666666</ele><time>2026-04-19T11:23:29.248Z</time></trkpt><trkpt lat="43.30453" lon="13.1343624"><ele>597.0</ele><time>2026-04-19T11:23:31.248Z</time></trkpt><trkpt lat="43.3046113" lon="13.134314"><ele>597.0</ele><time>2026-04-19T11:23:32.248Z</time></trkpt><trkpt lat="43.3046778" lon="13.1342852"><ele>597.0</ele><time>2026-04-19T11:23:33.248Z</time></trkpt><trkpt lat="43.30475" lon="13.1342483"><ele>597.0</ele><time>2026-04-19T11:23:34.248Z</time></trkpt><trkpt lat="43.3048355" lon="13.1342388"><ele>597.0</ele><time>2026-04-19T11:23:35.249Z</time></trkpt><trkpt lat="43.3049146" lon="13.1342536"><ele>597.0</ele><time>2026-04-19T11:23:36.248Z</time></trkpt><trkpt lat="43.3049966" lon="13.1342669"><ele>597.0</ele><time>2026-04-19T11:23:37.248Z</time></trkpt><trkpt lat="43.3050747" lon="13.1342919"><ele>595.8333333333334</ele><time>2026-04-19T11:23:38.249Z</time></trkpt><trkpt lat="43.3051559" lon="13.1343273"><ele>594.6666666666666</ele><time>2026-04-19T11:23:39.249Z</time></trkpt><trkpt lat="43.3052182" lon="13.1343707"><ele>593.5</ele><time>2026-04-19T11:23:40.248Z</time></trkpt><trkpt lat="43.3052744" lon="13.1344167"><ele>592.3333333333333</ele><time>2026-04-19T11:23:41.248Z</time></trkpt><trkpt lat="43.3052977" lon="13.1345284"><ele>591.1666666666666</ele><time>2026-04-19T11:23:42.249Z</time></trkpt><trkpt lat="43.3053342" lon="13.1346301"><ele>590.0</ele><time>2026-04-19T11:23:43.248Z</time></trkpt><trkpt lat="43.3053693" lon="13.1347347"><ele>590.0</ele><time>2026-04-19T11:23:44.248Z</time></trkpt><trkpt lat="43.3054023" lon="13.1348455"><ele>590.0</ele><time>2026-04-19T11:23:45.248Z</time></trkpt><trkpt lat="43.3054337" lon="13.13496"><ele>590.0</ele><time>2026-04-19T11:23:46.248Z</time></trkpt><trkpt lat="43.305463" lon="13.1350678"><ele>590.0</ele><time>2026-04-19T11:23:47.249Z</time></trkpt><trkpt lat="43.3054919" lon="13.1351714"><ele>590.0</ele><time>2026-04-19T11:23:48.249Z</time></trkpt><trkpt lat="43.305524" lon="13.1352651"><ele>590.0</ele><time>2026-04-19T11:23:49.248Z</time></trkpt><trkpt lat="43.3055908" lon="13.1353866"><ele>588.4</ele><time>2026-04-19T11:23:51.249Z</time></trkpt><trkpt lat="43.3056949" lon="13.1354337"><ele>586.8</ele><time>2026-04-19T11:23:53.248Z</time></trkpt><trkpt lat="43.3057889" lon="13.1354003"><ele>585.2</ele><time>2026-04-19T11:23:55.249Z</time></trkpt><trkpt lat="43.3058968" lon="13.135312"><ele>583.6</ele><time>2026-04-19T11:23:57.249Z</time></trkpt><trkpt lat="43.3059583" lon="13.1352512"><ele>582.0</ele><time>2026-04-19T11:23:58.249Z</time></trkpt><trkpt lat="43.3060187" lon="13.1351866"><ele>582.0</ele><time>2026-04-19T11:23:59.249Z</time></trkpt><trkpt lat="43.3060852" lon="13.1351122"><ele>582.0</ele><time>2026-04-19T11:24:00.249Z</time></trkpt><trkpt lat="43.3061622" lon="13.1350605"><ele>582.0</ele><time>2026-04-19T11:24:01.249Z</time></trkpt><trkpt lat="43.3062304" lon="13.1349939"><ele>582.0</ele><time>2026-04-19T11:24:02.248Z</time></trkpt><trkpt lat="43.3062895" lon="13.1349206"><ele>582.0</ele><time>2026-04-19T11:24:03.249Z</time></trkpt><trkpt lat="43.3063325" lon="13.134846"><ele>582.0</ele><time>2026-04-19T11:24:04.249Z</time></trkpt><trkpt lat="43.3063904" lon="13.1347529"><ele>580.5</ele><time>2026-04-19T11:24:06.248Z</time></trkpt><trkpt lat="43.3064365" lon="13.1346608"><ele>579.0</ele><time>2026-04-19T11:24:09.249Z</time></trkpt><trkpt lat="43.3064722" lon="13.1345871"><ele>577.5</ele><time>2026-04-19T11:24:12.248Z</time></trkpt><trkpt lat="43.3065275" lon="13.1344756"><ele>576.0</ele><time>2026-04-19T11:24:15.249Z</time></trkpt><trkpt lat="43.3065716" lon="13.1343671"><ele>574.5</ele><time>2026-04-19T11:24:17.249Z</time></trkpt><trkpt lat="43.3066208" lon="13.1342381"><ele>573.0</ele><time>2026-04-19T11:24:19.249Z</time></trkpt><trkpt lat="43.3066637" lon="13.1340985"><ele>575.1999999999999</ele><time>2026-04-19T11:24:21.249Z</time></trkpt><trkpt lat="43.3066899" lon="13.1339655"><ele>577.4</ele><time>2026-04-19T11:24:23.249Z</time></trkpt><trkpt lat="43.3067072" lon="13.1338374"><ele>579.5999999999999</ele><time>2026-04-19T11:24:25.249Z</time></trkpt><trkpt lat="43.3067106" lon="13.1337138"><ele>581.8</ele><time>2026-04-19T11:24:27.249Z</time></trkpt><trkpt lat="43.3067081" lon="13.1336052"><ele>584.0</ele><time>2026-04-19T11:24:29.248Z</time></trkpt><trkpt lat="43.3067061" lon="13.1334648"><ele>584.0</ele><time>2026-04-19T11:24:31.248Z</time></trkpt><trkpt lat="43.3066994" lon="13.1333641"><ele>584.0</ele><time>2026-04-19T11:24:32.249Z</time></trkpt><trkpt lat="43.3066975" lon="13.1332654"><ele>584.0</ele><time>2026-04-19T11:24:33.248Z</time></trkpt><trkpt lat="43.3067099" lon="13.133171"><ele>584.0</ele><time>2026-04-19T11:24:34.248Z</time></trkpt><trkpt lat="43.3067199" lon="13.1330714"><ele>584.0</ele><time>2026-04-19T11:24:35.247Z</time></trkpt><trkpt lat="43.3067722" lon="13.1330086"><ele>584.0</ele><time>2026-04-19T11:24:36.247Z</time></trkpt><trkpt lat="43.3068321" lon="13.1329006"><ele>581.8333333333333</ele><time>2026-04-19T11:24:38.249Z</time></trkpt><trkpt lat="43.3068988" lon="13.1327851"><ele>579.6666666666666</ele><time>2026-04-19T11:24:40.249Z</time></trkpt><trkpt lat="43.3069377" lon="13.1327137"><ele>577.5</ele><time>2026-04-19T11:24:41.248Z</time></trkpt><trkpt lat="43.3070228" lon="13.1326241"><ele>575.3333333333334</ele><time>2026-04-19T11:24:43.249Z</time></trkpt><trkpt lat="43.3070936" lon="13.1326002"><ele>573.1666666666667</ele><time>2026-04-19T11:24:44.249Z</time></trkpt><trkpt lat="43.3071685" lon="13.1325834"><ele>571.0</ele><time>2026-04-19T11:24:45.249Z</time></trkpt><trkpt lat="43.3072452" lon="13.1325815"><ele>571.0</ele><time>2026-04-19T11:24:46.249Z</time></trkpt><trkpt lat="43.3073114" lon="13.1325782"><ele>571.0</ele><time>2026-04-19T11:24:47.249Z</time></trkpt><trkpt lat="43.3073758" lon="13.1325712"><ele>571.0</ele><time>2026-04-19T11:24:48.248Z</time></trkpt><trkpt lat="43.3074764" lon="13.1325723"><ele>571.0</ele><time>2026-04-19T11:24:50.248Z</time></trkpt><trkpt lat="43.3075636" lon="13.1325367"><ele>571.0</ele><time>2026-04-19T11:24:52.248Z</time></trkpt><trkpt lat="43.3076664" lon="13.1324712"><ele>571.0</ele><time>2026-04-19T11:24:54.249Z</time></trkpt><trkpt lat="43.3077249" lon="13.1324366"><ele>571.0</ele><time>2026-04-19T11:24:55.249Z</time></trkpt><trkpt lat="43.3078258" lon="13.1323947"><ele>571.0</ele><time>2026-04-19T11:24:57.248Z</time></trkpt><trkpt lat="43.3079366" lon="13.132413"><ele>571.0</ele><time>2026-04-19T11:24:59.249Z</time></trkpt><trkpt lat="43.3080453" lon="13.1324284"><ele>571.0</ele><time>2026-04-19T11:25:01.248Z</time></trkpt><trkpt lat="43.3081611" lon="13.1324207"><ele>571.0</ele><time>2026-04-19T11:25:03.249Z</time></trkpt><trkpt lat="43.3082236" lon="13.132408"><ele>571.2</ele><time>2026-04-19T11:25:04.249Z</time></trkpt><trkpt lat="43.3083405" lon="13.1324365"><ele>571.4000000000001</ele><time>2026-04-19T11:25:06.248Z</time></trkpt><trkpt lat="43.3084339" lon="13.1325229"><ele>571.6</ele><time>2026-04-19T11:25:08.248Z</time></trkpt><trkpt lat="43.3084896" lon="13.1325765"><ele>571.8000000000001</ele><time>2026-04-19T11:25:09.249Z</time></trkpt><trkpt lat="43.3085452" lon="13.1326372"><ele>572.0</ele><time>2026-04-19T11:25:10.249Z</time></trkpt><trkpt lat="43.3086144" lon="13.1326983"><ele>571.9999999999999</ele><time>2026-04-19T11:25:11.249Z</time></trkpt><trkpt lat="43.3086672" lon="13.1327555"><ele>572.0</ele><time>2026-04-19T11:25:12.249Z</time></trkpt><trkpt lat="43.3087282" lon="13.1328083"><ele>572.0</ele><time>2026-04-19T11:25:13.249Z</time></trkpt><trkpt lat="43.3087903" lon="13.1328621"><ele>572.0</ele><time>2026-04-19T11:25:14.248Z</time></trkpt><trkpt lat="43.3088576" lon="13.1329057"><ele>572.0</ele><time>2026-04-19T11:25:15.248Z</time></trkpt><trkpt lat="43.3089188" lon="13.1329494"><ele>571.9999999999999</ele><time>2026-04-19T11:25:16.249Z</time></trkpt><trkpt lat="43.3089832" lon="13.1329864"><ele>572.0</ele><time>2026-04-19T11:25:17.248Z</time></trkpt><trkpt lat="43.3090403" lon="13.1330405"><ele>574.1666666666666</ele><time>2026-04-19T11:25:18.248Z</time></trkpt><trkpt lat="43.3091097" lon="13.1330776"><ele>576.3333333333333</ele><time>2026-04-19T11:25:19.249Z</time></trkpt><trkpt lat="43.3091659" lon="13.1331338"><ele>578.5</ele><time>2026-04-19T11:25:20.249Z</time></trkpt><trkpt lat="43.3092273" lon="13.1331797"><ele>580.6666666666666</ele><time>2026-04-19T11:25:21.249Z</time></trkpt><trkpt lat="43.3092939" lon="13.1332129"><ele>582.8333333333334</ele><time>2026-04-19T11:25:22.249Z</time></trkpt><trkpt lat="43.3094293" lon="13.1332401"><ele>585.0</ele><time>2026-04-19T11:25:24.248Z</time></trkpt><trkpt lat="43.3094927" lon="13.1332539"><ele>580.6666666666666</ele><time>2026-04-19T11:25:25.249Z</time></trkpt><trkpt lat="43.3095634" lon="13.1332485"><ele>576.3333333333334</ele><time>2026-04-19T11:25:26.249Z</time></trkpt><trkpt lat="43.3096474" lon="13.1332709"><ele>572.0</ele><time>2026-04-19T11:25:28.248Z</time></trkpt><trkpt lat="43.3097348" lon="13.1332861"><ele>567.6666666666667</ele><time>2026-04-19T11:25:30.249Z</time></trkpt><trkpt lat="43.3098177" lon="13.1333089"><ele>563.3333333333334</ele><time>2026-04-19T11:25:32.248Z</time></trkpt><trkpt lat="43.3099116" lon="13.1333013"><ele>559.0</ele><time>2026-04-19T11:25:34.249Z</time></trkpt><trkpt lat="43.3099924" lon="13.1332802"><ele>559.0</ele><time>2026-04-19T11:25:36.249Z</time></trkpt><trkpt lat="43.3100617" lon="13.1332414"><ele>559.0</ele><time>2026-04-19T11:25:39.249Z</time></trkpt><trkpt lat="43.3101009" lon="13.1331625"><ele>559.0</ele><time>2026-04-19T11:25:45.248Z</time></trkpt><trkpt lat="43.3101499" lon="13.1330705"><ele>559.0</ele><time>2026-04-19T11:25:55.248Z</time></trkpt><trkpt lat="43.3101887" lon="13.1329785"><ele>559.0</ele><time>2026-04-19T11:25:58.247Z</time></trkpt><trkpt lat="43.3102297" lon="13.1328903"><ele>559.0</ele><time>2026-04-19T11:26:01.247Z</time></trkpt><trkpt lat="43.3102726" lon="13.1327949"><ele>562.0</ele><time>2026-04-19T11:26:04.247Z</time></trkpt><trkpt lat="43.3103165" lon="13.1326914"><ele>565.0</ele><time>2026-04-19T11:26:07.248Z</time></trkpt><trkpt lat="43.3103415" lon="13.1325524"><ele>568.0</ele><time>2026-04-19T11:26:09.248Z</time></trkpt><trkpt lat="43.3103874" lon="13.1324155"><ele>571.0</ele><time>2026-04-19T11:26:11.248Z</time></trkpt><trkpt lat="43.3104245" lon="13.1323057"><ele>574.0</ele><time>2026-04-19T11:26:13.248Z</time></trkpt><trkpt lat="43.310457" lon="13.1321677"><ele>574.6666666666667</ele><time>2026-04-19T11:26:15.247Z</time></trkpt><trkpt lat="43.3104738" lon="13.1320442"><ele>575.3333333333334</ele><time>2026-04-19T11:26:17.248Z</time></trkpt><trkpt lat="43.3104705" lon="13.1318785"><ele>576.0</ele><time>2026-04-19T11:26:19.248Z</time></trkpt><trkpt lat="43.3104675" lon="13.1317837"><ele>576.6666666666666</ele><time>2026-04-19T11:26:20.246Z</time></trkpt><trkpt lat="43.3104772" lon="13.1316828"><ele>577.3333333333333</ele><time>2026-04-19T11:26:21.247Z</time></trkpt><trkpt lat="43.3105047" lon="13.1316014"><ele>578.0</ele><time>2026-04-19T11:26:22.247Z</time></trkpt><trkpt lat="43.3106058" lon="13.1315137"><ele>574.4285714285714</ele><time>2026-04-19T11:26:24.247Z</time></trkpt><trkpt lat="43.3106701" lon="13.1314766"><ele>570.8571428571429</ele><time>2026-04-19T11:26:25.246Z</time></trkpt><trkpt lat="43.3107264" lon="13.131435"><ele>567.2857142857142</ele><time>2026-04-19T11:26:26.247Z</time></trkpt><trkpt lat="43.3107964" lon="13.1313952"><ele>563.7142857142858</ele><time>2026-04-19T11:26:27.247Z</time></trkpt><trkpt lat="43.3108593" lon="13.1313557"><ele>560.1428571428571</ele><time>2026-04-19T11:26:28.248Z</time></trkpt><trkpt lat="43.3109411" lon="13.1313325"><ele>556.5714285714286</ele><time>2026-04-19T11:26:29.247Z</time></trkpt><trkpt lat="43.3110107" lon="13.1313228"><ele>553.0</ele><time>2026-04-19T11:26:30.246Z</time></trkpt><trkpt lat="43.3110801" lon="13.1313198"><ele>553.0</ele><time>2026-04-19T11:26:31.248Z</time></trkpt><trkpt lat="43.3111487" lon="13.1313146"><ele>553.0</ele><time>2026-04-19T11:26:32.247Z</time></trkpt><trkpt lat="43.3112192" lon="13.1313177"><ele>553.0</ele><time>2026-04-19T11:26:33.248Z</time></trkpt><trkpt lat="43.3112841" lon="13.1313101"><ele>553.0</ele><time>2026-04-19T11:26:34.248Z</time></trkpt><trkpt lat="43.3113483" lon="13.1313015"><ele>553.0</ele><time>2026-04-19T11:26:35.248Z</time></trkpt><trkpt lat="43.3114159" lon="13.1312922"><ele>553.0</ele><time>2026-04-19T11:26:36.247Z</time></trkpt><trkpt lat="43.3115354" lon="13.1312735"><ele>551.0</ele><time>2026-04-19T11:26:38.247Z</time></trkpt><trkpt lat="43.3116041" lon="13.1312678"><ele>549.0</ele><time>2026-04-19T11:26:39.247Z</time></trkpt><trkpt lat="43.3116729" lon="13.1312826"><ele>547.0</ele><time>2026-04-19T11:26:40.248Z</time></trkpt><trkpt lat="43.3117389" lon="13.1312976"><ele>545.0</ele><time>2026-04-19T11:26:41.248Z</time></trkpt><trkpt lat="43.3118042" lon="13.1313125"><ele>543.0</ele><time>2026-04-19T11:26:42.247Z</time></trkpt><trkpt lat="43.3119177" lon="13.1313575"><ele>541.0</ele><time>2026-04-19T11:26:44.248Z</time></trkpt><trkpt lat="43.3120114" lon="13.1314775"><ele>539.4</ele><time>2026-04-19T11:26:46.248Z</time></trkpt><trkpt lat="43.3120315" lon="13.131582"><ele>537.8</ele><time>2026-04-19T11:26:47.248Z</time></trkpt><trkpt lat="43.3120585" lon="13.1316989"><ele>536.1999999999999</ele><time>2026-04-19T11:26:48.248Z</time></trkpt><trkpt lat="43.3120645" lon="13.1318294"><ele>534.6</ele><time>2026-04-19T11:26:49.248Z</time></trkpt><trkpt lat="43.3120787" lon="13.1319792"><ele>533.0</ele><time>2026-04-19T11:26:50.248Z</time></trkpt><trkpt lat="43.3120917" lon="13.1320944"><ele>533.0</ele><time>2026-04-19T11:26:51.246Z</time></trkpt><trkpt lat="43.3121019" lon="13.1321929"><ele>533.0</ele><time>2026-04-19T11:26:52.248Z</time></trkpt><trkpt lat="43.3121085" lon="13.1322842"><ele>533.0</ele><time>2026-04-19T11:26:53.247Z</time></trkpt><trkpt lat="43.3121403" lon="13.1324189"><ele>533.0</ele><time>2026-04-19T11:26:55.248Z</time></trkpt><trkpt lat="43.3122208" lon="13.1325221"><ele>533.0</ele><time>2026-04-19T11:26:57.248Z</time></trkpt><trkpt lat="43.3122842" lon="13.1325194"><ele>533.0</ele><time>2026-04-19T11:26:59.247Z</time></trkpt><trkpt lat="43.3123843" lon="13.1324736"><ele>534.5</ele><time>2026-04-19T11:27:01.248Z</time></trkpt><trkpt lat="43.3125198" lon="13.1324751"><ele>536.0</ele><time>2026-04-19T11:27:03.247Z</time></trkpt><trkpt lat="43.3125928" lon="13.1324787"><ele>537.5</ele><time>2026-04-19T11:27:04.248Z</time></trkpt><trkpt lat="43.3127112" lon="13.132469"><ele>539.0</ele><time>2026-04-19T11:27:06.248Z</time></trkpt><trkpt lat="43.3128417" lon="13.1324725"><ele>539.0</ele><time>2026-04-19T11:27:08.248Z</time></trkpt><trkpt lat="43.312913" lon="13.1324676"><ele>539.0</ele><time>2026-04-19T11:27:09.248Z</time></trkpt><trkpt lat="43.3129832" lon="13.1324729"><ele>539.0</ele><time>2026-04-19T11:27:10.247Z</time></trkpt><trkpt lat="43.3130476" lon="13.1324693"><ele>539.0</ele><time>2026-04-19T11:27:11.246Z</time></trkpt><trkpt lat="43.3131235" lon="13.1324542"><ele>539.0</ele><time>2026-04-19T11:27:12.247Z</time></trkpt><trkpt lat="43.3132416" lon="13.1324347"><ele>539.0</ele><time>2026-04-19T11:27:14.247Z</time></trkpt><trkpt lat="43.3133164" lon="13.1324084"><ele>539.4285714285714</ele><time>2026-04-19T11:27:15.247Z</time></trkpt><trkpt lat="43.3133813" lon="13.1323945"><ele>539.8571428571429</ele><time>2026-04-19T11:27:16.248Z</time></trkpt><trkpt lat="43.3134477" lon="13.1323766"><ele>540.2857142857142</ele><time>2026-04-19T11:27:17.248Z</time></trkpt><trkpt lat="43.3135174" lon="13.1323777"><ele>540.7142857142858</ele><time>2026-04-19T11:27:18.247Z</time></trkpt><trkpt lat="43.3135873" lon="13.1323705"><ele>541.1428571428571</ele><time>2026-04-19T11:27:19.248Z</time></trkpt><trkpt lat="43.3136582" lon="13.1323625"><ele>541.5714285714286</ele><time>2026-04-19T11:27:20.248Z</time></trkpt><trkpt lat="43.3137396" lon="13.1323429"><ele>542.0</ele><time>2026-04-19T11:27:21.248Z</time></trkpt><trkpt lat="43.3138179" lon="13.1323155"><ele>542.1666666666666</ele><time>2026-04-19T11:27:22.248Z</time></trkpt><trkpt lat="43.3138855" lon="13.1322858"><ele>542.3333333333333</ele><time>2026-04-19T11:27:23.248Z</time></trkpt><trkpt lat="43.3139578" lon="13.1322551"><ele>542.5</ele><time>2026-04-19T11:27:24.248Z</time></trkpt><trkpt lat="43.314075" lon="13.1322758"><ele>542.6666666666666</ele><time>2026-04-19T11:27:26.247Z</time></trkpt><trkpt lat="43.3141309" lon="13.1323252"><ele>542.8333333333334</ele><time>2026-04-19T11:27:27.247Z</time></trkpt><trkpt lat="43.3141828" lon="13.1323905"><ele>543.0</ele><time>2026-04-19T11:27:28.247Z</time></trkpt><trkpt lat="43.3142296" lon="13.1324554"><ele>543.0</ele><time>2026-04-19T11:27:29.248Z</time></trkpt><trkpt lat="43.3143157" lon="13.1325764"><ele>543.0</ele><time>2026-04-19T11:27:31.247Z</time></trkpt><trkpt lat="43.314363" lon="13.1326455"><ele>543.0</ele><time>2026-04-19T11:27:32.247Z</time></trkpt><trkpt lat="43.3144229" lon="13.1327575"><ele>543.0</ele><time>2026-04-19T11:27:34.248Z</time></trkpt><trkpt lat="43.3144782" lon="13.1328449"><ele>543.0</ele><time>2026-04-19T11:27:36.248Z</time></trkpt><trkpt lat="43.314577" lon="13.1328583"><ele>543.0</ele><time>2026-04-19T11:27:38.248Z</time></trkpt><trkpt lat="43.3146467" lon="13.1328398"><ele>543.0</ele><time>2026-04-19T11:27:39.247Z</time></trkpt><trkpt lat="43.3147437" lon="13.1327851"><ele>543.0</ele><time>2026-04-19T11:27:41.246Z</time></trkpt><trkpt lat="43.3148607" lon="13.1327383"><ele>543.0</ele><time>2026-04-19T11:27:43.247Z</time></trkpt><trkpt lat="43.3149844" lon="13.1326931"><ele>543.0</ele><time>2026-04-19T11:27:45.248Z</time></trkpt><trkpt lat="43.3150837" lon="13.1326712"><ele>541.6666666666666</ele><time>2026-04-19T11:27:47.247Z</time></trkpt><trkpt lat="43.3151746" lon="13.1326713"><ele>540.3333333333334</ele><time>2026-04-19T11:27:49.248Z</time></trkpt><trkpt lat="43.3152613" lon="13.1326663"><ele>539.0</ele><time>2026-04-19T11:27:51.248Z</time></trkpt><trkpt lat="43.3153252" lon="13.1326679"><ele>537.6666666666667</ele><time>2026-04-19T11:27:53.247Z</time></trkpt><trkpt lat="43.3153961" lon="13.1326479"><ele>536.3333333333334</ele><time>2026-04-19T11:27:57.248Z</time></trkpt><trkpt lat="43.3154674" lon="13.1326311"><ele>535.0</ele><time>2026-04-19T11:28:00.248Z</time></trkpt><trkpt lat="43.3155369" lon="13.1326314"><ele>532.6666666666667</ele><time>2026-04-19T11:28:02.248Z</time></trkpt><trkpt lat="43.3156175" lon="13.1326342"><ele>530.3333333333334</ele><time>2026-04-19T11:28:04.247Z</time></trkpt><trkpt lat="43.3157086" lon="13.1326126"><ele>528.0</ele><time>2026-04-19T11:28:06.247Z</time></trkpt><trkpt lat="43.3157822" lon="13.1325641"><ele>525.6666666666666</ele><time>2026-04-19T11:28:08.248Z</time></trkpt><trkpt lat="43.3158652" lon="13.1325316"><ele>523.3333333333333</ele><time>2026-04-19T11:28:10.247Z</time></trkpt><trkpt lat="43.3159477" lon="13.1325164"><ele>521.0</ele><time>2026-04-19T11:28:12.248Z</time></trkpt><trkpt lat="43.3160494" lon="13.1324857"><ele>521.0</ele><time>2026-04-19T11:28:14.247Z</time></trkpt><trkpt lat="43.3161724" lon="13.1324774"><ele>521.0</ele><time>2026-04-19T11:28:16.248Z</time></trkpt><trkpt lat="43.3162846" lon="13.1324791"><ele>521.0</ele><time>2026-04-19T11:28:18.248Z</time></trkpt><trkpt lat="43.3163431" lon="13.1325162"><ele>521.0</ele><time>2026-04-19T11:28:20.248Z</time></trkpt><trkpt lat="43.3164128" lon="13.1325753"><ele>521.0</ele><time>2026-04-19T11:28:23.248Z</time></trkpt><trkpt lat="43.3165005" lon="13.1325829"><ele>519.5</ele><time>2026-04-19T11:28:26.246Z</time></trkpt><trkpt lat="43.316578" lon="13.1325208"><ele>518.0</ele><time>2026-04-19T11:28:28.247Z</time></trkpt><trkpt lat="43.3166576" lon="13.1324605"><ele>516.5</ele><time>2026-04-19T11:28:30.247Z</time></trkpt><trkpt lat="43.316725" lon="13.1324208"><ele>515.0</ele><time>2026-04-19T11:28:32.247Z</time></trkpt><trkpt lat="43.3167997" lon="13.1323894"><ele>513.5</ele><time>2026-04-19T11:28:34.248Z</time></trkpt><trkpt lat="43.3168775" lon="13.1323623"><ele>512.0</ele><time>2026-04-19T11:28:36.247Z</time></trkpt><trkpt lat="43.3169969" lon="13.1322924"><ele>512.0</ele><time>2026-04-19T11:28:38.248Z</time></trkpt><trkpt lat="43.3170886" lon="13.1322127"><ele>512.0</ele><time>2026-04-19T11:28:39.248Z</time></trkpt><trkpt lat="43.3171816" lon="13.1321284"><ele>512.0</ele><time>2026-04-19T11:28:40.246Z</time></trkpt><trkpt lat="43.3172809" lon="13.1320496"><ele>512.0</ele><time>2026-04-19T11:28:41.247Z</time></trkpt><trkpt lat="43.317372" lon="13.1319698"><ele>512.0</ele><time>2026-04-19T11:28:42.247Z</time></trkpt><trkpt lat="43.3174453" lon="13.1318785"><ele>509.40000000000003</ele><time>2026-04-19T11:28:43.247Z</time></trkpt><trkpt lat="43.3175014" lon="13.1317734"><ele>506.80000000000007</ele><time>2026-04-19T11:28:44.247Z</time></trkpt><trkpt lat="43.3175374" lon="13.131653"><ele>504.2</ele><time>2026-04-19T11:28:45.248Z</time></trkpt><trkpt lat="43.3175428" lon="13.1315194"><ele>501.6</ele><time>2026-04-19T11:28:46.248Z</time></trkpt><trkpt lat="43.3175337" lon="13.1313754"><ele>499.0</ele><time>2026-04-19T11:28:47.247Z</time></trkpt><trkpt lat="43.3175313" lon="13.1312262"><ele>499.0</ele><time>2026-04-19T11:28:48.248Z</time></trkpt><trkpt lat="43.3175432" lon="13.1310724"><ele>499.0</ele><time>2026-04-19T11:28:49.248Z</time></trkpt><trkpt lat="43.3175743" lon="13.1309274"><ele>499.0</ele><time>2026-04-19T11:28:50.247Z</time></trkpt><trkpt lat="43.3176257" lon="13.1307893"><ele>499.0</ele><time>2026-04-19T11:28:51.247Z</time></trkpt><trkpt lat="43.3176987" lon="13.1306781"><ele>499.0</ele><time>2026-04-19T11:28:52.246Z</time></trkpt><trkpt lat="43.3177866" lon="13.1305929"><ele>499.6</ele><time>2026-04-19T11:28:53.248Z</time></trkpt><trkpt lat="43.3178882" lon="13.1305443"><ele>500.2</ele><time>2026-04-19T11:28:54.248Z</time></trkpt><trkpt lat="43.3179985" lon="13.1305217"><ele>500.80000000000007</ele><time>2026-04-19T11:28:55.248Z</time></trkpt><trkpt lat="43.3181069" lon="13.1305205"><ele>501.40000000000003</ele><time>2026-04-19T11:28:56.248Z</time></trkpt><trkpt lat="43.3182188" lon="13.1305387"><ele>502.0</ele><time>2026-04-19T11:28:57.248Z</time></trkpt><trkpt lat="43.3183288" lon="13.1305709"><ele>502.0</ele><time>2026-04-19T11:28:58.248Z</time></trkpt><trkpt lat="43.3184319" lon="13.1306214"><ele>502.00000000000006</ele><time>2026-04-19T11:28:59.247Z</time></trkpt><trkpt lat="43.3185351" lon="13.1306769"><ele>502.00000000000006</ele><time>2026-04-19T11:29:00.248Z</time></trkpt><trkpt lat="43.3186399" lon="13.130729"><ele>502.0</ele><time>2026-04-19T11:29:01.248Z</time></trkpt><trkpt lat="43.3187414" lon="13.1307846"><ele>502.0</ele><time>2026-04-19T11:29:02.248Z</time></trkpt><trkpt lat="43.3188424" lon="13.1308397"><ele>502.5</ele><time>2026-04-19T11:29:03.248Z</time></trkpt><trkpt lat="43.318942" lon="13.1309104"><ele>503.0</ele><time>2026-04-19T11:29:04.248Z</time></trkpt><trkpt lat="43.3190421" lon="13.1310141"><ele>503.5</ele><time>2026-04-19T11:29:05.248Z</time></trkpt><trkpt lat="43.3191285" lon="13.1311468"><ele>504.0</ele><time>2026-04-19T11:29:06.248Z</time></trkpt><trkpt lat="43.3192055" lon="13.1313009"><ele>504.0</ele><time>2026-04-19T11:29:07.248Z</time></trkpt><trkpt lat="43.3192895" lon="13.1314583"><ele>504.0</ele><time>2026-04-19T11:29:08.248Z</time></trkpt><trkpt lat="43.3193692" lon="13.1316167"><ele>504.0</ele><time>2026-04-19T11:29:09.248Z</time></trkpt><trkpt lat="43.3194454" lon="13.1317707"><ele>504.0</ele><time>2026-04-19T11:29:10.247Z</time></trkpt><trkpt lat="43.3195242" lon="13.1319285"><ele>502.0</ele><time>2026-04-19T11:29:11.248Z</time></trkpt><trkpt lat="43.3196043" lon="13.1320895"><ele>500.0</ele><time>2026-04-19T11:29:12.247Z</time></trkpt><trkpt lat="43.3196874" lon="13.1322554"><ele>498.0</ele><time>2026-04-19T11:29:13.248Z</time></trkpt><trkpt lat="43.3197701" lon="13.1324225"><ele>496.0</ele><time>2026-04-19T11:29:14.248Z</time></trkpt><trkpt lat="43.3198458" lon="13.1325777"><ele>496.0</ele><time>2026-04-19T11:29:15.247Z</time></trkpt><trkpt lat="43.3199206" lon="13.1327218"><ele>496.0</ele><time>2026-04-19T11:29:16.248Z</time></trkpt><trkpt lat="43.3199987" lon="13.1328459"><ele>496.0</ele><time>2026-04-19T11:29:17.247Z</time></trkpt><trkpt lat="43.3200882" lon="13.1329447"><ele>496.0</ele><time>2026-04-19T11:29:18.247Z</time></trkpt><trkpt lat="43.320191" lon="13.1330153"><ele>496.0</ele><time>2026-04-19T11:29:19.247Z</time></trkpt><trkpt lat="43.3203057" lon="13.1330579"><ele>496.0</ele><time>2026-04-19T11:29:20.247Z</time></trkpt><trkpt lat="43.3204292" lon="13.1330728"><ele>496.0</ele><time>2026-04-19T11:29:21.248Z</time></trkpt><trkpt lat="43.3205583" lon="13.133075"><ele>496.0</ele><time>2026-04-19T11:29:22.247Z</time></trkpt><trkpt lat="43.3206915" lon="13.1330792"><ele>496.25</ele><time>2026-04-19T11:29:23.247Z</time></trkpt><trkpt lat="43.3208278" lon="13.1330844"><ele>496.5</ele><time>2026-04-19T11:29:24.248Z</time></trkpt><trkpt lat="43.320961" lon="13.1330924"><ele>496.75</ele><time>2026-04-19T11:29:25.248Z</time></trkpt><trkpt lat="43.3210882" lon="13.1330952"><ele>497.0</ele><time>2026-04-19T11:29:26.247Z</time></trkpt><trkpt lat="43.3212111" lon="13.1330695"><ele>497.0</ele><time>2026-04-19T11:29:27.247Z</time></trkpt><trkpt lat="43.3213306" lon="13.1330091"><ele>497.0</ele><time>2026-04-19T11:29:28.248Z</time></trkpt><trkpt lat="43.3214419" lon="13.1329117"><ele>497.0</ele><time>2026-04-19T11:29:29.247Z</time></trkpt><trkpt lat="43.3215435" lon="13.132792"><ele>497.0</ele><time>2026-04-19T11:29:30.248Z</time></trkpt><trkpt lat="43.3216454" lon="13.1326648"><ele>496.0</ele><time>2026-04-19T11:29:31.248Z</time></trkpt><trkpt lat="43.3217476" lon="13.1325339"><ele>495.0</ele><time>2026-04-19T11:29:32.248Z</time></trkpt><trkpt lat="43.3218534" lon="13.1324048"><ele>494.0</ele><time>2026-04-19T11:29:33.247Z</time></trkpt><trkpt lat="43.3219589" lon="13.1322742"><ele>493.0</ele><time>2026-04-19T11:29:34.247Z</time></trkpt><trkpt lat="43.322063" lon="13.1321447"><ele>493.0</ele><time>2026-04-19T11:29:35.248Z</time></trkpt><trkpt lat="43.3221651" lon="13.1320189"><ele>493.0</ele><time>2026-04-19T11:29:36.248Z</time></trkpt><trkpt lat="43.3222586" lon="13.1318929"><ele>493.0</ele><time>2026-04-19T11:29:37.247Z</time></trkpt><trkpt lat="43.3223427" lon="13.131759"><ele>493.0</ele><time>2026-04-19T11:29:38.247Z</time></trkpt><trkpt lat="43.3224123" lon="13.1316074"><ele>490.0</ele><time>2026-04-19T11:29:39.247Z</time></trkpt><trkpt lat="43.3224738" lon="13.1314403"><ele>487.0</ele><time>2026-04-19T11:29:40.248Z</time></trkpt><trkpt lat="43.3225348" lon="13.131265"><ele>484.0</ele><time>2026-04-19T11:29:41.248Z</time></trkpt><trkpt lat="43.3226019" lon="13.131089"><ele>481.0</ele><time>2026-04-19T11:29:42.248Z</time></trkpt><trkpt lat="43.3226687" lon="13.1309078"><ele>481.0</ele><time>2026-04-19T11:29:43.247Z</time></trkpt><trkpt lat="43.3227407" lon="13.1307288"><ele>481.0</ele><time>2026-04-19T11:29:44.247Z</time></trkpt><trkpt lat="43.3228167" lon="13.1305485"><ele>481.0</ele><time>2026-04-19T11:29:45.246Z</time></trkpt><trkpt lat="43.3228949" lon="13.1303648"><ele>480.5</ele><time>2026-04-19T11:29:46.248Z</time></trkpt><trkpt lat="43.3229938" lon="13.1302107"><ele>480.0</ele><time>2026-04-19T11:29:47.248Z</time></trkpt><trkpt lat="43.323114" lon="13.1301103"><ele>479.5</ele><time>2026-04-19T11:29:48.247Z</time></trkpt><trkpt lat="43.3232513" lon="13.1300432"><ele>479.0</ele><time>2026-04-19T11:29:49.247Z</time></trkpt><trkpt lat="43.3233948" lon="13.129988"><ele>478.25</ele><time>2026-04-19T11:29:50.246Z</time></trkpt><trkpt lat="43.3235291" lon="13.1299264"><ele>477.5</ele><time>2026-04-19T11:29:51.248Z</time></trkpt><trkpt lat="43.3236583" lon="13.1298631"><ele>476.75</ele><time>2026-04-19T11:29:52.248Z</time></trkpt><trkpt lat="43.3237763" lon="13.1297767"><ele>476.0</ele><time>2026-04-19T11:29:53.248Z</time></trkpt><trkpt lat="43.3238782" lon="13.1296692"><ele>474.0</ele><time>2026-04-19T11:29:54.248Z</time></trkpt><trkpt lat="43.3239556" lon="13.1295274"><ele>472.0</ele><time>2026-04-19T11:29:55.247Z</time></trkpt><trkpt lat="43.3240077" lon="13.1293479"><ele>470.0</ele><time>2026-04-19T11:29:56.248Z</time></trkpt><trkpt lat="43.3240407" lon="13.1291414"><ele>468.0</ele><time>2026-04-19T11:29:57.247Z</time></trkpt><trkpt lat="43.3240588" lon="13.1289078"><ele>466.0</ele><time>2026-04-19T11:29:58.247Z</time></trkpt><trkpt lat="43.3240649" lon="13.1286542"><ele>464.0</ele><time>2026-04-19T11:29:59.248Z</time></trkpt><trkpt lat="43.3240614" lon="13.1283867"><ele>462.0</ele><time>2026-04-19T11:30:00.248Z</time></trkpt><trkpt lat="43.3240569" lon="13.1281167"><ele>461.33333333333337</ele><time>2026-04-19T11:30:01.247Z</time></trkpt><trkpt lat="43.3240511" lon="13.1278472"><ele>460.6666666666667</ele><time>2026-04-19T11:30:02.248Z</time></trkpt><trkpt lat="43.3240486" lon="13.1275893"><ele>460.0</ele><time>2026-04-19T11:30:03.248Z</time></trkpt><trkpt lat="43.3240473" lon="13.1273378"><ele>460.0</ele><time>2026-04-19T11:30:04.247Z</time></trkpt><trkpt lat="43.3240487" lon="13.127097"><ele>460.0</ele><time>2026-04-19T11:30:05.247Z</time></trkpt><trkpt lat="43.3240487" lon="13.1268669"><ele>460.0</ele><time>2026-04-19T11:30:06.246Z</time></trkpt><trkpt lat="43.3240482" lon="13.1266636"><ele>459.25</ele><time>2026-04-19T11:30:07.248Z</time></trkpt><trkpt lat="43.3240508" lon="13.1264671"><ele>458.5</ele><time>2026-04-19T11:30:08.248Z</time></trkpt><trkpt lat="43.3240721" lon="13.1262854"><ele>457.75</ele><time>2026-04-19T11:30:09.248Z</time></trkpt><trkpt lat="43.3241211" lon="13.1261254"><ele>457.0</ele><time>2026-04-19T11:30:10.248Z</time></trkpt><trkpt lat="43.3241977" lon="13.1260019"><ele>457.0</ele><time>2026-04-19T11:30:11.248Z</time></trkpt><trkpt lat="43.3242957" lon="13.1259242"><ele>457.0</ele><time>2026-04-19T11:30:12.248Z</time></trkpt><trkpt lat="43.3244035" lon="13.1258967"><ele>457.0</ele><time>2026-04-19T11:30:13.248Z</time></trkpt><trkpt lat="43.3245116" lon="13.1259118"><ele>457.0</ele><time>2026-04-19T11:30:14.248Z</time></trkpt><trkpt lat="43.3246256" lon="13.1259806"><ele>457.0</ele><time>2026-04-19T11:30:15.248Z</time></trkpt><trkpt lat="43.3247376" lon="13.1260977"><ele>457.0</ele><time>2026-04-19T11:30:16.248Z</time></trkpt><trkpt lat="43.3248453" lon="13.1262351"><ele>457.0</ele><time>2026-04-19T11:30:17.247Z</time></trkpt><trkpt lat="43.3249513" lon="13.126376"><ele>457.0</ele><time>2026-04-19T11:30:18.247Z</time></trkpt><trkpt lat="43.3250638" lon="13.1265239"><ele>456.75</ele><time>2026-04-19T11:30:19.247Z</time></trkpt><trkpt lat="43.3251782" lon="13.126659"><ele>456.5</ele><time>2026-04-19T11:30:20.248Z</time></trkpt><trkpt lat="43.3252942" lon="13.1267751"><ele>456.25</ele><time>2026-04-19T11:30:21.247Z</time></trkpt><trkpt lat="43.3254219" lon="13.1268519"><ele>456.0</ele><time>2026-04-19T11:30:22.248Z</time></trkpt><trkpt lat="43.3255673" lon="13.1268869"><ele>456.0</ele><time>2026-04-19T11:30:23.248Z</time></trkpt><trkpt lat="43.3257312" lon="13.1268678"><ele>456.0</ele><time>2026-04-19T11:30:24.248Z</time></trkpt><trkpt lat="43.3259008" lon="13.1268103"><ele>456.0</ele><time>2026-04-19T11:30:25.248Z</time></trkpt><trkpt lat="43.3260761" lon="13.1267368"><ele>456.0</ele><time>2026-04-19T11:30:26.248Z</time></trkpt><trkpt lat="43.3262534" lon="13.126644"><ele>456.0</ele><time>2026-04-19T11:30:27.247Z</time></trkpt><trkpt lat="43.3264277" lon="13.1265321"><ele>456.0</ele><time>2026-04-19T11:30:28.248Z</time></trkpt><trkpt lat="43.3266012" lon="13.1264111"><ele>460.0</ele><time>2026-04-19T11:30:29.248Z</time></trkpt><trkpt lat="43.3267725" lon="13.1262869"><ele>464.0</ele><time>2026-04-19T11:30:30.248Z</time></trkpt><trkpt lat="43.3269455" lon="13.1261644"><ele>468.0</ele><time>2026-04-19T11:30:31.248Z</time></trkpt><trkpt lat="43.3271139" lon="13.1260479"><ele>470.66666666666663</ele><time>2026-04-19T11:30:32.248Z</time></trkpt><trkpt lat="43.3272754" lon="13.1259369"><ele>473.3333333333333</ele><time>2026-04-19T11:30:33.247Z</time></trkpt><trkpt lat="43.3274242" lon="13.125833"><ele>476.0</ele><time>2026-04-19T11:30:34.247Z</time></trkpt><trkpt lat="43.3275645" lon="13.1257299"><ele>479.0</ele><time>2026-04-19T11:30:35.248Z</time></trkpt><trkpt lat="43.3276945" lon="13.1256152"><ele>482.0</ele><time>2026-04-19T11:30:36.248Z</time></trkpt><trkpt lat="43.3278151" lon="13.1254871"><ele>485.0</ele><time>2026-04-19T11:30:37.248Z</time></trkpt><trkpt lat="43.3279268" lon="13.1253451"><ele>485.0</ele><time>2026-04-19T11:30:38.248Z</time></trkpt><trkpt lat="43.3280273" lon="13.1251799"><ele>485.0</ele><time>2026-04-19T11:30:39.248Z</time></trkpt><trkpt lat="43.3281144" lon="13.125001"><ele>485.0</ele><time>2026-04-19T11:30:40.248Z</time></trkpt><trkpt lat="43.328193" lon="13.1248102"><ele>481.66666666666663</ele><time>2026-04-19T11:30:41.247Z</time></trkpt><trkpt lat="43.328265" lon="13.1246106"><ele>478.33333333333337</ele><time>2026-04-19T11:30:42.247Z</time></trkpt><trkpt lat="43.3283219" lon="13.1244031"><ele>475.0</ele><time>2026-04-19T11:30:43.247Z</time></trkpt><trkpt lat="43.3283681" lon="13.1241919"><ele>476.6666666666667</ele><time>2026-04-19T11:30:44.247Z</time></trkpt><trkpt lat="43.3284111" lon="13.1239787"><ele>478.33333333333337</ele><time>2026-04-19T11:30:45.248Z</time></trkpt><trkpt lat="43.3284535" lon="13.1237664"><ele>480.0</ele><time>2026-04-19T11:30:46.248Z</time></trkpt><trkpt lat="43.3284983" lon="13.1235531"><ele>480.0</ele><time>2026-04-19T11:30:47.248Z</time></trkpt><trkpt lat="43.3285524" lon="13.1233379"><ele>480.0</ele><time>2026-04-19T11:30:48.248Z</time></trkpt><trkpt lat="43.328624" lon="13.1231287"><ele>480.0</ele><time>2026-04-19T11:30:49.248Z</time></trkpt><trkpt lat="43.3287134" lon="13.1229372"><ele>479.33333333333337</ele><time>2026-04-19T11:30:50.247Z</time></trkpt><trkpt lat="43.3288109" lon="13.1227584"><ele>478.6666666666667</ele><time>2026-04-19T11:30:51.247Z</time></trkpt><trkpt lat="43.328913" lon="13.1225806"><ele>478.0</ele><time>2026-04-19T11:30:52.248Z</time></trkpt><trkpt lat="43.3290202" lon="13.1224053"><ele>480.0</ele><time>2026-04-19T11:30:53.247Z</time></trkpt><trkpt lat="43.3291324" lon="13.1222338"><ele>482.0</ele><time>2026-04-19T11:30:54.248Z</time></trkpt><trkpt lat="43.329245" lon="13.1220648"><ele>484.0</ele><time>2026-04-19T11:30:55.247Z</time></trkpt><trkpt lat="43.329355" lon="13.1219021"><ele>484.0</ele><time>2026-04-19T11:30:56.248Z</time></trkpt><trkpt lat="43.3294588" lon="13.1217498"><ele>484.0</ele><time>2026-04-19T11:30:57.247Z</time></trkpt><trkpt lat="43.3295583" lon="13.1216083"><ele>484.0</ele><time>2026-04-19T11:30:58.248Z</time></trkpt><trkpt lat="43.3296565" lon="13.1214752"><ele>484.0</ele><time>2026-04-19T11:30:59.248Z</time></trkpt><trkpt lat="43.3297613" lon="13.1213401"><ele>484.0</ele><time>2026-04-19T11:31:00.248Z</time></trkpt><trkpt lat="43.3298747" lon="13.1212132"><ele>484.0</ele><time>2026-04-19T11:31:01.248Z</time></trkpt><trkpt lat="43.3299987" lon="13.1211001"><ele>484.0</ele><time>2026-04-19T11:31:02.246Z</time></trkpt><trkpt lat="43.330132" lon="13.1210029"><ele>484.0</ele><time>2026-04-19T11:31:03.247Z</time></trkpt><trkpt lat="43.3302727" lon="13.1209218"><ele>484.0</ele><time>2026-04-19T11:31:04.247Z</time></trkpt><trkpt lat="43.3304174" lon="13.1208494"><ele>484.0</ele><time>2026-04-19T11:31:05.247Z</time></trkpt><trkpt lat="43.3305577" lon="13.1207788"><ele>484.0</ele><time>2026-04-19T11:31:06.248Z</time></trkpt><trkpt lat="43.3306975" lon="13.1207262"><ele>484.0</ele><time>2026-04-19T11:31:07.248Z</time></trkpt><trkpt lat="43.3308419" lon="13.1207039"><ele>484.25</ele><time>2026-04-19T11:31:08.247Z</time></trkpt><trkpt lat="43.3309851" lon="13.1207231"><ele>484.5</ele><time>2026-04-19T11:31:09.248Z</time></trkpt><trkpt lat="43.3311202" lon="13.1207937"><ele>484.75</ele><time>2026-04-19T11:31:10.248Z</time></trkpt><trkpt lat="43.3312477" lon="13.1208959"><ele>485.0</ele><time>2026-04-19T11:31:11.247Z</time></trkpt><trkpt lat="43.3313708" lon="13.1210149"><ele>488.3333333333333</ele><time>2026-04-19T11:31:12.247Z</time></trkpt><trkpt lat="43.3314913" lon="13.1211417"><ele>491.66666666666663</ele><time>2026-04-19T11:31:13.247Z</time></trkpt><trkpt lat="43.3316038" lon="13.1212854"><ele>495.0</ele><time>2026-04-19T11:31:14.246Z</time></trkpt><trkpt lat="43.3317067" lon="13.1214439"><ele>493.33333333333337</ele><time>2026-04-19T11:31:15.248Z</time></trkpt><trkpt lat="43.3318057" lon="13.1216062"><ele>491.6666666666667</ele><time>2026-04-19T11:31:16.247Z</time></trkpt><trkpt lat="43.3319022" lon="13.1217682"><ele>490.0</ele><time>2026-04-19T11:31:17.247Z</time></trkpt><trkpt lat="43.3319951" lon="13.1219295"><ele>490.0</ele><time>2026-04-19T11:31:18.248Z</time></trkpt><trkpt lat="43.332086" lon="13.1220862"><ele>490.0</ele><time>2026-04-19T11:31:19.247Z</time></trkpt><trkpt lat="43.3321736" lon="13.1222339"><ele>490.0</ele><time>2026-04-19T11:31:20.247Z</time></trkpt><trkpt lat="43.3322534" lon="13.1223713"><ele>490.0</ele><time>2026-04-19T11:31:21.247Z</time></trkpt><trkpt lat="43.3323239" lon="13.122496"><ele>491.4</ele><time>2026-04-19T11:31:22.247Z</time></trkpt><trkpt lat="43.3323852" lon="13.1226056"><ele>492.8</ele><time>2026-04-19T11:31:23.247Z</time></trkpt><trkpt lat="43.3324363" lon="13.1226926"><ele>494.20000000000005</ele><time>2026-04-19T11:31:24.247Z</time></trkpt><trkpt lat="43.3324823" lon="13.1227694"><ele>495.6</ele><time>2026-04-19T11:31:25.247Z</time></trkpt><trkpt lat="43.3325724" lon="13.1228988"><ele>497.0</ele><time>2026-04-19T11:31:27.248Z</time></trkpt><trkpt lat="43.3326256" lon="13.1229685"><ele>496.99999999999994</ele><time>2026-04-19T11:31:28.248Z</time></trkpt><trkpt lat="43.3326827" lon="13.1230334"><ele>497.0</ele><time>2026-04-19T11:31:29.248Z</time></trkpt><trkpt lat="43.3327377" lon="13.1231021"><ele>497.0</ele><time>2026-04-19T11:31:30.248Z</time></trkpt><trkpt lat="43.3327871" lon="13.1231916"><ele>497.0</ele><time>2026-04-19T11:31:31.248Z</time></trkpt><trkpt lat="43.3328292" lon="13.1232988"><ele>496.99999999999994</ele><time>2026-04-19T11:31:32.247Z</time></trkpt><trkpt lat="43.3328666" lon="13.1234157"><ele>497.0</ele><time>2026-04-19T11:31:33.247Z</time></trkpt><trkpt lat="43.3328983" lon="13.123534"><ele>497.0</ele><time>2026-04-19T11:31:34.248Z</time></trkpt><trkpt lat="43.3329245" lon="13.1236518"><ele>497.00000000000006</ele><time>2026-04-19T11:31:35.248Z</time></trkpt><trkpt lat="43.3329537" lon="13.1237704"><ele>497.00000000000006</ele><time>2026-04-19T11:31:36.248Z</time></trkpt><trkpt lat="43.3329814" lon="13.1238939"><ele>497.0</ele><time>2026-04-19T11:31:37.247Z</time></trkpt><trkpt lat="43.3330027" lon="13.1240246"><ele>497.0</ele><time>2026-04-19T11:31:38.247Z</time></trkpt><trkpt lat="43.3330208" lon="13.1241584"><ele>497.6</ele><time>2026-04-19T11:31:39.248Z</time></trkpt><trkpt lat="43.3330329" lon="13.1242946"><ele>498.20000000000005</ele><time>2026-04-19T11:31:40.248Z</time></trkpt><trkpt lat="43.3330345" lon="13.1244334"><ele>498.8</ele><time>2026-04-19T11:31:41.248Z</time></trkpt><trkpt lat="43.3330281" lon="13.1245708"><ele>499.4</ele><time>2026-04-19T11:31:42.248Z</time></trkpt><trkpt lat="43.3330165" lon="13.1247093"><ele>500.0</ele><time>2026-04-19T11:31:43.247Z</time></trkpt><trkpt lat="43.3330066" lon="13.124839"><ele>500.6</ele><time>2026-04-19T11:31:44.248Z</time></trkpt><trkpt lat="43.333004" lon="13.1249517"><ele>501.2</ele><time>2026-04-19T11:31:45.247Z</time></trkpt><trkpt lat="43.3330229" lon="13.125048"><ele>501.79999999999995</ele><time>2026-04-19T11:31:46.247Z</time></trkpt><trkpt lat="43.3331136" lon="13.1251333"><ele>502.4</ele><time>2026-04-19T11:31:48.247Z</time></trkpt><trkpt lat="43.3332354" lon="13.1250952"><ele>503.0</ele><time>2026-04-19T11:31:50.247Z</time></trkpt><trkpt lat="43.3333061" lon="13.1250378"><ele>504.4</ele><time>2026-04-19T11:31:51.247Z</time></trkpt><trkpt lat="43.3333847" lon="13.1249813"><ele>505.79999999999995</ele><time>2026-04-19T11:31:52.247Z</time></trkpt><trkpt lat="43.3334708" lon="13.1249372"><ele>507.2</ele><time>2026-04-19T11:31:53.247Z</time></trkpt><trkpt lat="43.3335642" lon="13.124923"><ele>508.6</ele><time>2026-04-19T11:31:54.248Z</time></trkpt><trkpt lat="43.3336708" lon="13.1249442"><ele>510.0</ele><time>2026-04-19T11:31:55.248Z</time></trkpt><trkpt lat="43.3337763" lon="13.1249776"><ele>510.0</ele><time>2026-04-19T11:31:56.247Z</time></trkpt><trkpt lat="43.3338759" lon="13.1250126"><ele>510.0</ele><time>2026-04-19T11:31:57.248Z</time></trkpt><trkpt lat="43.333973" lon="13.1250744"><ele>510.0</ele><time>2026-04-19T11:31:58.248Z</time></trkpt><trkpt lat="43.33406" lon="13.1251558"><ele>510.0</ele><time>2026-04-19T11:31:59.248Z</time></trkpt><trkpt lat="43.3341416" lon="13.1252493"><ele>510.0</ele><time>2026-04-19T11:32:00.247Z</time></trkpt><trkpt lat="43.3342149" lon="13.1253484"><ele>510.2</ele><time>2026-04-19T11:32:01.248Z</time></trkpt><trkpt lat="43.3342841" lon="13.1254485"><ele>510.4</ele><time>2026-04-19T11:32:02.248Z</time></trkpt><trkpt lat="43.33435" lon="13.1255502"><ele>510.6</ele><time>2026-04-19T11:32:03.248Z</time></trkpt><trkpt lat="43.3344147" lon="13.1256608"><ele>510.8</ele><time>2026-04-19T11:32:04.248Z</time></trkpt><trkpt lat="43.3344795" lon="13.1257716"><ele>511.0</ele><time>2026-04-19T11:32:05.248Z</time></trkpt><trkpt lat="43.3345486" lon="13.1258806"><ele>511.4</ele><time>2026-04-19T11:32:06.248Z</time></trkpt><trkpt lat="43.3346162" lon="13.1259917"><ele>511.8</ele><time>2026-04-19T11:32:07.247Z</time></trkpt><trkpt lat="43.3346815" lon="13.1260984"><ele>512.1999999999999</ele><time>2026-04-19T11:32:08.248Z</time></trkpt><trkpt lat="43.3347462" lon="13.126204"><ele>512.6</ele><time>2026-04-19T11:32:09.248Z</time></trkpt><trkpt lat="43.3348136" lon="13.1263141"><ele>513.0</ele><time>2026-04-19T11:32:10.248Z</time></trkpt><trkpt lat="43.3348795" lon="13.126425"><ele>514.4</ele><time>2026-04-19T11:32:11.247Z</time></trkpt><trkpt lat="43.334943" lon="13.1265313"><ele>515.8</ele><time>2026-04-19T11:32:12.246Z</time></trkpt><trkpt lat="43.3350124" lon="13.1266381"><ele>517.2</ele><time>2026-04-19T11:32:13.247Z</time></trkpt><trkpt lat="43.3350822" lon="13.1267468"><ele>518.6</ele><time>2026-04-19T11:32:14.246Z</time></trkpt><trkpt lat="43.3351549" lon="13.1268604"><ele>520.0</ele><time>2026-04-19T11:32:15.246Z</time></trkpt><trkpt lat="43.3352268" lon="13.1269787"><ele>520.25</ele><time>2026-04-19T11:32:16.247Z</time></trkpt><trkpt lat="43.3353014" lon="13.1271016"><ele>520.5</ele><time>2026-04-19T11:32:17.247Z</time></trkpt><trkpt lat="43.335379" lon="13.1272274"><ele>520.75</ele><time>2026-04-19T11:32:18.246Z</time></trkpt><trkpt lat="43.3354574" lon="13.1273513"><ele>521.0</ele><time>2026-04-19T11:32:19.247Z</time></trkpt><trkpt lat="43.3355338" lon="13.1274761"><ele>522.25</ele><time>2026-04-19T11:32:20.247Z</time></trkpt><trkpt lat="43.3356099" lon="13.1276032"><ele>523.5</ele><time>2026-04-19T11:32:21.246Z</time></trkpt><trkpt lat="43.3356845" lon="13.1277285"><ele>524.75</ele><time>2026-04-19T11:32:22.247Z</time></trkpt><trkpt lat="43.3357579" lon="13.1278467"><ele>526.0</ele><time>2026-04-19T11:32:23.247Z</time></trkpt><trkpt lat="43.3358274" lon="13.1279567"><ele>526.0</ele><time>2026-04-19T11:32:24.246Z</time></trkpt><trkpt lat="43.3358956" lon="13.1280667"><ele>526.0</ele><time>2026-04-19T11:32:25.246Z</time></trkpt><trkpt lat="43.3359621" lon="13.128172"><ele>526.0</ele><time>2026-04-19T11:32:26.247Z</time></trkpt><trkpt lat="43.3360219" lon="13.12827"><ele>526.0</ele><time>2026-04-19T11:32:27.247Z</time></trkpt><trkpt lat="43.3360813" lon="13.1283667"><ele>526.0</ele><time>2026-04-19T11:32:28.247Z</time></trkpt><trkpt lat="43.336139" lon="13.1284592"><ele>526.3333333333334</ele><time>2026-04-19T11:32:29.246Z</time></trkpt><trkpt lat="43.3361879" lon="13.1285413"><ele>526.6666666666667</ele><time>2026-04-19T11:32:30.247Z</time></trkpt><trkpt lat="43.3362222" lon="13.1286249"><ele>527.0</ele><time>2026-04-19T11:32:31.247Z</time></trkpt><trkpt lat="43.3362234" lon="13.1287233"><ele>527.3333333333334</ele><time>2026-04-19T11:32:32.246Z</time></trkpt><trkpt lat="43.3362043" lon="13.1288432"><ele>527.6666666666666</ele><time>2026-04-19T11:32:33.246Z</time></trkpt><trkpt lat="43.3361788" lon="13.1289654"><ele>528.0</ele><time>2026-04-19T11:32:34.247Z</time></trkpt><trkpt lat="43.3361546" lon="13.1290516"><ele>529.0</ele><time>2026-04-19T11:32:35.246Z</time></trkpt><trkpt lat="43.3361326" lon="13.129222"><ele>530.0</ele><time>2026-04-19T11:32:37.246Z</time></trkpt><trkpt lat="43.3361432" lon="13.1293192"><ele>531.0</ele><time>2026-04-19T11:32:38.247Z</time></trkpt><trkpt lat="43.3361576" lon="13.1294197"><ele>532.0</ele><time>2026-04-19T11:32:39.247Z</time></trkpt><trkpt lat="43.3361715" lon="13.1295172"><ele>533.0</ele><time>2026-04-19T11:32:40.247Z</time></trkpt><trkpt lat="43.3361865" lon="13.129616"><ele>534.0</ele><time>2026-04-19T11:32:41.247Z</time></trkpt><trkpt lat="43.3361943" lon="13.1297201"><ele>534.0000000000001</ele><time>2026-04-19T11:32:42.247Z</time></trkpt><trkpt lat="43.3361995" lon="13.1298246"><ele>534.0</ele><time>2026-04-19T11:32:43.247Z</time></trkpt><trkpt lat="43.3362035" lon="13.1299329"><ele>534.0</ele><time>2026-04-19T11:32:44.246Z</time></trkpt><trkpt lat="43.3362109" lon="13.1300341"><ele>534.0</ele><time>2026-04-19T11:32:45.246Z</time></trkpt><trkpt lat="43.3362473" lon="13.1301185"><ele>534.0</ele><time>2026-04-19T11:32:46.247Z</time></trkpt><trkpt lat="43.3362996" lon="13.1301724"><ele>534.0000000000001</ele><time>2026-04-19T11:32:47.246Z</time></trkpt><trkpt lat="43.336363" lon="13.1301797"><ele>534.0</ele><time>2026-04-19T11:32:48.246Z</time></trkpt><trkpt lat="43.3364357" lon="13.1301625"><ele>533.6</ele><time>2026-04-19T11:32:49.247Z</time></trkpt><trkpt lat="43.3365151" lon="13.1301206"><ele>533.2</ele><time>2026-04-19T11:32:50.247Z</time></trkpt><trkpt lat="43.3366015" lon="13.1300471"><ele>532.8000000000001</ele><time>2026-04-19T11:32:51.246Z</time></trkpt><trkpt lat="43.3366938" lon="13.12998"><ele>532.4</ele><time>2026-04-19T11:32:52.247Z</time></trkpt><trkpt lat="43.3367933" lon="13.1299082"><ele>532.0</ele><time>2026-04-19T11:32:53.247Z</time></trkpt><trkpt lat="43.3368982" lon="13.1298422"><ele>532.0</ele><time>2026-04-19T11:32:54.246Z</time></trkpt><trkpt lat="43.3370167" lon="13.1297824"><ele>532.0</ele><time>2026-04-19T11:32:55.247Z</time></trkpt><trkpt lat="43.3371219" lon="13.1297277"><ele>532.0</ele><time>2026-04-19T11:32:56.247Z</time></trkpt><trkpt lat="43.3372298" lon="13.1296801"><ele>532.0</ele><time>2026-04-19T11:32:57.247Z</time></trkpt><trkpt lat="43.3373398" lon="13.1296444"><ele>529.2</ele><time>2026-04-19T11:32:58.247Z</time></trkpt><trkpt lat="43.3374541" lon="13.1296203"><ele>526.4000000000001</ele><time>2026-04-19T11:32:59.247Z</time></trkpt><trkpt lat="43.3375689" lon="13.1296122"><ele>523.5999999999999</ele><time>2026-04-19T11:33:00.246Z</time></trkpt><trkpt lat="43.3376733" lon="13.1296215"><ele>520.8</ele><time>2026-04-19T11:33:01.247Z</time></trkpt><trkpt lat="43.33777" lon="13.1296526"><ele>518.0</ele><time>2026-04-19T11:33:02.247Z</time></trkpt><trkpt lat="43.3378503" lon="13.129714"><ele>518.0</ele><time>2026-04-19T11:33:03.246Z</time></trkpt><trkpt lat="43.3379015" lon="13.1298061"><ele>518.0</ele><time>2026-04-19T11:33:04.246Z</time></trkpt><trkpt lat="43.3379173" lon="13.1299185"><ele>518.0</ele><time>2026-04-19T11:33:05.247Z</time></trkpt><trkpt lat="43.3379015" lon="13.130055"><ele>518.0</ele><time>2026-04-19T11:33:06.247Z</time></trkpt><trkpt lat="43.3378585" lon="13.1302067"><ele>518.0</ele><time>2026-04-19T11:33:07.247Z</time></trkpt><trkpt lat="43.3377977" lon="13.1303648"><ele>514.75</ele><time>2026-04-19T11:33:08.247Z</time></trkpt><trkpt lat="43.3377372" lon="13.1305216"><ele>511.5</ele><time>2026-04-19T11:33:09.246Z</time></trkpt><trkpt lat="43.3376756" lon="13.1306835"><ele>508.25</ele><time>2026-04-19T11:33:10.246Z</time></trkpt><trkpt lat="43.3376204" lon="13.1308397"><ele>505.0</ele><time>2026-04-19T11:33:11.247Z</time></trkpt><trkpt lat="43.3375893" lon="13.1309889"><ele>502.4</ele><time>2026-04-19T11:33:12.247Z</time></trkpt><trkpt lat="43.337589" lon="13.1311354"><ele>499.8</ele><time>2026-04-19T11:33:13.246Z</time></trkpt><trkpt lat="43.3376189" lon="13.1312808"><ele>497.20000000000005</ele><time>2026-04-19T11:33:14.247Z</time></trkpt><trkpt lat="43.3376741" lon="13.1314167"><ele>494.6</ele><time>2026-04-19T11:33:15.247Z</time></trkpt><trkpt lat="43.3377398" lon="13.1315516"><ele>492.0</ele><time>2026-04-19T11:33:16.247Z</time></trkpt><trkpt lat="43.33781" lon="13.1316991"><ele>489.5</ele><time>2026-04-19T11:33:17.246Z</time></trkpt><trkpt lat="43.3378875" lon="13.1318629"><ele>487.0</ele><time>2026-04-19T11:33:18.247Z</time></trkpt><trkpt lat="43.3379643" lon="13.1320358"><ele>484.5</ele><time>2026-04-19T11:33:19.247Z</time></trkpt><trkpt lat="43.3380415" lon="13.1322156"><ele>482.0</ele><time>2026-04-19T11:33:20.247Z</time></trkpt><trkpt lat="43.3381171" lon="13.1324021"><ele>478.66666666666663</ele><time>2026-04-19T11:33:21.247Z</time></trkpt><trkpt lat="43.3381922" lon="13.1325869"><ele>475.33333333333337</ele><time>2026-04-19T11:33:22.246Z</time></trkpt><trkpt lat="43.3382656" lon="13.1327722"><ele>472.0</ele><time>2026-04-19T11:33:23.247Z</time></trkpt><trkpt lat="43.338333" lon="13.1329465"><ele>472.0</ele><time>2026-04-19T11:33:24.247Z</time></trkpt><trkpt lat="43.3383948" lon="13.1331071"><ele>472.0</ele><time>2026-04-19T11:33:25.247Z</time></trkpt><trkpt lat="43.3384443" lon="13.1332599"><ele>472.0</ele><time>2026-04-19T11:33:26.247Z</time></trkpt><trkpt lat="43.3384781" lon="13.1334238"><ele>472.0</ele><time>2026-04-19T11:33:27.246Z</time></trkpt><trkpt lat="43.3384913" lon="13.1335876"><ele>473.6</ele><time>2026-04-19T11:33:28.246Z</time></trkpt><trkpt lat="43.3384969" lon="13.1337356"><ele>475.20000000000005</ele><time>2026-04-19T11:33:29.247Z</time></trkpt><trkpt lat="43.3384939" lon="13.1338757"><ele>476.8</ele><time>2026-04-19T11:33:30.247Z</time></trkpt><trkpt lat="43.3384747" lon="13.1340197"><ele>478.4</ele><time>2026-04-19T11:33:31.247Z</time></trkpt><trkpt lat="43.3384285" lon="13.1341471"><ele>480.0</ele><time>2026-04-19T11:33:32.247Z</time></trkpt><trkpt lat="43.3383529" lon="13.1342625"><ele>480.75</ele><time>2026-04-19T11:33:33.246Z</time></trkpt><trkpt lat="43.3382585" lon="13.1343687"><ele>481.5</ele><time>2026-04-19T11:33:34.246Z</time></trkpt><trkpt lat="43.3381568" lon="13.1344735"><ele>482.25</ele><time>2026-04-19T11:33:35.247Z</time></trkpt><trkpt lat="43.3380663" lon="13.1345938"><ele>483.0</ele><time>2026-04-19T11:33:36.247Z</time></trkpt><trkpt lat="43.3379954" lon="13.1347353"><ele>483.0</ele><time>2026-04-19T11:33:37.247Z</time></trkpt><trkpt lat="43.3379387" lon="13.1348831"><ele>483.0</ele><time>2026-04-19T11:33:38.247Z</time></trkpt><trkpt lat="43.337887" lon="13.1350412"><ele>483.0</ele><time>2026-04-19T11:33:39.247Z</time></trkpt><trkpt lat="43.3378349" lon="13.135202"><ele>483.0</ele><time>2026-04-19T11:33:40.247Z</time></trkpt><trkpt lat="43.3377857" lon="13.13536"><ele>482.5</ele><time>2026-04-19T11:33:41.247Z</time></trkpt><trkpt lat="43.3377441" lon="13.1355211"><ele>482.0</ele><time>2026-04-19T11:33:42.247Z</time></trkpt><trkpt lat="43.3377104" lon="13.1356865"><ele>481.5</ele><time>2026-04-19T11:33:43.245Z</time></trkpt><trkpt lat="43.337679" lon="13.1358557"><ele>481.0</ele><time>2026-04-19T11:33:44.246Z</time></trkpt><trkpt lat="43.3376436" lon="13.1360252"><ele>481.0</ele><time>2026-04-19T11:33:45.247Z</time></trkpt><trkpt lat="43.3376048" lon="13.1361981"><ele>481.0</ele><time>2026-04-19T11:33:46.246Z</time></trkpt><trkpt lat="43.3375659" lon="13.1363731"><ele>481.0</ele><time>2026-04-19T11:33:47.246Z</time></trkpt><trkpt lat="43.3375228" lon="13.1365457"><ele>481.0</ele><time>2026-04-19T11:33:48.246Z</time></trkpt><trkpt lat="43.3374713" lon="13.1367096"><ele>479.0</ele><time>2026-04-19T11:33:49.247Z</time></trkpt><trkpt lat="43.3374155" lon="13.1368653"><ele>477.0</ele><time>2026-04-19T11:33:50.246Z</time></trkpt><trkpt lat="43.3373575" lon="13.137014"><ele>475.0</ele><time>2026-04-19T11:33:51.247Z</time></trkpt><trkpt lat="43.3373002" lon="13.1371564"><ele>473.0</ele><time>2026-04-19T11:33:52.246Z</time></trkpt><trkpt lat="43.3372524" lon="13.137296"><ele>471.75</ele><time>2026-04-19T11:33:53.247Z</time></trkpt><trkpt lat="43.3372252" lon="13.1374409"><ele>470.5</ele><time>2026-04-19T11:33:54.247Z</time></trkpt><trkpt lat="43.3372237" lon="13.1375965"><ele>469.25</ele><time>2026-04-19T11:33:55.246Z</time></trkpt><trkpt lat="43.3372518" lon="13.1377542"><ele>468.0</ele><time>2026-04-19T11:33:56.247Z</time></trkpt><trkpt lat="43.3372899" lon="13.1379094"><ele>468.0</ele><time>2026-04-19T11:33:57.246Z</time></trkpt><trkpt lat="43.3373311" lon="13.1380691"><ele>468.0</ele><time>2026-04-19T11:33:58.247Z</time></trkpt><trkpt lat="43.3373773" lon="13.1382289"><ele>468.0</ele><time>2026-04-19T11:33:59.246Z</time></trkpt><trkpt lat="43.337428" lon="13.138381"><ele>468.0</ele><time>2026-04-19T11:34:00.247Z</time></trkpt><trkpt lat="43.3374853" lon="13.1385207"><ele>468.5</ele><time>2026-04-19T11:34:01.247Z</time></trkpt><trkpt lat="43.3375546" lon="13.13865"><ele>469.0</ele><time>2026-04-19T11:34:02.246Z</time></trkpt><trkpt lat="43.3376327" lon="13.1387709"><ele>469.5</ele><time>2026-04-19T11:34:03.245Z</time></trkpt><trkpt lat="43.3377092" lon="13.1388918"><ele>470.0</ele><time>2026-04-19T11:34:04.247Z</time></trkpt><trkpt lat="43.3377799" lon="13.1390164"><ele>472.75</ele><time>2026-04-19T11:34:05.247Z</time></trkpt><trkpt lat="43.3378498" lon="13.1391501"><ele>475.5</ele><time>2026-04-19T11:34:06.247Z</time></trkpt><trkpt lat="43.3379137" lon="13.1392953"><ele>478.25</ele><time>2026-04-19T11:34:07.247Z</time></trkpt><trkpt lat="43.3379682" lon="13.1394522"><ele>481.0</ele><time>2026-04-19T11:34:08.245Z</time></trkpt><trkpt lat="43.3380151" lon="13.1396101"><ele>478.8</ele><time>2026-04-19T11:34:09.247Z</time></trkpt><trkpt lat="43.3380575" lon="13.1397646"><ele>476.6</ele><time>2026-04-19T11:34:10.247Z</time></trkpt><trkpt lat="43.3380989" lon="13.1399118"><ele>474.4</ele><time>2026-04-19T11:34:11.246Z</time></trkpt><trkpt lat="43.3381403" lon="13.1400505"><ele>472.2</ele><time>2026-04-19T11:34:12.247Z</time></trkpt><trkpt lat="43.3381811" lon="13.1401808"><ele>470.0</ele><time>2026-04-19T11:34:13.246Z</time></trkpt><trkpt lat="43.3382174" lon="13.1403055"><ele>470.0</ele><time>2026-04-19T11:34:14.246Z</time></trkpt><trkpt lat="43.3382495" lon="13.1404215"><ele>470.0</ele><time>2026-04-19T11:34:15.247Z</time></trkpt><trkpt lat="43.3382712" lon="13.1405338"><ele>470.0</ele><time>2026-04-19T11:34:16.247Z</time></trkpt><trkpt lat="43.3382825" lon="13.1406553"><ele>470.0</ele><time>2026-04-19T11:34:17.246Z</time></trkpt><trkpt lat="43.3382804" lon="13.1407878"><ele>470.0</ele><time>2026-04-19T11:34:18.246Z</time></trkpt><trkpt lat="43.338265" lon="13.1409242"><ele>470.0</ele><time>2026-04-19T11:34:19.246Z</time></trkpt><trkpt lat="43.3382512" lon="13.141061"><ele>470.0</ele><time>2026-04-19T11:34:20.246Z</time></trkpt><trkpt lat="43.3382396" lon="13.1411961"><ele>470.0</ele><time>2026-04-19T11:34:21.246Z</time></trkpt><trkpt lat="43.338231" lon="13.1413303"><ele>470.0</ele><time>2026-04-19T11:34:22.247Z</time></trkpt><trkpt lat="43.33822" lon="13.1414679"><ele>470.0</ele><time>2026-04-19T11:34:23.247Z</time></trkpt><trkpt lat="43.3382078" lon="13.1416083"><ele>470.0</ele><time>2026-04-19T11:34:24.247Z</time></trkpt><trkpt lat="43.3381983" lon="13.1417515"><ele>470.0</ele><time>2026-04-19T11:34:25.247Z</time></trkpt><trkpt lat="43.3381944" lon="13.141896"><ele>470.0</ele><time>2026-04-19T11:34:26.247Z</time></trkpt><trkpt lat="43.3381938" lon="13.1420381"><ele>470.0</ele><time>2026-04-19T11:34:27.247Z</time></trkpt><trkpt lat="43.3381994" lon="13.142179"><ele>470.0</ele><time>2026-04-19T11:34:28.246Z</time></trkpt><trkpt lat="43.3382191" lon="13.1423137"><ele>467.8</ele><time>2026-04-19T11:34:29.245Z</time></trkpt><trkpt lat="43.3382531" lon="13.1424511"><ele>465.6</ele><time>2026-04-19T11:34:30.246Z</time></trkpt><trkpt lat="43.3382984" lon="13.1425827"><ele>463.4</ele><time>2026-04-19T11:34:31.247Z</time></trkpt><trkpt lat="43.3383532" lon="13.1427132"><ele>461.2</ele><time>2026-04-19T11:34:32.246Z</time></trkpt><trkpt lat="43.3384134" lon="13.1428488"><ele>459.0</ele><time>2026-04-19T11:34:33.246Z</time></trkpt><trkpt lat="43.3384769" lon="13.1429882"><ele>459.0</ele><time>2026-04-19T11:34:34.246Z</time></trkpt><trkpt lat="43.3385369" lon="13.1431311"><ele>459.0</ele><time>2026-04-19T11:34:35.246Z</time></trkpt><trkpt lat="43.338597" lon="13.1432767"><ele>459.0</ele><time>2026-04-19T11:34:36.246Z</time></trkpt><trkpt lat="43.3386486" lon="13.1434282"><ele>459.0</ele><time>2026-04-19T11:34:37.247Z</time></trkpt><trkpt lat="43.3386909" lon="13.1435857"><ele>457.75</ele><time>2026-04-19T11:34:38.247Z</time></trkpt><trkpt lat="43.338734" lon="13.1437464"><ele>456.5</ele><time>2026-04-19T11:34:39.247Z</time></trkpt><trkpt lat="43.3387731" lon="13.1439"><ele>455.25</ele><time>2026-04-19T11:34:40.247Z</time></trkpt><trkpt lat="43.3388111" lon="13.1440502"><ele>454.0</ele><time>2026-04-19T11:34:41.247Z</time></trkpt><trkpt lat="43.3388523" lon="13.1442018"><ele>452.75</ele><time>2026-04-19T11:34:42.247Z</time></trkpt><trkpt lat="43.3388939" lon="13.1443557"><ele>451.5</ele><time>2026-04-19T11:34:43.247Z</time></trkpt><trkpt lat="43.3389407" lon="13.1445066"><ele>450.25</ele><time>2026-04-19T11:34:44.246Z</time></trkpt><trkpt lat="43.3389888" lon="13.1446564"><ele>449.0</ele><time>2026-04-19T11:34:45.247Z</time></trkpt><trkpt lat="43.3390436" lon="13.144805"><ele>449.25</ele><time>2026-04-19T11:34:46.247Z</time></trkpt><trkpt lat="43.339104" lon="13.1449538"><ele>449.5</ele><time>2026-04-19T11:34:47.247Z</time></trkpt><trkpt lat="43.3391698" lon="13.1451054"><ele>449.75</ele><time>2026-04-19T11:34:48.247Z</time></trkpt><trkpt lat="43.3392428" lon="13.1452547"><ele>450.0</ele><time>2026-04-19T11:34:49.247Z</time></trkpt><trkpt lat="43.3393194" lon="13.1454005"><ele>450.0</ele><time>2026-04-19T11:34:50.247Z</time></trkpt><trkpt lat="43.339394" lon="13.1455433"><ele>450.0</ele><time>2026-04-19T11:34:51.246Z</time></trkpt><trkpt lat="43.339457" lon="13.1456861"><ele>450.0</ele><time>2026-04-19T11:34:52.246Z</time></trkpt><trkpt lat="43.3395042" lon="13.1458281"><ele>450.0</ele><time>2026-04-19T11:34:53.247Z</time></trkpt><trkpt lat="43.3395295" lon="13.1459664"><ele>451.2</ele><time>2026-04-19T11:34:54.247Z</time></trkpt><trkpt lat="43.3395313" lon="13.1461095"><ele>452.4</ele><time>2026-04-19T11:34:55.247Z</time></trkpt><trkpt lat="43.3395061" lon="13.1462453"><ele>453.6</ele><time>2026-04-19T11:34:56.246Z</time></trkpt><trkpt lat="43.3394591" lon="13.1463667"><ele>454.8</ele><time>2026-04-19T11:34:57.247Z</time></trkpt><trkpt lat="43.3394045" lon="13.1464815"><ele>456.0</ele><time>2026-04-19T11:34:58.247Z</time></trkpt><trkpt lat="43.339355" lon="13.146614"><ele>457.20000000000005</ele><time>2026-04-19T11:34:59.246Z</time></trkpt><trkpt lat="43.3393183" lon="13.1467511"><ele>458.40000000000003</ele><time>2026-04-19T11:35:00.247Z</time></trkpt><trkpt lat="43.3392997" lon="13.1468834"><ele>459.6</ele><time>2026-04-19T11:35:01.246Z</time></trkpt><trkpt lat="43.3393049" lon="13.1470203"><ele>460.8</ele><time>2026-04-19T11:35:02.247Z</time></trkpt><trkpt lat="43.3393328" lon="13.1471508"><ele>462.0</ele><time>2026-04-19T11:35:03.246Z</time></trkpt><trkpt lat="43.3393853" lon="13.147274"><ele>461.5</ele><time>2026-04-19T11:35:04.247Z</time></trkpt><trkpt lat="43.3394561" lon="13.1473778"><ele>461.0</ele><time>2026-04-19T11:35:05.247Z</time></trkpt><trkpt lat="43.3395438" lon="13.1474704"><ele>460.5</ele><time>2026-04-19T11:35:06.247Z</time></trkpt><trkpt lat="43.3396541" lon="13.1475579"><ele>460.0</ele><time>2026-04-19T11:35:07.247Z</time></trkpt><trkpt lat="43.3397742" lon="13.1476446"><ele>465.75</ele><time>2026-04-19T11:35:08.247Z</time></trkpt><trkpt lat="43.3399001" lon="13.1477312"><ele>471.5</ele><time>2026-04-19T11:35:09.247Z</time></trkpt><trkpt lat="43.3400244" lon="13.1478183"><ele>477.25</ele><time>2026-04-19T11:35:10.247Z</time></trkpt><trkpt lat="43.340147" lon="13.1479018"><ele>483.0</ele><time>2026-04-19T11:35:11.246Z</time></trkpt><trkpt lat="43.3402661" lon="13.1479771"><ele>483.0</ele><time>2026-04-19T11:35:12.245Z</time></trkpt><trkpt lat="43.3403851" lon="13.1480476"><ele>483.0</ele><time>2026-04-19T11:35:13.247Z</time></trkpt><trkpt lat="43.3404978" lon="13.1481217"><ele>483.0</ele><time>2026-04-19T11:35:14.247Z</time></trkpt><trkpt lat="43.3405978" lon="13.1482084"><ele>483.0</ele><time>2026-04-19T11:35:15.247Z</time></trkpt><trkpt lat="43.3406839" lon="13.1483125"><ele>483.3333333333333</ele><time>2026-04-19T11:35:16.246Z</time></trkpt><trkpt lat="43.3407549" lon="13.1484244"><ele>483.66666666666663</ele><time>2026-04-19T11:35:17.247Z</time></trkpt><trkpt lat="43.3408089" lon="13.1485248"><ele>484.0</ele><time>2026-04-19T11:35:18.247Z</time></trkpt><trkpt lat="43.3408533" lon="13.1486096"><ele>484.3333333333333</ele><time>2026-04-19T11:35:19.247Z</time></trkpt><trkpt lat="43.3408922" lon="13.1486871"><ele>484.66666666666663</ele><time>2026-04-19T11:35:20.246Z</time></trkpt><trkpt lat="43.3409286" lon="13.148778"><ele>485.0</ele><time>2026-04-19T11:35:21.246Z</time></trkpt><trkpt lat="43.3409524" lon="13.148879"><ele>484.99999999999994</ele><time>2026-04-19T11:35:22.247Z</time></trkpt><trkpt lat="43.3409725" lon="13.1489906"><ele>485.0</ele><time>2026-04-19T11:35:23.247Z</time></trkpt><trkpt lat="43.3409899" lon="13.1491059"><ele>485.0</ele><time>2026-04-19T11:35:24.247Z</time></trkpt><trkpt lat="43.3410148" lon="13.1492213"><ele>485.0</ele><time>2026-04-19T11:35:25.247Z</time></trkpt><trkpt lat="43.3410515" lon="13.1493363"><ele>484.99999999999994</ele><time>2026-04-19T11:35:26.245Z</time></trkpt><trkpt lat="43.3410967" lon="13.1494475"><ele>485.0</ele><time>2026-04-19T11:35:27.246Z</time></trkpt><trkpt lat="43.3411475" lon="13.1495595"><ele>484.4</ele><time>2026-04-19T11:35:28.247Z</time></trkpt><trkpt lat="43.3412012" lon="13.1496776"><ele>483.8</ele><time>2026-04-19T11:35:29.247Z</time></trkpt><trkpt lat="43.3412586" lon="13.1498018"><ele>483.20000000000005</ele><time>2026-04-19T11:35:30.247Z</time></trkpt><trkpt lat="43.34132" lon="13.1499317"><ele>482.6</ele><time>2026-04-19T11:35:31.246Z</time></trkpt><trkpt lat="43.3413841" lon="13.1500651"><ele>482.0</ele><time>2026-04-19T11:35:32.246Z</time></trkpt><trkpt lat="43.3414504" lon="13.1501993"><ele>481.25</ele><time>2026-04-19T11:35:33.246Z</time></trkpt><trkpt lat="43.3415196" lon="13.1503357"><ele>480.5</ele><time>2026-04-19T11:35:34.247Z</time></trkpt><trkpt lat="43.341593" lon="13.1504717"><ele>479.75</ele><time>2026-04-19T11:35:35.247Z</time></trkpt><trkpt lat="43.3416658" lon="13.1506103"><ele>479.0</ele><time>2026-04-19T11:35:36.247Z</time></trkpt><trkpt lat="43.3417383" lon="13.150752"><ele>475.5</ele><time>2026-04-19T11:35:37.247Z</time></trkpt><trkpt lat="43.3418122" lon="13.1508962"><ele>472.0</ele><time>2026-04-19T11:35:38.247Z</time></trkpt><trkpt lat="43.3418853" lon="13.1510415"><ele>468.5</ele><time>2026-04-19T11:35:39.247Z</time></trkpt><trkpt lat="43.3419547" lon="13.1511865"><ele>465.0</ele><time>2026-04-19T11:35:40.247Z</time></trkpt><trkpt lat="43.3420208" lon="13.1513273"><ele>465.0</ele><time>2026-04-19T11:35:41.247Z</time></trkpt><trkpt lat="43.3420834" lon="13.1514566"><ele>465.0</ele><time>2026-04-19T11:35:42.246Z</time></trkpt><trkpt lat="43.3421438" lon="13.1515788"><ele>465.0</ele><time>2026-04-19T11:35:43.247Z</time></trkpt><trkpt lat="43.3422042" lon="13.1516939"><ele>465.0</ele><time>2026-04-19T11:35:44.247Z</time></trkpt><trkpt lat="43.3422711" lon="13.1517956"><ele>465.0</ele><time>2026-04-19T11:35:45.247Z</time></trkpt><trkpt lat="43.3423488" lon="13.1518758"><ele>463.6</ele><time>2026-04-19T11:35:46.247Z</time></trkpt><trkpt lat="43.3424376" lon="13.1519323"><ele>462.2</ele><time>2026-04-19T11:35:47.247Z</time></trkpt><trkpt lat="43.3425345" lon="13.1519652"><ele>460.79999999999995</ele><time>2026-04-19T11:35:48.247Z</time></trkpt><trkpt lat="43.3426337" lon="13.1519874"><ele>459.4</ele><time>2026-04-19T11:35:49.247Z</time></trkpt><trkpt lat="43.3427335" lon="13.1520055"><ele>458.0</ele><time>2026-04-19T11:35:50.246Z</time></trkpt><trkpt lat="43.3428255" lon="13.1520214"><ele>457.99999999999994</ele><time>2026-04-19T11:35:51.246Z</time></trkpt><trkpt lat="43.3429155" lon="13.152042"><ele>458.0</ele><time>2026-04-19T11:35:52.247Z</time></trkpt><trkpt lat="43.3430057" lon="13.1520613"><ele>458.0</ele><time>2026-04-19T11:35:53.247Z</time></trkpt><trkpt lat="43.3430887" lon="13.152061"><ele>458.0</ele><time>2026-04-19T11:35:54.246Z</time></trkpt><trkpt lat="43.3431714" lon="13.1520306"><ele>457.99999999999994</ele><time>2026-04-19T11:35:55.246Z</time></trkpt><trkpt lat="43.3432502" lon="13.15198"><ele>458.0</ele><time>2026-04-19T11:35:56.247Z</time></trkpt><trkpt lat="43.3433269" lon="13.1519096"><ele>456.49999999999994</ele><time>2026-04-19T11:35:57.247Z</time></trkpt><trkpt lat="43.3434075" lon="13.1518484"><ele>455.0</ele><time>2026-04-19T11:35:58.246Z</time></trkpt><trkpt lat="43.3434917" lon="13.1518254"><ele>453.5</ele><time>2026-04-19T11:35:59.247Z</time></trkpt><trkpt lat="43.3435804" lon="13.1518348"><ele>452.0</ele><time>2026-04-19T11:36:00.246Z</time></trkpt><trkpt lat="43.3436626" lon="13.1518712"><ele>450.49999999999994</ele><time>2026-04-19T11:36:01.246Z</time></trkpt><trkpt lat="43.3437455" lon="13.1519014"><ele>449.0</ele><time>2026-04-19T11:36:02.246Z</time></trkpt><trkpt lat="43.3438312" lon="13.1519064"><ele>447.4</ele><time>2026-04-19T11:36:03.247Z</time></trkpt><trkpt lat="43.3439177" lon="13.1518939"><ele>445.79999999999995</ele><time>2026-04-19T11:36:04.247Z</time></trkpt><trkpt lat="43.3440141" lon="13.1518454"><ele>444.20000000000005</ele><time>2026-04-19T11:36:05.246Z</time></trkpt><trkpt lat="43.3441165" lon="13.151802"><ele>442.6</ele><time>2026-04-19T11:36:06.246Z</time></trkpt><trkpt lat="43.3442173" lon="13.1517516"><ele>441.0</ele><time>2026-04-19T11:36:07.247Z</time></trkpt><trkpt lat="43.3443259" lon="13.1517236"><ele>441.0</ele><time>2026-04-19T11:36:08.247Z</time></trkpt><trkpt lat="43.3444332" lon="13.1516955"><ele>441.0</ele><time>2026-04-19T11:36:09.246Z</time></trkpt><trkpt lat="43.3445336" lon="13.1516713"><ele>441.0</ele><time>2026-04-19T11:36:10.245Z</time></trkpt><trkpt lat="43.3446289" lon="13.1516293"><ele>441.0</ele><time>2026-04-19T11:36:11.247Z</time></trkpt><trkpt lat="43.3447155" lon="13.1515935"><ele>441.0</ele><time>2026-04-19T11:36:12.247Z</time></trkpt><trkpt lat="43.3447875" lon="13.1515654"><ele>438.3333333333333</ele><time>2026-04-19T11:36:13.247Z</time></trkpt><trkpt lat="43.3448546" lon="13.1515441"><ele>435.66666666666663</ele><time>2026-04-19T11:36:14.247Z</time></trkpt><trkpt lat="43.344936" lon="13.1516142"><ele>433.0</ele><time>2026-04-19T11:36:16.247Z</time></trkpt><trkpt lat="43.3449297" lon="13.1517596"><ele>430.3333333333333</ele><time>2026-04-19T11:36:18.246Z</time></trkpt><trkpt lat="43.3448903" lon="13.1518554"><ele>427.66666666666663</ele><time>2026-04-19T11:36:19.245Z</time></trkpt><trkpt lat="43.3448338" lon="13.1519656"><ele>425.0</ele><time>2026-04-19T11:36:20.247Z</time></trkpt><trkpt lat="43.3447739" lon="13.1520773"><ele>423.0</ele><time>2026-04-19T11:36:21.247Z</time></trkpt><trkpt lat="43.3447043" lon="13.1521896"><ele>421.0</ele><time>2026-04-19T11:36:22.247Z</time></trkpt><trkpt lat="43.3446289" lon="13.1522925"><ele>419.0</ele><time>2026-04-19T11:36:23.247Z</time></trkpt><trkpt lat="43.344557" lon="13.1523803"><ele>417.0</ele><time>2026-04-19T11:36:24.247Z</time></trkpt><trkpt lat="43.3444941" lon="13.1524613"><ele>415.0</ele><time>2026-04-19T11:36:25.247Z</time></trkpt><trkpt lat="43.3444518" lon="13.1525345"><ele>415.00000000000006</ele><time>2026-04-19T11:36:26.247Z</time></trkpt><trkpt lat="43.3444494" lon="13.152669"><ele>415.0</ele><time>2026-04-19T11:36:28.247Z</time></trkpt><trkpt lat="43.3445257" lon="13.1527244"><ele>415.0</ele><time>2026-04-19T11:36:30.247Z</time></trkpt><trkpt lat="43.3445939" lon="13.1527303"><ele>415.0</ele><time>2026-04-19T11:36:31.246Z</time></trkpt><trkpt lat="43.3446778" lon="13.1527292"><ele>415.00000000000006</ele><time>2026-04-19T11:36:32.246Z</time></trkpt><trkpt lat="43.3447759" lon="13.1527198"><ele>415.0</ele><time>2026-04-19T11:36:33.247Z</time></trkpt><trkpt lat="43.3448798" lon="13.1526966"><ele>412.25</ele><time>2026-04-19T11:36:34.246Z</time></trkpt><trkpt lat="43.3449867" lon="13.1526594"><ele>409.5</ele><time>2026-04-19T11:36:35.247Z</time></trkpt><trkpt lat="43.3450977" lon="13.1526172"><ele>406.75</ele><time>2026-04-19T11:36:36.247Z</time></trkpt><trkpt lat="43.3452141" lon="13.1525856"><ele>404.0</ele><time>2026-04-19T11:36:37.245Z</time></trkpt><trkpt lat="43.3453308" lon="13.1525637"><ele>404.0</ele><time>2026-04-19T11:36:38.247Z</time></trkpt><trkpt lat="43.3454487" lon="13.1525559"><ele>404.0</ele><time>2026-04-19T11:36:39.247Z</time></trkpt><trkpt lat="43.3455627" lon="13.1525733"><ele>404.0</ele><time>2026-04-19T11:36:40.245Z</time></trkpt><trkpt lat="43.3456748" lon="13.1526074"><ele>404.0</ele><time>2026-04-19T11:36:41.247Z</time></trkpt><trkpt lat="43.3457909" lon="13.1526494"><ele>400.5</ele><time>2026-04-19T11:36:42.247Z</time></trkpt><trkpt lat="43.3459115" lon="13.1526979"><ele>397.0</ele><time>2026-04-19T11:36:43.247Z</time></trkpt><trkpt lat="43.3460327" lon="13.1527507"><ele>393.5</ele><time>2026-04-19T11:36:44.247Z</time></trkpt><trkpt lat="43.3461533" lon="13.1528025"><ele>390.0</ele><time>2026-04-19T11:36:45.247Z</time></trkpt><trkpt lat="43.3462646" lon="13.1528578"><ele>390.0</ele><time>2026-04-19T11:36:46.247Z</time></trkpt><trkpt lat="43.3463681" lon="13.1529139"><ele>390.0</ele><time>2026-04-19T11:36:47.246Z</time></trkpt><trkpt lat="43.3464725" lon="13.1529744"><ele>390.0</ele><time>2026-04-19T11:36:48.246Z</time></trkpt><trkpt lat="43.3465753" lon="13.1530392"><ele>390.0</ele><time>2026-04-19T11:36:49.246Z</time></trkpt><trkpt lat="43.3466749" lon="13.1531072"><ele>390.0</ele><time>2026-04-19T11:36:50.245Z</time></trkpt><trkpt lat="43.3467642" lon="13.1531719"><ele>388.4</ele><time>2026-04-19T11:36:51.246Z</time></trkpt><trkpt lat="43.3468411" lon="13.1532258"><ele>386.8</ele><time>2026-04-19T11:36:52.247Z</time></trkpt><trkpt lat="43.3469249" lon="13.1532615"><ele>385.20000000000005</ele><time>2026-04-19T11:36:53.246Z</time></trkpt><trkpt lat="43.347016" lon="13.1532721"><ele>383.6</ele><time>2026-04-19T11:36:54.247Z</time></trkpt><trkpt lat="43.3471074" lon="13.1532512"><ele>382.0</ele><time>2026-04-19T11:36:55.247Z</time></trkpt><trkpt lat="43.3471964" lon="13.1532049"><ele>379.5</ele><time>2026-04-19T11:36:56.247Z</time></trkpt><trkpt lat="43.3472818" lon="13.1531595"><ele>377.0</ele><time>2026-04-19T11:36:57.247Z</time></trkpt><trkpt lat="43.3473537" lon="13.1531377"><ele>374.5</ele><time>2026-04-19T11:36:58.247Z</time></trkpt><trkpt lat="43.347451" lon="13.1532078"><ele>372.0</ele><time>2026-04-19T11:37:00.247Z</time></trkpt><trkpt lat="43.3474717" lon="13.1532897"><ele>369.5</ele><time>2026-04-19T11:37:01.246Z</time></trkpt><trkpt lat="43.3474694" lon="13.1533881"><ele>367.0</ele><time>2026-04-19T11:37:02.247Z</time></trkpt><trkpt lat="43.3474567" lon="13.1535082"><ele>367.0</ele><time>2026-04-19T11:37:03.245Z</time></trkpt><trkpt lat="43.347436" lon="13.1536468"><ele>367.0</ele><time>2026-04-19T11:37:04.246Z</time></trkpt><trkpt lat="43.3474071" lon="13.1537942"><ele>367.0</ele><time>2026-04-19T11:37:05.247Z</time></trkpt><trkpt lat="43.3473649" lon="13.1539473"><ele>367.0</ele><time>2026-04-19T11:37:06.247Z</time></trkpt><trkpt lat="43.3473268" lon="13.1540952"><ele>367.0</ele><time>2026-04-19T11:37:07.247Z</time></trkpt><trkpt lat="43.3472844" lon="13.1542336"><ele>367.0</ele><time>2026-04-19T11:37:08.247Z</time></trkpt><trkpt lat="43.3472386" lon="13.1543558"><ele>367.0</ele><time>2026-04-19T11:37:09.247Z</time></trkpt><trkpt lat="43.3471848" lon="13.1544505"><ele>367.0</ele><time>2026-04-19T11:37:10.247Z</time></trkpt><trkpt lat="43.3471136" lon="13.154521"><ele>367.0</ele><time>2026-04-19T11:37:11.246Z</time></trkpt><trkpt lat="43.3470226" lon="13.154555"><ele>367.0</ele><time>2026-04-19T11:37:12.247Z</time></trkpt><trkpt lat="43.3469177" lon="13.1545588"><ele>367.0</ele><time>2026-04-19T11:37:13.247Z</time></trkpt><trkpt lat="43.3468248" lon="13.1545699"><ele>367.0</ele><time>2026-04-19T11:37:14.245Z</time></trkpt><trkpt lat="43.3467668" lon="13.1546126"><ele>367.0</ele><time>2026-04-19T11:37:15.247Z</time></trkpt><trkpt lat="43.3467333" lon="13.1547661"><ele>367.0</ele><time>2026-04-19T11:37:17.246Z</time></trkpt><trkpt lat="43.3467233" lon="13.1548857"><ele>367.0</ele><time>2026-04-19T11:37:18.247Z</time></trkpt><trkpt lat="43.3467057" lon="13.1550284"><ele>361.25</ele><time>2026-04-19T11:37:19.247Z</time></trkpt><trkpt lat="43.3466874" lon="13.1551901"><ele>355.5</ele><time>2026-04-19T11:37:20.247Z</time></trkpt><trkpt lat="43.346667" lon="13.1553545"><ele>349.75</ele><time>2026-04-19T11:37:21.247Z</time></trkpt><trkpt lat="43.3466463" lon="13.1555138"><ele>344.0</ele><time>2026-04-19T11:37:22.246Z</time></trkpt><trkpt lat="43.3466259" lon="13.1556722"><ele>341.75</ele><time>2026-04-19T11:37:23.247Z</time></trkpt><trkpt lat="43.3466085" lon="13.1558248"><ele>339.5</ele><time>2026-04-19T11:37:24.247Z</time></trkpt><trkpt lat="43.346596" lon="13.1559713"><ele>337.25</ele><time>2026-04-19T11:37:25.247Z</time></trkpt><trkpt lat="43.3465992" lon="13.1561241"><ele>335.0</ele><time>2026-04-19T11:37:26.246Z</time></trkpt><trkpt lat="43.3466247" lon="13.1562885"><ele>335.0</ele><time>2026-04-19T11:37:27.247Z</time></trkpt><trkpt lat="43.3466624" lon="13.1564591"><ele>335.0</ele><time>2026-04-19T11:37:28.247Z</time></trkpt><trkpt lat="43.3467027" lon="13.1566341"><ele>335.0</ele><time>2026-04-19T11:37:29.246Z</time></trkpt><trkpt lat="43.346753" lon="13.1568049"><ele>335.0</ele><time>2026-04-19T11:37:30.247Z</time></trkpt><trkpt lat="43.3468088" lon="13.1569732"><ele>336.0</ele><time>2026-04-19T11:37:31.247Z</time></trkpt><trkpt lat="43.3468679" lon="13.1571382"><ele>337.0</ele><time>2026-04-19T11:37:32.247Z</time></trkpt><trkpt lat="43.3469342" lon="13.1573006"><ele>338.0</ele><time>2026-04-19T11:37:33.247Z</time></trkpt><trkpt lat="43.3469948" lon="13.1574508"><ele>339.0</ele><time>2026-04-19T11:37:34.247Z</time></trkpt><trkpt lat="43.3470564" lon="13.1576027"><ele>340.5</ele><time>2026-04-19T11:37:35.246Z</time></trkpt><trkpt lat="43.3471115" lon="13.157765"><ele>342.0</ele><time>2026-04-19T11:37:36.247Z</time></trkpt><trkpt lat="43.3471584" lon="13.1579321"><ele>343.5</ele><time>2026-04-19T11:37:37.246Z</time></trkpt><trkpt lat="43.3471874" lon="13.1580895"><ele>345.0</ele><time>2026-04-19T11:37:38.247Z</time></trkpt><trkpt lat="43.3471917" lon="13.1582236"><ele>346.8</ele><time>2026-04-19T11:37:39.247Z</time></trkpt><trkpt lat="43.3471741" lon="13.1583175"><ele>348.6</ele><time>2026-04-19T11:37:40.247Z</time></trkpt><trkpt lat="43.347129" lon="13.1584184"><ele>350.4</ele><time>2026-04-19T11:37:42.246Z</time></trkpt><trkpt lat="43.3470305" lon="13.1585483"><ele>352.2</ele><time>2026-04-19T11:37:44.247Z</time></trkpt><trkpt lat="43.3469568" lon="13.1586378"><ele>354.0</ele><time>2026-04-19T11:37:45.246Z</time></trkpt><trkpt lat="43.3468701" lon="13.1587391"><ele>354.0</ele><time>2026-04-19T11:37:46.247Z</time></trkpt><trkpt lat="43.3467857" lon="13.1588422"><ele>354.0</ele><time>2026-04-19T11:37:47.247Z</time></trkpt><trkpt lat="43.3466908" lon="13.1589502"><ele>354.0</ele><time>2026-04-19T11:37:48.247Z</time></trkpt><trkpt lat="43.3465922" lon="13.159044"><ele>354.0</ele><time>2026-04-19T11:37:49.247Z</time></trkpt><trkpt lat="43.3465075" lon="13.1591216"><ele>354.5</ele><time>2026-04-19T11:37:50.246Z</time></trkpt><trkpt lat="43.3464322" lon="13.1591853"><ele>355.0</ele><time>2026-04-19T11:37:51.245Z</time></trkpt><trkpt lat="43.3463692" lon="13.1592292"><ele>355.5</ele><time>2026-04-19T11:37:52.247Z</time></trkpt><trkpt lat="43.3462727" lon="13.1593075"><ele>356.0</ele><time>2026-04-19T11:37:54.246Z</time></trkpt><trkpt lat="43.3462286" lon="13.159437"><ele>356.5</ele><time>2026-04-19T11:37:56.247Z</time></trkpt><trkpt lat="43.3462105" lon="13.1595259"><ele>357.0</ele><time>2026-04-19T11:37:57.247Z</time></trkpt><trkpt lat="43.346203" lon="13.1596434"><ele>357.40000000000003</ele><time>2026-04-19T11:37:58.247Z</time></trkpt><trkpt lat="43.3462019" lon="13.1597785"><ele>357.8</ele><time>2026-04-19T11:37:59.246Z</time></trkpt><trkpt lat="43.3461839" lon="13.1599103"><ele>358.2</ele><time>2026-04-19T11:38:00.247Z</time></trkpt><trkpt lat="43.3461679" lon="13.1600506"><ele>358.6</ele><time>2026-04-19T11:38:01.247Z</time></trkpt><trkpt lat="43.3461434" lon="13.160193"><ele>359.0</ele><time>2026-04-19T11:38:02.246Z</time></trkpt><trkpt lat="43.3461012" lon="13.160335"><ele>360.6</ele><time>2026-04-19T11:38:03.247Z</time></trkpt><trkpt lat="43.3460555" lon="13.1604786"><ele>362.2</ele><time>2026-04-19T11:38:04.247Z</time></trkpt><trkpt lat="43.345998" lon="13.1605952"><ele>363.8</ele><time>2026-04-19T11:38:05.247Z</time></trkpt><trkpt lat="43.3459277" lon="13.1606907"><ele>365.40000000000003</ele><time>2026-04-19T11:38:06.247Z</time></trkpt><trkpt lat="43.345844" lon="13.1607607"><ele>367.0</ele><time>2026-04-19T11:38:07.246Z</time></trkpt><trkpt lat="43.3457387" lon="13.1608191"><ele>367.75</ele><time>2026-04-19T11:38:08.246Z</time></trkpt><trkpt lat="43.3456197" lon="13.1608733"><ele>368.5</ele><time>2026-04-19T11:38:09.246Z</time></trkpt><trkpt lat="43.345495" lon="13.1609172"><ele>369.25</ele><time>2026-04-19T11:38:10.247Z</time></trkpt><trkpt lat="43.3453799" lon="13.1609396"><ele>370.0</ele><time>2026-04-19T11:38:11.247Z</time></trkpt><trkpt lat="43.3452612" lon="13.1609531"><ele>371.8</ele><time>2026-04-19T11:38:12.247Z</time></trkpt><trkpt lat="43.3451515" lon="13.1609519"><ele>373.6</ele><time>2026-04-19T11:38:13.247Z</time></trkpt><trkpt lat="43.3450579" lon="13.1609544"><ele>375.4</ele><time>2026-04-19T11:38:14.246Z</time></trkpt><trkpt lat="43.3449783" lon="13.1609704"><ele>377.2</ele><time>2026-04-19T11:38:15.246Z</time></trkpt><trkpt lat="43.3449068" lon="13.1610088"><ele>379.0</ele><time>2026-04-19T11:38:16.245Z</time></trkpt><trkpt lat="43.3448509" lon="13.1611515"><ele>379.0</ele><time>2026-04-19T11:38:18.245Z</time></trkpt><trkpt lat="43.3448502" lon="13.1612453"><ele>379.0</ele><time>2026-04-19T11:38:19.246Z</time></trkpt><trkpt lat="43.3448684" lon="13.161352"><ele>379.0</ele><time>2026-04-19T11:38:20.247Z</time></trkpt><trkpt lat="43.3449046" lon="13.1615008"><ele>379.0</ele><time>2026-04-19T11:38:21.247Z</time></trkpt><trkpt lat="43.3449541" lon="13.1616583"><ele>379.0</ele><time>2026-04-19T11:38:22.246Z</time></trkpt><trkpt lat="43.3449955" lon="13.1617825"><ele>381.4</ele><time>2026-04-19T11:38:23.247Z</time></trkpt><trkpt lat="43.3450153" lon="13.1618976"><ele>383.79999999999995</ele><time>2026-04-19T11:38:24.247Z</time></trkpt><trkpt lat="43.345008" lon="13.1620181"><ele>386.20000000000005</ele><time>2026-04-19T11:38:25.247Z</time></trkpt><trkpt lat="43.3449811" lon="13.1621401"><ele>388.6</ele><time>2026-04-19T11:38:26.246Z</time></trkpt><trkpt lat="43.3449366" lon="13.1622579"><ele>391.0</ele><time>2026-04-19T11:38:27.246Z</time></trkpt><trkpt lat="43.3448746" lon="13.1623591"><ele>392.25</ele><time>2026-04-19T11:38:28.246Z</time></trkpt><trkpt lat="43.3447881" lon="13.1624575"><ele>393.5</ele><time>2026-04-19T11:38:29.247Z</time></trkpt><trkpt lat="43.344675" lon="13.1625576"><ele>394.75</ele><time>2026-04-19T11:38:30.247Z</time></trkpt><trkpt lat="43.3445572" lon="13.1626408"><ele>396.0</ele><time>2026-04-19T11:38:31.247Z</time></trkpt><trkpt lat="43.3444555" lon="13.162725"><ele>397.8</ele><time>2026-04-19T11:38:32.247Z</time></trkpt><trkpt lat="43.3443635" lon="13.1628167"><ele>399.6</ele><time>2026-04-19T11:38:33.246Z</time></trkpt><trkpt lat="43.3442742" lon="13.1629138"><ele>401.4</ele><time>2026-04-19T11:38:34.246Z</time></trkpt><trkpt lat="43.3441925" lon="13.1630116"><ele>403.2</ele><time>2026-04-19T11:38:35.247Z</time></trkpt><trkpt lat="43.3441102" lon="13.1631142"><ele>405.0</ele><time>2026-04-19T11:38:36.245Z</time></trkpt><trkpt lat="43.344033" lon="13.1632178"><ele>406.4</ele><time>2026-04-19T11:38:37.246Z</time></trkpt><trkpt lat="43.3439673" lon="13.1633185"><ele>407.8</ele><time>2026-04-19T11:38:38.245Z</time></trkpt><trkpt lat="43.3439219" lon="13.1634293"><ele>409.20000000000005</ele><time>2026-04-19T11:38:39.246Z</time></trkpt><trkpt lat="43.3438956" lon="13.163561"><ele>410.6</ele><time>2026-04-19T11:38:40.247Z</time></trkpt><trkpt lat="43.343891" lon="13.163709"><ele>412.0</ele><time>2026-04-19T11:38:41.247Z</time></trkpt><trkpt lat="43.3438984" lon="13.1638674"><ele>415.25</ele><time>2026-04-19T11:38:42.247Z</time></trkpt><trkpt lat="43.3439166" lon="13.1640324"><ele>418.5</ele><time>2026-04-19T11:38:43.246Z</time></trkpt><trkpt lat="43.3439442" lon="13.1641871"><ele>421.75</ele><time>2026-04-19T11:38:44.247Z</time></trkpt><trkpt lat="43.3439775" lon="13.1643379"><ele>425.0</ele><time>2026-04-19T11:38:45.247Z</time></trkpt><trkpt lat="43.3439974" lon="13.16449"><ele>425.0</ele><time>2026-04-19T11:38:46.246Z</time></trkpt><trkpt lat="43.343982" lon="13.1646468"><ele>425.0</ele><time>2026-04-19T11:38:47.247Z</time></trkpt><trkpt lat="43.3439697" lon="13.164794"><ele>425.0</ele><time>2026-04-19T11:38:48.246Z</time></trkpt><trkpt lat="43.3439108" lon="13.1649616"><ele>425.0</ele><time>2026-04-19T11:38:49.246Z</time></trkpt><trkpt lat="43.3438435" lon="13.1651225"><ele>427.0</ele><time>2026-04-19T11:38:50.247Z</time></trkpt><trkpt lat="43.3437755" lon="13.1652996"><ele>429.0</ele><time>2026-04-19T11:38:51.246Z</time></trkpt><trkpt lat="43.3437049" lon="13.1654435"><ele>431.0</ele><time>2026-04-19T11:38:52.246Z</time></trkpt><trkpt lat="43.3436396" lon="13.1655997"><ele>433.0</ele><time>2026-04-19T11:38:53.247Z</time></trkpt><trkpt lat="43.3435805" lon="13.1657392"><ele>437.5</ele><time>2026-04-19T11:38:54.247Z</time></trkpt><trkpt lat="43.3435238" lon="13.1658812"><ele>442.0</ele><time>2026-04-19T11:38:55.246Z</time></trkpt><trkpt lat="43.3434668" lon="13.1660138"><ele>446.5</ele><time>2026-04-19T11:38:56.247Z</time></trkpt><trkpt lat="43.3434076" lon="13.166151"><ele>451.0</ele><time>2026-04-19T11:38:57.246Z</time></trkpt><trkpt lat="43.343342" lon="13.1662962"><ele>451.0</ele><time>2026-04-19T11:38:58.247Z</time></trkpt><trkpt lat="43.3432734" lon="13.1664416"><ele>451.0</ele><time>2026-04-19T11:38:59.246Z</time></trkpt><trkpt lat="43.3432064" lon="13.1665775"><ele>451.0</ele><time>2026-04-19T11:39:00.247Z</time></trkpt><trkpt lat="43.343145" lon="13.1667117"><ele>451.0</ele><time>2026-04-19T11:39:01.245Z</time></trkpt><trkpt lat="43.3431067" lon="13.1668403"><ele>453.4</ele><time>2026-04-19T11:39:02.246Z</time></trkpt><trkpt lat="43.3430987" lon="13.1669699"><ele>455.8</ele><time>2026-04-19T11:39:03.246Z</time></trkpt><trkpt lat="43.3431183" lon="13.1671188"><ele>458.19999999999993</ele><time>2026-04-19T11:39:04.247Z</time></trkpt><trkpt lat="43.3431501" lon="13.16727"><ele>460.59999999999997</ele><time>2026-04-19T11:39:05.246Z</time></trkpt><trkpt lat="43.3431765" lon="13.167418"><ele>463.0</ele><time>2026-04-19T11:39:06.246Z</time></trkpt><trkpt lat="43.3431877" lon="13.1675657"><ele>464.4</ele><time>2026-04-19T11:39:07.247Z</time></trkpt><trkpt lat="43.3432014" lon="13.1676956"><ele>465.79999999999995</ele><time>2026-04-19T11:39:08.247Z</time></trkpt><trkpt lat="43.3432114" lon="13.1678412"><ele>467.2</ele><time>2026-04-19T11:39:09.247Z</time></trkpt><trkpt lat="43.3432192" lon="13.1679913"><ele>468.6</ele><time>2026-04-19T11:39:10.247Z</time></trkpt><trkpt lat="43.3432345" lon="13.1681434"><ele>470.0</ele><time>2026-04-19T11:39:11.246Z</time></trkpt><trkpt lat="43.3432553" lon="13.1682987"><ele>470.0</ele><time>2026-04-19T11:39:12.247Z</time></trkpt><trkpt lat="43.3432746" lon="13.1684565"><ele>470.0</ele><time>2026-04-19T11:39:13.247Z</time></trkpt><trkpt lat="43.3432941" lon="13.16861"><ele>470.0</ele><time>2026-04-19T11:39:14.246Z</time></trkpt><trkpt lat="43.343308" lon="13.1687398"><ele>470.0</ele><time>2026-04-19T11:39:15.246Z</time></trkpt><trkpt lat="43.3433155" lon="13.1688504"><ele>470.0</ele><time>2026-04-19T11:39:16.246Z</time></trkpt><trkpt lat="43.3433055" lon="13.1689679"><ele>469.5</ele><time>2026-04-19T11:39:17.246Z</time></trkpt><trkpt lat="43.3432805" lon="13.1691136"><ele>469.0</ele><time>2026-04-19T11:39:18.245Z</time></trkpt><trkpt lat="43.3432559" lon="13.1692557"><ele>468.5</ele><time>2026-04-19T11:39:19.245Z</time></trkpt><trkpt lat="43.3431975" lon="13.169429"><ele>468.0</ele><time>2026-04-19T11:39:20.245Z</time></trkpt><trkpt lat="43.3431448" lon="13.1695666"><ele>468.0</ele><time>2026-04-19T11:39:21.246Z</time></trkpt><trkpt lat="43.3431014" lon="13.1697298"><ele>468.0</ele><time>2026-04-19T11:39:22.245Z</time></trkpt><trkpt lat="43.3430736" lon="13.169906"><ele>468.0</ele><time>2026-04-19T11:39:23.246Z</time></trkpt><trkpt lat="43.3430531" lon="13.1700657"><ele>468.0</ele><time>2026-04-19T11:39:24.245Z</time></trkpt><trkpt lat="43.3430545" lon="13.1702121"><ele>467.75</ele><time>2026-04-19T11:39:25.246Z</time></trkpt><trkpt lat="43.3430576" lon="13.170359"><ele>467.5</ele><time>2026-04-19T11:39:26.245Z</time></trkpt><trkpt lat="43.3431289" lon="13.1704852"><ele>467.25</ele><time>2026-04-19T11:39:27.246Z</time></trkpt><trkpt lat="43.3431835" lon="13.1706325"><ele>467.0</ele><time>2026-04-19T11:39:28.246Z</time></trkpt><trkpt lat="43.3432504" lon="13.170773"><ele>467.40000000000003</ele><time>2026-04-19T11:39:29.246Z</time></trkpt><trkpt lat="43.3433058" lon="13.1708999"><ele>467.80000000000007</ele><time>2026-04-19T11:39:30.246Z</time></trkpt><trkpt lat="43.3433488" lon="13.1710263"><ele>468.2</ele><time>2026-04-19T11:39:31.245Z</time></trkpt><trkpt lat="43.3433845" lon="13.1711696"><ele>468.6</ele><time>2026-04-19T11:39:32.246Z</time></trkpt><trkpt lat="43.3434159" lon="13.1713411"><ele>469.0</ele><time>2026-04-19T11:39:33.246Z</time></trkpt><trkpt lat="43.343443" lon="13.1715285"><ele>469.0</ele><time>2026-04-19T11:39:34.244Z</time></trkpt><trkpt lat="43.3434719" lon="13.1717447"><ele>469.0</ele><time>2026-04-19T11:39:35.246Z</time></trkpt><trkpt lat="43.3434934" lon="13.1719678"><ele>469.0</ele><time>2026-04-19T11:39:36.244Z</time></trkpt><trkpt lat="43.3435089" lon="13.172192"><ele>466.6666666666667</ele><time>2026-04-19T11:39:37.246Z</time></trkpt><trkpt lat="43.3435186" lon="13.1724196"><ele>464.33333333333337</ele><time>2026-04-19T11:39:38.245Z</time></trkpt><trkpt lat="43.3435173" lon="13.1726323"><ele>462.0</ele><time>2026-04-19T11:39:39.245Z</time></trkpt><trkpt lat="43.3435135" lon="13.1728331"><ele>462.0</ele><time>2026-04-19T11:39:40.246Z</time></trkpt><trkpt lat="43.3435064" lon="13.173029"><ele>462.0</ele><time>2026-04-19T11:39:41.246Z</time></trkpt><trkpt lat="43.3434993" lon="13.1732245"><ele>462.0</ele><time>2026-04-19T11:39:42.246Z</time></trkpt><trkpt lat="43.3434935" lon="13.1734074"><ele>462.0</ele><time>2026-04-19T11:39:43.246Z</time></trkpt><trkpt lat="43.3434927" lon="13.1735811"><ele>462.20000000000005</ele><time>2026-04-19T11:39:44.246Z</time></trkpt><trkpt lat="43.3435025" lon="13.173744"><ele>462.40000000000003</ele><time>2026-04-19T11:39:45.245Z</time></trkpt><trkpt lat="43.3435242" lon="13.1738993"><ele>462.59999999999997</ele><time>2026-04-19T11:39:46.246Z</time></trkpt><trkpt lat="43.3435582" lon="13.1740457"><ele>462.79999999999995</ele><time>2026-04-19T11:39:47.245Z</time></trkpt><trkpt lat="43.3436004" lon="13.1741716"><ele>463.0</ele><time>2026-04-19T11:39:48.246Z</time></trkpt><trkpt lat="43.343647" lon="13.1742891"><ele>463.0</ele><time>2026-04-19T11:39:49.245Z</time></trkpt><trkpt lat="43.3436948" lon="13.1744202"><ele>462.99999999999994</ele><time>2026-04-19T11:39:50.246Z</time></trkpt><trkpt lat="43.3437309" lon="13.1745573"><ele>462.99999999999994</ele><time>2026-04-19T11:39:51.246Z</time></trkpt><trkpt lat="43.3437646" lon="13.1747"><ele>463.0</ele><time>2026-04-19T11:39:52.246Z</time></trkpt><trkpt lat="43.3438033" lon="13.174839"><ele>463.0</ele><time>2026-04-19T11:39:53.246Z</time></trkpt><trkpt lat="43.3438336" lon="13.1749519"><ele>465.59999999999997</ele><time>2026-04-19T11:39:54.246Z</time></trkpt><trkpt lat="43.3438911" lon="13.1750648"><ele>468.19999999999993</ele><time>2026-04-19T11:39:55.246Z</time></trkpt><trkpt lat="43.3439516" lon="13.1752038"><ele>470.8</ele><time>2026-04-19T11:39:56.246Z</time></trkpt><trkpt lat="43.3440179" lon="13.1753337"><ele>473.4</ele><time>2026-04-19T11:39:57.246Z</time></trkpt><trkpt lat="43.3440769" lon="13.1754672"><ele>476.0</ele><time>2026-04-19T11:39:58.246Z</time></trkpt><trkpt lat="43.344128" lon="13.175581"><ele>475.99999999999994</ele><time>2026-04-19T11:39:59.246Z</time></trkpt><trkpt lat="43.3441846" lon="13.175683"><ele>476.0</ele><time>2026-04-19T11:40:00.245Z</time></trkpt><trkpt lat="43.3442507" lon="13.1757585"><ele>476.0</ele><time>2026-04-19T11:40:01.245Z</time></trkpt><trkpt lat="43.3443256" lon="13.1758146"><ele>476.0</ele><time>2026-04-19T11:40:02.245Z</time></trkpt><trkpt lat="43.3443889" lon="13.175869"><ele>475.99999999999994</ele><time>2026-04-19T11:40:03.246Z</time></trkpt><trkpt lat="43.3444257" lon="13.1759781"><ele>476.0</ele><time>2026-04-19T11:40:05.246Z</time></trkpt><trkpt lat="43.3443798" lon="13.1760755"><ele>478.4</ele><time>2026-04-19T11:40:07.245Z</time></trkpt><trkpt lat="43.3442749" lon="13.1761839"><ele>480.8</ele><time>2026-04-19T11:40:09.246Z</time></trkpt><trkpt lat="43.3442096" lon="13.1762677"><ele>483.19999999999993</ele><time>2026-04-19T11:40:10.245Z</time></trkpt><trkpt lat="43.3441078" lon="13.176361"><ele>485.59999999999997</ele><time>2026-04-19T11:40:11.245Z</time></trkpt><trkpt lat="43.344023" lon="13.1764254"><ele>488.0</ele><time>2026-04-19T11:40:12.246Z</time></trkpt><trkpt lat="43.343954" lon="13.1765008"><ele>488.8571428571428</ele><time>2026-04-19T11:40:13.246Z</time></trkpt><trkpt lat="43.3438862" lon="13.1765729"><ele>489.71428571428567</ele><time>2026-04-19T11:40:14.246Z</time></trkpt><trkpt lat="43.3438282" lon="13.1766439"><ele>490.57142857142856</ele><time>2026-04-19T11:40:15.245Z</time></trkpt><trkpt lat="43.3437724" lon="13.1767202"><ele>491.4285714285714</ele><time>2026-04-19T11:40:16.246Z</time></trkpt><trkpt lat="43.3437284" lon="13.176801"><ele>492.2857142857142</ele><time>2026-04-19T11:40:17.245Z</time></trkpt><trkpt lat="43.3436919" lon="13.1768788"><ele>493.14285714285717</ele><time>2026-04-19T11:40:18.246Z</time></trkpt><trkpt lat="43.343657" lon="13.176951"><ele>494.0</ele><time>2026-04-19T11:40:19.246Z</time></trkpt><trkpt lat="43.3436291" lon="13.1770298"><ele>494.0</ele><time>2026-04-19T11:40:20.246Z</time></trkpt><trkpt lat="43.3435891" lon="13.1771341"><ele>494.0</ele><time>2026-04-19T11:40:22.246Z</time></trkpt><trkpt lat="43.343527" lon="13.1772035"><ele>494.0</ele><time>2026-04-19T11:42:49.246Z</time></trkpt><trkpt lat="43.3434506" lon="13.1772612"><ele>494.0</ele><time>2026-04-19T11:42:52.245Z</time></trkpt><trkpt lat="43.3433239" lon="13.1773777"><ele>494.0</ele><time>2026-04-19T11:42:54.246Z</time></trkpt><trkpt lat="43.3432399" lon="13.1774759"><ele>492.0</ele><time>2026-04-19T11:42:55.246Z</time></trkpt><trkpt lat="43.3431543" lon="13.1775751"><ele>490.0</ele><time>2026-04-19T11:42:56.246Z</time></trkpt><trkpt lat="43.3430707" lon="13.1776723"><ele>488.0</ele><time>2026-04-19T11:42:57.245Z</time></trkpt><trkpt lat="43.3429949" lon="13.1777757"><ele>486.0</ele><time>2026-04-19T11:42:58.246Z</time></trkpt><trkpt lat="43.3429212" lon="13.177899"><ele>484.0</ele><time>2026-04-19T11:42:59.246Z</time></trkpt><trkpt lat="43.3428598" lon="13.1780172"><ele>484.0</ele><time>2026-04-19T11:43:00.246Z</time></trkpt><trkpt lat="43.3428147" lon="13.1781256"><ele>484.0</ele><time>2026-04-19T11:43:01.246Z</time></trkpt><trkpt lat="43.3427844" lon="13.1782402"><ele>484.0</ele><time>2026-04-19T11:43:02.245Z</time></trkpt><trkpt lat="43.3427633" lon="13.1783675"><ele>484.0</ele><time>2026-04-19T11:43:03.246Z</time></trkpt><trkpt lat="43.3427448" lon="13.1785209"><ele>484.0</ele><time>2026-04-19T11:43:04.246Z</time></trkpt><trkpt lat="43.3427291" lon="13.1786627"><ele>485.00000000000006</ele><time>2026-04-19T11:43:05.246Z</time></trkpt><trkpt lat="43.3427052" lon="13.1787835"><ele>486.0</ele><time>2026-04-19T11:43:06.246Z</time></trkpt><trkpt lat="43.3427051" lon="13.1788983"><ele>487.0</ele><time>2026-04-19T11:43:07.245Z</time></trkpt><trkpt lat="43.3427101" lon="13.1790194"><ele>488.0</ele><time>2026-04-19T11:43:08.246Z</time></trkpt><trkpt lat="43.3427376" lon="13.179128"><ele>489.00000000000006</ele><time>2026-04-19T11:43:09.245Z</time></trkpt><trkpt lat="43.3427917" lon="13.1792351"><ele>490.0</ele><time>2026-04-19T11:43:10.246Z</time></trkpt><trkpt lat="43.3428603" lon="13.1793366"><ele>490.0</ele><time>2026-04-19T11:43:11.245Z</time></trkpt><trkpt lat="43.3429332" lon="13.179428"><ele>490.0</ele><time>2026-04-19T11:43:12.246Z</time></trkpt><trkpt lat="43.3430025" lon="13.1795144"><ele>490.0</ele><time>2026-04-19T11:43:13.245Z</time></trkpt><trkpt lat="43.3430682" lon="13.1796136"><ele>490.0</ele><time>2026-04-19T11:43:14.246Z</time></trkpt><trkpt lat="43.3431222" lon="13.1797326"><ele>490.0</ele><time>2026-04-19T11:43:15.246Z</time></trkpt><trkpt lat="43.3431528" lon="13.1798675"><ele>493.5</ele><time>2026-04-19T11:43:16.246Z</time></trkpt><trkpt lat="43.3431676" lon="13.1800239"><ele>497.0</ele><time>2026-04-19T11:43:17.244Z</time></trkpt><trkpt lat="43.3431702" lon="13.1801871"><ele>500.5</ele><time>2026-04-19T11:43:18.246Z</time></trkpt><trkpt lat="43.3431601" lon="13.1803549"><ele>504.0</ele><time>2026-04-19T11:43:19.246Z</time></trkpt><trkpt lat="43.3431459" lon="13.1805177"><ele>504.0</ele><time>2026-04-19T11:43:20.245Z</time></trkpt><trkpt lat="43.343132" lon="13.1806734"><ele>504.0</ele><time>2026-04-19T11:43:21.245Z</time></trkpt><trkpt lat="43.3431169" lon="13.180828"><ele>504.0</ele><time>2026-04-19T11:43:22.244Z</time></trkpt><trkpt lat="43.3431072" lon="13.1809758"><ele>504.0</ele><time>2026-04-19T11:43:23.246Z</time></trkpt><trkpt lat="43.3431081" lon="13.1811296"><ele>504.0</ele><time>2026-04-19T11:43:24.246Z</time></trkpt><trkpt lat="43.3431146" lon="13.1813028"><ele>504.6</ele><time>2026-04-19T11:43:25.246Z</time></trkpt><trkpt lat="43.3431092" lon="13.1814658"><ele>505.2</ele><time>2026-04-19T11:43:26.245Z</time></trkpt><trkpt lat="43.343096" lon="13.181619"><ele>505.80000000000007</ele><time>2026-04-19T11:43:27.245Z</time></trkpt><trkpt lat="43.3430725" lon="13.1817622"><ele>506.40000000000003</ele><time>2026-04-19T11:43:28.246Z</time></trkpt><trkpt lat="43.3430272" lon="13.1818858"><ele>507.0</ele><time>2026-04-19T11:43:29.246Z</time></trkpt><trkpt lat="43.3429678" lon="13.1819836"><ele>506.3333333333333</ele><time>2026-04-19T11:43:30.245Z</time></trkpt><trkpt lat="43.3428928" lon="13.1820778"><ele>505.66666666666663</ele><time>2026-04-19T11:43:31.246Z</time></trkpt><trkpt lat="43.3428162" lon="13.1821733"><ele>505.0</ele><time>2026-04-19T11:43:32.246Z</time></trkpt><trkpt lat="43.3427553" lon="13.1822707"><ele>504.3333333333333</ele><time>2026-04-19T11:43:33.246Z</time></trkpt><trkpt lat="43.3427079" lon="13.1823599"><ele>503.66666666666663</ele><time>2026-04-19T11:43:34.244Z</time></trkpt><trkpt lat="43.3426806" lon="13.1824409"><ele>503.0</ele><time>2026-04-19T11:43:35.246Z</time></trkpt><trkpt lat="43.3426969" lon="13.1825884"><ele>503.0</ele><time>2026-04-19T11:43:37.246Z</time></trkpt><trkpt lat="43.3428071" lon="13.182676"><ele>502.99999999999994</ele><time>2026-04-19T11:43:39.245Z</time></trkpt><trkpt lat="43.3428879" lon="13.1827012"><ele>502.99999999999994</ele><time>2026-04-19T11:43:40.245Z</time></trkpt><trkpt lat="43.3429694" lon="13.1827168"><ele>503.0</ele><time>2026-04-19T11:43:41.245Z</time></trkpt><trkpt lat="43.3430348" lon="13.1827218"><ele>503.0</ele><time>2026-04-19T11:43:42.244Z</time></trkpt><trkpt lat="43.3431413" lon="13.1827124"><ele>506.0</ele><time>2026-04-19T11:43:44.246Z</time></trkpt><trkpt lat="43.3432298" lon="13.1826954"><ele>508.99999999999994</ele><time>2026-04-19T11:43:46.245Z</time></trkpt><trkpt lat="43.343291" lon="13.1827507"><ele>511.99999999999994</ele><time>2026-04-19T11:43:48.246Z</time></trkpt><trkpt lat="43.3433279" lon="13.1828428"><ele>515.0</ele><time>2026-04-19T11:43:50.244Z</time></trkpt><trkpt lat="43.3433631" lon="13.1829589"><ele>518.0</ele><time>2026-04-19T11:43:52.245Z</time></trkpt><trkpt lat="43.3434097" lon="13.1831101"><ele>518.5</ele><time>2026-04-19T11:43:54.246Z</time></trkpt><trkpt lat="43.3434352" lon="13.1831957"><ele>519.0</ele><time>2026-04-19T11:43:55.246Z</time></trkpt><trkpt lat="43.3434651" lon="13.1832768"><ele>519.5</ele><time>2026-04-19T11:43:56.244Z</time></trkpt><trkpt lat="43.3435044" lon="13.1833754"><ele>520.0</ele><time>2026-04-19T11:43:57.246Z</time></trkpt><trkpt lat="43.3435388" lon="13.1834617"><ele>520.5</ele><time>2026-04-19T11:43:58.246Z</time></trkpt><trkpt lat="43.3435707" lon="13.1835392"><ele>521.0</ele><time>2026-04-19T11:43:59.246Z</time></trkpt><trkpt lat="43.3436363" lon="13.1836915"><ele>521.0</ele><time>2026-04-19T11:44:01.245Z</time></trkpt><trkpt lat="43.3436723" lon="13.1837657"><ele>521.0</ele><time>2026-04-19T11:44:02.245Z</time></trkpt><trkpt lat="43.3437127" lon="13.1838428"><ele>521.0</ele><time>2026-04-19T11:44:03.246Z</time></trkpt><trkpt lat="43.3437784" lon="13.1839646"><ele>521.0</ele><time>2026-04-19T11:44:05.245Z</time></trkpt><trkpt lat="43.3438306" lon="13.1840705"><ele>521.0</ele><time>2026-04-19T11:44:07.245Z</time></trkpt><trkpt lat="43.3438558" lon="13.1841626"><ele>521.0</ele><time>2026-04-19T11:44:08.245Z</time></trkpt><trkpt lat="43.3438946" lon="13.1842743"><ele>524.6</ele><time>2026-04-19T11:44:09.246Z</time></trkpt><trkpt lat="43.3439485" lon="13.1843819"><ele>528.2</ele><time>2026-04-19T11:44:10.246Z</time></trkpt><trkpt lat="43.3440121" lon="13.1845069"><ele>531.8</ele><time>2026-04-19T11:44:11.245Z</time></trkpt><trkpt lat="43.3440875" lon="13.1846303"><ele>535.4</ele><time>2026-04-19T11:44:12.245Z</time></trkpt><trkpt lat="43.3441794" lon="13.1847463"><ele>539.0</ele><time>2026-04-19T11:44:13.245Z</time></trkpt><trkpt lat="43.3442836" lon="13.1848507"><ele>539.0</ele><time>2026-04-19T11:44:14.245Z</time></trkpt><trkpt lat="43.3443926" lon="13.1849505"><ele>539.0</ele><time>2026-04-19T11:44:15.245Z</time></trkpt><trkpt lat="43.3445056" lon="13.1850515"><ele>539.0</ele><time>2026-04-19T11:44:16.246Z</time></trkpt><trkpt lat="43.3446118" lon="13.1851676"><ele>539.0</ele><time>2026-04-19T11:44:17.245Z</time></trkpt><trkpt lat="43.3447117" lon="13.1852961"><ele>539.75</ele><time>2026-04-19T11:44:18.246Z</time></trkpt><trkpt lat="43.344803" lon="13.1854375"><ele>540.5</ele><time>2026-04-19T11:44:19.246Z</time></trkpt><trkpt lat="43.3448842" lon="13.1855934"><ele>541.25</ele><time>2026-04-19T11:44:20.246Z</time></trkpt><trkpt lat="43.3449577" lon="13.1857542"><ele>542.0</ele><time>2026-04-19T11:44:21.246Z</time></trkpt><trkpt lat="43.3450305" lon="13.1859112"><ele>542.0</ele><time>2026-04-19T11:44:22.246Z</time></trkpt><trkpt lat="43.3450976" lon="13.1860676"><ele>542.0</ele><time>2026-04-19T11:44:23.246Z</time></trkpt><trkpt lat="43.345168" lon="13.1862276"><ele>542.0</ele><time>2026-04-19T11:44:24.246Z</time></trkpt><trkpt lat="43.3452348" lon="13.1863944"><ele>542.0</ele><time>2026-04-19T11:44:25.246Z</time></trkpt><trkpt lat="43.345293" lon="13.1865728"><ele>541.3333333333333</ele><time>2026-04-19T11:44:26.246Z</time></trkpt><trkpt lat="43.3453456" lon="13.186763"><ele>540.6666666666666</ele><time>2026-04-19T11:44:27.244Z</time></trkpt><trkpt lat="43.3453924" lon="13.1869588"><ele>540.0</ele><time>2026-04-19T11:44:28.245Z</time></trkpt><trkpt lat="43.3454277" lon="13.1871629"><ele>539.6666666666666</ele><time>2026-04-19T11:44:29.244Z</time></trkpt><trkpt lat="43.3454501" lon="13.1873719"><ele>539.3333333333333</ele><time>2026-04-19T11:44:30.244Z</time></trkpt><trkpt lat="43.3454593" lon="13.1875847"><ele>539.0</ele><time>2026-04-19T11:44:31.245Z</time></trkpt><trkpt lat="43.3454638" lon="13.1877978"><ele>539.0</ele><time>2026-04-19T11:44:32.246Z</time></trkpt><trkpt lat="43.3454664" lon="13.1880059"><ele>539.0</ele><time>2026-04-19T11:44:33.246Z</time></trkpt><trkpt lat="43.3454661" lon="13.1882047"><ele>539.0</ele><time>2026-04-19T11:44:34.246Z</time></trkpt><trkpt lat="43.345455" lon="13.1883843"><ele>539.0</ele><time>2026-04-19T11:44:35.246Z</time></trkpt><trkpt lat="43.3454261" lon="13.1885565"><ele>541.6</ele><time>2026-04-19T11:44:36.245Z</time></trkpt><trkpt lat="43.3453784" lon="13.1886979"><ele>544.2</ele><time>2026-04-19T11:44:37.246Z</time></trkpt><trkpt lat="43.3453308" lon="13.1888085"><ele>546.8000000000001</ele><time>2026-04-19T11:44:38.246Z</time></trkpt><trkpt lat="43.3452932" lon="13.188894"><ele>549.4</ele><time>2026-04-19T11:44:39.246Z</time></trkpt><trkpt lat="43.3452507" lon="13.1890009"><ele>552.0</ele><time>2026-04-19T11:44:41.246Z</time></trkpt><trkpt lat="43.3452935" lon="13.1890974"><ele>553.1666666666666</ele><time>2026-04-19T11:44:43.245Z</time></trkpt><trkpt lat="43.3453572" lon="13.1891471"><ele>554.3333333333334</ele><time>2026-04-19T11:44:44.245Z</time></trkpt><trkpt lat="43.345409" lon="13.1892262"><ele>555.5</ele><time>2026-04-19T11:44:45.246Z</time></trkpt><trkpt lat="43.3454442" lon="13.1893387"><ele>556.6666666666667</ele><time>2026-04-19T11:44:46.245Z</time></trkpt><trkpt lat="43.3454546" lon="13.1894571"><ele>557.8333333333334</ele><time>2026-04-19T11:44:47.245Z</time></trkpt><trkpt lat="43.3454292" lon="13.1895518"><ele>559.0</ele><time>2026-04-19T11:44:48.245Z</time></trkpt><trkpt lat="43.3453772" lon="13.1896266"><ele>559.0</ele><time>2026-04-19T11:44:49.246Z</time></trkpt><trkpt lat="43.3453117" lon="13.1896777"><ele>559.0</ele><time>2026-04-19T11:44:50.245Z</time></trkpt><trkpt lat="43.3452517" lon="13.189741"><ele>559.0</ele><time>2026-04-19T11:44:51.245Z</time></trkpt><trkpt lat="43.3451979" lon="13.1898266"><ele>559.0</ele><time>2026-04-19T11:44:52.245Z</time></trkpt><trkpt lat="43.3451531" lon="13.1899297"><ele>559.0</ele><time>2026-04-19T11:44:53.246Z</time></trkpt><trkpt lat="43.3451173" lon="13.1900396"><ele>559.0</ele><time>2026-04-19T11:44:54.246Z</time></trkpt><trkpt lat="43.3450864" lon="13.1901433"><ele>559.8333333333334</ele><time>2026-04-19T11:44:55.245Z</time></trkpt><trkpt lat="43.3450629" lon="13.190238"><ele>560.6666666666667</ele><time>2026-04-19T11:44:56.246Z</time></trkpt><trkpt lat="43.3450855" lon="13.1903634"><ele>561.5</ele><time>2026-04-19T11:44:58.246Z</time></trkpt><trkpt lat="43.3451686" lon="13.1903797"><ele>562.3333333333334</ele><time>2026-04-19T11:45:00.246Z</time></trkpt><trkpt lat="43.3452268" lon="13.1903406"><ele>563.1666666666666</ele><time>2026-04-19T11:45:01.246Z</time></trkpt><trkpt lat="43.3453015" lon="13.1903173"><ele>564.0</ele><time>2026-04-19T11:45:02.245Z</time></trkpt><trkpt lat="43.3453926" lon="13.1903243"><ele>564.0</ele><time>2026-04-19T11:45:03.246Z</time></trkpt><trkpt lat="43.3454701" lon="13.1903792"><ele>564.0</ele><time>2026-04-19T11:45:04.246Z</time></trkpt><trkpt lat="43.3455548" lon="13.1904636"><ele>564.0</ele><time>2026-04-19T11:45:05.246Z</time></trkpt><trkpt lat="43.3456369" lon="13.1905393"><ele>564.0</ele><time>2026-04-19T11:45:06.246Z</time></trkpt><trkpt lat="43.3457081" lon="13.1906003"><ele>564.0</ele><time>2026-04-19T11:45:07.246Z</time></trkpt><trkpt lat="43.3457786" lon="13.1906616"><ele>567.5</ele><time>2026-04-19T11:45:08.245Z</time></trkpt><trkpt lat="43.3458499" lon="13.1907205"><ele>571.0</ele><time>2026-04-19T11:45:09.246Z</time></trkpt><trkpt lat="43.3459208" lon="13.1907773"><ele>574.5</ele><time>2026-04-19T11:45:10.246Z</time></trkpt><trkpt lat="43.345993" lon="13.1908402"><ele>578.0</ele><time>2026-04-19T11:45:11.245Z</time></trkpt><trkpt lat="43.3460592" lon="13.1909163"><ele>581.5</ele><time>2026-04-19T11:45:12.246Z</time></trkpt><trkpt lat="43.3461066" lon="13.1910089"><ele>585.0</ele><time>2026-04-19T11:45:13.246Z</time></trkpt><trkpt lat="43.3461219" lon="13.1911272"><ele>585.0</ele><time>2026-04-19T11:45:14.246Z</time></trkpt><trkpt lat="43.3461196" lon="13.1912722"><ele>585.0</ele><time>2026-04-19T11:45:15.245Z</time></trkpt><trkpt lat="43.3461219" lon="13.1914097"><ele>585.0</ele><time>2026-04-19T11:45:16.246Z</time></trkpt><trkpt lat="43.3461297" lon="13.1915522"><ele>585.0</ele><time>2026-04-19T11:45:17.246Z</time></trkpt><trkpt lat="43.3461562" lon="13.1916871"><ele>585.0</ele><time>2026-04-19T11:45:18.246Z</time></trkpt><trkpt lat="43.3462095" lon="13.1918072"><ele>586.2</ele><time>2026-04-19T11:45:19.246Z</time></trkpt><trkpt lat="43.3462759" lon="13.1919149"><ele>587.4</ele><time>2026-04-19T11:45:20.245Z</time></trkpt><trkpt lat="43.3463496" lon="13.1920146"><ele>588.6</ele><time>2026-04-19T11:45:21.246Z</time></trkpt><trkpt lat="43.3464259" lon="13.1921109"><ele>589.8</ele><time>2026-04-19T11:45:22.246Z</time></trkpt><trkpt lat="43.3465039" lon="13.1922087"><ele>591.0</ele><time>2026-04-19T11:45:23.245Z</time></trkpt><trkpt lat="43.3465798" lon="13.1923033"><ele>594.8</ele><time>2026-04-19T11:45:24.245Z</time></trkpt><trkpt lat="43.346652" lon="13.1923962"><ele>598.6</ele><time>2026-04-19T11:45:25.246Z</time></trkpt><trkpt lat="43.3467232" lon="13.1924917"><ele>602.4</ele><time>2026-04-19T11:45:26.245Z</time></trkpt><trkpt lat="43.3467883" lon="13.1925794"><ele>606.2</ele><time>2026-04-19T11:45:27.245Z</time></trkpt><trkpt lat="43.3468392" lon="13.192645"><ele>610.0</ele><time>2026-04-19T11:45:28.245Z</time></trkpt><trkpt lat="43.3469166" lon="13.192754"><ele>610.0</ele><time>2026-04-19T11:45:30.245Z</time></trkpt><trkpt lat="43.3469668" lon="13.1928463"><ele>610.0</ele><time>2026-04-19T11:45:32.245Z</time></trkpt><trkpt lat="43.3470087" lon="13.1929557"><ele>610.0</ele><time>2026-04-19T11:45:34.246Z</time></trkpt><trkpt lat="43.3470689" lon="13.1930295"><ele>610.0</ele><time>2026-04-19T11:45:37.246Z</time></trkpt><trkpt lat="43.3471443" lon="13.1929914"><ele>610.0</ele><time>2026-04-19T11:45:39.246Z</time></trkpt><trkpt lat="43.3472029" lon="13.1929206"><ele>610.0</ele><time>2026-04-19T11:45:40.246Z</time></trkpt><trkpt lat="43.3472729" lon="13.1928447"><ele>613.75</ele><time>2026-04-19T11:45:41.246Z</time></trkpt><trkpt lat="43.3473554" lon="13.1927574"><ele>617.5</ele><time>2026-04-19T11:45:42.246Z</time></trkpt><trkpt lat="43.3474453" lon="13.1926632"><ele>621.25</ele><time>2026-04-19T11:45:43.246Z</time></trkpt><trkpt lat="43.3475443" lon="13.1925647"><ele>625.0</ele><time>2026-04-19T11:45:44.246Z</time></trkpt><trkpt lat="43.3476523" lon="13.1924586"><ele>625.0</ele><time>2026-04-19T11:45:45.246Z</time></trkpt><trkpt lat="43.3477604" lon="13.1923501"><ele>625.0</ele><time>2026-04-19T11:45:46.246Z</time></trkpt><trkpt lat="43.3478681" lon="13.1922468"><ele>625.0</ele><time>2026-04-19T11:45:47.246Z</time></trkpt><trkpt lat="43.3479792" lon="13.1921602"><ele>625.0</ele><time>2026-04-19T11:45:48.246Z</time></trkpt><trkpt lat="43.3480914" lon="13.1921078"><ele>624.8</ele><time>2026-04-19T11:45:49.246Z</time></trkpt><trkpt lat="43.3481978" lon="13.1920896"><ele>624.6</ele><time>2026-04-19T11:45:50.246Z</time></trkpt><trkpt lat="43.3483002" lon="13.1920992"><ele>624.4</ele><time>2026-04-19T11:45:51.246Z</time></trkpt><trkpt lat="43.3483952" lon="13.192118"><ele>624.2</ele><time>2026-04-19T11:45:52.246Z</time></trkpt><trkpt lat="43.3484866" lon="13.1921437"><ele>624.0</ele><time>2026-04-19T11:45:53.245Z</time></trkpt><trkpt lat="43.3485756" lon="13.1921714"><ele>624.0</ele><time>2026-04-19T11:45:54.246Z</time></trkpt><trkpt lat="43.3486624" lon="13.1921952"><ele>624.0</ele><time>2026-04-19T11:45:55.246Z</time></trkpt><trkpt lat="43.3487481" lon="13.1922112"><ele>624.0</ele><time>2026-04-19T11:45:56.246Z</time></trkpt><trkpt lat="43.3488297" lon="13.192211"><ele>624.0</ele><time>2026-04-19T11:45:57.245Z</time></trkpt><trkpt lat="43.3489009" lon="13.1921973"><ele>624.0</ele><time>2026-04-19T11:45:58.245Z</time></trkpt><trkpt lat="43.3490046" lon="13.1921481"><ele>624.0</ele><time>2026-04-19T11:46:00.245Z</time></trkpt><trkpt lat="43.3490642" lon="13.1921071"><ele>624.8333333333334</ele><time>2026-04-19T11:46:02.246Z</time></trkpt><trkpt lat="43.349135" lon="13.1920546"><ele>625.6666666666666</ele><time>2026-04-19T11:46:04.246Z</time></trkpt><trkpt lat="43.3491978" lon="13.1920201"><ele>626.5</ele><time>2026-04-19T11:46:06.244Z</time></trkpt><trkpt lat="43.3492784" lon="13.1920622"><ele>627.3333333333333</ele><time>2026-04-19T11:46:10.245Z</time></trkpt><trkpt lat="43.3493552" lon="13.1920345"><ele>628.1666666666666</ele><time>2026-04-19T11:46:13.246Z</time></trkpt><trkpt lat="43.3494361" lon="13.1919775"><ele>629.0</ele><time>2026-04-19T11:46:16.246Z</time></trkpt><trkpt lat="43.3495268" lon="13.1919938"><ele>629.0</ele><time>2026-04-19T11:46:19.245Z</time></trkpt><trkpt lat="43.3495789" lon="13.1920441"><ele>629.0</ele><time>2026-04-19T11:46:21.244Z</time></trkpt><trkpt lat="43.3496614" lon="13.1920545"><ele>629.0</ele><time>2026-04-19T11:46:25.245Z</time></trkpt><trkpt lat="43.3497243" lon="13.1920309"><ele>629.0</ele><time>2026-04-19T11:46:29.245Z</time></trkpt><trkpt lat="43.3496553" lon="13.1920442"><ele>629.0</ele><time>2026-04-19T11:51:48.245Z</time></trkpt><trkpt lat="43.349597" lon="13.1920114"><ele>629.0</ele><time>2026-04-19T11:51:55.245Z</time></trkpt><trkpt lat="43.3495591" lon="13.1919409"><ele>629.0</ele><time>2026-04-19T11:52:01.245Z</time></trkpt><trkpt lat="43.3494957" lon="13.1919874"><ele>629.0</ele><time>2026-04-19T11:52:08.245Z</time></trkpt><trkpt lat="43.3494904" lon="13.1918918"><ele>629.0</ele><time>2026-04-19T11:52:16.244Z</time></trkpt><trkpt lat="43.3494855" lon="13.1917977"><ele>629.0</ele><time>2026-04-19T11:52:22.245Z</time></trkpt><trkpt lat="43.3495074" lon="13.1917148"><ele>629.0</ele><time>2026-04-19T11:52:28.245Z</time></trkpt><trkpt lat="43.3494624" lon="13.1916495"><ele>629.0</ele><time>2026-04-19T11:52:36.243Z</time></trkpt><trkpt lat="43.3495135" lon="13.1915977"><ele>629.0</ele><time>2026-04-19T11:52:47.244Z</time></trkpt></trkseg></trk></gpx>